<?xml version="1.0" encoding="UTF-8" standalone="no" ?>
<gpx xmlns="http://www.topografix.com/GPX/1/1" xmlns:xsi="http://www.w3.org/2001/XMLSchema-instance" xsi:schemaLocation="http://www.topografix.com/GPX/1/1 http://www.topografix.com/GPX/1/1/gpx.xsd" version="1.1" creator="VisuGPX - https://www.visugpx.com">
  <metadata>
    <name>Beuil Balcons du Cians + boucle Wisler </name>
    <desc><![CDATA[Bel enchainement, la première boucle avec les balcons du Cians et uns boucle supplementaire pour faire la descente topissime "wisler"
Attention la première boucle nécessite environ 400w/h et la seconde 300 au total D+ 2000m]]></desc>
  </metadata>
  <trk>
    <name><![CDATA[BEUIL Rocky Balcons du Cians 20 8 22]]></name>
    <trkseg>
      <trkpt lat="44.12051" lon="6.90198">
        <ele>1310.1</ele>
      </trkpt>
    </trkseg>
  </trk>
  <trk>
    <name><![CDATA[Beuil Cyclisme]]></name>
    <extensions>
      <line xmlns="http://www.topografix.com/GPX/gpx_style/0/2">
        <color>0000FF</color>
        <width>4</width>
      </line>
    </extensions>
    <trkseg>
      <trkpt lat="44.09601" lon="6.98623">
        <ele>1449</ele>
        <time>2022-08-20T07:31:54.000Z</time>
      </trkpt>
      <trkpt lat="44.09598" lon="6.98622">
        <ele>1449</ele>
        <time>2022-08-20T07:31:56.000Z</time>
      </trkpt>
      <trkpt lat="44.09597" lon="6.98614">
        <ele>1449.1999511719</ele>
        <time>2022-08-20T07:31:58.000Z</time>
      </trkpt>
      <trkpt lat="44.09604" lon="6.98607">
        <ele>1449</ele>
        <time>2022-08-20T07:32:01.000Z</time>
      </trkpt>
      <trkpt lat="44.09616" lon="6.9859">
        <ele>1448.1999511719</ele>
        <time>2022-08-20T07:32:06.000Z</time>
      </trkpt>
      <trkpt lat="44.09619" lon="6.9858">
        <ele>1448</ele>
        <time>2022-08-20T07:32:08.000Z</time>
      </trkpt>
      <trkpt lat="44.0962" lon="6.98566">
        <ele>1447.8000488281</ele>
        <time>2022-08-20T07:32:11.000Z</time>
      </trkpt>
      <trkpt lat="44.09614" lon="6.98535">
        <ele>1446.8000488281</ele>
        <time>2022-08-20T07:32:16.000Z</time>
      </trkpt>
      <trkpt lat="44.09609" lon="6.98503">
        <ele>1445.4000244141</ele>
        <time>2022-08-20T07:32:20.000Z</time>
      </trkpt>
      <trkpt lat="44.09608" lon="6.98484">
        <ele>1444.5999755859</ele>
        <time>2022-08-20T07:32:22.000Z</time>
      </trkpt>
      <trkpt lat="44.09607" lon="6.98474">
        <ele>1444.1999511719</ele>
        <time>2022-08-20T07:32:23.000Z</time>
      </trkpt>
      <trkpt lat="44.09606" lon="6.98453">
        <ele>1443.1999511719</ele>
        <time>2022-08-20T07:32:25.000Z</time>
      </trkpt>
      <trkpt lat="44.09605" lon="6.98425">
        <ele>1441.8000488281</ele>
        <time>2022-08-20T07:32:28.000Z</time>
      </trkpt>
      <trkpt lat="44.09605" lon="6.98418">
        <ele>1441.5999755859</ele>
        <time>2022-08-20T07:32:29.000Z</time>
      </trkpt>
      <trkpt lat="44.09601" lon="6.98364">
        <ele>1441.4000244141</ele>
        <time>2022-08-20T07:32:36.000Z</time>
      </trkpt>
      <trkpt lat="44.09594" lon="6.98339">
        <ele>1441.1999511719</ele>
        <time>2022-08-20T07:32:40.000Z</time>
      </trkpt>
      <trkpt lat="44.09592" lon="6.98334">
        <ele>1441.1999511719</ele>
        <time>2022-08-20T07:32:41.000Z</time>
      </trkpt>
      <trkpt lat="44.09579" lon="6.98301">
        <ele>1442</ele>
        <time>2022-08-20T07:32:48.000Z</time>
      </trkpt>
      <trkpt lat="44.0957" lon="6.98276">
        <ele>1442.8000488281</ele>
        <time>2022-08-20T07:32:54.000Z</time>
      </trkpt>
      <trkpt lat="44.09568" lon="6.98266">
        <ele>1443</ele>
        <time>2022-08-20T07:32:56.000Z</time>
      </trkpt>
      <trkpt lat="44.09565" lon="6.98234">
        <ele>1442.8000488281</ele>
        <time>2022-08-20T07:33:02.000Z</time>
      </trkpt>
      <trkpt lat="44.09562" lon="6.98205">
        <ele>1443.8000488281</ele>
        <time>2022-08-20T07:33:08.000Z</time>
      </trkpt>
      <trkpt lat="44.0956" lon="6.98197">
        <ele>1444.1999511719</ele>
        <time>2022-08-20T07:33:10.000Z</time>
      </trkpt>
      <trkpt lat="44.09557" lon="6.98185">
        <ele>1444.8000488281</ele>
        <time>2022-08-20T07:33:13.000Z</time>
      </trkpt>
      <trkpt lat="44.09553" lon="6.9817">
        <ele>1446</ele>
        <time>2022-08-20T07:33:17.000Z</time>
      </trkpt>
      <trkpt lat="44.09552" lon="6.98159">
        <ele>1447</ele>
        <time>2022-08-20T07:33:20.000Z</time>
      </trkpt>
      <trkpt lat="44.09551" lon="6.98148">
        <ele>1448</ele>
        <time>2022-08-20T07:33:23.000Z</time>
      </trkpt>
      <trkpt lat="44.09552" lon="6.9814">
        <ele>1448.5999755859</ele>
        <time>2022-08-20T07:33:25.000Z</time>
      </trkpt>
      <trkpt lat="44.09553" lon="6.98132">
        <ele>1449.4000244141</ele>
        <time>2022-08-20T07:33:27.000Z</time>
      </trkpt>
      <trkpt lat="44.09556" lon="6.98113">
        <ele>1450.4000244141</ele>
        <time>2022-08-20T07:33:32.000Z</time>
      </trkpt>
      <trkpt lat="44.09558" lon="6.98088">
        <ele>1451.4000244141</ele>
        <time>2022-08-20T07:33:39.000Z</time>
      </trkpt>
      <trkpt lat="44.09557" lon="6.98085">
        <ele>1451.5999755859</ele>
        <time>2022-08-20T07:33:40.000Z</time>
      </trkpt>
      <trkpt lat="44.09557" lon="6.98067">
        <ele>1452.5999755859</ele>
        <time>2022-08-20T07:33:45.000Z</time>
      </trkpt>
      <trkpt lat="44.09555" lon="6.98053">
        <ele>1453</ele>
        <time>2022-08-20T07:33:49.000Z</time>
      </trkpt>
      <trkpt lat="44.0955" lon="6.98031">
        <ele>1453.4000244141</ele>
        <time>2022-08-20T07:33:54.000Z</time>
      </trkpt>
      <trkpt lat="44.0954" lon="6.97999">
        <ele>1452.8000488281</ele>
        <time>2022-08-20T07:34:01.000Z</time>
      </trkpt>
      <trkpt lat="44.0953" lon="6.97967">
        <ele>1453.1999511719</ele>
        <time>2022-08-20T07:34:09.000Z</time>
      </trkpt>
      <trkpt lat="44.09529" lon="6.97959">
        <ele>1453.5999755859</ele>
        <time>2022-08-20T07:34:11.000Z</time>
      </trkpt>
      <trkpt lat="44.09527" lon="6.97945">
        <ele>1454</ele>
        <time>2022-08-20T07:34:14.000Z</time>
      </trkpt>
      <trkpt lat="44.09525" lon="6.97933">
        <ele>1454.5999755859</ele>
        <time>2022-08-20T07:34:17.000Z</time>
      </trkpt>
      <trkpt lat="44.09521" lon="6.97916">
        <ele>1455.8000488281</ele>
        <time>2022-08-20T07:34:21.000Z</time>
      </trkpt>
      <trkpt lat="44.09514" lon="6.97892">
        <ele>1456.8000488281</ele>
        <time>2022-08-20T07:34:28.000Z</time>
      </trkpt>
      <trkpt lat="44.09512" lon="6.97885">
        <ele>1457.4000244141</ele>
        <time>2022-08-20T07:34:30.000Z</time>
      </trkpt>
      <trkpt lat="44.0951" lon="6.97879">
        <ele>1458</ele>
        <time>2022-08-20T07:34:32.000Z</time>
      </trkpt>
      <trkpt lat="44.09507" lon="6.9787">
        <ele>1459.1999511719</ele>
        <time>2022-08-20T07:34:35.000Z</time>
      </trkpt>
      <trkpt lat="44.09504" lon="6.97863">
        <ele>1459.8000488281</ele>
        <time>2022-08-20T07:34:37.000Z</time>
      </trkpt>
      <trkpt lat="44.095" lon="6.97854">
        <ele>1460.4000244141</ele>
        <time>2022-08-20T07:34:40.000Z</time>
      </trkpt>
      <trkpt lat="44.09492" lon="6.97835">
        <ele>1461.8000488281</ele>
        <time>2022-08-20T07:34:46.000Z</time>
      </trkpt>
      <trkpt lat="44.09489" lon="6.97826">
        <ele>1462.8000488281</ele>
        <time>2022-08-20T07:34:49.000Z</time>
      </trkpt>
      <trkpt lat="44.09483" lon="6.97811">
        <ele>1463.8000488281</ele>
        <time>2022-08-20T07:34:54.000Z</time>
      </trkpt>
      <trkpt lat="44.09481" lon="6.97807">
        <ele>1464</ele>
        <time>2022-08-20T07:34:55.000Z</time>
      </trkpt>
      <trkpt lat="44.09473" lon="6.97789">
        <ele>1465</ele>
        <time>2022-08-20T07:35:01.000Z</time>
      </trkpt>
      <trkpt lat="44.09461" lon="6.97762">
        <ele>1465</ele>
        <time>2022-08-20T07:35:09.000Z</time>
      </trkpt>
      <trkpt lat="44.09448" lon="6.97733">
        <ele>1464.8000488281</ele>
        <time>2022-08-20T07:35:18.000Z</time>
      </trkpt>
      <trkpt lat="44.09435" lon="6.97705">
        <ele>1465.4000244141</ele>
        <time>2022-08-20T07:35:27.000Z</time>
      </trkpt>
      <trkpt lat="44.09426" lon="6.97683">
        <ele>1466.1999511719</ele>
        <time>2022-08-20T07:35:34.000Z</time>
      </trkpt>
      <trkpt lat="44.09424" lon="6.97677">
        <ele>1466.4000244141</ele>
        <time>2022-08-20T07:35:36.000Z</time>
      </trkpt>
      <trkpt lat="44.09419" lon="6.97664">
        <ele>1467.1999511719</ele>
        <time>2022-08-20T07:35:40.000Z</time>
      </trkpt>
      <trkpt lat="44.09416" lon="6.97655">
        <ele>1467.5999755859</ele>
        <time>2022-08-20T07:35:43.000Z</time>
      </trkpt>
      <trkpt lat="44.09413" lon="6.97646">
        <ele>1468.5999755859</ele>
        <time>2022-08-20T07:35:46.000Z</time>
      </trkpt>
      <trkpt lat="44.09409" lon="6.97637">
        <ele>1469.8000488281</ele>
        <time>2022-08-20T07:35:49.000Z</time>
      </trkpt>
      <trkpt lat="44.09407" lon="6.97631">
        <ele>1470.5999755859</ele>
        <time>2022-08-20T07:35:51.000Z</time>
      </trkpt>
      <trkpt lat="44.09404" lon="6.97626">
        <ele>1471.1999511719</ele>
        <time>2022-08-20T07:35:53.000Z</time>
      </trkpt>
      <trkpt lat="44.09398" lon="6.97612">
        <ele>1472.4000244141</ele>
        <time>2022-08-20T07:35:58.000Z</time>
      </trkpt>
      <trkpt lat="44.09397" lon="6.9761">
        <ele>1472.8000488281</ele>
        <time>2022-08-20T07:35:59.000Z</time>
      </trkpt>
      <trkpt lat="44.09395" lon="6.97604">
        <ele>1473.5999755859</ele>
        <time>2022-08-20T07:36:01.000Z</time>
      </trkpt>
      <trkpt lat="44.09391" lon="6.97595">
        <ele>1475</ele>
        <time>2022-08-20T07:36:05.000Z</time>
      </trkpt>
      <trkpt lat="44.09389" lon="6.97589">
        <ele>1475.5999755859</ele>
        <time>2022-08-20T07:36:07.000Z</time>
      </trkpt>
      <trkpt lat="44.09388" lon="6.97584">
        <ele>1476.1999511719</ele>
        <time>2022-08-20T07:36:09.000Z</time>
      </trkpt>
      <trkpt lat="44.09386" lon="6.97575">
        <ele>1477.5999755859</ele>
        <time>2022-08-20T07:36:13.000Z</time>
      </trkpt>
      <trkpt lat="44.09385" lon="6.9757">
        <ele>1478.1999511719</ele>
        <time>2022-08-20T07:36:15.000Z</time>
      </trkpt>
      <trkpt lat="44.09384" lon="6.97566">
        <ele>1478.8000488281</ele>
        <time>2022-08-20T07:36:17.000Z</time>
      </trkpt>
      <trkpt lat="44.09383" lon="6.97559">
        <ele>1480</ele>
        <time>2022-08-20T07:36:20.000Z</time>
      </trkpt>
      <trkpt lat="44.0938" lon="6.9755">
        <ele>1481.4000244141</ele>
        <time>2022-08-20T07:36:24.000Z</time>
      </trkpt>
      <trkpt lat="44.09379" lon="6.97544">
        <ele>1482.4000244141</ele>
        <time>2022-08-20T07:36:27.000Z</time>
      </trkpt>
      <trkpt lat="44.09377" lon="6.97537">
        <ele>1483.5999755859</ele>
        <time>2022-08-20T07:36:30.000Z</time>
      </trkpt>
      <trkpt lat="44.09374" lon="6.97532">
        <ele>1484.8000488281</ele>
        <time>2022-08-20T07:36:33.000Z</time>
      </trkpt>
      <trkpt lat="44.09372" lon="6.97525">
        <ele>1486</ele>
        <time>2022-08-20T07:36:36.000Z</time>
      </trkpt>
      <trkpt lat="44.09366" lon="6.97516">
        <ele>1487</ele>
        <time>2022-08-20T07:36:41.000Z</time>
      </trkpt>
      <trkpt lat="44.09364" lon="6.97512">
        <ele>1487.1999511719</ele>
        <time>2022-08-20T07:36:43.000Z</time>
      </trkpt>
      <trkpt lat="44.09358" lon="6.97507">
        <ele>1488</ele>
        <time>2022-08-20T07:36:47.000Z</time>
      </trkpt>
      <trkpt lat="44.09351" lon="6.97502">
        <ele>1488.8000488281</ele>
        <time>2022-08-20T07:36:51.000Z</time>
      </trkpt>
      <trkpt lat="44.0935" lon="6.97502">
        <ele>1489.1999511719</ele>
        <time>2022-08-20T07:36:52.000Z</time>
      </trkpt>
      <trkpt lat="44.09343" lon="6.97499">
        <ele>1490.4000244141</ele>
        <time>2022-08-20T07:36:56.000Z</time>
      </trkpt>
      <trkpt lat="44.09338" lon="6.97498">
        <ele>1491</ele>
        <time>2022-08-20T07:36:59.000Z</time>
      </trkpt>
      <trkpt lat="44.09335" lon="6.97497">
        <ele>1491.5999755859</ele>
        <time>2022-08-20T07:37:01.000Z</time>
      </trkpt>
      <trkpt lat="44.09328" lon="6.97494">
        <ele>1492.8000488281</ele>
        <time>2022-08-20T07:37:05.000Z</time>
      </trkpt>
      <trkpt lat="44.09326" lon="6.97494">
        <ele>1493</ele>
        <time>2022-08-20T07:37:06.000Z</time>
      </trkpt>
      <trkpt lat="44.09321" lon="6.97491">
        <ele>1494</ele>
        <time>2022-08-20T07:37:09.000Z</time>
      </trkpt>
      <trkpt lat="44.09315" lon="6.97487">
        <ele>1495.1999511719</ele>
        <time>2022-08-20T07:37:13.000Z</time>
      </trkpt>
      <trkpt lat="44.09309" lon="6.97482">
        <ele>1496.4000244141</ele>
        <time>2022-08-20T07:37:17.000Z</time>
      </trkpt>
      <trkpt lat="44.09304" lon="6.97478">
        <ele>1496.8000488281</ele>
        <time>2022-08-20T07:37:20.000Z</time>
      </trkpt>
      <trkpt lat="44.09301" lon="6.97474">
        <ele>1497.4000244141</ele>
        <time>2022-08-20T07:37:22.000Z</time>
      </trkpt>
      <trkpt lat="44.09296" lon="6.97465">
        <ele>1498.4000244141</ele>
        <time>2022-08-20T07:37:27.000Z</time>
      </trkpt>
      <trkpt lat="44.09295" lon="6.97463">
        <ele>1498.5999755859</ele>
        <time>2022-08-20T07:37:28.000Z</time>
      </trkpt>
      <trkpt lat="44.09291" lon="6.97451">
        <ele>1499.4000244141</ele>
        <time>2022-08-20T07:37:34.000Z</time>
      </trkpt>
      <trkpt lat="44.09287" lon="6.97444">
        <ele>1499.5999755859</ele>
        <time>2022-08-20T07:37:38.000Z</time>
      </trkpt>
      <trkpt lat="44.09282" lon="6.97435">
        <ele>1499.8000488281</ele>
        <time>2022-08-20T07:37:42.000Z</time>
      </trkpt>
      <trkpt lat="44.09272" lon="6.97418">
        <ele>1500.1999511719</ele>
        <time>2022-08-20T07:37:51.000Z</time>
      </trkpt>
      <trkpt lat="44.09268" lon="6.9741">
        <ele>1500.5999755859</ele>
        <time>2022-08-20T07:37:55.000Z</time>
      </trkpt>
      <trkpt lat="44.09264" lon="6.97403">
        <ele>1501.1999511719</ele>
        <time>2022-08-20T07:37:59.000Z</time>
      </trkpt>
      <trkpt lat="44.09261" lon="6.97397">
        <ele>1501.5999755859</ele>
        <time>2022-08-20T07:38:02.000Z</time>
      </trkpt>
      <trkpt lat="44.09255" lon="6.97391">
        <ele>1502.4000244141</ele>
        <time>2022-08-20T07:38:06.000Z</time>
      </trkpt>
      <trkpt lat="44.09247" lon="6.9738">
        <ele>1502.8000488281</ele>
        <time>2022-08-20T07:38:11.000Z</time>
      </trkpt>
      <trkpt lat="44.09242" lon="6.97373">
        <ele>1503.5999755859</ele>
        <time>2022-08-20T07:38:14.000Z</time>
      </trkpt>
      <trkpt lat="44.0924" lon="6.97371">
        <ele>1504</ele>
        <time>2022-08-20T07:38:15.000Z</time>
      </trkpt>
      <trkpt lat="44.09235" lon="6.97365">
        <ele>1505.1999511719</ele>
        <time>2022-08-20T07:38:18.000Z</time>
      </trkpt>
      <trkpt lat="44.09231" lon="6.97358">
        <ele>1506.5999755859</ele>
        <time>2022-08-20T07:38:21.000Z</time>
      </trkpt>
      <trkpt lat="44.09227" lon="6.9735">
        <ele>1507.5999755859</ele>
        <time>2022-08-20T07:38:24.000Z</time>
      </trkpt>
      <trkpt lat="44.09221" lon="6.97342">
        <ele>1508.8000488281</ele>
        <time>2022-08-20T07:38:28.000Z</time>
      </trkpt>
      <trkpt lat="44.0922" lon="6.97339">
        <ele>1509.1999511719</ele>
        <time>2022-08-20T07:38:29.000Z</time>
      </trkpt>
      <trkpt lat="44.09219" lon="6.97333">
        <ele>1510</ele>
        <time>2022-08-20T07:38:31.000Z</time>
      </trkpt>
      <trkpt lat="44.09216" lon="6.97325">
        <ele>1511</ele>
        <time>2022-08-20T07:38:34.000Z</time>
      </trkpt>
      <trkpt lat="44.09215" lon="6.97322">
        <ele>1511.5999755859</ele>
        <time>2022-08-20T07:38:35.000Z</time>
      </trkpt>
      <trkpt lat="44.09214" lon="6.9732">
        <ele>1512.1999511719</ele>
        <time>2022-08-20T07:38:36.000Z</time>
      </trkpt>
      <trkpt lat="44.09212" lon="6.97315">
        <ele>1513.5999755859</ele>
        <time>2022-08-20T07:38:38.000Z</time>
      </trkpt>
      <trkpt lat="44.09208" lon="6.97307">
        <ele>1515</ele>
        <time>2022-08-20T07:38:41.000Z</time>
      </trkpt>
      <trkpt lat="44.09204" lon="6.97301">
        <ele>1516</ele>
        <time>2022-08-20T07:38:44.000Z</time>
      </trkpt>
      <trkpt lat="44.09198" lon="6.97298">
        <ele>1517.1999511719</ele>
        <time>2022-08-20T07:38:47.000Z</time>
      </trkpt>
      <trkpt lat="44.0919" lon="6.97291">
        <ele>1518.1999511719</ele>
        <time>2022-08-20T07:38:51.000Z</time>
      </trkpt>
      <trkpt lat="44.09184" lon="6.97287">
        <ele>1519.1999511719</ele>
        <time>2022-08-20T07:38:54.000Z</time>
      </trkpt>
      <trkpt lat="44.09179" lon="6.97281">
        <ele>1520.5999755859</ele>
        <time>2022-08-20T07:38:57.000Z</time>
      </trkpt>
      <trkpt lat="44.09177" lon="6.97279">
        <ele>1521</ele>
        <time>2022-08-20T07:38:58.000Z</time>
      </trkpt>
      <trkpt lat="44.09174" lon="6.97276">
        <ele>1522</ele>
        <time>2022-08-20T07:39:00.000Z</time>
      </trkpt>
      <trkpt lat="44.0917" lon="6.97269">
        <ele>1523.4000244141</ele>
        <time>2022-08-20T07:39:03.000Z</time>
      </trkpt>
      <trkpt lat="44.09169" lon="6.97268">
        <ele>1524</ele>
        <time>2022-08-20T07:39:04.000Z</time>
      </trkpt>
      <trkpt lat="44.09167" lon="6.97263">
        <ele>1524.5999755859</ele>
        <time>2022-08-20T07:39:06.000Z</time>
      </trkpt>
      <trkpt lat="44.09166" lon="6.97261">
        <ele>1525</ele>
        <time>2022-08-20T07:39:07.000Z</time>
      </trkpt>
      <trkpt lat="44.09165" lon="6.97259">
        <ele>1525.4000244141</ele>
        <time>2022-08-20T07:39:08.000Z</time>
      </trkpt>
      <trkpt lat="44.09163" lon="6.97257">
        <ele>1525.8000488281</ele>
        <time>2022-08-20T07:39:09.000Z</time>
      </trkpt>
      <trkpt lat="44.09159" lon="6.97249">
        <ele>1527.1999511719</ele>
        <time>2022-08-20T07:39:12.000Z</time>
      </trkpt>
      <trkpt lat="44.09158" lon="6.97243">
        <ele>1528</ele>
        <time>2022-08-20T07:39:14.000Z</time>
      </trkpt>
      <trkpt lat="44.09157" lon="6.97241">
        <ele>1528.5999755859</ele>
        <time>2022-08-20T07:39:15.000Z</time>
      </trkpt>
      <trkpt lat="44.09157" lon="6.97234">
        <ele>1530.1999511719</ele>
        <time>2022-08-20T07:39:18.000Z</time>
      </trkpt>
      <trkpt lat="44.09154" lon="6.9723">
        <ele>1531.1999511719</ele>
        <time>2022-08-20T07:39:20.000Z</time>
      </trkpt>
      <trkpt lat="44.09151" lon="6.97225">
        <ele>1532.8000488281</ele>
        <time>2022-08-20T07:39:23.000Z</time>
      </trkpt>
      <trkpt lat="44.09147" lon="6.97219">
        <ele>1534</ele>
        <time>2022-08-20T07:39:26.000Z</time>
      </trkpt>
      <trkpt lat="44.09146" lon="6.97217">
        <ele>1534.1999511719</ele>
        <time>2022-08-20T07:39:27.000Z</time>
      </trkpt>
      <trkpt lat="44.09143" lon="6.97214">
        <ele>1535.1999511719</ele>
        <time>2022-08-20T07:39:29.000Z</time>
      </trkpt>
      <trkpt lat="44.0914" lon="6.97208">
        <ele>1536.4000244141</ele>
        <time>2022-08-20T07:39:32.000Z</time>
      </trkpt>
      <trkpt lat="44.09138" lon="6.97204">
        <ele>1537.1999511719</ele>
        <time>2022-08-20T07:39:34.000Z</time>
      </trkpt>
      <trkpt lat="44.09137" lon="6.97203">
        <ele>1537.5999755859</ele>
        <time>2022-08-20T07:39:35.000Z</time>
      </trkpt>
      <trkpt lat="44.09134" lon="6.97197">
        <ele>1538.5999755859</ele>
        <time>2022-08-20T07:39:38.000Z</time>
      </trkpt>
      <trkpt lat="44.09133" lon="6.97194">
        <ele>1539.1999511719</ele>
        <time>2022-08-20T07:39:39.000Z</time>
      </trkpt>
      <trkpt lat="44.0913" lon="6.97187">
        <ele>1540.4000244141</ele>
        <time>2022-08-20T07:39:42.000Z</time>
      </trkpt>
      <trkpt lat="44.09127" lon="6.97182">
        <ele>1541</ele>
        <time>2022-08-20T07:39:44.000Z</time>
      </trkpt>
      <trkpt lat="44.09124" lon="6.97177">
        <ele>1541.5999755859</ele>
        <time>2022-08-20T07:39:46.000Z</time>
      </trkpt>
      <trkpt lat="44.09121" lon="6.9717">
        <ele>1543</ele>
        <time>2022-08-20T07:39:49.000Z</time>
      </trkpt>
      <trkpt lat="44.0912" lon="6.97167">
        <ele>1543.4000244141</ele>
        <time>2022-08-20T07:39:50.000Z</time>
      </trkpt>
      <trkpt lat="44.09119" lon="6.97165">
        <ele>1544.1999511719</ele>
        <time>2022-08-20T07:39:51.000Z</time>
      </trkpt>
      <trkpt lat="44.09118" lon="6.9716">
        <ele>1545.4000244141</ele>
        <time>2022-08-20T07:39:53.000Z</time>
      </trkpt>
      <trkpt lat="44.09117" lon="6.97155">
        <ele>1546.5999755859</ele>
        <time>2022-08-20T07:39:55.000Z</time>
      </trkpt>
      <trkpt lat="44.09117" lon="6.97151">
        <ele>1547.8000488281</ele>
        <time>2022-08-20T07:39:57.000Z</time>
      </trkpt>
      <trkpt lat="44.09112" lon="6.97143">
        <ele>1548.5999755859</ele>
        <time>2022-08-20T07:40:03.000Z</time>
      </trkpt>
      <trkpt lat="44.09113" lon="6.97142">
        <ele>1548.8000488281</ele>
        <time>2022-08-20T07:40:05.000Z</time>
      </trkpt>
      <trkpt lat="44.09113" lon="6.97143">
        <ele>1548.8000488281</ele>
        <time>2022-08-20T07:40:08.000Z</time>
      </trkpt>
      <trkpt lat="44.09112" lon="6.97143">
        <ele>1548.8000488281</ele>
        <time>2022-08-20T07:40:16.000Z</time>
      </trkpt>
      <trkpt lat="44.09111" lon="6.97142">
        <ele>1548.8000488281</ele>
        <time>2022-08-20T07:40:30.000Z</time>
      </trkpt>
      <trkpt lat="44.0911" lon="6.9714">
        <ele>1549</ele>
        <time>2022-08-20T07:40:31.000Z</time>
      </trkpt>
      <trkpt lat="44.09106" lon="6.97129">
        <ele>1549.4000244141</ele>
        <time>2022-08-20T07:40:37.000Z</time>
      </trkpt>
      <trkpt lat="44.09102" lon="6.9712">
        <ele>1549.8000488281</ele>
        <time>2022-08-20T07:40:41.000Z</time>
      </trkpt>
      <trkpt lat="44.09099" lon="6.97109">
        <ele>1550.4000244141</ele>
        <time>2022-08-20T07:40:45.000Z</time>
      </trkpt>
      <trkpt lat="44.09096" lon="6.971">
        <ele>1550.8000488281</ele>
        <time>2022-08-20T07:40:49.000Z</time>
      </trkpt>
      <trkpt lat="44.0909" lon="6.97085">
        <ele>1551.4000244141</ele>
        <time>2022-08-20T07:40:55.000Z</time>
      </trkpt>
      <trkpt lat="44.09084" lon="6.97076">
        <ele>1552</ele>
        <time>2022-08-20T07:40:59.000Z</time>
      </trkpt>
      <trkpt lat="44.09078" lon="6.9707">
        <ele>1552.1999511719</ele>
        <time>2022-08-20T07:41:03.000Z</time>
      </trkpt>
      <trkpt lat="44.09073" lon="6.97071">
        <ele>1552.1999511719</ele>
        <time>2022-08-20T07:41:05.000Z</time>
      </trkpt>
      <trkpt lat="44.09069" lon="6.97074">
        <ele>1552.1999511719</ele>
        <time>2022-08-20T07:41:07.000Z</time>
      </trkpt>
      <trkpt lat="44.09056" lon="6.97083">
        <ele>1552.5999755859</ele>
        <time>2022-08-20T07:41:14.000Z</time>
      </trkpt>
      <trkpt lat="44.09052" lon="6.97085">
        <ele>1553</ele>
        <time>2022-08-20T07:41:16.000Z</time>
      </trkpt>
      <trkpt lat="44.09042" lon="6.97089">
        <ele>1554.1999511719</ele>
        <time>2022-08-20T07:41:21.000Z</time>
      </trkpt>
      <trkpt lat="44.09038" lon="6.97089">
        <ele>1554.8000488281</ele>
        <time>2022-08-20T07:41:23.000Z</time>
      </trkpt>
      <trkpt lat="44.09031" lon="6.97089">
        <ele>1555.4000244141</ele>
        <time>2022-08-20T07:41:26.000Z</time>
      </trkpt>
      <trkpt lat="44.09021" lon="6.97087">
        <ele>1556.1999511719</ele>
        <time>2022-08-20T07:41:31.000Z</time>
      </trkpt>
      <trkpt lat="44.09019" lon="6.97086">
        <ele>1556.4000244141</ele>
        <time>2022-08-20T07:41:32.000Z</time>
      </trkpt>
      <trkpt lat="44.09004" lon="6.97083">
        <ele>1557.4000244141</ele>
        <time>2022-08-20T07:41:39.000Z</time>
      </trkpt>
      <trkpt lat="44.09002" lon="6.97083">
        <ele>1557.5999755859</ele>
        <time>2022-08-20T07:41:40.000Z</time>
      </trkpt>
      <trkpt lat="44.08983" lon="6.97079">
        <ele>1558.5999755859</ele>
        <time>2022-08-20T07:41:48.000Z</time>
      </trkpt>
      <trkpt lat="44.08976" lon="6.97077">
        <ele>1559</ele>
        <time>2022-08-20T07:41:51.000Z</time>
      </trkpt>
      <trkpt lat="44.08966" lon="6.97075">
        <ele>1559.5999755859</ele>
        <time>2022-08-20T07:41:55.000Z</time>
      </trkpt>
      <trkpt lat="44.08952" lon="6.9707">
        <ele>1560.5999755859</ele>
        <time>2022-08-20T07:42:01.000Z</time>
      </trkpt>
      <trkpt lat="44.0895" lon="6.97069">
        <ele>1560.8000488281</ele>
        <time>2022-08-20T07:42:02.000Z</time>
      </trkpt>
      <trkpt lat="44.08935" lon="6.97059">
        <ele>1562</ele>
        <time>2022-08-20T07:42:09.000Z</time>
      </trkpt>
      <trkpt lat="44.08933" lon="6.97058">
        <ele>1562.1999511719</ele>
        <time>2022-08-20T07:42:10.000Z</time>
      </trkpt>
      <trkpt lat="44.08922" lon="6.97051">
        <ele>1563</ele>
        <time>2022-08-20T07:42:15.000Z</time>
      </trkpt>
      <trkpt lat="44.08911" lon="6.97044">
        <ele>1563.8000488281</ele>
        <time>2022-08-20T07:42:20.000Z</time>
      </trkpt>
      <trkpt lat="44.08909" lon="6.97043">
        <ele>1564</ele>
        <time>2022-08-20T07:42:21.000Z</time>
      </trkpt>
      <trkpt lat="44.08896" lon="6.97034">
        <ele>1565.1999511719</ele>
        <time>2022-08-20T07:42:27.000Z</time>
      </trkpt>
      <trkpt lat="44.08886" lon="6.97026">
        <ele>1566</ele>
        <time>2022-08-20T07:42:32.000Z</time>
      </trkpt>
      <trkpt lat="44.08884" lon="6.97025">
        <ele>1566.1999511719</ele>
        <time>2022-08-20T07:42:33.000Z</time>
      </trkpt>
      <trkpt lat="44.08871" lon="6.97016">
        <ele>1567.4000244141</ele>
        <time>2022-08-20T07:42:39.000Z</time>
      </trkpt>
      <trkpt lat="44.08867" lon="6.97012">
        <ele>1567.5999755859</ele>
        <time>2022-08-20T07:42:41.000Z</time>
      </trkpt>
      <trkpt lat="44.08856" lon="6.97007">
        <ele>1568.5999755859</ele>
        <time>2022-08-20T07:42:46.000Z</time>
      </trkpt>
      <trkpt lat="44.08852" lon="6.97004">
        <ele>1568.8000488281</ele>
        <time>2022-08-20T07:42:48.000Z</time>
      </trkpt>
      <trkpt lat="44.08843" lon="6.97">
        <ele>1569.5999755859</ele>
        <time>2022-08-20T07:42:52.000Z</time>
      </trkpt>
      <trkpt lat="44.08827" lon="6.96993">
        <ele>1570.8000488281</ele>
        <time>2022-08-20T07:42:59.000Z</time>
      </trkpt>
      <trkpt lat="44.08824" lon="6.96991">
        <ele>1570.8000488281</ele>
        <time>2022-08-20T07:43:00.000Z</time>
      </trkpt>
      <trkpt lat="44.0881" lon="6.96987">
        <ele>1571.8000488281</ele>
        <time>2022-08-20T07:43:06.000Z</time>
      </trkpt>
      <trkpt lat="44.08805" lon="6.9699">
        <ele>1572.1999511719</ele>
        <time>2022-08-20T07:43:08.000Z</time>
      </trkpt>
      <trkpt lat="44.08799" lon="6.97001">
        <ele>1572.4000244141</ele>
        <time>2022-08-20T07:43:12.000Z</time>
      </trkpt>
      <trkpt lat="44.08794" lon="6.97009">
        <ele>1572.8000488281</ele>
        <time>2022-08-20T07:43:16.000Z</time>
      </trkpt>
      <trkpt lat="44.08793" lon="6.97009">
        <ele>1573</ele>
        <time>2022-08-20T07:43:17.000Z</time>
      </trkpt>
      <trkpt lat="44.08793" lon="6.97009">
        <ele>1573.1999511719</ele>
        <time>2022-08-20T07:43:21.000Z</time>
      </trkpt>
      <trkpt lat="44.08793" lon="6.97009">
        <ele>1573</ele>
        <time>2022-08-20T07:43:29.000Z</time>
      </trkpt>
      <trkpt lat="44.08792" lon="6.9701">
        <ele>1572.8000488281</ele>
        <time>2022-08-20T07:43:35.000Z</time>
      </trkpt>
      <trkpt lat="44.08792" lon="6.9701">
        <ele>1572.5999755859</ele>
        <time>2022-08-20T07:43:54.000Z</time>
      </trkpt>
      <trkpt lat="44.08792" lon="6.97009">
        <ele>1572.5999755859</ele>
        <time>2022-08-20T07:44:05.000Z</time>
      </trkpt>
      <trkpt lat="44.08793" lon="6.97007">
        <ele>1573</ele>
        <time>2022-08-20T07:44:10.000Z</time>
      </trkpt>
      <trkpt lat="44.08791" lon="6.9701">
        <ele>1573.1999511719</ele>
        <time>2022-08-20T07:44:17.000Z</time>
      </trkpt>
      <trkpt lat="44.08781" lon="6.97022">
        <ele>1573</ele>
        <time>2022-08-20T07:44:23.000Z</time>
      </trkpt>
      <trkpt lat="44.08768" lon="6.97042">
        <ele>1571.8000488281</ele>
        <time>2022-08-20T07:44:28.000Z</time>
      </trkpt>
      <trkpt lat="44.08766" lon="6.97046">
        <ele>1571.5999755859</ele>
        <time>2022-08-20T07:44:29.000Z</time>
      </trkpt>
      <trkpt lat="44.08765" lon="6.97052">
        <ele>1571.4000244141</ele>
        <time>2022-08-20T07:44:30.000Z</time>
      </trkpt>
      <trkpt lat="44.08764" lon="6.97062">
        <ele>1570.8000488281</ele>
        <time>2022-08-20T07:44:32.000Z</time>
      </trkpt>
      <trkpt lat="44.08764" lon="6.97067">
        <ele>1570.5999755859</ele>
        <time>2022-08-20T07:44:33.000Z</time>
      </trkpt>
      <trkpt lat="44.08764" lon="6.97097">
        <ele>1571.5999755859</ele>
        <time>2022-08-20T07:44:41.000Z</time>
      </trkpt>
      <trkpt lat="44.08765" lon="6.97101">
        <ele>1572.1999511719</ele>
        <time>2022-08-20T07:44:42.000Z</time>
      </trkpt>
      <trkpt lat="44.08766" lon="6.97112">
        <ele>1573.1999511719</ele>
        <time>2022-08-20T07:44:46.000Z</time>
      </trkpt>
      <trkpt lat="44.08767" lon="6.97117">
        <ele>1574.1999511719</ele>
        <time>2022-08-20T07:44:49.000Z</time>
      </trkpt>
      <trkpt lat="44.08768" lon="6.97118">
        <ele>1574.4000244141</ele>
        <time>2022-08-20T07:44:50.000Z</time>
      </trkpt>
      <trkpt lat="44.0877" lon="6.97122">
        <ele>1574.8000488281</ele>
        <time>2022-08-20T07:44:52.000Z</time>
      </trkpt>
      <trkpt lat="44.08772" lon="6.97127">
        <ele>1574.8000488281</ele>
        <time>2022-08-20T07:44:54.000Z</time>
      </trkpt>
      <trkpt lat="44.08775" lon="6.97136">
        <ele>1575</ele>
        <time>2022-08-20T07:44:57.000Z</time>
      </trkpt>
      <trkpt lat="44.08777" lon="6.97145">
        <ele>1575.4000244141</ele>
        <time>2022-08-20T07:45:00.000Z</time>
      </trkpt>
      <trkpt lat="44.08779" lon="6.97165">
        <ele>1575.4000244141</ele>
        <time>2022-08-20T07:45:06.000Z</time>
      </trkpt>
      <trkpt lat="44.08781" lon="6.97184">
        <ele>1575.1999511719</ele>
        <time>2022-08-20T07:45:12.000Z</time>
      </trkpt>
      <trkpt lat="44.08789" lon="6.97216">
        <ele>1574.4000244141</ele>
        <time>2022-08-20T07:45:21.000Z</time>
      </trkpt>
      <trkpt lat="44.08791" lon="6.97219">
        <ele>1574.4000244141</ele>
        <time>2022-08-20T07:45:22.000Z</time>
      </trkpt>
      <trkpt lat="44.08801" lon="6.97228">
        <ele>1574</ele>
        <time>2022-08-20T07:45:26.000Z</time>
      </trkpt>
      <trkpt lat="44.08818" lon="6.9724">
        <ele>1574.4000244141</ele>
        <time>2022-08-20T07:45:33.000Z</time>
      </trkpt>
      <trkpt lat="44.08832" lon="6.97254">
        <ele>1575</ele>
        <time>2022-08-20T07:45:39.000Z</time>
      </trkpt>
      <trkpt lat="44.08846" lon="6.97279">
        <ele>1575.4000244141</ele>
        <time>2022-08-20T07:45:47.000Z</time>
      </trkpt>
      <trkpt lat="44.08854" lon="6.97302">
        <ele>1576.1999511719</ele>
        <time>2022-08-20T07:45:54.000Z</time>
      </trkpt>
      <trkpt lat="44.08856" lon="6.97312">
        <ele>1576.4000244141</ele>
        <time>2022-08-20T07:45:57.000Z</time>
      </trkpt>
      <trkpt lat="44.08857" lon="6.97322">
        <ele>1576.5999755859</ele>
        <time>2022-08-20T07:46:00.000Z</time>
      </trkpt>
      <trkpt lat="44.08859" lon="6.97346">
        <ele>1577.1999511719</ele>
        <time>2022-08-20T07:46:07.000Z</time>
      </trkpt>
      <trkpt lat="44.08857" lon="6.97366">
        <ele>1577.5999755859</ele>
        <time>2022-08-20T07:46:13.000Z</time>
      </trkpt>
      <trkpt lat="44.08856" lon="6.97378">
        <ele>1578</ele>
        <time>2022-08-20T07:46:17.000Z</time>
      </trkpt>
      <trkpt lat="44.08855" lon="6.97386">
        <ele>1578.8000488281</ele>
        <time>2022-08-20T07:46:20.000Z</time>
      </trkpt>
      <trkpt lat="44.08852" lon="6.97393">
        <ele>1579.8000488281</ele>
        <time>2022-08-20T07:46:23.000Z</time>
      </trkpt>
      <trkpt lat="44.08845" lon="6.97399">
        <ele>1581</ele>
        <time>2022-08-20T07:46:27.000Z</time>
      </trkpt>
      <trkpt lat="44.08842" lon="6.97403">
        <ele>1581</ele>
        <time>2022-08-20T07:46:29.000Z</time>
      </trkpt>
      <trkpt lat="44.08834" lon="6.97412">
        <ele>1582.1999511719</ele>
        <time>2022-08-20T07:46:35.000Z</time>
      </trkpt>
      <trkpt lat="44.08829" lon="6.97419">
        <ele>1583.4000244141</ele>
        <time>2022-08-20T07:46:39.000Z</time>
      </trkpt>
      <trkpt lat="44.08828" lon="6.97421">
        <ele>1583.5999755859</ele>
        <time>2022-08-20T07:46:40.000Z</time>
      </trkpt>
      <trkpt lat="44.08821" lon="6.97428">
        <ele>1584.5999755859</ele>
        <time>2022-08-20T07:46:45.000Z</time>
      </trkpt>
      <trkpt lat="44.08819" lon="6.97429">
        <ele>1584.8000488281</ele>
        <time>2022-08-20T07:46:46.000Z</time>
      </trkpt>
      <trkpt lat="44.08815" lon="6.97435">
        <ele>1585.5999755859</ele>
        <time>2022-08-20T07:46:49.000Z</time>
      </trkpt>
      <trkpt lat="44.08811" lon="6.97441">
        <ele>1586.4000244141</ele>
        <time>2022-08-20T07:46:52.000Z</time>
      </trkpt>
      <trkpt lat="44.08807" lon="6.97444">
        <ele>1586.8000488281</ele>
        <time>2022-08-20T07:46:54.000Z</time>
      </trkpt>
      <trkpt lat="44.08802" lon="6.97448">
        <ele>1588</ele>
        <time>2022-08-20T07:46:57.000Z</time>
      </trkpt>
      <trkpt lat="44.08798" lon="6.97452">
        <ele>1589</ele>
        <time>2022-08-20T07:47:00.000Z</time>
      </trkpt>
      <trkpt lat="44.08792" lon="6.97458">
        <ele>1590.1999511719</ele>
        <time>2022-08-20T07:47:04.000Z</time>
      </trkpt>
      <trkpt lat="44.08791" lon="6.9746">
        <ele>1590.4000244141</ele>
        <time>2022-08-20T07:47:05.000Z</time>
      </trkpt>
      <trkpt lat="44.08785" lon="6.97467">
        <ele>1591.4000244141</ele>
        <time>2022-08-20T07:47:09.000Z</time>
      </trkpt>
      <trkpt lat="44.08783" lon="6.97471">
        <ele>1592</ele>
        <time>2022-08-20T07:47:11.000Z</time>
      </trkpt>
      <trkpt lat="44.08779" lon="6.97477">
        <ele>1592.4000244141</ele>
        <time>2022-08-20T07:47:14.000Z</time>
      </trkpt>
      <trkpt lat="44.08774" lon="6.97486">
        <ele>1593.1999511719</ele>
        <time>2022-08-20T07:47:18.000Z</time>
      </trkpt>
      <trkpt lat="44.08768" lon="6.97494">
        <ele>1593.5999755859</ele>
        <time>2022-08-20T07:47:22.000Z</time>
      </trkpt>
      <trkpt lat="44.08765" lon="6.97498">
        <ele>1593.8000488281</ele>
        <time>2022-08-20T07:47:24.000Z</time>
      </trkpt>
      <trkpt lat="44.08754" lon="6.97512">
        <ele>1594.1999511719</ele>
        <time>2022-08-20T07:47:31.000Z</time>
      </trkpt>
      <trkpt lat="44.08749" lon="6.97517">
        <ele>1594.5999755859</ele>
        <time>2022-08-20T07:47:34.000Z</time>
      </trkpt>
      <trkpt lat="44.08738" lon="6.97526">
        <ele>1595.5999755859</ele>
        <time>2022-08-20T07:47:40.000Z</time>
      </trkpt>
      <trkpt lat="44.08736" lon="6.97528">
        <ele>1595.8000488281</ele>
        <time>2022-08-20T07:47:41.000Z</time>
      </trkpt>
      <trkpt lat="44.08727" lon="6.97532">
        <ele>1597.1999511719</ele>
        <time>2022-08-20T07:47:46.000Z</time>
      </trkpt>
      <trkpt lat="44.08725" lon="6.97533">
        <ele>1597.5999755859</ele>
        <time>2022-08-20T07:47:47.000Z</time>
      </trkpt>
      <trkpt lat="44.08721" lon="6.97534">
        <ele>1598.5999755859</ele>
        <time>2022-08-20T07:47:49.000Z</time>
      </trkpt>
      <trkpt lat="44.08715" lon="6.97537">
        <ele>1599.5999755859</ele>
        <time>2022-08-20T07:47:52.000Z</time>
      </trkpt>
      <trkpt lat="44.08714" lon="6.97538">
        <ele>1600</ele>
        <time>2022-08-20T07:47:53.000Z</time>
      </trkpt>
      <trkpt lat="44.08707" lon="6.97541">
        <ele>1601</ele>
        <time>2022-08-20T07:47:57.000Z</time>
      </trkpt>
      <trkpt lat="44.08702" lon="6.97542">
        <ele>1602</ele>
        <time>2022-08-20T07:48:00.000Z</time>
      </trkpt>
      <trkpt lat="44.08697" lon="6.97542">
        <ele>1603</ele>
        <time>2022-08-20T07:48:03.000Z</time>
      </trkpt>
      <trkpt lat="44.08692" lon="6.97542">
        <ele>1604.4000244141</ele>
        <time>2022-08-20T07:48:06.000Z</time>
      </trkpt>
      <trkpt lat="44.08688" lon="6.97543">
        <ele>1605</ele>
        <time>2022-08-20T07:48:08.000Z</time>
      </trkpt>
      <trkpt lat="44.08683" lon="6.97543">
        <ele>1605.4000244141</ele>
        <time>2022-08-20T07:48:11.000Z</time>
      </trkpt>
      <trkpt lat="44.08677" lon="6.97541">
        <ele>1606.1999511719</ele>
        <time>2022-08-20T07:48:14.000Z</time>
      </trkpt>
      <trkpt lat="44.08675" lon="6.97541">
        <ele>1606.5999755859</ele>
        <time>2022-08-20T07:48:15.000Z</time>
      </trkpt>
      <trkpt lat="44.08666" lon="6.97541">
        <ele>1607</ele>
        <time>2022-08-20T07:48:20.000Z</time>
      </trkpt>
      <trkpt lat="44.08662" lon="6.97541">
        <ele>1607.8000488281</ele>
        <time>2022-08-20T07:48:22.000Z</time>
      </trkpt>
      <trkpt lat="44.08656" lon="6.97542">
        <ele>1609</ele>
        <time>2022-08-20T07:48:25.000Z</time>
      </trkpt>
      <trkpt lat="44.08652" lon="6.97543">
        <ele>1609.1999511719</ele>
        <time>2022-08-20T07:48:27.000Z</time>
      </trkpt>
      <trkpt lat="44.08645" lon="6.97543">
        <ele>1610.4000244141</ele>
        <time>2022-08-20T07:48:31.000Z</time>
      </trkpt>
      <trkpt lat="44.08644" lon="6.97545">
        <ele>1610.5999755859</ele>
        <time>2022-08-20T07:48:32.000Z</time>
      </trkpt>
      <trkpt lat="44.08641" lon="6.97554">
        <ele>1611.4000244141</ele>
        <time>2022-08-20T07:48:36.000Z</time>
      </trkpt>
      <trkpt lat="44.0864" lon="6.97557">
        <ele>1611.5999755859</ele>
        <time>2022-08-20T07:48:37.000Z</time>
      </trkpt>
      <trkpt lat="44.08638" lon="6.97563">
        <ele>1612.8000488281</ele>
        <time>2022-08-20T07:48:40.000Z</time>
      </trkpt>
      <trkpt lat="44.08636" lon="6.97568">
        <ele>1613.8000488281</ele>
        <time>2022-08-20T07:48:42.000Z</time>
      </trkpt>
      <trkpt lat="44.08635" lon="6.97573">
        <ele>1614.5999755859</ele>
        <time>2022-08-20T07:48:44.000Z</time>
      </trkpt>
      <trkpt lat="44.08633" lon="6.97575">
        <ele>1615</ele>
        <time>2022-08-20T07:48:45.000Z</time>
      </trkpt>
      <trkpt lat="44.08629" lon="6.97584">
        <ele>1616.1999511719</ele>
        <time>2022-08-20T07:48:49.000Z</time>
      </trkpt>
      <trkpt lat="44.08624" lon="6.97592">
        <ele>1617.1999511719</ele>
        <time>2022-08-20T07:48:53.000Z</time>
      </trkpt>
      <trkpt lat="44.08616" lon="6.97601">
        <ele>1618.4000244141</ele>
        <time>2022-08-20T07:48:59.000Z</time>
      </trkpt>
      <trkpt lat="44.08614" lon="6.97602">
        <ele>1618.5999755859</ele>
        <time>2022-08-20T07:49:00.000Z</time>
      </trkpt>
      <trkpt lat="44.08613" lon="6.97602">
        <ele>1618.8000488281</ele>
        <time>2022-08-20T07:49:05.000Z</time>
      </trkpt>
      <trkpt lat="44.08613" lon="6.97602">
        <ele>1618.8000488281</ele>
        <time>2022-08-20T07:49:26.000Z</time>
      </trkpt>
      <trkpt lat="44.08605" lon="6.97604">
        <ele>1619</ele>
        <time>2022-08-20T07:49:31.000Z</time>
      </trkpt>
      <trkpt lat="44.08595" lon="6.97606">
        <ele>1619.4000244141</ele>
        <time>2022-08-20T07:49:36.000Z</time>
      </trkpt>
      <trkpt lat="44.08589" lon="6.97607">
        <ele>1620</ele>
        <time>2022-08-20T07:49:39.000Z</time>
      </trkpt>
      <trkpt lat="44.08582" lon="6.97608">
        <ele>1620.5999755859</ele>
        <time>2022-08-20T07:49:42.000Z</time>
      </trkpt>
      <trkpt lat="44.08569" lon="6.97611">
        <ele>1621.5999755859</ele>
        <time>2022-08-20T07:49:48.000Z</time>
      </trkpt>
      <trkpt lat="44.08555" lon="6.97614">
        <ele>1622.8000488281</ele>
        <time>2022-08-20T07:49:55.000Z</time>
      </trkpt>
      <trkpt lat="44.08551" lon="6.97615">
        <ele>1623.1999511719</ele>
        <time>2022-08-20T07:49:57.000Z</time>
      </trkpt>
      <trkpt lat="44.08542" lon="6.97617">
        <ele>1623.8000488281</ele>
        <time>2022-08-20T07:50:01.000Z</time>
      </trkpt>
      <trkpt lat="44.08534" lon="6.9762">
        <ele>1624.4000244141</ele>
        <time>2022-08-20T07:50:05.000Z</time>
      </trkpt>
      <trkpt lat="44.08512" lon="6.9763">
        <ele>1624.1999511719</ele>
        <time>2022-08-20T07:50:16.000Z</time>
      </trkpt>
      <trkpt lat="44.085" lon="6.97634">
        <ele>1624.8000488281</ele>
        <time>2022-08-20T07:50:22.000Z</time>
      </trkpt>
      <trkpt lat="44.08499" lon="6.97635">
        <ele>1625</ele>
        <time>2022-08-20T07:50:23.000Z</time>
      </trkpt>
      <trkpt lat="44.08492" lon="6.97638">
        <ele>1626</ele>
        <time>2022-08-20T07:50:27.000Z</time>
      </trkpt>
      <trkpt lat="44.08487" lon="6.97641">
        <ele>1627.1999511719</ele>
        <time>2022-08-20T07:50:30.000Z</time>
      </trkpt>
      <trkpt lat="44.08484" lon="6.97643">
        <ele>1627.8000488281</ele>
        <time>2022-08-20T07:50:32.000Z</time>
      </trkpt>
      <trkpt lat="44.08483" lon="6.97644">
        <ele>1628.1999511719</ele>
        <time>2022-08-20T07:50:33.000Z</time>
      </trkpt>
      <trkpt lat="44.08475" lon="6.97649">
        <ele>1629.1999511719</ele>
        <time>2022-08-20T07:50:37.000Z</time>
      </trkpt>
      <trkpt lat="44.08474" lon="6.9765">
        <ele>1629.4000244141</ele>
        <time>2022-08-20T07:50:38.000Z</time>
      </trkpt>
      <trkpt lat="44.08464" lon="6.97654">
        <ele>1630.4000244141</ele>
        <time>2022-08-20T07:50:43.000Z</time>
      </trkpt>
      <trkpt lat="44.08463" lon="6.97656">
        <ele>1630.5999755859</ele>
        <time>2022-08-20T07:50:44.000Z</time>
      </trkpt>
      <trkpt lat="44.08451" lon="6.97663">
        <ele>1631.5999755859</ele>
        <time>2022-08-20T07:50:51.000Z</time>
      </trkpt>
      <trkpt lat="44.08449" lon="6.97664">
        <ele>1631.8000488281</ele>
        <time>2022-08-20T07:50:52.000Z</time>
      </trkpt>
      <trkpt lat="44.08436" lon="6.97672">
        <ele>1632.5999755859</ele>
        <time>2022-08-20T07:51:00.000Z</time>
      </trkpt>
      <trkpt lat="44.08427" lon="6.97675">
        <ele>1633.5999755859</ele>
        <time>2022-08-20T07:51:05.000Z</time>
      </trkpt>
      <trkpt lat="44.08423" lon="6.97674">
        <ele>1634.1999511719</ele>
        <time>2022-08-20T07:51:07.000Z</time>
      </trkpt>
      <trkpt lat="44.0842" lon="6.97674">
        <ele>1634.8000488281</ele>
        <time>2022-08-20T07:51:09.000Z</time>
      </trkpt>
      <trkpt lat="44.08415" lon="6.97679">
        <ele>1635.4000244141</ele>
        <time>2022-08-20T07:51:12.000Z</time>
      </trkpt>
      <trkpt lat="44.08413" lon="6.97682">
        <ele>1635.4000244141</ele>
        <time>2022-08-20T07:51:14.000Z</time>
      </trkpt>
      <trkpt lat="44.0841" lon="6.97685">
        <ele>1635.4000244141</ele>
        <time>2022-08-20T07:51:16.000Z</time>
      </trkpt>
      <trkpt lat="44.08408" lon="6.97694">
        <ele>1635.5999755859</ele>
        <time>2022-08-20T07:51:19.000Z</time>
      </trkpt>
      <trkpt lat="44.08407" lon="6.97701">
        <ele>1635.5999755859</ele>
        <time>2022-08-20T07:51:21.000Z</time>
      </trkpt>
      <trkpt lat="44.08407" lon="6.9771">
        <ele>1636</ele>
        <time>2022-08-20T07:51:24.000Z</time>
      </trkpt>
      <trkpt lat="44.08404" lon="6.97721">
        <ele>1637</ele>
        <time>2022-08-20T07:51:28.000Z</time>
      </trkpt>
      <trkpt lat="44.08402" lon="6.97727">
        <ele>1637.5999755859</ele>
        <time>2022-08-20T07:51:30.000Z</time>
      </trkpt>
      <trkpt lat="44.08398" lon="6.97741">
        <ele>1638.1999511719</ele>
        <time>2022-08-20T07:51:36.000Z</time>
      </trkpt>
      <trkpt lat="44.08397" lon="6.97744">
        <ele>1638.4000244141</ele>
        <time>2022-08-20T07:51:38.000Z</time>
      </trkpt>
      <trkpt lat="44.08397" lon="6.97745">
        <ele>1638.8000488281</ele>
        <time>2022-08-20T07:51:43.000Z</time>
      </trkpt>
      <trkpt lat="44.08396" lon="6.97746">
        <ele>1638.5999755859</ele>
        <time>2022-08-20T07:52:08.000Z</time>
      </trkpt>
      <trkpt lat="44.08396" lon="6.97746">
        <ele>1638.4000244141</ele>
        <time>2022-08-20T07:52:32.000Z</time>
      </trkpt>
      <trkpt lat="44.08396" lon="6.97746">
        <ele>1638.5999755859</ele>
        <time>2022-08-20T07:52:49.000Z</time>
      </trkpt>
      <trkpt lat="44.08397" lon="6.97746">
        <ele>1638.4000244141</ele>
        <time>2022-08-20T07:53:04.000Z</time>
      </trkpt>
      <trkpt lat="44.08397" lon="6.97746">
        <ele>1638.4000244141</ele>
        <time>2022-08-20T07:53:32.000Z</time>
      </trkpt>
      <trkpt lat="44.08397" lon="6.97746">
        <ele>1638.1999511719</ele>
        <time>2022-08-20T07:53:59.000Z</time>
      </trkpt>
      <trkpt lat="44.08396" lon="6.97749">
        <ele>1638</ele>
        <time>2022-08-20T07:54:24.000Z</time>
      </trkpt>
      <trkpt lat="44.08393" lon="6.97763">
        <ele>1638</ele>
        <time>2022-08-20T07:54:29.000Z</time>
      </trkpt>
      <trkpt lat="44.08384" lon="6.9779">
        <ele>1637.4000244141</ele>
        <time>2022-08-20T07:54:37.000Z</time>
      </trkpt>
      <trkpt lat="44.08379" lon="6.97817">
        <ele>1637.5999755859</ele>
        <time>2022-08-20T07:54:45.000Z</time>
      </trkpt>
      <trkpt lat="44.08377" lon="6.97843">
        <ele>1638.4000244141</ele>
        <time>2022-08-20T07:54:52.000Z</time>
      </trkpt>
      <trkpt lat="44.08379" lon="6.97852">
        <ele>1639.1999511719</ele>
        <time>2022-08-20T07:54:54.000Z</time>
      </trkpt>
      <trkpt lat="44.08381" lon="6.97864">
        <ele>1640.4000244141</ele>
        <time>2022-08-20T07:54:57.000Z</time>
      </trkpt>
      <trkpt lat="44.08382" lon="6.97868">
        <ele>1640.8000488281</ele>
        <time>2022-08-20T07:54:58.000Z</time>
      </trkpt>
      <trkpt lat="44.08384" lon="6.97875">
        <ele>1641.5999755859</ele>
        <time>2022-08-20T07:55:00.000Z</time>
      </trkpt>
      <trkpt lat="44.08387" lon="6.97885">
        <ele>1643</ele>
        <time>2022-08-20T07:55:03.000Z</time>
      </trkpt>
      <trkpt lat="44.0839" lon="6.97891">
        <ele>1643.5999755859</ele>
        <time>2022-08-20T07:55:05.000Z</time>
      </trkpt>
      <trkpt lat="44.08391" lon="6.97902">
        <ele>1644.1999511719</ele>
        <time>2022-08-20T07:55:09.000Z</time>
      </trkpt>
      <trkpt lat="44.08392" lon="6.97905">
        <ele>1644.1999511719</ele>
        <time>2022-08-20T07:55:10.000Z</time>
      </trkpt>
      <trkpt lat="44.08399" lon="6.9793">
        <ele>1643.4000244141</ele>
        <time>2022-08-20T07:55:16.000Z</time>
      </trkpt>
      <trkpt lat="44.08401" lon="6.97933">
        <ele>1643</ele>
        <time>2022-08-20T07:55:17.000Z</time>
      </trkpt>
      <trkpt lat="44.08406" lon="6.97954">
        <ele>1643.5999755859</ele>
        <time>2022-08-20T07:55:23.000Z</time>
      </trkpt>
      <trkpt lat="44.08408" lon="6.97961">
        <ele>1644.1999511719</ele>
        <time>2022-08-20T07:55:25.000Z</time>
      </trkpt>
      <trkpt lat="44.08411" lon="6.97979">
        <ele>1645.1999511719</ele>
        <time>2022-08-20T07:55:30.000Z</time>
      </trkpt>
      <trkpt lat="44.08412" lon="6.97983">
        <ele>1645.1999511719</ele>
        <time>2022-08-20T07:55:31.000Z</time>
      </trkpt>
      <trkpt lat="44.08421" lon="6.98009">
        <ele>1644.4000244141</ele>
        <time>2022-08-20T07:55:36.000Z</time>
      </trkpt>
      <trkpt lat="44.08424" lon="6.98017">
        <ele>1643.8000488281</ele>
        <time>2022-08-20T07:55:37.000Z</time>
      </trkpt>
      <trkpt lat="44.08431" lon="6.98031">
        <ele>1642.8000488281</ele>
        <time>2022-08-20T07:55:39.000Z</time>
      </trkpt>
      <trkpt lat="44.08433" lon="6.98036">
        <ele>1642.1999511719</ele>
        <time>2022-08-20T07:55:40.000Z</time>
      </trkpt>
      <trkpt lat="44.08435" lon="6.98053">
        <ele>1640.4000244141</ele>
        <time>2022-08-20T07:55:43.000Z</time>
      </trkpt>
      <trkpt lat="44.08436" lon="6.9806">
        <ele>1640.1999511719</ele>
        <time>2022-08-20T07:55:44.000Z</time>
      </trkpt>
      <trkpt lat="44.08434" lon="6.98078">
        <ele>1638.1999511719</ele>
        <time>2022-08-20T07:55:46.000Z</time>
      </trkpt>
      <trkpt lat="44.08434" lon="6.98088">
        <ele>1637.1999511719</ele>
        <time>2022-08-20T07:55:47.000Z</time>
      </trkpt>
      <trkpt lat="44.08433" lon="6.98108">
        <ele>1635</ele>
        <time>2022-08-20T07:55:49.000Z</time>
      </trkpt>
      <trkpt lat="44.08431" lon="6.98116">
        <ele>1633.4000244141</ele>
        <time>2022-08-20T07:55:50.000Z</time>
      </trkpt>
      <trkpt lat="44.08426" lon="6.98122">
        <ele>1632.1999511719</ele>
        <time>2022-08-20T07:55:51.000Z</time>
      </trkpt>
      <trkpt lat="44.08421" lon="6.98133">
        <ele>1630.5999755859</ele>
        <time>2022-08-20T07:55:53.000Z</time>
      </trkpt>
      <trkpt lat="44.08418" lon="6.98142">
        <ele>1630.1999511719</ele>
        <time>2022-08-20T07:55:55.000Z</time>
      </trkpt>
      <trkpt lat="44.08415" lon="6.98158">
        <ele>1631.8000488281</ele>
        <time>2022-08-20T07:55:59.000Z</time>
      </trkpt>
      <trkpt lat="44.08415" lon="6.98166">
        <ele>1632.5999755859</ele>
        <time>2022-08-20T07:56:01.000Z</time>
      </trkpt>
      <trkpt lat="44.08415" lon="6.9817">
        <ele>1632.8000488281</ele>
        <time>2022-08-20T07:56:02.000Z</time>
      </trkpt>
      <trkpt lat="44.08415" lon="6.98186">
        <ele>1634.1999511719</ele>
        <time>2022-08-20T07:56:06.000Z</time>
      </trkpt>
      <trkpt lat="44.08416" lon="6.98197">
        <ele>1635</ele>
        <time>2022-08-20T07:56:09.000Z</time>
      </trkpt>
      <trkpt lat="44.08415" lon="6.98202">
        <ele>1635.1999511719</ele>
        <time>2022-08-20T07:56:10.000Z</time>
      </trkpt>
      <trkpt lat="44.08416" lon="6.98221">
        <ele>1635.5999755859</ele>
        <time>2022-08-20T07:56:15.000Z</time>
      </trkpt>
      <trkpt lat="44.08415" lon="6.98254">
        <ele>1635.5999755859</ele>
        <time>2022-08-20T07:56:23.000Z</time>
      </trkpt>
      <trkpt lat="44.08413" lon="6.98269">
        <ele>1636.5999755859</ele>
        <time>2022-08-20T07:56:27.000Z</time>
      </trkpt>
      <trkpt lat="44.08411" lon="6.98279">
        <ele>1637</ele>
        <time>2022-08-20T07:56:30.000Z</time>
      </trkpt>
      <trkpt lat="44.08402" lon="6.9831">
        <ele>1637.4000244141</ele>
        <time>2022-08-20T07:56:38.000Z</time>
      </trkpt>
      <trkpt lat="44.08396" lon="6.98331">
        <ele>1637.5999755859</ele>
        <time>2022-08-20T07:56:44.000Z</time>
      </trkpt>
      <trkpt lat="44.08395" lon="6.98335">
        <ele>1638</ele>
        <time>2022-08-20T07:56:45.000Z</time>
      </trkpt>
      <trkpt lat="44.08393" lon="6.98341">
        <ele>1638.8000488281</ele>
        <time>2022-08-20T07:56:47.000Z</time>
      </trkpt>
      <trkpt lat="44.0839" lon="6.98353">
        <ele>1639.8000488281</ele>
        <time>2022-08-20T07:56:50.000Z</time>
      </trkpt>
      <trkpt lat="44.08388" lon="6.98359">
        <ele>1640.5999755859</ele>
        <time>2022-08-20T07:56:52.000Z</time>
      </trkpt>
      <trkpt lat="44.08387" lon="6.98362">
        <ele>1641</ele>
        <time>2022-08-20T07:56:53.000Z</time>
      </trkpt>
      <trkpt lat="44.08384" lon="6.98375">
        <ele>1642.1999511719</ele>
        <time>2022-08-20T07:56:58.000Z</time>
      </trkpt>
      <trkpt lat="44.08383" lon="6.98379">
        <ele>1642.4000244141</ele>
        <time>2022-08-20T07:57:00.000Z</time>
      </trkpt>
      <trkpt lat="44.08382" lon="6.98379">
        <ele>1642.4000244141</ele>
        <time>2022-08-20T07:57:04.000Z</time>
      </trkpt>
      <trkpt lat="44.08382" lon="6.98379">
        <ele>1642.5999755859</ele>
        <time>2022-08-20T07:57:12.000Z</time>
      </trkpt>
      <trkpt lat="44.08383" lon="6.98379">
        <ele>1641.5999755859</ele>
        <time>2022-08-20T07:57:21.000Z</time>
      </trkpt>
      <trkpt lat="44.08383" lon="6.98379">
        <ele>1642</ele>
        <time>2022-08-20T07:57:28.000Z</time>
      </trkpt>
      <trkpt lat="44.08382" lon="6.98375">
        <ele>1642.1999511719</ele>
        <time>2022-08-20T07:57:34.000Z</time>
      </trkpt>
      <trkpt lat="44.08381" lon="6.98375">
        <ele>1642.4000244141</ele>
        <time>2022-08-20T07:57:54.000Z</time>
      </trkpt>
      <trkpt lat="44.08381" lon="6.98377">
        <ele>1642.5999755859</ele>
        <time>2022-08-20T07:58:03.000Z</time>
      </trkpt>
      <trkpt lat="44.0838" lon="6.98378">
        <ele>1642.4000244141</ele>
        <time>2022-08-20T07:58:09.000Z</time>
      </trkpt>
      <trkpt lat="44.08381" lon="6.98378">
        <ele>1643</ele>
        <time>2022-08-20T07:58:16.000Z</time>
      </trkpt>
      <trkpt lat="44.08381" lon="6.9838">
        <ele>1642.4000244141</ele>
        <time>2022-08-20T07:58:22.000Z</time>
      </trkpt>
      <trkpt lat="44.08378" lon="6.98389">
        <ele>1642.8000488281</ele>
        <time>2022-08-20T07:58:28.000Z</time>
      </trkpt>
      <trkpt lat="44.08373" lon="6.98402">
        <ele>1642.1999511719</ele>
        <time>2022-08-20T07:58:33.000Z</time>
      </trkpt>
      <trkpt lat="44.08373" lon="6.98402">
        <ele>1641.1999511719</ele>
        <time>2022-08-20T07:58:38.000Z</time>
      </trkpt>
      <trkpt lat="44.08373" lon="6.98402">
        <ele>1641.1999511719</ele>
        <time>2022-08-20T07:58:40.000Z</time>
      </trkpt>
      <trkpt lat="44.08373" lon="6.98403">
        <ele>1641</ele>
        <time>2022-08-20T07:58:55.000Z</time>
      </trkpt>
      <trkpt lat="44.08373" lon="6.98404">
        <ele>1641</ele>
        <time>2022-08-20T07:59:15.000Z</time>
      </trkpt>
      <trkpt lat="44.08372" lon="6.98405">
        <ele>1640.5999755859</ele>
        <time>2022-08-20T07:59:48.000Z</time>
      </trkpt>
      <trkpt lat="44.08369" lon="6.98413">
        <ele>1640.4000244141</ele>
        <time>2022-08-20T07:59:58.000Z</time>
      </trkpt>
      <trkpt lat="44.08364" lon="6.98423">
        <ele>1640</ele>
        <time>2022-08-20T08:00:00.000Z</time>
      </trkpt>
      <trkpt lat="44.0836" lon="6.98426">
        <ele>1639.8000488281</ele>
        <time>2022-08-20T08:00:01.000Z</time>
      </trkpt>
      <trkpt lat="44.08349" lon="6.9843">
        <ele>1638.5999755859</ele>
        <time>2022-08-20T08:00:03.000Z</time>
      </trkpt>
      <trkpt lat="44.08343" lon="6.9843">
        <ele>1637.4000244141</ele>
        <time>2022-08-20T08:00:04.000Z</time>
      </trkpt>
      <trkpt lat="44.08337" lon="6.98432">
        <ele>1636.4000244141</ele>
        <time>2022-08-20T08:00:05.000Z</time>
      </trkpt>
      <trkpt lat="44.08332" lon="6.98435">
        <ele>1635.5999755859</ele>
        <time>2022-08-20T08:00:06.000Z</time>
      </trkpt>
      <trkpt lat="44.08321" lon="6.98442">
        <ele>1634.1999511719</ele>
        <time>2022-08-20T08:00:08.000Z</time>
      </trkpt>
      <trkpt lat="44.08307" lon="6.98454">
        <ele>1633.1999511719</ele>
        <time>2022-08-20T08:00:11.000Z</time>
      </trkpt>
      <trkpt lat="44.08301" lon="6.9846">
        <ele>1633</ele>
        <time>2022-08-20T08:00:13.000Z</time>
      </trkpt>
      <trkpt lat="44.0829" lon="6.98468">
        <ele>1633.4000244141</ele>
        <time>2022-08-20T08:00:17.000Z</time>
      </trkpt>
      <trkpt lat="44.08273" lon="6.98484">
        <ele>1633.8000488281</ele>
        <time>2022-08-20T08:00:23.000Z</time>
      </trkpt>
      <trkpt lat="44.08265" lon="6.98502">
        <ele>1633.5999755859</ele>
        <time>2022-08-20T08:00:27.000Z</time>
      </trkpt>
      <trkpt lat="44.08265" lon="6.98527">
        <ele>1633</ele>
        <time>2022-08-20T08:00:30.000Z</time>
      </trkpt>
      <trkpt lat="44.08267" lon="6.98537">
        <ele>1632.1999511719</ele>
        <time>2022-08-20T08:00:31.000Z</time>
      </trkpt>
      <trkpt lat="44.08268" lon="6.98547">
        <ele>1631</ele>
        <time>2022-08-20T08:00:32.000Z</time>
      </trkpt>
      <trkpt lat="44.08268" lon="6.98557">
        <ele>1629.4000244141</ele>
        <time>2022-08-20T08:00:33.000Z</time>
      </trkpt>
      <trkpt lat="44.08268" lon="6.98567">
        <ele>1628.8000488281</ele>
        <time>2022-08-20T08:00:34.000Z</time>
      </trkpt>
      <trkpt lat="44.08269" lon="6.9858">
        <ele>1627.1999511719</ele>
        <time>2022-08-20T08:00:35.000Z</time>
      </trkpt>
      <trkpt lat="44.08269" lon="6.98593">
        <ele>1626</ele>
        <time>2022-08-20T08:00:36.000Z</time>
      </trkpt>
      <trkpt lat="44.08269" lon="6.98605">
        <ele>1624.1999511719</ele>
        <time>2022-08-20T08:00:37.000Z</time>
      </trkpt>
      <trkpt lat="44.08269" lon="6.98616">
        <ele>1623</ele>
        <time>2022-08-20T08:00:38.000Z</time>
      </trkpt>
      <trkpt lat="44.08268" lon="6.9863">
        <ele>1621.1999511719</ele>
        <time>2022-08-20T08:00:39.000Z</time>
      </trkpt>
      <trkpt lat="44.08268" lon="6.9864">
        <ele>1619.5999755859</ele>
        <time>2022-08-20T08:00:40.000Z</time>
      </trkpt>
      <trkpt lat="44.08267" lon="6.98652">
        <ele>1618</ele>
        <time>2022-08-20T08:00:41.000Z</time>
      </trkpt>
      <trkpt lat="44.08267" lon="6.98661">
        <ele>1616.8000488281</ele>
        <time>2022-08-20T08:00:42.000Z</time>
      </trkpt>
      <trkpt lat="44.08266" lon="6.98671">
        <ele>1615.4000244141</ele>
        <time>2022-08-20T08:00:43.000Z</time>
      </trkpt>
      <trkpt lat="44.08264" lon="6.98679">
        <ele>1614.4000244141</ele>
        <time>2022-08-20T08:00:44.000Z</time>
      </trkpt>
      <trkpt lat="44.08256" lon="6.98694">
        <ele>1615</ele>
        <time>2022-08-20T08:00:46.000Z</time>
      </trkpt>
      <trkpt lat="44.08251" lon="6.98699">
        <ele>1613.1999511719</ele>
        <time>2022-08-20T08:00:47.000Z</time>
      </trkpt>
      <trkpt lat="44.08241" lon="6.98705">
        <ele>1610.1999511719</ele>
        <time>2022-08-20T08:00:49.000Z</time>
      </trkpt>
      <trkpt lat="44.08234" lon="6.98707">
        <ele>1607.4000244141</ele>
        <time>2022-08-20T08:00:50.000Z</time>
      </trkpt>
      <trkpt lat="44.08228" lon="6.9871">
        <ele>1605.4000244141</ele>
        <time>2022-08-20T08:00:51.000Z</time>
      </trkpt>
      <trkpt lat="44.08222" lon="6.98712">
        <ele>1603.8000488281</ele>
        <time>2022-08-20T08:00:52.000Z</time>
      </trkpt>
      <trkpt lat="44.08215" lon="6.98715">
        <ele>1602.4000244141</ele>
        <time>2022-08-20T08:00:53.000Z</time>
      </trkpt>
      <trkpt lat="44.08201" lon="6.98721">
        <ele>1600.1999511719</ele>
        <time>2022-08-20T08:00:55.000Z</time>
      </trkpt>
      <trkpt lat="44.08196" lon="6.98724">
        <ele>1599</ele>
        <time>2022-08-20T08:00:56.000Z</time>
      </trkpt>
      <trkpt lat="44.08193" lon="6.9873">
        <ele>1597.8000488281</ele>
        <time>2022-08-20T08:00:57.000Z</time>
      </trkpt>
      <trkpt lat="44.08186" lon="6.98741">
        <ele>1595.4000244141</ele>
        <time>2022-08-20T08:00:59.000Z</time>
      </trkpt>
      <trkpt lat="44.08184" lon="6.98745">
        <ele>1594.4000244141</ele>
        <time>2022-08-20T08:01:00.000Z</time>
      </trkpt>
      <trkpt lat="44.08182" lon="6.9875">
        <ele>1592.8000488281</ele>
        <time>2022-08-20T08:01:01.000Z</time>
      </trkpt>
      <trkpt lat="44.08181" lon="6.98755">
        <ele>1591.4000244141</ele>
        <time>2022-08-20T08:01:02.000Z</time>
      </trkpt>
      <trkpt lat="44.08178" lon="6.98764">
        <ele>1590.1999511719</ele>
        <time>2022-08-20T08:01:04.000Z</time>
      </trkpt>
      <trkpt lat="44.08178" lon="6.98764">
        <ele>1589.5999755859</ele>
        <time>2022-08-20T08:01:05.000Z</time>
      </trkpt>
      <trkpt lat="44.08174" lon="6.98773">
        <ele>1588.8000488281</ele>
        <time>2022-08-20T08:01:07.000Z</time>
      </trkpt>
      <trkpt lat="44.08171" lon="6.9878">
        <ele>1586</ele>
        <time>2022-08-20T08:01:09.000Z</time>
      </trkpt>
      <trkpt lat="44.08169" lon="6.98783">
        <ele>1583.5999755859</ele>
        <time>2022-08-20T08:01:10.000Z</time>
      </trkpt>
      <trkpt lat="44.08167" lon="6.98785">
        <ele>1582.4000244141</ele>
        <time>2022-08-20T08:01:11.000Z</time>
      </trkpt>
      <trkpt lat="44.08165" lon="6.98788">
        <ele>1581.4000244141</ele>
        <time>2022-08-20T08:01:12.000Z</time>
      </trkpt>
      <trkpt lat="44.08164" lon="6.9879">
        <ele>1580.4000244141</ele>
        <time>2022-08-20T08:01:13.000Z</time>
      </trkpt>
      <trkpt lat="44.08162" lon="6.98792">
        <ele>1579.4000244141</ele>
        <time>2022-08-20T08:01:14.000Z</time>
      </trkpt>
      <trkpt lat="44.08161" lon="6.98797">
        <ele>1577.8000488281</ele>
        <time>2022-08-20T08:01:16.000Z</time>
      </trkpt>
      <trkpt lat="44.08159" lon="6.988">
        <ele>1577</ele>
        <time>2022-08-20T08:01:17.000Z</time>
      </trkpt>
      <trkpt lat="44.08158" lon="6.98801">
        <ele>1576</ele>
        <time>2022-08-20T08:01:18.000Z</time>
      </trkpt>
      <trkpt lat="44.08158" lon="6.98801">
        <ele>1574.8000488281</ele>
        <time>2022-08-20T08:01:20.000Z</time>
      </trkpt>
      <trkpt lat="44.08152" lon="6.98806">
        <ele>1574.1999511719</ele>
        <time>2022-08-20T08:01:27.000Z</time>
      </trkpt>
      <trkpt lat="44.08143" lon="6.98808">
        <ele>1573</ele>
        <time>2022-08-20T08:01:29.000Z</time>
      </trkpt>
      <trkpt lat="44.08138" lon="6.98809">
        <ele>1572</ele>
        <time>2022-08-20T08:01:30.000Z</time>
      </trkpt>
      <trkpt lat="44.08134" lon="6.98809">
        <ele>1570.8000488281</ele>
        <time>2022-08-20T08:01:31.000Z</time>
      </trkpt>
      <trkpt lat="44.08131" lon="6.98811">
        <ele>1568.4000244141</ele>
        <time>2022-08-20T08:01:33.000Z</time>
      </trkpt>
      <trkpt lat="44.0813" lon="6.98814">
        <ele>1567.8000488281</ele>
        <time>2022-08-20T08:01:34.000Z</time>
      </trkpt>
      <trkpt lat="44.08128" lon="6.98817">
        <ele>1567.1999511719</ele>
        <time>2022-08-20T08:01:36.000Z</time>
      </trkpt>
      <trkpt lat="44.08118" lon="6.98823">
        <ele>1565.8000488281</ele>
        <time>2022-08-20T08:01:38.000Z</time>
      </trkpt>
      <trkpt lat="44.08111" lon="6.98827">
        <ele>1564</ele>
        <time>2022-08-20T08:01:40.000Z</time>
      </trkpt>
      <trkpt lat="44.08106" lon="6.98832">
        <ele>1562.4000244141</ele>
        <time>2022-08-20T08:01:42.000Z</time>
      </trkpt>
      <trkpt lat="44.08103" lon="6.98834">
        <ele>1560.5999755859</ele>
        <time>2022-08-20T08:01:43.000Z</time>
      </trkpt>
      <trkpt lat="44.08099" lon="6.98836">
        <ele>1558.8000488281</ele>
        <time>2022-08-20T08:01:44.000Z</time>
      </trkpt>
      <trkpt lat="44.08095" lon="6.98839">
        <ele>1557</ele>
        <time>2022-08-20T08:01:45.000Z</time>
      </trkpt>
      <trkpt lat="44.08092" lon="6.98843">
        <ele>1555.5999755859</ele>
        <time>2022-08-20T08:01:46.000Z</time>
      </trkpt>
      <trkpt lat="44.08088" lon="6.98846">
        <ele>1554.1999511719</ele>
        <time>2022-08-20T08:01:47.000Z</time>
      </trkpt>
      <trkpt lat="44.08077" lon="6.98849">
        <ele>1552</ele>
        <time>2022-08-20T08:01:49.000Z</time>
      </trkpt>
      <trkpt lat="44.08072" lon="6.98848">
        <ele>1550.5999755859</ele>
        <time>2022-08-20T08:01:50.000Z</time>
      </trkpt>
      <trkpt lat="44.08067" lon="6.98848">
        <ele>1549</ele>
        <time>2022-08-20T08:01:51.000Z</time>
      </trkpt>
      <trkpt lat="44.08063" lon="6.98848">
        <ele>1547.5999755859</ele>
        <time>2022-08-20T08:01:52.000Z</time>
      </trkpt>
      <trkpt lat="44.08059" lon="6.98849">
        <ele>1546</ele>
        <time>2022-08-20T08:01:53.000Z</time>
      </trkpt>
      <trkpt lat="44.08054" lon="6.98849">
        <ele>1544.4000244141</ele>
        <time>2022-08-20T08:01:54.000Z</time>
      </trkpt>
      <trkpt lat="44.08051" lon="6.9885">
        <ele>1543</ele>
        <time>2022-08-20T08:01:55.000Z</time>
      </trkpt>
      <trkpt lat="44.08049" lon="6.9885">
        <ele>1541.8000488281</ele>
        <time>2022-08-20T08:01:56.000Z</time>
      </trkpt>
      <trkpt lat="44.08048" lon="6.98853">
        <ele>1540.5999755859</ele>
        <time>2022-08-20T08:01:57.000Z</time>
      </trkpt>
      <trkpt lat="44.08048" lon="6.98856">
        <ele>1539.5999755859</ele>
        <time>2022-08-20T08:01:58.000Z</time>
      </trkpt>
      <trkpt lat="44.08044" lon="6.98858">
        <ele>1538</ele>
        <time>2022-08-20T08:02:00.000Z</time>
      </trkpt>
      <trkpt lat="44.08038" lon="6.98853">
        <ele>1536.4000244141</ele>
        <time>2022-08-20T08:02:02.000Z</time>
      </trkpt>
      <trkpt lat="44.08034" lon="6.98852">
        <ele>1535.1999511719</ele>
        <time>2022-08-20T08:02:03.000Z</time>
      </trkpt>
      <trkpt lat="44.08027" lon="6.9885">
        <ele>1534</ele>
        <time>2022-08-20T08:02:04.000Z</time>
      </trkpt>
      <trkpt lat="44.0802" lon="6.9885">
        <ele>1532.8000488281</ele>
        <time>2022-08-20T08:02:05.000Z</time>
      </trkpt>
      <trkpt lat="44.08012" lon="6.98849">
        <ele>1531.1999511719</ele>
        <time>2022-08-20T08:02:06.000Z</time>
      </trkpt>
      <trkpt lat="44.08005" lon="6.98848">
        <ele>1529.1999511719</ele>
        <time>2022-08-20T08:02:07.000Z</time>
      </trkpt>
      <trkpt lat="44.07998" lon="6.98847">
        <ele>1527.1999511719</ele>
        <time>2022-08-20T08:02:08.000Z</time>
      </trkpt>
      <trkpt lat="44.07992" lon="6.98846">
        <ele>1525</ele>
        <time>2022-08-20T08:02:09.000Z</time>
      </trkpt>
      <trkpt lat="44.07987" lon="6.98847">
        <ele>1523.5999755859</ele>
        <time>2022-08-20T08:02:10.000Z</time>
      </trkpt>
      <trkpt lat="44.07978" lon="6.9885">
        <ele>1521.4000244141</ele>
        <time>2022-08-20T08:02:12.000Z</time>
      </trkpt>
      <trkpt lat="44.0797" lon="6.9885">
        <ele>1519.8000488281</ele>
        <time>2022-08-20T08:02:14.000Z</time>
      </trkpt>
      <trkpt lat="44.07969" lon="6.9885">
        <ele>1518.1999511719</ele>
        <time>2022-08-20T08:02:16.000Z</time>
      </trkpt>
      <trkpt lat="44.07968" lon="6.9885">
        <ele>1517.4000244141</ele>
        <time>2022-08-20T08:02:17.000Z</time>
      </trkpt>
      <trkpt lat="44.07968" lon="6.9885">
        <ele>1516.1999511719</ele>
        <time>2022-08-20T08:02:18.000Z</time>
      </trkpt>
      <trkpt lat="44.07968" lon="6.98851">
        <ele>1515</ele>
        <time>2022-08-20T08:02:21.000Z</time>
      </trkpt>
      <trkpt lat="44.07967" lon="6.98852">
        <ele>1515.4000244141</ele>
        <time>2022-08-20T08:02:28.000Z</time>
      </trkpt>
      <trkpt lat="44.07967" lon="6.98853">
        <ele>1515.8000488281</ele>
        <time>2022-08-20T08:02:48.000Z</time>
      </trkpt>
      <trkpt lat="44.07967" lon="6.98854">
        <ele>1515.8000488281</ele>
        <time>2022-08-20T08:03:07.000Z</time>
      </trkpt>
      <trkpt lat="44.07966" lon="6.98862">
        <ele>1515.5999755859</ele>
        <time>2022-08-20T08:03:16.000Z</time>
      </trkpt>
      <trkpt lat="44.07967" lon="6.98875">
        <ele>1514.4000244141</ele>
        <time>2022-08-20T08:03:20.000Z</time>
      </trkpt>
      <trkpt lat="44.0797" lon="6.98879">
        <ele>1513.5999755859</ele>
        <time>2022-08-20T08:03:21.000Z</time>
      </trkpt>
      <trkpt lat="44.07977" lon="6.98886">
        <ele>1512.1999511719</ele>
        <time>2022-08-20T08:03:23.000Z</time>
      </trkpt>
      <trkpt lat="44.0798" lon="6.9889">
        <ele>1512</ele>
        <time>2022-08-20T08:03:24.000Z</time>
      </trkpt>
      <trkpt lat="44.0798" lon="6.98895">
        <ele>1510.8000488281</ele>
        <time>2022-08-20T08:03:26.000Z</time>
      </trkpt>
      <trkpt lat="44.07975" lon="6.98892">
        <ele>1510.1999511719</ele>
        <time>2022-08-20T08:03:28.000Z</time>
      </trkpt>
      <trkpt lat="44.0797" lon="6.9889">
        <ele>1509.5999755859</ele>
        <time>2022-08-20T08:03:29.000Z</time>
      </trkpt>
      <trkpt lat="44.07965" lon="6.98886">
        <ele>1509.1999511719</ele>
        <time>2022-08-20T08:03:30.000Z</time>
      </trkpt>
      <trkpt lat="44.07955" lon="6.98879">
        <ele>1508.1999511719</ele>
        <time>2022-08-20T08:03:32.000Z</time>
      </trkpt>
      <trkpt lat="44.07951" lon="6.98876">
        <ele>1507.5999755859</ele>
        <time>2022-08-20T08:03:33.000Z</time>
      </trkpt>
      <trkpt lat="44.07947" lon="6.98873">
        <ele>1507</ele>
        <time>2022-08-20T08:03:34.000Z</time>
      </trkpt>
      <trkpt lat="44.07943" lon="6.9887">
        <ele>1506.1999511719</ele>
        <time>2022-08-20T08:03:35.000Z</time>
      </trkpt>
      <trkpt lat="44.07938" lon="6.98869">
        <ele>1505.8000488281</ele>
        <time>2022-08-20T08:03:36.000Z</time>
      </trkpt>
      <trkpt lat="44.0793" lon="6.98867">
        <ele>1504.1999511719</ele>
        <time>2022-08-20T08:03:38.000Z</time>
      </trkpt>
      <trkpt lat="44.07924" lon="6.98863">
        <ele>1502.4000244141</ele>
        <time>2022-08-20T08:03:40.000Z</time>
      </trkpt>
      <trkpt lat="44.07921" lon="6.98863">
        <ele>1501</ele>
        <time>2022-08-20T08:03:41.000Z</time>
      </trkpt>
      <trkpt lat="44.07918" lon="6.98863">
        <ele>1500.1999511719</ele>
        <time>2022-08-20T08:03:42.000Z</time>
      </trkpt>
      <trkpt lat="44.07915" lon="6.98863">
        <ele>1499.5999755859</ele>
        <time>2022-08-20T08:03:43.000Z</time>
      </trkpt>
      <trkpt lat="44.07908" lon="6.98853">
        <ele>1498</ele>
        <time>2022-08-20T08:03:45.000Z</time>
      </trkpt>
      <trkpt lat="44.07901" lon="6.98841">
        <ele>1496</ele>
        <time>2022-08-20T08:03:47.000Z</time>
      </trkpt>
      <trkpt lat="44.07898" lon="6.9884">
        <ele>1493.5999755859</ele>
        <time>2022-08-20T08:03:48.000Z</time>
      </trkpt>
      <trkpt lat="44.07893" lon="6.98839">
        <ele>1491.1999511719</ele>
        <time>2022-08-20T08:03:49.000Z</time>
      </trkpt>
      <trkpt lat="44.0789" lon="6.98835">
        <ele>1489.4000244141</ele>
        <time>2022-08-20T08:03:50.000Z</time>
      </trkpt>
      <trkpt lat="44.07887" lon="6.98828">
        <ele>1487.4000244141</ele>
        <time>2022-08-20T08:03:51.000Z</time>
      </trkpt>
      <trkpt lat="44.07885" lon="6.98821">
        <ele>1485.8000488281</ele>
        <time>2022-08-20T08:03:52.000Z</time>
      </trkpt>
      <trkpt lat="44.07882" lon="6.9881">
        <ele>1484.4000244141</ele>
        <time>2022-08-20T08:03:54.000Z</time>
      </trkpt>
      <trkpt lat="44.07881" lon="6.98807">
        <ele>1483.4000244141</ele>
        <time>2022-08-20T08:03:55.000Z</time>
      </trkpt>
      <trkpt lat="44.07879" lon="6.98807">
        <ele>1482</ele>
        <time>2022-08-20T08:03:56.000Z</time>
      </trkpt>
      <trkpt lat="44.07876" lon="6.98807">
        <ele>1480.5999755859</ele>
        <time>2022-08-20T08:03:57.000Z</time>
      </trkpt>
      <trkpt lat="44.07872" lon="6.98809">
        <ele>1480.1999511719</ele>
        <time>2022-08-20T08:03:58.000Z</time>
      </trkpt>
      <trkpt lat="44.0787" lon="6.98804">
        <ele>1479.4000244141</ele>
        <time>2022-08-20T08:03:59.000Z</time>
      </trkpt>
      <trkpt lat="44.0787" lon="6.98798">
        <ele>1477.8000488281</ele>
        <time>2022-08-20T08:04:00.000Z</time>
      </trkpt>
      <trkpt lat="44.07873" lon="6.98782">
        <ele>1476.5999755859</ele>
        <time>2022-08-20T08:04:02.000Z</time>
      </trkpt>
      <trkpt lat="44.07874" lon="6.98775">
        <ele>1476</ele>
        <time>2022-08-20T08:04:03.000Z</time>
      </trkpt>
      <trkpt lat="44.07874" lon="6.98766">
        <ele>1474.8000488281</ele>
        <time>2022-08-20T08:04:04.000Z</time>
      </trkpt>
      <trkpt lat="44.07874" lon="6.98757">
        <ele>1473.8000488281</ele>
        <time>2022-08-20T08:04:05.000Z</time>
      </trkpt>
      <trkpt lat="44.07875" lon="6.98749">
        <ele>1472.4000244141</ele>
        <time>2022-08-20T08:04:06.000Z</time>
      </trkpt>
      <trkpt lat="44.07876" lon="6.98741">
        <ele>1471.4000244141</ele>
        <time>2022-08-20T08:04:07.000Z</time>
      </trkpt>
      <trkpt lat="44.07878" lon="6.98735">
        <ele>1469.8000488281</ele>
        <time>2022-08-20T08:04:08.000Z</time>
      </trkpt>
      <trkpt lat="44.07879" lon="6.98728">
        <ele>1468.1999511719</ele>
        <time>2022-08-20T08:04:09.000Z</time>
      </trkpt>
      <trkpt lat="44.0788" lon="6.98721">
        <ele>1466.8000488281</ele>
        <time>2022-08-20T08:04:10.000Z</time>
      </trkpt>
      <trkpt lat="44.07881" lon="6.98713">
        <ele>1465.8000488281</ele>
        <time>2022-08-20T08:04:11.000Z</time>
      </trkpt>
      <trkpt lat="44.07884" lon="6.98707">
        <ele>1464.1999511719</ele>
        <time>2022-08-20T08:04:12.000Z</time>
      </trkpt>
      <trkpt lat="44.07887" lon="6.98702">
        <ele>1462.8000488281</ele>
        <time>2022-08-20T08:04:13.000Z</time>
      </trkpt>
      <trkpt lat="44.0789" lon="6.98698">
        <ele>1461.8000488281</ele>
        <time>2022-08-20T08:04:14.000Z</time>
      </trkpt>
      <trkpt lat="44.0789" lon="6.98696">
        <ele>1460.5999755859</ele>
        <time>2022-08-20T08:04:15.000Z</time>
      </trkpt>
      <trkpt lat="44.07888" lon="6.98696">
        <ele>1459.5999755859</ele>
        <time>2022-08-20T08:04:16.000Z</time>
      </trkpt>
      <trkpt lat="44.07884" lon="6.98697">
        <ele>1459</ele>
        <time>2022-08-20T08:04:17.000Z</time>
      </trkpt>
      <trkpt lat="44.07881" lon="6.98697">
        <ele>1458.1999511719</ele>
        <time>2022-08-20T08:04:18.000Z</time>
      </trkpt>
      <trkpt lat="44.07875" lon="6.98696">
        <ele>1457.1999511719</ele>
        <time>2022-08-20T08:04:19.000Z</time>
      </trkpt>
      <trkpt lat="44.07864" lon="6.98697">
        <ele>1455.8000488281</ele>
        <time>2022-08-20T08:04:21.000Z</time>
      </trkpt>
      <trkpt lat="44.07861" lon="6.98698">
        <ele>1454.4000244141</ele>
        <time>2022-08-20T08:04:22.000Z</time>
      </trkpt>
      <trkpt lat="44.07859" lon="6.98699">
        <ele>1453.8000488281</ele>
        <time>2022-08-20T08:04:23.000Z</time>
      </trkpt>
      <trkpt lat="44.07857" lon="6.98704">
        <ele>1452.5999755859</ele>
        <time>2022-08-20T08:04:24.000Z</time>
      </trkpt>
      <trkpt lat="44.07855" lon="6.98707">
        <ele>1451.1999511719</ele>
        <time>2022-08-20T08:04:25.000Z</time>
      </trkpt>
      <trkpt lat="44.07854" lon="6.98705">
        <ele>1449.5999755859</ele>
        <time>2022-08-20T08:04:26.000Z</time>
      </trkpt>
      <trkpt lat="44.07853" lon="6.98701">
        <ele>1448.4000244141</ele>
        <time>2022-08-20T08:04:27.000Z</time>
      </trkpt>
      <trkpt lat="44.07852" lon="6.98697">
        <ele>1447.4000244141</ele>
        <time>2022-08-20T08:04:28.000Z</time>
      </trkpt>
      <trkpt lat="44.07849" lon="6.98691">
        <ele>1446.4000244141</ele>
        <time>2022-08-20T08:04:29.000Z</time>
      </trkpt>
      <trkpt lat="44.07845" lon="6.98688">
        <ele>1445.5999755859</ele>
        <time>2022-08-20T08:04:30.000Z</time>
      </trkpt>
      <trkpt lat="44.07841" lon="6.98689">
        <ele>1443.8000488281</ele>
        <time>2022-08-20T08:04:32.000Z</time>
      </trkpt>
      <trkpt lat="44.0784" lon="6.98692">
        <ele>1442.5999755859</ele>
        <time>2022-08-20T08:04:33.000Z</time>
      </trkpt>
      <trkpt lat="44.07838" lon="6.98694">
        <ele>1441.5999755859</ele>
        <time>2022-08-20T08:04:34.000Z</time>
      </trkpt>
      <trkpt lat="44.07838" lon="6.98694">
        <ele>1440.4000244141</ele>
        <time>2022-08-20T08:04:35.000Z</time>
      </trkpt>
      <trkpt lat="44.07838" lon="6.98696">
        <ele>1438.8000488281</ele>
        <time>2022-08-20T08:04:37.000Z</time>
      </trkpt>
      <trkpt lat="44.07838" lon="6.98697">
        <ele>1438.5999755859</ele>
        <time>2022-08-20T08:04:54.000Z</time>
      </trkpt>
      <trkpt lat="44.07838" lon="6.98697">
        <ele>1438.8000488281</ele>
        <time>2022-08-20T08:05:01.000Z</time>
      </trkpt>
      <trkpt lat="44.07838" lon="6.98697">
        <ele>1438.8000488281</ele>
        <time>2022-08-20T08:05:09.000Z</time>
      </trkpt>
      <trkpt lat="44.07838" lon="6.98699">
        <ele>1438.5999755859</ele>
        <time>2022-08-20T08:05:14.000Z</time>
      </trkpt>
      <trkpt lat="44.07837" lon="6.98701">
        <ele>1438.5999755859</ele>
        <time>2022-08-20T08:05:15.000Z</time>
      </trkpt>
      <trkpt lat="44.07834" lon="6.98708">
        <ele>1438.5999755859</ele>
        <time>2022-08-20T08:05:18.000Z</time>
      </trkpt>
      <trkpt lat="44.07831" lon="6.98708">
        <ele>1438.4000244141</ele>
        <time>2022-08-20T08:05:20.000Z</time>
      </trkpt>
      <trkpt lat="44.07824" lon="6.98708">
        <ele>1437.4000244141</ele>
        <time>2022-08-20T08:05:23.000Z</time>
      </trkpt>
      <trkpt lat="44.07817" lon="6.98709">
        <ele>1435.8000488281</ele>
        <time>2022-08-20T08:05:25.000Z</time>
      </trkpt>
      <trkpt lat="44.07807" lon="6.98713">
        <ele>1434</ele>
        <time>2022-08-20T08:05:27.000Z</time>
      </trkpt>
      <trkpt lat="44.07802" lon="6.98714">
        <ele>1433.5999755859</ele>
        <time>2022-08-20T08:05:28.000Z</time>
      </trkpt>
      <trkpt lat="44.07796" lon="6.98717">
        <ele>1432.5999755859</ele>
        <time>2022-08-20T08:05:29.000Z</time>
      </trkpt>
      <trkpt lat="44.07784" lon="6.98718">
        <ele>1430.8000488281</ele>
        <time>2022-08-20T08:05:31.000Z</time>
      </trkpt>
      <trkpt lat="44.07778" lon="6.98719">
        <ele>1429.5999755859</ele>
        <time>2022-08-20T08:05:32.000Z</time>
      </trkpt>
      <trkpt lat="44.07773" lon="6.98721">
        <ele>1428.8000488281</ele>
        <time>2022-08-20T08:05:33.000Z</time>
      </trkpt>
      <trkpt lat="44.07767" lon="6.98723">
        <ele>1426.8000488281</ele>
        <time>2022-08-20T08:05:34.000Z</time>
      </trkpt>
      <trkpt lat="44.07762" lon="6.98724">
        <ele>1425.4000244141</ele>
        <time>2022-08-20T08:05:35.000Z</time>
      </trkpt>
      <trkpt lat="44.07757" lon="6.98725">
        <ele>1424</ele>
        <time>2022-08-20T08:05:36.000Z</time>
      </trkpt>
      <trkpt lat="44.07752" lon="6.98727">
        <ele>1422.5999755859</ele>
        <time>2022-08-20T08:05:37.000Z</time>
      </trkpt>
      <trkpt lat="44.07747" lon="6.98729">
        <ele>1421.4000244141</ele>
        <time>2022-08-20T08:05:38.000Z</time>
      </trkpt>
      <trkpt lat="44.0774" lon="6.98731">
        <ele>1420.1999511719</ele>
        <time>2022-08-20T08:05:39.000Z</time>
      </trkpt>
      <trkpt lat="44.07735" lon="6.98732">
        <ele>1419</ele>
        <time>2022-08-20T08:05:40.000Z</time>
      </trkpt>
      <trkpt lat="44.07728" lon="6.98732">
        <ele>1417.4000244141</ele>
        <time>2022-08-20T08:05:41.000Z</time>
      </trkpt>
      <trkpt lat="44.07722" lon="6.98733">
        <ele>1415.4000244141</ele>
        <time>2022-08-20T08:05:42.000Z</time>
      </trkpt>
      <trkpt lat="44.07717" lon="6.98735">
        <ele>1414</ele>
        <time>2022-08-20T08:05:43.000Z</time>
      </trkpt>
      <trkpt lat="44.07714" lon="6.98741">
        <ele>1412.1999511719</ele>
        <time>2022-08-20T08:05:44.000Z</time>
      </trkpt>
      <trkpt lat="44.0771" lon="6.98748">
        <ele>1410.5999755859</ele>
        <time>2022-08-20T08:05:45.000Z</time>
      </trkpt>
      <trkpt lat="44.07707" lon="6.98755">
        <ele>1409.4000244141</ele>
        <time>2022-08-20T08:05:46.000Z</time>
      </trkpt>
      <trkpt lat="44.07703" lon="6.98764">
        <ele>1407.8000488281</ele>
        <time>2022-08-20T08:05:47.000Z</time>
      </trkpt>
      <trkpt lat="44.077" lon="6.98771">
        <ele>1406.8000488281</ele>
        <time>2022-08-20T08:05:48.000Z</time>
      </trkpt>
      <trkpt lat="44.07696" lon="6.98781">
        <ele>1405.5999755859</ele>
        <time>2022-08-20T08:05:49.000Z</time>
      </trkpt>
      <trkpt lat="44.07692" lon="6.98789">
        <ele>1404.5999755859</ele>
        <time>2022-08-20T08:05:50.000Z</time>
      </trkpt>
      <trkpt lat="44.07688" lon="6.98798">
        <ele>1403.8000488281</ele>
        <time>2022-08-20T08:05:51.000Z</time>
      </trkpt>
      <trkpt lat="44.07684" lon="6.98805">
        <ele>1404.8000488281</ele>
        <time>2022-08-20T08:05:52.000Z</time>
      </trkpt>
      <trkpt lat="44.0768" lon="6.98812">
        <ele>1403.1999511719</ele>
        <time>2022-08-20T08:05:53.000Z</time>
      </trkpt>
      <trkpt lat="44.07679" lon="6.98819">
        <ele>1401.4000244141</ele>
        <time>2022-08-20T08:05:54.000Z</time>
      </trkpt>
      <trkpt lat="44.0768" lon="6.98823">
        <ele>1399.8000488281</ele>
        <time>2022-08-20T08:05:55.000Z</time>
      </trkpt>
      <trkpt lat="44.07681" lon="6.98826">
        <ele>1398.8000488281</ele>
        <time>2022-08-20T08:05:56.000Z</time>
      </trkpt>
      <trkpt lat="44.07681" lon="6.98831">
        <ele>1397.5999755859</ele>
        <time>2022-08-20T08:05:57.000Z</time>
      </trkpt>
      <trkpt lat="44.07678" lon="6.9884">
        <ele>1396.1999511719</ele>
        <time>2022-08-20T08:05:59.000Z</time>
      </trkpt>
      <trkpt lat="44.07675" lon="6.98847">
        <ele>1395.4000244141</ele>
        <time>2022-08-20T08:06:00.000Z</time>
      </trkpt>
      <trkpt lat="44.07673" lon="6.98852">
        <ele>1394.4000244141</ele>
        <time>2022-08-20T08:06:01.000Z</time>
      </trkpt>
      <trkpt lat="44.07669" lon="6.98856">
        <ele>1393</ele>
        <time>2022-08-20T08:06:02.000Z</time>
      </trkpt>
      <trkpt lat="44.07665" lon="6.9886">
        <ele>1391.5999755859</ele>
        <time>2022-08-20T08:06:03.000Z</time>
      </trkpt>
      <trkpt lat="44.07661" lon="6.98864">
        <ele>1390.4000244141</ele>
        <time>2022-08-20T08:06:04.000Z</time>
      </trkpt>
      <trkpt lat="44.07657" lon="6.98869">
        <ele>1389</ele>
        <time>2022-08-20T08:06:05.000Z</time>
      </trkpt>
      <trkpt lat="44.07651" lon="6.98879">
        <ele>1387.1999511719</ele>
        <time>2022-08-20T08:06:07.000Z</time>
      </trkpt>
      <trkpt lat="44.07649" lon="6.98884">
        <ele>1386.5999755859</ele>
        <time>2022-08-20T08:06:08.000Z</time>
      </trkpt>
      <trkpt lat="44.07647" lon="6.98891">
        <ele>1385.8000488281</ele>
        <time>2022-08-20T08:06:09.000Z</time>
      </trkpt>
      <trkpt lat="44.07646" lon="6.98897">
        <ele>1384.1999511719</ele>
        <time>2022-08-20T08:06:10.000Z</time>
      </trkpt>
      <trkpt lat="44.07643" lon="6.98903">
        <ele>1382.8000488281</ele>
        <time>2022-08-20T08:06:11.000Z</time>
      </trkpt>
      <trkpt lat="44.07641" lon="6.98907">
        <ele>1381.1999511719</ele>
        <time>2022-08-20T08:06:12.000Z</time>
      </trkpt>
      <trkpt lat="44.0764" lon="6.9891">
        <ele>1380.1999511719</ele>
        <time>2022-08-20T08:06:13.000Z</time>
      </trkpt>
      <trkpt lat="44.0764" lon="6.98915">
        <ele>1379.1999511719</ele>
        <time>2022-08-20T08:06:14.000Z</time>
      </trkpt>
      <trkpt lat="44.07641" lon="6.9892">
        <ele>1378</ele>
        <time>2022-08-20T08:06:15.000Z</time>
      </trkpt>
      <trkpt lat="44.07641" lon="6.98923">
        <ele>1377</ele>
        <time>2022-08-20T08:06:16.000Z</time>
      </trkpt>
      <trkpt lat="44.0764" lon="6.98926">
        <ele>1376</ele>
        <time>2022-08-20T08:06:17.000Z</time>
      </trkpt>
      <trkpt lat="44.07638" lon="6.98927">
        <ele>1374.4000244141</ele>
        <time>2022-08-20T08:06:18.000Z</time>
      </trkpt>
      <trkpt lat="44.07634" lon="6.98926">
        <ele>1372.8000488281</ele>
        <time>2022-08-20T08:06:20.000Z</time>
      </trkpt>
      <trkpt lat="44.07635" lon="6.9893">
        <ele>1371.1999511719</ele>
        <time>2022-08-20T08:06:22.000Z</time>
      </trkpt>
      <trkpt lat="44.07637" lon="6.98937">
        <ele>1369.5999755859</ele>
        <time>2022-08-20T08:06:24.000Z</time>
      </trkpt>
      <trkpt lat="44.07638" lon="6.98942">
        <ele>1368</ele>
        <time>2022-08-20T08:06:26.000Z</time>
      </trkpt>
      <trkpt lat="44.07635" lon="6.98942">
        <ele>1366.1999511719</ele>
        <time>2022-08-20T08:06:28.000Z</time>
      </trkpt>
      <trkpt lat="44.07632" lon="6.98941">
        <ele>1365.5999755859</ele>
        <time>2022-08-20T08:06:29.000Z</time>
      </trkpt>
      <trkpt lat="44.07629" lon="6.98943">
        <ele>1365</ele>
        <time>2022-08-20T08:06:30.000Z</time>
      </trkpt>
      <trkpt lat="44.07629" lon="6.98948">
        <ele>1363.4000244141</ele>
        <time>2022-08-20T08:06:32.000Z</time>
      </trkpt>
      <trkpt lat="44.07631" lon="6.98951">
        <ele>1362.1999511719</ele>
        <time>2022-08-20T08:06:33.000Z</time>
      </trkpt>
      <trkpt lat="44.07633" lon="6.98955">
        <ele>1361.1999511719</ele>
        <time>2022-08-20T08:06:34.000Z</time>
      </trkpt>
      <trkpt lat="44.07636" lon="6.98961">
        <ele>1360.5999755859</ele>
        <time>2022-08-20T08:06:35.000Z</time>
      </trkpt>
      <trkpt lat="44.07638" lon="6.98967">
        <ele>1359.5999755859</ele>
        <time>2022-08-20T08:06:36.000Z</time>
      </trkpt>
      <trkpt lat="44.07641" lon="6.98972">
        <ele>1357.8000488281</ele>
        <time>2022-08-20T08:06:37.000Z</time>
      </trkpt>
      <trkpt lat="44.07643" lon="6.98976">
        <ele>1356.4000244141</ele>
        <time>2022-08-20T08:06:38.000Z</time>
      </trkpt>
      <trkpt lat="44.07647" lon="6.98982">
        <ele>1355.1999511719</ele>
        <time>2022-08-20T08:06:39.000Z</time>
      </trkpt>
      <trkpt lat="44.07649" lon="6.98987">
        <ele>1353.8000488281</ele>
        <time>2022-08-20T08:06:40.000Z</time>
      </trkpt>
      <trkpt lat="44.07652" lon="6.98992">
        <ele>1352.5999755859</ele>
        <time>2022-08-20T08:06:41.000Z</time>
      </trkpt>
      <trkpt lat="44.07655" lon="6.98996">
        <ele>1351.5999755859</ele>
        <time>2022-08-20T08:06:42.000Z</time>
      </trkpt>
      <trkpt lat="44.0766" lon="6.99004">
        <ele>1349.1999511719</ele>
        <time>2022-08-20T08:06:44.000Z</time>
      </trkpt>
      <trkpt lat="44.0766" lon="6.9901">
        <ele>1347</ele>
        <time>2022-08-20T08:06:46.000Z</time>
      </trkpt>
      <trkpt lat="44.07659" lon="6.99009">
        <ele>1346</ele>
        <time>2022-08-20T08:06:47.000Z</time>
      </trkpt>
      <trkpt lat="44.07657" lon="6.99008">
        <ele>1345.5999755859</ele>
        <time>2022-08-20T08:06:48.000Z</time>
      </trkpt>
      <trkpt lat="44.07655" lon="6.99008">
        <ele>1345</ele>
        <time>2022-08-20T08:06:49.000Z</time>
      </trkpt>
      <trkpt lat="44.07655" lon="6.99009">
        <ele>1344.8000488281</ele>
        <time>2022-08-20T08:06:50.000Z</time>
      </trkpt>
      <trkpt lat="44.07655" lon="6.99011">
        <ele>1344.1999511719</ele>
        <time>2022-08-20T08:06:51.000Z</time>
      </trkpt>
      <trkpt lat="44.07659" lon="6.99017">
        <ele>1343.5999755859</ele>
        <time>2022-08-20T08:06:53.000Z</time>
      </trkpt>
      <trkpt lat="44.0766" lon="6.99021">
        <ele>1343.4000244141</ele>
        <time>2022-08-20T08:06:54.000Z</time>
      </trkpt>
      <trkpt lat="44.07661" lon="6.99026">
        <ele>1342.5999755859</ele>
        <time>2022-08-20T08:06:57.000Z</time>
      </trkpt>
      <trkpt lat="44.0766" lon="6.99026">
        <ele>1342.4000244141</ele>
        <time>2022-08-20T08:06:58.000Z</time>
      </trkpt>
      <trkpt lat="44.07655" lon="6.99022">
        <ele>1341.4000244141</ele>
        <time>2022-08-20T08:07:00.000Z</time>
      </trkpt>
      <trkpt lat="44.07652" lon="6.99019">
        <ele>1340.8000488281</ele>
        <time>2022-08-20T08:07:01.000Z</time>
      </trkpt>
      <trkpt lat="44.07642" lon="6.99012">
        <ele>1339.8000488281</ele>
        <time>2022-08-20T08:07:04.000Z</time>
      </trkpt>
      <trkpt lat="44.07638" lon="6.99009">
        <ele>1339.1999511719</ele>
        <time>2022-08-20T08:07:05.000Z</time>
      </trkpt>
      <trkpt lat="44.07633" lon="6.99007">
        <ele>1338.8000488281</ele>
        <time>2022-08-20T08:07:06.000Z</time>
      </trkpt>
      <trkpt lat="44.07625" lon="6.99003">
        <ele>1337.5999755859</ele>
        <time>2022-08-20T08:07:08.000Z</time>
      </trkpt>
      <trkpt lat="44.0762" lon="6.99002">
        <ele>1336.5999755859</ele>
        <time>2022-08-20T08:07:09.000Z</time>
      </trkpt>
      <trkpt lat="44.07617" lon="6.99">
        <ele>1335.5999755859</ele>
        <time>2022-08-20T08:07:10.000Z</time>
      </trkpt>
      <trkpt lat="44.07613" lon="6.98997">
        <ele>1333.8000488281</ele>
        <time>2022-08-20T08:07:11.000Z</time>
      </trkpt>
      <trkpt lat="44.07609" lon="6.98994">
        <ele>1331.5999755859</ele>
        <time>2022-08-20T08:07:13.000Z</time>
      </trkpt>
      <trkpt lat="44.07611" lon="6.99">
        <ele>1330.4000244141</ele>
        <time>2022-08-20T08:07:16.000Z</time>
      </trkpt>
      <trkpt lat="44.0762" lon="6.99016">
        <ele>1329.1999511719</ele>
        <time>2022-08-20T08:07:21.000Z</time>
      </trkpt>
      <trkpt lat="44.0762" lon="6.99018">
        <ele>1328.1999511719</ele>
        <time>2022-08-20T08:07:22.000Z</time>
      </trkpt>
      <trkpt lat="44.07619" lon="6.9902">
        <ele>1327.4000244141</ele>
        <time>2022-08-20T08:07:23.000Z</time>
      </trkpt>
      <trkpt lat="44.07617" lon="6.9902">
        <ele>1327</ele>
        <time>2022-08-20T08:07:24.000Z</time>
      </trkpt>
      <trkpt lat="44.07613" lon="6.9902">
        <ele>1326.1999511719</ele>
        <time>2022-08-20T08:07:25.000Z</time>
      </trkpt>
      <trkpt lat="44.07605" lon="6.99017">
        <ele>1325.5999755859</ele>
        <time>2022-08-20T08:07:27.000Z</time>
      </trkpt>
      <trkpt lat="44.07601" lon="6.99013">
        <ele>1325.1999511719</ele>
        <time>2022-08-20T08:07:28.000Z</time>
      </trkpt>
      <trkpt lat="44.07597" lon="6.9901">
        <ele>1324.4000244141</ele>
        <time>2022-08-20T08:07:29.000Z</time>
      </trkpt>
      <trkpt lat="44.07592" lon="6.99006">
        <ele>1323.4000244141</ele>
        <time>2022-08-20T08:07:30.000Z</time>
      </trkpt>
      <trkpt lat="44.07587" lon="6.99001">
        <ele>1322.4000244141</ele>
        <time>2022-08-20T08:07:31.000Z</time>
      </trkpt>
      <trkpt lat="44.07584" lon="6.98996">
        <ele>1321.1999511719</ele>
        <time>2022-08-20T08:07:32.000Z</time>
      </trkpt>
      <trkpt lat="44.07582" lon="6.98991">
        <ele>1320.4000244141</ele>
        <time>2022-08-20T08:07:33.000Z</time>
      </trkpt>
      <trkpt lat="44.07581" lon="6.98988">
        <ele>1319.8000488281</ele>
        <time>2022-08-20T08:07:34.000Z</time>
      </trkpt>
      <trkpt lat="44.0758" lon="6.98988">
        <ele>1318.8000488281</ele>
        <time>2022-08-20T08:07:36.000Z</time>
      </trkpt>
      <trkpt lat="44.0758" lon="6.9899">
        <ele>1318.4000244141</ele>
        <time>2022-08-20T08:07:37.000Z</time>
      </trkpt>
      <trkpt lat="44.07581" lon="6.98998">
        <ele>1318.4000244141</ele>
        <time>2022-08-20T08:07:39.000Z</time>
      </trkpt>
      <trkpt lat="44.07582" lon="6.99008">
        <ele>1317.4000244141</ele>
        <time>2022-08-20T08:07:42.000Z</time>
      </trkpt>
      <trkpt lat="44.07581" lon="6.99007">
        <ele>1317</ele>
        <time>2022-08-20T08:07:43.000Z</time>
      </trkpt>
      <trkpt lat="44.07574" lon="6.99001">
        <ele>1316.1999511719</ele>
        <time>2022-08-20T08:07:45.000Z</time>
      </trkpt>
      <trkpt lat="44.07571" lon="6.98997">
        <ele>1315.8000488281</ele>
        <time>2022-08-20T08:07:46.000Z</time>
      </trkpt>
      <trkpt lat="44.07568" lon="6.98992">
        <ele>1315.1999511719</ele>
        <time>2022-08-20T08:07:47.000Z</time>
      </trkpt>
      <trkpt lat="44.07567" lon="6.98987">
        <ele>1314.5999755859</ele>
        <time>2022-08-20T08:07:48.000Z</time>
      </trkpt>
      <trkpt lat="44.07565" lon="6.98982">
        <ele>1314</ele>
        <time>2022-08-20T08:07:49.000Z</time>
      </trkpt>
      <trkpt lat="44.07562" lon="6.9897">
        <ele>1313.4000244141</ele>
        <time>2022-08-20T08:07:51.000Z</time>
      </trkpt>
      <trkpt lat="44.07559" lon="6.98963">
        <ele>1313</ele>
        <time>2022-08-20T08:07:53.000Z</time>
      </trkpt>
      <trkpt lat="44.07558" lon="6.98963">
        <ele>1312.5999755859</ele>
        <time>2022-08-20T08:07:54.000Z</time>
      </trkpt>
      <trkpt lat="44.07558" lon="6.98965">
        <ele>1312.1999511719</ele>
        <time>2022-08-20T08:07:55.000Z</time>
      </trkpt>
      <trkpt lat="44.07556" lon="6.98968">
        <ele>1311.8000488281</ele>
        <time>2022-08-20T08:07:56.000Z</time>
      </trkpt>
      <trkpt lat="44.07552" lon="6.98964">
        <ele>1311</ele>
        <time>2022-08-20T08:07:58.000Z</time>
      </trkpt>
      <trkpt lat="44.07552" lon="6.98956">
        <ele>1309.8000488281</ele>
        <time>2022-08-20T08:08:00.000Z</time>
      </trkpt>
      <trkpt lat="44.07551" lon="6.98954">
        <ele>1308.1999511719</ele>
        <time>2022-08-20T08:08:02.000Z</time>
      </trkpt>
      <trkpt lat="44.07551" lon="6.98954">
        <ele>1307</ele>
        <time>2022-08-20T08:08:04.000Z</time>
      </trkpt>
      <trkpt lat="44.07549" lon="6.98954">
        <ele>1305.8000488281</ele>
        <time>2022-08-20T08:08:06.000Z</time>
      </trkpt>
      <trkpt lat="44.07546" lon="6.98953">
        <ele>1305.1999511719</ele>
        <time>2022-08-20T08:08:08.000Z</time>
      </trkpt>
      <trkpt lat="44.07541" lon="6.98956">
        <ele>1304.5999755859</ele>
        <time>2022-08-20T08:08:10.000Z</time>
      </trkpt>
      <trkpt lat="44.07539" lon="6.98961">
        <ele>1303.8000488281</ele>
        <time>2022-08-20T08:08:12.000Z</time>
      </trkpt>
      <trkpt lat="44.07536" lon="6.98965">
        <ele>1303.4000244141</ele>
        <time>2022-08-20T08:08:13.000Z</time>
      </trkpt>
      <trkpt lat="44.07527" lon="6.98973">
        <ele>1302</ele>
        <time>2022-08-20T08:08:15.000Z</time>
      </trkpt>
      <trkpt lat="44.07524" lon="6.98978">
        <ele>1301.1999511719</ele>
        <time>2022-08-20T08:08:16.000Z</time>
      </trkpt>
      <trkpt lat="44.07522" lon="6.98982">
        <ele>1300.1999511719</ele>
        <time>2022-08-20T08:08:17.000Z</time>
      </trkpt>
      <trkpt lat="44.07521" lon="6.98984">
        <ele>1299.4000244141</ele>
        <time>2022-08-20T08:08:18.000Z</time>
      </trkpt>
      <trkpt lat="44.0752" lon="6.98986">
        <ele>1299</ele>
        <time>2022-08-20T08:08:19.000Z</time>
      </trkpt>
      <trkpt lat="44.07523" lon="6.98992">
        <ele>1298.5999755859</ele>
        <time>2022-08-20T08:08:22.000Z</time>
      </trkpt>
      <trkpt lat="44.07526" lon="6.98993">
        <ele>1298.8000488281</ele>
        <time>2022-08-20T08:08:24.000Z</time>
      </trkpt>
      <trkpt lat="44.07533" lon="6.98999">
        <ele>1299.4000244141</ele>
        <time>2022-08-20T08:08:29.000Z</time>
      </trkpt>
      <trkpt lat="44.07539" lon="6.99005">
        <ele>1300</ele>
        <time>2022-08-20T08:08:36.000Z</time>
      </trkpt>
      <trkpt lat="44.07539" lon="6.99006">
        <ele>1300</ele>
        <time>2022-08-20T08:08:47.000Z</time>
      </trkpt>
      <trkpt lat="44.07539" lon="6.99007">
        <ele>1300</ele>
        <time>2022-08-20T08:08:53.000Z</time>
      </trkpt>
      <trkpt lat="44.07541" lon="6.99008">
        <ele>1300</ele>
        <time>2022-08-20T08:08:57.000Z</time>
      </trkpt>
      <trkpt lat="44.07543" lon="6.99009">
        <ele>1300</ele>
        <time>2022-08-20T08:08:59.000Z</time>
      </trkpt>
      <trkpt lat="44.07555" lon="6.99016">
        <ele>1300.5999755859</ele>
        <time>2022-08-20T08:09:05.000Z</time>
      </trkpt>
      <trkpt lat="44.07555" lon="6.99017">
        <ele>1301.1999511719</ele>
        <time>2022-08-20T08:09:08.000Z</time>
      </trkpt>
      <trkpt lat="44.07555" lon="6.99017">
        <ele>1301</ele>
        <time>2022-08-20T08:09:09.000Z</time>
      </trkpt>
      <trkpt lat="44.07556" lon="6.9902">
        <ele>1300.5999755859</ele>
        <time>2022-08-20T08:09:15.000Z</time>
      </trkpt>
      <trkpt lat="44.07565" lon="6.9903">
        <ele>1301.4000244141</ele>
        <time>2022-08-20T08:09:21.000Z</time>
      </trkpt>
      <trkpt lat="44.07572" lon="6.9905">
        <ele>1301.8000488281</ele>
        <time>2022-08-20T08:09:27.000Z</time>
      </trkpt>
      <trkpt lat="44.07579" lon="6.99074">
        <ele>1302</ele>
        <time>2022-08-20T08:09:33.000Z</time>
      </trkpt>
      <trkpt lat="44.07587" lon="6.99083">
        <ele>1301.8000488281</ele>
        <time>2022-08-20T08:09:35.000Z</time>
      </trkpt>
      <trkpt lat="44.07598" lon="6.99096">
        <ele>1301</ele>
        <time>2022-08-20T08:09:37.000Z</time>
      </trkpt>
      <trkpt lat="44.07605" lon="6.99102">
        <ele>1300.1999511719</ele>
        <time>2022-08-20T08:09:38.000Z</time>
      </trkpt>
      <trkpt lat="44.07611" lon="6.99107">
        <ele>1299.1999511719</ele>
        <time>2022-08-20T08:09:39.000Z</time>
      </trkpt>
      <trkpt lat="44.07615" lon="6.99113">
        <ele>1298</ele>
        <time>2022-08-20T08:09:40.000Z</time>
      </trkpt>
      <trkpt lat="44.07617" lon="6.99119">
        <ele>1296.8000488281</ele>
        <time>2022-08-20T08:09:41.000Z</time>
      </trkpt>
      <trkpt lat="44.07615" lon="6.99132">
        <ele>1295.1999511719</ele>
        <time>2022-08-20T08:09:43.000Z</time>
      </trkpt>
      <trkpt lat="44.07615" lon="6.99137">
        <ele>1295</ele>
        <time>2022-08-20T08:09:44.000Z</time>
      </trkpt>
      <trkpt lat="44.07619" lon="6.99154">
        <ele>1295.5999755859</ele>
        <time>2022-08-20T08:09:47.000Z</time>
      </trkpt>
      <trkpt lat="44.07621" lon="6.9916">
        <ele>1295.8000488281</ele>
        <time>2022-08-20T08:09:48.000Z</time>
      </trkpt>
      <trkpt lat="44.07628" lon="6.99177">
        <ele>1296.1999511719</ele>
        <time>2022-08-20T08:09:51.000Z</time>
      </trkpt>
      <trkpt lat="44.07634" lon="6.99187">
        <ele>1296.5999755859</ele>
        <time>2022-08-20T08:09:53.000Z</time>
      </trkpt>
      <trkpt lat="44.07637" lon="6.99191">
        <ele>1296.8000488281</ele>
        <time>2022-08-20T08:09:54.000Z</time>
      </trkpt>
      <trkpt lat="44.07645" lon="6.99205">
        <ele>1297.4000244141</ele>
        <time>2022-08-20T08:09:57.000Z</time>
      </trkpt>
      <trkpt lat="44.07651" lon="6.99215">
        <ele>1298.8000488281</ele>
        <time>2022-08-20T08:10:00.000Z</time>
      </trkpt>
      <trkpt lat="44.07655" lon="6.99222">
        <ele>1299.8000488281</ele>
        <time>2022-08-20T08:10:02.000Z</time>
      </trkpt>
      <trkpt lat="44.0766" lon="6.99229">
        <ele>1301</ele>
        <time>2022-08-20T08:10:04.000Z</time>
      </trkpt>
      <trkpt lat="44.07665" lon="6.99236">
        <ele>1302</ele>
        <time>2022-08-20T08:10:06.000Z</time>
      </trkpt>
      <trkpt lat="44.07666" lon="6.99239">
        <ele>1302.5999755859</ele>
        <time>2022-08-20T08:10:07.000Z</time>
      </trkpt>
      <trkpt lat="44.07672" lon="6.99247">
        <ele>1303.5999755859</ele>
        <time>2022-08-20T08:10:09.000Z</time>
      </trkpt>
      <trkpt lat="44.07674" lon="6.99252">
        <ele>1303.8000488281</ele>
        <time>2022-08-20T08:10:10.000Z</time>
      </trkpt>
      <trkpt lat="44.07672" lon="6.99275">
        <ele>1304.8000488281</ele>
        <time>2022-08-20T08:10:15.000Z</time>
      </trkpt>
      <trkpt lat="44.07666" lon="6.99289">
        <ele>1306.1999511719</ele>
        <time>2022-08-20T08:10:19.000Z</time>
      </trkpt>
      <trkpt lat="44.07661" lon="6.99295">
        <ele>1307.1999511719</ele>
        <time>2022-08-20T08:10:21.000Z</time>
      </trkpt>
      <trkpt lat="44.07656" lon="6.993">
        <ele>1308.1999511719</ele>
        <time>2022-08-20T08:10:23.000Z</time>
      </trkpt>
      <trkpt lat="44.0765" lon="6.99308">
        <ele>1309</ele>
        <time>2022-08-20T08:10:26.000Z</time>
      </trkpt>
      <trkpt lat="44.07647" lon="6.99311">
        <ele>1309.4000244141</ele>
        <time>2022-08-20T08:10:27.000Z</time>
      </trkpt>
      <trkpt lat="44.07641" lon="6.9932">
        <ele>1310.5999755859</ele>
        <time>2022-08-20T08:10:30.000Z</time>
      </trkpt>
      <trkpt lat="44.07637" lon="6.99324">
        <ele>1311.4000244141</ele>
        <time>2022-08-20T08:10:32.000Z</time>
      </trkpt>
      <trkpt lat="44.07635" lon="6.99326">
        <ele>1312</ele>
        <time>2022-08-20T08:10:33.000Z</time>
      </trkpt>
      <trkpt lat="44.0763" lon="6.99333">
        <ele>1313</ele>
        <time>2022-08-20T08:10:36.000Z</time>
      </trkpt>
      <trkpt lat="44.07626" lon="6.99336">
        <ele>1313.5999755859</ele>
        <time>2022-08-20T08:10:38.000Z</time>
      </trkpt>
      <trkpt lat="44.07622" lon="6.99339">
        <ele>1314.1999511719</ele>
        <time>2022-08-20T08:10:40.000Z</time>
      </trkpt>
      <trkpt lat="44.07616" lon="6.99343">
        <ele>1315.4000244141</ele>
        <time>2022-08-20T08:10:44.000Z</time>
      </trkpt>
      <trkpt lat="44.07608" lon="6.99351">
        <ele>1316.4000244141</ele>
        <time>2022-08-20T08:10:49.000Z</time>
      </trkpt>
      <trkpt lat="44.07606" lon="6.99353">
        <ele>1316.5999755859</ele>
        <time>2022-08-20T08:10:50.000Z</time>
      </trkpt>
      <trkpt lat="44.07601" lon="6.99358">
        <ele>1317.5999755859</ele>
        <time>2022-08-20T08:10:53.000Z</time>
      </trkpt>
      <trkpt lat="44.07596" lon="6.99364">
        <ele>1318.4000244141</ele>
        <time>2022-08-20T08:10:56.000Z</time>
      </trkpt>
      <trkpt lat="44.07592" lon="6.99368">
        <ele>1318.5999755859</ele>
        <time>2022-08-20T08:10:59.000Z</time>
      </trkpt>
      <trkpt lat="44.07584" lon="6.99377">
        <ele>1319.8000488281</ele>
        <time>2022-08-20T08:11:04.000Z</time>
      </trkpt>
      <trkpt lat="44.07576" lon="6.99387">
        <ele>1320.8000488281</ele>
        <time>2022-08-20T08:11:10.000Z</time>
      </trkpt>
      <trkpt lat="44.07574" lon="6.99391">
        <ele>1321</ele>
        <time>2022-08-20T08:11:12.000Z</time>
      </trkpt>
      <trkpt lat="44.07573" lon="6.99395">
        <ele>1321.5999755859</ele>
        <time>2022-08-20T08:11:14.000Z</time>
      </trkpt>
      <trkpt lat="44.07571" lon="6.99399">
        <ele>1321.8000488281</ele>
        <time>2022-08-20T08:11:16.000Z</time>
      </trkpt>
      <trkpt lat="44.07571" lon="6.99401">
        <ele>1322</ele>
        <time>2022-08-20T08:11:17.000Z</time>
      </trkpt>
      <trkpt lat="44.0757" lon="6.99409">
        <ele>1322.1999511719</ele>
        <time>2022-08-20T08:11:20.000Z</time>
      </trkpt>
      <trkpt lat="44.07571" lon="6.99415">
        <ele>1322.1999511719</ele>
        <time>2022-08-20T08:11:22.000Z</time>
      </trkpt>
      <trkpt lat="44.07575" lon="6.99422">
        <ele>1322</ele>
        <time>2022-08-20T08:11:27.000Z</time>
      </trkpt>
      <trkpt lat="44.07576" lon="6.99424">
        <ele>1322.5999755859</ele>
        <time>2022-08-20T08:11:32.000Z</time>
      </trkpt>
      <trkpt lat="44.07577" lon="6.99424">
        <ele>1322.5999755859</ele>
        <time>2022-08-20T08:11:33.000Z</time>
      </trkpt>
      <trkpt lat="44.07579" lon="6.99426">
        <ele>1322.8000488281</ele>
        <time>2022-08-20T08:11:37.000Z</time>
      </trkpt>
      <trkpt lat="44.0758" lon="6.99428">
        <ele>1323</ele>
        <time>2022-08-20T08:11:40.000Z</time>
      </trkpt>
      <trkpt lat="44.07582" lon="6.99429">
        <ele>1323.1999511719</ele>
        <time>2022-08-20T08:11:45.000Z</time>
      </trkpt>
      <trkpt lat="44.07585" lon="6.99431">
        <ele>1323.4000244141</ele>
        <time>2022-08-20T08:11:50.000Z</time>
      </trkpt>
      <trkpt lat="44.07585" lon="6.99432">
        <ele>1323.4000244141</ele>
        <time>2022-08-20T08:11:51.000Z</time>
      </trkpt>
      <trkpt lat="44.07586" lon="6.99434">
        <ele>1324</ele>
        <time>2022-08-20T08:11:57.000Z</time>
      </trkpt>
      <trkpt lat="44.07586" lon="6.99434">
        <ele>1324</ele>
        <time>2022-08-20T08:11:58.000Z</time>
      </trkpt>
      <trkpt lat="44.07585" lon="6.99435">
        <ele>1323.5999755859</ele>
        <time>2022-08-20T08:12:08.000Z</time>
      </trkpt>
      <trkpt lat="44.07585" lon="6.99437">
        <ele>1323.8000488281</ele>
        <time>2022-08-20T08:12:12.000Z</time>
      </trkpt>
      <trkpt lat="44.07588" lon="6.99439">
        <ele>1324</ele>
        <time>2022-08-20T08:12:14.000Z</time>
      </trkpt>
      <trkpt lat="44.0759" lon="6.99439">
        <ele>1324</ele>
        <time>2022-08-20T08:12:15.000Z</time>
      </trkpt>
      <trkpt lat="44.07596" lon="6.99435">
        <ele>1323.8000488281</ele>
        <time>2022-08-20T08:12:18.000Z</time>
      </trkpt>
      <trkpt lat="44.07612" lon="6.99427">
        <ele>1324.1999511719</ele>
        <time>2022-08-20T08:12:25.000Z</time>
      </trkpt>
      <trkpt lat="44.07625" lon="6.99421">
        <ele>1325</ele>
        <time>2022-08-20T08:12:30.000Z</time>
      </trkpt>
      <trkpt lat="44.07632" lon="6.99417">
        <ele>1325.8000488281</ele>
        <time>2022-08-20T08:12:33.000Z</time>
      </trkpt>
      <trkpt lat="44.07635" lon="6.99417">
        <ele>1326</ele>
        <time>2022-08-20T08:12:34.000Z</time>
      </trkpt>
      <trkpt lat="44.07647" lon="6.99412">
        <ele>1327.1999511719</ele>
        <time>2022-08-20T08:12:40.000Z</time>
      </trkpt>
      <trkpt lat="44.0766" lon="6.99406">
        <ele>1328.1999511719</ele>
        <time>2022-08-20T08:12:47.000Z</time>
      </trkpt>
      <trkpt lat="44.07662" lon="6.99405">
        <ele>1328.4000244141</ele>
        <time>2022-08-20T08:12:48.000Z</time>
      </trkpt>
      <trkpt lat="44.0767" lon="6.99402">
        <ele>1329.4000244141</ele>
        <time>2022-08-20T08:12:52.000Z</time>
      </trkpt>
      <trkpt lat="44.07676" lon="6.99399">
        <ele>1330</ele>
        <time>2022-08-20T08:12:55.000Z</time>
      </trkpt>
      <trkpt lat="44.07679" lon="6.99397">
        <ele>1330.5999755859</ele>
        <time>2022-08-20T08:12:57.000Z</time>
      </trkpt>
      <trkpt lat="44.07686" lon="6.99392">
        <ele>1331.5999755859</ele>
        <time>2022-08-20T08:13:01.000Z</time>
      </trkpt>
      <trkpt lat="44.0769" lon="6.9939">
        <ele>1332</ele>
        <time>2022-08-20T08:13:03.000Z</time>
      </trkpt>
      <trkpt lat="44.07698" lon="6.99386">
        <ele>1332.8000488281</ele>
        <time>2022-08-20T08:13:08.000Z</time>
      </trkpt>
      <trkpt lat="44.07704" lon="6.99383">
        <ele>1333.4000244141</ele>
        <time>2022-08-20T08:13:11.000Z</time>
      </trkpt>
      <trkpt lat="44.07708" lon="6.99382">
        <ele>1333.8000488281</ele>
        <time>2022-08-20T08:13:13.000Z</time>
      </trkpt>
      <trkpt lat="44.0772" lon="6.99383">
        <ele>1334.8000488281</ele>
        <time>2022-08-20T08:13:19.000Z</time>
      </trkpt>
      <trkpt lat="44.0773" lon="6.99391">
        <ele>1336</ele>
        <time>2022-08-20T08:13:25.000Z</time>
      </trkpt>
      <trkpt lat="44.0774" lon="6.99401">
        <ele>1337</ele>
        <time>2022-08-20T08:13:31.000Z</time>
      </trkpt>
      <trkpt lat="44.07744" lon="6.99407">
        <ele>1337.4000244141</ele>
        <time>2022-08-20T08:13:34.000Z</time>
      </trkpt>
      <trkpt lat="44.07749" lon="6.99416">
        <ele>1338</ele>
        <time>2022-08-20T08:13:38.000Z</time>
      </trkpt>
      <trkpt lat="44.07753" lon="6.99423">
        <ele>1338.5999755859</ele>
        <time>2022-08-20T08:13:41.000Z</time>
      </trkpt>
      <trkpt lat="44.07756" lon="6.99434">
        <ele>1339.1999511719</ele>
        <time>2022-08-20T08:13:45.000Z</time>
      </trkpt>
      <trkpt lat="44.0776" lon="6.99441">
        <ele>1339.8000488281</ele>
        <time>2022-08-20T08:13:48.000Z</time>
      </trkpt>
      <trkpt lat="44.07766" lon="6.99448">
        <ele>1340.4000244141</ele>
        <time>2022-08-20T08:13:52.000Z</time>
      </trkpt>
      <trkpt lat="44.07768" lon="6.99449">
        <ele>1340.5999755859</ele>
        <time>2022-08-20T08:13:53.000Z</time>
      </trkpt>
      <trkpt lat="44.07777" lon="6.9945">
        <ele>1341.5999755859</ele>
        <time>2022-08-20T08:13:57.000Z</time>
      </trkpt>
      <trkpt lat="44.07779" lon="6.9945">
        <ele>1342</ele>
        <time>2022-08-20T08:13:58.000Z</time>
      </trkpt>
      <trkpt lat="44.07784" lon="6.99452">
        <ele>1342.8000488281</ele>
        <time>2022-08-20T08:14:01.000Z</time>
      </trkpt>
      <trkpt lat="44.07791" lon="6.99456">
        <ele>1343.4000244141</ele>
        <time>2022-08-20T08:14:05.000Z</time>
      </trkpt>
      <trkpt lat="44.07794" lon="6.99458">
        <ele>1343.5999755859</ele>
        <time>2022-08-20T08:14:07.000Z</time>
      </trkpt>
      <trkpt lat="44.07795" lon="6.9946">
        <ele>1343.8000488281</ele>
        <time>2022-08-20T08:14:08.000Z</time>
      </trkpt>
      <trkpt lat="44.07794" lon="6.99465">
        <ele>1344.1999511719</ele>
        <time>2022-08-20T08:14:10.000Z</time>
      </trkpt>
      <trkpt lat="44.0779" lon="6.99465">
        <ele>1344.8000488281</ele>
        <time>2022-08-20T08:14:13.000Z</time>
      </trkpt>
      <trkpt lat="44.07788" lon="6.99464">
        <ele>1345</ele>
        <time>2022-08-20T08:14:14.000Z</time>
      </trkpt>
      <trkpt lat="44.07786" lon="6.99463">
        <ele>1345</ele>
        <time>2022-08-20T08:14:15.000Z</time>
      </trkpt>
      <trkpt lat="44.07777" lon="6.99459">
        <ele>1345.8000488281</ele>
        <time>2022-08-20T08:14:20.000Z</time>
      </trkpt>
      <trkpt lat="44.07773" lon="6.9946">
        <ele>1346</ele>
        <time>2022-08-20T08:14:22.000Z</time>
      </trkpt>
      <trkpt lat="44.07764" lon="6.99463">
        <ele>1346.5999755859</ele>
        <time>2022-08-20T08:14:27.000Z</time>
      </trkpt>
      <trkpt lat="44.07758" lon="6.99462">
        <ele>1347</ele>
        <time>2022-08-20T08:14:30.000Z</time>
      </trkpt>
      <trkpt lat="44.07753" lon="6.99458">
        <ele>1347.5999755859</ele>
        <time>2022-08-20T08:14:33.000Z</time>
      </trkpt>
      <trkpt lat="44.07749" lon="6.99456">
        <ele>1348</ele>
        <time>2022-08-20T08:14:35.000Z</time>
      </trkpt>
      <trkpt lat="44.07742" lon="6.99451">
        <ele>1349</ele>
        <time>2022-08-20T08:14:39.000Z</time>
      </trkpt>
      <trkpt lat="44.0774" lon="6.9945">
        <ele>1349.4000244141</ele>
        <time>2022-08-20T08:14:40.000Z</time>
      </trkpt>
      <trkpt lat="44.07732" lon="6.99446">
        <ele>1350.1999511719</ele>
        <time>2022-08-20T08:14:44.000Z</time>
      </trkpt>
      <trkpt lat="44.07725" lon="6.99444">
        <ele>1350.8000488281</ele>
        <time>2022-08-20T08:14:48.000Z</time>
      </trkpt>
      <trkpt lat="44.07712" lon="6.99446">
        <ele>1351.4000244141</ele>
        <time>2022-08-20T08:14:55.000Z</time>
      </trkpt>
      <trkpt lat="44.07708" lon="6.99453">
        <ele>1352.8000488281</ele>
        <time>2022-08-20T08:14:58.000Z</time>
      </trkpt>
      <trkpt lat="44.07709" lon="6.99455">
        <ele>1353.1999511719</ele>
        <time>2022-08-20T08:14:59.000Z</time>
      </trkpt>
      <trkpt lat="44.07711" lon="6.9946">
        <ele>1354</ele>
        <time>2022-08-20T08:15:01.000Z</time>
      </trkpt>
      <trkpt lat="44.07715" lon="6.99461">
        <ele>1354.5999755859</ele>
        <time>2022-08-20T08:15:03.000Z</time>
      </trkpt>
      <trkpt lat="44.07722" lon="6.99461">
        <ele>1355</ele>
        <time>2022-08-20T08:15:06.000Z</time>
      </trkpt>
      <trkpt lat="44.07726" lon="6.99464">
        <ele>1355.1999511719</ele>
        <time>2022-08-20T08:15:08.000Z</time>
      </trkpt>
      <trkpt lat="44.07738" lon="6.99475">
        <ele>1355.1999511719</ele>
        <time>2022-08-20T08:15:14.000Z</time>
      </trkpt>
      <trkpt lat="44.07748" lon="6.9948">
        <ele>1355.4000244141</ele>
        <time>2022-08-20T08:15:19.000Z</time>
      </trkpt>
      <trkpt lat="44.07755" lon="6.99486">
        <ele>1355.4000244141</ele>
        <time>2022-08-20T08:15:23.000Z</time>
      </trkpt>
      <trkpt lat="44.07757" lon="6.99487">
        <ele>1355.4000244141</ele>
        <time>2022-08-20T08:15:24.000Z</time>
      </trkpt>
      <trkpt lat="44.07769" lon="6.9949">
        <ele>1356.4000244141</ele>
        <time>2022-08-20T08:15:29.000Z</time>
      </trkpt>
      <trkpt lat="44.07773" lon="6.99492">
        <ele>1357.1999511719</ele>
        <time>2022-08-20T08:15:31.000Z</time>
      </trkpt>
      <trkpt lat="44.07775" lon="6.99492">
        <ele>1357.5999755859</ele>
        <time>2022-08-20T08:15:32.000Z</time>
      </trkpt>
      <trkpt lat="44.07778" lon="6.99495">
        <ele>1358.4000244141</ele>
        <time>2022-08-20T08:15:34.000Z</time>
      </trkpt>
      <trkpt lat="44.07779" lon="6.99498">
        <ele>1358.8000488281</ele>
        <time>2022-08-20T08:15:35.000Z</time>
      </trkpt>
      <trkpt lat="44.07778" lon="6.99501">
        <ele>1359.1999511719</ele>
        <time>2022-08-20T08:15:36.000Z</time>
      </trkpt>
      <trkpt lat="44.07774" lon="6.99502">
        <ele>1360</ele>
        <time>2022-08-20T08:15:38.000Z</time>
      </trkpt>
      <trkpt lat="44.07773" lon="6.99503">
        <ele>1360.4000244141</ele>
        <time>2022-08-20T08:15:39.000Z</time>
      </trkpt>
      <trkpt lat="44.07769" lon="6.99503">
        <ele>1361.1999511719</ele>
        <time>2022-08-20T08:15:41.000Z</time>
      </trkpt>
      <trkpt lat="44.07759" lon="6.99505">
        <ele>1362.1999511719</ele>
        <time>2022-08-20T08:15:46.000Z</time>
      </trkpt>
      <trkpt lat="44.07752" lon="6.99508">
        <ele>1363.4000244141</ele>
        <time>2022-08-20T08:15:50.000Z</time>
      </trkpt>
      <trkpt lat="44.07748" lon="6.99509">
        <ele>1363.8000488281</ele>
        <time>2022-08-20T08:15:52.000Z</time>
      </trkpt>
      <trkpt lat="44.07741" lon="6.99507">
        <ele>1364.5999755859</ele>
        <time>2022-08-20T08:15:56.000Z</time>
      </trkpt>
      <trkpt lat="44.07737" lon="6.99504">
        <ele>1365.1999511719</ele>
        <time>2022-08-20T08:15:58.000Z</time>
      </trkpt>
      <trkpt lat="44.07733" lon="6.99502">
        <ele>1365.5999755859</ele>
        <time>2022-08-20T08:16:00.000Z</time>
      </trkpt>
      <trkpt lat="44.07724" lon="6.99496">
        <ele>1367</ele>
        <time>2022-08-20T08:16:05.000Z</time>
      </trkpt>
      <trkpt lat="44.07722" lon="6.99495">
        <ele>1367.1999511719</ele>
        <time>2022-08-20T08:16:06.000Z</time>
      </trkpt>
      <trkpt lat="44.07719" lon="6.99494">
        <ele>1367.8000488281</ele>
        <time>2022-08-20T08:16:08.000Z</time>
      </trkpt>
      <trkpt lat="44.07717" lon="6.99493">
        <ele>1368</ele>
        <time>2022-08-20T08:16:09.000Z</time>
      </trkpt>
      <trkpt lat="44.07713" lon="6.99492">
        <ele>1368.5999755859</ele>
        <time>2022-08-20T08:16:11.000Z</time>
      </trkpt>
      <trkpt lat="44.07709" lon="6.99491">
        <ele>1369.4000244141</ele>
        <time>2022-08-20T08:16:13.000Z</time>
      </trkpt>
      <trkpt lat="44.07699" lon="6.99491">
        <ele>1370.5999755859</ele>
        <time>2022-08-20T08:16:18.000Z</time>
      </trkpt>
      <trkpt lat="44.07695" lon="6.99491">
        <ele>1371.1999511719</ele>
        <time>2022-08-20T08:16:20.000Z</time>
      </trkpt>
      <trkpt lat="44.07692" lon="6.99491">
        <ele>1371.8000488281</ele>
        <time>2022-08-20T08:16:22.000Z</time>
      </trkpt>
      <trkpt lat="44.07684" lon="6.99493">
        <ele>1372.8000488281</ele>
        <time>2022-08-20T08:16:26.000Z</time>
      </trkpt>
      <trkpt lat="44.07682" lon="6.99493">
        <ele>1373.1999511719</ele>
        <time>2022-08-20T08:16:27.000Z</time>
      </trkpt>
      <trkpt lat="44.07677" lon="6.99495">
        <ele>1373.8000488281</ele>
        <time>2022-08-20T08:16:30.000Z</time>
      </trkpt>
      <trkpt lat="44.07671" lon="6.99498">
        <ele>1374.1999511719</ele>
        <time>2022-08-20T08:16:33.000Z</time>
      </trkpt>
      <trkpt lat="44.07662" lon="6.99504">
        <ele>1375</ele>
        <time>2022-08-20T08:16:38.000Z</time>
      </trkpt>
      <trkpt lat="44.07658" lon="6.99509">
        <ele>1375.5999755859</ele>
        <time>2022-08-20T08:16:41.000Z</time>
      </trkpt>
      <trkpt lat="44.07654" lon="6.99513">
        <ele>1376</ele>
        <time>2022-08-20T08:16:43.000Z</time>
      </trkpt>
      <trkpt lat="44.07652" lon="6.99516">
        <ele>1376.1999511719</ele>
        <time>2022-08-20T08:16:45.000Z</time>
      </trkpt>
      <trkpt lat="44.07653" lon="6.99521">
        <ele>1376.5999755859</ele>
        <time>2022-08-20T08:16:47.000Z</time>
      </trkpt>
      <trkpt lat="44.07655" lon="6.99524">
        <ele>1377</ele>
        <time>2022-08-20T08:16:49.000Z</time>
      </trkpt>
      <trkpt lat="44.07659" lon="6.99523">
        <ele>1377.5999755859</ele>
        <time>2022-08-20T08:16:51.000Z</time>
      </trkpt>
      <trkpt lat="44.07662" lon="6.99519">
        <ele>1378</ele>
        <time>2022-08-20T08:16:53.000Z</time>
      </trkpt>
      <trkpt lat="44.07664" lon="6.99517">
        <ele>1378.1999511719</ele>
        <time>2022-08-20T08:16:54.000Z</time>
      </trkpt>
      <trkpt lat="44.0767" lon="6.99512">
        <ele>1378.5999755859</ele>
        <time>2022-08-20T08:16:57.000Z</time>
      </trkpt>
      <trkpt lat="44.07678" lon="6.99509">
        <ele>1379.4000244141</ele>
        <time>2022-08-20T08:17:01.000Z</time>
      </trkpt>
      <trkpt lat="44.07684" lon="6.99508">
        <ele>1379.8000488281</ele>
        <time>2022-08-20T08:17:04.000Z</time>
      </trkpt>
      <trkpt lat="44.07694" lon="6.99512">
        <ele>1380.5999755859</ele>
        <time>2022-08-20T08:17:09.000Z</time>
      </trkpt>
      <trkpt lat="44.07706" lon="6.99524">
        <ele>1381.8000488281</ele>
        <time>2022-08-20T08:17:16.000Z</time>
      </trkpt>
      <trkpt lat="44.07707" lon="6.99526">
        <ele>1382</ele>
        <time>2022-08-20T08:17:17.000Z</time>
      </trkpt>
      <trkpt lat="44.07714" lon="6.99535">
        <ele>1382.8000488281</ele>
        <time>2022-08-20T08:17:21.000Z</time>
      </trkpt>
      <trkpt lat="44.07719" lon="6.99544">
        <ele>1383.8000488281</ele>
        <time>2022-08-20T08:17:25.000Z</time>
      </trkpt>
      <trkpt lat="44.07721" lon="6.99547">
        <ele>1384</ele>
        <time>2022-08-20T08:17:26.000Z</time>
      </trkpt>
      <trkpt lat="44.07726" lon="6.99556">
        <ele>1385</ele>
        <time>2022-08-20T08:17:30.000Z</time>
      </trkpt>
      <trkpt lat="44.07732" lon="6.9956">
        <ele>1385.5999755859</ele>
        <time>2022-08-20T08:17:33.000Z</time>
      </trkpt>
      <trkpt lat="44.07738" lon="6.99563">
        <ele>1386.1999511719</ele>
        <time>2022-08-20T08:17:36.000Z</time>
      </trkpt>
      <trkpt lat="44.07747" lon="6.99568">
        <ele>1387</ele>
        <time>2022-08-20T08:17:41.000Z</time>
      </trkpt>
      <trkpt lat="44.07749" lon="6.99569">
        <ele>1387.1999511719</ele>
        <time>2022-08-20T08:17:42.000Z</time>
      </trkpt>
      <trkpt lat="44.07759" lon="6.99577">
        <ele>1388.4000244141</ele>
        <time>2022-08-20T08:17:48.000Z</time>
      </trkpt>
      <trkpt lat="44.07762" lon="6.99581">
        <ele>1388.8000488281</ele>
        <time>2022-08-20T08:17:50.000Z</time>
      </trkpt>
      <trkpt lat="44.0776" lon="6.99588">
        <ele>1389.8000488281</ele>
        <time>2022-08-20T08:17:53.000Z</time>
      </trkpt>
      <trkpt lat="44.07758" lon="6.99589">
        <ele>1390</ele>
        <time>2022-08-20T08:17:54.000Z</time>
      </trkpt>
      <trkpt lat="44.07753" lon="6.99586">
        <ele>1390.8000488281</ele>
        <time>2022-08-20T08:17:57.000Z</time>
      </trkpt>
      <trkpt lat="44.07751" lon="6.99585">
        <ele>1391</ele>
        <time>2022-08-20T08:17:58.000Z</time>
      </trkpt>
      <trkpt lat="44.0775" lon="6.99584">
        <ele>1391.1999511719</ele>
        <time>2022-08-20T08:17:59.000Z</time>
      </trkpt>
      <trkpt lat="44.07738" lon="6.99581">
        <ele>1391.8000488281</ele>
        <time>2022-08-20T08:18:05.000Z</time>
      </trkpt>
      <trkpt lat="44.07736" lon="6.9958">
        <ele>1392</ele>
        <time>2022-08-20T08:18:06.000Z</time>
      </trkpt>
      <trkpt lat="44.07729" lon="6.99579">
        <ele>1393</ele>
        <time>2022-08-20T08:18:10.000Z</time>
      </trkpt>
      <trkpt lat="44.07722" lon="6.99575">
        <ele>1393.5999755859</ele>
        <time>2022-08-20T08:18:14.000Z</time>
      </trkpt>
      <trkpt lat="44.07719" lon="6.99572">
        <ele>1394</ele>
        <time>2022-08-20T08:18:16.000Z</time>
      </trkpt>
      <trkpt lat="44.07713" lon="6.99567">
        <ele>1395</ele>
        <time>2022-08-20T08:18:20.000Z</time>
      </trkpt>
      <trkpt lat="44.07712" lon="6.99566">
        <ele>1395.1999511719</ele>
        <time>2022-08-20T08:18:21.000Z</time>
      </trkpt>
      <trkpt lat="44.07707" lon="6.99563">
        <ele>1395.8000488281</ele>
        <time>2022-08-20T08:18:24.000Z</time>
      </trkpt>
      <trkpt lat="44.07705" lon="6.99564">
        <ele>1396</ele>
        <time>2022-08-20T08:18:25.000Z</time>
      </trkpt>
      <trkpt lat="44.07703" lon="6.99566">
        <ele>1396.1999511719</ele>
        <time>2022-08-20T08:18:26.000Z</time>
      </trkpt>
      <trkpt lat="44.07705" lon="6.99576">
        <ele>1396.8000488281</ele>
        <time>2022-08-20T08:18:30.000Z</time>
      </trkpt>
      <trkpt lat="44.07706" lon="6.99578">
        <ele>1397.1999511719</ele>
        <time>2022-08-20T08:18:31.000Z</time>
      </trkpt>
      <trkpt lat="44.0771" lon="6.99581">
        <ele>1397.8000488281</ele>
        <time>2022-08-20T08:18:33.000Z</time>
      </trkpt>
      <trkpt lat="44.07712" lon="6.99585">
        <ele>1398.1999511719</ele>
        <time>2022-08-20T08:18:35.000Z</time>
      </trkpt>
      <trkpt lat="44.07725" lon="6.99597">
        <ele>1399.1999511719</ele>
        <time>2022-08-20T08:18:42.000Z</time>
      </trkpt>
      <trkpt lat="44.07728" lon="6.996">
        <ele>1399.4000244141</ele>
        <time>2022-08-20T08:18:44.000Z</time>
      </trkpt>
      <trkpt lat="44.07733" lon="6.99604">
        <ele>1399.8000488281</ele>
        <time>2022-08-20T08:18:47.000Z</time>
      </trkpt>
      <trkpt lat="44.07738" lon="6.99608">
        <ele>1400.4000244141</ele>
        <time>2022-08-20T08:18:50.000Z</time>
      </trkpt>
      <trkpt lat="44.0774" lon="6.99609">
        <ele>1400.4000244141</ele>
        <time>2022-08-20T08:18:51.000Z</time>
      </trkpt>
      <trkpt lat="44.07741" lon="6.99611">
        <ele>1400.5999755859</ele>
        <time>2022-08-20T08:18:52.000Z</time>
      </trkpt>
      <trkpt lat="44.0775" lon="6.99618">
        <ele>1401.1999511719</ele>
        <time>2022-08-20T08:18:57.000Z</time>
      </trkpt>
      <trkpt lat="44.07763" lon="6.99631">
        <ele>1401.5999755859</ele>
        <time>2022-08-20T08:19:04.000Z</time>
      </trkpt>
      <trkpt lat="44.07774" lon="6.99645">
        <ele>1402.8000488281</ele>
        <time>2022-08-20T08:19:11.000Z</time>
      </trkpt>
      <trkpt lat="44.07778" lon="6.99649">
        <ele>1403.1999511719</ele>
        <time>2022-08-20T08:19:13.000Z</time>
      </trkpt>
      <trkpt lat="44.07784" lon="6.99654">
        <ele>1403.8000488281</ele>
        <time>2022-08-20T08:19:16.000Z</time>
      </trkpt>
      <trkpt lat="44.07791" lon="6.99658">
        <ele>1404.8000488281</ele>
        <time>2022-08-20T08:19:20.000Z</time>
      </trkpt>
      <trkpt lat="44.07793" lon="6.99658">
        <ele>1405.1999511719</ele>
        <time>2022-08-20T08:19:21.000Z</time>
      </trkpt>
      <trkpt lat="44.07802" lon="6.99655">
        <ele>1405.8000488281</ele>
        <time>2022-08-20T08:19:25.000Z</time>
      </trkpt>
      <trkpt lat="44.07806" lon="6.99653">
        <ele>1406.1999511719</ele>
        <time>2022-08-20T08:19:27.000Z</time>
      </trkpt>
      <trkpt lat="44.07819" lon="6.99648">
        <ele>1407.1999511719</ele>
        <time>2022-08-20T08:19:33.000Z</time>
      </trkpt>
      <trkpt lat="44.07821" lon="6.99647">
        <ele>1407.4000244141</ele>
        <time>2022-08-20T08:19:34.000Z</time>
      </trkpt>
      <trkpt lat="44.07837" lon="6.99642">
        <ele>1408.1999511719</ele>
        <time>2022-08-20T08:19:41.000Z</time>
      </trkpt>
      <trkpt lat="44.0784" lon="6.99641">
        <ele>1408.1999511719</ele>
        <time>2022-08-20T08:19:42.000Z</time>
      </trkpt>
      <trkpt lat="44.07857" lon="6.99644">
        <ele>1409.1999511719</ele>
        <time>2022-08-20T08:19:50.000Z</time>
      </trkpt>
      <trkpt lat="44.07867" lon="6.99654">
        <ele>1410</ele>
        <time>2022-08-20T08:19:56.000Z</time>
      </trkpt>
      <trkpt lat="44.07868" lon="6.99656">
        <ele>1410.1999511719</ele>
        <time>2022-08-20T08:19:57.000Z</time>
      </trkpt>
      <trkpt lat="44.07878" lon="6.99668">
        <ele>1411.1999511719</ele>
        <time>2022-08-20T08:20:03.000Z</time>
      </trkpt>
      <trkpt lat="44.07885" lon="6.9968">
        <ele>1412.4000244141</ele>
        <time>2022-08-20T08:20:08.000Z</time>
      </trkpt>
      <trkpt lat="44.07886" lon="6.99682">
        <ele>1412.4000244141</ele>
        <time>2022-08-20T08:20:09.000Z</time>
      </trkpt>
      <trkpt lat="44.07891" lon="6.99694">
        <ele>1413.4000244141</ele>
        <time>2022-08-20T08:20:14.000Z</time>
      </trkpt>
      <trkpt lat="44.07893" lon="6.99699">
        <ele>1413.8000488281</ele>
        <time>2022-08-20T08:20:16.000Z</time>
      </trkpt>
      <trkpt lat="44.07899" lon="6.9971">
        <ele>1414.4000244141</ele>
        <time>2022-08-20T08:20:20.000Z</time>
      </trkpt>
      <trkpt lat="44.07901" lon="6.99716">
        <ele>1415.5999755859</ele>
        <time>2022-08-20T08:20:23.000Z</time>
      </trkpt>
      <trkpt lat="44.07902" lon="6.99717">
        <ele>1416</ele>
        <time>2022-08-20T08:20:24.000Z</time>
      </trkpt>
      <trkpt lat="44.07904" lon="6.9972">
        <ele>1416.5999755859</ele>
        <time>2022-08-20T08:20:26.000Z</time>
      </trkpt>
      <trkpt lat="44.07909" lon="6.99727">
        <ele>1417.8000488281</ele>
        <time>2022-08-20T08:20:30.000Z</time>
      </trkpt>
      <trkpt lat="44.07911" lon="6.99729">
        <ele>1418</ele>
        <time>2022-08-20T08:20:31.000Z</time>
      </trkpt>
      <trkpt lat="44.07918" lon="6.99733">
        <ele>1419</ele>
        <time>2022-08-20T08:20:36.000Z</time>
      </trkpt>
      <trkpt lat="44.07919" lon="6.99734">
        <ele>1419.1999511719</ele>
        <time>2022-08-20T08:20:37.000Z</time>
      </trkpt>
      <trkpt lat="44.07923" lon="6.99737">
        <ele>1420</ele>
        <time>2022-08-20T08:20:40.000Z</time>
      </trkpt>
      <trkpt lat="44.07923" lon="6.99739">
        <ele>1420</ele>
        <time>2022-08-20T08:20:41.000Z</time>
      </trkpt>
      <trkpt lat="44.07923" lon="6.9974">
        <ele>1420.1999511719</ele>
        <time>2022-08-20T08:20:42.000Z</time>
      </trkpt>
      <trkpt lat="44.07916" lon="6.99741">
        <ele>1421.1999511719</ele>
        <time>2022-08-20T08:20:47.000Z</time>
      </trkpt>
      <trkpt lat="44.07909" lon="6.99736">
        <ele>1421.8000488281</ele>
        <time>2022-08-20T08:20:51.000Z</time>
      </trkpt>
      <trkpt lat="44.07902" lon="6.99731">
        <ele>1422</ele>
        <time>2022-08-20T08:20:55.000Z</time>
      </trkpt>
      <trkpt lat="44.07901" lon="6.9973">
        <ele>1422.1999511719</ele>
        <time>2022-08-20T08:20:56.000Z</time>
      </trkpt>
      <trkpt lat="44.07892" lon="6.99721">
        <ele>1423</ele>
        <time>2022-08-20T08:21:02.000Z</time>
      </trkpt>
      <trkpt lat="44.07889" lon="6.99718">
        <ele>1423.1999511719</ele>
        <time>2022-08-20T08:21:04.000Z</time>
      </trkpt>
      <trkpt lat="44.07879" lon="6.99707">
        <ele>1424</ele>
        <time>2022-08-20T08:21:10.000Z</time>
      </trkpt>
      <trkpt lat="44.07874" lon="6.99702">
        <ele>1424.1999511719</ele>
        <time>2022-08-20T08:21:13.000Z</time>
      </trkpt>
      <trkpt lat="44.07869" lon="6.99698">
        <ele>1424.8000488281</ele>
        <time>2022-08-20T08:21:16.000Z</time>
      </trkpt>
      <trkpt lat="44.07863" lon="6.99694">
        <ele>1425.4000244141</ele>
        <time>2022-08-20T08:21:19.000Z</time>
      </trkpt>
      <trkpt lat="44.07859" lon="6.99692">
        <ele>1425.5999755859</ele>
        <time>2022-08-20T08:21:21.000Z</time>
      </trkpt>
      <trkpt lat="44.07845" lon="6.99691">
        <ele>1426.1999511719</ele>
        <time>2022-08-20T08:21:28.000Z</time>
      </trkpt>
      <trkpt lat="44.07841" lon="6.99693">
        <ele>1426.4000244141</ele>
        <time>2022-08-20T08:21:30.000Z</time>
      </trkpt>
      <trkpt lat="44.07831" lon="6.99699">
        <ele>1427.4000244141</ele>
        <time>2022-08-20T08:21:35.000Z</time>
      </trkpt>
      <trkpt lat="44.07827" lon="6.99702">
        <ele>1427.5999755859</ele>
        <time>2022-08-20T08:21:37.000Z</time>
      </trkpt>
      <trkpt lat="44.07817" lon="6.99712">
        <ele>1428.5999755859</ele>
        <time>2022-08-20T08:21:43.000Z</time>
      </trkpt>
      <trkpt lat="44.07813" lon="6.99715">
        <ele>1428.8000488281</ele>
        <time>2022-08-20T08:21:45.000Z</time>
      </trkpt>
      <trkpt lat="44.07802" lon="6.9972">
        <ele>1429.1999511719</ele>
        <time>2022-08-20T08:21:50.000Z</time>
      </trkpt>
      <trkpt lat="44.07791" lon="6.9972">
        <ele>1429.4000244141</ele>
        <time>2022-08-20T08:21:56.000Z</time>
      </trkpt>
      <trkpt lat="44.07785" lon="6.99718">
        <ele>1429.8000488281</ele>
        <time>2022-08-20T08:21:59.000Z</time>
      </trkpt>
      <trkpt lat="44.07775" lon="6.99713">
        <ele>1429.8000488281</ele>
        <time>2022-08-20T08:22:04.000Z</time>
      </trkpt>
      <trkpt lat="44.07764" lon="6.99706">
        <ele>1430</ele>
        <time>2022-08-20T08:22:10.000Z</time>
      </trkpt>
      <trkpt lat="44.07748" lon="6.99696">
        <ele>1430.5999755859</ele>
        <time>2022-08-20T08:22:18.000Z</time>
      </trkpt>
      <trkpt lat="44.07744" lon="6.99694">
        <ele>1430.8000488281</ele>
        <time>2022-08-20T08:22:20.000Z</time>
      </trkpt>
      <trkpt lat="44.07738" lon="6.99692">
        <ele>1431.1999511719</ele>
        <time>2022-08-20T08:22:23.000Z</time>
      </trkpt>
      <trkpt lat="44.07726" lon="6.99686">
        <ele>1431.8000488281</ele>
        <time>2022-08-20T08:22:29.000Z</time>
      </trkpt>
      <trkpt lat="44.07724" lon="6.99685">
        <ele>1431.8000488281</ele>
        <time>2022-08-20T08:22:30.000Z</time>
      </trkpt>
      <trkpt lat="44.07709" lon="6.99678">
        <ele>1432.5999755859</ele>
        <time>2022-08-20T08:22:38.000Z</time>
      </trkpt>
      <trkpt lat="44.07703" lon="6.99675">
        <ele>1433</ele>
        <time>2022-08-20T08:22:41.000Z</time>
      </trkpt>
      <trkpt lat="44.07697" lon="6.99673">
        <ele>1433.1999511719</ele>
        <time>2022-08-20T08:22:44.000Z</time>
      </trkpt>
      <trkpt lat="44.07687" lon="6.99669">
        <ele>1434</ele>
        <time>2022-08-20T08:22:50.000Z</time>
      </trkpt>
      <trkpt lat="44.0768" lon="6.99669">
        <ele>1435</ele>
        <time>2022-08-20T08:22:55.000Z</time>
      </trkpt>
      <trkpt lat="44.0768" lon="6.99672">
        <ele>1435.1999511719</ele>
        <time>2022-08-20T08:22:56.000Z</time>
      </trkpt>
      <trkpt lat="44.07683" lon="6.99679">
        <ele>1435.8000488281</ele>
        <time>2022-08-20T08:22:59.000Z</time>
      </trkpt>
      <trkpt lat="44.07688" lon="6.99682">
        <ele>1436.1999511719</ele>
        <time>2022-08-20T08:23:02.000Z</time>
      </trkpt>
      <trkpt lat="44.07691" lon="6.99684">
        <ele>1436.5999755859</ele>
        <time>2022-08-20T08:23:04.000Z</time>
      </trkpt>
      <trkpt lat="44.07694" lon="6.99686">
        <ele>1437.1999511719</ele>
        <time>2022-08-20T08:23:06.000Z</time>
      </trkpt>
      <trkpt lat="44.07696" lon="6.99686">
        <ele>1437.4000244141</ele>
        <time>2022-08-20T08:23:07.000Z</time>
      </trkpt>
      <trkpt lat="44.077" lon="6.99689">
        <ele>1438</ele>
        <time>2022-08-20T08:23:09.000Z</time>
      </trkpt>
      <trkpt lat="44.07705" lon="6.99692">
        <ele>1438.5999755859</ele>
        <time>2022-08-20T08:23:12.000Z</time>
      </trkpt>
      <trkpt lat="44.07712" lon="6.99698">
        <ele>1439</ele>
        <time>2022-08-20T08:23:16.000Z</time>
      </trkpt>
      <trkpt lat="44.0772" lon="6.99707">
        <ele>1439.5999755859</ele>
        <time>2022-08-20T08:23:21.000Z</time>
      </trkpt>
      <trkpt lat="44.07721" lon="6.9971">
        <ele>1439.8000488281</ele>
        <time>2022-08-20T08:23:22.000Z</time>
      </trkpt>
      <trkpt lat="44.07722" lon="6.99712">
        <ele>1440</ele>
        <time>2022-08-20T08:23:23.000Z</time>
      </trkpt>
      <trkpt lat="44.07729" lon="6.99718">
        <ele>1440.5999755859</ele>
        <time>2022-08-20T08:23:27.000Z</time>
      </trkpt>
      <trkpt lat="44.07737" lon="6.99727">
        <ele>1441.1999511719</ele>
        <time>2022-08-20T08:23:32.000Z</time>
      </trkpt>
      <trkpt lat="44.07741" lon="6.99731">
        <ele>1441.4000244141</ele>
        <time>2022-08-20T08:23:34.000Z</time>
      </trkpt>
      <trkpt lat="44.07744" lon="6.99735">
        <ele>1441.8000488281</ele>
        <time>2022-08-20T08:23:36.000Z</time>
      </trkpt>
      <trkpt lat="44.07753" lon="6.99748">
        <ele>1443</ele>
        <time>2022-08-20T08:23:42.000Z</time>
      </trkpt>
      <trkpt lat="44.07755" lon="6.9975">
        <ele>1443.1999511719</ele>
        <time>2022-08-20T08:23:43.000Z</time>
      </trkpt>
      <trkpt lat="44.07762" lon="6.9976">
        <ele>1444.1999511719</ele>
        <time>2022-08-20T08:23:48.000Z</time>
      </trkpt>
      <trkpt lat="44.07767" lon="6.99766">
        <ele>1444.5999755859</ele>
        <time>2022-08-20T08:23:51.000Z</time>
      </trkpt>
      <trkpt lat="44.07776" lon="6.99775">
        <ele>1445.1999511719</ele>
        <time>2022-08-20T08:23:56.000Z</time>
      </trkpt>
      <trkpt lat="44.07781" lon="6.99781">
        <ele>1445.8000488281</ele>
        <time>2022-08-20T08:23:59.000Z</time>
      </trkpt>
      <trkpt lat="44.07785" lon="6.99784">
        <ele>1446.4000244141</ele>
        <time>2022-08-20T08:24:01.000Z</time>
      </trkpt>
      <trkpt lat="44.07798" lon="6.99791">
        <ele>1447.4000244141</ele>
        <time>2022-08-20T08:24:07.000Z</time>
      </trkpt>
      <trkpt lat="44.07816" lon="6.99794">
        <ele>1448.4000244141</ele>
        <time>2022-08-20T08:24:15.000Z</time>
      </trkpt>
      <trkpt lat="44.07821" lon="6.99793">
        <ele>1448.5999755859</ele>
        <time>2022-08-20T08:24:17.000Z</time>
      </trkpt>
      <trkpt lat="44.07836" lon="6.99787">
        <ele>1449.5999755859</ele>
        <time>2022-08-20T08:24:24.000Z</time>
      </trkpt>
      <trkpt lat="44.07838" lon="6.99785">
        <ele>1449.5999755859</ele>
        <time>2022-08-20T08:24:25.000Z</time>
      </trkpt>
      <trkpt lat="44.07854" lon="6.99783">
        <ele>1450.4000244141</ele>
        <time>2022-08-20T08:24:32.000Z</time>
      </trkpt>
      <trkpt lat="44.07856" lon="6.99784">
        <ele>1450.8000488281</ele>
        <time>2022-08-20T08:24:33.000Z</time>
      </trkpt>
      <trkpt lat="44.07869" lon="6.99796">
        <ele>1451.5999755859</ele>
        <time>2022-08-20T08:24:39.000Z</time>
      </trkpt>
      <trkpt lat="44.07871" lon="6.99798">
        <ele>1451.8000488281</ele>
        <time>2022-08-20T08:24:40.000Z</time>
      </trkpt>
      <trkpt lat="44.07884" lon="6.99809">
        <ele>1452.8000488281</ele>
        <time>2022-08-20T08:24:46.000Z</time>
      </trkpt>
      <trkpt lat="44.07887" lon="6.99811">
        <ele>1452.8000488281</ele>
        <time>2022-08-20T08:24:47.000Z</time>
      </trkpt>
      <trkpt lat="44.07901" lon="6.99821">
        <ele>1454</ele>
        <time>2022-08-20T08:24:53.000Z</time>
      </trkpt>
      <trkpt lat="44.07909" lon="6.99825">
        <ele>1454.4000244141</ele>
        <time>2022-08-20T08:24:56.000Z</time>
      </trkpt>
      <trkpt lat="44.0792" lon="6.99831">
        <ele>1455</ele>
        <time>2022-08-20T08:25:01.000Z</time>
      </trkpt>
      <trkpt lat="44.07924" lon="6.99834">
        <ele>1455</ele>
        <time>2022-08-20T08:25:03.000Z</time>
      </trkpt>
      <trkpt lat="44.07943" lon="6.99844">
        <ele>1456</ele>
        <time>2022-08-20T08:25:11.000Z</time>
      </trkpt>
      <trkpt lat="44.07945" lon="6.99845">
        <ele>1456</ele>
        <time>2022-08-20T08:25:12.000Z</time>
      </trkpt>
      <trkpt lat="44.07957" lon="6.99851">
        <ele>1457.1999511719</ele>
        <time>2022-08-20T08:25:17.000Z</time>
      </trkpt>
      <trkpt lat="44.07962" lon="6.99851">
        <ele>1457.4000244141</ele>
        <time>2022-08-20T08:25:19.000Z</time>
      </trkpt>
      <trkpt lat="44.07971" lon="6.99851">
        <ele>1458.1999511719</ele>
        <time>2022-08-20T08:25:23.000Z</time>
      </trkpt>
      <trkpt lat="44.07977" lon="6.99851">
        <ele>1458.5999755859</ele>
        <time>2022-08-20T08:25:25.000Z</time>
      </trkpt>
      <trkpt lat="44.07987" lon="6.9985">
        <ele>1459.1999511719</ele>
        <time>2022-08-20T08:25:29.000Z</time>
      </trkpt>
      <trkpt lat="44.07989" lon="6.99851">
        <ele>1459.1999511719</ele>
        <time>2022-08-20T08:25:30.000Z</time>
      </trkpt>
      <trkpt lat="44.08002" lon="6.99852">
        <ele>1460.4000244141</ele>
        <time>2022-08-20T08:25:36.000Z</time>
      </trkpt>
      <trkpt lat="44.08007" lon="6.99853">
        <ele>1461.5999755859</ele>
        <time>2022-08-20T08:25:41.000Z</time>
      </trkpt>
      <trkpt lat="44.08007" lon="6.99853">
        <ele>1462</ele>
        <time>2022-08-20T08:25:50.000Z</time>
      </trkpt>
      <trkpt lat="44.08007" lon="6.99854">
        <ele>1462.1999511719</ele>
        <time>2022-08-20T08:26:09.000Z</time>
      </trkpt>
      <trkpt lat="44.08008" lon="6.99853">
        <ele>1462</ele>
        <time>2022-08-20T08:26:27.000Z</time>
      </trkpt>
      <trkpt lat="44.08009" lon="6.99851">
        <ele>1462</ele>
        <time>2022-08-20T08:26:34.000Z</time>
      </trkpt>
      <trkpt lat="44.08016" lon="6.99847">
        <ele>1461.5999755859</ele>
        <time>2022-08-20T08:26:45.000Z</time>
      </trkpt>
      <trkpt lat="44.0802" lon="6.99846">
        <ele>1461.5999755859</ele>
        <time>2022-08-20T08:26:46.000Z</time>
      </trkpt>
      <trkpt lat="44.08038" lon="6.99844">
        <ele>1459.8000488281</ele>
        <time>2022-08-20T08:26:49.000Z</time>
      </trkpt>
      <trkpt lat="44.08049" lon="6.99844">
        <ele>1457.8000488281</ele>
        <time>2022-08-20T08:26:51.000Z</time>
      </trkpt>
      <trkpt lat="44.08059" lon="6.99845">
        <ele>1456.4000244141</ele>
        <time>2022-08-20T08:26:53.000Z</time>
      </trkpt>
      <trkpt lat="44.08064" lon="6.99845">
        <ele>1455.8000488281</ele>
        <time>2022-08-20T08:26:54.000Z</time>
      </trkpt>
      <trkpt lat="44.08068" lon="6.99848">
        <ele>1455</ele>
        <time>2022-08-20T08:26:55.000Z</time>
      </trkpt>
      <trkpt lat="44.08076" lon="6.99852">
        <ele>1453.4000244141</ele>
        <time>2022-08-20T08:26:57.000Z</time>
      </trkpt>
      <trkpt lat="44.0808" lon="6.99847">
        <ele>1451.5999755859</ele>
        <time>2022-08-20T08:26:59.000Z</time>
      </trkpt>
      <trkpt lat="44.0808" lon="6.99843">
        <ele>1451.4000244141</ele>
        <time>2022-08-20T08:27:00.000Z</time>
      </trkpt>
      <trkpt lat="44.08082" lon="6.9982">
        <ele>1450.8000488281</ele>
        <time>2022-08-20T08:27:04.000Z</time>
      </trkpt>
      <trkpt lat="44.08086" lon="6.99806">
        <ele>1450.5999755859</ele>
        <time>2022-08-20T08:27:08.000Z</time>
      </trkpt>
      <trkpt lat="44.08097" lon="6.99795">
        <ele>1451.4000244141</ele>
        <time>2022-08-20T08:27:12.000Z</time>
      </trkpt>
      <trkpt lat="44.08108" lon="6.99785">
        <ele>1451.1999511719</ele>
        <time>2022-08-20T08:27:15.000Z</time>
      </trkpt>
      <trkpt lat="44.08116" lon="6.99776">
        <ele>1450.8000488281</ele>
        <time>2022-08-20T08:27:17.000Z</time>
      </trkpt>
      <trkpt lat="44.08119" lon="6.99771">
        <ele>1450.4000244141</ele>
        <time>2022-08-20T08:27:18.000Z</time>
      </trkpt>
      <trkpt lat="44.08129" lon="6.99762">
        <ele>1449.5999755859</ele>
        <time>2022-08-20T08:27:20.000Z</time>
      </trkpt>
      <trkpt lat="44.08134" lon="6.99759">
        <ele>1449.1999511719</ele>
        <time>2022-08-20T08:27:21.000Z</time>
      </trkpt>
      <trkpt lat="44.08146" lon="6.99752">
        <ele>1447.8000488281</ele>
        <time>2022-08-20T08:27:23.000Z</time>
      </trkpt>
      <trkpt lat="44.08152" lon="6.99751">
        <ele>1447</ele>
        <time>2022-08-20T08:27:24.000Z</time>
      </trkpt>
      <trkpt lat="44.08158" lon="6.9975">
        <ele>1446.1999511719</ele>
        <time>2022-08-20T08:27:25.000Z</time>
      </trkpt>
      <trkpt lat="44.08164" lon="6.9975">
        <ele>1445</ele>
        <time>2022-08-20T08:27:26.000Z</time>
      </trkpt>
      <trkpt lat="44.08177" lon="6.99749">
        <ele>1445.5999755859</ele>
        <time>2022-08-20T08:27:28.000Z</time>
      </trkpt>
      <trkpt lat="44.08194" lon="6.99748">
        <ele>1443.5999755859</ele>
        <time>2022-08-20T08:27:30.000Z</time>
      </trkpt>
      <trkpt lat="44.08209" lon="6.99748">
        <ele>1442.5999755859</ele>
        <time>2022-08-20T08:27:32.000Z</time>
      </trkpt>
      <trkpt lat="44.08216" lon="6.99748">
        <ele>1441.8000488281</ele>
        <time>2022-08-20T08:27:33.000Z</time>
      </trkpt>
      <trkpt lat="44.08223" lon="6.99748">
        <ele>1441.4000244141</ele>
        <time>2022-08-20T08:27:34.000Z</time>
      </trkpt>
      <trkpt lat="44.0824" lon="6.9975">
        <ele>1439.4000244141</ele>
        <time>2022-08-20T08:27:36.000Z</time>
      </trkpt>
      <trkpt lat="44.08248" lon="6.9975">
        <ele>1438.8000488281</ele>
        <time>2022-08-20T08:27:37.000Z</time>
      </trkpt>
      <trkpt lat="44.08255" lon="6.9975">
        <ele>1437.8000488281</ele>
        <time>2022-08-20T08:27:38.000Z</time>
      </trkpt>
      <trkpt lat="44.08262" lon="6.99748">
        <ele>1436.4000244141</ele>
        <time>2022-08-20T08:27:39.000Z</time>
      </trkpt>
      <trkpt lat="44.08268" lon="6.99747">
        <ele>1435.1999511719</ele>
        <time>2022-08-20T08:27:40.000Z</time>
      </trkpt>
      <trkpt lat="44.08277" lon="6.99745">
        <ele>1433.8000488281</ele>
        <time>2022-08-20T08:27:41.000Z</time>
      </trkpt>
      <trkpt lat="44.08286" lon="6.99741">
        <ele>1432.1999511719</ele>
        <time>2022-08-20T08:27:42.000Z</time>
      </trkpt>
      <trkpt lat="44.08292" lon="6.99739">
        <ele>1431.1999511719</ele>
        <time>2022-08-20T08:27:43.000Z</time>
      </trkpt>
      <trkpt lat="44.08297" lon="6.99737">
        <ele>1429.5999755859</ele>
        <time>2022-08-20T08:27:44.000Z</time>
      </trkpt>
      <trkpt lat="44.08303" lon="6.99734">
        <ele>1428.8000488281</ele>
        <time>2022-08-20T08:27:45.000Z</time>
      </trkpt>
      <trkpt lat="44.08308" lon="6.99731">
        <ele>1427.8000488281</ele>
        <time>2022-08-20T08:27:46.000Z</time>
      </trkpt>
      <trkpt lat="44.0832" lon="6.99724">
        <ele>1426.8000488281</ele>
        <time>2022-08-20T08:27:48.000Z</time>
      </trkpt>
      <trkpt lat="44.08332" lon="6.9972">
        <ele>1425.1999511719</ele>
        <time>2022-08-20T08:27:50.000Z</time>
      </trkpt>
      <trkpt lat="44.08338" lon="6.9972">
        <ele>1424</ele>
        <time>2022-08-20T08:27:51.000Z</time>
      </trkpt>
      <trkpt lat="44.08343" lon="6.99723">
        <ele>1423.4000244141</ele>
        <time>2022-08-20T08:27:52.000Z</time>
      </trkpt>
      <trkpt lat="44.08346" lon="6.99727">
        <ele>1421.8000488281</ele>
        <time>2022-08-20T08:27:53.000Z</time>
      </trkpt>
      <trkpt lat="44.0835" lon="6.99731">
        <ele>1420.5999755859</ele>
        <time>2022-08-20T08:27:54.000Z</time>
      </trkpt>
      <trkpt lat="44.08354" lon="6.99735">
        <ele>1419.8000488281</ele>
        <time>2022-08-20T08:27:55.000Z</time>
      </trkpt>
      <trkpt lat="44.08359" lon="6.99742">
        <ele>1418.5999755859</ele>
        <time>2022-08-20T08:27:56.000Z</time>
      </trkpt>
      <trkpt lat="44.08369" lon="6.99755">
        <ele>1416.8000488281</ele>
        <time>2022-08-20T08:27:58.000Z</time>
      </trkpt>
      <trkpt lat="44.08376" lon="6.99764">
        <ele>1415.8000488281</ele>
        <time>2022-08-20T08:27:59.000Z</time>
      </trkpt>
      <trkpt lat="44.08382" lon="6.99772">
        <ele>1413.8000488281</ele>
        <time>2022-08-20T08:28:00.000Z</time>
      </trkpt>
      <trkpt lat="44.08388" lon="6.99778">
        <ele>1412.1999511719</ele>
        <time>2022-08-20T08:28:01.000Z</time>
      </trkpt>
      <trkpt lat="44.08395" lon="6.99786">
        <ele>1410</ele>
        <time>2022-08-20T08:28:02.000Z</time>
      </trkpt>
      <trkpt lat="44.08401" lon="6.99793">
        <ele>1408</ele>
        <time>2022-08-20T08:28:03.000Z</time>
      </trkpt>
      <trkpt lat="44.08408" lon="6.99801">
        <ele>1406</ele>
        <time>2022-08-20T08:28:04.000Z</time>
      </trkpt>
      <trkpt lat="44.08417" lon="6.99808">
        <ele>1404</ele>
        <time>2022-08-20T08:28:05.000Z</time>
      </trkpt>
      <trkpt lat="44.08425" lon="6.99815">
        <ele>1401.5999755859</ele>
        <time>2022-08-20T08:28:06.000Z</time>
      </trkpt>
      <trkpt lat="44.08433" lon="6.99822">
        <ele>1399.5999755859</ele>
        <time>2022-08-20T08:28:07.000Z</time>
      </trkpt>
      <trkpt lat="44.08441" lon="6.99827">
        <ele>1397.8000488281</ele>
        <time>2022-08-20T08:28:08.000Z</time>
      </trkpt>
      <trkpt lat="44.08448" lon="6.99833">
        <ele>1396.1999511719</ele>
        <time>2022-08-20T08:28:09.000Z</time>
      </trkpt>
      <trkpt lat="44.08455" lon="6.99839">
        <ele>1395</ele>
        <time>2022-08-20T08:28:10.000Z</time>
      </trkpt>
      <trkpt lat="44.08462" lon="6.99847">
        <ele>1393.8000488281</ele>
        <time>2022-08-20T08:28:11.000Z</time>
      </trkpt>
      <trkpt lat="44.08468" lon="6.99855">
        <ele>1392.5999755859</ele>
        <time>2022-08-20T08:28:12.000Z</time>
      </trkpt>
      <trkpt lat="44.08473" lon="6.99861">
        <ele>1391.1999511719</ele>
        <time>2022-08-20T08:28:13.000Z</time>
      </trkpt>
      <trkpt lat="44.08478" lon="6.99865">
        <ele>1390</ele>
        <time>2022-08-20T08:28:14.000Z</time>
      </trkpt>
      <trkpt lat="44.08482" lon="6.99864">
        <ele>1388.8000488281</ele>
        <time>2022-08-20T08:28:15.000Z</time>
      </trkpt>
      <trkpt lat="44.08489" lon="6.99852">
        <ele>1387.5999755859</ele>
        <time>2022-08-20T08:28:18.000Z</time>
      </trkpt>
      <trkpt lat="44.08496" lon="6.99844">
        <ele>1386.4000244141</ele>
        <time>2022-08-20T08:28:20.000Z</time>
      </trkpt>
      <trkpt lat="44.08503" lon="6.9984">
        <ele>1386.1999511719</ele>
        <time>2022-08-20T08:28:22.000Z</time>
      </trkpt>
      <trkpt lat="44.08519" lon="6.99839">
        <ele>1385.8000488281</ele>
        <time>2022-08-20T08:28:26.000Z</time>
      </trkpt>
      <trkpt lat="44.08526" lon="6.99839">
        <ele>1385</ele>
        <time>2022-08-20T08:28:28.000Z</time>
      </trkpt>
      <trkpt lat="44.08537" lon="6.99838">
        <ele>1383.8000488281</ele>
        <time>2022-08-20T08:28:31.000Z</time>
      </trkpt>
      <trkpt lat="44.08548" lon="6.99836">
        <ele>1384.1999511719</ele>
        <time>2022-08-20T08:28:36.000Z</time>
      </trkpt>
      <trkpt lat="44.08552" lon="6.99828">
        <ele>1385</ele>
        <time>2022-08-20T08:28:39.000Z</time>
      </trkpt>
      <trkpt lat="44.08555" lon="6.99822">
        <ele>1385.8000488281</ele>
        <time>2022-08-20T08:28:41.000Z</time>
      </trkpt>
      <trkpt lat="44.08556" lon="6.99819">
        <ele>1386</ele>
        <time>2022-08-20T08:28:42.000Z</time>
      </trkpt>
      <trkpt lat="44.0856" lon="6.99811">
        <ele>1387.4000244141</ele>
        <time>2022-08-20T08:28:45.000Z</time>
      </trkpt>
      <trkpt lat="44.08563" lon="6.99806">
        <ele>1388.4000244141</ele>
        <time>2022-08-20T08:28:47.000Z</time>
      </trkpt>
      <trkpt lat="44.08564" lon="6.99804">
        <ele>1388.8000488281</ele>
        <time>2022-08-20T08:28:48.000Z</time>
      </trkpt>
      <trkpt lat="44.08566" lon="6.99799">
        <ele>1390</ele>
        <time>2022-08-20T08:28:50.000Z</time>
      </trkpt>
      <trkpt lat="44.08569" lon="6.99792">
        <ele>1391</ele>
        <time>2022-08-20T08:28:53.000Z</time>
      </trkpt>
      <trkpt lat="44.08572" lon="6.99788">
        <ele>1392</ele>
        <time>2022-08-20T08:28:55.000Z</time>
      </trkpt>
      <trkpt lat="44.08575" lon="6.99782">
        <ele>1393.4000244141</ele>
        <time>2022-08-20T08:28:58.000Z</time>
      </trkpt>
      <trkpt lat="44.08576" lon="6.99777">
        <ele>1394.8000488281</ele>
        <time>2022-08-20T08:29:00.000Z</time>
      </trkpt>
      <trkpt lat="44.08577" lon="6.99773">
        <ele>1395.8000488281</ele>
        <time>2022-08-20T08:29:02.000Z</time>
      </trkpt>
      <trkpt lat="44.08578" lon="6.99768">
        <ele>1397</ele>
        <time>2022-08-20T08:29:04.000Z</time>
      </trkpt>
      <trkpt lat="44.08579" lon="6.99764">
        <ele>1398.1999511719</ele>
        <time>2022-08-20T08:29:06.000Z</time>
      </trkpt>
      <trkpt lat="44.08581" lon="6.99761">
        <ele>1399.4000244141</ele>
        <time>2022-08-20T08:29:08.000Z</time>
      </trkpt>
      <trkpt lat="44.08584" lon="6.99758">
        <ele>1400.5999755859</ele>
        <time>2022-08-20T08:29:11.000Z</time>
      </trkpt>
      <trkpt lat="44.08585" lon="6.99755">
        <ele>1401.1999511719</ele>
        <time>2022-08-20T08:29:13.000Z</time>
      </trkpt>
      <trkpt lat="44.08587" lon="6.99753">
        <ele>1402</ele>
        <time>2022-08-20T08:29:16.000Z</time>
      </trkpt>
      <trkpt lat="44.08587" lon="6.99753">
        <ele>1402.4000244141</ele>
        <time>2022-08-20T08:29:17.000Z</time>
      </trkpt>
      <trkpt lat="44.08587" lon="6.99753">
        <ele>1403</ele>
        <time>2022-08-20T08:29:23.000Z</time>
      </trkpt>
      <trkpt lat="44.08587" lon="6.99753">
        <ele>1403.1999511719</ele>
        <time>2022-08-20T08:29:35.000Z</time>
      </trkpt>
      <trkpt lat="44.08587" lon="6.99753">
        <ele>1403</ele>
        <time>2022-08-20T08:30:05.000Z</time>
      </trkpt>
      <trkpt lat="44.08588" lon="6.99754">
        <ele>1403.1999511719</ele>
        <time>2022-08-20T08:30:18.000Z</time>
      </trkpt>
      <trkpt lat="44.08589" lon="6.99756">
        <ele>1403.4000244141</ele>
        <time>2022-08-20T08:30:19.000Z</time>
      </trkpt>
      <trkpt lat="44.08595" lon="6.99771">
        <ele>1404.1999511719</ele>
        <time>2022-08-20T08:30:25.000Z</time>
      </trkpt>
      <trkpt lat="44.08599" lon="6.99778">
        <ele>1405.4000244141</ele>
        <time>2022-08-20T08:30:28.000Z</time>
      </trkpt>
      <trkpt lat="44.08602" lon="6.99786">
        <ele>1406.8000488281</ele>
        <time>2022-08-20T08:30:31.000Z</time>
      </trkpt>
      <trkpt lat="44.08604" lon="6.9979">
        <ele>1407.8000488281</ele>
        <time>2022-08-20T08:30:33.000Z</time>
      </trkpt>
      <trkpt lat="44.08605" lon="6.99793">
        <ele>1408.1999511719</ele>
        <time>2022-08-20T08:30:34.000Z</time>
      </trkpt>
      <trkpt lat="44.08607" lon="6.99797">
        <ele>1409.1999511719</ele>
        <time>2022-08-20T08:30:36.000Z</time>
      </trkpt>
      <trkpt lat="44.0861" lon="6.99804">
        <ele>1410.4000244141</ele>
        <time>2022-08-20T08:30:39.000Z</time>
      </trkpt>
      <trkpt lat="44.08611" lon="6.99806">
        <ele>1410.5999755859</ele>
        <time>2022-08-20T08:30:40.000Z</time>
      </trkpt>
      <trkpt lat="44.08614" lon="6.99813">
        <ele>1411.5999755859</ele>
        <time>2022-08-20T08:30:43.000Z</time>
      </trkpt>
      <trkpt lat="44.08617" lon="6.9982">
        <ele>1412.5999755859</ele>
        <time>2022-08-20T08:30:46.000Z</time>
      </trkpt>
      <trkpt lat="44.08619" lon="6.99824">
        <ele>1413.5999755859</ele>
        <time>2022-08-20T08:30:48.000Z</time>
      </trkpt>
      <trkpt lat="44.0862" lon="6.99826">
        <ele>1413.8000488281</ele>
        <time>2022-08-20T08:30:49.000Z</time>
      </trkpt>
      <trkpt lat="44.08623" lon="6.99832">
        <ele>1415</ele>
        <time>2022-08-20T08:30:52.000Z</time>
      </trkpt>
      <trkpt lat="44.08626" lon="6.99839">
        <ele>1416</ele>
        <time>2022-08-20T08:30:55.000Z</time>
      </trkpt>
      <trkpt lat="44.08628" lon="6.99846">
        <ele>1417</ele>
        <time>2022-08-20T08:30:58.000Z</time>
      </trkpt>
      <trkpt lat="44.08629" lon="6.99848">
        <ele>1417.4000244141</ele>
        <time>2022-08-20T08:30:59.000Z</time>
      </trkpt>
      <trkpt lat="44.0863" lon="6.99856">
        <ele>1418.5999755859</ele>
        <time>2022-08-20T08:31:02.000Z</time>
      </trkpt>
      <trkpt lat="44.0863" lon="6.99863">
        <ele>1419.4000244141</ele>
        <time>2022-08-20T08:31:05.000Z</time>
      </trkpt>
      <trkpt lat="44.08631" lon="6.99865">
        <ele>1420</ele>
        <time>2022-08-20T08:31:06.000Z</time>
      </trkpt>
      <trkpt lat="44.08631" lon="6.99868">
        <ele>1421</ele>
        <time>2022-08-20T08:31:10.000Z</time>
      </trkpt>
      <trkpt lat="44.0863" lon="6.99868">
        <ele>1421.4000244141</ele>
        <time>2022-08-20T08:31:22.000Z</time>
      </trkpt>
      <trkpt lat="44.0863" lon="6.99868">
        <ele>1421.5999755859</ele>
        <time>2022-08-20T08:31:25.000Z</time>
      </trkpt>
      <trkpt lat="44.0863" lon="6.99868">
        <ele>1421.5999755859</ele>
        <time>2022-08-20T08:31:26.000Z</time>
      </trkpt>
      <trkpt lat="44.08628" lon="6.99866">
        <ele>1421.1999511719</ele>
        <time>2022-08-20T08:31:30.000Z</time>
      </trkpt>
      <trkpt lat="44.08628" lon="6.99864">
        <ele>1421.1999511719</ele>
        <time>2022-08-20T08:31:37.000Z</time>
      </trkpt>
      <trkpt lat="44.08628" lon="6.9986">
        <ele>1421.1999511719</ele>
        <time>2022-08-20T08:31:45.000Z</time>
      </trkpt>
      <trkpt lat="44.08628" lon="6.99856">
        <ele>1420.1999511719</ele>
        <time>2022-08-20T08:31:52.000Z</time>
      </trkpt>
      <trkpt lat="44.08627" lon="6.99856">
        <ele>1420</ele>
        <time>2022-08-20T08:31:56.000Z</time>
      </trkpt>
      <trkpt lat="44.08628" lon="6.99857">
        <ele>1420</ele>
        <time>2022-08-20T08:32:00.000Z</time>
      </trkpt>
      <trkpt lat="44.0863" lon="6.99858">
        <ele>1420.5999755859</ele>
        <time>2022-08-20T08:32:07.000Z</time>
      </trkpt>
      <trkpt lat="44.0863" lon="6.99859">
        <ele>1420.5999755859</ele>
        <time>2022-08-20T08:32:08.000Z</time>
      </trkpt>
      <trkpt lat="44.0863" lon="6.99857">
        <ele>1420.4000244141</ele>
        <time>2022-08-20T08:32:12.000Z</time>
      </trkpt>
      <trkpt lat="44.0863" lon="6.99859">
        <ele>1420.5999755859</ele>
        <time>2022-08-20T08:32:18.000Z</time>
      </trkpt>
      <trkpt lat="44.08634" lon="6.99872">
        <ele>1421</ele>
        <time>2022-08-20T08:32:23.000Z</time>
      </trkpt>
      <trkpt lat="44.08637" lon="6.9988">
        <ele>1422.4000244141</ele>
        <time>2022-08-20T08:32:26.000Z</time>
      </trkpt>
      <trkpt lat="44.0864" lon="6.99888">
        <ele>1423.8000488281</ele>
        <time>2022-08-20T08:32:29.000Z</time>
      </trkpt>
      <trkpt lat="44.0864" lon="6.99891">
        <ele>1424.1999511719</ele>
        <time>2022-08-20T08:32:30.000Z</time>
      </trkpt>
      <trkpt lat="44.08642" lon="6.99896">
        <ele>1425.1999511719</ele>
        <time>2022-08-20T08:32:32.000Z</time>
      </trkpt>
      <trkpt lat="44.08644" lon="6.99902">
        <ele>1426.1999511719</ele>
        <time>2022-08-20T08:32:34.000Z</time>
      </trkpt>
      <trkpt lat="44.08645" lon="6.99908">
        <ele>1427.5999755859</ele>
        <time>2022-08-20T08:32:36.000Z</time>
      </trkpt>
      <trkpt lat="44.08645" lon="6.99911">
        <ele>1428.1999511719</ele>
        <time>2022-08-20T08:32:37.000Z</time>
      </trkpt>
      <trkpt lat="44.08644" lon="6.99914">
        <ele>1428.5999755859</ele>
        <time>2022-08-20T08:32:38.000Z</time>
      </trkpt>
      <trkpt lat="44.08644" lon="6.99919">
        <ele>1429.8000488281</ele>
        <time>2022-08-20T08:32:40.000Z</time>
      </trkpt>
      <trkpt lat="44.08644" lon="6.99927">
        <ele>1431.1999511719</ele>
        <time>2022-08-20T08:32:43.000Z</time>
      </trkpt>
      <trkpt lat="44.08644" lon="6.99931">
        <ele>1431.4000244141</ele>
        <time>2022-08-20T08:32:44.000Z</time>
      </trkpt>
      <trkpt lat="44.08643" lon="6.99937">
        <ele>1432.1999511719</ele>
        <time>2022-08-20T08:32:47.000Z</time>
      </trkpt>
      <trkpt lat="44.08645" lon="6.99938">
        <ele>1432.8000488281</ele>
        <time>2022-08-20T08:32:50.000Z</time>
      </trkpt>
      <trkpt lat="44.08646" lon="6.99938">
        <ele>1432.8000488281</ele>
        <time>2022-08-20T08:32:51.000Z</time>
      </trkpt>
      <trkpt lat="44.08648" lon="6.99934">
        <ele>1433.4000244141</ele>
        <time>2022-08-20T08:32:53.000Z</time>
      </trkpt>
      <trkpt lat="44.08652" lon="6.99931">
        <ele>1434.1999511719</ele>
        <time>2022-08-20T08:32:55.000Z</time>
      </trkpt>
      <trkpt lat="44.08654" lon="6.9993">
        <ele>1434.5999755859</ele>
        <time>2022-08-20T08:32:56.000Z</time>
      </trkpt>
      <trkpt lat="44.08658" lon="6.9993">
        <ele>1435.5999755859</ele>
        <time>2022-08-20T08:32:58.000Z</time>
      </trkpt>
      <trkpt lat="44.08664" lon="6.99929">
        <ele>1437</ele>
        <time>2022-08-20T08:33:01.000Z</time>
      </trkpt>
      <trkpt lat="44.08665" lon="6.99929">
        <ele>1437.4000244141</ele>
        <time>2022-08-20T08:33:02.000Z</time>
      </trkpt>
      <trkpt lat="44.08667" lon="6.99929">
        <ele>1437.8000488281</ele>
        <time>2022-08-20T08:33:03.000Z</time>
      </trkpt>
      <trkpt lat="44.08667" lon="6.9993">
        <ele>1438.4000244141</ele>
        <time>2022-08-20T08:33:04.000Z</time>
      </trkpt>
      <trkpt lat="44.08668" lon="6.9993">
        <ele>1439</ele>
        <time>2022-08-20T08:33:06.000Z</time>
      </trkpt>
      <trkpt lat="44.08668" lon="6.99931">
        <ele>1439.4000244141</ele>
        <time>2022-08-20T08:33:09.000Z</time>
      </trkpt>
      <trkpt lat="44.08667" lon="6.99933">
        <ele>1439.1999511719</ele>
        <time>2022-08-20T08:33:12.000Z</time>
      </trkpt>
      <trkpt lat="44.08661" lon="6.99935">
        <ele>1439.5999755859</ele>
        <time>2022-08-20T08:33:17.000Z</time>
      </trkpt>
      <trkpt lat="44.08657" lon="6.99944">
        <ele>1440.5999755859</ele>
        <time>2022-08-20T08:33:21.000Z</time>
      </trkpt>
      <trkpt lat="44.08656" lon="6.99946">
        <ele>1440.8000488281</ele>
        <time>2022-08-20T08:33:22.000Z</time>
      </trkpt>
      <trkpt lat="44.08656" lon="6.99948">
        <ele>1440.8000488281</ele>
        <time>2022-08-20T08:33:23.000Z</time>
      </trkpt>
      <trkpt lat="44.08656" lon="6.99956">
        <ele>1441.5999755859</ele>
        <time>2022-08-20T08:33:26.000Z</time>
      </trkpt>
      <trkpt lat="44.08656" lon="6.99959">
        <ele>1442</ele>
        <time>2022-08-20T08:33:27.000Z</time>
      </trkpt>
      <trkpt lat="44.08656" lon="6.99961">
        <ele>1442.1999511719</ele>
        <time>2022-08-20T08:33:28.000Z</time>
      </trkpt>
      <trkpt lat="44.08656" lon="6.99967">
        <ele>1442.8000488281</ele>
        <time>2022-08-20T08:33:30.000Z</time>
      </trkpt>
      <trkpt lat="44.08655" lon="6.99977">
        <ele>1444.1999511719</ele>
        <time>2022-08-20T08:33:34.000Z</time>
      </trkpt>
      <trkpt lat="44.08656" lon="6.99979">
        <ele>1445.4000244141</ele>
        <time>2022-08-20T08:33:38.000Z</time>
      </trkpt>
      <trkpt lat="44.08663" lon="6.99971">
        <ele>1446.5999755859</ele>
        <time>2022-08-20T08:33:43.000Z</time>
      </trkpt>
      <trkpt lat="44.08668" lon="6.99968">
        <ele>1447.8000488281</ele>
        <time>2022-08-20T08:33:46.000Z</time>
      </trkpt>
      <trkpt lat="44.0867" lon="6.9997">
        <ele>1448.5999755859</ele>
        <time>2022-08-20T08:33:48.000Z</time>
      </trkpt>
      <trkpt lat="44.08671" lon="6.9997">
        <ele>1449</ele>
        <time>2022-08-20T08:33:49.000Z</time>
      </trkpt>
      <trkpt lat="44.08671" lon="6.9997">
        <ele>1449.8000488281</ele>
        <time>2022-08-20T08:33:52.000Z</time>
      </trkpt>
      <trkpt lat="44.08673" lon="6.9997">
        <ele>1450.1999511719</ele>
        <time>2022-08-20T08:33:57.000Z</time>
      </trkpt>
      <trkpt lat="44.08676" lon="6.99971">
        <ele>1450.4000244141</ele>
        <time>2022-08-20T08:34:01.000Z</time>
      </trkpt>
      <trkpt lat="44.08677" lon="6.99971">
        <ele>1450.8000488281</ele>
        <time>2022-08-20T08:34:03.000Z</time>
      </trkpt>
      <trkpt lat="44.08677" lon="6.99971">
        <ele>1451.1999511719</ele>
        <time>2022-08-20T08:34:05.000Z</time>
      </trkpt>
      <trkpt lat="44.08676" lon="6.99972">
        <ele>1451.1999511719</ele>
        <time>2022-08-20T08:34:09.000Z</time>
      </trkpt>
      <trkpt lat="44.08675" lon="6.99973">
        <ele>1451</ele>
        <time>2022-08-20T08:34:10.000Z</time>
      </trkpt>
      <trkpt lat="44.08668" lon="6.99981">
        <ele>1451</ele>
        <time>2022-08-20T08:34:15.000Z</time>
      </trkpt>
      <trkpt lat="44.08668" lon="6.99986">
        <ele>1451.5999755859</ele>
        <time>2022-08-20T08:34:17.000Z</time>
      </trkpt>
      <trkpt lat="44.08666" lon="6.99994">
        <ele>1452.1999511719</ele>
        <time>2022-08-20T08:34:20.000Z</time>
      </trkpt>
      <trkpt lat="44.08665" lon="7.00003">
        <ele>1453</ele>
        <time>2022-08-20T08:34:23.000Z</time>
      </trkpt>
      <trkpt lat="44.08665" lon="7.00006">
        <ele>1453.1999511719</ele>
        <time>2022-08-20T08:34:24.000Z</time>
      </trkpt>
      <trkpt lat="44.08666" lon="7.0001">
        <ele>1454</ele>
        <time>2022-08-20T08:34:26.000Z</time>
      </trkpt>
      <trkpt lat="44.08667" lon="7.0001">
        <ele>1454.5999755859</ele>
        <time>2022-08-20T08:34:27.000Z</time>
      </trkpt>
      <trkpt lat="44.08667" lon="7.0001">
        <ele>1455.1999511719</ele>
        <time>2022-08-20T08:34:28.000Z</time>
      </trkpt>
      <trkpt lat="44.08668" lon="7.00008">
        <ele>1455.8000488281</ele>
        <time>2022-08-20T08:34:30.000Z</time>
      </trkpt>
      <trkpt lat="44.0867" lon="7.00002">
        <ele>1456.1999511719</ele>
        <time>2022-08-20T08:34:33.000Z</time>
      </trkpt>
      <trkpt lat="44.08676" lon="6.99996">
        <ele>1456.8000488281</ele>
        <time>2022-08-20T08:34:36.000Z</time>
      </trkpt>
      <trkpt lat="44.08678" lon="6.99996">
        <ele>1457</ele>
        <time>2022-08-20T08:34:37.000Z</time>
      </trkpt>
      <trkpt lat="44.08681" lon="6.99997">
        <ele>1457.8000488281</ele>
        <time>2022-08-20T08:34:39.000Z</time>
      </trkpt>
      <trkpt lat="44.08682" lon="6.99997">
        <ele>1458.1999511719</ele>
        <time>2022-08-20T08:34:40.000Z</time>
      </trkpt>
      <trkpt lat="44.08682" lon="7">
        <ele>1458.8000488281</ele>
        <time>2022-08-20T08:34:42.000Z</time>
      </trkpt>
      <trkpt lat="44.08677" lon="7.00007">
        <ele>1459.8000488281</ele>
        <time>2022-08-20T08:34:47.000Z</time>
      </trkpt>
      <trkpt lat="44.08677" lon="7.00008">
        <ele>1460</ele>
        <time>2022-08-20T08:34:48.000Z</time>
      </trkpt>
      <trkpt lat="44.08678" lon="7.00009">
        <ele>1460</ele>
        <time>2022-08-20T08:34:49.000Z</time>
      </trkpt>
      <trkpt lat="44.08683" lon="7.00009">
        <ele>1461.1999511719</ele>
        <time>2022-08-20T08:34:53.000Z</time>
      </trkpt>
      <trkpt lat="44.08685" lon="7.00013">
        <ele>1462</ele>
        <time>2022-08-20T08:34:56.000Z</time>
      </trkpt>
      <trkpt lat="44.08684" lon="7.00015">
        <ele>1462.1999511719</ele>
        <time>2022-08-20T08:34:57.000Z</time>
      </trkpt>
      <trkpt lat="44.08681" lon="7.00018">
        <ele>1462.5999755859</ele>
        <time>2022-08-20T08:35:00.000Z</time>
      </trkpt>
      <trkpt lat="44.0868" lon="7.00024">
        <ele>1463.1999511719</ele>
        <time>2022-08-20T08:35:03.000Z</time>
      </trkpt>
      <trkpt lat="44.0868" lon="7.00027">
        <ele>1463.4000244141</ele>
        <time>2022-08-20T08:35:04.000Z</time>
      </trkpt>
      <trkpt lat="44.0868" lon="7.00032">
        <ele>1464.1999511719</ele>
        <time>2022-08-20T08:35:06.000Z</time>
      </trkpt>
      <trkpt lat="44.0868" lon="7.00034">
        <ele>1464.5999755859</ele>
        <time>2022-08-20T08:35:07.000Z</time>
      </trkpt>
      <trkpt lat="44.08679" lon="7.00036">
        <ele>1465.8000488281</ele>
        <time>2022-08-20T08:35:10.000Z</time>
      </trkpt>
      <trkpt lat="44.08678" lon="7.00052">
        <ele>1467</ele>
        <time>2022-08-20T08:35:16.000Z</time>
      </trkpt>
      <trkpt lat="44.08679" lon="7.0006">
        <ele>1468.1999511719</ele>
        <time>2022-08-20T08:35:19.000Z</time>
      </trkpt>
      <trkpt lat="44.08679" lon="7.00068">
        <ele>1469.8000488281</ele>
        <time>2022-08-20T08:35:22.000Z</time>
      </trkpt>
      <trkpt lat="44.08679" lon="7.00079">
        <ele>1471</ele>
        <time>2022-08-20T08:35:26.000Z</time>
      </trkpt>
      <trkpt lat="44.0868" lon="7.0009">
        <ele>1472.5999755859</ele>
        <time>2022-08-20T08:35:30.000Z</time>
      </trkpt>
      <trkpt lat="44.0868" lon="7.00099">
        <ele>1473.8000488281</ele>
        <time>2022-08-20T08:35:33.000Z</time>
      </trkpt>
      <trkpt lat="44.0868" lon="7.00109">
        <ele>1475.4000244141</ele>
        <time>2022-08-20T08:35:36.000Z</time>
      </trkpt>
      <trkpt lat="44.0868" lon="7.00111">
        <ele>1475.8000488281</ele>
        <time>2022-08-20T08:35:37.000Z</time>
      </trkpt>
      <trkpt lat="44.08679" lon="7.00114">
        <ele>1476.4000244141</ele>
        <time>2022-08-20T08:35:38.000Z</time>
      </trkpt>
      <trkpt lat="44.08678" lon="7.00116">
        <ele>1476.8000488281</ele>
        <time>2022-08-20T08:35:39.000Z</time>
      </trkpt>
      <trkpt lat="44.08675" lon="7.00123">
        <ele>1477.8000488281</ele>
        <time>2022-08-20T08:35:42.000Z</time>
      </trkpt>
      <trkpt lat="44.08674" lon="7.00125">
        <ele>1478.4000244141</ele>
        <time>2022-08-20T08:35:43.000Z</time>
      </trkpt>
      <trkpt lat="44.08672" lon="7.0013">
        <ele>1479</ele>
        <time>2022-08-20T08:35:45.000Z</time>
      </trkpt>
      <trkpt lat="44.08671" lon="7.00135">
        <ele>1480</ele>
        <time>2022-08-20T08:35:48.000Z</time>
      </trkpt>
      <trkpt lat="44.08671" lon="7.00136">
        <ele>1480.1999511719</ele>
        <time>2022-08-20T08:35:49.000Z</time>
      </trkpt>
      <trkpt lat="44.08676" lon="7.00132">
        <ele>1481.1999511719</ele>
        <time>2022-08-20T08:35:53.000Z</time>
      </trkpt>
      <trkpt lat="44.08678" lon="7.00131">
        <ele>1481.4000244141</ele>
        <time>2022-08-20T08:35:54.000Z</time>
      </trkpt>
      <trkpt lat="44.08684" lon="7.00129">
        <ele>1482.1999511719</ele>
        <time>2022-08-20T08:35:57.000Z</time>
      </trkpt>
      <trkpt lat="44.08687" lon="7.00129">
        <ele>1482.5999755859</ele>
        <time>2022-08-20T08:35:59.000Z</time>
      </trkpt>
      <trkpt lat="44.08688" lon="7.0013">
        <ele>1483</ele>
        <time>2022-08-20T08:36:00.000Z</time>
      </trkpt>
      <trkpt lat="44.08688" lon="7.00135">
        <ele>1483.4000244141</ele>
        <time>2022-08-20T08:36:02.000Z</time>
      </trkpt>
      <trkpt lat="44.08686" lon="7.0014">
        <ele>1483.8000488281</ele>
        <time>2022-08-20T08:36:04.000Z</time>
      </trkpt>
      <trkpt lat="44.08684" lon="7.00141">
        <ele>1484.5999755859</ele>
        <time>2022-08-20T08:36:06.000Z</time>
      </trkpt>
      <trkpt lat="44.08683" lon="7.00142">
        <ele>1485</ele>
        <time>2022-08-20T08:36:07.000Z</time>
      </trkpt>
      <trkpt lat="44.08679" lon="7.00144">
        <ele>1485.8000488281</ele>
        <time>2022-08-20T08:36:09.000Z</time>
      </trkpt>
      <trkpt lat="44.08678" lon="7.00145">
        <ele>1486.1999511719</ele>
        <time>2022-08-20T08:36:10.000Z</time>
      </trkpt>
      <trkpt lat="44.08675" lon="7.00149">
        <ele>1486.4000244141</ele>
        <time>2022-08-20T08:36:12.000Z</time>
      </trkpt>
      <trkpt lat="44.08672" lon="7.00169">
        <ele>1487.5999755859</ele>
        <time>2022-08-20T08:36:19.000Z</time>
      </trkpt>
      <trkpt lat="44.0867" lon="7.00174">
        <ele>1488.5999755859</ele>
        <time>2022-08-20T08:36:21.000Z</time>
      </trkpt>
      <trkpt lat="44.08669" lon="7.00176">
        <ele>1489.1999511719</ele>
        <time>2022-08-20T08:36:22.000Z</time>
      </trkpt>
      <trkpt lat="44.08668" lon="7.00176">
        <ele>1489.5999755859</ele>
        <time>2022-08-20T08:36:23.000Z</time>
      </trkpt>
      <trkpt lat="44.08666" lon="7.0018">
        <ele>1490.4000244141</ele>
        <time>2022-08-20T08:36:25.000Z</time>
      </trkpt>
      <trkpt lat="44.08664" lon="7.00185">
        <ele>1491.1999511719</ele>
        <time>2022-08-20T08:36:28.000Z</time>
      </trkpt>
      <trkpt lat="44.08665" lon="7.00187">
        <ele>1491.4000244141</ele>
        <time>2022-08-20T08:36:30.000Z</time>
      </trkpt>
      <trkpt lat="44.08666" lon="7.00186">
        <ele>1492.1999511719</ele>
        <time>2022-08-20T08:36:33.000Z</time>
      </trkpt>
      <trkpt lat="44.08668" lon="7.00184">
        <ele>1492.5999755859</ele>
        <time>2022-08-20T08:36:35.000Z</time>
      </trkpt>
      <trkpt lat="44.08671" lon="7.00181">
        <ele>1493</ele>
        <time>2022-08-20T08:36:38.000Z</time>
      </trkpt>
      <trkpt lat="44.08677" lon="7.00179">
        <ele>1493.8000488281</ele>
        <time>2022-08-20T08:36:41.000Z</time>
      </trkpt>
      <trkpt lat="44.08681" lon="7.00179">
        <ele>1494.1999511719</ele>
        <time>2022-08-20T08:36:43.000Z</time>
      </trkpt>
      <trkpt lat="44.08684" lon="7.0018">
        <ele>1494.4000244141</ele>
        <time>2022-08-20T08:36:45.000Z</time>
      </trkpt>
      <trkpt lat="44.08683" lon="7.00183">
        <ele>1494.8000488281</ele>
        <time>2022-08-20T08:36:47.000Z</time>
      </trkpt>
      <trkpt lat="44.08682" lon="7.00184">
        <ele>1495</ele>
        <time>2022-08-20T08:36:48.000Z</time>
      </trkpt>
      <trkpt lat="44.08676" lon="7.00194">
        <ele>1496</ele>
        <time>2022-08-20T08:36:53.000Z</time>
      </trkpt>
      <trkpt lat="44.08668" lon="7.00204">
        <ele>1497.1999511719</ele>
        <time>2022-08-20T08:36:58.000Z</time>
      </trkpt>
      <trkpt lat="44.08664" lon="7.00219">
        <ele>1498.5999755859</ele>
        <time>2022-08-20T08:37:03.000Z</time>
      </trkpt>
      <trkpt lat="44.08663" lon="7.00222">
        <ele>1499</ele>
        <time>2022-08-20T08:37:04.000Z</time>
      </trkpt>
      <trkpt lat="44.08662" lon="7.00228">
        <ele>1500</ele>
        <time>2022-08-20T08:37:06.000Z</time>
      </trkpt>
      <trkpt lat="44.08661" lon="7.00234">
        <ele>1501</ele>
        <time>2022-08-20T08:37:08.000Z</time>
      </trkpt>
      <trkpt lat="44.08662" lon="7.00235">
        <ele>1501.4000244141</ele>
        <time>2022-08-20T08:37:09.000Z</time>
      </trkpt>
      <trkpt lat="44.08664" lon="7.00234">
        <ele>1502.5999755859</ele>
        <time>2022-08-20T08:37:11.000Z</time>
      </trkpt>
      <trkpt lat="44.08667" lon="7.00231">
        <ele>1503.5999755859</ele>
        <time>2022-08-20T08:37:13.000Z</time>
      </trkpt>
      <trkpt lat="44.08673" lon="7.00232">
        <ele>1504.8000488281</ele>
        <time>2022-08-20T08:37:16.000Z</time>
      </trkpt>
      <trkpt lat="44.08677" lon="7.00233">
        <ele>1505.4000244141</ele>
        <time>2022-08-20T08:37:18.000Z</time>
      </trkpt>
      <trkpt lat="44.08679" lon="7.00234">
        <ele>1505.8000488281</ele>
        <time>2022-08-20T08:37:19.000Z</time>
      </trkpt>
      <trkpt lat="44.08679" lon="7.00239">
        <ele>1506.4000244141</ele>
        <time>2022-08-20T08:37:21.000Z</time>
      </trkpt>
      <trkpt lat="44.08676" lon="7.00243">
        <ele>1507.1999511719</ele>
        <time>2022-08-20T08:37:23.000Z</time>
      </trkpt>
      <trkpt lat="44.08672" lon="7.00246">
        <ele>1508.4000244141</ele>
        <time>2022-08-20T08:37:25.000Z</time>
      </trkpt>
      <trkpt lat="44.08668" lon="7.00249">
        <ele>1509.4000244141</ele>
        <time>2022-08-20T08:37:27.000Z</time>
      </trkpt>
      <trkpt lat="44.08662" lon="7.00261">
        <ele>1509.8000488281</ele>
        <time>2022-08-20T08:37:32.000Z</time>
      </trkpt>
      <trkpt lat="44.08663" lon="7.00268">
        <ele>1510.5999755859</ele>
        <time>2022-08-20T08:37:35.000Z</time>
      </trkpt>
      <trkpt lat="44.08665" lon="7.00268">
        <ele>1511</ele>
        <time>2022-08-20T08:37:36.000Z</time>
      </trkpt>
      <trkpt lat="44.08666" lon="7.00267">
        <ele>1511.5999755859</ele>
        <time>2022-08-20T08:37:37.000Z</time>
      </trkpt>
      <trkpt lat="44.0867" lon="7.00266">
        <ele>1512.5999755859</ele>
        <time>2022-08-20T08:37:39.000Z</time>
      </trkpt>
      <trkpt lat="44.08671" lon="7.00266">
        <ele>1513</ele>
        <time>2022-08-20T08:37:40.000Z</time>
      </trkpt>
      <trkpt lat="44.08677" lon="7.00268">
        <ele>1514.1999511719</ele>
        <time>2022-08-20T08:37:43.000Z</time>
      </trkpt>
      <trkpt lat="44.08679" lon="7.00272">
        <ele>1515.1999511719</ele>
        <time>2022-08-20T08:37:45.000Z</time>
      </trkpt>
      <trkpt lat="44.08677" lon="7.00276">
        <ele>1516.4000244141</ele>
        <time>2022-08-20T08:37:48.000Z</time>
      </trkpt>
      <trkpt lat="44.08672" lon="7.00279">
        <ele>1517.5999755859</ele>
        <time>2022-08-20T08:37:53.000Z</time>
      </trkpt>
      <trkpt lat="44.08669" lon="7.00284">
        <ele>1518</ele>
        <time>2022-08-20T08:37:56.000Z</time>
      </trkpt>
      <trkpt lat="44.08669" lon="7.00288">
        <ele>1518.1999511719</ele>
        <time>2022-08-20T08:37:58.000Z</time>
      </trkpt>
      <trkpt lat="44.08672" lon="7.0029">
        <ele>1518.5999755859</ele>
        <time>2022-08-20T08:38:00.000Z</time>
      </trkpt>
      <trkpt lat="44.08676" lon="7.00291">
        <ele>1519.4000244141</ele>
        <time>2022-08-20T08:38:02.000Z</time>
      </trkpt>
      <trkpt lat="44.08678" lon="7.00292">
        <ele>1520</ele>
        <time>2022-08-20T08:38:03.000Z</time>
      </trkpt>
      <trkpt lat="44.0868" lon="7.00293">
        <ele>1520.4000244141</ele>
        <time>2022-08-20T08:38:04.000Z</time>
      </trkpt>
      <trkpt lat="44.08683" lon="7.00296">
        <ele>1521.1999511719</ele>
        <time>2022-08-20T08:38:06.000Z</time>
      </trkpt>
      <trkpt lat="44.08683" lon="7.00298">
        <ele>1521.5999755859</ele>
        <time>2022-08-20T08:38:07.000Z</time>
      </trkpt>
      <trkpt lat="44.08684" lon="7.00301">
        <ele>1521.8000488281</ele>
        <time>2022-08-20T08:38:08.000Z</time>
      </trkpt>
      <trkpt lat="44.08684" lon="7.003">
        <ele>1522.4000244141</ele>
        <time>2022-08-20T08:38:09.000Z</time>
      </trkpt>
      <trkpt lat="44.08684" lon="7.00302">
        <ele>1523.4000244141</ele>
        <time>2022-08-20T08:38:11.000Z</time>
      </trkpt>
      <trkpt lat="44.08684" lon="7.00302">
        <ele>1523.8000488281</ele>
        <time>2022-08-20T08:38:12.000Z</time>
      </trkpt>
      <trkpt lat="44.08684" lon="7.00304">
        <ele>1524.1999511719</ele>
        <time>2022-08-20T08:38:14.000Z</time>
      </trkpt>
      <trkpt lat="44.08683" lon="7.00304">
        <ele>1524.1999511719</ele>
        <time>2022-08-20T08:38:17.000Z</time>
      </trkpt>
      <trkpt lat="44.08682" lon="7.00304">
        <ele>1524.5999755859</ele>
        <time>2022-08-20T08:38:19.000Z</time>
      </trkpt>
      <trkpt lat="44.08678" lon="7.00305">
        <ele>1525</ele>
        <time>2022-08-20T08:38:23.000Z</time>
      </trkpt>
      <trkpt lat="44.08677" lon="7.00307">
        <ele>1525</ele>
        <time>2022-08-20T08:38:25.000Z</time>
      </trkpt>
      <trkpt lat="44.08679" lon="7.00309">
        <ele>1525</ele>
        <time>2022-08-20T08:38:27.000Z</time>
      </trkpt>
      <trkpt lat="44.08681" lon="7.0031">
        <ele>1525.8000488281</ele>
        <time>2022-08-20T08:38:31.000Z</time>
      </trkpt>
      <trkpt lat="44.08683" lon="7.00318">
        <ele>1526.8000488281</ele>
        <time>2022-08-20T08:38:35.000Z</time>
      </trkpt>
      <trkpt lat="44.08682" lon="7.00321">
        <ele>1526.8000488281</ele>
        <time>2022-08-20T08:38:36.000Z</time>
      </trkpt>
      <trkpt lat="44.08681" lon="7.00323">
        <ele>1527.1999511719</ele>
        <time>2022-08-20T08:38:37.000Z</time>
      </trkpt>
      <trkpt lat="44.08678" lon="7.00324">
        <ele>1528</ele>
        <time>2022-08-20T08:38:39.000Z</time>
      </trkpt>
      <trkpt lat="44.08676" lon="7.00325">
        <ele>1528.4000244141</ele>
        <time>2022-08-20T08:38:40.000Z</time>
      </trkpt>
      <trkpt lat="44.08674" lon="7.0033">
        <ele>1529.1999511719</ele>
        <time>2022-08-20T08:38:43.000Z</time>
      </trkpt>
      <trkpt lat="44.08674" lon="7.00332">
        <ele>1529.4000244141</ele>
        <time>2022-08-20T08:38:44.000Z</time>
      </trkpt>
      <trkpt lat="44.08674" lon="7.00335">
        <ele>1529.5999755859</ele>
        <time>2022-08-20T08:38:45.000Z</time>
      </trkpt>
      <trkpt lat="44.08674" lon="7.00337">
        <ele>1529.8000488281</ele>
        <time>2022-08-20T08:38:46.000Z</time>
      </trkpt>
      <trkpt lat="44.08673" lon="7.00343">
        <ele>1530.4000244141</ele>
        <time>2022-08-20T08:38:48.000Z</time>
      </trkpt>
      <trkpt lat="44.08672" lon="7.00346">
        <ele>1530.8000488281</ele>
        <time>2022-08-20T08:38:49.000Z</time>
      </trkpt>
      <trkpt lat="44.08673" lon="7.00354">
        <ele>1531.8000488281</ele>
        <time>2022-08-20T08:38:52.000Z</time>
      </trkpt>
      <trkpt lat="44.08672" lon="7.00356">
        <ele>1532.4000244141</ele>
        <time>2022-08-20T08:38:53.000Z</time>
      </trkpt>
      <trkpt lat="44.08673" lon="7.00357">
        <ele>1533.4000244141</ele>
        <time>2022-08-20T08:38:55.000Z</time>
      </trkpt>
      <trkpt lat="44.08674" lon="7.00356">
        <ele>1533.8000488281</ele>
        <time>2022-08-20T08:38:56.000Z</time>
      </trkpt>
      <trkpt lat="44.08675" lon="7.00355">
        <ele>1534</ele>
        <time>2022-08-20T08:38:57.000Z</time>
      </trkpt>
      <trkpt lat="44.08677" lon="7.00352">
        <ele>1534.5999755859</ele>
        <time>2022-08-20T08:38:59.000Z</time>
      </trkpt>
      <trkpt lat="44.08679" lon="7.00352">
        <ele>1534.8000488281</ele>
        <time>2022-08-20T08:39:00.000Z</time>
      </trkpt>
      <trkpt lat="44.08682" lon="7.00351">
        <ele>1535.1999511719</ele>
        <time>2022-08-20T08:39:02.000Z</time>
      </trkpt>
      <trkpt lat="44.08683" lon="7.00352">
        <ele>1535.4000244141</ele>
        <time>2022-08-20T08:39:03.000Z</time>
      </trkpt>
      <trkpt lat="44.08682" lon="7.00355">
        <ele>1535.8000488281</ele>
        <time>2022-08-20T08:39:05.000Z</time>
      </trkpt>
      <trkpt lat="44.08682" lon="7.00361">
        <ele>1536.4000244141</ele>
        <time>2022-08-20T08:39:09.000Z</time>
      </trkpt>
      <trkpt lat="44.08684" lon="7.00365">
        <ele>1537</ele>
        <time>2022-08-20T08:39:11.000Z</time>
      </trkpt>
      <trkpt lat="44.08684" lon="7.00368">
        <ele>1537.8000488281</ele>
        <time>2022-08-20T08:39:13.000Z</time>
      </trkpt>
      <trkpt lat="44.08685" lon="7.00369">
        <ele>1538.1999511719</ele>
        <time>2022-08-20T08:39:14.000Z</time>
      </trkpt>
      <trkpt lat="44.08689" lon="7.00373">
        <ele>1539.4000244141</ele>
        <time>2022-08-20T08:39:17.000Z</time>
      </trkpt>
      <trkpt lat="44.08689" lon="7.0038">
        <ele>1540.5999755859</ele>
        <time>2022-08-20T08:39:20.000Z</time>
      </trkpt>
      <trkpt lat="44.08688" lon="7.00382">
        <ele>1541</ele>
        <time>2022-08-20T08:39:21.000Z</time>
      </trkpt>
      <trkpt lat="44.08688" lon="7.00388">
        <ele>1541.8000488281</ele>
        <time>2022-08-20T08:39:23.000Z</time>
      </trkpt>
      <trkpt lat="44.08686" lon="7.00396">
        <ele>1543</ele>
        <time>2022-08-20T08:39:26.000Z</time>
      </trkpt>
      <trkpt lat="44.08685" lon="7.0041">
        <ele>1544.4000244141</ele>
        <time>2022-08-20T08:39:31.000Z</time>
      </trkpt>
      <trkpt lat="44.08684" lon="7.00416">
        <ele>1544.8000488281</ele>
        <time>2022-08-20T08:39:33.000Z</time>
      </trkpt>
      <trkpt lat="44.08682" lon="7.00421">
        <ele>1545.4000244141</ele>
        <time>2022-08-20T08:39:35.000Z</time>
      </trkpt>
      <trkpt lat="44.08679" lon="7.00434">
        <ele>1546.4000244141</ele>
        <time>2022-08-20T08:39:40.000Z</time>
      </trkpt>
      <trkpt lat="44.08678" lon="7.00437">
        <ele>1546.5999755859</ele>
        <time>2022-08-20T08:39:41.000Z</time>
      </trkpt>
      <trkpt lat="44.08676" lon="7.00446">
        <ele>1547.8000488281</ele>
        <time>2022-08-20T08:39:45.000Z</time>
      </trkpt>
      <trkpt lat="44.08676" lon="7.00447">
        <ele>1548.1999511719</ele>
        <time>2022-08-20T08:39:46.000Z</time>
      </trkpt>
      <trkpt lat="44.08676" lon="7.00451">
        <ele>1548.8000488281</ele>
        <time>2022-08-20T08:39:48.000Z</time>
      </trkpt>
      <trkpt lat="44.08675" lon="7.00459">
        <ele>1549.8000488281</ele>
        <time>2022-08-20T08:39:51.000Z</time>
      </trkpt>
      <trkpt lat="44.08674" lon="7.00461">
        <ele>1550</ele>
        <time>2022-08-20T08:39:52.000Z</time>
      </trkpt>
      <trkpt lat="44.08673" lon="7.00469">
        <ele>1551.1999511719</ele>
        <time>2022-08-20T08:39:56.000Z</time>
      </trkpt>
      <trkpt lat="44.08673" lon="7.00471">
        <ele>1551.8000488281</ele>
        <time>2022-08-20T08:39:57.000Z</time>
      </trkpt>
      <trkpt lat="44.08672" lon="7.00475">
        <ele>1552.1999511719</ele>
        <time>2022-08-20T08:39:59.000Z</time>
      </trkpt>
      <trkpt lat="44.08671" lon="7.00483">
        <ele>1553</ele>
        <time>2022-08-20T08:40:03.000Z</time>
      </trkpt>
      <trkpt lat="44.0867" lon="7.00485">
        <ele>1553.4000244141</ele>
        <time>2022-08-20T08:40:04.000Z</time>
      </trkpt>
      <trkpt lat="44.08669" lon="7.0049">
        <ele>1554</ele>
        <time>2022-08-20T08:40:06.000Z</time>
      </trkpt>
      <trkpt lat="44.08668" lon="7.00493">
        <ele>1554.8000488281</ele>
        <time>2022-08-20T08:40:08.000Z</time>
      </trkpt>
      <trkpt lat="44.08666" lon="7.005">
        <ele>1555.5999755859</ele>
        <time>2022-08-20T08:40:11.000Z</time>
      </trkpt>
      <trkpt lat="44.08666" lon="7.00502">
        <ele>1555.8000488281</ele>
        <time>2022-08-20T08:40:12.000Z</time>
      </trkpt>
      <trkpt lat="44.08665" lon="7.00504">
        <ele>1556.1999511719</ele>
        <time>2022-08-20T08:40:13.000Z</time>
      </trkpt>
      <trkpt lat="44.08662" lon="7.00512">
        <ele>1557</ele>
        <time>2022-08-20T08:40:16.000Z</time>
      </trkpt>
      <trkpt lat="44.08662" lon="7.00516">
        <ele>1557.4000244141</ele>
        <time>2022-08-20T08:40:17.000Z</time>
      </trkpt>
      <trkpt lat="44.08661" lon="7.00522">
        <ele>1558</ele>
        <time>2022-08-20T08:40:19.000Z</time>
      </trkpt>
      <trkpt lat="44.0866" lon="7.00535">
        <ele>1559.4000244141</ele>
        <time>2022-08-20T08:40:23.000Z</time>
      </trkpt>
      <trkpt lat="44.0866" lon="7.00538">
        <ele>1560.1999511719</ele>
        <time>2022-08-20T08:40:24.000Z</time>
      </trkpt>
      <trkpt lat="44.08659" lon="7.00541">
        <ele>1560.8000488281</ele>
        <time>2022-08-20T08:40:25.000Z</time>
      </trkpt>
      <trkpt lat="44.08658" lon="7.00547">
        <ele>1561.8000488281</ele>
        <time>2022-08-20T08:40:27.000Z</time>
      </trkpt>
      <trkpt lat="44.08657" lon="7.00549">
        <ele>1562.1999511719</ele>
        <time>2022-08-20T08:40:28.000Z</time>
      </trkpt>
      <trkpt lat="44.08654" lon="7.00551">
        <ele>1562.5999755859</ele>
        <time>2022-08-20T08:40:29.000Z</time>
      </trkpt>
      <trkpt lat="44.08652" lon="7.00553">
        <ele>1563</ele>
        <time>2022-08-20T08:40:30.000Z</time>
      </trkpt>
      <trkpt lat="44.0864" lon="7.00567">
        <ele>1564</ele>
        <time>2022-08-20T08:40:36.000Z</time>
      </trkpt>
      <trkpt lat="44.0863" lon="7.00581">
        <ele>1565</ele>
        <time>2022-08-20T08:40:41.000Z</time>
      </trkpt>
      <trkpt lat="44.08623" lon="7.00588">
        <ele>1566.1999511719</ele>
        <time>2022-08-20T08:40:44.000Z</time>
      </trkpt>
      <trkpt lat="44.08621" lon="7.0059">
        <ele>1566.4000244141</ele>
        <time>2022-08-20T08:40:45.000Z</time>
      </trkpt>
      <trkpt lat="44.08615" lon="7.00597">
        <ele>1567.1999511719</ele>
        <time>2022-08-20T08:40:48.000Z</time>
      </trkpt>
      <trkpt lat="44.08612" lon="7.00605">
        <ele>1568.4000244141</ele>
        <time>2022-08-20T08:40:51.000Z</time>
      </trkpt>
      <trkpt lat="44.0861" lon="7.00614">
        <ele>1569.5999755859</ele>
        <time>2022-08-20T08:40:54.000Z</time>
      </trkpt>
      <trkpt lat="44.0861" lon="7.00621">
        <ele>1570.5999755859</ele>
        <time>2022-08-20T08:40:57.000Z</time>
      </trkpt>
      <trkpt lat="44.08611" lon="7.00622">
        <ele>1570.8000488281</ele>
        <time>2022-08-20T08:40:58.000Z</time>
      </trkpt>
      <trkpt lat="44.08612" lon="7.0063">
        <ele>1572.4000244141</ele>
        <time>2022-08-20T08:41:01.000Z</time>
      </trkpt>
      <trkpt lat="44.08612" lon="7.00634">
        <ele>1573.4000244141</ele>
        <time>2022-08-20T08:41:03.000Z</time>
      </trkpt>
      <trkpt lat="44.08612" lon="7.00636">
        <ele>1573.8000488281</ele>
        <time>2022-08-20T08:41:04.000Z</time>
      </trkpt>
      <trkpt lat="44.08612" lon="7.00645">
        <ele>1575</ele>
        <time>2022-08-20T08:41:07.000Z</time>
      </trkpt>
      <trkpt lat="44.08612" lon="7.00654">
        <ele>1576.1999511719</ele>
        <time>2022-08-20T08:41:11.000Z</time>
      </trkpt>
      <trkpt lat="44.08613" lon="7.00659">
        <ele>1576.8000488281</ele>
        <time>2022-08-20T08:41:13.000Z</time>
      </trkpt>
      <trkpt lat="44.08612" lon="7.00661">
        <ele>1577</ele>
        <time>2022-08-20T08:41:14.000Z</time>
      </trkpt>
      <trkpt lat="44.08611" lon="7.00663">
        <ele>1577.5999755859</ele>
        <time>2022-08-20T08:41:15.000Z</time>
      </trkpt>
      <trkpt lat="44.08607" lon="7.00668">
        <ele>1578.8000488281</ele>
        <time>2022-08-20T08:41:18.000Z</time>
      </trkpt>
      <trkpt lat="44.08602" lon="7.00681">
        <ele>1580</ele>
        <time>2022-08-20T08:41:24.000Z</time>
      </trkpt>
      <trkpt lat="44.086" lon="7.00685">
        <ele>1580.5999755859</ele>
        <time>2022-08-20T08:41:26.000Z</time>
      </trkpt>
      <trkpt lat="44.08598" lon="7.00689">
        <ele>1581</ele>
        <time>2022-08-20T08:41:28.000Z</time>
      </trkpt>
      <trkpt lat="44.08595" lon="7.00693">
        <ele>1581.4000244141</ele>
        <time>2022-08-20T08:41:30.000Z</time>
      </trkpt>
      <trkpt lat="44.08591" lon="7.00693">
        <ele>1581.8000488281</ele>
        <time>2022-08-20T08:41:32.000Z</time>
      </trkpt>
      <trkpt lat="44.0859" lon="7.00691">
        <ele>1582</ele>
        <time>2022-08-20T08:41:33.000Z</time>
      </trkpt>
      <trkpt lat="44.08589" lon="7.00689">
        <ele>1582.4000244141</ele>
        <time>2022-08-20T08:41:34.000Z</time>
      </trkpt>
      <trkpt lat="44.08586" lon="7.00683">
        <ele>1583</ele>
        <time>2022-08-20T08:41:37.000Z</time>
      </trkpt>
      <trkpt lat="44.08585" lon="7.00682">
        <ele>1583.1999511719</ele>
        <time>2022-08-20T08:41:38.000Z</time>
      </trkpt>
      <trkpt lat="44.08582" lon="7.00678">
        <ele>1584.1999511719</ele>
        <time>2022-08-20T08:41:42.000Z</time>
      </trkpt>
      <trkpt lat="44.0858" lon="7.00677">
        <ele>1584.4000244141</ele>
        <time>2022-08-20T08:41:43.000Z</time>
      </trkpt>
      <trkpt lat="44.08577" lon="7.00676">
        <ele>1585.1999511719</ele>
        <time>2022-08-20T08:41:49.000Z</time>
      </trkpt>
      <trkpt lat="44.08577" lon="7.00674">
        <ele>1585.4000244141</ele>
        <time>2022-08-20T08:42:03.000Z</time>
      </trkpt>
      <trkpt lat="44.08578" lon="7.00673">
        <ele>1585.5999755859</ele>
        <time>2022-08-20T08:42:05.000Z</time>
      </trkpt>
      <trkpt lat="44.0858" lon="7.00674">
        <ele>1585.8000488281</ele>
        <time>2022-08-20T08:42:07.000Z</time>
      </trkpt>
      <trkpt lat="44.08584" lon="7.00676">
        <ele>1585</ele>
        <time>2022-08-20T08:42:13.000Z</time>
      </trkpt>
      <trkpt lat="44.08583" lon="7.00675">
        <ele>1584.5999755859</ele>
        <time>2022-08-20T08:42:16.000Z</time>
      </trkpt>
      <trkpt lat="44.08582" lon="7.00674">
        <ele>1584.5999755859</ele>
        <time>2022-08-20T08:42:17.000Z</time>
      </trkpt>
      <trkpt lat="44.08577" lon="7.00671">
        <ele>1584.1999511719</ele>
        <time>2022-08-20T08:42:20.000Z</time>
      </trkpt>
      <trkpt lat="44.08573" lon="7.0067">
        <ele>1584</ele>
        <time>2022-08-20T08:42:22.000Z</time>
      </trkpt>
      <trkpt lat="44.08568" lon="7.0067">
        <ele>1584</ele>
        <time>2022-08-20T08:42:25.000Z</time>
      </trkpt>
      <trkpt lat="44.0856" lon="7.0067">
        <ele>1583.8000488281</ele>
        <time>2022-08-20T08:42:29.000Z</time>
      </trkpt>
      <trkpt lat="44.08547" lon="7.00674">
        <ele>1583.8000488281</ele>
        <time>2022-08-20T08:42:35.000Z</time>
      </trkpt>
      <trkpt lat="44.08532" lon="7.0068">
        <ele>1584.1999511719</ele>
        <time>2022-08-20T08:42:42.000Z</time>
      </trkpt>
      <trkpt lat="44.0852" lon="7.00685">
        <ele>1585.1999511719</ele>
        <time>2022-08-20T08:42:47.000Z</time>
      </trkpt>
      <trkpt lat="44.08518" lon="7.00686">
        <ele>1585.4000244141</ele>
        <time>2022-08-20T08:42:48.000Z</time>
      </trkpt>
      <trkpt lat="44.08506" lon="7.00692">
        <ele>1585.8000488281</ele>
        <time>2022-08-20T08:42:53.000Z</time>
      </trkpt>
      <trkpt lat="44.08492" lon="7.00698">
        <ele>1586.5999755859</ele>
        <time>2022-08-20T08:42:59.000Z</time>
      </trkpt>
      <trkpt lat="44.08486" lon="7.007">
        <ele>1586.8000488281</ele>
        <time>2022-08-20T08:43:01.000Z</time>
      </trkpt>
      <trkpt lat="44.08468" lon="7.00708">
        <ele>1586.4000244141</ele>
        <time>2022-08-20T08:43:07.000Z</time>
      </trkpt>
      <trkpt lat="44.08452" lon="7.00712">
        <ele>1586.8000488281</ele>
        <time>2022-08-20T08:43:12.000Z</time>
      </trkpt>
      <trkpt lat="44.08433" lon="7.00709">
        <ele>1587.5999755859</ele>
        <time>2022-08-20T08:43:18.000Z</time>
      </trkpt>
      <trkpt lat="44.08426" lon="7.00703">
        <ele>1588.8000488281</ele>
        <time>2022-08-20T08:43:21.000Z</time>
      </trkpt>
      <trkpt lat="44.08422" lon="7.007">
        <ele>1589.8000488281</ele>
        <time>2022-08-20T08:43:23.000Z</time>
      </trkpt>
      <trkpt lat="44.08419" lon="7.00698">
        <ele>1590.1999511719</ele>
        <time>2022-08-20T08:43:24.000Z</time>
      </trkpt>
      <trkpt lat="44.08415" lon="7.00695">
        <ele>1591.1999511719</ele>
        <time>2022-08-20T08:43:26.000Z</time>
      </trkpt>
      <trkpt lat="44.08409" lon="7.00689">
        <ele>1592.4000244141</ele>
        <time>2022-08-20T08:43:29.000Z</time>
      </trkpt>
      <trkpt lat="44.08407" lon="7.00687">
        <ele>1592.5999755859</ele>
        <time>2022-08-20T08:43:30.000Z</time>
      </trkpt>
      <trkpt lat="44.08405" lon="7.00684">
        <ele>1593.4000244141</ele>
        <time>2022-08-20T08:43:32.000Z</time>
      </trkpt>
      <trkpt lat="44.08404" lon="7.00682">
        <ele>1594.5999755859</ele>
        <time>2022-08-20T08:43:35.000Z</time>
      </trkpt>
      <trkpt lat="44.08404" lon="7.00682">
        <ele>1595.5999755859</ele>
        <time>2022-08-20T08:43:39.000Z</time>
      </trkpt>
      <trkpt lat="44.08404" lon="7.00684">
        <ele>1595.5999755859</ele>
        <time>2022-08-20T08:43:50.000Z</time>
      </trkpt>
      <trkpt lat="44.08402" lon="7.00689">
        <ele>1595.5999755859</ele>
        <time>2022-08-20T08:43:56.000Z</time>
      </trkpt>
      <trkpt lat="44.084" lon="7.00694">
        <ele>1596.1999511719</ele>
        <time>2022-08-20T08:44:01.000Z</time>
      </trkpt>
      <trkpt lat="44.08397" lon="7.00692">
        <ele>1596.5999755859</ele>
        <time>2022-08-20T08:44:04.000Z</time>
      </trkpt>
      <trkpt lat="44.08396" lon="7.00691">
        <ele>1596.8000488281</ele>
        <time>2022-08-20T08:44:05.000Z</time>
      </trkpt>
      <trkpt lat="44.0839" lon="7.0069">
        <ele>1597.8000488281</ele>
        <time>2022-08-20T08:44:10.000Z</time>
      </trkpt>
      <trkpt lat="44.08383" lon="7.00693">
        <ele>1599</ele>
        <time>2022-08-20T08:44:14.000Z</time>
      </trkpt>
      <trkpt lat="44.08379" lon="7.00696">
        <ele>1599.8000488281</ele>
        <time>2022-08-20T08:44:16.000Z</time>
      </trkpt>
      <trkpt lat="44.08377" lon="7.00697">
        <ele>1600.1999511719</ele>
        <time>2022-08-20T08:44:17.000Z</time>
      </trkpt>
      <trkpt lat="44.08369" lon="7.00701">
        <ele>1601.1999511719</ele>
        <time>2022-08-20T08:44:21.000Z</time>
      </trkpt>
      <trkpt lat="44.08365" lon="7.00703">
        <ele>1602</ele>
        <time>2022-08-20T08:44:23.000Z</time>
      </trkpt>
      <trkpt lat="44.08364" lon="7.00705">
        <ele>1602.4000244141</ele>
        <time>2022-08-20T08:44:24.000Z</time>
      </trkpt>
      <trkpt lat="44.08358" lon="7.00711">
        <ele>1603.4000244141</ele>
        <time>2022-08-20T08:44:28.000Z</time>
      </trkpt>
      <trkpt lat="44.08356" lon="7.0071">
        <ele>1603.4000244141</ele>
        <time>2022-08-20T08:44:29.000Z</time>
      </trkpt>
      <trkpt lat="44.08352" lon="7.00709">
        <ele>1604.1999511719</ele>
        <time>2022-08-20T08:44:32.000Z</time>
      </trkpt>
      <trkpt lat="44.08351" lon="7.00709">
        <ele>1604.5999755859</ele>
        <time>2022-08-20T08:44:33.000Z</time>
      </trkpt>
      <trkpt lat="44.0835" lon="7.00709">
        <ele>1604.5999755859</ele>
        <time>2022-08-20T08:44:36.000Z</time>
      </trkpt>
      <trkpt lat="44.0835" lon="7.0071">
        <ele>1604.4000244141</ele>
        <time>2022-08-20T08:44:44.000Z</time>
      </trkpt>
      <trkpt lat="44.0835" lon="7.00711">
        <ele>1604</ele>
        <time>2022-08-20T08:44:50.000Z</time>
      </trkpt>
      <trkpt lat="44.08351" lon="7.00712">
        <ele>1604.1999511719</ele>
        <time>2022-08-20T08:44:57.000Z</time>
      </trkpt>
      <trkpt lat="44.08351" lon="7.00713">
        <ele>1604.8000488281</ele>
        <time>2022-08-20T08:45:04.000Z</time>
      </trkpt>
      <trkpt lat="44.08352" lon="7.00713">
        <ele>1604.1999511719</ele>
        <time>2022-08-20T08:45:10.000Z</time>
      </trkpt>
      <trkpt lat="44.08352" lon="7.00713">
        <ele>1604.1999511719</ele>
        <time>2022-08-20T08:45:16.000Z</time>
      </trkpt>
      <trkpt lat="44.08352" lon="7.00713">
        <ele>1604</ele>
        <time>2022-08-20T08:45:23.000Z</time>
      </trkpt>
      <trkpt lat="44.08353" lon="7.00713">
        <ele>1604.4000244141</ele>
        <time>2022-08-20T08:45:33.000Z</time>
      </trkpt>
      <trkpt lat="44.08353" lon="7.00713">
        <ele>1604</ele>
        <time>2022-08-20T08:45:41.000Z</time>
      </trkpt>
      <trkpt lat="44.08353" lon="7.00713">
        <ele>1603.8000488281</ele>
        <time>2022-08-20T08:45:52.000Z</time>
      </trkpt>
      <trkpt lat="44.08353" lon="7.00712">
        <ele>1603.8000488281</ele>
        <time>2022-08-20T08:46:03.000Z</time>
      </trkpt>
      <trkpt lat="44.08353" lon="7.00713">
        <ele>1604</ele>
        <time>2022-08-20T08:46:10.000Z</time>
      </trkpt>
      <trkpt lat="44.08351" lon="7.00714">
        <ele>1604.1999511719</ele>
        <time>2022-08-20T08:46:20.000Z</time>
      </trkpt>
      <trkpt lat="44.08351" lon="7.00713">
        <ele>1604.1999511719</ele>
        <time>2022-08-20T08:46:26.000Z</time>
      </trkpt>
      <trkpt lat="44.0835" lon="7.00713">
        <ele>1604.5999755859</ele>
        <time>2022-08-20T08:46:34.000Z</time>
      </trkpt>
      <trkpt lat="44.0835" lon="7.00712">
        <ele>1604.4000244141</ele>
        <time>2022-08-20T08:46:46.000Z</time>
      </trkpt>
      <trkpt lat="44.08349" lon="7.00712">
        <ele>1604.4000244141</ele>
        <time>2022-08-20T08:47:03.000Z</time>
      </trkpt>
      <trkpt lat="44.0835" lon="7.00711">
        <ele>1604.4000244141</ele>
        <time>2022-08-20T08:47:14.000Z</time>
      </trkpt>
      <trkpt lat="44.0835" lon="7.00711">
        <ele>1604.5999755859</ele>
        <time>2022-08-20T08:47:23.000Z</time>
      </trkpt>
      <trkpt lat="44.08349" lon="7.00713">
        <ele>1604.5999755859</ele>
        <time>2022-08-20T08:47:31.000Z</time>
      </trkpt>
      <trkpt lat="44.08349" lon="7.00713">
        <ele>1604</ele>
        <time>2022-08-20T08:47:41.000Z</time>
      </trkpt>
      <trkpt lat="44.0835" lon="7.00714">
        <ele>1604</ele>
        <time>2022-08-20T08:47:56.000Z</time>
      </trkpt>
      <trkpt lat="44.08351" lon="7.00713">
        <ele>1603.4000244141</ele>
        <time>2022-08-20T08:48:08.000Z</time>
      </trkpt>
      <trkpt lat="44.08351" lon="7.00713">
        <ele>1604.1999511719</ele>
        <time>2022-08-20T08:48:14.000Z</time>
      </trkpt>
      <trkpt lat="44.08351" lon="7.00714">
        <ele>1604.5999755859</ele>
        <time>2022-08-20T08:48:20.000Z</time>
      </trkpt>
      <trkpt lat="44.08351" lon="7.00714">
        <ele>1604.4000244141</ele>
        <time>2022-08-20T08:48:21.000Z</time>
      </trkpt>
      <trkpt lat="44.08351" lon="7.00714">
        <ele>1603.1999511719</ele>
        <time>2022-08-20T08:48:26.000Z</time>
      </trkpt>
      <trkpt lat="44.08351" lon="7.00714">
        <ele>1603</ele>
        <time>2022-08-20T08:48:28.000Z</time>
      </trkpt>
      <trkpt lat="44.08351" lon="7.00714">
        <ele>1602.8000488281</ele>
        <time>2022-08-20T08:48:30.000Z</time>
      </trkpt>
      <trkpt lat="44.08351" lon="7.00714">
        <ele>1602.8000488281</ele>
        <time>2022-08-20T08:48:33.000Z</time>
      </trkpt>
      <trkpt lat="44.08351" lon="7.00714">
        <ele>1603</ele>
        <time>2022-08-20T08:48:39.000Z</time>
      </trkpt>
      <trkpt lat="44.08351" lon="7.00713">
        <ele>1602.5999755859</ele>
        <time>2022-08-20T08:48:47.000Z</time>
      </trkpt>
      <trkpt lat="44.08352" lon="7.00713">
        <ele>1603</ele>
        <time>2022-08-20T08:48:58.000Z</time>
      </trkpt>
      <trkpt lat="44.08353" lon="7.00712">
        <ele>1603.8000488281</ele>
        <time>2022-08-20T08:49:11.000Z</time>
      </trkpt>
      <trkpt lat="44.08353" lon="7.00712">
        <ele>1603.5999755859</ele>
        <time>2022-08-20T08:49:20.000Z</time>
      </trkpt>
      <trkpt lat="44.08353" lon="7.00712">
        <ele>1604</ele>
        <time>2022-08-20T08:49:29.000Z</time>
      </trkpt>
      <trkpt lat="44.08354" lon="7.00713">
        <ele>1603.8000488281</ele>
        <time>2022-08-20T08:49:40.000Z</time>
      </trkpt>
      <trkpt lat="44.08354" lon="7.00713">
        <ele>1604</ele>
        <time>2022-08-20T08:49:50.000Z</time>
      </trkpt>
      <trkpt lat="44.08353" lon="7.00713">
        <ele>1603.8000488281</ele>
        <time>2022-08-20T08:50:01.000Z</time>
      </trkpt>
      <trkpt lat="44.08352" lon="7.00714">
        <ele>1603.8000488281</ele>
        <time>2022-08-20T08:50:16.000Z</time>
      </trkpt>
      <trkpt lat="44.08352" lon="7.00714">
        <ele>1603.8000488281</ele>
        <time>2022-08-20T08:50:26.000Z</time>
      </trkpt>
      <trkpt lat="44.08351" lon="7.00713">
        <ele>1600.8000488281</ele>
        <time>2022-08-20T08:50:39.000Z</time>
      </trkpt>
      <trkpt lat="44.08351" lon="7.00713">
        <ele>1598.5999755859</ele>
        <time>2022-08-20T08:50:40.000Z</time>
      </trkpt>
      <trkpt lat="44.08351" lon="7.00713">
        <ele>1596</ele>
        <time>2022-08-20T08:50:41.000Z</time>
      </trkpt>
      <trkpt lat="44.08351" lon="7.00713">
        <ele>1593.1999511719</ele>
        <time>2022-08-20T08:50:42.000Z</time>
      </trkpt>
      <trkpt lat="44.08351" lon="7.00713">
        <ele>1591.4000244141</ele>
        <time>2022-08-20T08:50:43.000Z</time>
      </trkpt>
      <trkpt lat="44.08351" lon="7.00713">
        <ele>1592.4000244141</ele>
        <time>2022-08-20T08:50:44.000Z</time>
      </trkpt>
      <trkpt lat="44.08351" lon="7.00713">
        <ele>1593.8000488281</ele>
        <time>2022-08-20T08:50:46.000Z</time>
      </trkpt>
      <trkpt lat="44.08351" lon="7.00713">
        <ele>1594.8000488281</ele>
        <time>2022-08-20T08:50:47.000Z</time>
      </trkpt>
      <trkpt lat="44.08351" lon="7.00713">
        <ele>1593.8000488281</ele>
        <time>2022-08-20T08:50:48.000Z</time>
      </trkpt>
      <trkpt lat="44.0835" lon="7.00714">
        <ele>1594.4000244141</ele>
        <time>2022-08-20T08:51:06.000Z</time>
      </trkpt>
      <trkpt lat="44.08351" lon="7.00714">
        <ele>1594</ele>
        <time>2022-08-20T08:51:27.000Z</time>
      </trkpt>
      <trkpt lat="44.08351" lon="7.00713">
        <ele>1593.8000488281</ele>
        <time>2022-08-20T08:51:51.000Z</time>
      </trkpt>
      <trkpt lat="44.08351" lon="7.00713">
        <ele>1597</ele>
        <time>2022-08-20T08:51:54.000Z</time>
      </trkpt>
      <trkpt lat="44.08351" lon="7.00713">
        <ele>1599.1999511719</ele>
        <time>2022-08-20T08:51:55.000Z</time>
      </trkpt>
      <trkpt lat="44.08351" lon="7.00713">
        <ele>1600.5999755859</ele>
        <time>2022-08-20T08:51:56.000Z</time>
      </trkpt>
      <trkpt lat="44.08351" lon="7.00713">
        <ele>1601.8000488281</ele>
        <time>2022-08-20T08:52:04.000Z</time>
      </trkpt>
      <trkpt lat="44.08351" lon="7.00713">
        <ele>1602</ele>
        <time>2022-08-20T08:52:07.000Z</time>
      </trkpt>
      <trkpt lat="44.08351" lon="7.00713">
        <ele>1602.8000488281</ele>
        <time>2022-08-20T08:52:12.000Z</time>
      </trkpt>
      <trkpt lat="44.08351" lon="7.00713">
        <ele>1603.8000488281</ele>
        <time>2022-08-20T08:52:21.000Z</time>
      </trkpt>
      <trkpt lat="44.08351" lon="7.00713">
        <ele>1603.8000488281</ele>
        <time>2022-08-20T08:52:25.000Z</time>
      </trkpt>
      <trkpt lat="44.08352" lon="7.00714">
        <ele>1602.5999755859</ele>
        <time>2022-08-20T08:52:43.000Z</time>
      </trkpt>
      <trkpt lat="44.08352" lon="7.00714">
        <ele>1601.1999511719</ele>
        <time>2022-08-20T08:52:45.000Z</time>
      </trkpt>
      <trkpt lat="44.08352" lon="7.00714">
        <ele>1600.1999511719</ele>
        <time>2022-08-20T08:52:49.000Z</time>
      </trkpt>
      <trkpt lat="44.08352" lon="7.00714">
        <ele>1598.8000488281</ele>
        <time>2022-08-20T08:52:53.000Z</time>
      </trkpt>
      <trkpt lat="44.08352" lon="7.00714">
        <ele>1597.8000488281</ele>
        <time>2022-08-20T08:52:55.000Z</time>
      </trkpt>
      <trkpt lat="44.08352" lon="7.00714">
        <ele>1597.1999511719</ele>
        <time>2022-08-20T08:53:06.000Z</time>
      </trkpt>
      <trkpt lat="44.08351" lon="7.00714">
        <ele>1596.4000244141</ele>
        <time>2022-08-20T08:53:11.000Z</time>
      </trkpt>
      <trkpt lat="44.08351" lon="7.00714">
        <ele>1595.4000244141</ele>
        <time>2022-08-20T08:53:13.000Z</time>
      </trkpt>
      <trkpt lat="44.08351" lon="7.00714">
        <ele>1595.5999755859</ele>
        <time>2022-08-20T08:53:18.000Z</time>
      </trkpt>
      <trkpt lat="44.08351" lon="7.00714">
        <ele>1599.4000244141</ele>
        <time>2022-08-20T08:53:20.000Z</time>
      </trkpt>
      <trkpt lat="44.08351" lon="7.00714">
        <ele>1597.5999755859</ele>
        <time>2022-08-20T08:53:24.000Z</time>
      </trkpt>
      <trkpt lat="44.08351" lon="7.00713">
        <ele>1592.8000488281</ele>
        <time>2022-08-20T08:53:25.000Z</time>
      </trkpt>
      <trkpt lat="44.0835" lon="7.00714">
        <ele>1593.1999511719</ele>
        <time>2022-08-20T08:53:32.000Z</time>
      </trkpt>
      <trkpt lat="44.08349" lon="7.00714">
        <ele>1593.8000488281</ele>
        <time>2022-08-20T08:53:57.000Z</time>
      </trkpt>
      <trkpt lat="44.08349" lon="7.00713">
        <ele>1593.8000488281</ele>
        <time>2022-08-20T08:54:13.000Z</time>
      </trkpt>
      <trkpt lat="44.0835" lon="7.00713">
        <ele>1593.8000488281</ele>
        <time>2022-08-20T08:54:17.000Z</time>
      </trkpt>
      <trkpt lat="44.0835" lon="7.00713">
        <ele>1593.8000488281</ele>
        <time>2022-08-20T08:54:19.000Z</time>
      </trkpt>
      <trkpt lat="44.0835" lon="7.00712">
        <ele>1593.5999755859</ele>
        <time>2022-08-20T08:54:26.000Z</time>
      </trkpt>
      <trkpt lat="44.08348" lon="7.00713">
        <ele>1594</ele>
        <time>2022-08-20T08:54:39.000Z</time>
      </trkpt>
      <trkpt lat="44.08348" lon="7.00714">
        <ele>1593.1999511719</ele>
        <time>2022-08-20T08:54:48.000Z</time>
      </trkpt>
      <trkpt lat="44.08347" lon="7.00717">
        <ele>1593.1999511719</ele>
        <time>2022-08-20T08:54:49.000Z</time>
      </trkpt>
      <trkpt lat="44.08345" lon="7.00724">
        <ele>1593.4000244141</ele>
        <time>2022-08-20T08:54:53.000Z</time>
      </trkpt>
      <trkpt lat="44.08336" lon="7.00745">
        <ele>1594</ele>
        <time>2022-08-20T08:55:01.000Z</time>
      </trkpt>
      <trkpt lat="44.08327" lon="7.00759">
        <ele>1595</ele>
        <time>2022-08-20T08:55:06.000Z</time>
      </trkpt>
      <trkpt lat="44.08322" lon="7.00767">
        <ele>1595.5999755859</ele>
        <time>2022-08-20T08:55:09.000Z</time>
      </trkpt>
      <trkpt lat="44.08313" lon="7.00782">
        <ele>1596</ele>
        <time>2022-08-20T08:55:14.000Z</time>
      </trkpt>
      <trkpt lat="44.08308" lon="7.0079">
        <ele>1596.8000488281</ele>
        <time>2022-08-20T08:55:17.000Z</time>
      </trkpt>
      <trkpt lat="44.08306" lon="7.00793">
        <ele>1597</ele>
        <time>2022-08-20T08:55:18.000Z</time>
      </trkpt>
      <trkpt lat="44.08297" lon="7.00807">
        <ele>1598.1999511719</ele>
        <time>2022-08-20T08:55:23.000Z</time>
      </trkpt>
      <trkpt lat="44.08295" lon="7.0081">
        <ele>1598.4000244141</ele>
        <time>2022-08-20T08:55:24.000Z</time>
      </trkpt>
      <trkpt lat="44.08277" lon="7.00836">
        <ele>1598.8000488281</ele>
        <time>2022-08-20T08:55:32.000Z</time>
      </trkpt>
      <trkpt lat="44.08266" lon="7.0085">
        <ele>1599.4000244141</ele>
        <time>2022-08-20T08:55:37.000Z</time>
      </trkpt>
      <trkpt lat="44.0826" lon="7.00857">
        <ele>1600.1999511719</ele>
        <time>2022-08-20T08:55:40.000Z</time>
      </trkpt>
      <trkpt lat="44.08255" lon="7.00865">
        <ele>1600.8000488281</ele>
        <time>2022-08-20T08:55:43.000Z</time>
      </trkpt>
      <trkpt lat="44.08245" lon="7.00875">
        <ele>1601.8000488281</ele>
        <time>2022-08-20T08:55:48.000Z</time>
      </trkpt>
      <trkpt lat="44.08243" lon="7.00877">
        <ele>1602</ele>
        <time>2022-08-20T08:55:49.000Z</time>
      </trkpt>
      <trkpt lat="44.08229" lon="7.00891">
        <ele>1601.8000488281</ele>
        <time>2022-08-20T08:55:55.000Z</time>
      </trkpt>
      <trkpt lat="44.08221" lon="7.00911">
        <ele>1602.5999755859</ele>
        <time>2022-08-20T08:56:01.000Z</time>
      </trkpt>
      <trkpt lat="44.08219" lon="7.00917">
        <ele>1603.1999511719</ele>
        <time>2022-08-20T08:56:03.000Z</time>
      </trkpt>
      <trkpt lat="44.08218" lon="7.00924">
        <ele>1604</ele>
        <time>2022-08-20T08:56:05.000Z</time>
      </trkpt>
      <trkpt lat="44.08218" lon="7.00928">
        <ele>1604.4000244141</ele>
        <time>2022-08-20T08:56:06.000Z</time>
      </trkpt>
      <trkpt lat="44.08217" lon="7.00934">
        <ele>1605</ele>
        <time>2022-08-20T08:56:08.000Z</time>
      </trkpt>
      <trkpt lat="44.08216" lon="7.0094">
        <ele>1605.5999755859</ele>
        <time>2022-08-20T08:56:10.000Z</time>
      </trkpt>
      <trkpt lat="44.08214" lon="7.00958">
        <ele>1606.8000488281</ele>
        <time>2022-08-20T08:56:16.000Z</time>
      </trkpt>
      <trkpt lat="44.08212" lon="7.00969">
        <ele>1607.8000488281</ele>
        <time>2022-08-20T08:56:20.000Z</time>
      </trkpt>
      <trkpt lat="44.08209" lon="7.00983">
        <ele>1608.8000488281</ele>
        <time>2022-08-20T08:56:26.000Z</time>
      </trkpt>
      <trkpt lat="44.08203" lon="7.01">
        <ele>1610</ele>
        <time>2022-08-20T08:56:32.000Z</time>
      </trkpt>
      <trkpt lat="44.08202" lon="7.01002">
        <ele>1610.1999511719</ele>
        <time>2022-08-20T08:56:33.000Z</time>
      </trkpt>
      <trkpt lat="44.08198" lon="7.01016">
        <ele>1611</ele>
        <time>2022-08-20T08:56:38.000Z</time>
      </trkpt>
      <trkpt lat="44.08196" lon="7.01027">
        <ele>1611.5999755859</ele>
        <time>2022-08-20T08:56:42.000Z</time>
      </trkpt>
      <trkpt lat="44.08194" lon="7.01038">
        <ele>1612.1999511719</ele>
        <time>2022-08-20T08:56:46.000Z</time>
      </trkpt>
      <trkpt lat="44.08192" lon="7.01052">
        <ele>1613</ele>
        <time>2022-08-20T08:56:51.000Z</time>
      </trkpt>
      <trkpt lat="44.08192" lon="7.01055">
        <ele>1613.1999511719</ele>
        <time>2022-08-20T08:56:52.000Z</time>
      </trkpt>
      <trkpt lat="44.08195" lon="7.01072">
        <ele>1614</ele>
        <time>2022-08-20T08:56:58.000Z</time>
      </trkpt>
      <trkpt lat="44.08199" lon="7.01083">
        <ele>1614.1999511719</ele>
        <time>2022-08-20T08:57:02.000Z</time>
      </trkpt>
      <trkpt lat="44.08203" lon="7.01091">
        <ele>1614.8000488281</ele>
        <time>2022-08-20T08:57:05.000Z</time>
      </trkpt>
      <trkpt lat="44.08209" lon="7.01109">
        <ele>1615.4000244141</ele>
        <time>2022-08-20T08:57:11.000Z</time>
      </trkpt>
      <trkpt lat="44.08212" lon="7.0112">
        <ele>1615.8000488281</ele>
        <time>2022-08-20T08:57:15.000Z</time>
      </trkpt>
      <trkpt lat="44.08212" lon="7.01139">
        <ele>1616.5999755859</ele>
        <time>2022-08-20T08:57:21.000Z</time>
      </trkpt>
      <trkpt lat="44.08212" lon="7.01142">
        <ele>1616.4000244141</ele>
        <time>2022-08-20T08:57:22.000Z</time>
      </trkpt>
      <trkpt lat="44.08212" lon="7.01167">
        <ele>1617.1999511719</ele>
        <time>2022-08-20T08:57:30.000Z</time>
      </trkpt>
      <trkpt lat="44.08212" lon="7.01173">
        <ele>1617.5999755859</ele>
        <time>2022-08-20T08:57:32.000Z</time>
      </trkpt>
      <trkpt lat="44.0821" lon="7.01189">
        <ele>1618</ele>
        <time>2022-08-20T08:57:37.000Z</time>
      </trkpt>
      <trkpt lat="44.08205" lon="7.01206">
        <ele>1617.8000488281</ele>
        <time>2022-08-20T08:57:42.000Z</time>
      </trkpt>
      <trkpt lat="44.08202" lon="7.01223">
        <ele>1616.4000244141</ele>
        <time>2022-08-20T08:57:46.000Z</time>
      </trkpt>
      <trkpt lat="44.08199" lon="7.01232">
        <ele>1616.5999755859</ele>
        <time>2022-08-20T08:57:48.000Z</time>
      </trkpt>
      <trkpt lat="44.08198" lon="7.01246">
        <ele>1617</ele>
        <time>2022-08-20T08:57:52.000Z</time>
      </trkpt>
      <trkpt lat="44.082" lon="7.01263">
        <ele>1617</ele>
        <time>2022-08-20T08:57:58.000Z</time>
      </trkpt>
      <trkpt lat="44.08201" lon="7.01268">
        <ele>1617.8000488281</ele>
        <time>2022-08-20T08:58:00.000Z</time>
      </trkpt>
      <trkpt lat="44.08201" lon="7.01276">
        <ele>1619.4000244141</ele>
        <time>2022-08-20T08:58:03.000Z</time>
      </trkpt>
      <trkpt lat="44.082" lon="7.01285">
        <ele>1620.8000488281</ele>
        <time>2022-08-20T08:58:06.000Z</time>
      </trkpt>
      <trkpt lat="44.08199" lon="7.01297">
        <ele>1621.1999511719</ele>
        <time>2022-08-20T08:58:10.000Z</time>
      </trkpt>
      <trkpt lat="44.08196" lon="7.01317">
        <ele>1621.8000488281</ele>
        <time>2022-08-20T08:58:16.000Z</time>
      </trkpt>
      <trkpt lat="44.08195" lon="7.01335">
        <ele>1622.8000488281</ele>
        <time>2022-08-20T08:58:22.000Z</time>
      </trkpt>
      <trkpt lat="44.08195" lon="7.01338">
        <ele>1623</ele>
        <time>2022-08-20T08:58:23.000Z</time>
      </trkpt>
      <trkpt lat="44.08193" lon="7.01358">
        <ele>1624</ele>
        <time>2022-08-20T08:58:29.000Z</time>
      </trkpt>
      <trkpt lat="44.08193" lon="7.01361">
        <ele>1624</ele>
        <time>2022-08-20T08:58:30.000Z</time>
      </trkpt>
      <trkpt lat="44.0819" lon="7.01377">
        <ele>1624.4000244141</ele>
        <time>2022-08-20T08:58:35.000Z</time>
      </trkpt>
      <trkpt lat="44.08188" lon="7.01393">
        <ele>1624.1999511719</ele>
        <time>2022-08-20T08:58:40.000Z</time>
      </trkpt>
      <trkpt lat="44.08185" lon="7.0141">
        <ele>1625</ele>
        <time>2022-08-20T08:58:45.000Z</time>
      </trkpt>
      <trkpt lat="44.08185" lon="7.01413">
        <ele>1625</ele>
        <time>2022-08-20T08:58:46.000Z</time>
      </trkpt>
      <trkpt lat="44.08187" lon="7.0143">
        <ele>1624.4000244141</ele>
        <time>2022-08-20T08:58:51.000Z</time>
      </trkpt>
      <trkpt lat="44.08192" lon="7.01443">
        <ele>1625</ele>
        <time>2022-08-20T08:58:56.000Z</time>
      </trkpt>
      <trkpt lat="44.08199" lon="7.01461">
        <ele>1625.8000488281</ele>
        <time>2022-08-20T08:59:02.000Z</time>
      </trkpt>
      <trkpt lat="44.08201" lon="7.01466">
        <ele>1626.1999511719</ele>
        <time>2022-08-20T08:59:04.000Z</time>
      </trkpt>
      <trkpt lat="44.08208" lon="7.01474">
        <ele>1626.8000488281</ele>
        <time>2022-08-20T08:59:07.000Z</time>
      </trkpt>
      <trkpt lat="44.08223" lon="7.01488">
        <ele>1626.8000488281</ele>
        <time>2022-08-20T08:59:13.000Z</time>
      </trkpt>
      <trkpt lat="44.08242" lon="7.01507">
        <ele>1626.5999755859</ele>
        <time>2022-08-20T08:59:21.000Z</time>
      </trkpt>
      <trkpt lat="44.08253" lon="7.01514">
        <ele>1627.1999511719</ele>
        <time>2022-08-20T08:59:25.000Z</time>
      </trkpt>
      <trkpt lat="44.08255" lon="7.01516">
        <ele>1627.5999755859</ele>
        <time>2022-08-20T08:59:26.000Z</time>
      </trkpt>
      <trkpt lat="44.08261" lon="7.01522">
        <ele>1628.4000244141</ele>
        <time>2022-08-20T08:59:29.000Z</time>
      </trkpt>
      <trkpt lat="44.08266" lon="7.01527">
        <ele>1629.5999755859</ele>
        <time>2022-08-20T08:59:32.000Z</time>
      </trkpt>
      <trkpt lat="44.08275" lon="7.0154">
        <ele>1629.8000488281</ele>
        <time>2022-08-20T08:59:37.000Z</time>
      </trkpt>
      <trkpt lat="44.08287" lon="7.01566">
        <ele>1629.1999511719</ele>
        <time>2022-08-20T08:59:43.000Z</time>
      </trkpt>
      <trkpt lat="44.08288" lon="7.0157">
        <ele>1628.5999755859</ele>
        <time>2022-08-20T08:59:44.000Z</time>
      </trkpt>
      <trkpt lat="44.08286" lon="7.01576">
        <ele>1626.8000488281</ele>
        <time>2022-08-20T08:59:46.000Z</time>
      </trkpt>
      <trkpt lat="44.08281" lon="7.01577">
        <ele>1625.5999755859</ele>
        <time>2022-08-20T08:59:48.000Z</time>
      </trkpt>
      <trkpt lat="44.08272" lon="7.01577">
        <ele>1626</ele>
        <time>2022-08-20T08:59:51.000Z</time>
      </trkpt>
      <trkpt lat="44.08267" lon="7.01578">
        <ele>1626.8000488281</ele>
        <time>2022-08-20T08:59:53.000Z</time>
      </trkpt>
      <trkpt lat="44.0826" lon="7.0158">
        <ele>1627</ele>
        <time>2022-08-20T08:59:56.000Z</time>
      </trkpt>
      <trkpt lat="44.08242" lon="7.01588">
        <ele>1627</ele>
        <time>2022-08-20T09:00:03.000Z</time>
      </trkpt>
      <trkpt lat="44.08235" lon="7.01594">
        <ele>1628</ele>
        <time>2022-08-20T09:00:06.000Z</time>
      </trkpt>
      <trkpt lat="44.08229" lon="7.01599">
        <ele>1629</ele>
        <time>2022-08-20T09:00:09.000Z</time>
      </trkpt>
      <trkpt lat="44.08227" lon="7.01601">
        <ele>1629.4000244141</ele>
        <time>2022-08-20T09:00:10.000Z</time>
      </trkpt>
      <trkpt lat="44.08221" lon="7.01608">
        <ele>1630.1999511719</ele>
        <time>2022-08-20T09:00:13.000Z</time>
      </trkpt>
      <trkpt lat="44.08211" lon="7.01618">
        <ele>1631</ele>
        <time>2022-08-20T09:00:18.000Z</time>
      </trkpt>
      <trkpt lat="44.08207" lon="7.01622">
        <ele>1631.4000244141</ele>
        <time>2022-08-20T09:00:20.000Z</time>
      </trkpt>
      <trkpt lat="44.08202" lon="7.01629">
        <ele>1632.4000244141</ele>
        <time>2022-08-20T09:00:23.000Z</time>
      </trkpt>
      <trkpt lat="44.08197" lon="7.01636">
        <ele>1633.1999511719</ele>
        <time>2022-08-20T09:00:26.000Z</time>
      </trkpt>
      <trkpt lat="44.08194" lon="7.01642">
        <ele>1633.1999511719</ele>
        <time>2022-08-20T09:00:28.000Z</time>
      </trkpt>
      <trkpt lat="44.08188" lon="7.01646">
        <ele>1633.4000244141</ele>
        <time>2022-08-20T09:00:30.000Z</time>
      </trkpt>
      <trkpt lat="44.08179" lon="7.01643">
        <ele>1633.1999511719</ele>
        <time>2022-08-20T09:00:34.000Z</time>
      </trkpt>
      <trkpt lat="44.08176" lon="7.01642">
        <ele>1633.1999511719</ele>
        <time>2022-08-20T09:00:35.000Z</time>
      </trkpt>
      <trkpt lat="44.0817" lon="7.01642">
        <ele>1633.4000244141</ele>
        <time>2022-08-20T09:00:37.000Z</time>
      </trkpt>
      <trkpt lat="44.08161" lon="7.01643">
        <ele>1634.1999511719</ele>
        <time>2022-08-20T09:00:40.000Z</time>
      </trkpt>
      <trkpt lat="44.08159" lon="7.01644">
        <ele>1634.8000488281</ele>
        <time>2022-08-20T09:00:41.000Z</time>
      </trkpt>
      <trkpt lat="44.08154" lon="7.01644">
        <ele>1635.8000488281</ele>
        <time>2022-08-20T09:00:43.000Z</time>
      </trkpt>
      <trkpt lat="44.0815" lon="7.01645">
        <ele>1637</ele>
        <time>2022-08-20T09:00:45.000Z</time>
      </trkpt>
      <trkpt lat="44.08143" lon="7.01647">
        <ele>1638.1999511719</ele>
        <time>2022-08-20T09:00:48.000Z</time>
      </trkpt>
      <trkpt lat="44.08135" lon="7.01648">
        <ele>1639.4000244141</ele>
        <time>2022-08-20T09:00:52.000Z</time>
      </trkpt>
      <trkpt lat="44.0813" lon="7.01649">
        <ele>1640</ele>
        <time>2022-08-20T09:00:54.000Z</time>
      </trkpt>
      <trkpt lat="44.08128" lon="7.0165">
        <ele>1640.5999755859</ele>
        <time>2022-08-20T09:00:55.000Z</time>
      </trkpt>
      <trkpt lat="44.08124" lon="7.01653">
        <ele>1641.8000488281</ele>
        <time>2022-08-20T09:00:57.000Z</time>
      </trkpt>
      <trkpt lat="44.0812" lon="7.01657">
        <ele>1643.1999511719</ele>
        <time>2022-08-20T09:00:59.000Z</time>
      </trkpt>
      <trkpt lat="44.08117" lon="7.01661">
        <ele>1644.1999511719</ele>
        <time>2022-08-20T09:01:01.000Z</time>
      </trkpt>
      <trkpt lat="44.08112" lon="7.01667">
        <ele>1645.8000488281</ele>
        <time>2022-08-20T09:01:04.000Z</time>
      </trkpt>
      <trkpt lat="44.08104" lon="7.01674">
        <ele>1646.8000488281</ele>
        <time>2022-08-20T09:01:08.000Z</time>
      </trkpt>
      <trkpt lat="44.08099" lon="7.0168">
        <ele>1647.1999511719</ele>
        <time>2022-08-20T09:01:11.000Z</time>
      </trkpt>
      <trkpt lat="44.08093" lon="7.01686">
        <ele>1648</ele>
        <time>2022-08-20T09:01:14.000Z</time>
      </trkpt>
      <trkpt lat="44.08088" lon="7.01692">
        <ele>1649</ele>
        <time>2022-08-20T09:01:17.000Z</time>
      </trkpt>
      <trkpt lat="44.08087" lon="7.01695">
        <ele>1649.5999755859</ele>
        <time>2022-08-20T09:01:18.000Z</time>
      </trkpt>
      <trkpt lat="44.08085" lon="7.01699">
        <ele>1650.1999511719</ele>
        <time>2022-08-20T09:01:20.000Z</time>
      </trkpt>
      <trkpt lat="44.0808" lon="7.01708">
        <ele>1651.4000244141</ele>
        <time>2022-08-20T09:01:24.000Z</time>
      </trkpt>
      <trkpt lat="44.08078" lon="7.0171">
        <ele>1651.5999755859</ele>
        <time>2022-08-20T09:01:25.000Z</time>
      </trkpt>
      <trkpt lat="44.08073" lon="7.01716">
        <ele>1652.4000244141</ele>
        <time>2022-08-20T09:01:28.000Z</time>
      </trkpt>
      <trkpt lat="44.08068" lon="7.01725">
        <ele>1653.4000244141</ele>
        <time>2022-08-20T09:01:32.000Z</time>
      </trkpt>
      <trkpt lat="44.08067" lon="7.01727">
        <ele>1653.8000488281</ele>
        <time>2022-08-20T09:01:33.000Z</time>
      </trkpt>
      <trkpt lat="44.08064" lon="7.01735">
        <ele>1654.8000488281</ele>
        <time>2022-08-20T09:01:36.000Z</time>
      </trkpt>
      <trkpt lat="44.08062" lon="7.01744">
        <ele>1655.8000488281</ele>
        <time>2022-08-20T09:01:40.000Z</time>
      </trkpt>
      <trkpt lat="44.08062" lon="7.01747">
        <ele>1656</ele>
        <time>2022-08-20T09:01:41.000Z</time>
      </trkpt>
      <trkpt lat="44.08056" lon="7.01759">
        <ele>1656.8000488281</ele>
        <time>2022-08-20T09:01:46.000Z</time>
      </trkpt>
      <trkpt lat="44.08054" lon="7.01761">
        <ele>1657</ele>
        <time>2022-08-20T09:01:47.000Z</time>
      </trkpt>
      <trkpt lat="44.08047" lon="7.01779">
        <ele>1657.5999755859</ele>
        <time>2022-08-20T09:01:53.000Z</time>
      </trkpt>
      <trkpt lat="44.08046" lon="7.01796">
        <ele>1657.8000488281</ele>
        <time>2022-08-20T09:01:58.000Z</time>
      </trkpt>
      <trkpt lat="44.08046" lon="7.01799">
        <ele>1657.8000488281</ele>
        <time>2022-08-20T09:01:59.000Z</time>
      </trkpt>
      <trkpt lat="44.08049" lon="7.01826">
        <ele>1658.8000488281</ele>
        <time>2022-08-20T09:02:07.000Z</time>
      </trkpt>
      <trkpt lat="44.08049" lon="7.0183">
        <ele>1659</ele>
        <time>2022-08-20T09:02:08.000Z</time>
      </trkpt>
      <trkpt lat="44.08049" lon="7.01843">
        <ele>1660</ele>
        <time>2022-08-20T09:02:12.000Z</time>
      </trkpt>
      <trkpt lat="44.08048" lon="7.0185">
        <ele>1660.5999755859</ele>
        <time>2022-08-20T09:02:14.000Z</time>
      </trkpt>
      <trkpt lat="44.08048" lon="7.01878">
        <ele>1660.5999755859</ele>
        <time>2022-08-20T09:02:22.000Z</time>
      </trkpt>
      <trkpt lat="44.08049" lon="7.01888">
        <ele>1661.1999511719</ele>
        <time>2022-08-20T09:02:25.000Z</time>
      </trkpt>
      <trkpt lat="44.08049" lon="7.01898">
        <ele>1662.4000244141</ele>
        <time>2022-08-20T09:02:28.000Z</time>
      </trkpt>
      <trkpt lat="44.0805" lon="7.01908">
        <ele>1663.4000244141</ele>
        <time>2022-08-20T09:02:31.000Z</time>
      </trkpt>
      <trkpt lat="44.08049" lon="7.01924">
        <ele>1664.5999755859</ele>
        <time>2022-08-20T09:02:36.000Z</time>
      </trkpt>
      <trkpt lat="44.08049" lon="7.01932">
        <ele>1665.1999511719</ele>
        <time>2022-08-20T09:02:39.000Z</time>
      </trkpt>
      <trkpt lat="44.0805" lon="7.01935">
        <ele>1665.5999755859</ele>
        <time>2022-08-20T09:02:40.000Z</time>
      </trkpt>
      <trkpt lat="44.0805" lon="7.01944">
        <ele>1666.8000488281</ele>
        <time>2022-08-20T09:02:43.000Z</time>
      </trkpt>
      <trkpt lat="44.08051" lon="7.01951">
        <ele>1668</ele>
        <time>2022-08-20T09:02:46.000Z</time>
      </trkpt>
      <trkpt lat="44.08052" lon="7.01964">
        <ele>1669</ele>
        <time>2022-08-20T09:02:50.000Z</time>
      </trkpt>
      <trkpt lat="44.08052" lon="7.01977">
        <ele>1670.1999511719</ele>
        <time>2022-08-20T09:02:54.000Z</time>
      </trkpt>
      <trkpt lat="44.08052" lon="7.0198">
        <ele>1670.5999755859</ele>
        <time>2022-08-20T09:02:55.000Z</time>
      </trkpt>
      <trkpt lat="44.08052" lon="7.01989">
        <ele>1671.1999511719</ele>
        <time>2022-08-20T09:02:58.000Z</time>
      </trkpt>
      <trkpt lat="44.08053" lon="7.02001">
        <ele>1672.4000244141</ele>
        <time>2022-08-20T09:03:02.000Z</time>
      </trkpt>
      <trkpt lat="44.08053" lon="7.02004">
        <ele>1672.4000244141</ele>
        <time>2022-08-20T09:03:03.000Z</time>
      </trkpt>
      <trkpt lat="44.08055" lon="7.02017">
        <ele>1673.4000244141</ele>
        <time>2022-08-20T09:03:08.000Z</time>
      </trkpt>
      <trkpt lat="44.08055" lon="7.0202">
        <ele>1673.4000244141</ele>
        <time>2022-08-20T09:03:09.000Z</time>
      </trkpt>
      <trkpt lat="44.08055" lon="7.02036">
        <ele>1674.1999511719</ele>
        <time>2022-08-20T09:03:15.000Z</time>
      </trkpt>
      <trkpt lat="44.08055" lon="7.02038">
        <ele>1674.4000244141</ele>
        <time>2022-08-20T09:03:16.000Z</time>
      </trkpt>
      <trkpt lat="44.08056" lon="7.0205">
        <ele>1675.5999755859</ele>
        <time>2022-08-20T09:03:20.000Z</time>
      </trkpt>
      <trkpt lat="44.08062" lon="7.02071">
        <ele>1676.5999755859</ele>
        <time>2022-08-20T09:03:27.000Z</time>
      </trkpt>
      <trkpt lat="44.08063" lon="7.02077">
        <ele>1677</ele>
        <time>2022-08-20T09:03:29.000Z</time>
      </trkpt>
      <trkpt lat="44.08065" lon="7.0209">
        <ele>1677.8000488281</ele>
        <time>2022-08-20T09:03:33.000Z</time>
      </trkpt>
      <trkpt lat="44.08068" lon="7.02105">
        <ele>1678.8000488281</ele>
        <time>2022-08-20T09:03:38.000Z</time>
      </trkpt>
      <trkpt lat="44.08068" lon="7.02107">
        <ele>1678.8000488281</ele>
        <time>2022-08-20T09:03:39.000Z</time>
      </trkpt>
      <trkpt lat="44.08071" lon="7.02122">
        <ele>1679.4000244141</ele>
        <time>2022-08-20T09:03:44.000Z</time>
      </trkpt>
      <trkpt lat="44.08077" lon="7.02143">
        <ele>1679.8000488281</ele>
        <time>2022-08-20T09:03:51.000Z</time>
      </trkpt>
      <trkpt lat="44.08077" lon="7.02146">
        <ele>1680</ele>
        <time>2022-08-20T09:03:52.000Z</time>
      </trkpt>
      <trkpt lat="44.0808" lon="7.02158">
        <ele>1681</ele>
        <time>2022-08-20T09:03:57.000Z</time>
      </trkpt>
      <trkpt lat="44.0808" lon="7.02161">
        <ele>1681</ele>
        <time>2022-08-20T09:03:58.000Z</time>
      </trkpt>
      <trkpt lat="44.08086" lon="7.02183">
        <ele>1682</ele>
        <time>2022-08-20T09:04:06.000Z</time>
      </trkpt>
      <trkpt lat="44.08088" lon="7.02189">
        <ele>1682.4000244141</ele>
        <time>2022-08-20T09:04:08.000Z</time>
      </trkpt>
      <trkpt lat="44.0809" lon="7.02199">
        <ele>1683.1999511719</ele>
        <time>2022-08-20T09:04:12.000Z</time>
      </trkpt>
      <trkpt lat="44.08092" lon="7.02209">
        <ele>1684.1999511719</ele>
        <time>2022-08-20T09:04:16.000Z</time>
      </trkpt>
      <trkpt lat="44.08096" lon="7.02221">
        <ele>1685</ele>
        <time>2022-08-20T09:04:21.000Z</time>
      </trkpt>
      <trkpt lat="44.08097" lon="7.02226">
        <ele>1685.1999511719</ele>
        <time>2022-08-20T09:04:23.000Z</time>
      </trkpt>
      <trkpt lat="44.08096" lon="7.02228">
        <ele>1685.4000244141</ele>
        <time>2022-08-20T09:04:24.000Z</time>
      </trkpt>
      <trkpt lat="44.08093" lon="7.02231">
        <ele>1685.5999755859</ele>
        <time>2022-08-20T09:04:26.000Z</time>
      </trkpt>
      <trkpt lat="44.08088" lon="7.02232">
        <ele>1685.5999755859</ele>
        <time>2022-08-20T09:04:28.000Z</time>
      </trkpt>
      <trkpt lat="44.08086" lon="7.02231">
        <ele>1685.5999755859</ele>
        <time>2022-08-20T09:04:29.000Z</time>
      </trkpt>
      <trkpt lat="44.08082" lon="7.02228">
        <ele>1685.4000244141</ele>
        <time>2022-08-20T09:04:31.000Z</time>
      </trkpt>
      <trkpt lat="44.08067" lon="7.02218">
        <ele>1685.5999755859</ele>
        <time>2022-08-20T09:04:38.000Z</time>
      </trkpt>
      <trkpt lat="44.08061" lon="7.0221">
        <ele>1686.4000244141</ele>
        <time>2022-08-20T09:04:42.000Z</time>
      </trkpt>
      <trkpt lat="44.08057" lon="7.02203">
        <ele>1686.8000488281</ele>
        <time>2022-08-20T09:04:45.000Z</time>
      </trkpt>
      <trkpt lat="44.08048" lon="7.02183">
        <ele>1686.8000488281</ele>
        <time>2022-08-20T09:04:52.000Z</time>
      </trkpt>
      <trkpt lat="44.08038" lon="7.02163">
        <ele>1686.8000488281</ele>
        <time>2022-08-20T09:04:59.000Z</time>
      </trkpt>
      <trkpt lat="44.08032" lon="7.0215">
        <ele>1686.5999755859</ele>
        <time>2022-08-20T09:05:03.000Z</time>
      </trkpt>
      <trkpt lat="44.08027" lon="7.02135">
        <ele>1686</ele>
        <time>2022-08-20T09:05:08.000Z</time>
      </trkpt>
      <trkpt lat="44.08026" lon="7.02132">
        <ele>1686</ele>
        <time>2022-08-20T09:05:09.000Z</time>
      </trkpt>
      <trkpt lat="44.08021" lon="7.02112">
        <ele>1686</ele>
        <time>2022-08-20T09:05:15.000Z</time>
      </trkpt>
      <trkpt lat="44.08018" lon="7.02097">
        <ele>1685.8000488281</ele>
        <time>2022-08-20T09:05:19.000Z</time>
      </trkpt>
      <trkpt lat="44.08015" lon="7.02077">
        <ele>1685.4000244141</ele>
        <time>2022-08-20T09:05:24.000Z</time>
      </trkpt>
      <trkpt lat="44.08012" lon="7.02068">
        <ele>1684.8000488281</ele>
        <time>2022-08-20T09:05:26.000Z</time>
      </trkpt>
      <trkpt lat="44.08002" lon="7.02046">
        <ele>1684.4000244141</ele>
        <time>2022-08-20T09:05:32.000Z</time>
      </trkpt>
      <trkpt lat="44.08" lon="7.02043">
        <ele>1684.1999511719</ele>
        <time>2022-08-20T09:05:33.000Z</time>
      </trkpt>
      <trkpt lat="44.07988" lon="7.0202">
        <ele>1684</ele>
        <time>2022-08-20T09:05:39.000Z</time>
      </trkpt>
      <trkpt lat="44.07979" lon="7.02006">
        <ele>1683.1999511719</ele>
        <time>2022-08-20T09:05:43.000Z</time>
      </trkpt>
      <trkpt lat="44.07973" lon="7.01997">
        <ele>1683</ele>
        <time>2022-08-20T09:05:46.000Z</time>
      </trkpt>
      <trkpt lat="44.07963" lon="7.01978">
        <ele>1683.1999511719</ele>
        <time>2022-08-20T09:05:51.000Z</time>
      </trkpt>
      <trkpt lat="44.0795" lon="7.01956">
        <ele>1683.4000244141</ele>
        <time>2022-08-20T09:05:57.000Z</time>
      </trkpt>
      <trkpt lat="44.07934" lon="7.01933">
        <ele>1683.1999511719</ele>
        <time>2022-08-20T09:06:04.000Z</time>
      </trkpt>
      <trkpt lat="44.07918" lon="7.01916">
        <ele>1682</ele>
        <time>2022-08-20T09:06:09.000Z</time>
      </trkpt>
      <trkpt lat="44.07899" lon="7.01894">
        <ele>1681.8000488281</ele>
        <time>2022-08-20T09:06:16.000Z</time>
      </trkpt>
      <trkpt lat="44.07892" lon="7.01884">
        <ele>1681.5999755859</ele>
        <time>2022-08-20T09:06:19.000Z</time>
      </trkpt>
      <trkpt lat="44.07878" lon="7.01867">
        <ele>1683.4000244141</ele>
        <time>2022-08-20T09:06:25.000Z</time>
      </trkpt>
      <trkpt lat="44.07869" lon="7.01857">
        <ele>1684.4000244141</ele>
        <time>2022-08-20T09:06:29.000Z</time>
      </trkpt>
      <trkpt lat="44.07866" lon="7.01854">
        <ele>1684.5999755859</ele>
        <time>2022-08-20T09:06:30.000Z</time>
      </trkpt>
      <trkpt lat="44.07858" lon="7.01847">
        <ele>1685.5999755859</ele>
        <time>2022-08-20T09:06:33.000Z</time>
      </trkpt>
      <trkpt lat="44.07849" lon="7.01841">
        <ele>1686</ele>
        <time>2022-08-20T09:06:36.000Z</time>
      </trkpt>
      <trkpt lat="44.07839" lon="7.01831">
        <ele>1686.5999755859</ele>
        <time>2022-08-20T09:06:40.000Z</time>
      </trkpt>
      <trkpt lat="44.07835" lon="7.01827">
        <ele>1687.1999511719</ele>
        <time>2022-08-20T09:06:42.000Z</time>
      </trkpt>
      <trkpt lat="44.0783" lon="7.01824">
        <ele>1687.5999755859</ele>
        <time>2022-08-20T09:06:44.000Z</time>
      </trkpt>
      <trkpt lat="44.07819" lon="7.01815">
        <ele>1688.5999755859</ele>
        <time>2022-08-20T09:06:49.000Z</time>
      </trkpt>
      <trkpt lat="44.07816" lon="7.01814">
        <ele>1688.8000488281</ele>
        <time>2022-08-20T09:06:50.000Z</time>
      </trkpt>
      <trkpt lat="44.07797" lon="7.01807">
        <ele>1689.8000488281</ele>
        <time>2022-08-20T09:06:57.000Z</time>
      </trkpt>
      <trkpt lat="44.07794" lon="7.01806">
        <ele>1690</ele>
        <time>2022-08-20T09:06:58.000Z</time>
      </trkpt>
      <trkpt lat="44.07784" lon="7.01807">
        <ele>1691</ele>
        <time>2022-08-20T09:07:02.000Z</time>
      </trkpt>
      <trkpt lat="44.07782" lon="7.01809">
        <ele>1691.1999511719</ele>
        <time>2022-08-20T09:07:03.000Z</time>
      </trkpt>
      <trkpt lat="44.07771" lon="7.01816">
        <ele>1692.1999511719</ele>
        <time>2022-08-20T09:07:08.000Z</time>
      </trkpt>
      <trkpt lat="44.0776" lon="7.01826">
        <ele>1693.1999511719</ele>
        <time>2022-08-20T09:07:14.000Z</time>
      </trkpt>
      <trkpt lat="44.07754" lon="7.01834">
        <ele>1694.4000244141</ele>
        <time>2022-08-20T09:07:18.000Z</time>
      </trkpt>
      <trkpt lat="44.07749" lon="7.0184">
        <ele>1695.1999511719</ele>
        <time>2022-08-20T09:07:21.000Z</time>
      </trkpt>
      <trkpt lat="44.07746" lon="7.01843">
        <ele>1695.5999755859</ele>
        <time>2022-08-20T09:07:23.000Z</time>
      </trkpt>
      <trkpt lat="44.07742" lon="7.01847">
        <ele>1696.8000488281</ele>
        <time>2022-08-20T09:07:26.000Z</time>
      </trkpt>
      <trkpt lat="44.07741" lon="7.01849">
        <ele>1697</ele>
        <time>2022-08-20T09:07:27.000Z</time>
      </trkpt>
      <trkpt lat="44.07734" lon="7.01862">
        <ele>1698</ele>
        <time>2022-08-20T09:07:33.000Z</time>
      </trkpt>
      <trkpt lat="44.07732" lon="7.01864">
        <ele>1698.4000244141</ele>
        <time>2022-08-20T09:07:34.000Z</time>
      </trkpt>
      <trkpt lat="44.0773" lon="7.01868">
        <ele>1699</ele>
        <time>2022-08-20T09:07:36.000Z</time>
      </trkpt>
      <trkpt lat="44.07729" lon="7.0187">
        <ele>1699.8000488281</ele>
        <time>2022-08-20T09:07:39.000Z</time>
      </trkpt>
      <trkpt lat="44.07728" lon="7.01871">
        <ele>1700.1999511719</ele>
        <time>2022-08-20T09:07:42.000Z</time>
      </trkpt>
      <trkpt lat="44.07725" lon="7.01875">
        <ele>1701</ele>
        <time>2022-08-20T09:07:47.000Z</time>
      </trkpt>
      <trkpt lat="44.07722" lon="7.01881">
        <ele>1701</ele>
        <time>2022-08-20T09:07:55.000Z</time>
      </trkpt>
      <trkpt lat="44.07722" lon="7.01882">
        <ele>1701.1999511719</ele>
        <time>2022-08-20T09:07:57.000Z</time>
      </trkpt>
      <trkpt lat="44.07719" lon="7.01885">
        <ele>1702</ele>
        <time>2022-08-20T09:08:01.000Z</time>
      </trkpt>
      <trkpt lat="44.07718" lon="7.01887">
        <ele>1702.4000244141</ele>
        <time>2022-08-20T09:08:03.000Z</time>
      </trkpt>
      <trkpt lat="44.07717" lon="7.01889">
        <ele>1702.1999511719</ele>
        <time>2022-08-20T09:08:07.000Z</time>
      </trkpt>
      <trkpt lat="44.07716" lon="7.01894">
        <ele>1702.4000244141</ele>
        <time>2022-08-20T09:08:13.000Z</time>
      </trkpt>
      <trkpt lat="44.07711" lon="7.01902">
        <ele>1702.5999755859</ele>
        <time>2022-08-20T09:08:21.000Z</time>
      </trkpt>
      <trkpt lat="44.07706" lon="7.01908">
        <ele>1702.5999755859</ele>
        <time>2022-08-20T09:08:29.000Z</time>
      </trkpt>
      <trkpt lat="44.07705" lon="7.01913">
        <ele>1701.8000488281</ele>
        <time>2022-08-20T09:08:35.000Z</time>
      </trkpt>
      <trkpt lat="44.07704" lon="7.01917">
        <ele>1702.4000244141</ele>
        <time>2022-08-20T09:08:41.000Z</time>
      </trkpt>
      <trkpt lat="44.077" lon="7.01924">
        <ele>1703.1999511719</ele>
        <time>2022-08-20T09:08:48.000Z</time>
      </trkpt>
      <trkpt lat="44.077" lon="7.01928">
        <ele>1703.1999511719</ele>
        <time>2022-08-20T09:08:55.000Z</time>
      </trkpt>
      <trkpt lat="44.077" lon="7.01928">
        <ele>1703.4000244141</ele>
        <time>2022-08-20T09:08:57.000Z</time>
      </trkpt>
      <trkpt lat="44.07698" lon="7.01931">
        <ele>1703</ele>
        <time>2022-08-20T09:09:04.000Z</time>
      </trkpt>
      <trkpt lat="44.07694" lon="7.01935">
        <ele>1703.1999511719</ele>
        <time>2022-08-20T09:09:10.000Z</time>
      </trkpt>
      <trkpt lat="44.07691" lon="7.01942">
        <ele>1703.8000488281</ele>
        <time>2022-08-20T09:09:19.000Z</time>
      </trkpt>
      <trkpt lat="44.07688" lon="7.01947">
        <ele>1703.5999755859</ele>
        <time>2022-08-20T09:09:25.000Z</time>
      </trkpt>
      <trkpt lat="44.07681" lon="7.01957">
        <ele>1704.1999511719</ele>
        <time>2022-08-20T09:09:30.000Z</time>
      </trkpt>
      <trkpt lat="44.07672" lon="7.01972">
        <ele>1704.4000244141</ele>
        <time>2022-08-20T09:09:37.000Z</time>
      </trkpt>
      <trkpt lat="44.07671" lon="7.01973">
        <ele>1704.4000244141</ele>
        <time>2022-08-20T09:09:38.000Z</time>
      </trkpt>
      <trkpt lat="44.0767" lon="7.01974">
        <ele>1704.8000488281</ele>
        <time>2022-08-20T09:09:39.000Z</time>
      </trkpt>
      <trkpt lat="44.07666" lon="7.01979">
        <ele>1705.4000244141</ele>
        <time>2022-08-20T09:09:42.000Z</time>
      </trkpt>
      <trkpt lat="44.07656" lon="7.01991">
        <ele>1705.8000488281</ele>
        <time>2022-08-20T09:09:48.000Z</time>
      </trkpt>
      <trkpt lat="44.07648" lon="7.02004">
        <ele>1706.1999511719</ele>
        <time>2022-08-20T09:09:54.000Z</time>
      </trkpt>
      <trkpt lat="44.07644" lon="7.02009">
        <ele>1706.8000488281</ele>
        <time>2022-08-20T09:09:56.000Z</time>
      </trkpt>
      <trkpt lat="44.07642" lon="7.02011">
        <ele>1706.8000488281</ele>
        <time>2022-08-20T09:09:57.000Z</time>
      </trkpt>
      <trkpt lat="44.07638" lon="7.02019">
        <ele>1706.8000488281</ele>
        <time>2022-08-20T09:10:00.000Z</time>
      </trkpt>
      <trkpt lat="44.07627" lon="7.02039">
        <ele>1707.8000488281</ele>
        <time>2022-08-20T09:10:07.000Z</time>
      </trkpt>
      <trkpt lat="44.07626" lon="7.02042">
        <ele>1707.8000488281</ele>
        <time>2022-08-20T09:10:08.000Z</time>
      </trkpt>
      <trkpt lat="44.07619" lon="7.02055">
        <ele>1708.4000244141</ele>
        <time>2022-08-20T09:10:13.000Z</time>
      </trkpt>
      <trkpt lat="44.07616" lon="7.02069">
        <ele>1709</ele>
        <time>2022-08-20T09:10:17.000Z</time>
      </trkpt>
      <trkpt lat="44.07614" lon="7.02076">
        <ele>1709.5999755859</ele>
        <time>2022-08-20T09:10:20.000Z</time>
      </trkpt>
      <trkpt lat="44.07611" lon="7.02092">
        <ele>1710</ele>
        <time>2022-08-20T09:10:25.000Z</time>
      </trkpt>
      <trkpt lat="44.0761" lon="7.02095">
        <ele>1710</ele>
        <time>2022-08-20T09:10:26.000Z</time>
      </trkpt>
      <trkpt lat="44.07605" lon="7.02111">
        <ele>1711.1999511719</ele>
        <time>2022-08-20T09:10:31.000Z</time>
      </trkpt>
      <trkpt lat="44.07604" lon="7.02114">
        <ele>1711.4000244141</ele>
        <time>2022-08-20T09:10:32.000Z</time>
      </trkpt>
      <trkpt lat="44.07601" lon="7.02123">
        <ele>1712.4000244141</ele>
        <time>2022-08-20T09:10:35.000Z</time>
      </trkpt>
      <trkpt lat="44.07595" lon="7.02139">
        <ele>1712.8000488281</ele>
        <time>2022-08-20T09:10:40.000Z</time>
      </trkpt>
      <trkpt lat="44.07588" lon="7.02154">
        <ele>1713.5999755859</ele>
        <time>2022-08-20T09:10:45.000Z</time>
      </trkpt>
      <trkpt lat="44.07583" lon="7.02163">
        <ele>1714</ele>
        <time>2022-08-20T09:10:48.000Z</time>
      </trkpt>
      <trkpt lat="44.07575" lon="7.02176">
        <ele>1714.5999755859</ele>
        <time>2022-08-20T09:10:53.000Z</time>
      </trkpt>
      <trkpt lat="44.07573" lon="7.02179">
        <ele>1714.8000488281</ele>
        <time>2022-08-20T09:10:54.000Z</time>
      </trkpt>
      <trkpt lat="44.07557" lon="7.02192">
        <ele>1715.8000488281</ele>
        <time>2022-08-20T09:11:01.000Z</time>
      </trkpt>
      <trkpt lat="44.07542" lon="7.02199">
        <ele>1716.4000244141</ele>
        <time>2022-08-20T09:11:07.000Z</time>
      </trkpt>
      <trkpt lat="44.07534" lon="7.02202">
        <ele>1716.8000488281</ele>
        <time>2022-08-20T09:11:10.000Z</time>
      </trkpt>
      <trkpt lat="44.07524" lon="7.02202">
        <ele>1717.1999511719</ele>
        <time>2022-08-20T09:11:14.000Z</time>
      </trkpt>
      <trkpt lat="44.07513" lon="7.02201">
        <ele>1718</ele>
        <time>2022-08-20T09:11:18.000Z</time>
      </trkpt>
      <trkpt lat="44.07506" lon="7.02203">
        <ele>1718.4000244141</ele>
        <time>2022-08-20T09:11:21.000Z</time>
      </trkpt>
      <trkpt lat="44.07498" lon="7.02206">
        <ele>1719.4000244141</ele>
        <time>2022-08-20T09:11:25.000Z</time>
      </trkpt>
      <trkpt lat="44.07492" lon="7.02209">
        <ele>1720</ele>
        <time>2022-08-20T09:11:28.000Z</time>
      </trkpt>
      <trkpt lat="44.07488" lon="7.02213">
        <ele>1720.4000244141</ele>
        <time>2022-08-20T09:11:30.000Z</time>
      </trkpt>
      <trkpt lat="44.0748" lon="7.02219">
        <ele>1720.8000488281</ele>
        <time>2022-08-20T09:11:34.000Z</time>
      </trkpt>
      <trkpt lat="44.07471" lon="7.02225">
        <ele>1721.4000244141</ele>
        <time>2022-08-20T09:11:38.000Z</time>
      </trkpt>
      <trkpt lat="44.07466" lon="7.02231">
        <ele>1721.8000488281</ele>
        <time>2022-08-20T09:11:41.000Z</time>
      </trkpt>
      <trkpt lat="44.07462" lon="7.02236">
        <ele>1722.4000244141</ele>
        <time>2022-08-20T09:11:43.000Z</time>
      </trkpt>
      <trkpt lat="44.07455" lon="7.02245">
        <ele>1723.5999755859</ele>
        <time>2022-08-20T09:11:47.000Z</time>
      </trkpt>
      <trkpt lat="44.07453" lon="7.02247">
        <ele>1723.8000488281</ele>
        <time>2022-08-20T09:11:48.000Z</time>
      </trkpt>
      <trkpt lat="44.07444" lon="7.02258">
        <ele>1724.5999755859</ele>
        <time>2022-08-20T09:11:53.000Z</time>
      </trkpt>
      <trkpt lat="44.07437" lon="7.02266">
        <ele>1725</ele>
        <time>2022-08-20T09:11:57.000Z</time>
      </trkpt>
      <trkpt lat="44.07432" lon="7.02272">
        <ele>1725.5999755859</ele>
        <time>2022-08-20T09:12:00.000Z</time>
      </trkpt>
      <trkpt lat="44.07427" lon="7.02278">
        <ele>1726.1999511719</ele>
        <time>2022-08-20T09:12:03.000Z</time>
      </trkpt>
      <trkpt lat="44.0742" lon="7.02287">
        <ele>1726.8000488281</ele>
        <time>2022-08-20T09:12:07.000Z</time>
      </trkpt>
      <trkpt lat="44.07417" lon="7.02292">
        <ele>1727</ele>
        <time>2022-08-20T09:12:09.000Z</time>
      </trkpt>
      <trkpt lat="44.0741" lon="7.02302">
        <ele>1727.5999755859</ele>
        <time>2022-08-20T09:12:14.000Z</time>
      </trkpt>
      <trkpt lat="44.07406" lon="7.02306">
        <ele>1727.8000488281</ele>
        <time>2022-08-20T09:12:16.000Z</time>
      </trkpt>
      <trkpt lat="44.07397" lon="7.02318">
        <ele>1729</ele>
        <time>2022-08-20T09:12:21.000Z</time>
      </trkpt>
      <trkpt lat="44.07387" lon="7.02332">
        <ele>1730.1999511719</ele>
        <time>2022-08-20T09:12:27.000Z</time>
      </trkpt>
      <trkpt lat="44.07383" lon="7.02335">
        <ele>1730.4000244141</ele>
        <time>2022-08-20T09:12:29.000Z</time>
      </trkpt>
      <trkpt lat="44.07368" lon="7.02352">
        <ele>1731.1999511719</ele>
        <time>2022-08-20T09:12:37.000Z</time>
      </trkpt>
      <trkpt lat="44.07367" lon="7.02354">
        <ele>1731.4000244141</ele>
        <time>2022-08-20T09:12:38.000Z</time>
      </trkpt>
      <trkpt lat="44.0736" lon="7.02362">
        <ele>1732</ele>
        <time>2022-08-20T09:12:42.000Z</time>
      </trkpt>
      <trkpt lat="44.07358" lon="7.02363">
        <ele>1732</ele>
        <time>2022-08-20T09:12:43.000Z</time>
      </trkpt>
      <trkpt lat="44.07356" lon="7.02364">
        <ele>1732.4000244141</ele>
        <time>2022-08-20T09:12:44.000Z</time>
      </trkpt>
      <trkpt lat="44.07352" lon="7.02368">
        <ele>1732.5999755859</ele>
        <time>2022-08-20T09:12:46.000Z</time>
      </trkpt>
      <trkpt lat="44.07347" lon="7.0237">
        <ele>1733</ele>
        <time>2022-08-20T09:12:48.000Z</time>
      </trkpt>
      <trkpt lat="44.07342" lon="7.02371">
        <ele>1733.4000244141</ele>
        <time>2022-08-20T09:12:50.000Z</time>
      </trkpt>
      <trkpt lat="44.07335" lon="7.02374">
        <ele>1734</ele>
        <time>2022-08-20T09:12:53.000Z</time>
      </trkpt>
      <trkpt lat="44.07329" lon="7.02377">
        <ele>1734.5999755859</ele>
        <time>2022-08-20T09:12:56.000Z</time>
      </trkpt>
      <trkpt lat="44.07324" lon="7.0238">
        <ele>1735.1999511719</ele>
        <time>2022-08-20T09:12:58.000Z</time>
      </trkpt>
      <trkpt lat="44.0732" lon="7.02382">
        <ele>1735.8000488281</ele>
        <time>2022-08-20T09:13:00.000Z</time>
      </trkpt>
      <trkpt lat="44.07309" lon="7.02386">
        <ele>1736.5999755859</ele>
        <time>2022-08-20T09:13:05.000Z</time>
      </trkpt>
      <trkpt lat="44.07305" lon="7.02388">
        <ele>1736.8000488281</ele>
        <time>2022-08-20T09:13:07.000Z</time>
      </trkpt>
      <trkpt lat="44.07297" lon="7.02392">
        <ele>1737.8000488281</ele>
        <time>2022-08-20T09:13:11.000Z</time>
      </trkpt>
      <trkpt lat="44.07291" lon="7.02395">
        <ele>1739</ele>
        <time>2022-08-20T09:13:14.000Z</time>
      </trkpt>
      <trkpt lat="44.07282" lon="7.02399">
        <ele>1740</ele>
        <time>2022-08-20T09:13:18.000Z</time>
      </trkpt>
      <trkpt lat="44.07276" lon="7.02402">
        <ele>1740.5999755859</ele>
        <time>2022-08-20T09:13:21.000Z</time>
      </trkpt>
      <trkpt lat="44.0727" lon="7.02404">
        <ele>1741.1999511719</ele>
        <time>2022-08-20T09:13:24.000Z</time>
      </trkpt>
      <trkpt lat="44.07266" lon="7.02405">
        <ele>1741.8000488281</ele>
        <time>2022-08-20T09:13:26.000Z</time>
      </trkpt>
      <trkpt lat="44.0726" lon="7.02407">
        <ele>1742.1999511719</ele>
        <time>2022-08-20T09:13:29.000Z</time>
      </trkpt>
      <trkpt lat="44.07256" lon="7.02409">
        <ele>1742.5999755859</ele>
        <time>2022-08-20T09:13:31.000Z</time>
      </trkpt>
      <trkpt lat="44.07245" lon="7.02414">
        <ele>1743.4000244141</ele>
        <time>2022-08-20T09:13:36.000Z</time>
      </trkpt>
      <trkpt lat="44.07241" lon="7.02416">
        <ele>1743.5999755859</ele>
        <time>2022-08-20T09:13:38.000Z</time>
      </trkpt>
      <trkpt lat="44.07224" lon="7.0243">
        <ele>1744.4000244141</ele>
        <time>2022-08-20T09:13:46.000Z</time>
      </trkpt>
      <trkpt lat="44.07222" lon="7.02432">
        <ele>1744.8000488281</ele>
        <time>2022-08-20T09:13:47.000Z</time>
      </trkpt>
      <trkpt lat="44.07216" lon="7.02438">
        <ele>1745.5999755859</ele>
        <time>2022-08-20T09:13:50.000Z</time>
      </trkpt>
      <trkpt lat="44.07209" lon="7.02444">
        <ele>1746.5999755859</ele>
        <time>2022-08-20T09:13:54.000Z</time>
      </trkpt>
      <trkpt lat="44.07204" lon="7.02446">
        <ele>1746.8000488281</ele>
        <time>2022-08-20T09:13:56.000Z</time>
      </trkpt>
      <trkpt lat="44.07198" lon="7.02449">
        <ele>1747.1999511719</ele>
        <time>2022-08-20T09:13:59.000Z</time>
      </trkpt>
      <trkpt lat="44.07185" lon="7.02455">
        <ele>1748</ele>
        <time>2022-08-20T09:14:05.000Z</time>
      </trkpt>
      <trkpt lat="44.07183" lon="7.02456">
        <ele>1748.1999511719</ele>
        <time>2022-08-20T09:14:06.000Z</time>
      </trkpt>
      <trkpt lat="44.07171" lon="7.02459">
        <ele>1749.1999511719</ele>
        <time>2022-08-20T09:14:12.000Z</time>
      </trkpt>
      <trkpt lat="44.07165" lon="7.02462">
        <ele>1750</ele>
        <time>2022-08-20T09:14:16.000Z</time>
      </trkpt>
      <trkpt lat="44.07165" lon="7.02464">
        <ele>1750.1999511719</ele>
        <time>2022-08-20T09:14:17.000Z</time>
      </trkpt>
      <trkpt lat="44.07161" lon="7.02471">
        <ele>1751</ele>
        <time>2022-08-20T09:14:21.000Z</time>
      </trkpt>
      <trkpt lat="44.07159" lon="7.02472">
        <ele>1751.1999511719</ele>
        <time>2022-08-20T09:14:22.000Z</time>
      </trkpt>
      <trkpt lat="44.07155" lon="7.02473">
        <ele>1751.8000488281</ele>
        <time>2022-08-20T09:14:24.000Z</time>
      </trkpt>
      <trkpt lat="44.0715" lon="7.02474">
        <ele>1752.1999511719</ele>
        <time>2022-08-20T09:14:26.000Z</time>
      </trkpt>
      <trkpt lat="44.07148" lon="7.02476">
        <ele>1752.5999755859</ele>
        <time>2022-08-20T09:14:27.000Z</time>
      </trkpt>
      <trkpt lat="44.07143" lon="7.02483">
        <ele>1753.5999755859</ele>
        <time>2022-08-20T09:14:30.000Z</time>
      </trkpt>
      <trkpt lat="44.0714" lon="7.02488">
        <ele>1754.8000488281</ele>
        <time>2022-08-20T09:14:32.000Z</time>
      </trkpt>
      <trkpt lat="44.07135" lon="7.02495">
        <ele>1756.1999511719</ele>
        <time>2022-08-20T09:14:35.000Z</time>
      </trkpt>
      <trkpt lat="44.07133" lon="7.02496">
        <ele>1756.5999755859</ele>
        <time>2022-08-20T09:14:36.000Z</time>
      </trkpt>
      <trkpt lat="44.0713" lon="7.02499">
        <ele>1757.4000244141</ele>
        <time>2022-08-20T09:14:38.000Z</time>
      </trkpt>
      <trkpt lat="44.07129" lon="7.02501">
        <ele>1757.8000488281</ele>
        <time>2022-08-20T09:14:39.000Z</time>
      </trkpt>
      <trkpt lat="44.07128" lon="7.02503">
        <ele>1758.4000244141</ele>
        <time>2022-08-20T09:14:40.000Z</time>
      </trkpt>
      <trkpt lat="44.07128" lon="7.02506">
        <ele>1759.1999511719</ele>
        <time>2022-08-20T09:14:41.000Z</time>
      </trkpt>
      <trkpt lat="44.07128" lon="7.02509">
        <ele>1759.8000488281</ele>
        <time>2022-08-20T09:14:42.000Z</time>
      </trkpt>
      <trkpt lat="44.07131" lon="7.02518">
        <ele>1761</ele>
        <time>2022-08-20T09:14:45.000Z</time>
      </trkpt>
      <trkpt lat="44.0713" lon="7.02521">
        <ele>1761.1999511719</ele>
        <time>2022-08-20T09:14:46.000Z</time>
      </trkpt>
      <trkpt lat="44.07128" lon="7.02525">
        <ele>1762</ele>
        <time>2022-08-20T09:14:48.000Z</time>
      </trkpt>
      <trkpt lat="44.07126" lon="7.02527">
        <ele>1762.4000244141</ele>
        <time>2022-08-20T09:14:49.000Z</time>
      </trkpt>
      <trkpt lat="44.07125" lon="7.02534">
        <ele>1763.4000244141</ele>
        <time>2022-08-20T09:14:52.000Z</time>
      </trkpt>
      <trkpt lat="44.07124" lon="7.02536">
        <ele>1763.5999755859</ele>
        <time>2022-08-20T09:14:53.000Z</time>
      </trkpt>
      <trkpt lat="44.07121" lon="7.02542">
        <ele>1764.5999755859</ele>
        <time>2022-08-20T09:14:56.000Z</time>
      </trkpt>
      <trkpt lat="44.0712" lon="7.02545">
        <ele>1765</ele>
        <time>2022-08-20T09:14:57.000Z</time>
      </trkpt>
      <trkpt lat="44.07119" lon="7.02549">
        <ele>1766</ele>
        <time>2022-08-20T09:14:59.000Z</time>
      </trkpt>
      <trkpt lat="44.07118" lon="7.02551">
        <ele>1766.4000244141</ele>
        <time>2022-08-20T09:15:00.000Z</time>
      </trkpt>
      <trkpt lat="44.07116" lon="7.02555">
        <ele>1767.4000244141</ele>
        <time>2022-08-20T09:15:02.000Z</time>
      </trkpt>
      <trkpt lat="44.07114" lon="7.02559">
        <ele>1768.4000244141</ele>
        <time>2022-08-20T09:15:04.000Z</time>
      </trkpt>
      <trkpt lat="44.0711" lon="7.02566">
        <ele>1769.1999511719</ele>
        <time>2022-08-20T09:15:07.000Z</time>
      </trkpt>
      <trkpt lat="44.07109" lon="7.02568">
        <ele>1769.4000244141</ele>
        <time>2022-08-20T09:15:08.000Z</time>
      </trkpt>
      <trkpt lat="44.07102" lon="7.0258">
        <ele>1770.1999511719</ele>
        <time>2022-08-20T09:15:14.000Z</time>
      </trkpt>
      <trkpt lat="44.071" lon="7.02581">
        <ele>1770.5999755859</ele>
        <time>2022-08-20T09:15:15.000Z</time>
      </trkpt>
      <trkpt lat="44.07096" lon="7.02586">
        <ele>1772</ele>
        <time>2022-08-20T09:15:18.000Z</time>
      </trkpt>
      <trkpt lat="44.07093" lon="7.02592">
        <ele>1773.1999511719</ele>
        <time>2022-08-20T09:15:21.000Z</time>
      </trkpt>
      <trkpt lat="44.07092" lon="7.02594">
        <ele>1773.5999755859</ele>
        <time>2022-08-20T09:15:22.000Z</time>
      </trkpt>
      <trkpt lat="44.07087" lon="7.02592">
        <ele>1774.4000244141</ele>
        <time>2022-08-20T09:15:25.000Z</time>
      </trkpt>
      <trkpt lat="44.07085" lon="7.0259">
        <ele>1774.5999755859</ele>
        <time>2022-08-20T09:15:26.000Z</time>
      </trkpt>
      <trkpt lat="44.07077" lon="7.0258">
        <ele>1775.1999511719</ele>
        <time>2022-08-20T09:15:31.000Z</time>
      </trkpt>
      <trkpt lat="44.07076" lon="7.02577">
        <ele>1775.4000244141</ele>
        <time>2022-08-20T09:15:32.000Z</time>
      </trkpt>
      <trkpt lat="44.0707" lon="7.02561">
        <ele>1776.5999755859</ele>
        <time>2022-08-20T09:15:37.000Z</time>
      </trkpt>
      <trkpt lat="44.0707" lon="7.02558">
        <ele>1777</ele>
        <time>2022-08-20T09:15:38.000Z</time>
      </trkpt>
      <trkpt lat="44.07069" lon="7.02551">
        <ele>1777.8000488281</ele>
        <time>2022-08-20T09:15:40.000Z</time>
      </trkpt>
      <trkpt lat="44.07068" lon="7.02542">
        <ele>1778.8000488281</ele>
        <time>2022-08-20T09:15:43.000Z</time>
      </trkpt>
      <trkpt lat="44.07063" lon="7.0253">
        <ele>1780</ele>
        <time>2022-08-20T09:15:48.000Z</time>
      </trkpt>
      <trkpt lat="44.07062" lon="7.02528">
        <ele>1780.1999511719</ele>
        <time>2022-08-20T09:15:49.000Z</time>
      </trkpt>
      <trkpt lat="44.07058" lon="7.02519">
        <ele>1781.4000244141</ele>
        <time>2022-08-20T09:15:53.000Z</time>
      </trkpt>
      <trkpt lat="44.07057" lon="7.02517">
        <ele>1781.8000488281</ele>
        <time>2022-08-20T09:15:54.000Z</time>
      </trkpt>
      <trkpt lat="44.07056" lon="7.02512">
        <ele>1782.5999755859</ele>
        <time>2022-08-20T09:15:56.000Z</time>
      </trkpt>
      <trkpt lat="44.07052" lon="7.02504">
        <ele>1783.8000488281</ele>
        <time>2022-08-20T09:16:00.000Z</time>
      </trkpt>
      <trkpt lat="44.07051" lon="7.02502">
        <ele>1784</ele>
        <time>2022-08-20T09:16:01.000Z</time>
      </trkpt>
      <trkpt lat="44.07049" lon="7.02498">
        <ele>1784.8000488281</ele>
        <time>2022-08-20T09:16:03.000Z</time>
      </trkpt>
      <trkpt lat="44.07048" lon="7.02494">
        <ele>1785.5999755859</ele>
        <time>2022-08-20T09:16:05.000Z</time>
      </trkpt>
      <trkpt lat="44.07048" lon="7.02491">
        <ele>1786</ele>
        <time>2022-08-20T09:16:06.000Z</time>
      </trkpt>
      <trkpt lat="44.07048" lon="7.02489">
        <ele>1786.4000244141</ele>
        <time>2022-08-20T09:16:07.000Z</time>
      </trkpt>
      <trkpt lat="44.07046" lon="7.02484">
        <ele>1787.1999511719</ele>
        <time>2022-08-20T09:16:09.000Z</time>
      </trkpt>
      <trkpt lat="44.07043" lon="7.02475">
        <ele>1788.8000488281</ele>
        <time>2022-08-20T09:16:12.000Z</time>
      </trkpt>
      <trkpt lat="44.07042" lon="7.0247">
        <ele>1789.8000488281</ele>
        <time>2022-08-20T09:16:14.000Z</time>
      </trkpt>
      <trkpt lat="44.07038" lon="7.02464">
        <ele>1791.1999511719</ele>
        <time>2022-08-20T09:16:17.000Z</time>
      </trkpt>
      <trkpt lat="44.07037" lon="7.02462">
        <ele>1791.5999755859</ele>
        <time>2022-08-20T09:16:18.000Z</time>
      </trkpt>
      <trkpt lat="44.07035" lon="7.02458">
        <ele>1792.4000244141</ele>
        <time>2022-08-20T09:16:20.000Z</time>
      </trkpt>
      <trkpt lat="44.07032" lon="7.02453">
        <ele>1793.5999755859</ele>
        <time>2022-08-20T09:16:23.000Z</time>
      </trkpt>
      <trkpt lat="44.0703" lon="7.02448">
        <ele>1794.4000244141</ele>
        <time>2022-08-20T09:16:25.000Z</time>
      </trkpt>
      <trkpt lat="44.0703" lon="7.02446">
        <ele>1794.5999755859</ele>
        <time>2022-08-20T09:16:26.000Z</time>
      </trkpt>
      <trkpt lat="44.07029" lon="7.02441">
        <ele>1795.8000488281</ele>
        <time>2022-08-20T09:16:28.000Z</time>
      </trkpt>
      <trkpt lat="44.07027" lon="7.02435">
        <ele>1797</ele>
        <time>2022-08-20T09:16:31.000Z</time>
      </trkpt>
      <trkpt lat="44.07022" lon="7.02425">
        <ele>1798</ele>
        <time>2022-08-20T09:16:35.000Z</time>
      </trkpt>
      <trkpt lat="44.07018" lon="7.02418">
        <ele>1799.1999511719</ele>
        <time>2022-08-20T09:16:38.000Z</time>
      </trkpt>
      <trkpt lat="44.07015" lon="7.02412">
        <ele>1800.4000244141</ele>
        <time>2022-08-20T09:16:41.000Z</time>
      </trkpt>
      <trkpt lat="44.07012" lon="7.02409">
        <ele>1801.4000244141</ele>
        <time>2022-08-20T09:16:43.000Z</time>
      </trkpt>
      <trkpt lat="44.0701" lon="7.02405">
        <ele>1802.8000488281</ele>
        <time>2022-08-20T09:16:45.000Z</time>
      </trkpt>
      <trkpt lat="44.07007" lon="7.02401">
        <ele>1804.1999511719</ele>
        <time>2022-08-20T09:16:47.000Z</time>
      </trkpt>
      <trkpt lat="44.07004" lon="7.02398">
        <ele>1805.4000244141</ele>
        <time>2022-08-20T09:16:49.000Z</time>
      </trkpt>
      <trkpt lat="44.07001" lon="7.02395">
        <ele>1806.4000244141</ele>
        <time>2022-08-20T09:16:51.000Z</time>
      </trkpt>
      <trkpt lat="44.07" lon="7.02394">
        <ele>1806.8000488281</ele>
        <time>2022-08-20T09:16:52.000Z</time>
      </trkpt>
      <trkpt lat="44.06999" lon="7.02392">
        <ele>1807.4000244141</ele>
        <time>2022-08-20T09:16:53.000Z</time>
      </trkpt>
      <trkpt lat="44.06998" lon="7.0239">
        <ele>1807.8000488281</ele>
        <time>2022-08-20T09:16:54.000Z</time>
      </trkpt>
      <trkpt lat="44.06996" lon="7.02383">
        <ele>1809</ele>
        <time>2022-08-20T09:16:57.000Z</time>
      </trkpt>
      <trkpt lat="44.06991" lon="7.02373">
        <ele>1810.1999511719</ele>
        <time>2022-08-20T09:17:02.000Z</time>
      </trkpt>
      <trkpt lat="44.0699" lon="7.02371">
        <ele>1810.4000244141</ele>
        <time>2022-08-20T09:17:03.000Z</time>
      </trkpt>
      <trkpt lat="44.06988" lon="7.02365">
        <ele>1811.1999511719</ele>
        <time>2022-08-20T09:17:05.000Z</time>
      </trkpt>
      <trkpt lat="44.06987" lon="7.02358">
        <ele>1812</ele>
        <time>2022-08-20T09:17:07.000Z</time>
      </trkpt>
      <trkpt lat="44.06988" lon="7.02356">
        <ele>1812.5999755859</ele>
        <time>2022-08-20T09:17:08.000Z</time>
      </trkpt>
      <trkpt lat="44.06989" lon="7.02351">
        <ele>1813.8000488281</ele>
        <time>2022-08-20T09:17:10.000Z</time>
      </trkpt>
      <trkpt lat="44.06989" lon="7.02348">
        <ele>1815</ele>
        <time>2022-08-20T09:17:12.000Z</time>
      </trkpt>
      <trkpt lat="44.0699" lon="7.02348">
        <ele>1816</ele>
        <time>2022-08-20T09:17:16.000Z</time>
      </trkpt>
      <trkpt lat="44.0699" lon="7.02348">
        <ele>1816</ele>
        <time>2022-08-20T09:17:17.000Z</time>
      </trkpt>
      <trkpt lat="44.06991" lon="7.02345">
        <ele>1816.5999755859</ele>
        <time>2022-08-20T09:17:23.000Z</time>
      </trkpt>
      <trkpt lat="44.06991" lon="7.02343">
        <ele>1817</ele>
        <time>2022-08-20T09:17:26.000Z</time>
      </trkpt>
      <trkpt lat="44.06992" lon="7.0234">
        <ele>1817.5999755859</ele>
        <time>2022-08-20T09:17:30.000Z</time>
      </trkpt>
      <trkpt lat="44.06993" lon="7.02337">
        <ele>1818.1999511719</ele>
        <time>2022-08-20T09:17:35.000Z</time>
      </trkpt>
      <trkpt lat="44.06993" lon="7.02336">
        <ele>1818.1999511719</ele>
        <time>2022-08-20T09:17:36.000Z</time>
      </trkpt>
      <trkpt lat="44.06993" lon="7.02332">
        <ele>1819.1999511719</ele>
        <time>2022-08-20T09:17:41.000Z</time>
      </trkpt>
      <trkpt lat="44.06993" lon="7.02333">
        <ele>1819.4000244141</ele>
        <time>2022-08-20T09:17:42.000Z</time>
      </trkpt>
      <trkpt lat="44.06994" lon="7.02328">
        <ele>1820</ele>
        <time>2022-08-20T09:17:47.000Z</time>
      </trkpt>
      <trkpt lat="44.06993" lon="7.02313">
        <ele>1820.4000244141</ele>
        <time>2022-08-20T09:17:52.000Z</time>
      </trkpt>
      <trkpt lat="44.06993" lon="7.0231">
        <ele>1821</ele>
        <time>2022-08-20T09:17:53.000Z</time>
      </trkpt>
      <trkpt lat="44.06992" lon="7.02304">
        <ele>1822</ele>
        <time>2022-08-20T09:17:55.000Z</time>
      </trkpt>
      <trkpt lat="44.06992" lon="7.02298">
        <ele>1823.4000244141</ele>
        <time>2022-08-20T09:17:57.000Z</time>
      </trkpt>
      <trkpt lat="44.06992" lon="7.02295">
        <ele>1823.8000488281</ele>
        <time>2022-08-20T09:17:58.000Z</time>
      </trkpt>
      <trkpt lat="44.06992" lon="7.02293">
        <ele>1824.4000244141</ele>
        <time>2022-08-20T09:17:59.000Z</time>
      </trkpt>
      <trkpt lat="44.06993" lon="7.02283">
        <ele>1825.5999755859</ele>
        <time>2022-08-20T09:18:02.000Z</time>
      </trkpt>
      <trkpt lat="44.06994" lon="7.02278">
        <ele>1826.1999511719</ele>
        <time>2022-08-20T09:18:04.000Z</time>
      </trkpt>
      <trkpt lat="44.06995" lon="7.02272">
        <ele>1826.5999755859</ele>
        <time>2022-08-20T09:18:06.000Z</time>
      </trkpt>
      <trkpt lat="44.06998" lon="7.0225">
        <ele>1827.8000488281</ele>
        <time>2022-08-20T09:18:13.000Z</time>
      </trkpt>
      <trkpt lat="44.06999" lon="7.02241">
        <ele>1829</ele>
        <time>2022-08-20T09:18:16.000Z</time>
      </trkpt>
      <trkpt lat="44.06999" lon="7.02231">
        <ele>1830.4000244141</ele>
        <time>2022-08-20T09:18:19.000Z</time>
      </trkpt>
      <trkpt lat="44.06999" lon="7.02228">
        <ele>1830.8000488281</ele>
        <time>2022-08-20T09:18:20.000Z</time>
      </trkpt>
      <trkpt lat="44.07" lon="7.02223">
        <ele>1831.8000488281</ele>
        <time>2022-08-20T09:18:22.000Z</time>
      </trkpt>
      <trkpt lat="44.07" lon="7.02208">
        <ele>1832.8000488281</ele>
        <time>2022-08-20T09:18:27.000Z</time>
      </trkpt>
      <trkpt lat="44.06998" lon="7.02196">
        <ele>1834</ele>
        <time>2022-08-20T09:18:31.000Z</time>
      </trkpt>
      <trkpt lat="44.06996" lon="7.02188">
        <ele>1835.1999511719</ele>
        <time>2022-08-20T09:18:34.000Z</time>
      </trkpt>
      <trkpt lat="44.06993" lon="7.0218">
        <ele>1836.1999511719</ele>
        <time>2022-08-20T09:18:37.000Z</time>
      </trkpt>
      <trkpt lat="44.06989" lon="7.02168">
        <ele>1837</ele>
        <time>2022-08-20T09:18:41.000Z</time>
      </trkpt>
      <trkpt lat="44.06987" lon="7.02163">
        <ele>1837.1999511719</ele>
        <time>2022-08-20T09:18:43.000Z</time>
      </trkpt>
      <trkpt lat="44.06982" lon="7.02148">
        <ele>1838.5999755859</ele>
        <time>2022-08-20T09:18:48.000Z</time>
      </trkpt>
      <trkpt lat="44.06981" lon="7.02145">
        <ele>1838.8000488281</ele>
        <time>2022-08-20T09:18:49.000Z</time>
      </trkpt>
      <trkpt lat="44.06973" lon="7.0212">
        <ele>1839.5999755859</ele>
        <time>2022-08-20T09:18:57.000Z</time>
      </trkpt>
      <trkpt lat="44.0696" lon="7.02095">
        <ele>1840.1999511719</ele>
        <time>2022-08-20T09:19:06.000Z</time>
      </trkpt>
      <trkpt lat="44.06956" lon="7.02087">
        <ele>1840.5999755859</ele>
        <time>2022-08-20T09:19:09.000Z</time>
      </trkpt>
      <trkpt lat="44.06949" lon="7.02075">
        <ele>1841.5999755859</ele>
        <time>2022-08-20T09:19:13.000Z</time>
      </trkpt>
      <trkpt lat="44.06946" lon="7.02069">
        <ele>1842</ele>
        <time>2022-08-20T09:19:15.000Z</time>
      </trkpt>
      <trkpt lat="44.06935" lon="7.02051">
        <ele>1842.5999755859</ele>
        <time>2022-08-20T09:19:22.000Z</time>
      </trkpt>
      <trkpt lat="44.06933" lon="7.02048">
        <ele>1842.8000488281</ele>
        <time>2022-08-20T09:19:23.000Z</time>
      </trkpt>
      <trkpt lat="44.0692" lon="7.02028">
        <ele>1843.5999755859</ele>
        <time>2022-08-20T09:19:31.000Z</time>
      </trkpt>
      <trkpt lat="44.06915" lon="7.02025">
        <ele>1843.8000488281</ele>
        <time>2022-08-20T09:19:33.000Z</time>
      </trkpt>
      <trkpt lat="44.069" lon="7.02017">
        <ele>1844.8000488281</ele>
        <time>2022-08-20T09:19:39.000Z</time>
      </trkpt>
      <trkpt lat="44.06897" lon="7.02017">
        <ele>1845</ele>
        <time>2022-08-20T09:19:40.000Z</time>
      </trkpt>
      <trkpt lat="44.06881" lon="7.02012">
        <ele>1846</ele>
        <time>2022-08-20T09:19:45.000Z</time>
      </trkpt>
      <trkpt lat="44.06877" lon="7.02011">
        <ele>1846</ele>
        <time>2022-08-20T09:19:46.000Z</time>
      </trkpt>
      <trkpt lat="44.06852" lon="7.02">
        <ele>1846</ele>
        <time>2022-08-20T09:19:53.000Z</time>
      </trkpt>
      <trkpt lat="44.0683" lon="7.01973">
        <ele>1845.8000488281</ele>
        <time>2022-08-20T09:20:00.000Z</time>
      </trkpt>
      <trkpt lat="44.06813" lon="7.01952">
        <ele>1846.5999755859</ele>
        <time>2022-08-20T09:20:06.000Z</time>
      </trkpt>
      <trkpt lat="44.068" lon="7.01943">
        <ele>1847.1999511719</ele>
        <time>2022-08-20T09:20:10.000Z</time>
      </trkpt>
      <trkpt lat="44.06785" lon="7.01935">
        <ele>1847.5999755859</ele>
        <time>2022-08-20T09:20:14.000Z</time>
      </trkpt>
      <trkpt lat="44.06774" lon="7.01931">
        <ele>1848.1999511719</ele>
        <time>2022-08-20T09:20:17.000Z</time>
      </trkpt>
      <trkpt lat="44.06763" lon="7.01931">
        <ele>1848.1999511719</ele>
        <time>2022-08-20T09:20:20.000Z</time>
      </trkpt>
      <trkpt lat="44.06736" lon="7.01939">
        <ele>1848.4000244141</ele>
        <time>2022-08-20T09:20:27.000Z</time>
      </trkpt>
      <trkpt lat="44.06711" lon="7.01949">
        <ele>1848.5999755859</ele>
        <time>2022-08-20T09:20:34.000Z</time>
      </trkpt>
      <trkpt lat="44.06692" lon="7.01961">
        <ele>1847.1999511719</ele>
        <time>2022-08-20T09:20:39.000Z</time>
      </trkpt>
      <trkpt lat="44.06681" lon="7.0197">
        <ele>1846.5999755859</ele>
        <time>2022-08-20T09:20:42.000Z</time>
      </trkpt>
      <trkpt lat="44.06678" lon="7.01974">
        <ele>1846.5999755859</ele>
        <time>2022-08-20T09:20:43.000Z</time>
      </trkpt>
      <trkpt lat="44.06671" lon="7.01981">
        <ele>1846.5999755859</ele>
        <time>2022-08-20T09:20:45.000Z</time>
      </trkpt>
      <trkpt lat="44.0666" lon="7.01989">
        <ele>1846.5999755859</ele>
        <time>2022-08-20T09:20:48.000Z</time>
      </trkpt>
      <trkpt lat="44.06649" lon="7.01998">
        <ele>1846.8000488281</ele>
        <time>2022-08-20T09:20:51.000Z</time>
      </trkpt>
      <trkpt lat="44.06643" lon="7.02003">
        <ele>1846.8000488281</ele>
        <time>2022-08-20T09:20:53.000Z</time>
      </trkpt>
      <trkpt lat="44.06635" lon="7.02007">
        <ele>1847.1999511719</ele>
        <time>2022-08-20T09:20:55.000Z</time>
      </trkpt>
      <trkpt lat="44.06608" lon="7.02023">
        <ele>1846.8000488281</ele>
        <time>2022-08-20T09:21:02.000Z</time>
      </trkpt>
      <trkpt lat="44.06589" lon="7.02034">
        <ele>1846</ele>
        <time>2022-08-20T09:21:07.000Z</time>
      </trkpt>
      <trkpt lat="44.0658" lon="7.02039">
        <ele>1845.5999755859</ele>
        <time>2022-08-20T09:21:09.000Z</time>
      </trkpt>
      <trkpt lat="44.06564" lon="7.02053">
        <ele>1845.1999511719</ele>
        <time>2022-08-20T09:21:14.000Z</time>
      </trkpt>
      <trkpt lat="44.06561" lon="7.02055">
        <ele>1844.8000488281</ele>
        <time>2022-08-20T09:21:15.000Z</time>
      </trkpt>
      <trkpt lat="44.06548" lon="7.02064">
        <ele>1846.1999511719</ele>
        <time>2022-08-20T09:21:20.000Z</time>
      </trkpt>
      <trkpt lat="44.06545" lon="7.02065">
        <ele>1846.1999511719</ele>
        <time>2022-08-20T09:21:21.000Z</time>
      </trkpt>
      <trkpt lat="44.06524" lon="7.02076">
        <ele>1847.1999511719</ele>
        <time>2022-08-20T09:21:29.000Z</time>
      </trkpt>
      <trkpt lat="44.06521" lon="7.02077">
        <ele>1847.4000244141</ele>
        <time>2022-08-20T09:21:30.000Z</time>
      </trkpt>
      <trkpt lat="44.06512" lon="7.02077">
        <ele>1848.1999511719</ele>
        <time>2022-08-20T09:21:33.000Z</time>
      </trkpt>
      <trkpt lat="44.065" lon="7.02077">
        <ele>1849</ele>
        <time>2022-08-20T09:21:37.000Z</time>
      </trkpt>
      <trkpt lat="44.06485" lon="7.02078">
        <ele>1849.4000244141</ele>
        <time>2022-08-20T09:21:42.000Z</time>
      </trkpt>
      <trkpt lat="44.06473" lon="7.02078">
        <ele>1850</ele>
        <time>2022-08-20T09:21:46.000Z</time>
      </trkpt>
      <trkpt lat="44.06455" lon="7.02073">
        <ele>1850.4000244141</ele>
        <time>2022-08-20T09:21:52.000Z</time>
      </trkpt>
      <trkpt lat="44.06449" lon="7.02071">
        <ele>1850.4000244141</ele>
        <time>2022-08-20T09:21:54.000Z</time>
      </trkpt>
      <trkpt lat="44.06423" lon="7.02063">
        <ele>1850.5999755859</ele>
        <time>2022-08-20T09:22:03.000Z</time>
      </trkpt>
      <trkpt lat="44.06412" lon="7.02067">
        <ele>1850.5999755859</ele>
        <time>2022-08-20T09:22:08.000Z</time>
      </trkpt>
      <trkpt lat="44.0641" lon="7.02071">
        <ele>1850.4000244141</ele>
        <time>2022-08-20T09:22:10.000Z</time>
      </trkpt>
      <trkpt lat="44.06408" lon="7.02074">
        <ele>1850.1999511719</ele>
        <time>2022-08-20T09:22:13.000Z</time>
      </trkpt>
      <trkpt lat="44.06408" lon="7.02075">
        <ele>1849.8000488281</ele>
        <time>2022-08-20T09:22:20.000Z</time>
      </trkpt>
      <trkpt lat="44.0641" lon="7.02075">
        <ele>1850.8000488281</ele>
        <time>2022-08-20T09:22:30.000Z</time>
      </trkpt>
      <trkpt lat="44.0641" lon="7.02074">
        <ele>1850.8000488281</ele>
        <time>2022-08-20T09:22:33.000Z</time>
      </trkpt>
      <trkpt lat="44.0641" lon="7.02075">
        <ele>1851.4000244141</ele>
        <time>2022-08-20T09:22:36.000Z</time>
      </trkpt>
      <trkpt lat="44.0641" lon="7.02075">
        <ele>1852.4000244141</ele>
        <time>2022-08-20T09:22:40.000Z</time>
      </trkpt>
      <trkpt lat="44.0641" lon="7.02075">
        <ele>1851.1999511719</ele>
        <time>2022-08-20T09:22:51.000Z</time>
      </trkpt>
      <trkpt lat="44.06411" lon="7.02075">
        <ele>1851.4000244141</ele>
        <time>2022-08-20T09:23:03.000Z</time>
      </trkpt>
      <trkpt lat="44.06411" lon="7.02075">
        <ele>1852.1999511719</ele>
        <time>2022-08-20T09:23:24.000Z</time>
      </trkpt>
      <trkpt lat="44.06411" lon="7.02074">
        <ele>1851.8000488281</ele>
        <time>2022-08-20T09:23:43.000Z</time>
      </trkpt>
      <trkpt lat="44.06411" lon="7.02074">
        <ele>1852.1999511719</ele>
        <time>2022-08-20T09:23:58.000Z</time>
      </trkpt>
      <trkpt lat="44.06411" lon="7.02074">
        <ele>1852.4000244141</ele>
        <time>2022-08-20T09:24:01.000Z</time>
      </trkpt>
      <trkpt lat="44.0641" lon="7.02074">
        <ele>1851.5999755859</ele>
        <time>2022-08-20T09:24:11.000Z</time>
      </trkpt>
      <trkpt lat="44.0641" lon="7.02074">
        <ele>1851.4000244141</ele>
        <time>2022-08-20T09:24:15.000Z</time>
      </trkpt>
      <trkpt lat="44.0641" lon="7.02075">
        <ele>1851.1999511719</ele>
        <time>2022-08-20T09:24:19.000Z</time>
      </trkpt>
      <trkpt lat="44.0641" lon="7.02074">
        <ele>1851.1999511719</ele>
        <time>2022-08-20T09:24:32.000Z</time>
      </trkpt>
      <trkpt lat="44.06409" lon="7.02072">
        <ele>1851.1999511719</ele>
        <time>2022-08-20T09:24:38.000Z</time>
      </trkpt>
      <trkpt lat="44.06409" lon="7.02072">
        <ele>1851.5999755859</ele>
        <time>2022-08-20T09:24:46.000Z</time>
      </trkpt>
      <trkpt lat="44.06409" lon="7.02072">
        <ele>1851.1999511719</ele>
        <time>2022-08-20T09:25:02.000Z</time>
      </trkpt>
      <trkpt lat="44.0641" lon="7.02072">
        <ele>1851.1999511719</ele>
        <time>2022-08-20T09:25:15.000Z</time>
      </trkpt>
      <trkpt lat="44.06409" lon="7.02072">
        <ele>1851.1999511719</ele>
        <time>2022-08-20T09:25:29.000Z</time>
      </trkpt>
      <trkpt lat="44.06409" lon="7.02072">
        <ele>1850.8000488281</ele>
        <time>2022-08-20T09:25:42.000Z</time>
      </trkpt>
      <trkpt lat="44.06409" lon="7.02071">
        <ele>1851.8000488281</ele>
        <time>2022-08-20T09:26:01.000Z</time>
      </trkpt>
      <trkpt lat="44.06409" lon="7.02071">
        <ele>1850.5999755859</ele>
        <time>2022-08-20T09:26:11.000Z</time>
      </trkpt>
      <trkpt lat="44.06409" lon="7.02071">
        <ele>1850.8000488281</ele>
        <time>2022-08-20T09:26:31.000Z</time>
      </trkpt>
      <trkpt lat="44.06409" lon="7.02071">
        <ele>1850.8000488281</ele>
        <time>2022-08-20T09:26:49.000Z</time>
      </trkpt>
      <trkpt lat="44.06409" lon="7.02071">
        <ele>1850.5999755859</ele>
        <time>2022-08-20T09:27:07.000Z</time>
      </trkpt>
      <trkpt lat="44.06409" lon="7.02071">
        <ele>1850.4000244141</ele>
        <time>2022-08-20T09:27:09.000Z</time>
      </trkpt>
      <trkpt lat="44.0641" lon="7.02072">
        <ele>1850.5999755859</ele>
        <time>2022-08-20T09:27:14.000Z</time>
      </trkpt>
      <trkpt lat="44.0641" lon="7.02072">
        <ele>1850.5999755859</ele>
        <time>2022-08-20T09:27:22.000Z</time>
      </trkpt>
      <trkpt lat="44.06409" lon="7.02072">
        <ele>1850.5999755859</ele>
        <time>2022-08-20T09:27:27.000Z</time>
      </trkpt>
      <trkpt lat="44.06409" lon="7.02072">
        <ele>1850.4000244141</ele>
        <time>2022-08-20T09:27:36.000Z</time>
      </trkpt>
      <trkpt lat="44.06408" lon="7.02072">
        <ele>1850</ele>
        <time>2022-08-20T09:27:59.000Z</time>
      </trkpt>
      <trkpt lat="44.06409" lon="7.02071">
        <ele>1850.5999755859</ele>
        <time>2022-08-20T09:28:05.000Z</time>
      </trkpt>
      <trkpt lat="44.0641" lon="7.02072">
        <ele>1850.4000244141</ele>
        <time>2022-08-20T09:28:10.000Z</time>
      </trkpt>
      <trkpt lat="44.0641" lon="7.02073">
        <ele>1850.1999511719</ele>
        <time>2022-08-20T09:28:19.000Z</time>
      </trkpt>
      <trkpt lat="44.06411" lon="7.02073">
        <ele>1850.5999755859</ele>
        <time>2022-08-20T09:28:32.000Z</time>
      </trkpt>
      <trkpt lat="44.0641" lon="7.02073">
        <ele>1850.1999511719</ele>
        <time>2022-08-20T09:28:48.000Z</time>
      </trkpt>
      <trkpt lat="44.06411" lon="7.02074">
        <ele>1850.4000244141</ele>
        <time>2022-08-20T09:28:56.000Z</time>
      </trkpt>
      <trkpt lat="44.06411" lon="7.02074">
        <ele>1849.5999755859</ele>
        <time>2022-08-20T09:29:02.000Z</time>
      </trkpt>
      <trkpt lat="44.06411" lon="7.02074">
        <ele>1849.4000244141</ele>
        <time>2022-08-20T09:29:06.000Z</time>
      </trkpt>
      <trkpt lat="44.06411" lon="7.02074">
        <ele>1849.1999511719</ele>
        <time>2022-08-20T09:29:21.000Z</time>
      </trkpt>
      <trkpt lat="44.06411" lon="7.02075">
        <ele>1849.1999511719</ele>
        <time>2022-08-20T09:29:38.000Z</time>
      </trkpt>
      <trkpt lat="44.0641" lon="7.02075">
        <ele>1849.1999511719</ele>
        <time>2022-08-20T09:29:49.000Z</time>
      </trkpt>
      <trkpt lat="44.06411" lon="7.02075">
        <ele>1849.1999511719</ele>
        <time>2022-08-20T09:29:54.000Z</time>
      </trkpt>
      <trkpt lat="44.06411" lon="7.02075">
        <ele>1849</ele>
        <time>2022-08-20T09:30:01.000Z</time>
      </trkpt>
      <trkpt lat="44.06411" lon="7.02075">
        <ele>1849.1999511719</ele>
        <time>2022-08-20T09:30:09.000Z</time>
      </trkpt>
      <trkpt lat="44.06411" lon="7.02075">
        <ele>1849.5999755859</ele>
        <time>2022-08-20T09:30:32.000Z</time>
      </trkpt>
      <trkpt lat="44.06411" lon="7.02076">
        <ele>1849.4000244141</ele>
        <time>2022-08-20T09:30:44.000Z</time>
      </trkpt>
      <trkpt lat="44.06411" lon="7.02076">
        <ele>1849.5999755859</ele>
        <time>2022-08-20T09:30:55.000Z</time>
      </trkpt>
      <trkpt lat="44.0641" lon="7.02076">
        <ele>1849.8000488281</ele>
        <time>2022-08-20T09:31:04.000Z</time>
      </trkpt>
      <trkpt lat="44.0641" lon="7.02075">
        <ele>1848.5999755859</ele>
        <time>2022-08-20T09:31:09.000Z</time>
      </trkpt>
      <trkpt lat="44.0641" lon="7.02075">
        <ele>1849</ele>
        <time>2022-08-20T09:31:13.000Z</time>
      </trkpt>
      <trkpt lat="44.06411" lon="7.02075">
        <ele>1849.4000244141</ele>
        <time>2022-08-20T09:31:21.000Z</time>
      </trkpt>
      <trkpt lat="44.06411" lon="7.02076">
        <ele>1849</ele>
        <time>2022-08-20T09:31:27.000Z</time>
      </trkpt>
      <trkpt lat="44.06412" lon="7.02076">
        <ele>1849.1999511719</ele>
        <time>2022-08-20T09:31:33.000Z</time>
      </trkpt>
      <trkpt lat="44.06412" lon="7.02077">
        <ele>1849.8000488281</ele>
        <time>2022-08-20T09:31:57.000Z</time>
      </trkpt>
      <trkpt lat="44.06411" lon="7.02078">
        <ele>1850.1999511719</ele>
        <time>2022-08-20T09:32:12.000Z</time>
      </trkpt>
      <trkpt lat="44.06411" lon="7.02076">
        <ele>1849.8000488281</ele>
        <time>2022-08-20T09:32:26.000Z</time>
      </trkpt>
      <trkpt lat="44.06411" lon="7.02075">
        <ele>1850.1999511719</ele>
        <time>2022-08-20T09:32:33.000Z</time>
      </trkpt>
      <trkpt lat="44.06411" lon="7.02076">
        <ele>1850</ele>
        <time>2022-08-20T09:32:42.000Z</time>
      </trkpt>
      <trkpt lat="44.06411" lon="7.02076">
        <ele>1850</ele>
        <time>2022-08-20T09:33:02.000Z</time>
      </trkpt>
      <trkpt lat="44.06411" lon="7.02076">
        <ele>1850.1999511719</ele>
        <time>2022-08-20T09:33:17.000Z</time>
      </trkpt>
      <trkpt lat="44.0641" lon="7.02077">
        <ele>1850.1999511719</ele>
        <time>2022-08-20T09:33:31.000Z</time>
      </trkpt>
      <trkpt lat="44.0641" lon="7.02076">
        <ele>1850.1999511719</ele>
        <time>2022-08-20T09:33:38.000Z</time>
      </trkpt>
      <trkpt lat="44.06411" lon="7.02075">
        <ele>1850.4000244141</ele>
        <time>2022-08-20T09:33:40.000Z</time>
      </trkpt>
      <trkpt lat="44.06411" lon="7.02076">
        <ele>1850.5999755859</ele>
        <time>2022-08-20T09:33:45.000Z</time>
      </trkpt>
      <trkpt lat="44.06411" lon="7.02076">
        <ele>1850</ele>
        <time>2022-08-20T09:33:52.000Z</time>
      </trkpt>
      <trkpt lat="44.06411" lon="7.02075">
        <ele>1850.5999755859</ele>
        <time>2022-08-20T09:34:00.000Z</time>
      </trkpt>
      <trkpt lat="44.06411" lon="7.02075">
        <ele>1849.1999511719</ele>
        <time>2022-08-20T09:34:05.000Z</time>
      </trkpt>
      <trkpt lat="44.06411" lon="7.02075">
        <ele>1849.8000488281</ele>
        <time>2022-08-20T09:34:12.000Z</time>
      </trkpt>
      <trkpt lat="44.06411" lon="7.02074">
        <ele>1850</ele>
        <time>2022-08-20T09:34:26.000Z</time>
      </trkpt>
      <trkpt lat="44.06411" lon="7.02074">
        <ele>1850.1999511719</ele>
        <time>2022-08-20T09:34:35.000Z</time>
      </trkpt>
      <trkpt lat="44.06411" lon="7.02074">
        <ele>1850.1999511719</ele>
        <time>2022-08-20T09:34:37.000Z</time>
      </trkpt>
      <trkpt lat="44.06411" lon="7.02075">
        <ele>1850.4000244141</ele>
        <time>2022-08-20T09:34:49.000Z</time>
      </trkpt>
      <trkpt lat="44.06409" lon="7.02074">
        <ele>1849.5999755859</ele>
        <time>2022-08-20T09:34:55.000Z</time>
      </trkpt>
      <trkpt lat="44.06408" lon="7.02075">
        <ele>1850.4000244141</ele>
        <time>2022-08-20T09:34:59.000Z</time>
      </trkpt>
      <trkpt lat="44.06407" lon="7.02076">
        <ele>1850.1999511719</ele>
        <time>2022-08-20T09:35:00.000Z</time>
      </trkpt>
      <trkpt lat="44.06404" lon="7.02077">
        <ele>1850</ele>
        <time>2022-08-20T09:35:03.000Z</time>
      </trkpt>
      <trkpt lat="44.06402" lon="7.02077">
        <ele>1850.1999511719</ele>
        <time>2022-08-20T09:35:04.000Z</time>
      </trkpt>
      <trkpt lat="44.06399" lon="7.02076">
        <ele>1850</ele>
        <time>2022-08-20T09:35:06.000Z</time>
      </trkpt>
      <trkpt lat="44.06387" lon="7.02076">
        <ele>1849.5999755859</ele>
        <time>2022-08-20T09:35:12.000Z</time>
      </trkpt>
      <trkpt lat="44.06373" lon="7.02079">
        <ele>1849.1999511719</ele>
        <time>2022-08-20T09:35:16.000Z</time>
      </trkpt>
      <trkpt lat="44.06368" lon="7.0208">
        <ele>1849</ele>
        <time>2022-08-20T09:35:17.000Z</time>
      </trkpt>
      <trkpt lat="44.06351" lon="7.02086">
        <ele>1847.5999755859</ele>
        <time>2022-08-20T09:35:20.000Z</time>
      </trkpt>
      <trkpt lat="44.06337" lon="7.02089">
        <ele>1847</ele>
        <time>2022-08-20T09:35:22.000Z</time>
      </trkpt>
      <trkpt lat="44.06322" lon="7.02094">
        <ele>1845.5999755859</ele>
        <time>2022-08-20T09:35:24.000Z</time>
      </trkpt>
      <trkpt lat="44.06314" lon="7.02096">
        <ele>1843.5999755859</ele>
        <time>2022-08-20T09:35:25.000Z</time>
      </trkpt>
      <trkpt lat="44.06306" lon="7.02098">
        <ele>1842</ele>
        <time>2022-08-20T09:35:26.000Z</time>
      </trkpt>
      <trkpt lat="44.06299" lon="7.02101">
        <ele>1839.4000244141</ele>
        <time>2022-08-20T09:35:27.000Z</time>
      </trkpt>
      <trkpt lat="44.06292" lon="7.02102">
        <ele>1838.1999511719</ele>
        <time>2022-08-20T09:35:28.000Z</time>
      </trkpt>
      <trkpt lat="44.06286" lon="7.02104">
        <ele>1836.8000488281</ele>
        <time>2022-08-20T09:35:29.000Z</time>
      </trkpt>
      <trkpt lat="44.06274" lon="7.02107">
        <ele>1835.8000488281</ele>
        <time>2022-08-20T09:35:31.000Z</time>
      </trkpt>
      <trkpt lat="44.06255" lon="7.02111">
        <ele>1834.8000488281</ele>
        <time>2022-08-20T09:35:35.000Z</time>
      </trkpt>
      <trkpt lat="44.0625" lon="7.02111">
        <ele>1834.5999755859</ele>
        <time>2022-08-20T09:35:36.000Z</time>
      </trkpt>
      <trkpt lat="44.06234" lon="7.02114">
        <ele>1833.8000488281</ele>
        <time>2022-08-20T09:35:40.000Z</time>
      </trkpt>
      <trkpt lat="44.06221" lon="7.02118">
        <ele>1833.5999755859</ele>
        <time>2022-08-20T09:35:43.000Z</time>
      </trkpt>
      <trkpt lat="44.06199" lon="7.0213">
        <ele>1834.5999755859</ele>
        <time>2022-08-20T09:35:49.000Z</time>
      </trkpt>
      <trkpt lat="44.06195" lon="7.02133">
        <ele>1834.8000488281</ele>
        <time>2022-08-20T09:35:50.000Z</time>
      </trkpt>
      <trkpt lat="44.06181" lon="7.02144">
        <ele>1835.8000488281</ele>
        <time>2022-08-20T09:35:54.000Z</time>
      </trkpt>
      <trkpt lat="44.06172" lon="7.02154">
        <ele>1836.5999755859</ele>
        <time>2022-08-20T09:35:57.000Z</time>
      </trkpt>
      <trkpt lat="44.06167" lon="7.0216">
        <ele>1837</ele>
        <time>2022-08-20T09:35:59.000Z</time>
      </trkpt>
      <trkpt lat="44.06154" lon="7.02172">
        <ele>1837.8000488281</ele>
        <time>2022-08-20T09:36:03.000Z</time>
      </trkpt>
      <trkpt lat="44.06141" lon="7.02191">
        <ele>1837.8000488281</ele>
        <time>2022-08-20T09:36:08.000Z</time>
      </trkpt>
      <trkpt lat="44.06121" lon="7.0221">
        <ele>1836.1999511719</ele>
        <time>2022-08-20T09:36:14.000Z</time>
      </trkpt>
      <trkpt lat="44.06117" lon="7.02213">
        <ele>1835.8000488281</ele>
        <time>2022-08-20T09:36:15.000Z</time>
      </trkpt>
      <trkpt lat="44.06107" lon="7.02217">
        <ele>1834.8000488281</ele>
        <time>2022-08-20T09:36:18.000Z</time>
      </trkpt>
      <trkpt lat="44.06105" lon="7.02218">
        <ele>1834.5999755859</ele>
        <time>2022-08-20T09:36:19.000Z</time>
      </trkpt>
      <trkpt lat="44.06097" lon="7.0222">
        <ele>1833.8000488281</ele>
        <time>2022-08-20T09:36:22.000Z</time>
      </trkpt>
      <trkpt lat="44.0609" lon="7.0222">
        <ele>1832.8000488281</ele>
        <time>2022-08-20T09:36:25.000Z</time>
      </trkpt>
      <trkpt lat="44.06091" lon="7.0222">
        <ele>1832.5999755859</ele>
        <time>2022-08-20T09:36:26.000Z</time>
      </trkpt>
      <trkpt lat="44.0609" lon="7.0222">
        <ele>1831.8000488281</ele>
        <time>2022-08-20T09:36:29.000Z</time>
      </trkpt>
      <trkpt lat="44.0609" lon="7.0222">
        <ele>1831.5999755859</ele>
        <time>2022-08-20T09:36:33.000Z</time>
      </trkpt>
      <trkpt lat="44.06089" lon="7.0222">
        <ele>1831.4000244141</ele>
        <time>2022-08-20T09:36:39.000Z</time>
      </trkpt>
      <trkpt lat="44.06087" lon="7.02219">
        <ele>1831.5999755859</ele>
        <time>2022-08-20T09:36:41.000Z</time>
      </trkpt>
      <trkpt lat="44.06083" lon="7.02218">
        <ele>1831.8000488281</ele>
        <time>2022-08-20T09:36:43.000Z</time>
      </trkpt>
      <trkpt lat="44.06077" lon="7.02218">
        <ele>1831.8000488281</ele>
        <time>2022-08-20T09:36:45.000Z</time>
      </trkpt>
      <trkpt lat="44.06065" lon="7.02217">
        <ele>1830.4000244141</ele>
        <time>2022-08-20T09:36:48.000Z</time>
      </trkpt>
      <trkpt lat="44.06049" lon="7.02217">
        <ele>1828.8000488281</ele>
        <time>2022-08-20T09:36:51.000Z</time>
      </trkpt>
      <trkpt lat="44.06036" lon="7.02216">
        <ele>1826.1999511719</ele>
        <time>2022-08-20T09:36:53.000Z</time>
      </trkpt>
      <trkpt lat="44.06029" lon="7.02216">
        <ele>1824.8000488281</ele>
        <time>2022-08-20T09:36:54.000Z</time>
      </trkpt>
      <trkpt lat="44.06022" lon="7.02216">
        <ele>1823.1999511719</ele>
        <time>2022-08-20T09:36:55.000Z</time>
      </trkpt>
      <trkpt lat="44.06016" lon="7.02217">
        <ele>1820.8000488281</ele>
        <time>2022-08-20T09:36:56.000Z</time>
      </trkpt>
      <trkpt lat="44.0601" lon="7.02217">
        <ele>1819.4000244141</ele>
        <time>2022-08-20T09:36:57.000Z</time>
      </trkpt>
      <trkpt lat="44.06001" lon="7.02218">
        <ele>1818.1999511719</ele>
        <time>2022-08-20T09:36:59.000Z</time>
      </trkpt>
      <trkpt lat="44.05998" lon="7.02219">
        <ele>1818</ele>
        <time>2022-08-20T09:37:00.000Z</time>
      </trkpt>
      <trkpt lat="44.05986" lon="7.02228">
        <ele>1818.4000244141</ele>
        <time>2022-08-20T09:37:04.000Z</time>
      </trkpt>
      <trkpt lat="44.0597" lon="7.02232">
        <ele>1817</ele>
        <time>2022-08-20T09:37:08.000Z</time>
      </trkpt>
      <trkpt lat="44.05966" lon="7.02232">
        <ele>1816.8000488281</ele>
        <time>2022-08-20T09:37:09.000Z</time>
      </trkpt>
      <trkpt lat="44.05958" lon="7.02231">
        <ele>1817.1999511719</ele>
        <time>2022-08-20T09:37:11.000Z</time>
      </trkpt>
      <trkpt lat="44.05945" lon="7.02226">
        <ele>1817.1999511719</ele>
        <time>2022-08-20T09:37:14.000Z</time>
      </trkpt>
      <trkpt lat="44.05928" lon="7.02218">
        <ele>1815.5999755859</ele>
        <time>2022-08-20T09:37:18.000Z</time>
      </trkpt>
      <trkpt lat="44.05922" lon="7.02215">
        <ele>1815.4000244141</ele>
        <time>2022-08-20T09:37:20.000Z</time>
      </trkpt>
      <trkpt lat="44.05916" lon="7.0221">
        <ele>1814.4000244141</ele>
        <time>2022-08-20T09:37:23.000Z</time>
      </trkpt>
      <trkpt lat="44.0591" lon="7.02206">
        <ele>1813.8000488281</ele>
        <time>2022-08-20T09:37:25.000Z</time>
      </trkpt>
      <trkpt lat="44.05906" lon="7.022">
        <ele>1813.1999511719</ele>
        <time>2022-08-20T09:37:27.000Z</time>
      </trkpt>
      <trkpt lat="44.05904" lon="7.02197">
        <ele>1813</ele>
        <time>2022-08-20T09:37:28.000Z</time>
      </trkpt>
      <trkpt lat="44.05901" lon="7.02194">
        <ele>1812.8000488281</ele>
        <time>2022-08-20T09:37:29.000Z</time>
      </trkpt>
      <trkpt lat="44.05894" lon="7.02184">
        <ele>1812.4000244141</ele>
        <time>2022-08-20T09:37:31.000Z</time>
      </trkpt>
      <trkpt lat="44.05891" lon="7.02178">
        <ele>1812.4000244141</ele>
        <time>2022-08-20T09:37:32.000Z</time>
      </trkpt>
      <trkpt lat="44.05887" lon="7.02174">
        <ele>1812.1999511719</ele>
        <time>2022-08-20T09:37:33.000Z</time>
      </trkpt>
      <trkpt lat="44.05875" lon="7.02157">
        <ele>1811.5999755859</ele>
        <time>2022-08-20T09:37:37.000Z</time>
      </trkpt>
      <trkpt lat="44.05864" lon="7.02143">
        <ele>1811.4000244141</ele>
        <time>2022-08-20T09:37:41.000Z</time>
      </trkpt>
      <trkpt lat="44.05847" lon="7.02129">
        <ele>1810.8000488281</ele>
        <time>2022-08-20T09:37:46.000Z</time>
      </trkpt>
      <trkpt lat="44.05843" lon="7.02126">
        <ele>1810.4000244141</ele>
        <time>2022-08-20T09:37:47.000Z</time>
      </trkpt>
      <trkpt lat="44.05839" lon="7.02123">
        <ele>1809</ele>
        <time>2022-08-20T09:37:48.000Z</time>
      </trkpt>
      <trkpt lat="44.05836" lon="7.0212">
        <ele>1807.5999755859</ele>
        <time>2022-08-20T09:37:49.000Z</time>
      </trkpt>
      <trkpt lat="44.05829" lon="7.02115">
        <ele>1805.8000488281</ele>
        <time>2022-08-20T09:37:52.000Z</time>
      </trkpt>
      <trkpt lat="44.05821" lon="7.0211">
        <ele>1804.5999755859</ele>
        <time>2022-08-20T09:37:55.000Z</time>
      </trkpt>
      <trkpt lat="44.05815" lon="7.02105">
        <ele>1803.4000244141</ele>
        <time>2022-08-20T09:37:57.000Z</time>
      </trkpt>
      <trkpt lat="44.05811" lon="7.02101">
        <ele>1802</ele>
        <time>2022-08-20T09:37:59.000Z</time>
      </trkpt>
      <trkpt lat="44.05806" lon="7.02095">
        <ele>1800.5999755859</ele>
        <time>2022-08-20T09:38:01.000Z</time>
      </trkpt>
      <trkpt lat="44.05804" lon="7.02092">
        <ele>1799.8000488281</ele>
        <time>2022-08-20T09:38:02.000Z</time>
      </trkpt>
      <trkpt lat="44.05802" lon="7.02089">
        <ele>1799</ele>
        <time>2022-08-20T09:38:03.000Z</time>
      </trkpt>
      <trkpt lat="44.05797" lon="7.02083">
        <ele>1798</ele>
        <time>2022-08-20T09:38:05.000Z</time>
      </trkpt>
      <trkpt lat="44.05792" lon="7.02077">
        <ele>1797.1999511719</ele>
        <time>2022-08-20T09:38:07.000Z</time>
      </trkpt>
      <trkpt lat="44.05788" lon="7.02073">
        <ele>1795.8000488281</ele>
        <time>2022-08-20T09:38:08.000Z</time>
      </trkpt>
      <trkpt lat="44.05781" lon="7.02065">
        <ele>1794.1999511719</ele>
        <time>2022-08-20T09:38:10.000Z</time>
      </trkpt>
      <trkpt lat="44.05779" lon="7.02062">
        <ele>1793</ele>
        <time>2022-08-20T09:38:11.000Z</time>
      </trkpt>
      <trkpt lat="44.05773" lon="7.02056">
        <ele>1792.4000244141</ele>
        <time>2022-08-20T09:38:13.000Z</time>
      </trkpt>
      <trkpt lat="44.05772" lon="7.02054">
        <ele>1791.4000244141</ele>
        <time>2022-08-20T09:38:14.000Z</time>
      </trkpt>
      <trkpt lat="44.05768" lon="7.02046">
        <ele>1789.5999755859</ele>
        <time>2022-08-20T09:38:17.000Z</time>
      </trkpt>
      <trkpt lat="44.05764" lon="7.02043">
        <ele>1788.8000488281</ele>
        <time>2022-08-20T09:38:19.000Z</time>
      </trkpt>
      <trkpt lat="44.05761" lon="7.02042">
        <ele>1788.4000244141</ele>
        <time>2022-08-20T09:38:20.000Z</time>
      </trkpt>
      <trkpt lat="44.05758" lon="7.0204">
        <ele>1788.4000244141</ele>
        <time>2022-08-20T09:38:21.000Z</time>
      </trkpt>
      <trkpt lat="44.05753" lon="7.02037">
        <ele>1786.8000488281</ele>
        <time>2022-08-20T09:38:25.000Z</time>
      </trkpt>
      <trkpt lat="44.0575" lon="7.02035">
        <ele>1785.4000244141</ele>
        <time>2022-08-20T09:38:27.000Z</time>
      </trkpt>
      <trkpt lat="44.05746" lon="7.02032">
        <ele>1784</ele>
        <time>2022-08-20T09:38:29.000Z</time>
      </trkpt>
      <trkpt lat="44.05743" lon="7.02031">
        <ele>1783.8000488281</ele>
        <time>2022-08-20T09:38:30.000Z</time>
      </trkpt>
      <trkpt lat="44.0574" lon="7.02028">
        <ele>1782.4000244141</ele>
        <time>2022-08-20T09:38:32.000Z</time>
      </trkpt>
      <trkpt lat="44.05737" lon="7.02024">
        <ele>1781</ele>
        <time>2022-08-20T09:38:34.000Z</time>
      </trkpt>
      <trkpt lat="44.05736" lon="7.02023">
        <ele>1780.4000244141</ele>
        <time>2022-08-20T09:38:35.000Z</time>
      </trkpt>
      <trkpt lat="44.05733" lon="7.0202">
        <ele>1779.8000488281</ele>
        <time>2022-08-20T09:38:37.000Z</time>
      </trkpt>
      <trkpt lat="44.05727" lon="7.02013">
        <ele>1778.8000488281</ele>
        <time>2022-08-20T09:38:40.000Z</time>
      </trkpt>
      <trkpt lat="44.05722" lon="7.02009">
        <ele>1777.5999755859</ele>
        <time>2022-08-20T09:38:42.000Z</time>
      </trkpt>
      <trkpt lat="44.05719" lon="7.02007">
        <ele>1776.1999511719</ele>
        <time>2022-08-20T09:38:44.000Z</time>
      </trkpt>
      <trkpt lat="44.05718" lon="7.02007">
        <ele>1775</ele>
        <time>2022-08-20T09:38:46.000Z</time>
      </trkpt>
      <trkpt lat="44.05712" lon="7.02005">
        <ele>1774.1999511719</ele>
        <time>2022-08-20T09:38:49.000Z</time>
      </trkpt>
      <trkpt lat="44.0571" lon="7.02004">
        <ele>1773.8000488281</ele>
        <time>2022-08-20T09:38:50.000Z</time>
      </trkpt>
      <trkpt lat="44.05704" lon="7.02002">
        <ele>1773.1999511719</ele>
        <time>2022-08-20T09:38:54.000Z</time>
      </trkpt>
      <trkpt lat="44.05702" lon="7.02002">
        <ele>1772.5999755859</ele>
        <time>2022-08-20T09:38:56.000Z</time>
      </trkpt>
      <trkpt lat="44.05697" lon="7.02003">
        <ele>1772.1999511719</ele>
        <time>2022-08-20T09:38:58.000Z</time>
      </trkpt>
      <trkpt lat="44.05689" lon="7.02003">
        <ele>1771.5999755859</ele>
        <time>2022-08-20T09:39:00.000Z</time>
      </trkpt>
      <trkpt lat="44.05681" lon="7.02002">
        <ele>1769.8000488281</ele>
        <time>2022-08-20T09:39:02.000Z</time>
      </trkpt>
      <trkpt lat="44.05677" lon="7.02001">
        <ele>1768.8000488281</ele>
        <time>2022-08-20T09:39:03.000Z</time>
      </trkpt>
      <trkpt lat="44.05674" lon="7.02001">
        <ele>1767.4000244141</ele>
        <time>2022-08-20T09:39:04.000Z</time>
      </trkpt>
      <trkpt lat="44.05671" lon="7.02">
        <ele>1765.4000244141</ele>
        <time>2022-08-20T09:39:05.000Z</time>
      </trkpt>
      <trkpt lat="44.05668" lon="7.01999">
        <ele>1763.8000488281</ele>
        <time>2022-08-20T09:39:06.000Z</time>
      </trkpt>
      <trkpt lat="44.05667" lon="7.01998">
        <ele>1763.1999511719</ele>
        <time>2022-08-20T09:39:07.000Z</time>
      </trkpt>
      <trkpt lat="44.05667" lon="7.01998">
        <ele>1761.8000488281</ele>
        <time>2022-08-20T09:39:08.000Z</time>
      </trkpt>
      <trkpt lat="44.05667" lon="7.01997">
        <ele>1760.8000488281</ele>
        <time>2022-08-20T09:39:12.000Z</time>
      </trkpt>
      <trkpt lat="44.05666" lon="7.01996">
        <ele>1761</ele>
        <time>2022-08-20T09:39:15.000Z</time>
      </trkpt>
      <trkpt lat="44.05665" lon="7.01993">
        <ele>1761.1999511719</ele>
        <time>2022-08-20T09:39:22.000Z</time>
      </trkpt>
      <trkpt lat="44.05663" lon="7.01992">
        <ele>1761.1999511719</ele>
        <time>2022-08-20T09:39:27.000Z</time>
      </trkpt>
      <trkpt lat="44.0566" lon="7.01991">
        <ele>1760.4000244141</ele>
        <time>2022-08-20T09:39:31.000Z</time>
      </trkpt>
      <trkpt lat="44.0566" lon="7.01991">
        <ele>1759.8000488281</ele>
        <time>2022-08-20T09:39:33.000Z</time>
      </trkpt>
      <trkpt lat="44.05657" lon="7.01989">
        <ele>1758.8000488281</ele>
        <time>2022-08-20T09:39:39.000Z</time>
      </trkpt>
      <trkpt lat="44.05656" lon="7.01987">
        <ele>1758.1999511719</ele>
        <time>2022-08-20T09:39:43.000Z</time>
      </trkpt>
      <trkpt lat="44.0565" lon="7.0198">
        <ele>1758.1999511719</ele>
        <time>2022-08-20T09:39:47.000Z</time>
      </trkpt>
      <trkpt lat="44.05648" lon="7.01979">
        <ele>1757.8000488281</ele>
        <time>2022-08-20T09:39:48.000Z</time>
      </trkpt>
      <trkpt lat="44.05647" lon="7.01979">
        <ele>1757.4000244141</ele>
        <time>2022-08-20T09:39:49.000Z</time>
      </trkpt>
      <trkpt lat="44.05645" lon="7.0198">
        <ele>1757.1999511719</ele>
        <time>2022-08-20T09:39:50.000Z</time>
      </trkpt>
      <trkpt lat="44.05643" lon="7.01985">
        <ele>1756</ele>
        <time>2022-08-20T09:39:52.000Z</time>
      </trkpt>
      <trkpt lat="44.05643" lon="7.01988">
        <ele>1756.1999511719</ele>
        <time>2022-08-20T09:39:53.000Z</time>
      </trkpt>
      <trkpt lat="44.05643" lon="7.0199">
        <ele>1756</ele>
        <time>2022-08-20T09:39:54.000Z</time>
      </trkpt>
      <trkpt lat="44.05643" lon="7.02006">
        <ele>1756</ele>
        <time>2022-08-20T09:40:00.000Z</time>
      </trkpt>
      <trkpt lat="44.05642" lon="7.02025">
        <ele>1757.1999511719</ele>
        <time>2022-08-20T09:40:05.000Z</time>
      </trkpt>
      <trkpt lat="44.05642" lon="7.0203">
        <ele>1757.1999511719</ele>
        <time>2022-08-20T09:40:06.000Z</time>
      </trkpt>
      <trkpt lat="44.05638" lon="7.02053">
        <ele>1756</ele>
        <time>2022-08-20T09:40:11.000Z</time>
      </trkpt>
      <trkpt lat="44.05637" lon="7.02057">
        <ele>1755.8000488281</ele>
        <time>2022-08-20T09:40:12.000Z</time>
      </trkpt>
      <trkpt lat="44.05633" lon="7.02077">
        <ele>1755.5999755859</ele>
        <time>2022-08-20T09:40:17.000Z</time>
      </trkpt>
      <trkpt lat="44.0563" lon="7.02093">
        <ele>1755</ele>
        <time>2022-08-20T09:40:20.000Z</time>
      </trkpt>
      <trkpt lat="44.05629" lon="7.02099">
        <ele>1754.1999511719</ele>
        <time>2022-08-20T09:40:21.000Z</time>
      </trkpt>
      <trkpt lat="44.05627" lon="7.02105">
        <ele>1753.5999755859</ele>
        <time>2022-08-20T09:40:22.000Z</time>
      </trkpt>
      <trkpt lat="44.05626" lon="7.02112">
        <ele>1752.8000488281</ele>
        <time>2022-08-20T09:40:23.000Z</time>
      </trkpt>
      <trkpt lat="44.05625" lon="7.02119">
        <ele>1752.1999511719</ele>
        <time>2022-08-20T09:40:24.000Z</time>
      </trkpt>
      <trkpt lat="44.05623" lon="7.02132">
        <ele>1751.1999511719</ele>
        <time>2022-08-20T09:40:26.000Z</time>
      </trkpt>
      <trkpt lat="44.0562" lon="7.02151">
        <ele>1749.4000244141</ele>
        <time>2022-08-20T09:40:29.000Z</time>
      </trkpt>
      <trkpt lat="44.05618" lon="7.02156">
        <ele>1748.4000244141</ele>
        <time>2022-08-20T09:40:30.000Z</time>
      </trkpt>
      <trkpt lat="44.05616" lon="7.02167">
        <ele>1746.8000488281</ele>
        <time>2022-08-20T09:40:32.000Z</time>
      </trkpt>
      <trkpt lat="44.05614" lon="7.02173">
        <ele>1746.1999511719</ele>
        <time>2022-08-20T09:40:33.000Z</time>
      </trkpt>
      <trkpt lat="44.05609" lon="7.02185">
        <ele>1745.5999755859</ele>
        <time>2022-08-20T09:40:35.000Z</time>
      </trkpt>
      <trkpt lat="44.05603" lon="7.02202">
        <ele>1744.1999511719</ele>
        <time>2022-08-20T09:40:38.000Z</time>
      </trkpt>
      <trkpt lat="44.05597" lon="7.02217">
        <ele>1742.8000488281</ele>
        <time>2022-08-20T09:40:41.000Z</time>
      </trkpt>
      <trkpt lat="44.05595" lon="7.02222">
        <ele>1742.4000244141</ele>
        <time>2022-08-20T09:40:42.000Z</time>
      </trkpt>
      <trkpt lat="44.05587" lon="7.02232">
        <ele>1742.1999511719</ele>
        <time>2022-08-20T09:40:45.000Z</time>
      </trkpt>
      <trkpt lat="44.05585" lon="7.02235">
        <ele>1742.1999511719</ele>
        <time>2022-08-20T09:40:46.000Z</time>
      </trkpt>
      <trkpt lat="44.05575" lon="7.02246">
        <ele>1741.4000244141</ele>
        <time>2022-08-20T09:40:49.000Z</time>
      </trkpt>
      <trkpt lat="44.05571" lon="7.02249">
        <ele>1741.1999511719</ele>
        <time>2022-08-20T09:40:50.000Z</time>
      </trkpt>
      <trkpt lat="44.05559" lon="7.02254">
        <ele>1740</ele>
        <time>2022-08-20T09:40:53.000Z</time>
      </trkpt>
      <trkpt lat="44.05553" lon="7.02254">
        <ele>1739.8000488281</ele>
        <time>2022-08-20T09:40:55.000Z</time>
      </trkpt>
      <trkpt lat="44.05542" lon="7.02256">
        <ele>1740.1999511719</ele>
        <time>2022-08-20T09:40:59.000Z</time>
      </trkpt>
      <trkpt lat="44.05528" lon="7.02262">
        <ele>1741.1999511719</ele>
        <time>2022-08-20T09:41:04.000Z</time>
      </trkpt>
      <trkpt lat="44.05526" lon="7.02262">
        <ele>1741.4000244141</ele>
        <time>2022-08-20T09:41:05.000Z</time>
      </trkpt>
      <trkpt lat="44.05517" lon="7.02263">
        <ele>1742.1999511719</ele>
        <time>2022-08-20T09:41:08.000Z</time>
      </trkpt>
      <trkpt lat="44.05511" lon="7.02266">
        <ele>1742.8000488281</ele>
        <time>2022-08-20T09:41:11.000Z</time>
      </trkpt>
      <trkpt lat="44.05507" lon="7.02269">
        <ele>1743.1999511719</ele>
        <time>2022-08-20T09:41:13.000Z</time>
      </trkpt>
      <trkpt lat="44.055" lon="7.02273">
        <ele>1744</ele>
        <time>2022-08-20T09:41:16.000Z</time>
      </trkpt>
      <trkpt lat="44.05491" lon="7.02277">
        <ele>1744.4000244141</ele>
        <time>2022-08-20T09:41:20.000Z</time>
      </trkpt>
      <trkpt lat="44.05483" lon="7.02279">
        <ele>1745.1999511719</ele>
        <time>2022-08-20T09:41:23.000Z</time>
      </trkpt>
      <trkpt lat="44.05478" lon="7.0228">
        <ele>1745.5999755859</ele>
        <time>2022-08-20T09:41:25.000Z</time>
      </trkpt>
      <trkpt lat="44.05469" lon="7.0228">
        <ele>1746.5999755859</ele>
        <time>2022-08-20T09:41:29.000Z</time>
      </trkpt>
      <trkpt lat="44.05466" lon="7.0228">
        <ele>1747</ele>
        <time>2022-08-20T09:41:30.000Z</time>
      </trkpt>
      <trkpt lat="44.05454" lon="7.0228">
        <ele>1747.5999755859</ele>
        <time>2022-08-20T09:41:35.000Z</time>
      </trkpt>
      <trkpt lat="44.0545" lon="7.0228">
        <ele>1747.8000488281</ele>
        <time>2022-08-20T09:41:37.000Z</time>
      </trkpt>
      <trkpt lat="44.05434" lon="7.02279">
        <ele>1748.5999755859</ele>
        <time>2022-08-20T09:41:44.000Z</time>
      </trkpt>
      <trkpt lat="44.05427" lon="7.0228">
        <ele>1748.8000488281</ele>
        <time>2022-08-20T09:41:47.000Z</time>
      </trkpt>
      <trkpt lat="44.05421" lon="7.02279">
        <ele>1749</ele>
        <time>2022-08-20T09:41:50.000Z</time>
      </trkpt>
      <trkpt lat="44.05408" lon="7.02275">
        <ele>1749.5999755859</ele>
        <time>2022-08-20T09:41:56.000Z</time>
      </trkpt>
      <trkpt lat="44.05399" lon="7.02272">
        <ele>1749.8000488281</ele>
        <time>2022-08-20T09:42:00.000Z</time>
      </trkpt>
      <trkpt lat="44.05389" lon="7.02268">
        <ele>1750</ele>
        <time>2022-08-20T09:42:04.000Z</time>
      </trkpt>
      <trkpt lat="44.05374" lon="7.02261">
        <ele>1750.4000244141</ele>
        <time>2022-08-20T09:42:10.000Z</time>
      </trkpt>
      <trkpt lat="44.05358" lon="7.02255">
        <ele>1751</ele>
        <time>2022-08-20T09:42:16.000Z</time>
      </trkpt>
      <trkpt lat="44.05352" lon="7.02253">
        <ele>1751</ele>
        <time>2022-08-20T09:42:18.000Z</time>
      </trkpt>
      <trkpt lat="44.05339" lon="7.02252">
        <ele>1751.4000244141</ele>
        <time>2022-08-20T09:42:24.000Z</time>
      </trkpt>
      <trkpt lat="44.05331" lon="7.02249">
        <ele>1752.1999511719</ele>
        <time>2022-08-20T09:42:28.000Z</time>
      </trkpt>
      <trkpt lat="44.05328" lon="7.02246">
        <ele>1751.8000488281</ele>
        <time>2022-08-20T09:42:33.000Z</time>
      </trkpt>
      <trkpt lat="44.05323" lon="7.0224">
        <ele>1751.1999511719</ele>
        <time>2022-08-20T09:42:40.000Z</time>
      </trkpt>
      <trkpt lat="44.05322" lon="7.02238">
        <ele>1751</ele>
        <time>2022-08-20T09:42:42.000Z</time>
      </trkpt>
      <trkpt lat="44.0532" lon="7.02232">
        <ele>1750.4000244141</ele>
        <time>2022-08-20T09:42:47.000Z</time>
      </trkpt>
      <trkpt lat="44.05319" lon="7.0223">
        <ele>1750.4000244141</ele>
        <time>2022-08-20T09:42:51.000Z</time>
      </trkpt>
      <trkpt lat="44.05316" lon="7.02227">
        <ele>1750.4000244141</ele>
        <time>2022-08-20T09:42:53.000Z</time>
      </trkpt>
      <trkpt lat="44.05314" lon="7.02227">
        <ele>1750.4000244141</ele>
        <time>2022-08-20T09:42:54.000Z</time>
      </trkpt>
      <trkpt lat="44.05312" lon="7.02229">
        <ele>1749.8000488281</ele>
        <time>2022-08-20T09:42:55.000Z</time>
      </trkpt>
      <trkpt lat="44.0531" lon="7.02237">
        <ele>1749.8000488281</ele>
        <time>2022-08-20T09:42:58.000Z</time>
      </trkpt>
      <trkpt lat="44.05308" lon="7.02245">
        <ele>1750</ele>
        <time>2022-08-20T09:43:00.000Z</time>
      </trkpt>
      <trkpt lat="44.05303" lon="7.02251">
        <ele>1749.5999755859</ele>
        <time>2022-08-20T09:43:03.000Z</time>
      </trkpt>
      <trkpt lat="44.05291" lon="7.02255">
        <ele>1750</ele>
        <time>2022-08-20T09:43:08.000Z</time>
      </trkpt>
      <trkpt lat="44.05275" lon="7.02256">
        <ele>1750</ele>
        <time>2022-08-20T09:43:14.000Z</time>
      </trkpt>
      <trkpt lat="44.05263" lon="7.02262">
        <ele>1750.1999511719</ele>
        <time>2022-08-20T09:43:19.000Z</time>
      </trkpt>
      <trkpt lat="44.05244" lon="7.02268">
        <ele>1750.4000244141</ele>
        <time>2022-08-20T09:43:25.000Z</time>
      </trkpt>
      <trkpt lat="44.05223" lon="7.02279">
        <ele>1750.5999755859</ele>
        <time>2022-08-20T09:43:32.000Z</time>
      </trkpt>
      <trkpt lat="44.05212" lon="7.02289">
        <ele>1751</ele>
        <time>2022-08-20T09:43:36.000Z</time>
      </trkpt>
      <trkpt lat="44.05197" lon="7.02303">
        <ele>1751.5999755859</ele>
        <time>2022-08-20T09:43:41.000Z</time>
      </trkpt>
      <trkpt lat="44.0519" lon="7.02313">
        <ele>1752</ele>
        <time>2022-08-20T09:43:44.000Z</time>
      </trkpt>
      <trkpt lat="44.05187" lon="7.02321">
        <ele>1753</ele>
        <time>2022-08-20T09:43:46.000Z</time>
      </trkpt>
      <trkpt lat="44.05185" lon="7.02324">
        <ele>1753.1999511719</ele>
        <time>2022-08-20T09:43:47.000Z</time>
      </trkpt>
      <trkpt lat="44.0518" lon="7.02336">
        <ele>1754.5999755859</ele>
        <time>2022-08-20T09:43:50.000Z</time>
      </trkpt>
      <trkpt lat="44.05173" lon="7.02351">
        <ele>1755.8000488281</ele>
        <time>2022-08-20T09:43:54.000Z</time>
      </trkpt>
      <trkpt lat="44.05165" lon="7.02365">
        <ele>1757.1999511719</ele>
        <time>2022-08-20T09:43:59.000Z</time>
      </trkpt>
      <trkpt lat="44.0516" lon="7.02371">
        <ele>1758.1999511719</ele>
        <time>2022-08-20T09:44:02.000Z</time>
      </trkpt>
      <trkpt lat="44.05158" lon="7.02372">
        <ele>1758.4000244141</ele>
        <time>2022-08-20T09:44:03.000Z</time>
      </trkpt>
      <trkpt lat="44.05154" lon="7.02373">
        <ele>1759</ele>
        <time>2022-08-20T09:44:06.000Z</time>
      </trkpt>
      <trkpt lat="44.05153" lon="7.02374">
        <ele>1759.1999511719</ele>
        <time>2022-08-20T09:44:07.000Z</time>
      </trkpt>
      <trkpt lat="44.05152" lon="7.02374">
        <ele>1759.4000244141</ele>
        <time>2022-08-20T09:44:09.000Z</time>
      </trkpt>
      <trkpt lat="44.05151" lon="7.02374">
        <ele>1759.5999755859</ele>
        <time>2022-08-20T09:44:12.000Z</time>
      </trkpt>
      <trkpt lat="44.05153" lon="7.02374">
        <ele>1760</ele>
        <time>2022-08-20T09:44:22.000Z</time>
      </trkpt>
      <trkpt lat="44.05154" lon="7.02374">
        <ele>1759.8000488281</ele>
        <time>2022-08-20T09:44:26.000Z</time>
      </trkpt>
      <trkpt lat="44.05154" lon="7.02375">
        <ele>1760.4000244141</ele>
        <time>2022-08-20T09:44:32.000Z</time>
      </trkpt>
      <trkpt lat="44.05154" lon="7.02374">
        <ele>1760.4000244141</ele>
        <time>2022-08-20T09:44:35.000Z</time>
      </trkpt>
      <trkpt lat="44.05154" lon="7.02375">
        <ele>1759.5999755859</ele>
        <time>2022-08-20T09:44:43.000Z</time>
      </trkpt>
      <trkpt lat="44.05154" lon="7.02374">
        <ele>1760</ele>
        <time>2022-08-20T09:45:05.000Z</time>
      </trkpt>
      <trkpt lat="44.05155" lon="7.02375">
        <ele>1760</ele>
        <time>2022-08-20T09:45:22.000Z</time>
      </trkpt>
      <trkpt lat="44.05154" lon="7.02375">
        <ele>1759.8000488281</ele>
        <time>2022-08-20T09:45:34.000Z</time>
      </trkpt>
      <trkpt lat="44.05154" lon="7.02376">
        <ele>1760.1999511719</ele>
        <time>2022-08-20T09:45:55.000Z</time>
      </trkpt>
      <trkpt lat="44.05153" lon="7.02375">
        <ele>1760.1999511719</ele>
        <time>2022-08-20T09:46:09.000Z</time>
      </trkpt>
      <trkpt lat="44.05154" lon="7.02375">
        <ele>1760.1999511719</ele>
        <time>2022-08-20T09:46:21.000Z</time>
      </trkpt>
      <trkpt lat="44.05154" lon="7.02375">
        <ele>1759.8000488281</ele>
        <time>2022-08-20T09:46:31.000Z</time>
      </trkpt>
      <trkpt lat="44.05154" lon="7.02375">
        <ele>1759.8000488281</ele>
        <time>2022-08-20T09:46:47.000Z</time>
      </trkpt>
      <trkpt lat="44.05154" lon="7.02375">
        <ele>1759.4000244141</ele>
        <time>2022-08-20T09:47:01.000Z</time>
      </trkpt>
      <trkpt lat="44.05154" lon="7.02375">
        <ele>1759.4000244141</ele>
        <time>2022-08-20T09:47:09.000Z</time>
      </trkpt>
      <trkpt lat="44.05154" lon="7.02376">
        <ele>1760.5999755859</ele>
        <time>2022-08-20T09:47:16.000Z</time>
      </trkpt>
      <trkpt lat="44.05154" lon="7.02376">
        <ele>1760.8000488281</ele>
        <time>2022-08-20T09:47:17.000Z</time>
      </trkpt>
      <trkpt lat="44.05154" lon="7.02376">
        <ele>1760.5999755859</ele>
        <time>2022-08-20T09:47:29.000Z</time>
      </trkpt>
      <trkpt lat="44.05154" lon="7.02376">
        <ele>1759.5999755859</ele>
        <time>2022-08-20T09:47:46.000Z</time>
      </trkpt>
      <trkpt lat="44.05154" lon="7.02376">
        <ele>1759.5999755859</ele>
        <time>2022-08-20T09:47:52.000Z</time>
      </trkpt>
      <trkpt lat="44.05154" lon="7.02375">
        <ele>1759.4000244141</ele>
        <time>2022-08-20T09:48:03.000Z</time>
      </trkpt>
      <trkpt lat="44.05154" lon="7.02373">
        <ele>1759.4000244141</ele>
        <time>2022-08-20T09:48:09.000Z</time>
      </trkpt>
      <trkpt lat="44.05153" lon="7.02374">
        <ele>1759.1999511719</ele>
        <time>2022-08-20T09:48:14.000Z</time>
      </trkpt>
      <trkpt lat="44.05146" lon="7.02374">
        <ele>1760</ele>
        <time>2022-08-20T09:48:18.000Z</time>
      </trkpt>
      <trkpt lat="44.05121" lon="7.02373">
        <ele>1759.1999511719</ele>
        <time>2022-08-20T09:48:26.000Z</time>
      </trkpt>
      <trkpt lat="44.051" lon="7.02371">
        <ele>1758.5999755859</ele>
        <time>2022-08-20T09:48:34.000Z</time>
      </trkpt>
      <trkpt lat="44.05088" lon="7.02371">
        <ele>1758.4000244141</ele>
        <time>2022-08-20T09:48:38.000Z</time>
      </trkpt>
      <trkpt lat="44.05085" lon="7.0237">
        <ele>1758</ele>
        <time>2022-08-20T09:48:39.000Z</time>
      </trkpt>
      <trkpt lat="44.05077" lon="7.02366">
        <ele>1757.1999511719</ele>
        <time>2022-08-20T09:48:42.000Z</time>
      </trkpt>
      <trkpt lat="44.05072" lon="7.02362">
        <ele>1756.8000488281</ele>
        <time>2022-08-20T09:48:44.000Z</time>
      </trkpt>
      <trkpt lat="44.05062" lon="7.02346">
        <ele>1756.5999755859</ele>
        <time>2022-08-20T09:48:49.000Z</time>
      </trkpt>
      <trkpt lat="44.05058" lon="7.02329">
        <ele>1756.1999511719</ele>
        <time>2022-08-20T09:48:54.000Z</time>
      </trkpt>
      <trkpt lat="44.05054" lon="7.02314">
        <ele>1756</ele>
        <time>2022-08-20T09:48:57.000Z</time>
      </trkpt>
      <trkpt lat="44.05052" lon="7.02309">
        <ele>1755.4000244141</ele>
        <time>2022-08-20T09:48:58.000Z</time>
      </trkpt>
      <trkpt lat="44.05049" lon="7.02298">
        <ele>1754.5999755859</ele>
        <time>2022-08-20T09:49:00.000Z</time>
      </trkpt>
      <trkpt lat="44.05041" lon="7.02283">
        <ele>1753</ele>
        <time>2022-08-20T09:49:04.000Z</time>
      </trkpt>
      <trkpt lat="44.05031" lon="7.02269">
        <ele>1751.5999755859</ele>
        <time>2022-08-20T09:49:08.000Z</time>
      </trkpt>
      <trkpt lat="44.0503" lon="7.02267">
        <ele>1751.4000244141</ele>
        <time>2022-08-20T09:49:09.000Z</time>
      </trkpt>
      <trkpt lat="44.05026" lon="7.02261">
        <ele>1750.4000244141</ele>
        <time>2022-08-20T09:49:11.000Z</time>
      </trkpt>
      <trkpt lat="44.05017" lon="7.02247">
        <ele>1751</ele>
        <time>2022-08-20T09:49:15.000Z</time>
      </trkpt>
      <trkpt lat="44.05004" lon="7.02231">
        <ele>1750.5999755859</ele>
        <time>2022-08-20T09:49:20.000Z</time>
      </trkpt>
      <trkpt lat="44.04999" lon="7.02223">
        <ele>1749.1999511719</ele>
        <time>2022-08-20T09:49:22.000Z</time>
      </trkpt>
      <trkpt lat="44.04993" lon="7.02215">
        <ele>1747.4000244141</ele>
        <time>2022-08-20T09:49:24.000Z</time>
      </trkpt>
      <trkpt lat="44.04989" lon="7.02209">
        <ele>1746.5999755859</ele>
        <time>2022-08-20T09:49:25.000Z</time>
      </trkpt>
      <trkpt lat="44.04986" lon="7.02204">
        <ele>1746</ele>
        <time>2022-08-20T09:49:26.000Z</time>
      </trkpt>
      <trkpt lat="44.04978" lon="7.02189">
        <ele>1744.5999755859</ele>
        <time>2022-08-20T09:49:29.000Z</time>
      </trkpt>
      <trkpt lat="44.04976" lon="7.02182">
        <ele>1743.5999755859</ele>
        <time>2022-08-20T09:49:30.000Z</time>
      </trkpt>
      <trkpt lat="44.04974" lon="7.02176">
        <ele>1743.1999511719</ele>
        <time>2022-08-20T09:49:31.000Z</time>
      </trkpt>
      <trkpt lat="44.04969" lon="7.02162">
        <ele>1742.1999511719</ele>
        <time>2022-08-20T09:49:33.000Z</time>
      </trkpt>
      <trkpt lat="44.04964" lon="7.02149">
        <ele>1741.5999755859</ele>
        <time>2022-08-20T09:49:35.000Z</time>
      </trkpt>
      <trkpt lat="44.0496" lon="7.02143">
        <ele>1740.4000244141</ele>
        <time>2022-08-20T09:49:36.000Z</time>
      </trkpt>
      <trkpt lat="44.04953" lon="7.02133">
        <ele>1739</ele>
        <time>2022-08-20T09:49:38.000Z</time>
      </trkpt>
      <trkpt lat="44.0495" lon="7.02128">
        <ele>1738</ele>
        <time>2022-08-20T09:49:39.000Z</time>
      </trkpt>
      <trkpt lat="44.04947" lon="7.02124">
        <ele>1737.4000244141</ele>
        <time>2022-08-20T09:49:40.000Z</time>
      </trkpt>
      <trkpt lat="44.04936" lon="7.02106">
        <ele>1737</ele>
        <time>2022-08-20T09:49:44.000Z</time>
      </trkpt>
      <trkpt lat="44.04934" lon="7.02101">
        <ele>1737.1999511719</ele>
        <time>2022-08-20T09:49:45.000Z</time>
      </trkpt>
      <trkpt lat="44.04929" lon="7.02088">
        <ele>1737.5999755859</ele>
        <time>2022-08-20T09:49:49.000Z</time>
      </trkpt>
      <trkpt lat="44.04925" lon="7.02077">
        <ele>1738.4000244141</ele>
        <time>2022-08-20T09:49:52.000Z</time>
      </trkpt>
      <trkpt lat="44.04924" lon="7.02062">
        <ele>1738.8000488281</ele>
        <time>2022-08-20T09:49:55.000Z</time>
      </trkpt>
      <trkpt lat="44.04924" lon="7.02043">
        <ele>1737.1999511719</ele>
        <time>2022-08-20T09:49:59.000Z</time>
      </trkpt>
      <trkpt lat="44.0492" lon="7.02039">
        <ele>1736</ele>
        <time>2022-08-20T09:50:01.000Z</time>
      </trkpt>
      <trkpt lat="44.04917" lon="7.02037">
        <ele>1736</ele>
        <time>2022-08-20T09:50:02.000Z</time>
      </trkpt>
      <trkpt lat="44.04915" lon="7.02023">
        <ele>1736.1999511719</ele>
        <time>2022-08-20T09:50:05.000Z</time>
      </trkpt>
      <trkpt lat="44.04914" lon="7.02003">
        <ele>1735</ele>
        <time>2022-08-20T09:50:09.000Z</time>
      </trkpt>
      <trkpt lat="44.04913" lon="7.01997">
        <ele>1734.5999755859</ele>
        <time>2022-08-20T09:50:10.000Z</time>
      </trkpt>
      <trkpt lat="44.04912" lon="7.01993">
        <ele>1734</ele>
        <time>2022-08-20T09:50:11.000Z</time>
      </trkpt>
      <trkpt lat="44.04911" lon="7.0199">
        <ele>1733.4000244141</ele>
        <time>2022-08-20T09:50:12.000Z</time>
      </trkpt>
      <trkpt lat="44.0491" lon="7.01987">
        <ele>1732.8000488281</ele>
        <time>2022-08-20T09:50:13.000Z</time>
      </trkpt>
      <trkpt lat="44.04909" lon="7.01986">
        <ele>1732.5999755859</ele>
        <time>2022-08-20T09:50:14.000Z</time>
      </trkpt>
      <trkpt lat="44.04905" lon="7.01984">
        <ele>1732.5999755859</ele>
        <time>2022-08-20T09:50:16.000Z</time>
      </trkpt>
      <trkpt lat="44.04896" lon="7.01982">
        <ele>1732.4000244141</ele>
        <time>2022-08-20T09:50:20.000Z</time>
      </trkpt>
      <trkpt lat="44.04891" lon="7.01986">
        <ele>1732.8000488281</ele>
        <time>2022-08-20T09:50:22.000Z</time>
      </trkpt>
      <trkpt lat="44.04887" lon="7.01989">
        <ele>1733.5999755859</ele>
        <time>2022-08-20T09:50:24.000Z</time>
      </trkpt>
      <trkpt lat="44.04884" lon="7.01989">
        <ele>1734</ele>
        <time>2022-08-20T09:50:25.000Z</time>
      </trkpt>
      <trkpt lat="44.04879" lon="7.01988">
        <ele>1735.1999511719</ele>
        <time>2022-08-20T09:50:27.000Z</time>
      </trkpt>
      <trkpt lat="44.04878" lon="7.01988">
        <ele>1735.5999755859</ele>
        <time>2022-08-20T09:50:28.000Z</time>
      </trkpt>
      <trkpt lat="44.04878" lon="7.0199">
        <ele>1735.8000488281</ele>
        <time>2022-08-20T09:50:29.000Z</time>
      </trkpt>
      <trkpt lat="44.04876" lon="7.01993">
        <ele>1736.1999511719</ele>
        <time>2022-08-20T09:50:30.000Z</time>
      </trkpt>
      <trkpt lat="44.04874" lon="7.01998">
        <ele>1736.4000244141</ele>
        <time>2022-08-20T09:50:32.000Z</time>
      </trkpt>
      <trkpt lat="44.0487" lon="7.02008">
        <ele>1737.4000244141</ele>
        <time>2022-08-20T09:50:36.000Z</time>
      </trkpt>
      <trkpt lat="44.04866" lon="7.02012">
        <ele>1738.5999755859</ele>
        <time>2022-08-20T09:50:38.000Z</time>
      </trkpt>
      <trkpt lat="44.04864" lon="7.02013">
        <ele>1738.8000488281</ele>
        <time>2022-08-20T09:50:39.000Z</time>
      </trkpt>
      <trkpt lat="44.04851" lon="7.02024">
        <ele>1739.4000244141</ele>
        <time>2022-08-20T09:50:45.000Z</time>
      </trkpt>
      <trkpt lat="44.0484" lon="7.02039">
        <ele>1738.5999755859</ele>
        <time>2022-08-20T09:50:50.000Z</time>
      </trkpt>
      <trkpt lat="44.04836" lon="7.02042">
        <ele>1738.5999755859</ele>
        <time>2022-08-20T09:50:54.000Z</time>
      </trkpt>
      <trkpt lat="44.0483" lon="7.02047">
        <ele>1738.1999511719</ele>
        <time>2022-08-20T09:50:59.000Z</time>
      </trkpt>
      <trkpt lat="44.04818" lon="7.02052">
        <ele>1737.8000488281</ele>
        <time>2022-08-20T09:51:04.000Z</time>
      </trkpt>
      <trkpt lat="44.04812" lon="7.02054">
        <ele>1737.5999755859</ele>
        <time>2022-08-20T09:51:06.000Z</time>
      </trkpt>
      <trkpt lat="44.04804" lon="7.02061">
        <ele>1736.4000244141</ele>
        <time>2022-08-20T09:51:09.000Z</time>
      </trkpt>
      <trkpt lat="44.04797" lon="7.02068">
        <ele>1735.1999511719</ele>
        <time>2022-08-20T09:51:12.000Z</time>
      </trkpt>
      <trkpt lat="44.04791" lon="7.02072">
        <ele>1735.1999511719</ele>
        <time>2022-08-20T09:51:14.000Z</time>
      </trkpt>
      <trkpt lat="44.04773" lon="7.02081">
        <ele>1734.5999755859</ele>
        <time>2022-08-20T09:51:20.000Z</time>
      </trkpt>
      <trkpt lat="44.0476" lon="7.02088">
        <ele>1734.4000244141</ele>
        <time>2022-08-20T09:51:24.000Z</time>
      </trkpt>
      <trkpt lat="44.04749" lon="7.02091">
        <ele>1734</ele>
        <time>2022-08-20T09:51:27.000Z</time>
      </trkpt>
      <trkpt lat="44.04744" lon="7.02092">
        <ele>1733.5999755859</ele>
        <time>2022-08-20T09:51:29.000Z</time>
      </trkpt>
      <trkpt lat="44.04731" lon="7.02095">
        <ele>1733.4000244141</ele>
        <time>2022-08-20T09:51:34.000Z</time>
      </trkpt>
      <trkpt lat="44.04725" lon="7.02097">
        <ele>1732.8000488281</ele>
        <time>2022-08-20T09:51:36.000Z</time>
      </trkpt>
      <trkpt lat="44.04716" lon="7.02099">
        <ele>1731.1999511719</ele>
        <time>2022-08-20T09:51:39.000Z</time>
      </trkpt>
      <trkpt lat="44.0471" lon="7.021">
        <ele>1730.1999511719</ele>
        <time>2022-08-20T09:51:41.000Z</time>
      </trkpt>
      <trkpt lat="44.04697" lon="7.02102">
        <ele>1729</ele>
        <time>2022-08-20T09:51:45.000Z</time>
      </trkpt>
      <trkpt lat="44.04694" lon="7.02102">
        <ele>1728.8000488281</ele>
        <time>2022-08-20T09:51:46.000Z</time>
      </trkpt>
      <trkpt lat="44.04687" lon="7.02103">
        <ele>1727.5999755859</ele>
        <time>2022-08-20T09:51:48.000Z</time>
      </trkpt>
      <trkpt lat="44.04681" lon="7.02107">
        <ele>1726.8000488281</ele>
        <time>2022-08-20T09:51:50.000Z</time>
      </trkpt>
      <trkpt lat="44.04679" lon="7.02109">
        <ele>1726.1999511719</ele>
        <time>2022-08-20T09:51:51.000Z</time>
      </trkpt>
      <trkpt lat="44.04671" lon="7.02116">
        <ele>1725.1999511719</ele>
        <time>2022-08-20T09:51:54.000Z</time>
      </trkpt>
      <trkpt lat="44.04666" lon="7.02121">
        <ele>1724.5999755859</ele>
        <time>2022-08-20T09:51:56.000Z</time>
      </trkpt>
      <trkpt lat="44.04661" lon="7.02126">
        <ele>1724</ele>
        <time>2022-08-20T09:51:59.000Z</time>
      </trkpt>
      <trkpt lat="44.04657" lon="7.02129">
        <ele>1724</ele>
        <time>2022-08-20T09:52:01.000Z</time>
      </trkpt>
      <trkpt lat="44.04643" lon="7.0214">
        <ele>1723.8000488281</ele>
        <time>2022-08-20T09:52:07.000Z</time>
      </trkpt>
      <trkpt lat="44.04633" lon="7.02146">
        <ele>1722.8000488281</ele>
        <time>2022-08-20T09:52:11.000Z</time>
      </trkpt>
      <trkpt lat="44.04624" lon="7.0215">
        <ele>1721.5999755859</ele>
        <time>2022-08-20T09:52:14.000Z</time>
      </trkpt>
      <trkpt lat="44.04616" lon="7.02154">
        <ele>1722</ele>
        <time>2022-08-20T09:52:16.000Z</time>
      </trkpt>
      <trkpt lat="44.04596" lon="7.02162">
        <ele>1720.8000488281</ele>
        <time>2022-08-20T09:52:21.000Z</time>
      </trkpt>
      <trkpt lat="44.04593" lon="7.02162">
        <ele>1719.8000488281</ele>
        <time>2022-08-20T09:52:22.000Z</time>
      </trkpt>
      <trkpt lat="44.04588" lon="7.02162">
        <ele>1718.4000244141</ele>
        <time>2022-08-20T09:52:24.000Z</time>
      </trkpt>
      <trkpt lat="44.04582" lon="7.02161">
        <ele>1718.1999511719</ele>
        <time>2022-08-20T09:52:26.000Z</time>
      </trkpt>
      <trkpt lat="44.04573" lon="7.02158">
        <ele>1718.1999511719</ele>
        <time>2022-08-20T09:52:30.000Z</time>
      </trkpt>
      <trkpt lat="44.04563" lon="7.02149">
        <ele>1717.8000488281</ele>
        <time>2022-08-20T09:52:34.000Z</time>
      </trkpt>
      <trkpt lat="44.04555" lon="7.02139">
        <ele>1717</ele>
        <time>2022-08-20T09:52:37.000Z</time>
      </trkpt>
      <trkpt lat="44.0455" lon="7.02134">
        <ele>1715.5999755859</ele>
        <time>2022-08-20T09:52:39.000Z</time>
      </trkpt>
      <trkpt lat="44.04547" lon="7.02132">
        <ele>1715.4000244141</ele>
        <time>2022-08-20T09:52:40.000Z</time>
      </trkpt>
      <trkpt lat="44.04533" lon="7.02126">
        <ele>1716</ele>
        <time>2022-08-20T09:52:45.000Z</time>
      </trkpt>
      <trkpt lat="44.04522" lon="7.02124">
        <ele>1714.1999511719</ele>
        <time>2022-08-20T09:52:49.000Z</time>
      </trkpt>
      <trkpt lat="44.04517" lon="7.02123">
        <ele>1713.5999755859</ele>
        <time>2022-08-20T09:52:51.000Z</time>
      </trkpt>
      <trkpt lat="44.04515" lon="7.02122">
        <ele>1712.8000488281</ele>
        <time>2022-08-20T09:52:52.000Z</time>
      </trkpt>
      <trkpt lat="44.04509" lon="7.0212">
        <ele>1712.1999511719</ele>
        <time>2022-08-20T09:52:55.000Z</time>
      </trkpt>
      <trkpt lat="44.04506" lon="7.0212">
        <ele>1711.5999755859</ele>
        <time>2022-08-20T09:52:56.000Z</time>
      </trkpt>
      <trkpt lat="44.04497" lon="7.02115">
        <ele>1710.4000244141</ele>
        <time>2022-08-20T09:52:59.000Z</time>
      </trkpt>
      <trkpt lat="44.04492" lon="7.0211">
        <ele>1709.1999511719</ele>
        <time>2022-08-20T09:53:02.000Z</time>
      </trkpt>
      <trkpt lat="44.0449" lon="7.02108">
        <ele>1708.8000488281</ele>
        <time>2022-08-20T09:53:03.000Z</time>
      </trkpt>
      <trkpt lat="44.04486" lon="7.02107">
        <ele>1708.1999511719</ele>
        <time>2022-08-20T09:53:05.000Z</time>
      </trkpt>
      <trkpt lat="44.04478" lon="7.02101">
        <ele>1707.4000244141</ele>
        <time>2022-08-20T09:53:08.000Z</time>
      </trkpt>
      <trkpt lat="44.04476" lon="7.02098">
        <ele>1706.5999755859</ele>
        <time>2022-08-20T09:53:09.000Z</time>
      </trkpt>
      <trkpt lat="44.04474" lon="7.02091">
        <ele>1705.4000244141</ele>
        <time>2022-08-20T09:53:11.000Z</time>
      </trkpt>
      <trkpt lat="44.04474" lon="7.02088">
        <ele>1704.4000244141</ele>
        <time>2022-08-20T09:53:12.000Z</time>
      </trkpt>
      <trkpt lat="44.04471" lon="7.02086">
        <ele>1703.1999511719</ele>
        <time>2022-08-20T09:53:16.000Z</time>
      </trkpt>
      <trkpt lat="44.04465" lon="7.02092">
        <ele>1702.5999755859</ele>
        <time>2022-08-20T09:53:21.000Z</time>
      </trkpt>
      <trkpt lat="44.04465" lon="7.02093">
        <ele>1702.5999755859</ele>
        <time>2022-08-20T09:53:27.000Z</time>
      </trkpt>
      <trkpt lat="44.04465" lon="7.02095">
        <ele>1702.1999511719</ele>
        <time>2022-08-20T09:53:30.000Z</time>
      </trkpt>
      <trkpt lat="44.04463" lon="7.02098">
        <ele>1702</ele>
        <time>2022-08-20T09:53:33.000Z</time>
      </trkpt>
      <trkpt lat="44.04461" lon="7.021">
        <ele>1701.8000488281</ele>
        <time>2022-08-20T09:53:39.000Z</time>
      </trkpt>
      <trkpt lat="44.04461" lon="7.02101">
        <ele>1701.5999755859</ele>
        <time>2022-08-20T09:53:52.000Z</time>
      </trkpt>
      <trkpt lat="44.04462" lon="7.02101">
        <ele>1701.8000488281</ele>
        <time>2022-08-20T09:54:13.000Z</time>
      </trkpt>
      <trkpt lat="44.04461" lon="7.02102">
        <ele>1701.8000488281</ele>
        <time>2022-08-20T09:54:23.000Z</time>
      </trkpt>
      <trkpt lat="44.04457" lon="7.02107">
        <ele>1702.1999511719</ele>
        <time>2022-08-20T09:54:30.000Z</time>
      </trkpt>
      <trkpt lat="44.04447" lon="7.02111">
        <ele>1702</ele>
        <time>2022-08-20T09:54:35.000Z</time>
      </trkpt>
      <trkpt lat="44.04443" lon="7.02112">
        <ele>1702.5999755859</ele>
        <time>2022-08-20T09:54:37.000Z</time>
      </trkpt>
      <trkpt lat="44.04439" lon="7.02116">
        <ele>1702.8000488281</ele>
        <time>2022-08-20T09:54:39.000Z</time>
      </trkpt>
      <trkpt lat="44.0443" lon="7.02127">
        <ele>1702.1999511719</ele>
        <time>2022-08-20T09:54:44.000Z</time>
      </trkpt>
      <trkpt lat="44.04427" lon="7.0213">
        <ele>1701.8000488281</ele>
        <time>2022-08-20T09:54:46.000Z</time>
      </trkpt>
      <trkpt lat="44.04425" lon="7.02135">
        <ele>1701.8000488281</ele>
        <time>2022-08-20T09:54:48.000Z</time>
      </trkpt>
      <trkpt lat="44.04419" lon="7.02145">
        <ele>1701.1999511719</ele>
        <time>2022-08-20T09:54:51.000Z</time>
      </trkpt>
      <trkpt lat="44.04416" lon="7.02148">
        <ele>1701</ele>
        <time>2022-08-20T09:54:52.000Z</time>
      </trkpt>
      <trkpt lat="44.04404" lon="7.0216">
        <ele>1700</ele>
        <time>2022-08-20T09:54:57.000Z</time>
      </trkpt>
      <trkpt lat="44.04402" lon="7.02162">
        <ele>1700</ele>
        <time>2022-08-20T09:54:58.000Z</time>
      </trkpt>
      <trkpt lat="44.04393" lon="7.02179">
        <ele>1699.5999755859</ele>
        <time>2022-08-20T09:55:04.000Z</time>
      </trkpt>
      <trkpt lat="44.04387" lon="7.02187">
        <ele>1698.8000488281</ele>
        <time>2022-08-20T09:55:07.000Z</time>
      </trkpt>
      <trkpt lat="44.04376" lon="7.02198">
        <ele>1698.5999755859</ele>
        <time>2022-08-20T09:55:11.000Z</time>
      </trkpt>
      <trkpt lat="44.04362" lon="7.02206">
        <ele>1698.8000488281</ele>
        <time>2022-08-20T09:55:16.000Z</time>
      </trkpt>
      <trkpt lat="44.04357" lon="7.02218">
        <ele>1698.5999755859</ele>
        <time>2022-08-20T09:55:19.000Z</time>
      </trkpt>
      <trkpt lat="44.04342" lon="7.02238">
        <ele>1697.8000488281</ele>
        <time>2022-08-20T09:55:25.000Z</time>
      </trkpt>
      <trkpt lat="44.04339" lon="7.02241">
        <ele>1696.8000488281</ele>
        <time>2022-08-20T09:55:29.000Z</time>
      </trkpt>
      <trkpt lat="44.04337" lon="7.02242">
        <ele>1696.4000244141</ele>
        <time>2022-08-20T09:55:30.000Z</time>
      </trkpt>
      <trkpt lat="44.04333" lon="7.02244">
        <ele>1696</ele>
        <time>2022-08-20T09:55:41.000Z</time>
      </trkpt>
      <trkpt lat="44.04321" lon="7.02241">
        <ele>1696.1999511719</ele>
        <time>2022-08-20T09:55:46.000Z</time>
      </trkpt>
      <trkpt lat="44.04311" lon="7.02243">
        <ele>1696.1999511719</ele>
        <time>2022-08-20T09:55:50.000Z</time>
      </trkpt>
      <trkpt lat="44.0431" lon="7.02245">
        <ele>1696</ele>
        <time>2022-08-20T09:55:51.000Z</time>
      </trkpt>
      <trkpt lat="44.04308" lon="7.02247">
        <ele>1695.8000488281</ele>
        <time>2022-08-20T09:55:52.000Z</time>
      </trkpt>
      <trkpt lat="44.04307" lon="7.02249">
        <ele>1694.5999755859</ele>
        <time>2022-08-20T09:55:55.000Z</time>
      </trkpt>
      <trkpt lat="44.04302" lon="7.02257">
        <ele>1695</ele>
        <time>2022-08-20T09:56:00.000Z</time>
      </trkpt>
      <trkpt lat="44.04302" lon="7.02258">
        <ele>1695</ele>
        <time>2022-08-20T09:56:01.000Z</time>
      </trkpt>
      <trkpt lat="44.04302" lon="7.02265">
        <ele>1694.5999755859</ele>
        <time>2022-08-20T09:56:04.000Z</time>
      </trkpt>
      <trkpt lat="44.04302" lon="7.02271">
        <ele>1694.4000244141</ele>
        <time>2022-08-20T09:56:08.000Z</time>
      </trkpt>
      <trkpt lat="44.04301" lon="7.02279">
        <ele>1694.5999755859</ele>
        <time>2022-08-20T09:56:11.000Z</time>
      </trkpt>
      <trkpt lat="44.04295" lon="7.02297">
        <ele>1693.1999511719</ele>
        <time>2022-08-20T09:56:15.000Z</time>
      </trkpt>
      <trkpt lat="44.04292" lon="7.02303">
        <ele>1692</ele>
        <time>2022-08-20T09:56:17.000Z</time>
      </trkpt>
      <trkpt lat="44.04289" lon="7.02309">
        <ele>1691</ele>
        <time>2022-08-20T09:56:19.000Z</time>
      </trkpt>
      <trkpt lat="44.04287" lon="7.02312">
        <ele>1690.8000488281</ele>
        <time>2022-08-20T09:56:20.000Z</time>
      </trkpt>
      <trkpt lat="44.04283" lon="7.02318">
        <ele>1689.8000488281</ele>
        <time>2022-08-20T09:56:23.000Z</time>
      </trkpt>
      <trkpt lat="44.0428" lon="7.02322">
        <ele>1689.5999755859</ele>
        <time>2022-08-20T09:56:25.000Z</time>
      </trkpt>
      <trkpt lat="44.04269" lon="7.02333">
        <ele>1689.4000244141</ele>
        <time>2022-08-20T09:56:30.000Z</time>
      </trkpt>
      <trkpt lat="44.04258" lon="7.02342">
        <ele>1688.5999755859</ele>
        <time>2022-08-20T09:56:34.000Z</time>
      </trkpt>
      <trkpt lat="44.04252" lon="7.02345">
        <ele>1688.1999511719</ele>
        <time>2022-08-20T09:56:36.000Z</time>
      </trkpt>
      <trkpt lat="44.04243" lon="7.02352">
        <ele>1687.5999755859</ele>
        <time>2022-08-20T09:56:40.000Z</time>
      </trkpt>
      <trkpt lat="44.0424" lon="7.02354">
        <ele>1687.5999755859</ele>
        <time>2022-08-20T09:56:41.000Z</time>
      </trkpt>
      <trkpt lat="44.04228" lon="7.02358">
        <ele>1686.1999511719</ele>
        <time>2022-08-20T09:56:45.000Z</time>
      </trkpt>
      <trkpt lat="44.0422" lon="7.02359">
        <ele>1685.1999511719</ele>
        <time>2022-08-20T09:56:47.000Z</time>
      </trkpt>
      <trkpt lat="44.04216" lon="7.02358">
        <ele>1684.8000488281</ele>
        <time>2022-08-20T09:56:48.000Z</time>
      </trkpt>
      <trkpt lat="44.04208" lon="7.02356">
        <ele>1683.4000244141</ele>
        <time>2022-08-20T09:56:50.000Z</time>
      </trkpt>
      <trkpt lat="44.04202" lon="7.02355">
        <ele>1682.4000244141</ele>
        <time>2022-08-20T09:56:52.000Z</time>
      </trkpt>
      <trkpt lat="44.04188" lon="7.02352">
        <ele>1681.4000244141</ele>
        <time>2022-08-20T09:56:56.000Z</time>
      </trkpt>
      <trkpt lat="44.04179" lon="7.02348">
        <ele>1680.8000488281</ele>
        <time>2022-08-20T09:56:58.000Z</time>
      </trkpt>
      <trkpt lat="44.04176" lon="7.02346">
        <ele>1680.5999755859</ele>
        <time>2022-08-20T09:56:59.000Z</time>
      </trkpt>
      <trkpt lat="44.04172" lon="7.02344">
        <ele>1679.8000488281</ele>
        <time>2022-08-20T09:57:00.000Z</time>
      </trkpt>
      <trkpt lat="44.04163" lon="7.02342">
        <ele>1678.5999755859</ele>
        <time>2022-08-20T09:57:02.000Z</time>
      </trkpt>
      <trkpt lat="44.04159" lon="7.02342">
        <ele>1677.5999755859</ele>
        <time>2022-08-20T09:57:03.000Z</time>
      </trkpt>
      <trkpt lat="44.04155" lon="7.0234">
        <ele>1676.5999755859</ele>
        <time>2022-08-20T09:57:04.000Z</time>
      </trkpt>
      <trkpt lat="44.04146" lon="7.02336">
        <ele>1675.5999755859</ele>
        <time>2022-08-20T09:57:06.000Z</time>
      </trkpt>
      <trkpt lat="44.04142" lon="7.02335">
        <ele>1674.4000244141</ele>
        <time>2022-08-20T09:57:07.000Z</time>
      </trkpt>
      <trkpt lat="44.04131" lon="7.02332">
        <ele>1672.5999755859</ele>
        <time>2022-08-20T09:57:09.000Z</time>
      </trkpt>
      <trkpt lat="44.04125" lon="7.0233">
        <ele>1671.1999511719</ele>
        <time>2022-08-20T09:57:10.000Z</time>
      </trkpt>
      <trkpt lat="44.0412" lon="7.02327">
        <ele>1669.8000488281</ele>
        <time>2022-08-20T09:57:11.000Z</time>
      </trkpt>
      <trkpt lat="44.04108" lon="7.02322">
        <ele>1667.5999755859</ele>
        <time>2022-08-20T09:57:13.000Z</time>
      </trkpt>
      <trkpt lat="44.04097" lon="7.0232">
        <ele>1665.8000488281</ele>
        <time>2022-08-20T09:57:15.000Z</time>
      </trkpt>
      <trkpt lat="44.04091" lon="7.0232">
        <ele>1664.5999755859</ele>
        <time>2022-08-20T09:57:16.000Z</time>
      </trkpt>
      <trkpt lat="44.04086" lon="7.0232">
        <ele>1663.4000244141</ele>
        <time>2022-08-20T09:57:17.000Z</time>
      </trkpt>
      <trkpt lat="44.04074" lon="7.02313">
        <ele>1662.4000244141</ele>
        <time>2022-08-20T09:57:19.000Z</time>
      </trkpt>
      <trkpt lat="44.04062" lon="7.02307">
        <ele>1661</ele>
        <time>2022-08-20T09:57:21.000Z</time>
      </trkpt>
      <trkpt lat="44.04057" lon="7.02305">
        <ele>1660.1999511719</ele>
        <time>2022-08-20T09:57:22.000Z</time>
      </trkpt>
      <trkpt lat="44.04051" lon="7.02305">
        <ele>1659</ele>
        <time>2022-08-20T09:57:23.000Z</time>
      </trkpt>
      <trkpt lat="44.04045" lon="7.02303">
        <ele>1658.5999755859</ele>
        <time>2022-08-20T09:57:24.000Z</time>
      </trkpt>
      <trkpt lat="44.04039" lon="7.02301">
        <ele>1657.5999755859</ele>
        <time>2022-08-20T09:57:25.000Z</time>
      </trkpt>
      <trkpt lat="44.04025" lon="7.02297">
        <ele>1655.5999755859</ele>
        <time>2022-08-20T09:57:27.000Z</time>
      </trkpt>
      <trkpt lat="44.04012" lon="7.02291">
        <ele>1653.5999755859</ele>
        <time>2022-08-20T09:57:29.000Z</time>
      </trkpt>
      <trkpt lat="44.04004" lon="7.02287">
        <ele>1653</ele>
        <time>2022-08-20T09:57:30.000Z</time>
      </trkpt>
      <trkpt lat="44.03997" lon="7.02282">
        <ele>1652</ele>
        <time>2022-08-20T09:57:31.000Z</time>
      </trkpt>
      <trkpt lat="44.03985" lon="7.02274">
        <ele>1650</ele>
        <time>2022-08-20T09:57:33.000Z</time>
      </trkpt>
      <trkpt lat="44.03976" lon="7.02269">
        <ele>1649.1999511719</ele>
        <time>2022-08-20T09:57:35.000Z</time>
      </trkpt>
      <trkpt lat="44.03972" lon="7.02265">
        <ele>1648.1999511719</ele>
        <time>2022-08-20T09:57:36.000Z</time>
      </trkpt>
      <trkpt lat="44.03969" lon="7.02261">
        <ele>1648</ele>
        <time>2022-08-20T09:57:37.000Z</time>
      </trkpt>
      <trkpt lat="44.03964" lon="7.02254">
        <ele>1645.4000244141</ele>
        <time>2022-08-20T09:57:39.000Z</time>
      </trkpt>
      <trkpt lat="44.03959" lon="7.02251">
        <ele>1645</ele>
        <time>2022-08-20T09:57:40.000Z</time>
      </trkpt>
      <trkpt lat="44.03944" lon="7.02244">
        <ele>1644.1999511719</ele>
        <time>2022-08-20T09:57:43.000Z</time>
      </trkpt>
      <trkpt lat="44.0394" lon="7.02241">
        <ele>1644.1999511719</ele>
        <time>2022-08-20T09:57:44.000Z</time>
      </trkpt>
      <trkpt lat="44.03929" lon="7.0224">
        <ele>1642.1999511719</ele>
        <time>2022-08-20T09:57:46.000Z</time>
      </trkpt>
      <trkpt lat="44.03924" lon="7.02238">
        <ele>1641.8000488281</ele>
        <time>2022-08-20T09:57:47.000Z</time>
      </trkpt>
      <trkpt lat="44.03912" lon="7.02233">
        <ele>1641</ele>
        <time>2022-08-20T09:57:49.000Z</time>
      </trkpt>
      <trkpt lat="44.03896" lon="7.02225">
        <ele>1640</ele>
        <time>2022-08-20T09:57:52.000Z</time>
      </trkpt>
      <trkpt lat="44.03887" lon="7.02221">
        <ele>1638.4000244141</ele>
        <time>2022-08-20T09:57:54.000Z</time>
      </trkpt>
      <trkpt lat="44.03874" lon="7.02209">
        <ele>1637.5999755859</ele>
        <time>2022-08-20T09:57:57.000Z</time>
      </trkpt>
      <trkpt lat="44.0387" lon="7.02204">
        <ele>1637.4000244141</ele>
        <time>2022-08-20T09:57:58.000Z</time>
      </trkpt>
      <trkpt lat="44.03862" lon="7.02194">
        <ele>1637.8000488281</ele>
        <time>2022-08-20T09:58:00.000Z</time>
      </trkpt>
      <trkpt lat="44.03855" lon="7.02183">
        <ele>1636.5999755859</ele>
        <time>2022-08-20T09:58:02.000Z</time>
      </trkpt>
      <trkpt lat="44.03852" lon="7.02178">
        <ele>1636.1999511719</ele>
        <time>2022-08-20T09:58:03.000Z</time>
      </trkpt>
      <trkpt lat="44.0385" lon="7.02174">
        <ele>1635.8000488281</ele>
        <time>2022-08-20T09:58:04.000Z</time>
      </trkpt>
      <trkpt lat="44.03849" lon="7.02168">
        <ele>1635</ele>
        <time>2022-08-20T09:58:05.000Z</time>
      </trkpt>
      <trkpt lat="44.03847" lon="7.02161">
        <ele>1634.8000488281</ele>
        <time>2022-08-20T09:58:06.000Z</time>
      </trkpt>
      <trkpt lat="44.03844" lon="7.02147">
        <ele>1634</ele>
        <time>2022-08-20T09:58:08.000Z</time>
      </trkpt>
      <trkpt lat="44.03844" lon="7.02142">
        <ele>1633</ele>
        <time>2022-08-20T09:58:09.000Z</time>
      </trkpt>
      <trkpt lat="44.03844" lon="7.02137">
        <ele>1632.1999511719</ele>
        <time>2022-08-20T09:58:10.000Z</time>
      </trkpt>
      <trkpt lat="44.03846" lon="7.02133">
        <ele>1631.5999755859</ele>
        <time>2022-08-20T09:58:11.000Z</time>
      </trkpt>
      <trkpt lat="44.03847" lon="7.02124">
        <ele>1630</ele>
        <time>2022-08-20T09:58:13.000Z</time>
      </trkpt>
      <trkpt lat="44.03846" lon="7.0212">
        <ele>1629.5999755859</ele>
        <time>2022-08-20T09:58:14.000Z</time>
      </trkpt>
      <trkpt lat="44.03843" lon="7.02117">
        <ele>1629</ele>
        <time>2022-08-20T09:58:15.000Z</time>
      </trkpt>
      <trkpt lat="44.03836" lon="7.02117">
        <ele>1628.4000244141</ele>
        <time>2022-08-20T09:58:17.000Z</time>
      </trkpt>
      <trkpt lat="44.03832" lon="7.02118">
        <ele>1628</ele>
        <time>2022-08-20T09:58:18.000Z</time>
      </trkpt>
      <trkpt lat="44.03828" lon="7.02118">
        <ele>1628</ele>
        <time>2022-08-20T09:58:19.000Z</time>
      </trkpt>
      <trkpt lat="44.03816" lon="7.02122">
        <ele>1627.1999511719</ele>
        <time>2022-08-20T09:58:22.000Z</time>
      </trkpt>
      <trkpt lat="44.03812" lon="7.02122">
        <ele>1627.4000244141</ele>
        <time>2022-08-20T09:58:23.000Z</time>
      </trkpt>
      <trkpt lat="44.03801" lon="7.02124">
        <ele>1626.4000244141</ele>
        <time>2022-08-20T09:58:26.000Z</time>
      </trkpt>
      <trkpt lat="44.03797" lon="7.02125">
        <ele>1626</ele>
        <time>2022-08-20T09:58:27.000Z</time>
      </trkpt>
      <trkpt lat="44.03793" lon="7.02126">
        <ele>1625.5999755859</ele>
        <time>2022-08-20T09:58:28.000Z</time>
      </trkpt>
      <trkpt lat="44.03789" lon="7.02126">
        <ele>1625.4000244141</ele>
        <time>2022-08-20T09:58:29.000Z</time>
      </trkpt>
      <trkpt lat="44.03778" lon="7.02124">
        <ele>1624.8000488281</ele>
        <time>2022-08-20T09:58:31.000Z</time>
      </trkpt>
      <trkpt lat="44.03765" lon="7.02123">
        <ele>1624</ele>
        <time>2022-08-20T09:58:34.000Z</time>
      </trkpt>
      <trkpt lat="44.03761" lon="7.02123">
        <ele>1623</ele>
        <time>2022-08-20T09:58:35.000Z</time>
      </trkpt>
      <trkpt lat="44.03756" lon="7.02123">
        <ele>1622.8000488281</ele>
        <time>2022-08-20T09:58:36.000Z</time>
      </trkpt>
      <trkpt lat="44.03745" lon="7.02122">
        <ele>1621.1999511719</ele>
        <time>2022-08-20T09:58:38.000Z</time>
      </trkpt>
      <trkpt lat="44.03735" lon="7.02117">
        <ele>1620.1999511719</ele>
        <time>2022-08-20T09:58:40.000Z</time>
      </trkpt>
      <trkpt lat="44.03732" lon="7.02115">
        <ele>1619.4000244141</ele>
        <time>2022-08-20T09:58:41.000Z</time>
      </trkpt>
      <trkpt lat="44.03727" lon="7.02115">
        <ele>1619</ele>
        <time>2022-08-20T09:58:42.000Z</time>
      </trkpt>
      <trkpt lat="44.03717" lon="7.02115">
        <ele>1619.1999511719</ele>
        <time>2022-08-20T09:58:44.000Z</time>
      </trkpt>
      <trkpt lat="44.0371" lon="7.02114">
        <ele>1618.8000488281</ele>
        <time>2022-08-20T09:58:45.000Z</time>
      </trkpt>
      <trkpt lat="44.03691" lon="7.02109">
        <ele>1617.8000488281</ele>
        <time>2022-08-20T09:58:48.000Z</time>
      </trkpt>
      <trkpt lat="44.03682" lon="7.02106">
        <ele>1616.5999755859</ele>
        <time>2022-08-20T09:58:50.000Z</time>
      </trkpt>
      <trkpt lat="44.03676" lon="7.02105">
        <ele>1616.4000244141</ele>
        <time>2022-08-20T09:58:51.000Z</time>
      </trkpt>
      <trkpt lat="44.03671" lon="7.02104">
        <ele>1615.5999755859</ele>
        <time>2022-08-20T09:58:52.000Z</time>
      </trkpt>
      <trkpt lat="44.0366" lon="7.02103">
        <ele>1614.5999755859</ele>
        <time>2022-08-20T09:58:54.000Z</time>
      </trkpt>
      <trkpt lat="44.03655" lon="7.02105">
        <ele>1613.8000488281</ele>
        <time>2022-08-20T09:58:55.000Z</time>
      </trkpt>
      <trkpt lat="44.0365" lon="7.02107">
        <ele>1612.8000488281</ele>
        <time>2022-08-20T09:58:56.000Z</time>
      </trkpt>
      <trkpt lat="44.03645" lon="7.02107">
        <ele>1612.4000244141</ele>
        <time>2022-08-20T09:58:57.000Z</time>
      </trkpt>
      <trkpt lat="44.03635" lon="7.02105">
        <ele>1611.4000244141</ele>
        <time>2022-08-20T09:58:59.000Z</time>
      </trkpt>
      <trkpt lat="44.03618" lon="7.02104">
        <ele>1610.1999511719</ele>
        <time>2022-08-20T09:59:02.000Z</time>
      </trkpt>
      <trkpt lat="44.03611" lon="7.02104">
        <ele>1609.4000244141</ele>
        <time>2022-08-20T09:59:03.000Z</time>
      </trkpt>
      <trkpt lat="44.03605" lon="7.02103">
        <ele>1609</ele>
        <time>2022-08-20T09:59:04.000Z</time>
      </trkpt>
      <trkpt lat="44.03594" lon="7.021">
        <ele>1608</ele>
        <time>2022-08-20T09:59:06.000Z</time>
      </trkpt>
      <trkpt lat="44.03589" lon="7.02099">
        <ele>1607.5999755859</ele>
        <time>2022-08-20T09:59:07.000Z</time>
      </trkpt>
      <trkpt lat="44.03584" lon="7.02098">
        <ele>1606.8000488281</ele>
        <time>2022-08-20T09:59:08.000Z</time>
      </trkpt>
      <trkpt lat="44.03574" lon="7.02095">
        <ele>1605.8000488281</ele>
        <time>2022-08-20T09:59:10.000Z</time>
      </trkpt>
      <trkpt lat="44.03569" lon="7.02095">
        <ele>1605.4000244141</ele>
        <time>2022-08-20T09:59:11.000Z</time>
      </trkpt>
      <trkpt lat="44.03564" lon="7.02096">
        <ele>1604.5999755859</ele>
        <time>2022-08-20T09:59:12.000Z</time>
      </trkpt>
      <trkpt lat="44.03544" lon="7.02097">
        <ele>1602.5999755859</ele>
        <time>2022-08-20T09:59:15.000Z</time>
      </trkpt>
      <trkpt lat="44.03537" lon="7.02099">
        <ele>1602</ele>
        <time>2022-08-20T09:59:16.000Z</time>
      </trkpt>
      <trkpt lat="44.03531" lon="7.02099">
        <ele>1601.4000244141</ele>
        <time>2022-08-20T09:59:17.000Z</time>
      </trkpt>
      <trkpt lat="44.03517" lon="7.02098">
        <ele>1599.5999755859</ele>
        <time>2022-08-20T09:59:19.000Z</time>
      </trkpt>
      <trkpt lat="44.0351" lon="7.02099">
        <ele>1598.8000488281</ele>
        <time>2022-08-20T09:59:20.000Z</time>
      </trkpt>
      <trkpt lat="44.03503" lon="7.02099">
        <ele>1597.1999511719</ele>
        <time>2022-08-20T09:59:21.000Z</time>
      </trkpt>
      <trkpt lat="44.03492" lon="7.02099">
        <ele>1595.8000488281</ele>
        <time>2022-08-20T09:59:23.000Z</time>
      </trkpt>
      <trkpt lat="44.03477" lon="7.02097">
        <ele>1594.5999755859</ele>
        <time>2022-08-20T09:59:25.000Z</time>
      </trkpt>
      <trkpt lat="44.03464" lon="7.02097">
        <ele>1593.5999755859</ele>
        <time>2022-08-20T09:59:27.000Z</time>
      </trkpt>
      <trkpt lat="44.03457" lon="7.02097">
        <ele>1593</ele>
        <time>2022-08-20T09:59:28.000Z</time>
      </trkpt>
      <trkpt lat="44.03453" lon="7.02097">
        <ele>1592</ele>
        <time>2022-08-20T09:59:29.000Z</time>
      </trkpt>
      <trkpt lat="44.03445" lon="7.02099">
        <ele>1591.1999511719</ele>
        <time>2022-08-20T09:59:30.000Z</time>
      </trkpt>
      <trkpt lat="44.03439" lon="7.02101">
        <ele>1589.8000488281</ele>
        <time>2022-08-20T09:59:31.000Z</time>
      </trkpt>
      <trkpt lat="44.03433" lon="7.02103">
        <ele>1588.5999755859</ele>
        <time>2022-08-20T09:59:32.000Z</time>
      </trkpt>
      <trkpt lat="44.03427" lon="7.02104">
        <ele>1586.8000488281</ele>
        <time>2022-08-20T09:59:33.000Z</time>
      </trkpt>
      <trkpt lat="44.03421" lon="7.02104">
        <ele>1585.1999511719</ele>
        <time>2022-08-20T09:59:34.000Z</time>
      </trkpt>
      <trkpt lat="44.03414" lon="7.02104">
        <ele>1584</ele>
        <time>2022-08-20T09:59:35.000Z</time>
      </trkpt>
      <trkpt lat="44.03406" lon="7.02103">
        <ele>1583.4000244141</ele>
        <time>2022-08-20T09:59:36.000Z</time>
      </trkpt>
      <trkpt lat="44.03399" lon="7.02103">
        <ele>1582</ele>
        <time>2022-08-20T09:59:37.000Z</time>
      </trkpt>
      <trkpt lat="44.03392" lon="7.02101">
        <ele>1581.1999511719</ele>
        <time>2022-08-20T09:59:38.000Z</time>
      </trkpt>
      <trkpt lat="44.03387" lon="7.02099">
        <ele>1580.4000244141</ele>
        <time>2022-08-20T09:59:39.000Z</time>
      </trkpt>
      <trkpt lat="44.03383" lon="7.02097">
        <ele>1579.4000244141</ele>
        <time>2022-08-20T09:59:40.000Z</time>
      </trkpt>
      <trkpt lat="44.0338" lon="7.02097">
        <ele>1579</ele>
        <time>2022-08-20T09:59:41.000Z</time>
      </trkpt>
      <trkpt lat="44.03377" lon="7.02096">
        <ele>1577.4000244141</ele>
        <time>2022-08-20T09:59:42.000Z</time>
      </trkpt>
      <trkpt lat="44.03373" lon="7.02098">
        <ele>1577.4000244141</ele>
        <time>2022-08-20T09:59:43.000Z</time>
      </trkpt>
      <trkpt lat="44.03365" lon="7.02099">
        <ele>1575.8000488281</ele>
        <time>2022-08-20T09:59:45.000Z</time>
      </trkpt>
      <trkpt lat="44.03355" lon="7.02101">
        <ele>1574.5999755859</ele>
        <time>2022-08-20T09:59:47.000Z</time>
      </trkpt>
      <trkpt lat="44.03343" lon="7.02101">
        <ele>1573</ele>
        <time>2022-08-20T09:59:49.000Z</time>
      </trkpt>
      <trkpt lat="44.0333" lon="7.02098">
        <ele>1570.4000244141</ele>
        <time>2022-08-20T09:59:51.000Z</time>
      </trkpt>
      <trkpt lat="44.03325" lon="7.02096">
        <ele>1569.1999511719</ele>
        <time>2022-08-20T09:59:52.000Z</time>
      </trkpt>
      <trkpt lat="44.0332" lon="7.02094">
        <ele>1568.4000244141</ele>
        <time>2022-08-20T09:59:53.000Z</time>
      </trkpt>
      <trkpt lat="44.03315" lon="7.02093">
        <ele>1567.4000244141</ele>
        <time>2022-08-20T09:59:54.000Z</time>
      </trkpt>
      <trkpt lat="44.03311" lon="7.02092">
        <ele>1566.8000488281</ele>
        <time>2022-08-20T09:59:55.000Z</time>
      </trkpt>
      <trkpt lat="44.03308" lon="7.0209">
        <ele>1565.8000488281</ele>
        <time>2022-08-20T09:59:56.000Z</time>
      </trkpt>
      <trkpt lat="44.03305" lon="7.02089">
        <ele>1565.8000488281</ele>
        <time>2022-08-20T09:59:57.000Z</time>
      </trkpt>
      <trkpt lat="44.033" lon="7.02087">
        <ele>1564.8000488281</ele>
        <time>2022-08-20T09:59:59.000Z</time>
      </trkpt>
      <trkpt lat="44.03297" lon="7.02085">
        <ele>1564.1999511719</ele>
        <time>2022-08-20T10:00:00.000Z</time>
      </trkpt>
      <trkpt lat="44.03295" lon="7.02087">
        <ele>1563.4000244141</ele>
        <time>2022-08-20T10:00:01.000Z</time>
      </trkpt>
      <trkpt lat="44.03292" lon="7.0209">
        <ele>1562.5999755859</ele>
        <time>2022-08-20T10:00:02.000Z</time>
      </trkpt>
      <trkpt lat="44.03288" lon="7.02089">
        <ele>1561.8000488281</ele>
        <time>2022-08-20T10:00:03.000Z</time>
      </trkpt>
      <trkpt lat="44.03285" lon="7.02086">
        <ele>1560.8000488281</ele>
        <time>2022-08-20T10:00:04.000Z</time>
      </trkpt>
      <trkpt lat="44.03279" lon="7.02082">
        <ele>1559.4000244141</ele>
        <time>2022-08-20T10:00:06.000Z</time>
      </trkpt>
      <trkpt lat="44.03276" lon="7.02079">
        <ele>1558.5999755859</ele>
        <time>2022-08-20T10:00:07.000Z</time>
      </trkpt>
      <trkpt lat="44.03273" lon="7.02074">
        <ele>1557.8000488281</ele>
        <time>2022-08-20T10:00:08.000Z</time>
      </trkpt>
      <trkpt lat="44.03265" lon="7.02068">
        <ele>1556.5999755859</ele>
        <time>2022-08-20T10:00:11.000Z</time>
      </trkpt>
      <trkpt lat="44.03259" lon="7.02062">
        <ele>1555.4000244141</ele>
        <time>2022-08-20T10:00:13.000Z</time>
      </trkpt>
      <trkpt lat="44.03254" lon="7.02056">
        <ele>1554.4000244141</ele>
        <time>2022-08-20T10:00:15.000Z</time>
      </trkpt>
      <trkpt lat="44.03251" lon="7.02053">
        <ele>1553.1999511719</ele>
        <time>2022-08-20T10:00:17.000Z</time>
      </trkpt>
      <trkpt lat="44.03249" lon="7.02056">
        <ele>1552.5999755859</ele>
        <time>2022-08-20T10:00:18.000Z</time>
      </trkpt>
      <trkpt lat="44.03247" lon="7.02059">
        <ele>1552</ele>
        <time>2022-08-20T10:00:19.000Z</time>
      </trkpt>
      <trkpt lat="44.03246" lon="7.02064">
        <ele>1550.1999511719</ele>
        <time>2022-08-20T10:00:21.000Z</time>
      </trkpt>
      <trkpt lat="44.03245" lon="7.02066">
        <ele>1549.4000244141</ele>
        <time>2022-08-20T10:00:22.000Z</time>
      </trkpt>
      <trkpt lat="44.03244" lon="7.02068">
        <ele>1548.8000488281</ele>
        <time>2022-08-20T10:00:23.000Z</time>
      </trkpt>
      <trkpt lat="44.03242" lon="7.02069">
        <ele>1548</ele>
        <time>2022-08-20T10:00:24.000Z</time>
      </trkpt>
      <trkpt lat="44.0324" lon="7.02068">
        <ele>1547.1999511719</ele>
        <time>2022-08-20T10:00:25.000Z</time>
      </trkpt>
      <trkpt lat="44.03239" lon="7.02067">
        <ele>1546.4000244141</ele>
        <time>2022-08-20T10:00:26.000Z</time>
      </trkpt>
      <trkpt lat="44.03239" lon="7.02066">
        <ele>1545.5999755859</ele>
        <time>2022-08-20T10:00:27.000Z</time>
      </trkpt>
      <trkpt lat="44.03239" lon="7.02066">
        <ele>1544.5999755859</ele>
        <time>2022-08-20T10:00:29.000Z</time>
      </trkpt>
      <trkpt lat="44.03239" lon="7.02066">
        <ele>1543.5999755859</ele>
        <time>2022-08-20T10:00:31.000Z</time>
      </trkpt>
      <trkpt lat="44.03239" lon="7.02066">
        <ele>1543.5999755859</ele>
        <time>2022-08-20T10:00:46.000Z</time>
      </trkpt>
      <trkpt lat="44.0324" lon="7.02066">
        <ele>1543.5999755859</ele>
        <time>2022-08-20T10:01:15.000Z</time>
      </trkpt>
      <trkpt lat="44.03238" lon="7.02065">
        <ele>1543.5999755859</ele>
        <time>2022-08-20T10:01:27.000Z</time>
      </trkpt>
      <trkpt lat="44.03234" lon="7.02063">
        <ele>1543.5999755859</ele>
        <time>2022-08-20T10:01:29.000Z</time>
      </trkpt>
      <trkpt lat="44.03233" lon="7.0206">
        <ele>1543.5999755859</ele>
        <time>2022-08-20T10:01:30.000Z</time>
      </trkpt>
      <trkpt lat="44.03231" lon="7.02055">
        <ele>1543.4000244141</ele>
        <time>2022-08-20T10:01:31.000Z</time>
      </trkpt>
      <trkpt lat="44.03228" lon="7.02054">
        <ele>1543.1999511719</ele>
        <time>2022-08-20T10:01:32.000Z</time>
      </trkpt>
      <trkpt lat="44.03227" lon="7.02056">
        <ele>1541.8000488281</ele>
        <time>2022-08-20T10:01:34.000Z</time>
      </trkpt>
      <trkpt lat="44.03226" lon="7.02058">
        <ele>1541.1999511719</ele>
        <time>2022-08-20T10:01:35.000Z</time>
      </trkpt>
      <trkpt lat="44.03225" lon="7.0206">
        <ele>1540.5999755859</ele>
        <time>2022-08-20T10:01:36.000Z</time>
      </trkpt>
      <trkpt lat="44.03218" lon="7.02061">
        <ele>1539.1999511719</ele>
        <time>2022-08-20T10:01:39.000Z</time>
      </trkpt>
      <trkpt lat="44.03216" lon="7.02061">
        <ele>1538.8000488281</ele>
        <time>2022-08-20T10:01:40.000Z</time>
      </trkpt>
      <trkpt lat="44.03215" lon="7.02063">
        <ele>1538.1999511719</ele>
        <time>2022-08-20T10:01:41.000Z</time>
      </trkpt>
      <trkpt lat="44.03214" lon="7.02068">
        <ele>1537.1999511719</ele>
        <time>2022-08-20T10:01:43.000Z</time>
      </trkpt>
      <trkpt lat="44.03212" lon="7.0207">
        <ele>1536.8000488281</ele>
        <time>2022-08-20T10:01:44.000Z</time>
      </trkpt>
      <trkpt lat="44.03204" lon="7.02073">
        <ele>1535.8000488281</ele>
        <time>2022-08-20T10:01:47.000Z</time>
      </trkpt>
      <trkpt lat="44.03202" lon="7.02074">
        <ele>1535.1999511719</ele>
        <time>2022-08-20T10:01:48.000Z</time>
      </trkpt>
      <trkpt lat="44.03199" lon="7.02076">
        <ele>1534.1999511719</ele>
        <time>2022-08-20T10:01:49.000Z</time>
      </trkpt>
      <trkpt lat="44.03194" lon="7.02078">
        <ele>1532</ele>
        <time>2022-08-20T10:01:51.000Z</time>
      </trkpt>
      <trkpt lat="44.03192" lon="7.02078">
        <ele>1530.8000488281</ele>
        <time>2022-08-20T10:01:52.000Z</time>
      </trkpt>
      <trkpt lat="44.03192" lon="7.02078">
        <ele>1529.1999511719</ele>
        <time>2022-08-20T10:01:54.000Z</time>
      </trkpt>
      <trkpt lat="44.03192" lon="7.02078">
        <ele>1528</ele>
        <time>2022-08-20T10:01:58.000Z</time>
      </trkpt>
      <trkpt lat="44.0319" lon="7.02074">
        <ele>1527.8000488281</ele>
        <time>2022-08-20T10:02:03.000Z</time>
      </trkpt>
      <trkpt lat="44.0319" lon="7.02072">
        <ele>1527</ele>
        <time>2022-08-20T10:02:07.000Z</time>
      </trkpt>
      <trkpt lat="44.0319" lon="7.02071">
        <ele>1526.8000488281</ele>
        <time>2022-08-20T10:02:09.000Z</time>
      </trkpt>
      <trkpt lat="44.0319" lon="7.02071">
        <ele>1526</ele>
        <time>2022-08-20T10:02:13.000Z</time>
      </trkpt>
      <trkpt lat="44.03191" lon="7.02072">
        <ele>1525.5999755859</ele>
        <time>2022-08-20T10:02:14.000Z</time>
      </trkpt>
      <trkpt lat="44.0319" lon="7.02072">
        <ele>1525.8000488281</ele>
        <time>2022-08-20T10:02:15.000Z</time>
      </trkpt>
      <trkpt lat="44.0319" lon="7.02075">
        <ele>1526.1999511719</ele>
        <time>2022-08-20T10:02:20.000Z</time>
      </trkpt>
      <trkpt lat="44.0319" lon="7.02075">
        <ele>1526.8000488281</ele>
        <time>2022-08-20T10:02:28.000Z</time>
      </trkpt>
      <trkpt lat="44.0319" lon="7.02075">
        <ele>1527</ele>
        <time>2022-08-20T10:02:30.000Z</time>
      </trkpt>
      <trkpt lat="44.0319" lon="7.02075">
        <ele>1526.8000488281</ele>
        <time>2022-08-20T10:02:40.000Z</time>
      </trkpt>
      <trkpt lat="44.03189" lon="7.02075">
        <ele>1526.5999755859</ele>
        <time>2022-08-20T10:02:45.000Z</time>
      </trkpt>
      <trkpt lat="44.0319" lon="7.02075">
        <ele>1526</ele>
        <time>2022-08-20T10:02:52.000Z</time>
      </trkpt>
      <trkpt lat="44.0319" lon="7.02075">
        <ele>1526</ele>
        <time>2022-08-20T10:03:05.000Z</time>
      </trkpt>
      <trkpt lat="44.0319" lon="7.02075">
        <ele>1526.1999511719</ele>
        <time>2022-08-20T10:03:14.000Z</time>
      </trkpt>
      <trkpt lat="44.0319" lon="7.02075">
        <ele>1525.5999755859</ele>
        <time>2022-08-20T10:03:24.000Z</time>
      </trkpt>
      <trkpt lat="44.0319" lon="7.02076">
        <ele>1526</ele>
        <time>2022-08-20T10:03:35.000Z</time>
      </trkpt>
      <trkpt lat="44.0319" lon="7.02076">
        <ele>1526</ele>
        <time>2022-08-20T10:03:46.000Z</time>
      </trkpt>
      <trkpt lat="44.0319" lon="7.02076">
        <ele>1526.4000244141</ele>
        <time>2022-08-20T10:03:53.000Z</time>
      </trkpt>
      <trkpt lat="44.0319" lon="7.02076">
        <ele>1526.1999511719</ele>
        <time>2022-08-20T10:04:08.000Z</time>
      </trkpt>
      <trkpt lat="44.0319" lon="7.02076">
        <ele>1526.5999755859</ele>
        <time>2022-08-20T10:04:14.000Z</time>
      </trkpt>
      <trkpt lat="44.0319" lon="7.02076">
        <ele>1526</ele>
        <time>2022-08-20T10:04:31.000Z</time>
      </trkpt>
      <trkpt lat="44.0319" lon="7.02076">
        <ele>1526.4000244141</ele>
        <time>2022-08-20T10:04:46.000Z</time>
      </trkpt>
      <trkpt lat="44.03189" lon="7.02076">
        <ele>1525.5999755859</ele>
        <time>2022-08-20T10:04:55.000Z</time>
      </trkpt>
      <trkpt lat="44.0319" lon="7.02076">
        <ele>1525.8000488281</ele>
        <time>2022-08-20T10:05:10.000Z</time>
      </trkpt>
      <trkpt lat="44.0319" lon="7.02076">
        <ele>1525.5999755859</ele>
        <time>2022-08-20T10:05:32.000Z</time>
      </trkpt>
      <trkpt lat="44.0319" lon="7.02076">
        <ele>1525.8000488281</ele>
        <time>2022-08-20T10:05:50.000Z</time>
      </trkpt>
      <trkpt lat="44.0319" lon="7.02076">
        <ele>1526</ele>
        <time>2022-08-20T10:06:00.000Z</time>
      </trkpt>
      <trkpt lat="44.0319" lon="7.02076">
        <ele>1525.8000488281</ele>
        <time>2022-08-20T10:06:21.000Z</time>
      </trkpt>
      <trkpt lat="44.0319" lon="7.02076">
        <ele>1526.4000244141</ele>
        <time>2022-08-20T10:06:34.000Z</time>
      </trkpt>
      <trkpt lat="44.03189" lon="7.02076">
        <ele>1526</ele>
        <time>2022-08-20T10:06:43.000Z</time>
      </trkpt>
      <trkpt lat="44.0319" lon="7.02076">
        <ele>1525.5999755859</ele>
        <time>2022-08-20T10:07:01.000Z</time>
      </trkpt>
      <trkpt lat="44.0319" lon="7.02075">
        <ele>1525.8000488281</ele>
        <time>2022-08-20T10:07:14.000Z</time>
      </trkpt>
      <trkpt lat="44.0319" lon="7.02075">
        <ele>1526</ele>
        <time>2022-08-20T10:07:28.000Z</time>
      </trkpt>
      <trkpt lat="44.0319" lon="7.02075">
        <ele>1526.1999511719</ele>
        <time>2022-08-20T10:07:40.000Z</time>
      </trkpt>
      <trkpt lat="44.0319" lon="7.02075">
        <ele>1525.8000488281</ele>
        <time>2022-08-20T10:07:58.000Z</time>
      </trkpt>
      <trkpt lat="44.0319" lon="7.02076">
        <ele>1526.4000244141</ele>
        <time>2022-08-20T10:08:06.000Z</time>
      </trkpt>
      <trkpt lat="44.0319" lon="7.02076">
        <ele>1526.1999511719</ele>
        <time>2022-08-20T10:08:18.000Z</time>
      </trkpt>
      <trkpt lat="44.0319" lon="7.02076">
        <ele>1526</ele>
        <time>2022-08-20T10:08:41.000Z</time>
      </trkpt>
      <trkpt lat="44.0319" lon="7.02076">
        <ele>1525.5999755859</ele>
        <time>2022-08-20T10:08:58.000Z</time>
      </trkpt>
      <trkpt lat="44.0319" lon="7.02076">
        <ele>1526</ele>
        <time>2022-08-20T10:09:12.000Z</time>
      </trkpt>
      <trkpt lat="44.0319" lon="7.02076">
        <ele>1525.8000488281</ele>
        <time>2022-08-20T10:09:31.000Z</time>
      </trkpt>
      <trkpt lat="44.0319" lon="7.02076">
        <ele>1525.5999755859</ele>
        <time>2022-08-20T10:09:47.000Z</time>
      </trkpt>
      <trkpt lat="44.0319" lon="7.02076">
        <ele>1525.5999755859</ele>
        <time>2022-08-20T10:09:58.000Z</time>
      </trkpt>
      <trkpt lat="44.0319" lon="7.02075">
        <ele>1525.8000488281</ele>
        <time>2022-08-20T10:10:16.000Z</time>
      </trkpt>
      <trkpt lat="44.0319" lon="7.02075">
        <ele>1525.5999755859</ele>
        <time>2022-08-20T10:10:27.000Z</time>
      </trkpt>
      <trkpt lat="44.03189" lon="7.02074">
        <ele>1526</ele>
        <time>2022-08-20T10:10:58.000Z</time>
      </trkpt>
      <trkpt lat="44.03189" lon="7.02075">
        <ele>1526.4000244141</ele>
        <time>2022-08-20T10:11:12.000Z</time>
      </trkpt>
      <trkpt lat="44.03188" lon="7.02074">
        <ele>1526.1999511719</ele>
        <time>2022-08-20T10:11:23.000Z</time>
      </trkpt>
      <trkpt lat="44.03188" lon="7.02074">
        <ele>1526.4000244141</ele>
        <time>2022-08-20T10:11:41.000Z</time>
      </trkpt>
      <trkpt lat="44.03188" lon="7.02073">
        <ele>1526.4000244141</ele>
        <time>2022-08-20T10:12:01.000Z</time>
      </trkpt>
      <trkpt lat="44.03189" lon="7.02075">
        <ele>1526.5999755859</ele>
        <time>2022-08-20T10:12:23.000Z</time>
      </trkpt>
      <trkpt lat="44.03189" lon="7.02075">
        <ele>1527</ele>
        <time>2022-08-20T10:12:42.000Z</time>
      </trkpt>
      <trkpt lat="44.03189" lon="7.02074">
        <ele>1527</ele>
        <time>2022-08-20T10:12:48.000Z</time>
      </trkpt>
      <trkpt lat="44.03189" lon="7.02075">
        <ele>1527</ele>
        <time>2022-08-20T10:13:00.000Z</time>
      </trkpt>
      <trkpt lat="44.03188" lon="7.02074">
        <ele>1527.1999511719</ele>
        <time>2022-08-20T10:13:22.000Z</time>
      </trkpt>
      <trkpt lat="44.03188" lon="7.02075">
        <ele>1527.8000488281</ele>
        <time>2022-08-20T10:13:52.000Z</time>
      </trkpt>
      <trkpt lat="44.03189" lon="7.02075">
        <ele>1527.1999511719</ele>
        <time>2022-08-20T10:14:15.000Z</time>
      </trkpt>
      <trkpt lat="44.0319" lon="7.02077">
        <ele>1527.4000244141</ele>
        <time>2022-08-20T10:14:21.000Z</time>
      </trkpt>
      <trkpt lat="44.0319" lon="7.02076">
        <ele>1527.5999755859</ele>
        <time>2022-08-20T10:14:23.000Z</time>
      </trkpt>
      <trkpt lat="44.0319" lon="7.02076">
        <ele>1527.4000244141</ele>
        <time>2022-08-20T10:14:37.000Z</time>
      </trkpt>
      <trkpt lat="44.0319" lon="7.02076">
        <ele>1527.8000488281</ele>
        <time>2022-08-20T10:14:54.000Z</time>
      </trkpt>
      <trkpt lat="44.0319" lon="7.02076">
        <ele>1528</ele>
        <time>2022-08-20T10:14:57.000Z</time>
      </trkpt>
      <trkpt lat="44.0319" lon="7.02076">
        <ele>1528</ele>
        <time>2022-08-20T10:15:18.000Z</time>
      </trkpt>
      <trkpt lat="44.0319" lon="7.02076">
        <ele>1527.8000488281</ele>
        <time>2022-08-20T10:15:43.000Z</time>
      </trkpt>
      <trkpt lat="44.0319" lon="7.02075">
        <ele>1528.1999511719</ele>
        <time>2022-08-20T10:16:15.000Z</time>
      </trkpt>
      <trkpt lat="44.0319" lon="7.02075">
        <ele>1528.1999511719</ele>
        <time>2022-08-20T10:16:36.000Z</time>
      </trkpt>
      <trkpt lat="44.0319" lon="7.02075">
        <ele>1528</ele>
        <time>2022-08-20T10:16:45.000Z</time>
      </trkpt>
      <trkpt lat="44.0319" lon="7.02075">
        <ele>1528.4000244141</ele>
        <time>2022-08-20T10:17:03.000Z</time>
      </trkpt>
      <trkpt lat="44.0319" lon="7.02075">
        <ele>1529.1999511719</ele>
        <time>2022-08-20T10:17:07.000Z</time>
      </trkpt>
      <trkpt lat="44.03189" lon="7.02075">
        <ele>1529.5999755859</ele>
        <time>2022-08-20T10:17:12.000Z</time>
      </trkpt>
      <trkpt lat="44.0319" lon="7.02075">
        <ele>1529.5999755859</ele>
        <time>2022-08-20T10:17:20.000Z</time>
      </trkpt>
      <trkpt lat="44.0319" lon="7.02075">
        <ele>1529.1999511719</ele>
        <time>2022-08-20T10:17:30.000Z</time>
      </trkpt>
      <trkpt lat="44.0319" lon="7.02075">
        <ele>1529</ele>
        <time>2022-08-20T10:17:47.000Z</time>
      </trkpt>
      <trkpt lat="44.0319" lon="7.02075">
        <ele>1529.1999511719</ele>
        <time>2022-08-20T10:17:59.000Z</time>
      </trkpt>
      <trkpt lat="44.0319" lon="7.02076">
        <ele>1528.5999755859</ele>
        <time>2022-08-20T10:18:10.000Z</time>
      </trkpt>
      <trkpt lat="44.0319" lon="7.02076">
        <ele>1528.1999511719</ele>
        <time>2022-08-20T10:18:15.000Z</time>
      </trkpt>
      <trkpt lat="44.0319" lon="7.02076">
        <ele>1528.5999755859</ele>
        <time>2022-08-20T10:18:25.000Z</time>
      </trkpt>
      <trkpt lat="44.0319" lon="7.02076">
        <ele>1527.8000488281</ele>
        <time>2022-08-20T10:18:37.000Z</time>
      </trkpt>
      <trkpt lat="44.0319" lon="7.02076">
        <ele>1528.4000244141</ele>
        <time>2022-08-20T10:19:02.000Z</time>
      </trkpt>
      <trkpt lat="44.0319" lon="7.02076">
        <ele>1528.4000244141</ele>
        <time>2022-08-20T10:19:32.000Z</time>
      </trkpt>
      <trkpt lat="44.0319" lon="7.02076">
        <ele>1528.5999755859</ele>
        <time>2022-08-20T10:19:41.000Z</time>
      </trkpt>
      <trkpt lat="44.03191" lon="7.02076">
        <ele>1528.4000244141</ele>
        <time>2022-08-20T10:19:53.000Z</time>
      </trkpt>
      <trkpt lat="44.0319" lon="7.02076">
        <ele>1528.5999755859</ele>
        <time>2022-08-20T10:20:10.000Z</time>
      </trkpt>
      <trkpt lat="44.0319" lon="7.02076">
        <ele>1528.4000244141</ele>
        <time>2022-08-20T10:20:21.000Z</time>
      </trkpt>
      <trkpt lat="44.0319" lon="7.02076">
        <ele>1528.4000244141</ele>
        <time>2022-08-20T10:20:36.000Z</time>
      </trkpt>
      <trkpt lat="44.0319" lon="7.02075">
        <ele>1528.8000488281</ele>
        <time>2022-08-20T10:20:54.000Z</time>
      </trkpt>
      <trkpt lat="44.0319" lon="7.02076">
        <ele>1528.5999755859</ele>
        <time>2022-08-20T10:21:07.000Z</time>
      </trkpt>
      <trkpt lat="44.0319" lon="7.02076">
        <ele>1528.1999511719</ele>
        <time>2022-08-20T10:21:31.000Z</time>
      </trkpt>
      <trkpt lat="44.0319" lon="7.02076">
        <ele>1528.4000244141</ele>
        <time>2022-08-20T10:21:42.000Z</time>
      </trkpt>
      <trkpt lat="44.0319" lon="7.02076">
        <ele>1528.1999511719</ele>
        <time>2022-08-20T10:22:07.000Z</time>
      </trkpt>
      <trkpt lat="44.0319" lon="7.02076">
        <ele>1527.5999755859</ele>
        <time>2022-08-20T10:22:40.000Z</time>
      </trkpt>
      <trkpt lat="44.0319" lon="7.02076">
        <ele>1527</ele>
        <time>2022-08-20T10:22:48.000Z</time>
      </trkpt>
      <trkpt lat="44.0319" lon="7.02077">
        <ele>1527.1999511719</ele>
        <time>2022-08-20T10:23:16.000Z</time>
      </trkpt>
      <trkpt lat="44.0319" lon="7.02077">
        <ele>1527.5999755859</ele>
        <time>2022-08-20T10:23:22.000Z</time>
      </trkpt>
      <trkpt lat="44.0319" lon="7.02077">
        <ele>1527.8000488281</ele>
        <time>2022-08-20T10:23:35.000Z</time>
      </trkpt>
      <trkpt lat="44.0319" lon="7.02077">
        <ele>1528.1999511719</ele>
        <time>2022-08-20T10:23:39.000Z</time>
      </trkpt>
      <trkpt lat="44.0319" lon="7.02077">
        <ele>1528</ele>
        <time>2022-08-20T10:23:49.000Z</time>
      </trkpt>
      <trkpt lat="44.0319" lon="7.02077">
        <ele>1528</ele>
        <time>2022-08-20T10:24:08.000Z</time>
      </trkpt>
      <trkpt lat="44.0319" lon="7.02077">
        <ele>1527.8000488281</ele>
        <time>2022-08-20T10:24:25.000Z</time>
      </trkpt>
      <trkpt lat="44.0319" lon="7.02077">
        <ele>1527.5999755859</ele>
        <time>2022-08-20T10:24:42.000Z</time>
      </trkpt>
      <trkpt lat="44.0319" lon="7.02077">
        <ele>1528.4000244141</ele>
        <time>2022-08-20T10:25:04.000Z</time>
      </trkpt>
      <trkpt lat="44.03189" lon="7.02076">
        <ele>1528.5999755859</ele>
        <time>2022-08-20T10:25:28.000Z</time>
      </trkpt>
      <trkpt lat="44.03189" lon="7.02076">
        <ele>1529</ele>
        <time>2022-08-20T10:25:44.000Z</time>
      </trkpt>
      <trkpt lat="44.0319" lon="7.02077">
        <ele>1529</ele>
        <time>2022-08-20T10:26:00.000Z</time>
      </trkpt>
      <trkpt lat="44.0319" lon="7.02077">
        <ele>1528.8000488281</ele>
        <time>2022-08-20T10:26:15.000Z</time>
      </trkpt>
      <trkpt lat="44.0319" lon="7.02077">
        <ele>1528.5999755859</ele>
        <time>2022-08-20T10:26:32.000Z</time>
      </trkpt>
      <trkpt lat="44.0319" lon="7.02077">
        <ele>1528.8000488281</ele>
        <time>2022-08-20T10:26:49.000Z</time>
      </trkpt>
      <trkpt lat="44.0319" lon="7.02077">
        <ele>1528.8000488281</ele>
        <time>2022-08-20T10:27:08.000Z</time>
      </trkpt>
      <trkpt lat="44.0319" lon="7.02077">
        <ele>1528.4000244141</ele>
        <time>2022-08-20T10:27:26.000Z</time>
      </trkpt>
      <trkpt lat="44.0319" lon="7.02077">
        <ele>1528.4000244141</ele>
        <time>2022-08-20T10:27:39.000Z</time>
      </trkpt>
      <trkpt lat="44.03188" lon="7.02076">
        <ele>1528.5999755859</ele>
        <time>2022-08-20T10:28:06.000Z</time>
      </trkpt>
      <trkpt lat="44.03188" lon="7.02076">
        <ele>1528.4000244141</ele>
        <time>2022-08-20T10:28:24.000Z</time>
      </trkpt>
      <trkpt lat="44.03188" lon="7.02075">
        <ele>1528</ele>
        <time>2022-08-20T10:28:44.000Z</time>
      </trkpt>
      <trkpt lat="44.03188" lon="7.02076">
        <ele>1528.1999511719</ele>
        <time>2022-08-20T10:29:11.000Z</time>
      </trkpt>
      <trkpt lat="44.03188" lon="7.02076">
        <ele>1527.5999755859</ele>
        <time>2022-08-20T10:29:39.000Z</time>
      </trkpt>
      <trkpt lat="44.03187" lon="7.02075">
        <ele>1528</ele>
        <time>2022-08-20T10:30:05.000Z</time>
      </trkpt>
      <trkpt lat="44.03188" lon="7.02075">
        <ele>1528</ele>
        <time>2022-08-20T10:30:18.000Z</time>
      </trkpt>
      <trkpt lat="44.03188" lon="7.02076">
        <ele>1527.5999755859</ele>
        <time>2022-08-20T10:30:32.000Z</time>
      </trkpt>
      <trkpt lat="44.03188" lon="7.02076">
        <ele>1528.1999511719</ele>
        <time>2022-08-20T10:30:43.000Z</time>
      </trkpt>
      <trkpt lat="44.03188" lon="7.02076">
        <ele>1528.1999511719</ele>
        <time>2022-08-20T10:30:57.000Z</time>
      </trkpt>
      <trkpt lat="44.03188" lon="7.02076">
        <ele>1527.8000488281</ele>
        <time>2022-08-20T10:31:13.000Z</time>
      </trkpt>
      <trkpt lat="44.03188" lon="7.02075">
        <ele>1527.8000488281</ele>
        <time>2022-08-20T10:31:30.000Z</time>
      </trkpt>
      <trkpt lat="44.03188" lon="7.02076">
        <ele>1527.5999755859</ele>
        <time>2022-08-20T10:31:49.000Z</time>
      </trkpt>
      <trkpt lat="44.03189" lon="7.02076">
        <ele>1527.8000488281</ele>
        <time>2022-08-20T10:31:57.000Z</time>
      </trkpt>
      <trkpt lat="44.03189" lon="7.02077">
        <ele>1527.8000488281</ele>
        <time>2022-08-20T10:32:09.000Z</time>
      </trkpt>
      <trkpt lat="44.03189" lon="7.02075">
        <ele>1527.8000488281</ele>
        <time>2022-08-20T10:32:44.000Z</time>
      </trkpt>
      <trkpt lat="44.03189" lon="7.02075">
        <ele>1527.8000488281</ele>
        <time>2022-08-20T10:33:18.000Z</time>
      </trkpt>
      <trkpt lat="44.0319" lon="7.02074">
        <ele>1527.1999511719</ele>
        <time>2022-08-20T10:33:40.000Z</time>
      </trkpt>
      <trkpt lat="44.0319" lon="7.02075">
        <ele>1527.4000244141</ele>
        <time>2022-08-20T10:33:48.000Z</time>
      </trkpt>
      <trkpt lat="44.0319" lon="7.02075">
        <ele>1527.4000244141</ele>
        <time>2022-08-20T10:34:05.000Z</time>
      </trkpt>
      <trkpt lat="44.0319" lon="7.02075">
        <ele>1527.5999755859</ele>
        <time>2022-08-20T10:34:21.000Z</time>
      </trkpt>
      <trkpt lat="44.0319" lon="7.02075">
        <ele>1527.5999755859</ele>
        <time>2022-08-20T10:34:38.000Z</time>
      </trkpt>
      <trkpt lat="44.0319" lon="7.02075">
        <ele>1527.5999755859</ele>
        <time>2022-08-20T10:34:56.000Z</time>
      </trkpt>
      <trkpt lat="44.0319" lon="7.02075">
        <ele>1527.4000244141</ele>
        <time>2022-08-20T10:35:12.000Z</time>
      </trkpt>
      <trkpt lat="44.0319" lon="7.02075">
        <ele>1527.4000244141</ele>
        <time>2022-08-20T10:35:30.000Z</time>
      </trkpt>
      <trkpt lat="44.0319" lon="7.02075">
        <ele>1528</ele>
        <time>2022-08-20T10:35:49.000Z</time>
      </trkpt>
      <trkpt lat="44.0319" lon="7.02075">
        <ele>1528.4000244141</ele>
        <time>2022-08-20T10:36:04.000Z</time>
      </trkpt>
      <trkpt lat="44.0319" lon="7.02076">
        <ele>1528.1999511719</ele>
        <time>2022-08-20T10:36:16.000Z</time>
      </trkpt>
      <trkpt lat="44.0319" lon="7.02075">
        <ele>1527.5999755859</ele>
        <time>2022-08-20T10:36:45.000Z</time>
      </trkpt>
      <trkpt lat="44.03191" lon="7.02075">
        <ele>1528</ele>
        <time>2022-08-20T10:36:56.000Z</time>
      </trkpt>
      <trkpt lat="44.03191" lon="7.02076">
        <ele>1527.8000488281</ele>
        <time>2022-08-20T10:37:05.000Z</time>
      </trkpt>
      <trkpt lat="44.0319" lon="7.02076">
        <ele>1527.8000488281</ele>
        <time>2022-08-20T10:37:21.000Z</time>
      </trkpt>
      <trkpt lat="44.0319" lon="7.02075">
        <ele>1527.4000244141</ele>
        <time>2022-08-20T10:37:53.000Z</time>
      </trkpt>
      <trkpt lat="44.0319" lon="7.02075">
        <ele>1527.4000244141</ele>
        <time>2022-08-20T10:38:29.000Z</time>
      </trkpt>
      <trkpt lat="44.03191" lon="7.02075">
        <ele>1527.4000244141</ele>
        <time>2022-08-20T10:38:59.000Z</time>
      </trkpt>
      <trkpt lat="44.03191" lon="7.02074">
        <ele>1527.8000488281</ele>
        <time>2022-08-20T10:39:07.000Z</time>
      </trkpt>
      <trkpt lat="44.0319" lon="7.02074">
        <ele>1527.8000488281</ele>
        <time>2022-08-20T10:39:18.000Z</time>
      </trkpt>
      <trkpt lat="44.0319" lon="7.02075">
        <ele>1528.1999511719</ele>
        <time>2022-08-20T10:39:24.000Z</time>
      </trkpt>
      <trkpt lat="44.03191" lon="7.02075">
        <ele>1528</ele>
        <time>2022-08-20T10:39:31.000Z</time>
      </trkpt>
      <trkpt lat="44.0319" lon="7.02076">
        <ele>1527.8000488281</ele>
        <time>2022-08-20T10:39:38.000Z</time>
      </trkpt>
      <trkpt lat="44.03191" lon="7.02076">
        <ele>1528.1999511719</ele>
        <time>2022-08-20T10:39:49.000Z</time>
      </trkpt>
      <trkpt lat="44.03191" lon="7.02075">
        <ele>1528.4000244141</ele>
        <time>2022-08-20T10:40:08.000Z</time>
      </trkpt>
      <trkpt lat="44.03191" lon="7.02076">
        <ele>1528.4000244141</ele>
        <time>2022-08-20T10:40:20.000Z</time>
      </trkpt>
      <trkpt lat="44.03191" lon="7.02075">
        <ele>1528</ele>
        <time>2022-08-20T10:40:32.000Z</time>
      </trkpt>
      <trkpt lat="44.0319" lon="7.02075">
        <ele>1527.4000244141</ele>
        <time>2022-08-20T10:40:44.000Z</time>
      </trkpt>
      <trkpt lat="44.03191" lon="7.02074">
        <ele>1527.8000488281</ele>
        <time>2022-08-20T10:40:50.000Z</time>
      </trkpt>
      <trkpt lat="44.03191" lon="7.02074">
        <ele>1528.4000244141</ele>
        <time>2022-08-20T10:40:58.000Z</time>
      </trkpt>
      <trkpt lat="44.03191" lon="7.02074">
        <ele>1528.5999755859</ele>
        <time>2022-08-20T10:41:26.000Z</time>
      </trkpt>
      <trkpt lat="44.03191" lon="7.02074">
        <ele>1528.1999511719</ele>
        <time>2022-08-20T10:41:36.000Z</time>
      </trkpt>
      <trkpt lat="44.03191" lon="7.02074">
        <ele>1528</ele>
        <time>2022-08-20T10:41:47.000Z</time>
      </trkpt>
      <trkpt lat="44.03191" lon="7.02073">
        <ele>1528.8000488281</ele>
        <time>2022-08-20T10:41:54.000Z</time>
      </trkpt>
      <trkpt lat="44.0319" lon="7.02073">
        <ele>1529.1999511719</ele>
        <time>2022-08-20T10:41:56.000Z</time>
      </trkpt>
      <trkpt lat="44.03191" lon="7.02073">
        <ele>1529</ele>
        <time>2022-08-20T10:42:00.000Z</time>
      </trkpt>
      <trkpt lat="44.03191" lon="7.02073">
        <ele>1529</ele>
        <time>2022-08-20T10:42:07.000Z</time>
      </trkpt>
      <trkpt lat="44.03189" lon="7.02076">
        <ele>1529.1999511719</ele>
        <time>2022-08-20T10:42:13.000Z</time>
      </trkpt>
      <trkpt lat="44.03189" lon="7.02076">
        <ele>1528.8000488281</ele>
        <time>2022-08-20T10:42:19.000Z</time>
      </trkpt>
      <trkpt lat="44.03189" lon="7.02078">
        <ele>1528.5999755859</ele>
        <time>2022-08-20T10:42:43.000Z</time>
      </trkpt>
      <trkpt lat="44.03189" lon="7.02078">
        <ele>1528.5999755859</ele>
        <time>2022-08-20T10:42:58.000Z</time>
      </trkpt>
      <trkpt lat="44.0319" lon="7.02075">
        <ele>1528.5999755859</ele>
        <time>2022-08-20T10:43:04.000Z</time>
      </trkpt>
      <trkpt lat="44.03191" lon="7.02071">
        <ele>1529</ele>
        <time>2022-08-20T10:43:11.000Z</time>
      </trkpt>
      <trkpt lat="44.03191" lon="7.0207">
        <ele>1528.8000488281</ele>
        <time>2022-08-20T10:43:23.000Z</time>
      </trkpt>
      <trkpt lat="44.03192" lon="7.0207">
        <ele>1528.4000244141</ele>
        <time>2022-08-20T10:43:31.000Z</time>
      </trkpt>
      <trkpt lat="44.03192" lon="7.02069">
        <ele>1528.5999755859</ele>
        <time>2022-08-20T10:43:36.000Z</time>
      </trkpt>
      <trkpt lat="44.03193" lon="7.02068">
        <ele>1529.4000244141</ele>
        <time>2022-08-20T10:43:46.000Z</time>
      </trkpt>
      <trkpt lat="44.03194" lon="7.02063">
        <ele>1529</ele>
        <time>2022-08-20T10:43:49.000Z</time>
      </trkpt>
      <trkpt lat="44.03193" lon="7.02058">
        <ele>1528.1999511719</ele>
        <time>2022-08-20T10:43:51.000Z</time>
      </trkpt>
      <trkpt lat="44.03192" lon="7.02057">
        <ele>1527.8000488281</ele>
        <time>2022-08-20T10:43:52.000Z</time>
      </trkpt>
      <trkpt lat="44.03188" lon="7.02058">
        <ele>1526.4000244141</ele>
        <time>2022-08-20T10:43:55.000Z</time>
      </trkpt>
      <trkpt lat="44.03183" lon="7.02063">
        <ele>1525.8000488281</ele>
        <time>2022-08-20T10:43:57.000Z</time>
      </trkpt>
      <trkpt lat="44.03177" lon="7.02066">
        <ele>1525</ele>
        <time>2022-08-20T10:43:59.000Z</time>
      </trkpt>
      <trkpt lat="44.03172" lon="7.02068">
        <ele>1524.5999755859</ele>
        <time>2022-08-20T10:44:00.000Z</time>
      </trkpt>
      <trkpt lat="44.03167" lon="7.02071">
        <ele>1523.5999755859</ele>
        <time>2022-08-20T10:44:01.000Z</time>
      </trkpt>
      <trkpt lat="44.03163" lon="7.02074">
        <ele>1522.4000244141</ele>
        <time>2022-08-20T10:44:02.000Z</time>
      </trkpt>
      <trkpt lat="44.03159" lon="7.02077">
        <ele>1521.1999511719</ele>
        <time>2022-08-20T10:44:03.000Z</time>
      </trkpt>
      <trkpt lat="44.03156" lon="7.0208">
        <ele>1519.8000488281</ele>
        <time>2022-08-20T10:44:04.000Z</time>
      </trkpt>
      <trkpt lat="44.03153" lon="7.02082">
        <ele>1518.1999511719</ele>
        <time>2022-08-20T10:44:05.000Z</time>
      </trkpt>
      <trkpt lat="44.0315" lon="7.02084">
        <ele>1517.1999511719</ele>
        <time>2022-08-20T10:44:06.000Z</time>
      </trkpt>
      <trkpt lat="44.03143" lon="7.02087">
        <ele>1516</ele>
        <time>2022-08-20T10:44:08.000Z</time>
      </trkpt>
      <trkpt lat="44.03131" lon="7.02092">
        <ele>1514.8000488281</ele>
        <time>2022-08-20T10:44:11.000Z</time>
      </trkpt>
      <trkpt lat="44.03126" lon="7.02094">
        <ele>1514.4000244141</ele>
        <time>2022-08-20T10:44:12.000Z</time>
      </trkpt>
      <trkpt lat="44.03122" lon="7.02096">
        <ele>1513.8000488281</ele>
        <time>2022-08-20T10:44:13.000Z</time>
      </trkpt>
      <trkpt lat="44.03112" lon="7.02099">
        <ele>1512.5999755859</ele>
        <time>2022-08-20T10:44:15.000Z</time>
      </trkpt>
      <trkpt lat="44.03108" lon="7.02102">
        <ele>1511.5999755859</ele>
        <time>2022-08-20T10:44:16.000Z</time>
      </trkpt>
      <trkpt lat="44.03105" lon="7.02105">
        <ele>1510.4000244141</ele>
        <time>2022-08-20T10:44:17.000Z</time>
      </trkpt>
      <trkpt lat="44.03101" lon="7.0211">
        <ele>1508.5999755859</ele>
        <time>2022-08-20T10:44:18.000Z</time>
      </trkpt>
      <trkpt lat="44.03099" lon="7.02114">
        <ele>1507.4000244141</ele>
        <time>2022-08-20T10:44:19.000Z</time>
      </trkpt>
      <trkpt lat="44.03095" lon="7.02118">
        <ele>1505.8000488281</ele>
        <time>2022-08-20T10:44:20.000Z</time>
      </trkpt>
      <trkpt lat="44.0309" lon="7.02122">
        <ele>1504.1999511719</ele>
        <time>2022-08-20T10:44:21.000Z</time>
      </trkpt>
      <trkpt lat="44.03079" lon="7.02129">
        <ele>1502</ele>
        <time>2022-08-20T10:44:23.000Z</time>
      </trkpt>
      <trkpt lat="44.03074" lon="7.02131">
        <ele>1500.1999511719</ele>
        <time>2022-08-20T10:44:24.000Z</time>
      </trkpt>
      <trkpt lat="44.03068" lon="7.02133">
        <ele>1498.8000488281</ele>
        <time>2022-08-20T10:44:25.000Z</time>
      </trkpt>
      <trkpt lat="44.03064" lon="7.02133">
        <ele>1497.5999755859</ele>
        <time>2022-08-20T10:44:26.000Z</time>
      </trkpt>
      <trkpt lat="44.03059" lon="7.02134">
        <ele>1496.1999511719</ele>
        <time>2022-08-20T10:44:27.000Z</time>
      </trkpt>
      <trkpt lat="44.03054" lon="7.02136">
        <ele>1494.4000244141</ele>
        <time>2022-08-20T10:44:28.000Z</time>
      </trkpt>
      <trkpt lat="44.03051" lon="7.02139">
        <ele>1493.1999511719</ele>
        <time>2022-08-20T10:44:29.000Z</time>
      </trkpt>
      <trkpt lat="44.03048" lon="7.02144">
        <ele>1491.5999755859</ele>
        <time>2022-08-20T10:44:30.000Z</time>
      </trkpt>
      <trkpt lat="44.03036" lon="7.02154">
        <ele>1491.4000244141</ele>
        <time>2022-08-20T10:44:33.000Z</time>
      </trkpt>
      <trkpt lat="44.03032" lon="7.02156">
        <ele>1490.5999755859</ele>
        <time>2022-08-20T10:44:34.000Z</time>
      </trkpt>
      <trkpt lat="44.03027" lon="7.02157">
        <ele>1489.4000244141</ele>
        <time>2022-08-20T10:44:35.000Z</time>
      </trkpt>
      <trkpt lat="44.03023" lon="7.02156">
        <ele>1487.4000244141</ele>
        <time>2022-08-20T10:44:36.000Z</time>
      </trkpt>
      <trkpt lat="44.03021" lon="7.02153">
        <ele>1486.1999511719</ele>
        <time>2022-08-20T10:44:37.000Z</time>
      </trkpt>
      <trkpt lat="44.0302" lon="7.02149">
        <ele>1485</ele>
        <time>2022-08-20T10:44:38.000Z</time>
      </trkpt>
      <trkpt lat="44.03017" lon="7.0214">
        <ele>1483.4000244141</ele>
        <time>2022-08-20T10:44:40.000Z</time>
      </trkpt>
      <trkpt lat="44.03016" lon="7.02135">
        <ele>1483</ele>
        <time>2022-08-20T10:44:41.000Z</time>
      </trkpt>
      <trkpt lat="44.03016" lon="7.02131">
        <ele>1481.5999755859</ele>
        <time>2022-08-20T10:44:42.000Z</time>
      </trkpt>
      <trkpt lat="44.03018" lon="7.02121">
        <ele>1480</ele>
        <time>2022-08-20T10:44:44.000Z</time>
      </trkpt>
      <trkpt lat="44.0302" lon="7.02115">
        <ele>1479.1999511719</ele>
        <time>2022-08-20T10:44:45.000Z</time>
      </trkpt>
      <trkpt lat="44.03022" lon="7.02109">
        <ele>1478.1999511719</ele>
        <time>2022-08-20T10:44:46.000Z</time>
      </trkpt>
      <trkpt lat="44.03027" lon="7.02098">
        <ele>1476.8000488281</ele>
        <time>2022-08-20T10:44:48.000Z</time>
      </trkpt>
      <trkpt lat="44.03031" lon="7.02092">
        <ele>1475.4000244141</ele>
        <time>2022-08-20T10:44:50.000Z</time>
      </trkpt>
      <trkpt lat="44.03034" lon="7.02085">
        <ele>1473.8000488281</ele>
        <time>2022-08-20T10:44:52.000Z</time>
      </trkpt>
      <trkpt lat="44.03038" lon="7.02077">
        <ele>1472.1999511719</ele>
        <time>2022-08-20T10:44:54.000Z</time>
      </trkpt>
      <trkpt lat="44.03041" lon="7.02074">
        <ele>1471.5999755859</ele>
        <time>2022-08-20T10:44:55.000Z</time>
      </trkpt>
      <trkpt lat="44.03043" lon="7.02073">
        <ele>1470.5999755859</ele>
        <time>2022-08-20T10:44:56.000Z</time>
      </trkpt>
      <trkpt lat="44.03049" lon="7.02067">
        <ele>1470</ele>
        <time>2022-08-20T10:44:59.000Z</time>
      </trkpt>
      <trkpt lat="44.03058" lon="7.02054">
        <ele>1470</ele>
        <time>2022-08-20T10:45:04.000Z</time>
      </trkpt>
      <trkpt lat="44.03065" lon="7.02046">
        <ele>1469.5999755859</ele>
        <time>2022-08-20T10:45:08.000Z</time>
      </trkpt>
      <trkpt lat="44.03067" lon="7.02045">
        <ele>1469.8000488281</ele>
        <time>2022-08-20T10:45:09.000Z</time>
      </trkpt>
      <trkpt lat="44.03075" lon="7.02036">
        <ele>1470.8000488281</ele>
        <time>2022-08-20T10:45:14.000Z</time>
      </trkpt>
      <trkpt lat="44.03076" lon="7.02035">
        <ele>1470.8000488281</ele>
        <time>2022-08-20T10:45:15.000Z</time>
      </trkpt>
      <trkpt lat="44.03083" lon="7.02027">
        <ele>1470.5999755859</ele>
        <time>2022-08-20T10:45:20.000Z</time>
      </trkpt>
      <trkpt lat="44.03094" lon="7.02017">
        <ele>1470.5999755859</ele>
        <time>2022-08-20T10:45:26.000Z</time>
      </trkpt>
      <trkpt lat="44.03106" lon="7.02008">
        <ele>1470.4000244141</ele>
        <time>2022-08-20T10:45:32.000Z</time>
      </trkpt>
      <trkpt lat="44.03116" lon="7.01999">
        <ele>1470</ele>
        <time>2022-08-20T10:45:37.000Z</time>
      </trkpt>
      <trkpt lat="44.03128" lon="7.01988">
        <ele>1470.4000244141</ele>
        <time>2022-08-20T10:45:43.000Z</time>
      </trkpt>
      <trkpt lat="44.03137" lon="7.01975">
        <ele>1471.5999755859</ele>
        <time>2022-08-20T10:45:49.000Z</time>
      </trkpt>
      <trkpt lat="44.03139" lon="7.01972">
        <ele>1471.8000488281</ele>
        <time>2022-08-20T10:45:50.000Z</time>
      </trkpt>
      <trkpt lat="44.03146" lon="7.0196">
        <ele>1472.5999755859</ele>
        <time>2022-08-20T10:45:55.000Z</time>
      </trkpt>
      <trkpt lat="44.03148" lon="7.01958">
        <ele>1473</ele>
        <time>2022-08-20T10:45:56.000Z</time>
      </trkpt>
      <trkpt lat="44.03154" lon="7.01948">
        <ele>1473.5999755859</ele>
        <time>2022-08-20T10:46:00.000Z</time>
      </trkpt>
      <trkpt lat="44.03163" lon="7.01935">
        <ele>1473.8000488281</ele>
        <time>2022-08-20T10:46:06.000Z</time>
      </trkpt>
      <trkpt lat="44.03167" lon="7.01931">
        <ele>1474</ele>
        <time>2022-08-20T10:46:08.000Z</time>
      </trkpt>
      <trkpt lat="44.03172" lon="7.01924">
        <ele>1474.4000244141</ele>
        <time>2022-08-20T10:46:12.000Z</time>
      </trkpt>
      <trkpt lat="44.03185" lon="7.01921">
        <ele>1475.1999511719</ele>
        <time>2022-08-20T10:46:18.000Z</time>
      </trkpt>
      <trkpt lat="44.03202" lon="7.01913">
        <ele>1475.8000488281</ele>
        <time>2022-08-20T10:46:26.000Z</time>
      </trkpt>
      <trkpt lat="44.03212" lon="7.01904">
        <ele>1476.1999511719</ele>
        <time>2022-08-20T10:46:31.000Z</time>
      </trkpt>
      <trkpt lat="44.03213" lon="7.01902">
        <ele>1476.4000244141</ele>
        <time>2022-08-20T10:46:32.000Z</time>
      </trkpt>
      <trkpt lat="44.03218" lon="7.0189">
        <ele>1476.8000488281</ele>
        <time>2022-08-20T10:46:36.000Z</time>
      </trkpt>
      <trkpt lat="44.03225" lon="7.01882">
        <ele>1477</ele>
        <time>2022-08-20T10:46:41.000Z</time>
      </trkpt>
      <trkpt lat="44.03226" lon="7.01881">
        <ele>1477.5999755859</ele>
        <time>2022-08-20T10:46:45.000Z</time>
      </trkpt>
      <trkpt lat="44.03228" lon="7.01879">
        <ele>1477.4000244141</ele>
        <time>2022-08-20T10:46:51.000Z</time>
      </trkpt>
      <trkpt lat="44.03232" lon="7.01877">
        <ele>1477.8000488281</ele>
        <time>2022-08-20T10:46:57.000Z</time>
      </trkpt>
      <trkpt lat="44.03238" lon="7.01874">
        <ele>1478.8000488281</ele>
        <time>2022-08-20T10:47:05.000Z</time>
      </trkpt>
      <trkpt lat="44.03241" lon="7.01873">
        <ele>1479</ele>
        <time>2022-08-20T10:47:11.000Z</time>
      </trkpt>
      <trkpt lat="44.03245" lon="7.01869">
        <ele>1478.5999755859</ele>
        <time>2022-08-20T10:47:15.000Z</time>
      </trkpt>
      <trkpt lat="44.03246" lon="7.01865">
        <ele>1478.5999755859</ele>
        <time>2022-08-20T10:47:17.000Z</time>
      </trkpt>
      <trkpt lat="44.03246" lon="7.01855">
        <ele>1479</ele>
        <time>2022-08-20T10:47:20.000Z</time>
      </trkpt>
      <trkpt lat="44.0325" lon="7.01844">
        <ele>1479.1999511719</ele>
        <time>2022-08-20T10:47:24.000Z</time>
      </trkpt>
      <trkpt lat="44.03251" lon="7.01841">
        <ele>1479.4000244141</ele>
        <time>2022-08-20T10:47:25.000Z</time>
      </trkpt>
      <trkpt lat="44.03254" lon="7.01833">
        <ele>1479.8000488281</ele>
        <time>2022-08-20T10:47:28.000Z</time>
      </trkpt>
      <trkpt lat="44.03257" lon="7.01816">
        <ele>1480.5999755859</ele>
        <time>2022-08-20T10:47:33.000Z</time>
      </trkpt>
      <trkpt lat="44.03259" lon="7.01809">
        <ele>1481</ele>
        <time>2022-08-20T10:47:35.000Z</time>
      </trkpt>
      <trkpt lat="44.03262" lon="7.01799">
        <ele>1481.1999511719</ele>
        <time>2022-08-20T10:47:38.000Z</time>
      </trkpt>
      <trkpt lat="44.03265" lon="7.01781">
        <ele>1481.4000244141</ele>
        <time>2022-08-20T10:47:43.000Z</time>
      </trkpt>
      <trkpt lat="44.03269" lon="7.01765">
        <ele>1482</ele>
        <time>2022-08-20T10:47:48.000Z</time>
      </trkpt>
      <trkpt lat="44.03272" lon="7.01755">
        <ele>1482.4000244141</ele>
        <time>2022-08-20T10:47:51.000Z</time>
      </trkpt>
      <trkpt lat="44.03275" lon="7.01747">
        <ele>1483</ele>
        <time>2022-08-20T10:47:55.000Z</time>
      </trkpt>
      <trkpt lat="44.03275" lon="7.01748">
        <ele>1483.4000244141</ele>
        <time>2022-08-20T10:47:56.000Z</time>
      </trkpt>
      <trkpt lat="44.03277" lon="7.0174">
        <ele>1484</ele>
        <time>2022-08-20T10:48:02.000Z</time>
      </trkpt>
      <trkpt lat="44.03281" lon="7.01732">
        <ele>1484.1999511719</ele>
        <time>2022-08-20T10:48:07.000Z</time>
      </trkpt>
      <trkpt lat="44.0329" lon="7.01719">
        <ele>1484.5999755859</ele>
        <time>2022-08-20T10:48:13.000Z</time>
      </trkpt>
      <trkpt lat="44.03291" lon="7.01716">
        <ele>1485.1999511719</ele>
        <time>2022-08-20T10:48:15.000Z</time>
      </trkpt>
      <trkpt lat="44.03295" lon="7.01709">
        <ele>1486</ele>
        <time>2022-08-20T10:48:18.000Z</time>
      </trkpt>
      <trkpt lat="44.03303" lon="7.01698">
        <ele>1486.4000244141</ele>
        <time>2022-08-20T10:48:23.000Z</time>
      </trkpt>
      <trkpt lat="44.03305" lon="7.01696">
        <ele>1486.4000244141</ele>
        <time>2022-08-20T10:48:24.000Z</time>
      </trkpt>
      <trkpt lat="44.03318" lon="7.01686">
        <ele>1486.8000488281</ele>
        <time>2022-08-20T10:48:30.000Z</time>
      </trkpt>
      <trkpt lat="44.03323" lon="7.01677">
        <ele>1487.4000244141</ele>
        <time>2022-08-20T10:48:34.000Z</time>
      </trkpt>
      <trkpt lat="44.03324" lon="7.01675">
        <ele>1487.5999755859</ele>
        <time>2022-08-20T10:48:35.000Z</time>
      </trkpt>
      <trkpt lat="44.03336" lon="7.01663">
        <ele>1488</ele>
        <time>2022-08-20T10:48:41.000Z</time>
      </trkpt>
      <trkpt lat="44.03344" lon="7.01657">
        <ele>1488.4000244141</ele>
        <time>2022-08-20T10:48:45.000Z</time>
      </trkpt>
      <trkpt lat="44.03346" lon="7.01657">
        <ele>1488.5999755859</ele>
        <time>2022-08-20T10:48:46.000Z</time>
      </trkpt>
      <trkpt lat="44.03356" lon="7.01657">
        <ele>1488.8000488281</ele>
        <time>2022-08-20T10:48:51.000Z</time>
      </trkpt>
      <trkpt lat="44.03363" lon="7.01656">
        <ele>1489.5999755859</ele>
        <time>2022-08-20T10:48:54.000Z</time>
      </trkpt>
      <trkpt lat="44.03365" lon="7.01653">
        <ele>1490</ele>
        <time>2022-08-20T10:48:56.000Z</time>
      </trkpt>
      <trkpt lat="44.03367" lon="7.01649">
        <ele>1490.8000488281</ele>
        <time>2022-08-20T10:48:58.000Z</time>
      </trkpt>
      <trkpt lat="44.03367" lon="7.01649">
        <ele>1491.1999511719</ele>
        <time>2022-08-20T10:49:00.000Z</time>
      </trkpt>
      <trkpt lat="44.03367" lon="7.01649">
        <ele>1491.8000488281</ele>
        <time>2022-08-20T10:49:03.000Z</time>
      </trkpt>
      <trkpt lat="44.03367" lon="7.01648">
        <ele>1492</ele>
        <time>2022-08-20T10:49:05.000Z</time>
      </trkpt>
      <trkpt lat="44.0337" lon="7.01646">
        <ele>1492</ele>
        <time>2022-08-20T10:49:12.000Z</time>
      </trkpt>
      <trkpt lat="44.03371" lon="7.01646">
        <ele>1492.8000488281</ele>
        <time>2022-08-20T10:49:18.000Z</time>
      </trkpt>
      <trkpt lat="44.03372" lon="7.01645">
        <ele>1493</ele>
        <time>2022-08-20T10:49:20.000Z</time>
      </trkpt>
      <trkpt lat="44.03374" lon="7.01641">
        <ele>1493.1999511719</ele>
        <time>2022-08-20T10:49:26.000Z</time>
      </trkpt>
      <trkpt lat="44.03376" lon="7.0164">
        <ele>1493.8000488281</ele>
        <time>2022-08-20T10:49:29.000Z</time>
      </trkpt>
      <trkpt lat="44.0338" lon="7.01638">
        <ele>1494.1999511719</ele>
        <time>2022-08-20T10:49:34.000Z</time>
      </trkpt>
      <trkpt lat="44.03381" lon="7.01638">
        <ele>1493.5999755859</ele>
        <time>2022-08-20T10:49:40.000Z</time>
      </trkpt>
      <trkpt lat="44.03389" lon="7.01633">
        <ele>1493.8000488281</ele>
        <time>2022-08-20T10:49:45.000Z</time>
      </trkpt>
      <trkpt lat="44.03396" lon="7.01629">
        <ele>1494.4000244141</ele>
        <time>2022-08-20T10:49:49.000Z</time>
      </trkpt>
      <trkpt lat="44.034" lon="7.01622">
        <ele>1494.5999755859</ele>
        <time>2022-08-20T10:49:54.000Z</time>
      </trkpt>
      <trkpt lat="44.034" lon="7.0162">
        <ele>1494.8000488281</ele>
        <time>2022-08-20T10:49:55.000Z</time>
      </trkpt>
      <trkpt lat="44.034" lon="7.01618">
        <ele>1495</ele>
        <time>2022-08-20T10:49:56.000Z</time>
      </trkpt>
      <trkpt lat="44.03401" lon="7.01613">
        <ele>1496.1999511719</ele>
        <time>2022-08-20T10:49:59.000Z</time>
      </trkpt>
      <trkpt lat="44.03405" lon="7.01608">
        <ele>1497.1999511719</ele>
        <time>2022-08-20T10:50:02.000Z</time>
      </trkpt>
      <trkpt lat="44.03408" lon="7.01605">
        <ele>1497.5999755859</ele>
        <time>2022-08-20T10:50:04.000Z</time>
      </trkpt>
      <trkpt lat="44.03409" lon="7.016">
        <ele>1498.4000244141</ele>
        <time>2022-08-20T10:50:09.000Z</time>
      </trkpt>
      <trkpt lat="44.03417" lon="7.01592">
        <ele>1498.8000488281</ele>
        <time>2022-08-20T10:50:14.000Z</time>
      </trkpt>
      <trkpt lat="44.0342" lon="7.01587">
        <ele>1499.5999755859</ele>
        <time>2022-08-20T10:50:19.000Z</time>
      </trkpt>
      <trkpt lat="44.03424" lon="7.01582">
        <ele>1500.5999755859</ele>
        <time>2022-08-20T10:50:25.000Z</time>
      </trkpt>
      <trkpt lat="44.03424" lon="7.01581">
        <ele>1500.5999755859</ele>
        <time>2022-08-20T10:50:26.000Z</time>
      </trkpt>
      <trkpt lat="44.03435" lon="7.01575">
        <ele>1501</ele>
        <time>2022-08-20T10:50:32.000Z</time>
      </trkpt>
      <trkpt lat="44.0344" lon="7.01575">
        <ele>1501.8000488281</ele>
        <time>2022-08-20T10:50:35.000Z</time>
      </trkpt>
      <trkpt lat="44.03442" lon="7.01573">
        <ele>1502</ele>
        <time>2022-08-20T10:50:36.000Z</time>
      </trkpt>
      <trkpt lat="44.03449" lon="7.01565">
        <ele>1502.8000488281</ele>
        <time>2022-08-20T10:50:41.000Z</time>
      </trkpt>
      <trkpt lat="44.03457" lon="7.01558">
        <ele>1504</ele>
        <time>2022-08-20T10:50:45.000Z</time>
      </trkpt>
      <trkpt lat="44.03461" lon="7.01555">
        <ele>1504.4000244141</ele>
        <time>2022-08-20T10:50:47.000Z</time>
      </trkpt>
      <trkpt lat="44.03469" lon="7.01549">
        <ele>1505</ele>
        <time>2022-08-20T10:50:51.000Z</time>
      </trkpt>
      <trkpt lat="44.03476" lon="7.01544">
        <ele>1505.5999755859</ele>
        <time>2022-08-20T10:50:54.000Z</time>
      </trkpt>
      <trkpt lat="44.03484" lon="7.01544">
        <ele>1506.1999511719</ele>
        <time>2022-08-20T10:50:57.000Z</time>
      </trkpt>
      <trkpt lat="44.03487" lon="7.01546">
        <ele>1507.1999511719</ele>
        <time>2022-08-20T10:50:59.000Z</time>
      </trkpt>
      <trkpt lat="44.03488" lon="7.01547">
        <ele>1508.4000244141</ele>
        <time>2022-08-20T10:51:03.000Z</time>
      </trkpt>
      <trkpt lat="44.03488" lon="7.01547">
        <ele>1508.4000244141</ele>
        <time>2022-08-20T10:51:04.000Z</time>
      </trkpt>
      <trkpt lat="44.0349" lon="7.01548">
        <ele>1508.1999511719</ele>
        <time>2022-08-20T10:51:10.000Z</time>
      </trkpt>
      <trkpt lat="44.03491" lon="7.01545">
        <ele>1508.5999755859</ele>
        <time>2022-08-20T10:51:16.000Z</time>
      </trkpt>
      <trkpt lat="44.03491" lon="7.01541">
        <ele>1508.4000244141</ele>
        <time>2022-08-20T10:51:24.000Z</time>
      </trkpt>
      <trkpt lat="44.0349" lon="7.01537">
        <ele>1508.4000244141</ele>
        <time>2022-08-20T10:51:32.000Z</time>
      </trkpt>
      <trkpt lat="44.03491" lon="7.01532">
        <ele>1509.1999511719</ele>
        <time>2022-08-20T10:51:38.000Z</time>
      </trkpt>
      <trkpt lat="44.03492" lon="7.01529">
        <ele>1509.4000244141</ele>
        <time>2022-08-20T10:51:40.000Z</time>
      </trkpt>
      <trkpt lat="44.03493" lon="7.01528">
        <ele>1510</ele>
        <time>2022-08-20T10:51:44.000Z</time>
      </trkpt>
      <trkpt lat="44.03494" lon="7.01526">
        <ele>1510.4000244141</ele>
        <time>2022-08-20T10:51:47.000Z</time>
      </trkpt>
      <trkpt lat="44.03494" lon="7.01523">
        <ele>1510.8000488281</ele>
        <time>2022-08-20T10:51:51.000Z</time>
      </trkpt>
      <trkpt lat="44.03494" lon="7.01523">
        <ele>1511</ele>
        <time>2022-08-20T10:51:56.000Z</time>
      </trkpt>
      <trkpt lat="44.03497" lon="7.01512">
        <ele>1511.1999511719</ele>
        <time>2022-08-20T10:52:00.000Z</time>
      </trkpt>
      <trkpt lat="44.03499" lon="7.01507">
        <ele>1511.8000488281</ele>
        <time>2022-08-20T10:52:02.000Z</time>
      </trkpt>
      <trkpt lat="44.03502" lon="7.015">
        <ele>1512.8000488281</ele>
        <time>2022-08-20T10:52:05.000Z</time>
      </trkpt>
      <trkpt lat="44.03503" lon="7.01497">
        <ele>1513.1999511719</ele>
        <time>2022-08-20T10:52:06.000Z</time>
      </trkpt>
      <trkpt lat="44.03508" lon="7.01489">
        <ele>1513.8000488281</ele>
        <time>2022-08-20T10:52:09.000Z</time>
      </trkpt>
      <trkpt lat="44.03514" lon="7.01478">
        <ele>1514</ele>
        <time>2022-08-20T10:52:13.000Z</time>
      </trkpt>
      <trkpt lat="44.03522" lon="7.01462">
        <ele>1514.8000488281</ele>
        <time>2022-08-20T10:52:19.000Z</time>
      </trkpt>
      <trkpt lat="44.03524" lon="7.0146">
        <ele>1515</ele>
        <time>2022-08-20T10:52:20.000Z</time>
      </trkpt>
      <trkpt lat="44.03529" lon="7.01446">
        <ele>1516</ele>
        <time>2022-08-20T10:52:25.000Z</time>
      </trkpt>
      <trkpt lat="44.03534" lon="7.01438">
        <ele>1516.5999755859</ele>
        <time>2022-08-20T10:52:30.000Z</time>
      </trkpt>
      <trkpt lat="44.03536" lon="7.01434">
        <ele>1517</ele>
        <time>2022-08-20T10:52:32.000Z</time>
      </trkpt>
      <trkpt lat="44.03538" lon="7.01428">
        <ele>1517.8000488281</ele>
        <time>2022-08-20T10:52:35.000Z</time>
      </trkpt>
      <trkpt lat="44.03543" lon="7.01418">
        <ele>1518.1999511719</ele>
        <time>2022-08-20T10:52:39.000Z</time>
      </trkpt>
      <trkpt lat="44.03544" lon="7.01416">
        <ele>1518.1999511719</ele>
        <time>2022-08-20T10:52:40.000Z</time>
      </trkpt>
      <trkpt lat="44.03547" lon="7.01403">
        <ele>1518.4000244141</ele>
        <time>2022-08-20T10:52:44.000Z</time>
      </trkpt>
      <trkpt lat="44.03547" lon="7.014">
        <ele>1518.5999755859</ele>
        <time>2022-08-20T10:52:45.000Z</time>
      </trkpt>
      <trkpt lat="44.03548" lon="7.01393">
        <ele>1518.8000488281</ele>
        <time>2022-08-20T10:52:48.000Z</time>
      </trkpt>
      <trkpt lat="44.03547" lon="7.01389">
        <ele>1519</ele>
        <time>2022-08-20T10:52:50.000Z</time>
      </trkpt>
      <trkpt lat="44.03546" lon="7.01388">
        <ele>1519.1999511719</ele>
        <time>2022-08-20T10:52:51.000Z</time>
      </trkpt>
      <trkpt lat="44.03541" lon="7.01381">
        <ele>1519.8000488281</ele>
        <time>2022-08-20T10:52:56.000Z</time>
      </trkpt>
      <trkpt lat="44.03539" lon="7.01379">
        <ele>1519.5999755859</ele>
        <time>2022-08-20T10:52:57.000Z</time>
      </trkpt>
      <trkpt lat="44.03529" lon="7.01365">
        <ele>1519.8000488281</ele>
        <time>2022-08-20T10:53:03.000Z</time>
      </trkpt>
      <trkpt lat="44.03523" lon="7.01359">
        <ele>1520.1999511719</ele>
        <time>2022-08-20T10:53:06.000Z</time>
      </trkpt>
      <trkpt lat="44.03516" lon="7.01351">
        <ele>1520.8000488281</ele>
        <time>2022-08-20T10:53:10.000Z</time>
      </trkpt>
      <trkpt lat="44.03512" lon="7.01343">
        <ele>1520.8000488281</ele>
        <time>2022-08-20T10:53:15.000Z</time>
      </trkpt>
      <trkpt lat="44.0351" lon="7.01339">
        <ele>1521.5999755859</ele>
        <time>2022-08-20T10:53:18.000Z</time>
      </trkpt>
      <trkpt lat="44.03506" lon="7.01333">
        <ele>1522</ele>
        <time>2022-08-20T10:53:21.000Z</time>
      </trkpt>
      <trkpt lat="44.03498" lon="7.01318">
        <ele>1522.1999511719</ele>
        <time>2022-08-20T10:53:27.000Z</time>
      </trkpt>
      <trkpt lat="44.03492" lon="7.01303">
        <ele>1522</ele>
        <time>2022-08-20T10:53:33.000Z</time>
      </trkpt>
      <trkpt lat="44.03489" lon="7.01281">
        <ele>1521.5999755859</ele>
        <time>2022-08-20T10:53:41.000Z</time>
      </trkpt>
      <trkpt lat="44.03491" lon="7.01272">
        <ele>1521.4000244141</ele>
        <time>2022-08-20T10:53:45.000Z</time>
      </trkpt>
      <trkpt lat="44.03491" lon="7.01268">
        <ele>1522.1999511719</ele>
        <time>2022-08-20T10:53:51.000Z</time>
      </trkpt>
      <trkpt lat="44.03491" lon="7.01264">
        <ele>1521.8000488281</ele>
        <time>2022-08-20T10:53:57.000Z</time>
      </trkpt>
      <trkpt lat="44.03491" lon="7.01261">
        <ele>1522.5999755859</ele>
        <time>2022-08-20T10:54:01.000Z</time>
      </trkpt>
      <trkpt lat="44.03492" lon="7.01258">
        <ele>1522.8000488281</ele>
        <time>2022-08-20T10:54:05.000Z</time>
      </trkpt>
      <trkpt lat="44.03492" lon="7.01253">
        <ele>1523.1999511719</ele>
        <time>2022-08-20T10:54:12.000Z</time>
      </trkpt>
      <trkpt lat="44.03492" lon="7.01245">
        <ele>1523.4000244141</ele>
        <time>2022-08-20T10:54:18.000Z</time>
      </trkpt>
      <trkpt lat="44.03496" lon="7.01226">
        <ele>1523</ele>
        <time>2022-08-20T10:54:24.000Z</time>
      </trkpt>
      <trkpt lat="44.035" lon="7.01213">
        <ele>1523.8000488281</ele>
        <time>2022-08-20T10:54:28.000Z</time>
      </trkpt>
      <trkpt lat="44.03504" lon="7.01208">
        <ele>1524</ele>
        <time>2022-08-20T10:54:30.000Z</time>
      </trkpt>
      <trkpt lat="44.03509" lon="7.01194">
        <ele>1522.5999755859</ele>
        <time>2022-08-20T10:54:34.000Z</time>
      </trkpt>
      <trkpt lat="44.03511" lon="7.01191">
        <ele>1522.5999755859</ele>
        <time>2022-08-20T10:54:35.000Z</time>
      </trkpt>
      <trkpt lat="44.0352" lon="7.01178">
        <ele>1523.1999511719</ele>
        <time>2022-08-20T10:54:40.000Z</time>
      </trkpt>
      <trkpt lat="44.03521" lon="7.01176">
        <ele>1524</ele>
        <time>2022-08-20T10:54:42.000Z</time>
      </trkpt>
      <trkpt lat="44.03522" lon="7.01173">
        <ele>1524.4000244141</ele>
        <time>2022-08-20T10:54:44.000Z</time>
      </trkpt>
      <trkpt lat="44.03523" lon="7.01172">
        <ele>1524.5999755859</ele>
        <time>2022-08-20T10:54:45.000Z</time>
      </trkpt>
      <trkpt lat="44.03528" lon="7.01165">
        <ele>1524.1999511719</ele>
        <time>2022-08-20T10:54:49.000Z</time>
      </trkpt>
      <trkpt lat="44.03534" lon="7.01163">
        <ele>1524.8000488281</ele>
        <time>2022-08-20T10:54:52.000Z</time>
      </trkpt>
      <trkpt lat="44.03535" lon="7.01162">
        <ele>1525.1999511719</ele>
        <time>2022-08-20T10:54:53.000Z</time>
      </trkpt>
      <trkpt lat="44.03538" lon="7.01156">
        <ele>1526.1999511719</ele>
        <time>2022-08-20T10:54:56.000Z</time>
      </trkpt>
      <trkpt lat="44.03541" lon="7.01151">
        <ele>1526.4000244141</ele>
        <time>2022-08-20T10:54:58.000Z</time>
      </trkpt>
      <trkpt lat="44.03552" lon="7.01139">
        <ele>1525.8000488281</ele>
        <time>2022-08-20T10:55:04.000Z</time>
      </trkpt>
      <trkpt lat="44.0356" lon="7.01127">
        <ele>1526.8000488281</ele>
        <time>2022-08-20T10:55:10.000Z</time>
      </trkpt>
      <trkpt lat="44.03568" lon="7.01118">
        <ele>1527.1999511719</ele>
        <time>2022-08-20T10:55:14.000Z</time>
      </trkpt>
      <trkpt lat="44.03577" lon="7.01115">
        <ele>1527.4000244141</ele>
        <time>2022-08-20T10:55:19.000Z</time>
      </trkpt>
      <trkpt lat="44.03579" lon="7.01109">
        <ele>1527.8000488281</ele>
        <time>2022-08-20T10:55:22.000Z</time>
      </trkpt>
      <trkpt lat="44.03579" lon="7.01107">
        <ele>1527.8000488281</ele>
        <time>2022-08-20T10:55:23.000Z</time>
      </trkpt>
      <trkpt lat="44.03573" lon="7.01101">
        <ele>1527.4000244141</ele>
        <time>2022-08-20T10:55:26.000Z</time>
      </trkpt>
      <trkpt lat="44.03572" lon="7.01098">
        <ele>1527.4000244141</ele>
        <time>2022-08-20T10:55:27.000Z</time>
      </trkpt>
      <trkpt lat="44.03564" lon="7.0108">
        <ele>1527.8000488281</ele>
        <time>2022-08-20T10:55:34.000Z</time>
      </trkpt>
      <trkpt lat="44.03558" lon="7.01069">
        <ele>1528.5999755859</ele>
        <time>2022-08-20T10:55:39.000Z</time>
      </trkpt>
      <trkpt lat="44.0355" lon="7.01061">
        <ele>1529</ele>
        <time>2022-08-20T10:55:44.000Z</time>
      </trkpt>
      <trkpt lat="44.03547" lon="7.01057">
        <ele>1529.5999755859</ele>
        <time>2022-08-20T10:55:46.000Z</time>
      </trkpt>
      <trkpt lat="44.03539" lon="7.01047">
        <ele>1530.1999511719</ele>
        <time>2022-08-20T10:55:51.000Z</time>
      </trkpt>
      <trkpt lat="44.03536" lon="7.01043">
        <ele>1530.5999755859</ele>
        <time>2022-08-20T10:55:53.000Z</time>
      </trkpt>
      <trkpt lat="44.03531" lon="7.0103">
        <ele>1531.1999511719</ele>
        <time>2022-08-20T10:55:58.000Z</time>
      </trkpt>
      <trkpt lat="44.03531" lon="7.01029">
        <ele>1531.8000488281</ele>
        <time>2022-08-20T10:55:59.000Z</time>
      </trkpt>
      <trkpt lat="44.0353" lon="7.01028">
        <ele>1532.5999755859</ele>
        <time>2022-08-20T10:56:01.000Z</time>
      </trkpt>
      <trkpt lat="44.0353" lon="7.01027">
        <ele>1532.8000488281</ele>
        <time>2022-08-20T10:56:02.000Z</time>
      </trkpt>
      <trkpt lat="44.03528" lon="7.01015">
        <ele>1533.8000488281</ele>
        <time>2022-08-20T10:56:07.000Z</time>
      </trkpt>
      <trkpt lat="44.03528" lon="7.01013">
        <ele>1534</ele>
        <time>2022-08-20T10:56:08.000Z</time>
      </trkpt>
      <trkpt lat="44.03522" lon="7.01005">
        <ele>1535.4000244141</ele>
        <time>2022-08-20T10:56:12.000Z</time>
      </trkpt>
      <trkpt lat="44.03521" lon="7.01002">
        <ele>1535.8000488281</ele>
        <time>2022-08-20T10:56:13.000Z</time>
      </trkpt>
      <trkpt lat="44.03519" lon="7.00999">
        <ele>1536.4000244141</ele>
        <time>2022-08-20T10:56:15.000Z</time>
      </trkpt>
      <trkpt lat="44.03517" lon="7.00997">
        <ele>1536.5999755859</ele>
        <time>2022-08-20T10:56:16.000Z</time>
      </trkpt>
      <trkpt lat="44.03515" lon="7.00992">
        <ele>1537</ele>
        <time>2022-08-20T10:56:18.000Z</time>
      </trkpt>
      <trkpt lat="44.03513" lon="7.00988">
        <ele>1537.5999755859</ele>
        <time>2022-08-20T10:56:20.000Z</time>
      </trkpt>
      <trkpt lat="44.03509" lon="7.0098">
        <ele>1538.4000244141</ele>
        <time>2022-08-20T10:56:23.000Z</time>
      </trkpt>
      <trkpt lat="44.03508" lon="7.00978">
        <ele>1538.5999755859</ele>
        <time>2022-08-20T10:56:24.000Z</time>
      </trkpt>
      <trkpt lat="44.03502" lon="7.00966">
        <ele>1539.8000488281</ele>
        <time>2022-08-20T10:56:29.000Z</time>
      </trkpt>
      <trkpt lat="44.035" lon="7.00963">
        <ele>1539.8000488281</ele>
        <time>2022-08-20T10:56:30.000Z</time>
      </trkpt>
      <trkpt lat="44.03498" lon="7.00957">
        <ele>1540.8000488281</ele>
        <time>2022-08-20T10:56:33.000Z</time>
      </trkpt>
      <trkpt lat="44.03494" lon="7.00951">
        <ele>1541.8000488281</ele>
        <time>2022-08-20T10:56:36.000Z</time>
      </trkpt>
      <trkpt lat="44.03491" lon="7.00945">
        <ele>1542.8000488281</ele>
        <time>2022-08-20T10:56:39.000Z</time>
      </trkpt>
      <trkpt lat="44.03488" lon="7.00936">
        <ele>1544</ele>
        <time>2022-08-20T10:56:44.000Z</time>
      </trkpt>
      <trkpt lat="44.03484" lon="7.00923">
        <ele>1545</ele>
        <time>2022-08-20T10:56:50.000Z</time>
      </trkpt>
      <trkpt lat="44.03481" lon="7.00914">
        <ele>1545.5999755859</ele>
        <time>2022-08-20T10:56:54.000Z</time>
      </trkpt>
      <trkpt lat="44.0348" lon="7.00906">
        <ele>1546.1999511719</ele>
        <time>2022-08-20T10:56:57.000Z</time>
      </trkpt>
      <trkpt lat="44.03479" lon="7.00899">
        <ele>1546.8000488281</ele>
        <time>2022-08-20T10:57:00.000Z</time>
      </trkpt>
      <trkpt lat="44.03478" lon="7.00895">
        <ele>1547.4000244141</ele>
        <time>2022-08-20T10:57:02.000Z</time>
      </trkpt>
      <trkpt lat="44.03478" lon="7.0089">
        <ele>1548</ele>
        <time>2022-08-20T10:57:04.000Z</time>
      </trkpt>
      <trkpt lat="44.03479" lon="7.00882">
        <ele>1548.5999755859</ele>
        <time>2022-08-20T10:57:07.000Z</time>
      </trkpt>
      <trkpt lat="44.0348" lon="7.00875">
        <ele>1549.1999511719</ele>
        <time>2022-08-20T10:57:10.000Z</time>
      </trkpt>
      <trkpt lat="44.03481" lon="7.00867">
        <ele>1549.8000488281</ele>
        <time>2022-08-20T10:57:13.000Z</time>
      </trkpt>
      <trkpt lat="44.03482" lon="7.00856">
        <ele>1550.8000488281</ele>
        <time>2022-08-20T10:57:17.000Z</time>
      </trkpt>
      <trkpt lat="44.03483" lon="7.00854">
        <ele>1551</ele>
        <time>2022-08-20T10:57:18.000Z</time>
      </trkpt>
      <trkpt lat="44.03486" lon="7.00842">
        <ele>1552</ele>
        <time>2022-08-20T10:57:23.000Z</time>
      </trkpt>
      <trkpt lat="44.03495" lon="7.00829">
        <ele>1553</ele>
        <time>2022-08-20T10:57:29.000Z</time>
      </trkpt>
      <trkpt lat="44.03496" lon="7.00827">
        <ele>1553</ele>
        <time>2022-08-20T10:57:30.000Z</time>
      </trkpt>
      <trkpt lat="44.03501" lon="7.00814">
        <ele>1554.1999511719</ele>
        <time>2022-08-20T10:57:35.000Z</time>
      </trkpt>
      <trkpt lat="44.03505" lon="7.00809">
        <ele>1554.5999755859</ele>
        <time>2022-08-20T10:57:37.000Z</time>
      </trkpt>
      <trkpt lat="44.03511" lon="7.00798">
        <ele>1555.4000244141</ele>
        <time>2022-08-20T10:57:43.000Z</time>
      </trkpt>
      <trkpt lat="44.03514" lon="7.00791">
        <ele>1556</ele>
        <time>2022-08-20T10:57:46.000Z</time>
      </trkpt>
      <trkpt lat="44.03517" lon="7.00787">
        <ele>1556</ele>
        <time>2022-08-20T10:57:48.000Z</time>
      </trkpt>
      <trkpt lat="44.03528" lon="7.00777">
        <ele>1556.1999511719</ele>
        <time>2022-08-20T10:57:53.000Z</time>
      </trkpt>
      <trkpt lat="44.03543" lon="7.00763">
        <ele>1555.8000488281</ele>
        <time>2022-08-20T10:57:58.000Z</time>
      </trkpt>
      <trkpt lat="44.03547" lon="7.00762">
        <ele>1555.4000244141</ele>
        <time>2022-08-20T10:57:59.000Z</time>
      </trkpt>
      <trkpt lat="44.03556" lon="7.00758">
        <ele>1554.1999511719</ele>
        <time>2022-08-20T10:58:02.000Z</time>
      </trkpt>
      <trkpt lat="44.03559" lon="7.00756">
        <ele>1553.8000488281</ele>
        <time>2022-08-20T10:58:03.000Z</time>
      </trkpt>
      <trkpt lat="44.03564" lon="7.00755">
        <ele>1553.1999511719</ele>
        <time>2022-08-20T10:58:05.000Z</time>
      </trkpt>
      <trkpt lat="44.03572" lon="7.00752">
        <ele>1553</ele>
        <time>2022-08-20T10:58:08.000Z</time>
      </trkpt>
      <trkpt lat="44.03585" lon="7.0075">
        <ele>1552.4000244141</ele>
        <time>2022-08-20T10:58:11.000Z</time>
      </trkpt>
      <trkpt lat="44.0359" lon="7.00749">
        <ele>1552.5999755859</ele>
        <time>2022-08-20T10:58:12.000Z</time>
      </trkpt>
      <trkpt lat="44.03595" lon="7.00748">
        <ele>1551.8000488281</ele>
        <time>2022-08-20T10:58:13.000Z</time>
      </trkpt>
      <trkpt lat="44.03613" lon="7.00739">
        <ele>1551.5999755859</ele>
        <time>2022-08-20T10:58:17.000Z</time>
      </trkpt>
      <trkpt lat="44.03629" lon="7.00727">
        <ele>1551.4000244141</ele>
        <time>2022-08-20T10:58:22.000Z</time>
      </trkpt>
      <trkpt lat="44.0364" lon="7.00717">
        <ele>1551.5999755859</ele>
        <time>2022-08-20T10:58:26.000Z</time>
      </trkpt>
      <trkpt lat="44.03641" lon="7.00714">
        <ele>1551.4000244141</ele>
        <time>2022-08-20T10:58:27.000Z</time>
      </trkpt>
      <trkpt lat="44.03647" lon="7.007">
        <ele>1550.8000488281</ele>
        <time>2022-08-20T10:58:30.000Z</time>
      </trkpt>
      <trkpt lat="44.03649" lon="7.00696">
        <ele>1550.5999755859</ele>
        <time>2022-08-20T10:58:31.000Z</time>
      </trkpt>
      <trkpt lat="44.03652" lon="7.00688">
        <ele>1551</ele>
        <time>2022-08-20T10:58:34.000Z</time>
      </trkpt>
      <trkpt lat="44.03659" lon="7.00679">
        <ele>1551.5999755859</ele>
        <time>2022-08-20T10:58:39.000Z</time>
      </trkpt>
      <trkpt lat="44.03671" lon="7.00674">
        <ele>1551.5999755859</ele>
        <time>2022-08-20T10:58:44.000Z</time>
      </trkpt>
      <trkpt lat="44.03677" lon="7.0067">
        <ele>1551.8000488281</ele>
        <time>2022-08-20T10:58:47.000Z</time>
      </trkpt>
      <trkpt lat="44.03682" lon="7.00662">
        <ele>1552.1999511719</ele>
        <time>2022-08-20T10:58:50.000Z</time>
      </trkpt>
      <trkpt lat="44.0369" lon="7.00638">
        <ele>1552.5999755859</ele>
        <time>2022-08-20T10:58:56.000Z</time>
      </trkpt>
      <trkpt lat="44.03698" lon="7.00626">
        <ele>1552.1999511719</ele>
        <time>2022-08-20T10:59:01.000Z</time>
      </trkpt>
      <trkpt lat="44.03698" lon="7.0062">
        <ele>1551.1999511719</ele>
        <time>2022-08-20T10:59:06.000Z</time>
      </trkpt>
      <trkpt lat="44.03697" lon="7.0062">
        <ele>1550.8000488281</ele>
        <time>2022-08-20T10:59:10.000Z</time>
      </trkpt>
      <trkpt lat="44.03692" lon="7.00621">
        <ele>1550</ele>
        <time>2022-08-20T10:59:17.000Z</time>
      </trkpt>
      <trkpt lat="44.0369" lon="7.0062">
        <ele>1549.8000488281</ele>
        <time>2022-08-20T10:59:23.000Z</time>
      </trkpt>
      <trkpt lat="44.0369" lon="7.0062">
        <ele>1549.8000488281</ele>
        <time>2022-08-20T10:59:24.000Z</time>
      </trkpt>
      <trkpt lat="44.0369" lon="7.0062">
        <ele>1549</ele>
        <time>2022-08-20T10:59:31.000Z</time>
      </trkpt>
      <trkpt lat="44.03682" lon="7.00622">
        <ele>1549</ele>
        <time>2022-08-20T10:59:40.000Z</time>
      </trkpt>
      <trkpt lat="44.03672" lon="7.00614">
        <ele>1550.8000488281</ele>
        <time>2022-08-20T10:59:46.000Z</time>
      </trkpt>
      <trkpt lat="44.03668" lon="7.00604">
        <ele>1552</ele>
        <time>2022-08-20T10:59:50.000Z</time>
      </trkpt>
      <trkpt lat="44.03664" lon="7.00599">
        <ele>1552.4000244141</ele>
        <time>2022-08-20T10:59:52.000Z</time>
      </trkpt>
      <trkpt lat="44.03659" lon="7.00591">
        <ele>1553.1999511719</ele>
        <time>2022-08-20T10:59:55.000Z</time>
      </trkpt>
      <trkpt lat="44.03654" lon="7.00581">
        <ele>1553.8000488281</ele>
        <time>2022-08-20T10:59:59.000Z</time>
      </trkpt>
      <trkpt lat="44.03651" lon="7.00575">
        <ele>1554.1999511719</ele>
        <time>2022-08-20T11:00:01.000Z</time>
      </trkpt>
      <trkpt lat="44.03646" lon="7.00567">
        <ele>1555</ele>
        <time>2022-08-20T11:00:04.000Z</time>
      </trkpt>
      <trkpt lat="44.03644" lon="7.00565">
        <ele>1555.4000244141</ele>
        <time>2022-08-20T11:00:05.000Z</time>
      </trkpt>
      <trkpt lat="44.03639" lon="7.00561">
        <ele>1556.5999755859</ele>
        <time>2022-08-20T11:00:08.000Z</time>
      </trkpt>
      <trkpt lat="44.03637" lon="7.0056">
        <ele>1557.1999511719</ele>
        <time>2022-08-20T11:00:09.000Z</time>
      </trkpt>
      <trkpt lat="44.03634" lon="7.00556">
        <ele>1557.5999755859</ele>
        <time>2022-08-20T11:00:11.000Z</time>
      </trkpt>
      <trkpt lat="44.03632" lon="7.00553">
        <ele>1558</ele>
        <time>2022-08-20T11:00:14.000Z</time>
      </trkpt>
      <trkpt lat="44.03632" lon="7.00553">
        <ele>1558.8000488281</ele>
        <time>2022-08-20T11:00:16.000Z</time>
      </trkpt>
      <trkpt lat="44.0363" lon="7.00552">
        <ele>1559.5999755859</ele>
        <time>2022-08-20T11:00:20.000Z</time>
      </trkpt>
      <trkpt lat="44.03623" lon="7.00546">
        <ele>1559.5999755859</ele>
        <time>2022-08-20T11:00:25.000Z</time>
      </trkpt>
      <trkpt lat="44.03622" lon="7.00544">
        <ele>1559.8000488281</ele>
        <time>2022-08-20T11:00:26.000Z</time>
      </trkpt>
      <trkpt lat="44.03618" lon="7.00539">
        <ele>1561</ele>
        <time>2022-08-20T11:00:29.000Z</time>
      </trkpt>
      <trkpt lat="44.03616" lon="7.00537">
        <ele>1561.4000244141</ele>
        <time>2022-08-20T11:00:30.000Z</time>
      </trkpt>
      <trkpt lat="44.03612" lon="7.00535">
        <ele>1562</ele>
        <time>2022-08-20T11:00:32.000Z</time>
      </trkpt>
      <trkpt lat="44.03604" lon="7.00524">
        <ele>1562.8000488281</ele>
        <time>2022-08-20T11:00:37.000Z</time>
      </trkpt>
      <trkpt lat="44.03601" lon="7.00521">
        <ele>1563.1999511719</ele>
        <time>2022-08-20T11:00:39.000Z</time>
      </trkpt>
      <trkpt lat="44.03593" lon="7.00511">
        <ele>1564.1999511719</ele>
        <time>2022-08-20T11:00:44.000Z</time>
      </trkpt>
      <trkpt lat="44.03591" lon="7.00509">
        <ele>1564.4000244141</ele>
        <time>2022-08-20T11:00:45.000Z</time>
      </trkpt>
      <trkpt lat="44.03587" lon="7.00496">
        <ele>1565.5999755859</ele>
        <time>2022-08-20T11:00:50.000Z</time>
      </trkpt>
      <trkpt lat="44.03586" lon="7.00493">
        <ele>1566</ele>
        <time>2022-08-20T11:00:51.000Z</time>
      </trkpt>
      <trkpt lat="44.03582" lon="7.00482">
        <ele>1566.8000488281</ele>
        <time>2022-08-20T11:00:55.000Z</time>
      </trkpt>
      <trkpt lat="44.03577" lon="7.00475">
        <ele>1567.5999755859</ele>
        <time>2022-08-20T11:00:58.000Z</time>
      </trkpt>
      <trkpt lat="44.03574" lon="7.0047">
        <ele>1567.8000488281</ele>
        <time>2022-08-20T11:01:00.000Z</time>
      </trkpt>
      <trkpt lat="44.03565" lon="7.00458">
        <ele>1568.5999755859</ele>
        <time>2022-08-20T11:01:05.000Z</time>
      </trkpt>
      <trkpt lat="44.03563" lon="7.00453">
        <ele>1569</ele>
        <time>2022-08-20T11:01:07.000Z</time>
      </trkpt>
      <trkpt lat="44.03557" lon="7.00444">
        <ele>1569.8000488281</ele>
        <time>2022-08-20T11:01:11.000Z</time>
      </trkpt>
      <trkpt lat="44.03553" lon="7.00436">
        <ele>1570.1999511719</ele>
        <time>2022-08-20T11:01:14.000Z</time>
      </trkpt>
      <trkpt lat="44.03549" lon="7.00429">
        <ele>1570.1999511719</ele>
        <time>2022-08-20T11:01:17.000Z</time>
      </trkpt>
      <trkpt lat="44.03547" lon="7.00423">
        <ele>1570.8000488281</ele>
        <time>2022-08-20T11:01:22.000Z</time>
      </trkpt>
      <trkpt lat="44.03547" lon="7.00423">
        <ele>1571.1999511719</ele>
        <time>2022-08-20T11:01:25.000Z</time>
      </trkpt>
      <trkpt lat="44.03547" lon="7.00423">
        <ele>1571.5999755859</ele>
        <time>2022-08-20T11:01:45.000Z</time>
      </trkpt>
      <trkpt lat="44.03547" lon="7.00424">
        <ele>1571.4000244141</ele>
        <time>2022-08-20T11:01:57.000Z</time>
      </trkpt>
      <trkpt lat="44.03548" lon="7.00424">
        <ele>1571.5999755859</ele>
        <time>2022-08-20T11:02:25.000Z</time>
      </trkpt>
      <trkpt lat="44.03547" lon="7.00424">
        <ele>1571.4000244141</ele>
        <time>2022-08-20T11:02:42.000Z</time>
      </trkpt>
      <trkpt lat="44.03547" lon="7.00423">
        <ele>1571.8000488281</ele>
        <time>2022-08-20T11:03:09.000Z</time>
      </trkpt>
      <trkpt lat="44.03547" lon="7.00423">
        <ele>1571.5999755859</ele>
        <time>2022-08-20T11:03:34.000Z</time>
      </trkpt>
      <trkpt lat="44.03547" lon="7.00424">
        <ele>1571.5999755859</ele>
        <time>2022-08-20T11:04:05.000Z</time>
      </trkpt>
      <trkpt lat="44.03548" lon="7.00424">
        <ele>1571.1999511719</ele>
        <time>2022-08-20T11:04:30.000Z</time>
      </trkpt>
      <trkpt lat="44.03548" lon="7.00424">
        <ele>1571.4000244141</ele>
        <time>2022-08-20T11:04:54.000Z</time>
      </trkpt>
      <trkpt lat="44.03547" lon="7.00423">
        <ele>1571.1999511719</ele>
        <time>2022-08-20T11:05:09.000Z</time>
      </trkpt>
      <trkpt lat="44.03546" lon="7.00418">
        <ele>1571.1999511719</ele>
        <time>2022-08-20T11:05:11.000Z</time>
      </trkpt>
      <trkpt lat="44.03545" lon="7.00412">
        <ele>1571.4000244141</ele>
        <time>2022-08-20T11:05:13.000Z</time>
      </trkpt>
      <trkpt lat="44.03543" lon="7.00399">
        <ele>1571.5999755859</ele>
        <time>2022-08-20T11:05:17.000Z</time>
      </trkpt>
      <trkpt lat="44.03538" lon="7.00375">
        <ele>1572</ele>
        <time>2022-08-20T11:05:24.000Z</time>
      </trkpt>
      <trkpt lat="44.03538" lon="7.00364">
        <ele>1572.4000244141</ele>
        <time>2022-08-20T11:05:28.000Z</time>
      </trkpt>
      <trkpt lat="44.03538" lon="7.00362">
        <ele>1572.4000244141</ele>
        <time>2022-08-20T11:05:29.000Z</time>
      </trkpt>
      <trkpt lat="44.03536" lon="7.00352">
        <ele>1572.4000244141</ele>
        <time>2022-08-20T11:05:32.000Z</time>
      </trkpt>
      <trkpt lat="44.03533" lon="7.00334">
        <ele>1571.5999755859</ele>
        <time>2022-08-20T11:05:36.000Z</time>
      </trkpt>
      <trkpt lat="44.03533" lon="7.00323">
        <ele>1571.1999511719</ele>
        <time>2022-08-20T11:05:38.000Z</time>
      </trkpt>
      <trkpt lat="44.03534" lon="7.00312">
        <ele>1570.1999511719</ele>
        <time>2022-08-20T11:05:40.000Z</time>
      </trkpt>
      <trkpt lat="44.03535" lon="7.003">
        <ele>1568.8000488281</ele>
        <time>2022-08-20T11:05:42.000Z</time>
      </trkpt>
      <trkpt lat="44.03536" lon="7.00295">
        <ele>1568.4000244141</ele>
        <time>2022-08-20T11:05:43.000Z</time>
      </trkpt>
      <trkpt lat="44.03537" lon="7.0029">
        <ele>1567.5999755859</ele>
        <time>2022-08-20T11:05:44.000Z</time>
      </trkpt>
      <trkpt lat="44.03538" lon="7.00285">
        <ele>1567</ele>
        <time>2022-08-20T11:05:45.000Z</time>
      </trkpt>
      <trkpt lat="44.03543" lon="7.00264">
        <ele>1566.8000488281</ele>
        <time>2022-08-20T11:05:50.000Z</time>
      </trkpt>
      <trkpt lat="44.03549" lon="7.00234">
        <ele>1567</ele>
        <time>2022-08-20T11:05:57.000Z</time>
      </trkpt>
      <trkpt lat="44.03552" lon="7.00215">
        <ele>1567.1999511719</ele>
        <time>2022-08-20T11:06:02.000Z</time>
      </trkpt>
      <trkpt lat="44.03557" lon="7.00188">
        <ele>1568.4000244141</ele>
        <time>2022-08-20T11:06:09.000Z</time>
      </trkpt>
      <trkpt lat="44.03566" lon="7.00161">
        <ele>1568.5999755859</ele>
        <time>2022-08-20T11:06:17.000Z</time>
      </trkpt>
      <trkpt lat="44.03569" lon="7.00156">
        <ele>1569.4000244141</ele>
        <time>2022-08-20T11:06:20.000Z</time>
      </trkpt>
      <trkpt lat="44.03572" lon="7.00155">
        <ele>1569.5999755859</ele>
        <time>2022-08-20T11:06:22.000Z</time>
      </trkpt>
      <trkpt lat="44.03575" lon="7.00147">
        <ele>1569</ele>
        <time>2022-08-20T11:06:25.000Z</time>
      </trkpt>
      <trkpt lat="44.03572" lon="7.00138">
        <ele>1568.4000244141</ele>
        <time>2022-08-20T11:06:29.000Z</time>
      </trkpt>
      <trkpt lat="44.03573" lon="7.00117">
        <ele>1568.1999511719</ele>
        <time>2022-08-20T11:06:33.000Z</time>
      </trkpt>
      <trkpt lat="44.03574" lon="7.00113">
        <ele>1567.8000488281</ele>
        <time>2022-08-20T11:06:34.000Z</time>
      </trkpt>
      <trkpt lat="44.03574" lon="7.0011">
        <ele>1567.5999755859</ele>
        <time>2022-08-20T11:06:35.000Z</time>
      </trkpt>
      <trkpt lat="44.03574" lon="7.00105">
        <ele>1566.8000488281</ele>
        <time>2022-08-20T11:06:37.000Z</time>
      </trkpt>
      <trkpt lat="44.03574" lon="7.00103">
        <ele>1566.5999755859</ele>
        <time>2022-08-20T11:06:38.000Z</time>
      </trkpt>
      <trkpt lat="44.03575" lon="7.001">
        <ele>1565.5999755859</ele>
        <time>2022-08-20T11:06:42.000Z</time>
      </trkpt>
      <trkpt lat="44.03575" lon="7.00099">
        <ele>1565.4000244141</ele>
        <time>2022-08-20T11:06:43.000Z</time>
      </trkpt>
      <trkpt lat="44.03575" lon="7.00095">
        <ele>1564.8000488281</ele>
        <time>2022-08-20T11:06:47.000Z</time>
      </trkpt>
      <trkpt lat="44.03573" lon="7.00084">
        <ele>1564.4000244141</ele>
        <time>2022-08-20T11:06:51.000Z</time>
      </trkpt>
      <trkpt lat="44.03569" lon="7.00078">
        <ele>1563</ele>
        <time>2022-08-20T11:06:54.000Z</time>
      </trkpt>
      <trkpt lat="44.03569" lon="7.00075">
        <ele>1562.4000244141</ele>
        <time>2022-08-20T11:06:55.000Z</time>
      </trkpt>
      <trkpt lat="44.03569" lon="7.00073">
        <ele>1561.8000488281</ele>
        <time>2022-08-20T11:06:56.000Z</time>
      </trkpt>
      <trkpt lat="44.03569" lon="7.00063">
        <ele>1560.4000244141</ele>
        <time>2022-08-20T11:06:59.000Z</time>
      </trkpt>
      <trkpt lat="44.03568" lon="7.00056">
        <ele>1559.1999511719</ele>
        <time>2022-08-20T11:07:01.000Z</time>
      </trkpt>
      <trkpt lat="44.03567" lon="7.00054">
        <ele>1558.5999755859</ele>
        <time>2022-08-20T11:07:02.000Z</time>
      </trkpt>
      <trkpt lat="44.03565" lon="7.00052">
        <ele>1558.1999511719</ele>
        <time>2022-08-20T11:07:03.000Z</time>
      </trkpt>
      <trkpt lat="44.03559" lon="7.00043">
        <ele>1559.1999511719</ele>
        <time>2022-08-20T11:07:07.000Z</time>
      </trkpt>
      <trkpt lat="44.03558" lon="7.00041">
        <ele>1559.4000244141</ele>
        <time>2022-08-20T11:07:08.000Z</time>
      </trkpt>
      <trkpt lat="44.03556" lon="7.00036">
        <ele>1560.1999511719</ele>
        <time>2022-08-20T11:07:12.000Z</time>
      </trkpt>
      <trkpt lat="44.03555" lon="7.00034">
        <ele>1560</ele>
        <time>2022-08-20T11:07:18.000Z</time>
      </trkpt>
      <trkpt lat="44.03554" lon="7.00031">
        <ele>1560</ele>
        <time>2022-08-20T11:07:23.000Z</time>
      </trkpt>
      <trkpt lat="44.03551" lon="7.00028">
        <ele>1560.1999511719</ele>
        <time>2022-08-20T11:07:26.000Z</time>
      </trkpt>
      <trkpt lat="44.03549" lon="7.00029">
        <ele>1560.1999511719</ele>
        <time>2022-08-20T11:07:27.000Z</time>
      </trkpt>
      <trkpt lat="44.0354" lon="7.00036">
        <ele>1560</ele>
        <time>2022-08-20T11:07:31.000Z</time>
      </trkpt>
      <trkpt lat="44.03535" lon="7.00036">
        <ele>1560</ele>
        <time>2022-08-20T11:07:33.000Z</time>
      </trkpt>
      <trkpt lat="44.03527" lon="7.00037">
        <ele>1559.8000488281</ele>
        <time>2022-08-20T11:07:37.000Z</time>
      </trkpt>
      <trkpt lat="44.03518" lon="7.00032">
        <ele>1560</ele>
        <time>2022-08-20T11:07:42.000Z</time>
      </trkpt>
      <trkpt lat="44.03516" lon="7.00027">
        <ele>1560.4000244141</ele>
        <time>2022-08-20T11:07:44.000Z</time>
      </trkpt>
      <trkpt lat="44.03514" lon="7.00023">
        <ele>1560.5999755859</ele>
        <time>2022-08-20T11:07:46.000Z</time>
      </trkpt>
      <trkpt lat="44.03508" lon="7.00023">
        <ele>1560.1999511719</ele>
        <time>2022-08-20T11:07:50.000Z</time>
      </trkpt>
      <trkpt lat="44.03505" lon="7.00026">
        <ele>1559.8000488281</ele>
        <time>2022-08-20T11:07:52.000Z</time>
      </trkpt>
      <trkpt lat="44.03498" lon="7.00029">
        <ele>1560.1999511719</ele>
        <time>2022-08-20T11:07:56.000Z</time>
      </trkpt>
      <trkpt lat="44.03488" lon="7.00032">
        <ele>1560.1999511719</ele>
        <time>2022-08-20T11:08:01.000Z</time>
      </trkpt>
      <trkpt lat="44.0348" lon="7.00031">
        <ele>1560.5999755859</ele>
        <time>2022-08-20T11:08:05.000Z</time>
      </trkpt>
      <trkpt lat="44.03466" lon="7.00032">
        <ele>1560.8000488281</ele>
        <time>2022-08-20T11:08:11.000Z</time>
      </trkpt>
      <trkpt lat="44.03454" lon="7.00032">
        <ele>1561.1999511719</ele>
        <time>2022-08-20T11:08:16.000Z</time>
      </trkpt>
      <trkpt lat="44.03443" lon="7.00026">
        <ele>1561.8000488281</ele>
        <time>2022-08-20T11:08:22.000Z</time>
      </trkpt>
      <trkpt lat="44.03433" lon="7.00016">
        <ele>1561.8000488281</ele>
        <time>2022-08-20T11:08:26.000Z</time>
      </trkpt>
      <trkpt lat="44.03426" lon="7.00003">
        <ele>1561.5999755859</ele>
        <time>2022-08-20T11:08:31.000Z</time>
      </trkpt>
      <trkpt lat="44.03423" lon="6.99988">
        <ele>1562.1999511719</ele>
        <time>2022-08-20T11:08:37.000Z</time>
      </trkpt>
      <trkpt lat="44.03422" lon="6.9998">
        <ele>1562.4000244141</ele>
        <time>2022-08-20T11:08:41.000Z</time>
      </trkpt>
      <trkpt lat="44.03421" lon="6.99978">
        <ele>1562.4000244141</ele>
        <time>2022-08-20T11:08:42.000Z</time>
      </trkpt>
      <trkpt lat="44.03422" lon="6.9997">
        <ele>1562.8000488281</ele>
        <time>2022-08-20T11:08:45.000Z</time>
      </trkpt>
      <trkpt lat="44.03421" lon="6.99964">
        <ele>1563</ele>
        <time>2022-08-20T11:08:47.000Z</time>
      </trkpt>
      <trkpt lat="44.03422" lon="6.99952">
        <ele>1564</ele>
        <time>2022-08-20T11:08:52.000Z</time>
      </trkpt>
      <trkpt lat="44.03422" lon="6.99951">
        <ele>1564.1999511719</ele>
        <time>2022-08-20T11:08:53.000Z</time>
      </trkpt>
      <trkpt lat="44.03421" lon="6.9995">
        <ele>1564.5999755859</ele>
        <time>2022-08-20T11:08:54.000Z</time>
      </trkpt>
      <trkpt lat="44.03419" lon="6.99947">
        <ele>1565</ele>
        <time>2022-08-20T11:08:56.000Z</time>
      </trkpt>
      <trkpt lat="44.03418" lon="6.99947">
        <ele>1565</ele>
        <time>2022-08-20T11:08:57.000Z</time>
      </trkpt>
      <trkpt lat="44.0341" lon="6.99951">
        <ele>1565.4000244141</ele>
        <time>2022-08-20T11:09:01.000Z</time>
      </trkpt>
      <trkpt lat="44.03403" lon="6.99956">
        <ele>1566.1999511719</ele>
        <time>2022-08-20T11:09:04.000Z</time>
      </trkpt>
      <trkpt lat="44.03398" lon="6.99959">
        <ele>1566.5999755859</ele>
        <time>2022-08-20T11:09:06.000Z</time>
      </trkpt>
      <trkpt lat="44.03389" lon="6.99958">
        <ele>1567.4000244141</ele>
        <time>2022-08-20T11:09:10.000Z</time>
      </trkpt>
      <trkpt lat="44.03382" lon="6.99947">
        <ele>1568</ele>
        <time>2022-08-20T11:09:15.000Z</time>
      </trkpt>
      <trkpt lat="44.03379" lon="6.99942">
        <ele>1568.4000244141</ele>
        <time>2022-08-20T11:09:17.000Z</time>
      </trkpt>
      <trkpt lat="44.03372" lon="6.99933">
        <ele>1569</ele>
        <time>2022-08-20T11:09:21.000Z</time>
      </trkpt>
      <trkpt lat="44.03363" lon="6.99919">
        <ele>1569.4000244141</ele>
        <time>2022-08-20T11:09:27.000Z</time>
      </trkpt>
      <trkpt lat="44.03355" lon="6.99905">
        <ele>1569.4000244141</ele>
        <time>2022-08-20T11:09:32.000Z</time>
      </trkpt>
      <trkpt lat="44.03351" lon="6.99897">
        <ele>1569.8000488281</ele>
        <time>2022-08-20T11:09:35.000Z</time>
      </trkpt>
      <trkpt lat="44.03344" lon="6.99881">
        <ele>1569.8000488281</ele>
        <time>2022-08-20T11:09:41.000Z</time>
      </trkpt>
      <trkpt lat="44.03339" lon="6.99864">
        <ele>1570.5999755859</ele>
        <time>2022-08-20T11:09:47.000Z</time>
      </trkpt>
      <trkpt lat="44.03337" lon="6.9986">
        <ele>1570.5999755859</ele>
        <time>2022-08-20T11:09:48.000Z</time>
      </trkpt>
      <trkpt lat="44.03331" lon="6.99843">
        <ele>1571</ele>
        <time>2022-08-20T11:09:55.000Z</time>
      </trkpt>
      <trkpt lat="44.03324" lon="6.99825">
        <ele>1571.1999511719</ele>
        <time>2022-08-20T11:10:00.000Z</time>
      </trkpt>
      <trkpt lat="44.03321" lon="6.99802">
        <ele>1571.5999755859</ele>
        <time>2022-08-20T11:10:06.000Z</time>
      </trkpt>
      <trkpt lat="44.03322" lon="6.99785">
        <ele>1572.4000244141</ele>
        <time>2022-08-20T11:10:11.000Z</time>
      </trkpt>
      <trkpt lat="44.03323" lon="6.9978">
        <ele>1572.8000488281</ele>
        <time>2022-08-20T11:10:14.000Z</time>
      </trkpt>
      <trkpt lat="44.03323" lon="6.99777">
        <ele>1573</ele>
        <time>2022-08-20T11:10:15.000Z</time>
      </trkpt>
      <trkpt lat="44.03325" lon="6.99767">
        <ele>1574</ele>
        <time>2022-08-20T11:10:18.000Z</time>
      </trkpt>
      <trkpt lat="44.03325" lon="6.9976">
        <ele>1574.4000244141</ele>
        <time>2022-08-20T11:10:20.000Z</time>
      </trkpt>
      <trkpt lat="44.03324" lon="6.99743">
        <ele>1575.1999511719</ele>
        <time>2022-08-20T11:10:25.000Z</time>
      </trkpt>
      <trkpt lat="44.03324" lon="6.9974">
        <ele>1575.4000244141</ele>
        <time>2022-08-20T11:10:26.000Z</time>
      </trkpt>
      <trkpt lat="44.03323" lon="6.99732">
        <ele>1576.1999511719</ele>
        <time>2022-08-20T11:10:29.000Z</time>
      </trkpt>
      <trkpt lat="44.03322" lon="6.99717">
        <ele>1577</ele>
        <time>2022-08-20T11:10:33.000Z</time>
      </trkpt>
      <trkpt lat="44.0332" lon="6.99711">
        <ele>1577.5999755859</ele>
        <time>2022-08-20T11:10:35.000Z</time>
      </trkpt>
      <trkpt lat="44.0332" lon="6.99701">
        <ele>1578.4000244141</ele>
        <time>2022-08-20T11:10:38.000Z</time>
      </trkpt>
      <trkpt lat="44.0332" lon="6.99698">
        <ele>1578.8000488281</ele>
        <time>2022-08-20T11:10:39.000Z</time>
      </trkpt>
      <trkpt lat="44.03321" lon="6.99682">
        <ele>1580</ele>
        <time>2022-08-20T11:10:44.000Z</time>
      </trkpt>
      <trkpt lat="44.03321" lon="6.99678">
        <ele>1580.1999511719</ele>
        <time>2022-08-20T11:10:45.000Z</time>
      </trkpt>
      <trkpt lat="44.0332" lon="6.99668">
        <ele>1581.1999511719</ele>
        <time>2022-08-20T11:10:48.000Z</time>
      </trkpt>
      <trkpt lat="44.0332" lon="6.99658">
        <ele>1581.8000488281</ele>
        <time>2022-08-20T11:10:51.000Z</time>
      </trkpt>
      <trkpt lat="44.03322" lon="6.99649">
        <ele>1582.4000244141</ele>
        <time>2022-08-20T11:10:54.000Z</time>
      </trkpt>
      <trkpt lat="44.03323" lon="6.99636">
        <ele>1583</ele>
        <time>2022-08-20T11:10:58.000Z</time>
      </trkpt>
      <trkpt lat="44.03324" lon="6.99619">
        <ele>1583.5999755859</ele>
        <time>2022-08-20T11:11:03.000Z</time>
      </trkpt>
      <trkpt lat="44.03325" lon="6.99613">
        <ele>1584</ele>
        <time>2022-08-20T11:11:05.000Z</time>
      </trkpt>
      <trkpt lat="44.03328" lon="6.99591">
        <ele>1584.8000488281</ele>
        <time>2022-08-20T11:11:12.000Z</time>
      </trkpt>
      <trkpt lat="44.03327" lon="6.99574">
        <ele>1585.4000244141</ele>
        <time>2022-08-20T11:11:17.000Z</time>
      </trkpt>
      <trkpt lat="44.03327" lon="6.99566">
        <ele>1585.8000488281</ele>
        <time>2022-08-20T11:11:19.000Z</time>
      </trkpt>
      <trkpt lat="44.03327" lon="6.99558">
        <ele>1586.1999511719</ele>
        <time>2022-08-20T11:11:21.000Z</time>
      </trkpt>
      <trkpt lat="44.03327" lon="6.99551">
        <ele>1586.4000244141</ele>
        <time>2022-08-20T11:11:23.000Z</time>
      </trkpt>
      <trkpt lat="44.03329" lon="6.99524">
        <ele>1586.8000488281</ele>
        <time>2022-08-20T11:11:30.000Z</time>
      </trkpt>
      <trkpt lat="44.03331" lon="6.99516">
        <ele>1586.8000488281</ele>
        <time>2022-08-20T11:11:32.000Z</time>
      </trkpt>
      <trkpt lat="44.03332" lon="6.99503">
        <ele>1588</ele>
        <time>2022-08-20T11:11:36.000Z</time>
      </trkpt>
      <trkpt lat="44.03333" lon="6.99485">
        <ele>1588.8000488281</ele>
        <time>2022-08-20T11:11:41.000Z</time>
      </trkpt>
      <trkpt lat="44.03334" lon="6.99478">
        <ele>1589</ele>
        <time>2022-08-20T11:11:43.000Z</time>
      </trkpt>
      <trkpt lat="44.03332" lon="6.99468">
        <ele>1589.4000244141</ele>
        <time>2022-08-20T11:11:46.000Z</time>
      </trkpt>
      <trkpt lat="44.0333" lon="6.99462">
        <ele>1589.5999755859</ele>
        <time>2022-08-20T11:11:48.000Z</time>
      </trkpt>
      <trkpt lat="44.03329" lon="6.9945">
        <ele>1589.8000488281</ele>
        <time>2022-08-20T11:11:51.000Z</time>
      </trkpt>
      <trkpt lat="44.03327" lon="6.99442">
        <ele>1590.4000244141</ele>
        <time>2022-08-20T11:11:53.000Z</time>
      </trkpt>
      <trkpt lat="44.03326" lon="6.99431">
        <ele>1591</ele>
        <time>2022-08-20T11:11:56.000Z</time>
      </trkpt>
      <trkpt lat="44.03324" lon="6.99408">
        <ele>1591.1999511719</ele>
        <time>2022-08-20T11:12:01.000Z</time>
      </trkpt>
      <trkpt lat="44.03321" lon="6.99394">
        <ele>1590.8000488281</ele>
        <time>2022-08-20T11:12:04.000Z</time>
      </trkpt>
      <trkpt lat="44.03321" lon="6.9939">
        <ele>1590.5999755859</ele>
        <time>2022-08-20T11:12:05.000Z</time>
      </trkpt>
      <trkpt lat="44.03316" lon="6.99376">
        <ele>1590.5999755859</ele>
        <time>2022-08-20T11:12:09.000Z</time>
      </trkpt>
      <trkpt lat="44.03316" lon="6.99361">
        <ele>1589.8000488281</ele>
        <time>2022-08-20T11:12:13.000Z</time>
      </trkpt>
      <trkpt lat="44.03317" lon="6.99359">
        <ele>1589.8000488281</ele>
        <time>2022-08-20T11:12:14.000Z</time>
      </trkpt>
      <trkpt lat="44.0332" lon="6.99355">
        <ele>1589.8000488281</ele>
        <time>2022-08-20T11:12:17.000Z</time>
      </trkpt>
      <trkpt lat="44.0332" lon="6.99356">
        <ele>1589.8000488281</ele>
        <time>2022-08-20T11:12:21.000Z</time>
      </trkpt>
      <trkpt lat="44.0332" lon="6.99356">
        <ele>1589.4000244141</ele>
        <time>2022-08-20T11:12:25.000Z</time>
      </trkpt>
      <trkpt lat="44.03319" lon="6.99356">
        <ele>1589.8000488281</ele>
        <time>2022-08-20T11:12:31.000Z</time>
      </trkpt>
      <trkpt lat="44.0332" lon="6.99356">
        <ele>1590</ele>
        <time>2022-08-20T11:12:36.000Z</time>
      </trkpt>
      <trkpt lat="44.03319" lon="6.99356">
        <ele>1590.1999511719</ele>
        <time>2022-08-20T11:12:53.000Z</time>
      </trkpt>
      <trkpt lat="44.0332" lon="6.99356">
        <ele>1590.4000244141</ele>
        <time>2022-08-20T11:13:11.000Z</time>
      </trkpt>
      <trkpt lat="44.0332" lon="6.99356">
        <ele>1590.4000244141</ele>
        <time>2022-08-20T11:13:16.000Z</time>
      </trkpt>
      <trkpt lat="44.0332" lon="6.99356">
        <ele>1590.1999511719</ele>
        <time>2022-08-20T11:13:26.000Z</time>
      </trkpt>
      <trkpt lat="44.0332" lon="6.99356">
        <ele>1589.5999755859</ele>
        <time>2022-08-20T11:13:47.000Z</time>
      </trkpt>
      <trkpt lat="44.0332" lon="6.99356">
        <ele>1590</ele>
        <time>2022-08-20T11:13:58.000Z</time>
      </trkpt>
      <trkpt lat="44.0332" lon="6.99356">
        <ele>1589.5999755859</ele>
        <time>2022-08-20T11:14:07.000Z</time>
      </trkpt>
      <trkpt lat="44.03325" lon="6.99352">
        <ele>1589.8000488281</ele>
        <time>2022-08-20T11:14:20.000Z</time>
      </trkpt>
      <trkpt lat="44.03332" lon="6.99346">
        <ele>1589.8000488281</ele>
        <time>2022-08-20T11:14:24.000Z</time>
      </trkpt>
      <trkpt lat="44.0334" lon="6.99333">
        <ele>1590</ele>
        <time>2022-08-20T11:14:29.000Z</time>
      </trkpt>
      <trkpt lat="44.03346" lon="6.9932">
        <ele>1590.8000488281</ele>
        <time>2022-08-20T11:14:33.000Z</time>
      </trkpt>
      <trkpt lat="44.03349" lon="6.99314">
        <ele>1591.1999511719</ele>
        <time>2022-08-20T11:14:35.000Z</time>
      </trkpt>
      <trkpt lat="44.03352" lon="6.9931">
        <ele>1591.4000244141</ele>
        <time>2022-08-20T11:14:37.000Z</time>
      </trkpt>
      <trkpt lat="44.03356" lon="6.99302">
        <ele>1591.8000488281</ele>
        <time>2022-08-20T11:14:40.000Z</time>
      </trkpt>
      <trkpt lat="44.03359" lon="6.99296">
        <ele>1592.4000244141</ele>
        <time>2022-08-20T11:14:42.000Z</time>
      </trkpt>
      <trkpt lat="44.03363" lon="6.99289">
        <ele>1593.1999511719</ele>
        <time>2022-08-20T11:14:45.000Z</time>
      </trkpt>
      <trkpt lat="44.03366" lon="6.99286">
        <ele>1593.5999755859</ele>
        <time>2022-08-20T11:14:47.000Z</time>
      </trkpt>
      <trkpt lat="44.03376" lon="6.99279">
        <ele>1593.5999755859</ele>
        <time>2022-08-20T11:14:51.000Z</time>
      </trkpt>
      <trkpt lat="44.03384" lon="6.99278">
        <ele>1592.8000488281</ele>
        <time>2022-08-20T11:14:55.000Z</time>
      </trkpt>
      <trkpt lat="44.03386" lon="6.99277">
        <ele>1592.5999755859</ele>
        <time>2022-08-20T11:14:56.000Z</time>
      </trkpt>
      <trkpt lat="44.0339" lon="6.99276">
        <ele>1592.4000244141</ele>
        <time>2022-08-20T11:14:58.000Z</time>
      </trkpt>
      <trkpt lat="44.03394" lon="6.99275">
        <ele>1592.8000488281</ele>
        <time>2022-08-20T11:15:00.000Z</time>
      </trkpt>
      <trkpt lat="44.03396" lon="6.99267">
        <ele>1593</ele>
        <time>2022-08-20T11:15:03.000Z</time>
      </trkpt>
      <trkpt lat="44.03398" lon="6.99264">
        <ele>1593.4000244141</ele>
        <time>2022-08-20T11:15:04.000Z</time>
      </trkpt>
      <trkpt lat="44.03399" lon="6.9926">
        <ele>1593.8000488281</ele>
        <time>2022-08-20T11:15:05.000Z</time>
      </trkpt>
      <trkpt lat="44.03404" lon="6.99252">
        <ele>1595.1999511719</ele>
        <time>2022-08-20T11:15:08.000Z</time>
      </trkpt>
      <trkpt lat="44.03408" lon="6.99246">
        <ele>1595.4000244141</ele>
        <time>2022-08-20T11:15:10.000Z</time>
      </trkpt>
      <trkpt lat="44.03421" lon="6.99226">
        <ele>1595.8000488281</ele>
        <time>2022-08-20T11:15:17.000Z</time>
      </trkpt>
      <trkpt lat="44.03429" lon="6.99213">
        <ele>1596.1999511719</ele>
        <time>2022-08-20T11:15:22.000Z</time>
      </trkpt>
      <trkpt lat="44.0343" lon="6.9921">
        <ele>1596.5999755859</ele>
        <time>2022-08-20T11:15:23.000Z</time>
      </trkpt>
      <trkpt lat="44.03435" lon="6.99201">
        <ele>1597.4000244141</ele>
        <time>2022-08-20T11:15:26.000Z</time>
      </trkpt>
      <trkpt lat="44.0344" lon="6.99194">
        <ele>1598</ele>
        <time>2022-08-20T11:15:29.000Z</time>
      </trkpt>
      <trkpt lat="44.03444" lon="6.99189">
        <ele>1598.5999755859</ele>
        <time>2022-08-20T11:15:31.000Z</time>
      </trkpt>
      <trkpt lat="44.03449" lon="6.99183">
        <ele>1599.4000244141</ele>
        <time>2022-08-20T11:15:34.000Z</time>
      </trkpt>
      <trkpt lat="44.03452" lon="6.99182">
        <ele>1599.5999755859</ele>
        <time>2022-08-20T11:15:35.000Z</time>
      </trkpt>
      <trkpt lat="44.03458" lon="6.99176">
        <ele>1600.4000244141</ele>
        <time>2022-08-20T11:15:39.000Z</time>
      </trkpt>
      <trkpt lat="44.03459" lon="6.99167">
        <ele>1600.5999755859</ele>
        <time>2022-08-20T11:15:42.000Z</time>
      </trkpt>
      <trkpt lat="44.0346" lon="6.99163">
        <ele>1600.8000488281</ele>
        <time>2022-08-20T11:15:43.000Z</time>
      </trkpt>
      <trkpt lat="44.03461" lon="6.9916">
        <ele>1600.8000488281</ele>
        <time>2022-08-20T11:15:44.000Z</time>
      </trkpt>
      <trkpt lat="44.03464" lon="6.99156">
        <ele>1601.8000488281</ele>
        <time>2022-08-20T11:15:46.000Z</time>
      </trkpt>
      <trkpt lat="44.03467" lon="6.99148">
        <ele>1602.8000488281</ele>
        <time>2022-08-20T11:15:49.000Z</time>
      </trkpt>
      <trkpt lat="44.03472" lon="6.99144">
        <ele>1603.1999511719</ele>
        <time>2022-08-20T11:15:53.000Z</time>
      </trkpt>
      <trkpt lat="44.03473" lon="6.99144">
        <ele>1604</ele>
        <time>2022-08-20T11:15:56.000Z</time>
      </trkpt>
      <trkpt lat="44.03473" lon="6.99144">
        <ele>1604.4000244141</ele>
        <time>2022-08-20T11:16:00.000Z</time>
      </trkpt>
      <trkpt lat="44.03473" lon="6.99145">
        <ele>1604.1999511719</ele>
        <time>2022-08-20T11:16:12.000Z</time>
      </trkpt>
      <trkpt lat="44.03472" lon="6.99146">
        <ele>1604.8000488281</ele>
        <time>2022-08-20T11:16:25.000Z</time>
      </trkpt>
      <trkpt lat="44.03472" lon="6.99147">
        <ele>1604.8000488281</ele>
        <time>2022-08-20T11:16:33.000Z</time>
      </trkpt>
      <trkpt lat="44.03472" lon="6.99147">
        <ele>1605</ele>
        <time>2022-08-20T11:16:34.000Z</time>
      </trkpt>
      <trkpt lat="44.03471" lon="6.9915">
        <ele>1605.1999511719</ele>
        <time>2022-08-20T11:16:40.000Z</time>
      </trkpt>
      <trkpt lat="44.03471" lon="6.99151">
        <ele>1605</ele>
        <time>2022-08-20T11:16:47.000Z</time>
      </trkpt>
      <trkpt lat="44.03471" lon="6.9915">
        <ele>1605</ele>
        <time>2022-08-20T11:16:52.000Z</time>
      </trkpt>
      <trkpt lat="44.03471" lon="6.9915">
        <ele>1605.4000244141</ele>
        <time>2022-08-20T11:17:04.000Z</time>
      </trkpt>
      <trkpt lat="44.03476" lon="6.99148">
        <ele>1606</ele>
        <time>2022-08-20T11:17:11.000Z</time>
      </trkpt>
      <trkpt lat="44.03477" lon="6.99148">
        <ele>1606.4000244141</ele>
        <time>2022-08-20T11:17:12.000Z</time>
      </trkpt>
      <trkpt lat="44.03477" lon="6.99148">
        <ele>1607.1999511719</ele>
        <time>2022-08-20T11:17:16.000Z</time>
      </trkpt>
      <trkpt lat="44.0348" lon="6.99148">
        <ele>1607.4000244141</ele>
        <time>2022-08-20T11:17:20.000Z</time>
      </trkpt>
      <trkpt lat="44.0348" lon="6.99148">
        <ele>1607.4000244141</ele>
        <time>2022-08-20T11:17:21.000Z</time>
      </trkpt>
      <trkpt lat="44.03482" lon="6.99146">
        <ele>1608</ele>
        <time>2022-08-20T11:17:25.000Z</time>
      </trkpt>
      <trkpt lat="44.03487" lon="6.99143">
        <ele>1608.5999755859</ele>
        <time>2022-08-20T11:17:28.000Z</time>
      </trkpt>
      <trkpt lat="44.0349" lon="6.9914">
        <ele>1609</ele>
        <time>2022-08-20T11:17:30.000Z</time>
      </trkpt>
      <trkpt lat="44.03494" lon="6.99138">
        <ele>1609.5999755859</ele>
        <time>2022-08-20T11:17:32.000Z</time>
      </trkpt>
      <trkpt lat="44.035" lon="6.99134">
        <ele>1609.8000488281</ele>
        <time>2022-08-20T11:17:35.000Z</time>
      </trkpt>
      <trkpt lat="44.03507" lon="6.99129">
        <ele>1610.5999755859</ele>
        <time>2022-08-20T11:17:39.000Z</time>
      </trkpt>
      <trkpt lat="44.03512" lon="6.99124">
        <ele>1611.4000244141</ele>
        <time>2022-08-20T11:17:42.000Z</time>
      </trkpt>
      <trkpt lat="44.0352" lon="6.99119">
        <ele>1611.8000488281</ele>
        <time>2022-08-20T11:17:46.000Z</time>
      </trkpt>
      <trkpt lat="44.03522" lon="6.99118">
        <ele>1611.8000488281</ele>
        <time>2022-08-20T11:17:47.000Z</time>
      </trkpt>
      <trkpt lat="44.03531" lon="6.99117">
        <ele>1612</ele>
        <time>2022-08-20T11:17:52.000Z</time>
      </trkpt>
      <trkpt lat="44.03533" lon="6.99118">
        <ele>1611.8000488281</ele>
        <time>2022-08-20T11:17:56.000Z</time>
      </trkpt>
      <trkpt lat="44.03534" lon="6.99118">
        <ele>1611.5999755859</ele>
        <time>2022-08-20T11:17:58.000Z</time>
      </trkpt>
      <trkpt lat="44.03537" lon="6.99114">
        <ele>1611.8000488281</ele>
        <time>2022-08-20T11:18:03.000Z</time>
      </trkpt>
      <trkpt lat="44.03539" lon="6.99112">
        <ele>1612.8000488281</ele>
        <time>2022-08-20T11:18:08.000Z</time>
      </trkpt>
      <trkpt lat="44.03539" lon="6.99112">
        <ele>1612.8000488281</ele>
        <time>2022-08-20T11:18:09.000Z</time>
      </trkpt>
      <trkpt lat="44.03543" lon="6.99107">
        <ele>1613</ele>
        <time>2022-08-20T11:18:13.000Z</time>
      </trkpt>
      <trkpt lat="44.03546" lon="6.99104">
        <ele>1613.5999755859</ele>
        <time>2022-08-20T11:18:18.000Z</time>
      </trkpt>
      <trkpt lat="44.03547" lon="6.99101">
        <ele>1614</ele>
        <time>2022-08-20T11:18:21.000Z</time>
      </trkpt>
      <trkpt lat="44.03547" lon="6.991">
        <ele>1613.8000488281</ele>
        <time>2022-08-20T11:18:22.000Z</time>
      </trkpt>
      <trkpt lat="44.03549" lon="6.99098">
        <ele>1613.5999755859</ele>
        <time>2022-08-20T11:18:23.000Z</time>
      </trkpt>
      <trkpt lat="44.03551" lon="6.99097">
        <ele>1613.4000244141</ele>
        <time>2022-08-20T11:18:28.000Z</time>
      </trkpt>
      <trkpt lat="44.03554" lon="6.99097">
        <ele>1614</ele>
        <time>2022-08-20T11:18:34.000Z</time>
      </trkpt>
      <trkpt lat="44.03554" lon="6.99098">
        <ele>1614</ele>
        <time>2022-08-20T11:18:43.000Z</time>
      </trkpt>
      <trkpt lat="44.03554" lon="6.99097">
        <ele>1613.8000488281</ele>
        <time>2022-08-20T11:18:48.000Z</time>
      </trkpt>
      <trkpt lat="44.03553" lon="6.99097">
        <ele>1613.8000488281</ele>
        <time>2022-08-20T11:18:57.000Z</time>
      </trkpt>
      <trkpt lat="44.03554" lon="6.99096">
        <ele>1613.8000488281</ele>
        <time>2022-08-20T11:19:03.000Z</time>
      </trkpt>
      <trkpt lat="44.03563" lon="6.99092">
        <ele>1614</ele>
        <time>2022-08-20T11:19:07.000Z</time>
      </trkpt>
      <trkpt lat="44.03573" lon="6.99089">
        <ele>1615</ele>
        <time>2022-08-20T11:19:12.000Z</time>
      </trkpt>
      <trkpt lat="44.03578" lon="6.9909">
        <ele>1616</ele>
        <time>2022-08-20T11:19:15.000Z</time>
      </trkpt>
      <trkpt lat="44.03582" lon="6.99091">
        <ele>1616.8000488281</ele>
        <time>2022-08-20T11:19:17.000Z</time>
      </trkpt>
      <trkpt lat="44.03583" lon="6.9909">
        <ele>1617.4000244141</ele>
        <time>2022-08-20T11:19:18.000Z</time>
      </trkpt>
      <trkpt lat="44.0359" lon="6.99088">
        <ele>1618.8000488281</ele>
        <time>2022-08-20T11:19:22.000Z</time>
      </trkpt>
      <trkpt lat="44.03592" lon="6.99087">
        <ele>1618.4000244141</ele>
        <time>2022-08-20T11:19:23.000Z</time>
      </trkpt>
      <trkpt lat="44.03605" lon="6.99083">
        <ele>1617.5999755859</ele>
        <time>2022-08-20T11:19:28.000Z</time>
      </trkpt>
      <trkpt lat="44.03614" lon="6.99084">
        <ele>1618</ele>
        <time>2022-08-20T11:19:34.000Z</time>
      </trkpt>
      <trkpt lat="44.03615" lon="6.99085">
        <ele>1617.5999755859</ele>
        <time>2022-08-20T11:19:41.000Z</time>
      </trkpt>
      <trkpt lat="44.03616" lon="6.99083">
        <ele>1617.1999511719</ele>
        <time>2022-08-20T11:19:47.000Z</time>
      </trkpt>
      <trkpt lat="44.03618" lon="6.99081">
        <ele>1616.5999755859</ele>
        <time>2022-08-20T11:19:51.000Z</time>
      </trkpt>
      <trkpt lat="44.03619" lon="6.99081">
        <ele>1616.4000244141</ele>
        <time>2022-08-20T11:19:52.000Z</time>
      </trkpt>
      <trkpt lat="44.03618" lon="6.9908">
        <ele>1616.4000244141</ele>
        <time>2022-08-20T11:19:56.000Z</time>
      </trkpt>
      <trkpt lat="44.03618" lon="6.99081">
        <ele>1616.4000244141</ele>
        <time>2022-08-20T11:19:57.000Z</time>
      </trkpt>
      <trkpt lat="44.03619" lon="6.99078">
        <ele>1616.4000244141</ele>
        <time>2022-08-20T11:19:58.000Z</time>
      </trkpt>
      <trkpt lat="44.03626" lon="6.99075">
        <ele>1616.5999755859</ele>
        <time>2022-08-20T11:20:01.000Z</time>
      </trkpt>
      <trkpt lat="44.03644" lon="6.99074">
        <ele>1616.1999511719</ele>
        <time>2022-08-20T11:20:07.000Z</time>
      </trkpt>
      <trkpt lat="44.03658" lon="6.99073">
        <ele>1616.5999755859</ele>
        <time>2022-08-20T11:20:12.000Z</time>
      </trkpt>
      <trkpt lat="44.03666" lon="6.99075">
        <ele>1617.1999511719</ele>
        <time>2022-08-20T11:20:17.000Z</time>
      </trkpt>
      <trkpt lat="44.03667" lon="6.99075">
        <ele>1617.1999511719</ele>
        <time>2022-08-20T11:20:19.000Z</time>
      </trkpt>
      <trkpt lat="44.0367" lon="6.99076">
        <ele>1617.4000244141</ele>
        <time>2022-08-20T11:20:21.000Z</time>
      </trkpt>
      <trkpt lat="44.03673" lon="6.9908">
        <ele>1617</ele>
        <time>2022-08-20T11:20:23.000Z</time>
      </trkpt>
      <trkpt lat="44.03677" lon="6.99083">
        <ele>1616.4000244141</ele>
        <time>2022-08-20T11:20:26.000Z</time>
      </trkpt>
      <trkpt lat="44.0368" lon="6.99084">
        <ele>1617.1999511719</ele>
        <time>2022-08-20T11:20:31.000Z</time>
      </trkpt>
      <trkpt lat="44.03679" lon="6.99085">
        <ele>1617.1999511719</ele>
        <time>2022-08-20T11:20:53.000Z</time>
      </trkpt>
      <trkpt lat="44.03679" lon="6.99085">
        <ele>1617</ele>
        <time>2022-08-20T11:21:01.000Z</time>
      </trkpt>
      <trkpt lat="44.03679" lon="6.99084">
        <ele>1616.8000488281</ele>
        <time>2022-08-20T11:21:09.000Z</time>
      </trkpt>
      <trkpt lat="44.03679" lon="6.99085">
        <ele>1616.8000488281</ele>
        <time>2022-08-20T11:21:14.000Z</time>
      </trkpt>
      <trkpt lat="44.03679" lon="6.99084">
        <ele>1616.8000488281</ele>
        <time>2022-08-20T11:21:23.000Z</time>
      </trkpt>
      <trkpt lat="44.0368" lon="6.99084">
        <ele>1616.4000244141</ele>
        <time>2022-08-20T11:21:30.000Z</time>
      </trkpt>
      <trkpt lat="44.03682" lon="6.99085">
        <ele>1615.8000488281</ele>
        <time>2022-08-20T11:21:38.000Z</time>
      </trkpt>
      <trkpt lat="44.03683" lon="6.99086">
        <ele>1615.4000244141</ele>
        <time>2022-08-20T11:21:41.000Z</time>
      </trkpt>
      <trkpt lat="44.03684" lon="6.99087">
        <ele>1615</ele>
        <time>2022-08-20T11:21:44.000Z</time>
      </trkpt>
      <trkpt lat="44.03686" lon="6.99088">
        <ele>1614.1999511719</ele>
        <time>2022-08-20T11:21:47.000Z</time>
      </trkpt>
      <trkpt lat="44.0369" lon="6.99087">
        <ele>1614.8000488281</ele>
        <time>2022-08-20T11:21:51.000Z</time>
      </trkpt>
      <trkpt lat="44.03691" lon="6.99086">
        <ele>1615.4000244141</ele>
        <time>2022-08-20T11:21:53.000Z</time>
      </trkpt>
      <trkpt lat="44.03692" lon="6.99083">
        <ele>1615</ele>
        <time>2022-08-20T11:21:57.000Z</time>
      </trkpt>
      <trkpt lat="44.03693" lon="6.99082">
        <ele>1614.8000488281</ele>
        <time>2022-08-20T11:22:03.000Z</time>
      </trkpt>
      <trkpt lat="44.03697" lon="6.9908">
        <ele>1615</ele>
        <time>2022-08-20T11:22:06.000Z</time>
      </trkpt>
      <trkpt lat="44.03699" lon="6.9908">
        <ele>1615</ele>
        <time>2022-08-20T11:22:07.000Z</time>
      </trkpt>
      <trkpt lat="44.03705" lon="6.99082">
        <ele>1614.8000488281</ele>
        <time>2022-08-20T11:22:10.000Z</time>
      </trkpt>
      <trkpt lat="44.03706" lon="6.99082">
        <ele>1614.8000488281</ele>
        <time>2022-08-20T11:22:11.000Z</time>
      </trkpt>
      <trkpt lat="44.03707" lon="6.99082">
        <ele>1615.1999511719</ele>
        <time>2022-08-20T11:22:16.000Z</time>
      </trkpt>
      <trkpt lat="44.03708" lon="6.99082">
        <ele>1615.4000244141</ele>
        <time>2022-08-20T11:22:22.000Z</time>
      </trkpt>
      <trkpt lat="44.03712" lon="6.9908">
        <ele>1615.4000244141</ele>
        <time>2022-08-20T11:22:29.000Z</time>
      </trkpt>
      <trkpt lat="44.03715" lon="6.99079">
        <ele>1614.4000244141</ele>
        <time>2022-08-20T11:22:35.000Z</time>
      </trkpt>
      <trkpt lat="44.03715" lon="6.99079">
        <ele>1614.1999511719</ele>
        <time>2022-08-20T11:22:36.000Z</time>
      </trkpt>
      <trkpt lat="44.03722" lon="6.99076">
        <ele>1613.5999755859</ele>
        <time>2022-08-20T11:22:41.000Z</time>
      </trkpt>
      <trkpt lat="44.03727" lon="6.99075">
        <ele>1613.1999511719</ele>
        <time>2022-08-20T11:22:43.000Z</time>
      </trkpt>
      <trkpt lat="44.03735" lon="6.99075">
        <ele>1612.5999755859</ele>
        <time>2022-08-20T11:22:46.000Z</time>
      </trkpt>
      <trkpt lat="44.03739" lon="6.99079">
        <ele>1612.5999755859</ele>
        <time>2022-08-20T11:22:48.000Z</time>
      </trkpt>
      <trkpt lat="44.0374" lon="6.99084">
        <ele>1612.8000488281</ele>
        <time>2022-08-20T11:22:50.000Z</time>
      </trkpt>
      <trkpt lat="44.03741" lon="6.99085">
        <ele>1612.8000488281</ele>
        <time>2022-08-20T11:22:51.000Z</time>
      </trkpt>
      <trkpt lat="44.03744" lon="6.99084">
        <ele>1612.4000244141</ele>
        <time>2022-08-20T11:22:53.000Z</time>
      </trkpt>
      <trkpt lat="44.03753" lon="6.99082">
        <ele>1612.5999755859</ele>
        <time>2022-08-20T11:22:57.000Z</time>
      </trkpt>
      <trkpt lat="44.03755" lon="6.99083">
        <ele>1612.8000488281</ele>
        <time>2022-08-20T11:22:58.000Z</time>
      </trkpt>
      <trkpt lat="44.03762" lon="6.9908">
        <ele>1613.5999755859</ele>
        <time>2022-08-20T11:23:02.000Z</time>
      </trkpt>
      <trkpt lat="44.03772" lon="6.99078">
        <ele>1612.4000244141</ele>
        <time>2022-08-20T11:23:07.000Z</time>
      </trkpt>
      <trkpt lat="44.03775" lon="6.99077">
        <ele>1612</ele>
        <time>2022-08-20T11:23:08.000Z</time>
      </trkpt>
      <trkpt lat="44.03781" lon="6.99077">
        <ele>1610.5999755859</ele>
        <time>2022-08-20T11:23:10.000Z</time>
      </trkpt>
      <trkpt lat="44.03783" lon="6.99077">
        <ele>1610.1999511719</ele>
        <time>2022-08-20T11:23:11.000Z</time>
      </trkpt>
      <trkpt lat="44.0379" lon="6.99075">
        <ele>1609.5999755859</ele>
        <time>2022-08-20T11:23:14.000Z</time>
      </trkpt>
      <trkpt lat="44.03793" lon="6.99072">
        <ele>1609.5999755859</ele>
        <time>2022-08-20T11:23:15.000Z</time>
      </trkpt>
      <trkpt lat="44.038" lon="6.99072">
        <ele>1608.5999755859</ele>
        <time>2022-08-20T11:23:17.000Z</time>
      </trkpt>
      <trkpt lat="44.03804" lon="6.99073">
        <ele>1607.8000488281</ele>
        <time>2022-08-20T11:23:19.000Z</time>
      </trkpt>
      <trkpt lat="44.03806" lon="6.99072">
        <ele>1607</ele>
        <time>2022-08-20T11:23:20.000Z</time>
      </trkpt>
      <trkpt lat="44.03807" lon="6.99065">
        <ele>1607.1999511719</ele>
        <time>2022-08-20T11:23:22.000Z</time>
      </trkpt>
      <trkpt lat="44.03813" lon="6.99051">
        <ele>1608</ele>
        <time>2022-08-20T11:23:26.000Z</time>
      </trkpt>
      <trkpt lat="44.03815" lon="6.99049">
        <ele>1608.4000244141</ele>
        <time>2022-08-20T11:23:27.000Z</time>
      </trkpt>
      <trkpt lat="44.03822" lon="6.99041">
        <ele>1609.5999755859</ele>
        <time>2022-08-20T11:23:30.000Z</time>
      </trkpt>
      <trkpt lat="44.03829" lon="6.99033">
        <ele>1609.8000488281</ele>
        <time>2022-08-20T11:23:33.000Z</time>
      </trkpt>
      <trkpt lat="44.0383" lon="6.99031">
        <ele>1610</ele>
        <time>2022-08-20T11:23:37.000Z</time>
      </trkpt>
      <trkpt lat="44.03833" lon="6.9903">
        <ele>1610.5999755859</ele>
        <time>2022-08-20T11:23:42.000Z</time>
      </trkpt>
      <trkpt lat="44.03832" lon="6.99031">
        <ele>1610.8000488281</ele>
        <time>2022-08-20T11:23:43.000Z</time>
      </trkpt>
      <trkpt lat="44.03833" lon="6.9903">
        <ele>1611.8000488281</ele>
        <time>2022-08-20T11:23:48.000Z</time>
      </trkpt>
      <trkpt lat="44.03833" lon="6.9903">
        <ele>1611.8000488281</ele>
        <time>2022-08-20T11:23:52.000Z</time>
      </trkpt>
      <trkpt lat="44.03836" lon="6.99027">
        <ele>1612.1999511719</ele>
        <time>2022-08-20T11:23:59.000Z</time>
      </trkpt>
      <trkpt lat="44.03837" lon="6.99024">
        <ele>1612.8000488281</ele>
        <time>2022-08-20T11:24:03.000Z</time>
      </trkpt>
      <trkpt lat="44.03838" lon="6.99023">
        <ele>1613.4000244141</ele>
        <time>2022-08-20T11:24:06.000Z</time>
      </trkpt>
      <trkpt lat="44.03841" lon="6.99013">
        <ele>1613.4000244141</ele>
        <time>2022-08-20T11:24:11.000Z</time>
      </trkpt>
      <trkpt lat="44.03848" lon="6.98995">
        <ele>1614</ele>
        <time>2022-08-20T11:24:17.000Z</time>
      </trkpt>
      <trkpt lat="44.03858" lon="6.98979">
        <ele>1614.1999511719</ele>
        <time>2022-08-20T11:24:21.000Z</time>
      </trkpt>
      <trkpt lat="44.03867" lon="6.98971">
        <ele>1613.4000244141</ele>
        <time>2022-08-20T11:24:25.000Z</time>
      </trkpt>
      <trkpt lat="44.03875" lon="6.98963">
        <ele>1614</ele>
        <time>2022-08-20T11:24:30.000Z</time>
      </trkpt>
      <trkpt lat="44.03876" lon="6.98963">
        <ele>1614</ele>
        <time>2022-08-20T11:24:31.000Z</time>
      </trkpt>
      <trkpt lat="44.03877" lon="6.98963">
        <ele>1614.8000488281</ele>
        <time>2022-08-20T11:24:35.000Z</time>
      </trkpt>
      <trkpt lat="44.03877" lon="6.98963">
        <ele>1615</ele>
        <time>2022-08-20T11:24:37.000Z</time>
      </trkpt>
      <trkpt lat="44.03878" lon="6.98963">
        <ele>1615.1999511719</ele>
        <time>2022-08-20T11:24:54.000Z</time>
      </trkpt>
      <trkpt lat="44.03885" lon="6.98961">
        <ele>1615.5999755859</ele>
        <time>2022-08-20T11:24:59.000Z</time>
      </trkpt>
      <trkpt lat="44.03888" lon="6.9896">
        <ele>1616.1999511719</ele>
        <time>2022-08-20T11:25:01.000Z</time>
      </trkpt>
      <trkpt lat="44.03891" lon="6.9896">
        <ele>1616.5999755859</ele>
        <time>2022-08-20T11:25:03.000Z</time>
      </trkpt>
      <trkpt lat="44.03902" lon="6.98956">
        <ele>1616.8000488281</ele>
        <time>2022-08-20T11:25:09.000Z</time>
      </trkpt>
      <trkpt lat="44.03919" lon="6.98952">
        <ele>1616</ele>
        <time>2022-08-20T11:25:13.000Z</time>
      </trkpt>
      <trkpt lat="44.03932" lon="6.98955">
        <ele>1614.8000488281</ele>
        <time>2022-08-20T11:25:16.000Z</time>
      </trkpt>
      <trkpt lat="44.03936" lon="6.98956">
        <ele>1614.8000488281</ele>
        <time>2022-08-20T11:25:17.000Z</time>
      </trkpt>
      <trkpt lat="44.03939" lon="6.98958">
        <ele>1614.1999511719</ele>
        <time>2022-08-20T11:25:18.000Z</time>
      </trkpt>
      <trkpt lat="44.03942" lon="6.98962">
        <ele>1613.5999755859</ele>
        <time>2022-08-20T11:25:20.000Z</time>
      </trkpt>
      <trkpt lat="44.0395" lon="6.98968">
        <ele>1614.8000488281</ele>
        <time>2022-08-20T11:25:24.000Z</time>
      </trkpt>
      <trkpt lat="44.03953" lon="6.98969">
        <ele>1615.8000488281</ele>
        <time>2022-08-20T11:25:26.000Z</time>
      </trkpt>
      <trkpt lat="44.03955" lon="6.98969">
        <ele>1615.8000488281</ele>
        <time>2022-08-20T11:25:27.000Z</time>
      </trkpt>
      <trkpt lat="44.03963" lon="6.98964">
        <ele>1616</ele>
        <time>2022-08-20T11:25:30.000Z</time>
      </trkpt>
      <trkpt lat="44.03965" lon="6.98956">
        <ele>1615.1999511719</ele>
        <time>2022-08-20T11:25:33.000Z</time>
      </trkpt>
      <trkpt lat="44.03966" lon="6.98953">
        <ele>1615.1999511719</ele>
        <time>2022-08-20T11:25:34.000Z</time>
      </trkpt>
      <trkpt lat="44.03972" lon="6.98936">
        <ele>1615.8000488281</ele>
        <time>2022-08-20T11:25:40.000Z</time>
      </trkpt>
      <trkpt lat="44.03978" lon="6.98922">
        <ele>1616.5999755859</ele>
        <time>2022-08-20T11:25:45.000Z</time>
      </trkpt>
      <trkpt lat="44.03979" lon="6.98918">
        <ele>1617</ele>
        <time>2022-08-20T11:25:46.000Z</time>
      </trkpt>
      <trkpt lat="44.03983" lon="6.98904">
        <ele>1618.4000244141</ele>
        <time>2022-08-20T11:25:50.000Z</time>
      </trkpt>
      <trkpt lat="44.03984" lon="6.98896">
        <ele>1618.5999755859</ele>
        <time>2022-08-20T11:25:52.000Z</time>
      </trkpt>
      <trkpt lat="44.03994" lon="6.98872">
        <ele>1618.4000244141</ele>
        <time>2022-08-20T11:25:58.000Z</time>
      </trkpt>
      <trkpt lat="44.04005" lon="6.98848">
        <ele>1619.5999755859</ele>
        <time>2022-08-20T11:26:04.000Z</time>
      </trkpt>
      <trkpt lat="44.0401" lon="6.9884">
        <ele>1619.8000488281</ele>
        <time>2022-08-20T11:26:06.000Z</time>
      </trkpt>
      <trkpt lat="44.04026" lon="6.98814">
        <ele>1619.8000488281</ele>
        <time>2022-08-20T11:26:12.000Z</time>
      </trkpt>
      <trkpt lat="44.04029" lon="6.98809">
        <ele>1619.8000488281</ele>
        <time>2022-08-20T11:26:13.000Z</time>
      </trkpt>
      <trkpt lat="44.0405" lon="6.98789">
        <ele>1619</ele>
        <time>2022-08-20T11:26:18.000Z</time>
      </trkpt>
      <trkpt lat="44.04054" lon="6.98787">
        <ele>1618.5999755859</ele>
        <time>2022-08-20T11:26:19.000Z</time>
      </trkpt>
      <trkpt lat="44.04065" lon="6.98777">
        <ele>1617.1999511719</ele>
        <time>2022-08-20T11:26:22.000Z</time>
      </trkpt>
      <trkpt lat="44.04068" lon="6.98775">
        <ele>1616.8000488281</ele>
        <time>2022-08-20T11:26:23.000Z</time>
      </trkpt>
      <trkpt lat="44.04073" lon="6.98773">
        <ele>1616.4000244141</ele>
        <time>2022-08-20T11:26:24.000Z</time>
      </trkpt>
      <trkpt lat="44.04077" lon="6.98771">
        <ele>1616.4000244141</ele>
        <time>2022-08-20T11:26:25.000Z</time>
      </trkpt>
      <trkpt lat="44.04082" lon="6.9877">
        <ele>1616</ele>
        <time>2022-08-20T11:26:26.000Z</time>
      </trkpt>
      <trkpt lat="44.04094" lon="6.98769">
        <ele>1615</ele>
        <time>2022-08-20T11:26:28.000Z</time>
      </trkpt>
      <trkpt lat="44.04107" lon="6.98759">
        <ele>1613.8000488281</ele>
        <time>2022-08-20T11:26:31.000Z</time>
      </trkpt>
      <trkpt lat="44.04115" lon="6.98752">
        <ele>1613.4000244141</ele>
        <time>2022-08-20T11:26:33.000Z</time>
      </trkpt>
      <trkpt lat="44.04118" lon="6.98748">
        <ele>1613.4000244141</ele>
        <time>2022-08-20T11:26:34.000Z</time>
      </trkpt>
      <trkpt lat="44.04128" lon="6.98746">
        <ele>1612.5999755859</ele>
        <time>2022-08-20T11:26:36.000Z</time>
      </trkpt>
      <trkpt lat="44.04138" lon="6.98745">
        <ele>1611.4000244141</ele>
        <time>2022-08-20T11:26:38.000Z</time>
      </trkpt>
      <trkpt lat="44.04143" lon="6.98742">
        <ele>1610</ele>
        <time>2022-08-20T11:26:39.000Z</time>
      </trkpt>
      <trkpt lat="44.04149" lon="6.9874">
        <ele>1609.5999755859</ele>
        <time>2022-08-20T11:26:40.000Z</time>
      </trkpt>
      <trkpt lat="44.04155" lon="6.98739">
        <ele>1609</ele>
        <time>2022-08-20T11:26:41.000Z</time>
      </trkpt>
      <trkpt lat="44.04167" lon="6.98741">
        <ele>1607.8000488281</ele>
        <time>2022-08-20T11:26:43.000Z</time>
      </trkpt>
      <trkpt lat="44.04181" lon="6.9875">
        <ele>1606.1999511719</ele>
        <time>2022-08-20T11:26:46.000Z</time>
      </trkpt>
      <trkpt lat="44.04184" lon="6.98755">
        <ele>1605.5999755859</ele>
        <time>2022-08-20T11:26:47.000Z</time>
      </trkpt>
      <trkpt lat="44.04186" lon="6.9876">
        <ele>1605</ele>
        <time>2022-08-20T11:26:48.000Z</time>
      </trkpt>
      <trkpt lat="44.04188" lon="6.98766">
        <ele>1603.1999511719</ele>
        <time>2022-08-20T11:26:50.000Z</time>
      </trkpt>
      <trkpt lat="44.04191" lon="6.98768">
        <ele>1601.5999755859</ele>
        <time>2022-08-20T11:26:52.000Z</time>
      </trkpt>
      <trkpt lat="44.04193" lon="6.98767">
        <ele>1600.8000488281</ele>
        <time>2022-08-20T11:26:53.000Z</time>
      </trkpt>
      <trkpt lat="44.04195" lon="6.98765">
        <ele>1600.5999755859</ele>
        <time>2022-08-20T11:26:54.000Z</time>
      </trkpt>
      <trkpt lat="44.04207" lon="6.98758">
        <ele>1601</ele>
        <time>2022-08-20T11:26:58.000Z</time>
      </trkpt>
      <trkpt lat="44.04225" lon="6.98757">
        <ele>1601.4000244141</ele>
        <time>2022-08-20T11:27:04.000Z</time>
      </trkpt>
      <trkpt lat="44.04241" lon="6.98764">
        <ele>1600.4000244141</ele>
        <time>2022-08-20T11:27:08.000Z</time>
      </trkpt>
      <trkpt lat="44.04246" lon="6.98766">
        <ele>1600</ele>
        <time>2022-08-20T11:27:09.000Z</time>
      </trkpt>
      <trkpt lat="44.04251" lon="6.98769">
        <ele>1599.4000244141</ele>
        <time>2022-08-20T11:27:10.000Z</time>
      </trkpt>
      <trkpt lat="44.04257" lon="6.98777">
        <ele>1597.5999755859</ele>
        <time>2022-08-20T11:27:12.000Z</time>
      </trkpt>
      <trkpt lat="44.04262" lon="6.98779">
        <ele>1597</ele>
        <time>2022-08-20T11:27:13.000Z</time>
      </trkpt>
      <trkpt lat="44.04266" lon="6.98779">
        <ele>1596.1999511719</ele>
        <time>2022-08-20T11:27:14.000Z</time>
      </trkpt>
      <trkpt lat="44.04275" lon="6.9878">
        <ele>1595</ele>
        <time>2022-08-20T11:27:16.000Z</time>
      </trkpt>
      <trkpt lat="44.04281" lon="6.98782">
        <ele>1594.4000244141</ele>
        <time>2022-08-20T11:27:17.000Z</time>
      </trkpt>
      <trkpt lat="44.04287" lon="6.98784">
        <ele>1593.8000488281</ele>
        <time>2022-08-20T11:27:18.000Z</time>
      </trkpt>
      <trkpt lat="44.04294" lon="6.98787">
        <ele>1592.4000244141</ele>
        <time>2022-08-20T11:27:20.000Z</time>
      </trkpt>
      <trkpt lat="44.04298" lon="6.98788">
        <ele>1592</ele>
        <time>2022-08-20T11:27:21.000Z</time>
      </trkpt>
      <trkpt lat="44.04309" lon="6.98788">
        <ele>1591.8000488281</ele>
        <time>2022-08-20T11:27:24.000Z</time>
      </trkpt>
      <trkpt lat="44.04323" lon="6.98803">
        <ele>1592</ele>
        <time>2022-08-20T11:27:27.000Z</time>
      </trkpt>
      <trkpt lat="44.04333" lon="6.98813">
        <ele>1591.4000244141</ele>
        <time>2022-08-20T11:27:29.000Z</time>
      </trkpt>
      <trkpt lat="44.04339" lon="6.98821">
        <ele>1590.1999511719</ele>
        <time>2022-08-20T11:27:30.000Z</time>
      </trkpt>
      <trkpt lat="44.04344" lon="6.98826">
        <ele>1589.4000244141</ele>
        <time>2022-08-20T11:27:31.000Z</time>
      </trkpt>
      <trkpt lat="44.0435" lon="6.98832">
        <ele>1588.4000244141</ele>
        <time>2022-08-20T11:27:32.000Z</time>
      </trkpt>
      <trkpt lat="44.0436" lon="6.98846">
        <ele>1587</ele>
        <time>2022-08-20T11:27:34.000Z</time>
      </trkpt>
      <trkpt lat="44.04369" lon="6.98859">
        <ele>1585.1999511719</ele>
        <time>2022-08-20T11:27:36.000Z</time>
      </trkpt>
      <trkpt lat="44.0437" lon="6.98863">
        <ele>1583.5999755859</ele>
        <time>2022-08-20T11:27:37.000Z</time>
      </trkpt>
      <trkpt lat="44.04371" lon="6.98867">
        <ele>1581.5999755859</ele>
        <time>2022-08-20T11:27:38.000Z</time>
      </trkpt>
      <trkpt lat="44.04372" lon="6.9887">
        <ele>1581</ele>
        <time>2022-08-20T11:27:39.000Z</time>
      </trkpt>
      <trkpt lat="44.04373" lon="6.98872">
        <ele>1580.5999755859</ele>
        <time>2022-08-20T11:27:40.000Z</time>
      </trkpt>
      <trkpt lat="44.04375" lon="6.98873">
        <ele>1579.8000488281</ele>
        <time>2022-08-20T11:27:41.000Z</time>
      </trkpt>
      <trkpt lat="44.04378" lon="6.98874">
        <ele>1580</ele>
        <time>2022-08-20T11:27:42.000Z</time>
      </trkpt>
      <trkpt lat="44.04392" lon="6.98871">
        <ele>1579.8000488281</ele>
        <time>2022-08-20T11:27:46.000Z</time>
      </trkpt>
      <trkpt lat="44.04404" lon="6.98861">
        <ele>1579.8000488281</ele>
        <time>2022-08-20T11:27:50.000Z</time>
      </trkpt>
      <trkpt lat="44.04423" lon="6.98859">
        <ele>1579.1999511719</ele>
        <time>2022-08-20T11:27:54.000Z</time>
      </trkpt>
      <trkpt lat="44.04441" lon="6.98863">
        <ele>1578.5999755859</ele>
        <time>2022-08-20T11:27:57.000Z</time>
      </trkpt>
      <trkpt lat="44.04451" lon="6.98864">
        <ele>1577.5999755859</ele>
        <time>2022-08-20T11:27:59.000Z</time>
      </trkpt>
      <trkpt lat="44.0446" lon="6.98864">
        <ele>1576.4000244141</ele>
        <time>2022-08-20T11:28:01.000Z</time>
      </trkpt>
      <trkpt lat="44.04468" lon="6.98866">
        <ele>1575.8000488281</ele>
        <time>2022-08-20T11:28:03.000Z</time>
      </trkpt>
      <trkpt lat="44.04475" lon="6.98868">
        <ele>1575.4000244141</ele>
        <time>2022-08-20T11:28:05.000Z</time>
      </trkpt>
      <trkpt lat="44.04483" lon="6.98868">
        <ele>1575.5999755859</ele>
        <time>2022-08-20T11:28:07.000Z</time>
      </trkpt>
      <trkpt lat="44.04488" lon="6.9887">
        <ele>1575.8000488281</ele>
        <time>2022-08-20T11:28:08.000Z</time>
      </trkpt>
      <trkpt lat="44.04497" lon="6.98877">
        <ele>1576</ele>
        <time>2022-08-20T11:28:10.000Z</time>
      </trkpt>
      <trkpt lat="44.04502" lon="6.98879">
        <ele>1576</ele>
        <time>2022-08-20T11:28:11.000Z</time>
      </trkpt>
      <trkpt lat="44.04512" lon="6.98884">
        <ele>1575</ele>
        <time>2022-08-20T11:28:13.000Z</time>
      </trkpt>
      <trkpt lat="44.04516" lon="6.98889">
        <ele>1574.4000244141</ele>
        <time>2022-08-20T11:28:14.000Z</time>
      </trkpt>
      <trkpt lat="44.04523" lon="6.98893">
        <ele>1573.4000244141</ele>
        <time>2022-08-20T11:28:16.000Z</time>
      </trkpt>
      <trkpt lat="44.04527" lon="6.98893">
        <ele>1573.1999511719</ele>
        <time>2022-08-20T11:28:17.000Z</time>
      </trkpt>
      <trkpt lat="44.0454" lon="6.98896">
        <ele>1572</ele>
        <time>2022-08-20T11:28:20.000Z</time>
      </trkpt>
      <trkpt lat="44.04549" lon="6.98902">
        <ele>1571</ele>
        <time>2022-08-20T11:28:22.000Z</time>
      </trkpt>
      <trkpt lat="44.04553" lon="6.98904">
        <ele>1570.4000244141</ele>
        <time>2022-08-20T11:28:23.000Z</time>
      </trkpt>
      <trkpt lat="44.04558" lon="6.9891">
        <ele>1569.4000244141</ele>
        <time>2022-08-20T11:28:25.000Z</time>
      </trkpt>
      <trkpt lat="44.04558" lon="6.98911">
        <ele>1569.1999511719</ele>
        <time>2022-08-20T11:28:26.000Z</time>
      </trkpt>
      <trkpt lat="44.04565" lon="6.98918">
        <ele>1570.1999511719</ele>
        <time>2022-08-20T11:28:30.000Z</time>
      </trkpt>
      <trkpt lat="44.04566" lon="6.98919">
        <ele>1570.5999755859</ele>
        <time>2022-08-20T11:28:31.000Z</time>
      </trkpt>
      <trkpt lat="44.04568" lon="6.9892">
        <ele>1570.5999755859</ele>
        <time>2022-08-20T11:28:32.000Z</time>
      </trkpt>
      <trkpt lat="44.04571" lon="6.98922">
        <ele>1570.8000488281</ele>
        <time>2022-08-20T11:28:34.000Z</time>
      </trkpt>
      <trkpt lat="44.04571" lon="6.98923">
        <ele>1570.5999755859</ele>
        <time>2022-08-20T11:28:38.000Z</time>
      </trkpt>
      <trkpt lat="44.04571" lon="6.98922">
        <ele>1570.5999755859</ele>
        <time>2022-08-20T11:28:44.000Z</time>
      </trkpt>
      <trkpt lat="44.0457" lon="6.98922">
        <ele>1569.5999755859</ele>
        <time>2022-08-20T11:28:51.000Z</time>
      </trkpt>
      <trkpt lat="44.04572" lon="6.98922">
        <ele>1569.8000488281</ele>
        <time>2022-08-20T11:28:58.000Z</time>
      </trkpt>
      <trkpt lat="44.04573" lon="6.98923">
        <ele>1569.5999755859</ele>
        <time>2022-08-20T11:29:05.000Z</time>
      </trkpt>
      <trkpt lat="44.04573" lon="6.98924">
        <ele>1569.4000244141</ele>
        <time>2022-08-20T11:29:09.000Z</time>
      </trkpt>
      <trkpt lat="44.04573" lon="6.98925">
        <ele>1570</ele>
        <time>2022-08-20T11:29:17.000Z</time>
      </trkpt>
      <trkpt lat="44.04574" lon="6.98925">
        <ele>1570.5999755859</ele>
        <time>2022-08-20T11:29:19.000Z</time>
      </trkpt>
      <trkpt lat="44.04576" lon="6.98926">
        <ele>1571.1999511719</ele>
        <time>2022-08-20T11:29:24.000Z</time>
      </trkpt>
      <trkpt lat="44.04577" lon="6.98923">
        <ele>1571</ele>
        <time>2022-08-20T11:29:30.000Z</time>
      </trkpt>
      <trkpt lat="44.0458" lon="6.98923">
        <ele>1570.5999755859</ele>
        <time>2022-08-20T11:29:33.000Z</time>
      </trkpt>
      <trkpt lat="44.04587" lon="6.98923">
        <ele>1571.4000244141</ele>
        <time>2022-08-20T11:29:41.000Z</time>
      </trkpt>
      <trkpt lat="44.04587" lon="6.98922">
        <ele>1571.5999755859</ele>
        <time>2022-08-20T11:29:42.000Z</time>
      </trkpt>
      <trkpt lat="44.04589" lon="6.98921">
        <ele>1572.4000244141</ele>
        <time>2022-08-20T11:29:48.000Z</time>
      </trkpt>
      <trkpt lat="44.0459" lon="6.9892">
        <ele>1572.8000488281</ele>
        <time>2022-08-20T11:29:51.000Z</time>
      </trkpt>
      <trkpt lat="44.04591" lon="6.98919">
        <ele>1573.4000244141</ele>
        <time>2022-08-20T11:29:54.000Z</time>
      </trkpt>
      <trkpt lat="44.0459" lon="6.98918">
        <ele>1573.8000488281</ele>
        <time>2022-08-20T11:29:58.000Z</time>
      </trkpt>
      <trkpt lat="44.0459" lon="6.98918">
        <ele>1574</ele>
        <time>2022-08-20T11:29:59.000Z</time>
      </trkpt>
      <trkpt lat="44.04591" lon="6.98916">
        <ele>1573.5999755859</ele>
        <time>2022-08-20T11:30:06.000Z</time>
      </trkpt>
      <trkpt lat="44.04591" lon="6.98916">
        <ele>1572.5999755859</ele>
        <time>2022-08-20T11:30:11.000Z</time>
      </trkpt>
      <trkpt lat="44.04591" lon="6.98916">
        <ele>1572</ele>
        <time>2022-08-20T11:30:17.000Z</time>
      </trkpt>
      <trkpt lat="44.04592" lon="6.98915">
        <ele>1572</ele>
        <time>2022-08-20T11:30:32.000Z</time>
      </trkpt>
      <trkpt lat="44.04593" lon="6.98914">
        <ele>1572</ele>
        <time>2022-08-20T11:30:43.000Z</time>
      </trkpt>
      <trkpt lat="44.04593" lon="6.98915">
        <ele>1572</ele>
        <time>2022-08-20T11:30:47.000Z</time>
      </trkpt>
      <trkpt lat="44.04593" lon="6.98914">
        <ele>1571.5999755859</ele>
        <time>2022-08-20T11:30:55.000Z</time>
      </trkpt>
      <trkpt lat="44.04593" lon="6.98914">
        <ele>1571.5999755859</ele>
        <time>2022-08-20T11:31:02.000Z</time>
      </trkpt>
      <trkpt lat="44.04593" lon="6.98914">
        <ele>1571.4000244141</ele>
        <time>2022-08-20T11:31:08.000Z</time>
      </trkpt>
      <trkpt lat="44.04593" lon="6.98913">
        <ele>1571.1999511719</ele>
        <time>2022-08-20T11:31:20.000Z</time>
      </trkpt>
      <trkpt lat="44.04593" lon="6.98913">
        <ele>1571.1999511719</ele>
        <time>2022-08-20T11:31:27.000Z</time>
      </trkpt>
      <trkpt lat="44.04593" lon="6.98912">
        <ele>1570.8000488281</ele>
        <time>2022-08-20T11:31:37.000Z</time>
      </trkpt>
      <trkpt lat="44.04594" lon="6.98912">
        <ele>1570.5999755859</ele>
        <time>2022-08-20T11:31:41.000Z</time>
      </trkpt>
      <trkpt lat="44.04594" lon="6.98912">
        <ele>1570.5999755859</ele>
        <time>2022-08-20T11:31:45.000Z</time>
      </trkpt>
      <trkpt lat="44.04594" lon="6.98913">
        <ele>1571.4000244141</ele>
        <time>2022-08-20T11:31:51.000Z</time>
      </trkpt>
      <trkpt lat="44.04594" lon="6.98913">
        <ele>1570.5999755859</ele>
        <time>2022-08-20T11:32:02.000Z</time>
      </trkpt>
      <trkpt lat="44.04593" lon="6.98913">
        <ele>1570.8000488281</ele>
        <time>2022-08-20T11:32:08.000Z</time>
      </trkpt>
      <trkpt lat="44.04593" lon="6.98912">
        <ele>1571</ele>
        <time>2022-08-20T11:32:15.000Z</time>
      </trkpt>
      <trkpt lat="44.04594" lon="6.98905">
        <ele>1571.5999755859</ele>
        <time>2022-08-20T11:32:20.000Z</time>
      </trkpt>
      <trkpt lat="44.04595" lon="6.98899">
        <ele>1571.5999755859</ele>
        <time>2022-08-20T11:32:22.000Z</time>
      </trkpt>
      <trkpt lat="44.04595" lon="6.98891">
        <ele>1571.8000488281</ele>
        <time>2022-08-20T11:32:25.000Z</time>
      </trkpt>
      <trkpt lat="44.04595" lon="6.98886">
        <ele>1571.5999755859</ele>
        <time>2022-08-20T11:32:27.000Z</time>
      </trkpt>
      <trkpt lat="44.04597" lon="6.98882">
        <ele>1572</ele>
        <time>2022-08-20T11:32:29.000Z</time>
      </trkpt>
      <trkpt lat="44.04597" lon="6.98872">
        <ele>1572.5999755859</ele>
        <time>2022-08-20T11:32:32.000Z</time>
      </trkpt>
      <trkpt lat="44.04597" lon="6.98867">
        <ele>1572.8000488281</ele>
        <time>2022-08-20T11:32:33.000Z</time>
      </trkpt>
      <trkpt lat="44.04595" lon="6.98848">
        <ele>1572.4000244141</ele>
        <time>2022-08-20T11:32:38.000Z</time>
      </trkpt>
      <trkpt lat="44.04599" lon="6.98833">
        <ele>1572.5999755859</ele>
        <time>2022-08-20T11:32:43.000Z</time>
      </trkpt>
      <trkpt lat="44.04606" lon="6.9882">
        <ele>1573.5999755859</ele>
        <time>2022-08-20T11:32:48.000Z</time>
      </trkpt>
      <trkpt lat="44.04608" lon="6.98818">
        <ele>1573.8000488281</ele>
        <time>2022-08-20T11:32:49.000Z</time>
      </trkpt>
      <trkpt lat="44.04611" lon="6.98815">
        <ele>1574.8000488281</ele>
        <time>2022-08-20T11:32:53.000Z</time>
      </trkpt>
      <trkpt lat="44.04611" lon="6.98813">
        <ele>1575</ele>
        <time>2022-08-20T11:32:54.000Z</time>
      </trkpt>
      <trkpt lat="44.0461" lon="6.98807">
        <ele>1575.4000244141</ele>
        <time>2022-08-20T11:32:57.000Z</time>
      </trkpt>
      <trkpt lat="44.04611" lon="6.98799">
        <ele>1573.8000488281</ele>
        <time>2022-08-20T11:33:01.000Z</time>
      </trkpt>
      <trkpt lat="44.0461" lon="6.98792">
        <ele>1573.4000244141</ele>
        <time>2022-08-20T11:33:03.000Z</time>
      </trkpt>
      <trkpt lat="44.04608" lon="6.98778">
        <ele>1573.1999511719</ele>
        <time>2022-08-20T11:33:07.000Z</time>
      </trkpt>
      <trkpt lat="44.04605" lon="6.98764">
        <ele>1574.1999511719</ele>
        <time>2022-08-20T11:33:12.000Z</time>
      </trkpt>
      <trkpt lat="44.04598" lon="6.9875">
        <ele>1574.4000244141</ele>
        <time>2022-08-20T11:33:17.000Z</time>
      </trkpt>
      <trkpt lat="44.04594" lon="6.9874">
        <ele>1575</ele>
        <time>2022-08-20T11:33:21.000Z</time>
      </trkpt>
      <trkpt lat="44.04594" lon="6.9874">
        <ele>1575.5999755859</ele>
        <time>2022-08-20T11:33:23.000Z</time>
      </trkpt>
      <trkpt lat="44.04593" lon="6.98739">
        <ele>1576</ele>
        <time>2022-08-20T11:33:24.000Z</time>
      </trkpt>
      <trkpt lat="44.04593" lon="6.98739">
        <ele>1576.5999755859</ele>
        <time>2022-08-20T11:33:30.000Z</time>
      </trkpt>
      <trkpt lat="44.04592" lon="6.98739">
        <ele>1576.4000244141</ele>
        <time>2022-08-20T11:33:39.000Z</time>
      </trkpt>
      <trkpt lat="44.04591" lon="6.98738">
        <ele>1576.4000244141</ele>
        <time>2022-08-20T11:33:57.000Z</time>
      </trkpt>
      <trkpt lat="44.04592" lon="6.98738">
        <ele>1575.5999755859</ele>
        <time>2022-08-20T11:34:08.000Z</time>
      </trkpt>
      <trkpt lat="44.04591" lon="6.98738">
        <ele>1576</ele>
        <time>2022-08-20T11:34:20.000Z</time>
      </trkpt>
      <trkpt lat="44.04592" lon="6.98738">
        <ele>1576</ele>
        <time>2022-08-20T11:34:30.000Z</time>
      </trkpt>
      <trkpt lat="44.04591" lon="6.98738">
        <ele>1575.5999755859</ele>
        <time>2022-08-20T11:34:36.000Z</time>
      </trkpt>
      <trkpt lat="44.04592" lon="6.98738">
        <ele>1575.1999511719</ele>
        <time>2022-08-20T11:34:44.000Z</time>
      </trkpt>
      <trkpt lat="44.04592" lon="6.98738">
        <ele>1575</ele>
        <time>2022-08-20T11:34:53.000Z</time>
      </trkpt>
      <trkpt lat="44.04592" lon="6.98739">
        <ele>1574.8000488281</ele>
        <time>2022-08-20T11:34:56.000Z</time>
      </trkpt>
      <trkpt lat="44.04591" lon="6.98738">
        <ele>1575.5999755859</ele>
        <time>2022-08-20T11:35:06.000Z</time>
      </trkpt>
      <trkpt lat="44.04591" lon="6.98738">
        <ele>1575.8000488281</ele>
        <time>2022-08-20T11:35:26.000Z</time>
      </trkpt>
      <trkpt lat="44.04591" lon="6.98738">
        <ele>1575.1999511719</ele>
        <time>2022-08-20T11:35:52.000Z</time>
      </trkpt>
      <trkpt lat="44.04591" lon="6.98738">
        <ele>1575.1999511719</ele>
        <time>2022-08-20T11:36:21.000Z</time>
      </trkpt>
      <trkpt lat="44.0459" lon="6.98738">
        <ele>1575.4000244141</ele>
        <time>2022-08-20T11:36:46.000Z</time>
      </trkpt>
      <trkpt lat="44.0459" lon="6.98738">
        <ele>1575.5999755859</ele>
        <time>2022-08-20T11:37:02.000Z</time>
      </trkpt>
      <trkpt lat="44.0459" lon="6.98738">
        <ele>1574.5999755859</ele>
        <time>2022-08-20T11:37:12.000Z</time>
      </trkpt>
      <trkpt lat="44.04591" lon="6.98739">
        <ele>1575.1999511719</ele>
        <time>2022-08-20T11:37:24.000Z</time>
      </trkpt>
      <trkpt lat="44.04591" lon="6.98739">
        <ele>1574.8000488281</ele>
        <time>2022-08-20T11:37:34.000Z</time>
      </trkpt>
      <trkpt lat="44.04591" lon="6.98738">
        <ele>1574.8000488281</ele>
        <time>2022-08-20T11:37:43.000Z</time>
      </trkpt>
      <trkpt lat="44.04591" lon="6.98738">
        <ele>1574.8000488281</ele>
        <time>2022-08-20T11:37:51.000Z</time>
      </trkpt>
      <trkpt lat="44.04591" lon="6.98738">
        <ele>1574.5999755859</ele>
        <time>2022-08-20T11:38:02.000Z</time>
      </trkpt>
      <trkpt lat="44.04591" lon="6.98736">
        <ele>1575</ele>
        <time>2022-08-20T11:38:16.000Z</time>
      </trkpt>
      <trkpt lat="44.04591" lon="6.98734">
        <ele>1575</ele>
        <time>2022-08-20T11:38:27.000Z</time>
      </trkpt>
      <trkpt lat="44.04591" lon="6.98736">
        <ele>1575.1999511719</ele>
        <time>2022-08-20T11:38:44.000Z</time>
      </trkpt>
      <trkpt lat="44.04591" lon="6.98736">
        <ele>1574.5999755859</ele>
        <time>2022-08-20T11:38:55.000Z</time>
      </trkpt>
      <trkpt lat="44.04591" lon="6.98735">
        <ele>1574.5999755859</ele>
        <time>2022-08-20T11:39:12.000Z</time>
      </trkpt>
      <trkpt lat="44.0459" lon="6.98734">
        <ele>1574.5999755859</ele>
        <time>2022-08-20T11:39:33.000Z</time>
      </trkpt>
      <trkpt lat="44.04591" lon="6.98735">
        <ele>1575</ele>
        <time>2022-08-20T11:39:53.000Z</time>
      </trkpt>
      <trkpt lat="44.04591" lon="6.98736">
        <ele>1575.5999755859</ele>
        <time>2022-08-20T11:40:12.000Z</time>
      </trkpt>
      <trkpt lat="44.04591" lon="6.98735">
        <ele>1575.8000488281</ele>
        <time>2022-08-20T11:40:23.000Z</time>
      </trkpt>
      <trkpt lat="44.04591" lon="6.98735">
        <ele>1576</ele>
        <time>2022-08-20T11:40:25.000Z</time>
      </trkpt>
      <trkpt lat="44.04591" lon="6.98736">
        <ele>1575.8000488281</ele>
        <time>2022-08-20T11:40:35.000Z</time>
      </trkpt>
      <trkpt lat="44.04591" lon="6.98736">
        <ele>1576</ele>
        <time>2022-08-20T11:40:51.000Z</time>
      </trkpt>
      <trkpt lat="44.04591" lon="6.98736">
        <ele>1575.8000488281</ele>
        <time>2022-08-20T11:41:13.000Z</time>
      </trkpt>
      <trkpt lat="44.04591" lon="6.98736">
        <ele>1576.1999511719</ele>
        <time>2022-08-20T11:41:25.000Z</time>
      </trkpt>
      <trkpt lat="44.04591" lon="6.98736">
        <ele>1576.1999511719</ele>
        <time>2022-08-20T11:41:32.000Z</time>
      </trkpt>
      <trkpt lat="44.04591" lon="6.98737">
        <ele>1575.1999511719</ele>
        <time>2022-08-20T11:41:38.000Z</time>
      </trkpt>
      <trkpt lat="44.04591" lon="6.98737">
        <ele>1576</ele>
        <time>2022-08-20T11:41:46.000Z</time>
      </trkpt>
      <trkpt lat="44.04592" lon="6.98737">
        <ele>1575</ele>
        <time>2022-08-20T11:41:51.000Z</time>
      </trkpt>
      <trkpt lat="44.04592" lon="6.98737">
        <ele>1575.1999511719</ele>
        <time>2022-08-20T11:41:56.000Z</time>
      </trkpt>
      <trkpt lat="44.04591" lon="6.98736">
        <ele>1575.1999511719</ele>
        <time>2022-08-20T11:42:07.000Z</time>
      </trkpt>
      <trkpt lat="44.04591" lon="6.98736">
        <ele>1575.8000488281</ele>
        <time>2022-08-20T11:42:19.000Z</time>
      </trkpt>
      <trkpt lat="44.04592" lon="6.98737">
        <ele>1575.4000244141</ele>
        <time>2022-08-20T11:42:33.000Z</time>
      </trkpt>
      <trkpt lat="44.04592" lon="6.98736">
        <ele>1575.8000488281</ele>
        <time>2022-08-20T11:42:40.000Z</time>
      </trkpt>
      <trkpt lat="44.04592" lon="6.98737">
        <ele>1575.5999755859</ele>
        <time>2022-08-20T11:43:00.000Z</time>
      </trkpt>
      <trkpt lat="44.04592" lon="6.98737">
        <ele>1575.4000244141</ele>
        <time>2022-08-20T11:43:22.000Z</time>
      </trkpt>
      <trkpt lat="44.04592" lon="6.98738">
        <ele>1575.8000488281</ele>
        <time>2022-08-20T11:43:42.000Z</time>
      </trkpt>
      <trkpt lat="44.04591" lon="6.98737">
        <ele>1575.5999755859</ele>
        <time>2022-08-20T11:44:03.000Z</time>
      </trkpt>
      <trkpt lat="44.04591" lon="6.98737">
        <ele>1575.4000244141</ele>
        <time>2022-08-20T11:44:19.000Z</time>
      </trkpt>
      <trkpt lat="44.04591" lon="6.98737">
        <ele>1575.4000244141</ele>
        <time>2022-08-20T11:44:37.000Z</time>
      </trkpt>
      <trkpt lat="44.04591" lon="6.98737">
        <ele>1575.5999755859</ele>
        <time>2022-08-20T11:44:44.000Z</time>
      </trkpt>
      <trkpt lat="44.04591" lon="6.98737">
        <ele>1575.4000244141</ele>
        <time>2022-08-20T11:44:53.000Z</time>
      </trkpt>
      <trkpt lat="44.04592" lon="6.98738">
        <ele>1575.8000488281</ele>
        <time>2022-08-20T11:45:01.000Z</time>
      </trkpt>
      <trkpt lat="44.04592" lon="6.98738">
        <ele>1576</ele>
        <time>2022-08-20T11:45:02.000Z</time>
      </trkpt>
      <trkpt lat="44.04592" lon="6.98738">
        <ele>1575.5999755859</ele>
        <time>2022-08-20T11:45:15.000Z</time>
      </trkpt>
      <trkpt lat="44.04592" lon="6.98738">
        <ele>1575.8000488281</ele>
        <time>2022-08-20T11:45:25.000Z</time>
      </trkpt>
      <trkpt lat="44.04591" lon="6.98736">
        <ele>1575.8000488281</ele>
        <time>2022-08-20T11:45:30.000Z</time>
      </trkpt>
      <trkpt lat="44.0459" lon="6.98727">
        <ele>1575.5999755859</ele>
        <time>2022-08-20T11:45:33.000Z</time>
      </trkpt>
      <trkpt lat="44.0459" lon="6.98723">
        <ele>1575</ele>
        <time>2022-08-20T11:45:34.000Z</time>
      </trkpt>
      <trkpt lat="44.04589" lon="6.98719">
        <ele>1574.5999755859</ele>
        <time>2022-08-20T11:45:35.000Z</time>
      </trkpt>
      <trkpt lat="44.04586" lon="6.98711">
        <ele>1573.1999511719</ele>
        <time>2022-08-20T11:45:37.000Z</time>
      </trkpt>
      <trkpt lat="44.04586" lon="6.98704">
        <ele>1572</ele>
        <time>2022-08-20T11:45:39.000Z</time>
      </trkpt>
      <trkpt lat="44.04587" lon="6.98697">
        <ele>1570.8000488281</ele>
        <time>2022-08-20T11:45:41.000Z</time>
      </trkpt>
      <trkpt lat="44.04588" lon="6.98689">
        <ele>1569.8000488281</ele>
        <time>2022-08-20T11:45:43.000Z</time>
      </trkpt>
      <trkpt lat="44.0459" lon="6.98687">
        <ele>1569.4000244141</ele>
        <time>2022-08-20T11:45:44.000Z</time>
      </trkpt>
      <trkpt lat="44.04591" lon="6.98683">
        <ele>1569</ele>
        <time>2022-08-20T11:45:45.000Z</time>
      </trkpt>
      <trkpt lat="44.04593" lon="6.98679">
        <ele>1568.1999511719</ele>
        <time>2022-08-20T11:45:46.000Z</time>
      </trkpt>
      <trkpt lat="44.04596" lon="6.98673">
        <ele>1566.8000488281</ele>
        <time>2022-08-20T11:45:48.000Z</time>
      </trkpt>
      <trkpt lat="44.04596" lon="6.98671">
        <ele>1566</ele>
        <time>2022-08-20T11:45:49.000Z</time>
      </trkpt>
      <trkpt lat="44.04595" lon="6.9867">
        <ele>1565.1999511719</ele>
        <time>2022-08-20T11:45:50.000Z</time>
      </trkpt>
      <trkpt lat="44.04593" lon="6.98665">
        <ele>1563.5999755859</ele>
        <time>2022-08-20T11:45:52.000Z</time>
      </trkpt>
      <trkpt lat="44.04594" lon="6.98658">
        <ele>1562.8000488281</ele>
        <time>2022-08-20T11:45:54.000Z</time>
      </trkpt>
      <trkpt lat="44.04594" lon="6.98657">
        <ele>1562.1999511719</ele>
        <time>2022-08-20T11:45:55.000Z</time>
      </trkpt>
      <trkpt lat="44.04595" lon="6.98654">
        <ele>1561</ele>
        <time>2022-08-20T11:45:58.000Z</time>
      </trkpt>
      <trkpt lat="44.04604" lon="6.98652">
        <ele>1560.1999511719</ele>
        <time>2022-08-20T11:46:02.000Z</time>
      </trkpt>
      <trkpt lat="44.04607" lon="6.98651">
        <ele>1560</ele>
        <time>2022-08-20T11:46:03.000Z</time>
      </trkpt>
      <trkpt lat="44.04617" lon="6.9865">
        <ele>1558.8000488281</ele>
        <time>2022-08-20T11:46:06.000Z</time>
      </trkpt>
      <trkpt lat="44.04621" lon="6.98651">
        <ele>1558.1999511719</ele>
        <time>2022-08-20T11:46:07.000Z</time>
      </trkpt>
      <trkpt lat="44.04627" lon="6.98654">
        <ele>1557.5999755859</ele>
        <time>2022-08-20T11:46:08.000Z</time>
      </trkpt>
      <trkpt lat="44.04638" lon="6.98663">
        <ele>1555.5999755859</ele>
        <time>2022-08-20T11:46:11.000Z</time>
      </trkpt>
      <trkpt lat="44.04643" lon="6.98663">
        <ele>1554.8000488281</ele>
        <time>2022-08-20T11:46:12.000Z</time>
      </trkpt>
      <trkpt lat="44.04643" lon="6.9866">
        <ele>1554.1999511719</ele>
        <time>2022-08-20T11:46:13.000Z</time>
      </trkpt>
      <trkpt lat="44.04645" lon="6.98657">
        <ele>1553.5999755859</ele>
        <time>2022-08-20T11:46:14.000Z</time>
      </trkpt>
      <trkpt lat="44.04647" lon="6.98652">
        <ele>1553</ele>
        <time>2022-08-20T11:46:15.000Z</time>
      </trkpt>
      <trkpt lat="44.04649" lon="6.98643">
        <ele>1552.5999755859</ele>
        <time>2022-08-20T11:46:17.000Z</time>
      </trkpt>
      <trkpt lat="44.04651" lon="6.9864">
        <ele>1552.8000488281</ele>
        <time>2022-08-20T11:46:18.000Z</time>
      </trkpt>
      <trkpt lat="44.0466" lon="6.98635">
        <ele>1553.1999511719</ele>
        <time>2022-08-20T11:46:21.000Z</time>
      </trkpt>
      <trkpt lat="44.04664" lon="6.98638">
        <ele>1553.1999511719</ele>
        <time>2022-08-20T11:46:22.000Z</time>
      </trkpt>
      <trkpt lat="44.0468" lon="6.98645">
        <ele>1553.1999511719</ele>
        <time>2022-08-20T11:46:26.000Z</time>
      </trkpt>
      <trkpt lat="44.04683" lon="6.98648">
        <ele>1552.8000488281</ele>
        <time>2022-08-20T11:46:27.000Z</time>
      </trkpt>
      <trkpt lat="44.04684" lon="6.98646">
        <ele>1552.1999511719</ele>
        <time>2022-08-20T11:46:28.000Z</time>
      </trkpt>
      <trkpt lat="44.04687" lon="6.98645">
        <ele>1552</ele>
        <time>2022-08-20T11:46:29.000Z</time>
      </trkpt>
      <trkpt lat="44.04696" lon="6.98648">
        <ele>1550.5999755859</ele>
        <time>2022-08-20T11:46:31.000Z</time>
      </trkpt>
      <trkpt lat="44.04699" lon="6.98651">
        <ele>1550.1999511719</ele>
        <time>2022-08-20T11:46:32.000Z</time>
      </trkpt>
      <trkpt lat="44.04702" lon="6.98658">
        <ele>1549.5999755859</ele>
        <time>2022-08-20T11:46:34.000Z</time>
      </trkpt>
      <trkpt lat="44.04704" lon="6.98658">
        <ele>1549.1999511719</ele>
        <time>2022-08-20T11:46:35.000Z</time>
      </trkpt>
      <trkpt lat="44.0471" lon="6.98656">
        <ele>1548.4000244141</ele>
        <time>2022-08-20T11:46:38.000Z</time>
      </trkpt>
      <trkpt lat="44.04725" lon="6.98656">
        <ele>1548.8000488281</ele>
        <time>2022-08-20T11:46:42.000Z</time>
      </trkpt>
      <trkpt lat="44.0473" lon="6.98656">
        <ele>1548.5999755859</ele>
        <time>2022-08-20T11:46:43.000Z</time>
      </trkpt>
      <trkpt lat="44.04736" lon="6.98655">
        <ele>1547.4000244141</ele>
        <time>2022-08-20T11:46:46.000Z</time>
      </trkpt>
      <trkpt lat="44.04743" lon="6.9865">
        <ele>1546</ele>
        <time>2022-08-20T11:46:48.000Z</time>
      </trkpt>
      <trkpt lat="44.04748" lon="6.98652">
        <ele>1545.5999755859</ele>
        <time>2022-08-20T11:46:49.000Z</time>
      </trkpt>
      <trkpt lat="44.04753" lon="6.98657">
        <ele>1544.8000488281</ele>
        <time>2022-08-20T11:46:50.000Z</time>
      </trkpt>
      <trkpt lat="44.0476" lon="6.98665">
        <ele>1543.4000244141</ele>
        <time>2022-08-20T11:46:52.000Z</time>
      </trkpt>
      <trkpt lat="44.04767" lon="6.98669">
        <ele>1542</ele>
        <time>2022-08-20T11:46:55.000Z</time>
      </trkpt>
      <trkpt lat="44.04775" lon="6.98673">
        <ele>1541</ele>
        <time>2022-08-20T11:46:57.000Z</time>
      </trkpt>
      <trkpt lat="44.04783" lon="6.9868">
        <ele>1539.8000488281</ele>
        <time>2022-08-20T11:46:59.000Z</time>
      </trkpt>
      <trkpt lat="44.0479" lon="6.9869">
        <ele>1538.4000244141</ele>
        <time>2022-08-20T11:47:02.000Z</time>
      </trkpt>
      <trkpt lat="44.04796" lon="6.98684">
        <ele>1536.8000488281</ele>
        <time>2022-08-20T11:47:04.000Z</time>
      </trkpt>
      <trkpt lat="44.048" lon="6.9868">
        <ele>1536.4000244141</ele>
        <time>2022-08-20T11:47:05.000Z</time>
      </trkpt>
      <trkpt lat="44.04805" lon="6.98676">
        <ele>1535.8000488281</ele>
        <time>2022-08-20T11:47:06.000Z</time>
      </trkpt>
      <trkpt lat="44.04823" lon="6.98664">
        <ele>1535.4000244141</ele>
        <time>2022-08-20T11:47:10.000Z</time>
      </trkpt>
      <trkpt lat="44.04828" lon="6.98665">
        <ele>1535.1999511719</ele>
        <time>2022-08-20T11:47:11.000Z</time>
      </trkpt>
      <trkpt lat="44.04839" lon="6.98668">
        <ele>1534.1999511719</ele>
        <time>2022-08-20T11:47:13.000Z</time>
      </trkpt>
      <trkpt lat="44.0485" lon="6.98673">
        <ele>1533.4000244141</ele>
        <time>2022-08-20T11:47:15.000Z</time>
      </trkpt>
      <trkpt lat="44.04854" lon="6.98676">
        <ele>1532.5999755859</ele>
        <time>2022-08-20T11:47:16.000Z</time>
      </trkpt>
      <trkpt lat="44.04863" lon="6.98691">
        <ele>1532</ele>
        <time>2022-08-20T11:47:19.000Z</time>
      </trkpt>
      <trkpt lat="44.04865" lon="6.98694">
        <ele>1531.5999755859</ele>
        <time>2022-08-20T11:47:20.000Z</time>
      </trkpt>
      <trkpt lat="44.04869" lon="6.98695">
        <ele>1531.4000244141</ele>
        <time>2022-08-20T11:47:22.000Z</time>
      </trkpt>
      <trkpt lat="44.04867" lon="6.98704">
        <ele>1530.4000244141</ele>
        <time>2022-08-20T11:47:24.000Z</time>
      </trkpt>
      <trkpt lat="44.04868" lon="6.98709">
        <ele>1530</ele>
        <time>2022-08-20T11:47:25.000Z</time>
      </trkpt>
      <trkpt lat="44.0488" lon="6.98712">
        <ele>1530</ele>
        <time>2022-08-20T11:47:28.000Z</time>
      </trkpt>
      <trkpt lat="44.04884" lon="6.98713">
        <ele>1529.8000488281</ele>
        <time>2022-08-20T11:47:29.000Z</time>
      </trkpt>
      <trkpt lat="44.04895" lon="6.98713">
        <ele>1529.1999511719</ele>
        <time>2022-08-20T11:47:31.000Z</time>
      </trkpt>
      <trkpt lat="44.049" lon="6.98714">
        <ele>1528.5999755859</ele>
        <time>2022-08-20T11:47:32.000Z</time>
      </trkpt>
      <trkpt lat="44.0491" lon="6.98718">
        <ele>1528</ele>
        <time>2022-08-20T11:47:34.000Z</time>
      </trkpt>
      <trkpt lat="44.04919" lon="6.98724">
        <ele>1527.1999511719</ele>
        <time>2022-08-20T11:47:36.000Z</time>
      </trkpt>
      <trkpt lat="44.04924" lon="6.98725">
        <ele>1526.5999755859</ele>
        <time>2022-08-20T11:47:37.000Z</time>
      </trkpt>
      <trkpt lat="44.0493" lon="6.98727">
        <ele>1526</ele>
        <time>2022-08-20T11:47:38.000Z</time>
      </trkpt>
      <trkpt lat="44.04934" lon="6.98729">
        <ele>1524.8000488281</ele>
        <time>2022-08-20T11:47:39.000Z</time>
      </trkpt>
      <trkpt lat="44.04937" lon="6.98733">
        <ele>1523.4000244141</ele>
        <time>2022-08-20T11:47:40.000Z</time>
      </trkpt>
      <trkpt lat="44.0494" lon="6.98737">
        <ele>1522.1999511719</ele>
        <time>2022-08-20T11:47:41.000Z</time>
      </trkpt>
      <trkpt lat="44.04945" lon="6.98741">
        <ele>1521.1999511719</ele>
        <time>2022-08-20T11:47:42.000Z</time>
      </trkpt>
      <trkpt lat="44.04948" lon="6.98745">
        <ele>1520.1999511719</ele>
        <time>2022-08-20T11:47:43.000Z</time>
      </trkpt>
      <trkpt lat="44.04955" lon="6.98753">
        <ele>1520.1999511719</ele>
        <time>2022-08-20T11:47:45.000Z</time>
      </trkpt>
      <trkpt lat="44.04958" lon="6.98758">
        <ele>1519.5999755859</ele>
        <time>2022-08-20T11:47:46.000Z</time>
      </trkpt>
      <trkpt lat="44.04961" lon="6.9876">
        <ele>1519.1999511719</ele>
        <time>2022-08-20T11:47:47.000Z</time>
      </trkpt>
      <trkpt lat="44.04968" lon="6.98762">
        <ele>1517.4000244141</ele>
        <time>2022-08-20T11:47:49.000Z</time>
      </trkpt>
      <trkpt lat="44.04979" lon="6.98766">
        <ele>1515.4000244141</ele>
        <time>2022-08-20T11:47:52.000Z</time>
      </trkpt>
      <trkpt lat="44.04981" lon="6.98765">
        <ele>1515.1999511719</ele>
        <time>2022-08-20T11:47:53.000Z</time>
      </trkpt>
      <trkpt lat="44.04989" lon="6.98767">
        <ele>1513.8000488281</ele>
        <time>2022-08-20T11:47:55.000Z</time>
      </trkpt>
      <trkpt lat="44.04992" lon="6.98772">
        <ele>1513</ele>
        <time>2022-08-20T11:47:56.000Z</time>
      </trkpt>
      <trkpt lat="44.04995" lon="6.98776">
        <ele>1512.1999511719</ele>
        <time>2022-08-20T11:47:57.000Z</time>
      </trkpt>
      <trkpt lat="44.05" lon="6.98788">
        <ele>1510.5999755859</ele>
        <time>2022-08-20T11:47:59.000Z</time>
      </trkpt>
      <trkpt lat="44.05004" lon="6.98792">
        <ele>1509</ele>
        <time>2022-08-20T11:48:00.000Z</time>
      </trkpt>
      <trkpt lat="44.05008" lon="6.98791">
        <ele>1507.8000488281</ele>
        <time>2022-08-20T11:48:01.000Z</time>
      </trkpt>
      <trkpt lat="44.05019" lon="6.9879">
        <ele>1505.8000488281</ele>
        <time>2022-08-20T11:48:03.000Z</time>
      </trkpt>
      <trkpt lat="44.05024" lon="6.98789">
        <ele>1505</ele>
        <time>2022-08-20T11:48:04.000Z</time>
      </trkpt>
      <trkpt lat="44.05028" lon="6.98788">
        <ele>1504.8000488281</ele>
        <time>2022-08-20T11:48:05.000Z</time>
      </trkpt>
      <trkpt lat="44.05033" lon="6.98789">
        <ele>1505</ele>
        <time>2022-08-20T11:48:06.000Z</time>
      </trkpt>
      <trkpt lat="44.0504" lon="6.98796">
        <ele>1504.1999511719</ele>
        <time>2022-08-20T11:48:08.000Z</time>
      </trkpt>
      <trkpt lat="44.05044" lon="6.988">
        <ele>1503.8000488281</ele>
        <time>2022-08-20T11:48:09.000Z</time>
      </trkpt>
      <trkpt lat="44.05048" lon="6.98804">
        <ele>1502.5999755859</ele>
        <time>2022-08-20T11:48:10.000Z</time>
      </trkpt>
      <trkpt lat="44.05051" lon="6.98808">
        <ele>1501.5999755859</ele>
        <time>2022-08-20T11:48:11.000Z</time>
      </trkpt>
      <trkpt lat="44.05054" lon="6.98809">
        <ele>1500.8000488281</ele>
        <time>2022-08-20T11:48:12.000Z</time>
      </trkpt>
      <trkpt lat="44.05056" lon="6.98808">
        <ele>1499.5999755859</ele>
        <time>2022-08-20T11:48:13.000Z</time>
      </trkpt>
      <trkpt lat="44.0506" lon="6.98803">
        <ele>1498.4000244141</ele>
        <time>2022-08-20T11:48:15.000Z</time>
      </trkpt>
      <trkpt lat="44.05068" lon="6.98795">
        <ele>1498.4000244141</ele>
        <time>2022-08-20T11:48:17.000Z</time>
      </trkpt>
      <trkpt lat="44.05074" lon="6.98792">
        <ele>1498.8000488281</ele>
        <time>2022-08-20T11:48:18.000Z</time>
      </trkpt>
      <trkpt lat="44.05097" lon="6.98778">
        <ele>1497</ele>
        <time>2022-08-20T11:48:22.000Z</time>
      </trkpt>
      <trkpt lat="44.05103" lon="6.98775">
        <ele>1496.4000244141</ele>
        <time>2022-08-20T11:48:23.000Z</time>
      </trkpt>
      <trkpt lat="44.0511" lon="6.98771">
        <ele>1496</ele>
        <time>2022-08-20T11:48:24.000Z</time>
      </trkpt>
      <trkpt lat="44.05122" lon="6.98764">
        <ele>1494.4000244141</ele>
        <time>2022-08-20T11:48:26.000Z</time>
      </trkpt>
      <trkpt lat="44.05133" lon="6.9876">
        <ele>1493</ele>
        <time>2022-08-20T11:48:28.000Z</time>
      </trkpt>
      <trkpt lat="44.05145" lon="6.98759">
        <ele>1491.8000488281</ele>
        <time>2022-08-20T11:48:30.000Z</time>
      </trkpt>
      <trkpt lat="44.05153" lon="6.9876">
        <ele>1490.1999511719</ele>
        <time>2022-08-20T11:48:32.000Z</time>
      </trkpt>
      <trkpt lat="44.05161" lon="6.98754">
        <ele>1488.4000244141</ele>
        <time>2022-08-20T11:48:34.000Z</time>
      </trkpt>
      <trkpt lat="44.05167" lon="6.9875">
        <ele>1487.4000244141</ele>
        <time>2022-08-20T11:48:35.000Z</time>
      </trkpt>
      <trkpt lat="44.05178" lon="6.98748">
        <ele>1485.5999755859</ele>
        <time>2022-08-20T11:48:37.000Z</time>
      </trkpt>
      <trkpt lat="44.05187" lon="6.98751">
        <ele>1484</ele>
        <time>2022-08-20T11:48:39.000Z</time>
      </trkpt>
      <trkpt lat="44.05195" lon="6.98762">
        <ele>1482.5999755859</ele>
        <time>2022-08-20T11:48:41.000Z</time>
      </trkpt>
      <trkpt lat="44.05199" lon="6.98769">
        <ele>1482.1999511719</ele>
        <time>2022-08-20T11:48:42.000Z</time>
      </trkpt>
      <trkpt lat="44.05202" lon="6.98775">
        <ele>1482</ele>
        <time>2022-08-20T11:48:43.000Z</time>
      </trkpt>
      <trkpt lat="44.05205" lon="6.98781">
        <ele>1481.4000244141</ele>
        <time>2022-08-20T11:48:44.000Z</time>
      </trkpt>
      <trkpt lat="44.05212" lon="6.98793">
        <ele>1480.5999755859</ele>
        <time>2022-08-20T11:48:46.000Z</time>
      </trkpt>
      <trkpt lat="44.05215" lon="6.98799">
        <ele>1480.1999511719</ele>
        <time>2022-08-20T11:48:47.000Z</time>
      </trkpt>
      <trkpt lat="44.05217" lon="6.98808">
        <ele>1479</ele>
        <time>2022-08-20T11:48:48.000Z</time>
      </trkpt>
      <trkpt lat="44.05218" lon="6.98814">
        <ele>1477.8000488281</ele>
        <time>2022-08-20T11:48:49.000Z</time>
      </trkpt>
      <trkpt lat="44.05219" lon="6.9882">
        <ele>1476.8000488281</ele>
        <time>2022-08-20T11:48:50.000Z</time>
      </trkpt>
      <trkpt lat="44.05219" lon="6.98824">
        <ele>1475.5999755859</ele>
        <time>2022-08-20T11:48:51.000Z</time>
      </trkpt>
      <trkpt lat="44.05221" lon="6.98828">
        <ele>1474.8000488281</ele>
        <time>2022-08-20T11:48:52.000Z</time>
      </trkpt>
      <trkpt lat="44.05223" lon="6.98833">
        <ele>1474</ele>
        <time>2022-08-20T11:48:53.000Z</time>
      </trkpt>
      <trkpt lat="44.05228" lon="6.98838">
        <ele>1473.4000244141</ele>
        <time>2022-08-20T11:48:55.000Z</time>
      </trkpt>
      <trkpt lat="44.05227" lon="6.98837">
        <ele>1473</ele>
        <time>2022-08-20T11:48:57.000Z</time>
      </trkpt>
      <trkpt lat="44.05227" lon="6.98837">
        <ele>1472.8000488281</ele>
        <time>2022-08-20T11:48:58.000Z</time>
      </trkpt>
      <trkpt lat="44.05229" lon="6.98839">
        <ele>1472.8000488281</ele>
        <time>2022-08-20T11:49:11.000Z</time>
      </trkpt>
      <trkpt lat="44.0523" lon="6.9884">
        <ele>1472.8000488281</ele>
        <time>2022-08-20T11:49:17.000Z</time>
      </trkpt>
      <trkpt lat="44.05234" lon="6.98845">
        <ele>1472.8000488281</ele>
        <time>2022-08-20T11:49:34.000Z</time>
      </trkpt>
      <trkpt lat="44.0525" lon="6.98858">
        <ele>1471.8000488281</ele>
        <time>2022-08-20T11:49:38.000Z</time>
      </trkpt>
      <trkpt lat="44.0526" lon="6.98859">
        <ele>1470.4000244141</ele>
        <time>2022-08-20T11:49:40.000Z</time>
      </trkpt>
      <trkpt lat="44.05264" lon="6.98858">
        <ele>1469.5999755859</ele>
        <time>2022-08-20T11:49:41.000Z</time>
      </trkpt>
      <trkpt lat="44.05269" lon="6.98856">
        <ele>1468.8000488281</ele>
        <time>2022-08-20T11:49:42.000Z</time>
      </trkpt>
      <trkpt lat="44.05276" lon="6.98859">
        <ele>1466.5999755859</ele>
        <time>2022-08-20T11:49:44.000Z</time>
      </trkpt>
      <trkpt lat="44.0528" lon="6.9886">
        <ele>1465.5999755859</ele>
        <time>2022-08-20T11:49:45.000Z</time>
      </trkpt>
      <trkpt lat="44.05282" lon="6.98864">
        <ele>1464.4000244141</ele>
        <time>2022-08-20T11:49:46.000Z</time>
      </trkpt>
      <trkpt lat="44.05284" lon="6.98865">
        <ele>1463.1999511719</ele>
        <time>2022-08-20T11:49:47.000Z</time>
      </trkpt>
      <trkpt lat="44.05286" lon="6.98869">
        <ele>1462.1999511719</ele>
        <time>2022-08-20T11:49:48.000Z</time>
      </trkpt>
      <trkpt lat="44.05289" lon="6.98874">
        <ele>1461.8000488281</ele>
        <time>2022-08-20T11:49:49.000Z</time>
      </trkpt>
      <trkpt lat="44.05296" lon="6.98881">
        <ele>1460.5999755859</ele>
        <time>2022-08-20T11:49:52.000Z</time>
      </trkpt>
      <trkpt lat="44.05297" lon="6.98881">
        <ele>1459.4000244141</ele>
        <time>2022-08-20T11:49:55.000Z</time>
      </trkpt>
      <trkpt lat="44.05298" lon="6.98882">
        <ele>1459.1999511719</ele>
        <time>2022-08-20T11:49:56.000Z</time>
      </trkpt>
      <trkpt lat="44.05298" lon="6.98882">
        <ele>1458.5999755859</ele>
        <time>2022-08-20T11:49:57.000Z</time>
      </trkpt>
      <trkpt lat="44.05299" lon="6.98882">
        <ele>1458.4000244141</ele>
        <time>2022-08-20T11:49:58.000Z</time>
      </trkpt>
      <trkpt lat="44.05301" lon="6.98881">
        <ele>1458.8000488281</ele>
        <time>2022-08-20T11:50:02.000Z</time>
      </trkpt>
      <trkpt lat="44.05302" lon="6.9888">
        <ele>1459.4000244141</ele>
        <time>2022-08-20T11:50:04.000Z</time>
      </trkpt>
      <trkpt lat="44.05303" lon="6.98879">
        <ele>1459.5999755859</ele>
        <time>2022-08-20T11:50:05.000Z</time>
      </trkpt>
      <trkpt lat="44.05307" lon="6.98878">
        <ele>1459.8000488281</ele>
        <time>2022-08-20T11:50:08.000Z</time>
      </trkpt>
      <trkpt lat="44.05311" lon="6.98875">
        <ele>1460</ele>
        <time>2022-08-20T11:50:11.000Z</time>
      </trkpt>
      <trkpt lat="44.05316" lon="6.98875">
        <ele>1460.1999511719</ele>
        <time>2022-08-20T11:50:12.000Z</time>
      </trkpt>
      <trkpt lat="44.05323" lon="6.98867">
        <ele>1460.4000244141</ele>
        <time>2022-08-20T11:50:14.000Z</time>
      </trkpt>
      <trkpt lat="44.05331" lon="6.98857">
        <ele>1459.8000488281</ele>
        <time>2022-08-20T11:50:16.000Z</time>
      </trkpt>
      <trkpt lat="44.05341" lon="6.98844">
        <ele>1458</ele>
        <time>2022-08-20T11:50:19.000Z</time>
      </trkpt>
      <trkpt lat="44.05347" lon="6.98835">
        <ele>1456.5999755859</ele>
        <time>2022-08-20T11:50:21.000Z</time>
      </trkpt>
      <trkpt lat="44.05353" lon="6.98824">
        <ele>1455</ele>
        <time>2022-08-20T11:50:23.000Z</time>
      </trkpt>
      <trkpt lat="44.0536" lon="6.98817">
        <ele>1453.4000244141</ele>
        <time>2022-08-20T11:50:25.000Z</time>
      </trkpt>
      <trkpt lat="44.05363" lon="6.98814">
        <ele>1452.8000488281</ele>
        <time>2022-08-20T11:50:26.000Z</time>
      </trkpt>
      <trkpt lat="44.05364" lon="6.98812">
        <ele>1452.1999511719</ele>
        <time>2022-08-20T11:50:27.000Z</time>
      </trkpt>
      <trkpt lat="44.05366" lon="6.98808">
        <ele>1450.4000244141</ele>
        <time>2022-08-20T11:50:29.000Z</time>
      </trkpt>
      <trkpt lat="44.05369" lon="6.98804">
        <ele>1448.8000488281</ele>
        <time>2022-08-20T11:50:31.000Z</time>
      </trkpt>
      <trkpt lat="44.0537" lon="6.98801">
        <ele>1448.1999511719</ele>
        <time>2022-08-20T11:50:32.000Z</time>
      </trkpt>
      <trkpt lat="44.05371" lon="6.98799">
        <ele>1447.5999755859</ele>
        <time>2022-08-20T11:50:33.000Z</time>
      </trkpt>
      <trkpt lat="44.05381" lon="6.98789">
        <ele>1446.8000488281</ele>
        <time>2022-08-20T11:50:36.000Z</time>
      </trkpt>
      <trkpt lat="44.05383" lon="6.98787">
        <ele>1446.4000244141</ele>
        <time>2022-08-20T11:50:37.000Z</time>
      </trkpt>
      <trkpt lat="44.05394" lon="6.98778">
        <ele>1444.8000488281</ele>
        <time>2022-08-20T11:50:40.000Z</time>
      </trkpt>
      <trkpt lat="44.05405" lon="6.98773">
        <ele>1443</ele>
        <time>2022-08-20T11:50:42.000Z</time>
      </trkpt>
      <trkpt lat="44.05415" lon="6.98767">
        <ele>1441</ele>
        <time>2022-08-20T11:50:44.000Z</time>
      </trkpt>
      <trkpt lat="44.0542" lon="6.98766">
        <ele>1440.4000244141</ele>
        <time>2022-08-20T11:50:45.000Z</time>
      </trkpt>
      <trkpt lat="44.05431" lon="6.9876">
        <ele>1439.5999755859</ele>
        <time>2022-08-20T11:50:47.000Z</time>
      </trkpt>
      <trkpt lat="44.05441" lon="6.98751">
        <ele>1439.4000244141</ele>
        <time>2022-08-20T11:50:49.000Z</time>
      </trkpt>
      <trkpt lat="44.05453" lon="6.98741">
        <ele>1438.5999755859</ele>
        <time>2022-08-20T11:50:51.000Z</time>
      </trkpt>
      <trkpt lat="44.05465" lon="6.98731">
        <ele>1437</ele>
        <time>2022-08-20T11:50:53.000Z</time>
      </trkpt>
      <trkpt lat="44.05472" lon="6.98726">
        <ele>1435.8000488281</ele>
        <time>2022-08-20T11:50:54.000Z</time>
      </trkpt>
      <trkpt lat="44.05483" lon="6.98716">
        <ele>1434.4000244141</ele>
        <time>2022-08-20T11:50:56.000Z</time>
      </trkpt>
      <trkpt lat="44.05493" lon="6.98705">
        <ele>1433.4000244141</ele>
        <time>2022-08-20T11:50:58.000Z</time>
      </trkpt>
      <trkpt lat="44.05499" lon="6.98701">
        <ele>1432.4000244141</ele>
        <time>2022-08-20T11:50:59.000Z</time>
      </trkpt>
      <trkpt lat="44.05504" lon="6.98697">
        <ele>1431.5999755859</ele>
        <time>2022-08-20T11:51:00.000Z</time>
      </trkpt>
      <trkpt lat="44.05507" lon="6.98694">
        <ele>1430.5999755859</ele>
        <time>2022-08-20T11:51:01.000Z</time>
      </trkpt>
      <trkpt lat="44.0551" lon="6.9869">
        <ele>1430.4000244141</ele>
        <time>2022-08-20T11:51:02.000Z</time>
      </trkpt>
      <trkpt lat="44.05519" lon="6.98683">
        <ele>1428.8000488281</ele>
        <time>2022-08-20T11:51:04.000Z</time>
      </trkpt>
      <trkpt lat="44.05525" lon="6.98681">
        <ele>1427.8000488281</ele>
        <time>2022-08-20T11:51:05.000Z</time>
      </trkpt>
      <trkpt lat="44.05529" lon="6.98676">
        <ele>1427.5999755859</ele>
        <time>2022-08-20T11:51:06.000Z</time>
      </trkpt>
      <trkpt lat="44.05533" lon="6.98672">
        <ele>1426.5999755859</ele>
        <time>2022-08-20T11:51:07.000Z</time>
      </trkpt>
      <trkpt lat="44.05539" lon="6.9867">
        <ele>1425.5999755859</ele>
        <time>2022-08-20T11:51:08.000Z</time>
      </trkpt>
      <trkpt lat="44.05548" lon="6.98667">
        <ele>1423.5999755859</ele>
        <time>2022-08-20T11:51:10.000Z</time>
      </trkpt>
      <trkpt lat="44.05557" lon="6.98669">
        <ele>1422</ele>
        <time>2022-08-20T11:51:12.000Z</time>
      </trkpt>
      <trkpt lat="44.05561" lon="6.9867">
        <ele>1421.5999755859</ele>
        <time>2022-08-20T11:51:13.000Z</time>
      </trkpt>
      <trkpt lat="44.05564" lon="6.9867">
        <ele>1420.8000488281</ele>
        <time>2022-08-20T11:51:14.000Z</time>
      </trkpt>
      <trkpt lat="44.05567" lon="6.98671">
        <ele>1419.8000488281</ele>
        <time>2022-08-20T11:51:15.000Z</time>
      </trkpt>
      <trkpt lat="44.0557" lon="6.9867">
        <ele>1418.4000244141</ele>
        <time>2022-08-20T11:51:17.000Z</time>
      </trkpt>
      <trkpt lat="44.05572" lon="6.9867">
        <ele>1417.1999511719</ele>
        <time>2022-08-20T11:51:18.000Z</time>
      </trkpt>
      <trkpt lat="44.05574" lon="6.98671">
        <ele>1416.8000488281</ele>
        <time>2022-08-20T11:51:19.000Z</time>
      </trkpt>
      <trkpt lat="44.0558" lon="6.98673">
        <ele>1416.1999511719</ele>
        <time>2022-08-20T11:51:21.000Z</time>
      </trkpt>
      <trkpt lat="44.05586" lon="6.98675">
        <ele>1415.4000244141</ele>
        <time>2022-08-20T11:51:22.000Z</time>
      </trkpt>
      <trkpt lat="44.05589" lon="6.98679">
        <ele>1415</ele>
        <time>2022-08-20T11:51:23.000Z</time>
      </trkpt>
      <trkpt lat="44.05588" lon="6.98678">
        <ele>1413.4000244141</ele>
        <time>2022-08-20T11:51:25.000Z</time>
      </trkpt>
      <trkpt lat="44.0559" lon="6.98679">
        <ele>1412</ele>
        <time>2022-08-20T11:51:27.000Z</time>
      </trkpt>
      <trkpt lat="44.05591" lon="6.98679">
        <ele>1410.5999755859</ele>
        <time>2022-08-20T11:51:31.000Z</time>
      </trkpt>
      <trkpt lat="44.05591" lon="6.98679">
        <ele>1410.4000244141</ele>
        <time>2022-08-20T11:51:32.000Z</time>
      </trkpt>
      <trkpt lat="44.05592" lon="6.9868">
        <ele>1410.5999755859</ele>
        <time>2022-08-20T11:51:40.000Z</time>
      </trkpt>
      <trkpt lat="44.05598" lon="6.98685">
        <ele>1410.8000488281</ele>
        <time>2022-08-20T11:51:43.000Z</time>
      </trkpt>
      <trkpt lat="44.05606" lon="6.98695">
        <ele>1409.1999511719</ele>
        <time>2022-08-20T11:51:47.000Z</time>
      </trkpt>
      <trkpt lat="44.05612" lon="6.98699">
        <ele>1408</ele>
        <time>2022-08-20T11:51:49.000Z</time>
      </trkpt>
      <trkpt lat="44.05617" lon="6.98705">
        <ele>1406.4000244141</ele>
        <time>2022-08-20T11:51:51.000Z</time>
      </trkpt>
      <trkpt lat="44.05621" lon="6.98714">
        <ele>1404.8000488281</ele>
        <time>2022-08-20T11:51:53.000Z</time>
      </trkpt>
      <trkpt lat="44.05627" lon="6.98722">
        <ele>1403.8000488281</ele>
        <time>2022-08-20T11:51:55.000Z</time>
      </trkpt>
      <trkpt lat="44.05639" lon="6.98724">
        <ele>1403</ele>
        <time>2022-08-20T11:51:58.000Z</time>
      </trkpt>
      <trkpt lat="44.05643" lon="6.98725">
        <ele>1402.5999755859</ele>
        <time>2022-08-20T11:51:59.000Z</time>
      </trkpt>
      <trkpt lat="44.05653" lon="6.98728">
        <ele>1402</ele>
        <time>2022-08-20T11:52:01.000Z</time>
      </trkpt>
      <trkpt lat="44.05657" lon="6.98729">
        <ele>1401.8000488281</ele>
        <time>2022-08-20T11:52:02.000Z</time>
      </trkpt>
      <trkpt lat="44.05672" lon="6.98731">
        <ele>1402.1999511719</ele>
        <time>2022-08-20T11:52:06.000Z</time>
      </trkpt>
      <trkpt lat="44.05681" lon="6.98729">
        <ele>1401.8000488281</ele>
        <time>2022-08-20T11:52:08.000Z</time>
      </trkpt>
      <trkpt lat="44.05684" lon="6.9873">
        <ele>1401.1999511719</ele>
        <time>2022-08-20T11:52:09.000Z</time>
      </trkpt>
      <trkpt lat="44.05689" lon="6.98731">
        <ele>1400.5999755859</ele>
        <time>2022-08-20T11:52:10.000Z</time>
      </trkpt>
      <trkpt lat="44.05691" lon="6.98731">
        <ele>1399.8000488281</ele>
        <time>2022-08-20T11:52:11.000Z</time>
      </trkpt>
      <trkpt lat="44.05693" lon="6.98729">
        <ele>1399.1999511719</ele>
        <time>2022-08-20T11:52:12.000Z</time>
      </trkpt>
      <trkpt lat="44.05694" lon="6.98728">
        <ele>1398.5999755859</ele>
        <time>2022-08-20T11:52:13.000Z</time>
      </trkpt>
      <trkpt lat="44.05702" lon="6.98717">
        <ele>1397.4000244141</ele>
        <time>2022-08-20T11:52:17.000Z</time>
      </trkpt>
      <trkpt lat="44.05705" lon="6.98716">
        <ele>1397.4000244141</ele>
        <time>2022-08-20T11:52:18.000Z</time>
      </trkpt>
      <trkpt lat="44.05711" lon="6.98712">
        <ele>1396.1999511719</ele>
        <time>2022-08-20T11:52:21.000Z</time>
      </trkpt>
      <trkpt lat="44.05713" lon="6.98715">
        <ele>1395.1999511719</ele>
        <time>2022-08-20T11:52:23.000Z</time>
      </trkpt>
      <trkpt lat="44.05714" lon="6.98716">
        <ele>1394.8000488281</ele>
        <time>2022-08-20T11:52:24.000Z</time>
      </trkpt>
      <trkpt lat="44.05715" lon="6.98715">
        <ele>1394</ele>
        <time>2022-08-20T11:52:25.000Z</time>
      </trkpt>
      <trkpt lat="44.05718" lon="6.98712">
        <ele>1393.1999511719</ele>
        <time>2022-08-20T11:52:27.000Z</time>
      </trkpt>
      <trkpt lat="44.05719" lon="6.98709">
        <ele>1393</ele>
        <time>2022-08-20T11:52:28.000Z</time>
      </trkpt>
      <trkpt lat="44.0572" lon="6.98704">
        <ele>1393</ele>
        <time>2022-08-20T11:52:29.000Z</time>
      </trkpt>
      <trkpt lat="44.05722" lon="6.98689">
        <ele>1392.8000488281</ele>
        <time>2022-08-20T11:52:32.000Z</time>
      </trkpt>
      <trkpt lat="44.05727" lon="6.98676">
        <ele>1393.1999511719</ele>
        <time>2022-08-20T11:52:35.000Z</time>
      </trkpt>
      <trkpt lat="44.05734" lon="6.98662">
        <ele>1393.8000488281</ele>
        <time>2022-08-20T11:52:38.000Z</time>
      </trkpt>
      <trkpt lat="44.05738" lon="6.98658">
        <ele>1393.8000488281</ele>
        <time>2022-08-20T11:52:39.000Z</time>
      </trkpt>
      <trkpt lat="44.05753" lon="6.98648">
        <ele>1393.1999511719</ele>
        <time>2022-08-20T11:52:42.000Z</time>
      </trkpt>
      <trkpt lat="44.05761" lon="6.98642">
        <ele>1391.8000488281</ele>
        <time>2022-08-20T11:52:44.000Z</time>
      </trkpt>
      <trkpt lat="44.05766" lon="6.98638">
        <ele>1391.4000244141</ele>
        <time>2022-08-20T11:52:45.000Z</time>
      </trkpt>
      <trkpt lat="44.05775" lon="6.98631">
        <ele>1390.8000488281</ele>
        <time>2022-08-20T11:52:47.000Z</time>
      </trkpt>
      <trkpt lat="44.05785" lon="6.98625">
        <ele>1390.1999511719</ele>
        <time>2022-08-20T11:52:49.000Z</time>
      </trkpt>
      <trkpt lat="44.05794" lon="6.98619">
        <ele>1389.4000244141</ele>
        <time>2022-08-20T11:52:51.000Z</time>
      </trkpt>
      <trkpt lat="44.05805" lon="6.98614">
        <ele>1388.1999511719</ele>
        <time>2022-08-20T11:52:53.000Z</time>
      </trkpt>
      <trkpt lat="44.05814" lon="6.98609">
        <ele>1387</ele>
        <time>2022-08-20T11:52:55.000Z</time>
      </trkpt>
      <trkpt lat="44.05824" lon="6.98604">
        <ele>1385.8000488281</ele>
        <time>2022-08-20T11:52:57.000Z</time>
      </trkpt>
      <trkpt lat="44.05833" lon="6.986">
        <ele>1384.5999755859</ele>
        <time>2022-08-20T11:52:59.000Z</time>
      </trkpt>
      <trkpt lat="44.05837" lon="6.98595">
        <ele>1382.8000488281</ele>
        <time>2022-08-20T11:53:01.000Z</time>
      </trkpt>
      <trkpt lat="44.05839" lon="6.98592">
        <ele>1382.1999511719</ele>
        <time>2022-08-20T11:53:02.000Z</time>
      </trkpt>
      <trkpt lat="44.05843" lon="6.98589">
        <ele>1381.1999511719</ele>
        <time>2022-08-20T11:53:03.000Z</time>
      </trkpt>
      <trkpt lat="44.05853" lon="6.98581">
        <ele>1380</ele>
        <time>2022-08-20T11:53:06.000Z</time>
      </trkpt>
      <trkpt lat="44.05858" lon="6.98578">
        <ele>1379.1999511719</ele>
        <time>2022-08-20T11:53:08.000Z</time>
      </trkpt>
      <trkpt lat="44.05859" lon="6.98577">
        <ele>1378.4000244141</ele>
        <time>2022-08-20T11:53:09.000Z</time>
      </trkpt>
      <trkpt lat="44.05864" lon="6.98568">
        <ele>1378.4000244141</ele>
        <time>2022-08-20T11:53:12.000Z</time>
      </trkpt>
      <trkpt lat="44.05875" lon="6.98554">
        <ele>1377.4000244141</ele>
        <time>2022-08-20T11:53:16.000Z</time>
      </trkpt>
      <trkpt lat="44.05881" lon="6.98547">
        <ele>1376.1999511719</ele>
        <time>2022-08-20T11:53:18.000Z</time>
      </trkpt>
      <trkpt lat="44.05887" lon="6.9854">
        <ele>1374.5999755859</ele>
        <time>2022-08-20T11:53:20.000Z</time>
      </trkpt>
      <trkpt lat="44.0589" lon="6.98538">
        <ele>1373.4000244141</ele>
        <time>2022-08-20T11:53:21.000Z</time>
      </trkpt>
      <trkpt lat="44.05898" lon="6.98533">
        <ele>1371.8000488281</ele>
        <time>2022-08-20T11:53:23.000Z</time>
      </trkpt>
      <trkpt lat="44.05907" lon="6.98527">
        <ele>1370.5999755859</ele>
        <time>2022-08-20T11:53:25.000Z</time>
      </trkpt>
      <trkpt lat="44.05911" lon="6.98525">
        <ele>1369.1999511719</ele>
        <time>2022-08-20T11:53:26.000Z</time>
      </trkpt>
      <trkpt lat="44.05916" lon="6.98524">
        <ele>1368</ele>
        <time>2022-08-20T11:53:27.000Z</time>
      </trkpt>
      <trkpt lat="44.05923" lon="6.9852">
        <ele>1366.8000488281</ele>
        <time>2022-08-20T11:53:29.000Z</time>
      </trkpt>
      <trkpt lat="44.05928" lon="6.98517">
        <ele>1366.1999511719</ele>
        <time>2022-08-20T11:53:30.000Z</time>
      </trkpt>
      <trkpt lat="44.05936" lon="6.98508">
        <ele>1366.4000244141</ele>
        <time>2022-08-20T11:53:32.000Z</time>
      </trkpt>
      <trkpt lat="44.0594" lon="6.98503">
        <ele>1365.5999755859</ele>
        <time>2022-08-20T11:53:33.000Z</time>
      </trkpt>
      <trkpt lat="44.05944" lon="6.98498">
        <ele>1364.5999755859</ele>
        <time>2022-08-20T11:53:34.000Z</time>
      </trkpt>
      <trkpt lat="44.05949" lon="6.98493">
        <ele>1363.8000488281</ele>
        <time>2022-08-20T11:53:35.000Z</time>
      </trkpt>
      <trkpt lat="44.05954" lon="6.98491">
        <ele>1362.5999755859</ele>
        <time>2022-08-20T11:53:36.000Z</time>
      </trkpt>
      <trkpt lat="44.05958" lon="6.98488">
        <ele>1361.1999511719</ele>
        <time>2022-08-20T11:53:37.000Z</time>
      </trkpt>
      <trkpt lat="44.05962" lon="6.98485">
        <ele>1360.5999755859</ele>
        <time>2022-08-20T11:53:38.000Z</time>
      </trkpt>
      <trkpt lat="44.05967" lon="6.98483">
        <ele>1360</ele>
        <time>2022-08-20T11:53:39.000Z</time>
      </trkpt>
      <trkpt lat="44.05973" lon="6.98482">
        <ele>1359</ele>
        <time>2022-08-20T11:53:40.000Z</time>
      </trkpt>
      <trkpt lat="44.05978" lon="6.9848">
        <ele>1358.1999511719</ele>
        <time>2022-08-20T11:53:41.000Z</time>
      </trkpt>
      <trkpt lat="44.05984" lon="6.98478">
        <ele>1357.5999755859</ele>
        <time>2022-08-20T11:53:42.000Z</time>
      </trkpt>
      <trkpt lat="44.05989" lon="6.98477">
        <ele>1356.5999755859</ele>
        <time>2022-08-20T11:53:43.000Z</time>
      </trkpt>
      <trkpt lat="44.06" lon="6.98479">
        <ele>1355.5999755859</ele>
        <time>2022-08-20T11:53:45.000Z</time>
      </trkpt>
      <trkpt lat="44.06005" lon="6.98479">
        <ele>1355</ele>
        <time>2022-08-20T11:53:46.000Z</time>
      </trkpt>
      <trkpt lat="44.0601" lon="6.9848">
        <ele>1354.1999511719</ele>
        <time>2022-08-20T11:53:47.000Z</time>
      </trkpt>
      <trkpt lat="44.06032" lon="6.98484">
        <ele>1353.1999511719</ele>
        <time>2022-08-20T11:53:51.000Z</time>
      </trkpt>
      <trkpt lat="44.06043" lon="6.98489">
        <ele>1353</ele>
        <time>2022-08-20T11:53:53.000Z</time>
      </trkpt>
      <trkpt lat="44.06054" lon="6.98492">
        <ele>1351.8000488281</ele>
        <time>2022-08-20T11:53:55.000Z</time>
      </trkpt>
      <trkpt lat="44.0607" lon="6.98499">
        <ele>1350.5999755859</ele>
        <time>2022-08-20T11:53:58.000Z</time>
      </trkpt>
      <trkpt lat="44.06074" lon="6.985">
        <ele>1350.8000488281</ele>
        <time>2022-08-20T11:53:59.000Z</time>
      </trkpt>
      <trkpt lat="44.06092" lon="6.98508">
        <ele>1350.4000244141</ele>
        <time>2022-08-20T11:54:03.000Z</time>
      </trkpt>
      <trkpt lat="44.06096" lon="6.98509">
        <ele>1350.1999511719</ele>
        <time>2022-08-20T11:54:04.000Z</time>
      </trkpt>
      <trkpt lat="44.06108" lon="6.9851">
        <ele>1349.4000244141</ele>
        <time>2022-08-20T11:54:07.000Z</time>
      </trkpt>
      <trkpt lat="44.0611" lon="6.98509">
        <ele>1349</ele>
        <time>2022-08-20T11:54:08.000Z</time>
      </trkpt>
      <trkpt lat="44.06114" lon="6.98503">
        <ele>1348</ele>
        <time>2022-08-20T11:54:10.000Z</time>
      </trkpt>
      <trkpt lat="44.06119" lon="6.98497">
        <ele>1346.8000488281</ele>
        <time>2022-08-20T11:54:12.000Z</time>
      </trkpt>
      <trkpt lat="44.06122" lon="6.98494">
        <ele>1345.5999755859</ele>
        <time>2022-08-20T11:54:13.000Z</time>
      </trkpt>
      <trkpt lat="44.06125" lon="6.98492">
        <ele>1344.5999755859</ele>
        <time>2022-08-20T11:54:14.000Z</time>
      </trkpt>
      <trkpt lat="44.06132" lon="6.98487">
        <ele>1343.1999511719</ele>
        <time>2022-08-20T11:54:16.000Z</time>
      </trkpt>
      <trkpt lat="44.06136" lon="6.98486">
        <ele>1342.8000488281</ele>
        <time>2022-08-20T11:54:17.000Z</time>
      </trkpt>
      <trkpt lat="44.06149" lon="6.98479">
        <ele>1341.8000488281</ele>
        <time>2022-08-20T11:54:20.000Z</time>
      </trkpt>
      <trkpt lat="44.06153" lon="6.98478">
        <ele>1342</ele>
        <time>2022-08-20T11:54:21.000Z</time>
      </trkpt>
      <trkpt lat="44.06164" lon="6.9847">
        <ele>1340.5999755859</ele>
        <time>2022-08-20T11:54:24.000Z</time>
      </trkpt>
      <trkpt lat="44.06168" lon="6.98465">
        <ele>1340.5999755859</ele>
        <time>2022-08-20T11:54:25.000Z</time>
      </trkpt>
      <trkpt lat="44.06172" lon="6.98461">
        <ele>1339.4000244141</ele>
        <time>2022-08-20T11:54:26.000Z</time>
      </trkpt>
      <trkpt lat="44.06178" lon="6.98457">
        <ele>1339</ele>
        <time>2022-08-20T11:54:27.000Z</time>
      </trkpt>
      <trkpt lat="44.06187" lon="6.98453">
        <ele>1337.8000488281</ele>
        <time>2022-08-20T11:54:29.000Z</time>
      </trkpt>
      <trkpt lat="44.06208" lon="6.98448">
        <ele>1336.5999755859</ele>
        <time>2022-08-20T11:54:34.000Z</time>
      </trkpt>
      <trkpt lat="44.06213" lon="6.98449">
        <ele>1336.1999511719</ele>
        <time>2022-08-20T11:54:35.000Z</time>
      </trkpt>
      <trkpt lat="44.06219" lon="6.98452">
        <ele>1335.5999755859</ele>
        <time>2022-08-20T11:54:36.000Z</time>
      </trkpt>
      <trkpt lat="44.06224" lon="6.98458">
        <ele>1335.1999511719</ele>
        <time>2022-08-20T11:54:37.000Z</time>
      </trkpt>
      <trkpt lat="44.06229" lon="6.98463">
        <ele>1334</ele>
        <time>2022-08-20T11:54:38.000Z</time>
      </trkpt>
      <trkpt lat="44.06234" lon="6.98468">
        <ele>1333</ele>
        <time>2022-08-20T11:54:39.000Z</time>
      </trkpt>
      <trkpt lat="44.06239" lon="6.98473">
        <ele>1332.1999511719</ele>
        <time>2022-08-20T11:54:40.000Z</time>
      </trkpt>
      <trkpt lat="44.06243" lon="6.98476">
        <ele>1331.1999511719</ele>
        <time>2022-08-20T11:54:41.000Z</time>
      </trkpt>
      <trkpt lat="44.06248" lon="6.98479">
        <ele>1330.4000244141</ele>
        <time>2022-08-20T11:54:42.000Z</time>
      </trkpt>
      <trkpt lat="44.06252" lon="6.98481">
        <ele>1329.5999755859</ele>
        <time>2022-08-20T11:54:43.000Z</time>
      </trkpt>
      <trkpt lat="44.06256" lon="6.98484">
        <ele>1329</ele>
        <time>2022-08-20T11:54:44.000Z</time>
      </trkpt>
      <trkpt lat="44.06259" lon="6.98486">
        <ele>1328.4000244141</ele>
        <time>2022-08-20T11:54:45.000Z</time>
      </trkpt>
      <trkpt lat="44.06263" lon="6.98487">
        <ele>1327.5999755859</ele>
        <time>2022-08-20T11:54:46.000Z</time>
      </trkpt>
      <trkpt lat="44.06268" lon="6.98488">
        <ele>1326.4000244141</ele>
        <time>2022-08-20T11:54:47.000Z</time>
      </trkpt>
      <trkpt lat="44.06278" lon="6.98493">
        <ele>1325.1999511719</ele>
        <time>2022-08-20T11:54:49.000Z</time>
      </trkpt>
      <trkpt lat="44.06283" lon="6.98497">
        <ele>1323.8000488281</ele>
        <time>2022-08-20T11:54:50.000Z</time>
      </trkpt>
      <trkpt lat="44.06289" lon="6.98507">
        <ele>1322.4000244141</ele>
        <time>2022-08-20T11:54:52.000Z</time>
      </trkpt>
      <trkpt lat="44.06294" lon="6.98514">
        <ele>1321</ele>
        <time>2022-08-20T11:54:54.000Z</time>
      </trkpt>
      <trkpt lat="44.063" lon="6.98519">
        <ele>1320.5999755859</ele>
        <time>2022-08-20T11:54:56.000Z</time>
      </trkpt>
      <trkpt lat="44.06304" lon="6.98522">
        <ele>1320</ele>
        <time>2022-08-20T11:54:57.000Z</time>
      </trkpt>
      <trkpt lat="44.06308" lon="6.98525">
        <ele>1319.4000244141</ele>
        <time>2022-08-20T11:54:58.000Z</time>
      </trkpt>
      <trkpt lat="44.06311" lon="6.98533">
        <ele>1318.1999511719</ele>
        <time>2022-08-20T11:55:00.000Z</time>
      </trkpt>
      <trkpt lat="44.06315" lon="6.98535">
        <ele>1317.1999511719</ele>
        <time>2022-08-20T11:55:02.000Z</time>
      </trkpt>
      <trkpt lat="44.06316" lon="6.98536">
        <ele>1315.8000488281</ele>
        <time>2022-08-20T11:55:04.000Z</time>
      </trkpt>
      <trkpt lat="44.06317" lon="6.98537">
        <ele>1314</ele>
        <time>2022-08-20T11:55:07.000Z</time>
      </trkpt>
      <trkpt lat="44.06317" lon="6.98537">
        <ele>1313.8000488281</ele>
        <time>2022-08-20T11:55:08.000Z</time>
      </trkpt>
      <trkpt lat="44.06316" lon="6.98536">
        <ele>1313.5999755859</ele>
        <time>2022-08-20T11:55:14.000Z</time>
      </trkpt>
      <trkpt lat="44.06314" lon="6.98527">
        <ele>1313.5999755859</ele>
        <time>2022-08-20T11:55:18.000Z</time>
      </trkpt>
      <trkpt lat="44.06315" lon="6.9852">
        <ele>1312.8000488281</ele>
        <time>2022-08-20T11:55:21.000Z</time>
      </trkpt>
      <trkpt lat="44.06317" lon="6.9852">
        <ele>1312.4000244141</ele>
        <time>2022-08-20T11:55:22.000Z</time>
      </trkpt>
      <trkpt lat="44.06318" lon="6.98523">
        <ele>1311.4000244141</ele>
        <time>2022-08-20T11:55:24.000Z</time>
      </trkpt>
      <trkpt lat="44.06322" lon="6.98525">
        <ele>1310.1999511719</ele>
        <time>2022-08-20T11:55:26.000Z</time>
      </trkpt>
      <trkpt lat="44.06322" lon="6.98521">
        <ele>1309</ele>
        <time>2022-08-20T11:55:30.000Z</time>
      </trkpt>
      <trkpt lat="44.0632" lon="6.98516">
        <ele>1308.1999511719</ele>
        <time>2022-08-20T11:55:32.000Z</time>
      </trkpt>
      <trkpt lat="44.06319" lon="6.98513">
        <ele>1307.5999755859</ele>
        <time>2022-08-20T11:55:33.000Z</time>
      </trkpt>
      <trkpt lat="44.0632" lon="6.98511">
        <ele>1307.1999511719</ele>
        <time>2022-08-20T11:55:34.000Z</time>
      </trkpt>
      <trkpt lat="44.06322" lon="6.98512">
        <ele>1306.4000244141</ele>
        <time>2022-08-20T11:55:36.000Z</time>
      </trkpt>
      <trkpt lat="44.06324" lon="6.98513">
        <ele>1306.1999511719</ele>
        <time>2022-08-20T11:55:37.000Z</time>
      </trkpt>
      <trkpt lat="44.06329" lon="6.98519">
        <ele>1305.4000244141</ele>
        <time>2022-08-20T11:55:40.000Z</time>
      </trkpt>
      <trkpt lat="44.06332" lon="6.98526">
        <ele>1304.8000488281</ele>
        <time>2022-08-20T11:55:42.000Z</time>
      </trkpt>
      <trkpt lat="44.06336" lon="6.98533">
        <ele>1304.1999511719</ele>
        <time>2022-08-20T11:55:44.000Z</time>
      </trkpt>
      <trkpt lat="44.06339" lon="6.98538">
        <ele>1303.4000244141</ele>
        <time>2022-08-20T11:55:46.000Z</time>
      </trkpt>
      <trkpt lat="44.06342" lon="6.98544">
        <ele>1302</ele>
        <time>2022-08-20T11:55:48.000Z</time>
      </trkpt>
      <trkpt lat="44.06345" lon="6.98548">
        <ele>1301</ele>
        <time>2022-08-20T11:55:50.000Z</time>
      </trkpt>
      <trkpt lat="44.06346" lon="6.9855">
        <ele>1300.4000244141</ele>
        <time>2022-08-20T11:55:51.000Z</time>
      </trkpt>
      <trkpt lat="44.06348" lon="6.98551">
        <ele>1299.5999755859</ele>
        <time>2022-08-20T11:55:52.000Z</time>
      </trkpt>
      <trkpt lat="44.0635" lon="6.98551">
        <ele>1299.1999511719</ele>
        <time>2022-08-20T11:55:53.000Z</time>
      </trkpt>
      <trkpt lat="44.06353" lon="6.98551">
        <ele>1298.8000488281</ele>
        <time>2022-08-20T11:55:54.000Z</time>
      </trkpt>
      <trkpt lat="44.06358" lon="6.98543">
        <ele>1298.5999755859</ele>
        <time>2022-08-20T11:55:57.000Z</time>
      </trkpt>
      <trkpt lat="44.0636" lon="6.98539">
        <ele>1298.4000244141</ele>
        <time>2022-08-20T11:55:58.000Z</time>
      </trkpt>
      <trkpt lat="44.06365" lon="6.98533">
        <ele>1298</ele>
        <time>2022-08-20T11:56:00.000Z</time>
      </trkpt>
      <trkpt lat="44.06371" lon="6.98527">
        <ele>1298.1999511719</ele>
        <time>2022-08-20T11:56:02.000Z</time>
      </trkpt>
      <trkpt lat="44.06378" lon="6.9852">
        <ele>1298</ele>
        <time>2022-08-20T11:56:04.000Z</time>
      </trkpt>
      <trkpt lat="44.06387" lon="6.98517">
        <ele>1297.4000244141</ele>
        <time>2022-08-20T11:56:06.000Z</time>
      </trkpt>
      <trkpt lat="44.06402" lon="6.98508">
        <ele>1297.5999755859</ele>
        <time>2022-08-20T11:56:10.000Z</time>
      </trkpt>
      <trkpt lat="44.0641" lon="6.98502">
        <ele>1297.5999755859</ele>
        <time>2022-08-20T11:56:12.000Z</time>
      </trkpt>
      <trkpt lat="44.06424" lon="6.98498">
        <ele>1296.8000488281</ele>
        <time>2022-08-20T11:56:15.000Z</time>
      </trkpt>
      <trkpt lat="44.06428" lon="6.98497">
        <ele>1296.4000244141</ele>
        <time>2022-08-20T11:56:16.000Z</time>
      </trkpt>
      <trkpt lat="44.06438" lon="6.98496">
        <ele>1295.4000244141</ele>
        <time>2022-08-20T11:56:18.000Z</time>
      </trkpt>
      <trkpt lat="44.06449" lon="6.98495">
        <ele>1293.8000488281</ele>
        <time>2022-08-20T11:56:20.000Z</time>
      </trkpt>
      <trkpt lat="44.06454" lon="6.98496">
        <ele>1293</ele>
        <time>2022-08-20T11:56:21.000Z</time>
      </trkpt>
      <trkpt lat="44.06459" lon="6.98495">
        <ele>1292.4000244141</ele>
        <time>2022-08-20T11:56:22.000Z</time>
      </trkpt>
      <trkpt lat="44.06468" lon="6.98496">
        <ele>1291.8000488281</ele>
        <time>2022-08-20T11:56:24.000Z</time>
      </trkpt>
      <trkpt lat="44.06473" lon="6.98496">
        <ele>1291.4000244141</ele>
        <time>2022-08-20T11:56:25.000Z</time>
      </trkpt>
      <trkpt lat="44.06478" lon="6.98496">
        <ele>1291.1999511719</ele>
        <time>2022-08-20T11:56:26.000Z</time>
      </trkpt>
      <trkpt lat="44.06488" lon="6.98498">
        <ele>1290.4000244141</ele>
        <time>2022-08-20T11:56:28.000Z</time>
      </trkpt>
      <trkpt lat="44.06506" lon="6.98503">
        <ele>1288.8000488281</ele>
        <time>2022-08-20T11:56:31.000Z</time>
      </trkpt>
      <trkpt lat="44.06518" lon="6.98509">
        <ele>1288.4000244141</ele>
        <time>2022-08-20T11:56:33.000Z</time>
      </trkpt>
      <trkpt lat="44.06525" lon="6.98511">
        <ele>1287.8000488281</ele>
        <time>2022-08-20T11:56:34.000Z</time>
      </trkpt>
      <trkpt lat="44.06538" lon="6.98519">
        <ele>1286.8000488281</ele>
        <time>2022-08-20T11:56:36.000Z</time>
      </trkpt>
      <trkpt lat="44.06547" lon="6.98527">
        <ele>1285.1999511719</ele>
        <time>2022-08-20T11:56:38.000Z</time>
      </trkpt>
      <trkpt lat="44.06556" lon="6.98526">
        <ele>1284.1999511719</ele>
        <time>2022-08-20T11:56:41.000Z</time>
      </trkpt>
      <trkpt lat="44.06559" lon="6.98528">
        <ele>1283.8000488281</ele>
        <time>2022-08-20T11:56:42.000Z</time>
      </trkpt>
      <trkpt lat="44.06569" lon="6.98532">
        <ele>1283</ele>
        <time>2022-08-20T11:56:45.000Z</time>
      </trkpt>
      <trkpt lat="44.06576" lon="6.98534">
        <ele>1282.5999755859</ele>
        <time>2022-08-20T11:56:47.000Z</time>
      </trkpt>
      <trkpt lat="44.06582" lon="6.98536">
        <ele>1281.5999755859</ele>
        <time>2022-08-20T11:56:49.000Z</time>
      </trkpt>
      <trkpt lat="44.06591" lon="6.98535">
        <ele>1280.1999511719</ele>
        <time>2022-08-20T11:56:51.000Z</time>
      </trkpt>
      <trkpt lat="44.06596" lon="6.98535">
        <ele>1279.4000244141</ele>
        <time>2022-08-20T11:56:52.000Z</time>
      </trkpt>
      <trkpt lat="44.06601" lon="6.98535">
        <ele>1278.8000488281</ele>
        <time>2022-08-20T11:56:53.000Z</time>
      </trkpt>
      <trkpt lat="44.06606" lon="6.98536">
        <ele>1277.8000488281</ele>
        <time>2022-08-20T11:56:54.000Z</time>
      </trkpt>
      <trkpt lat="44.06612" lon="6.98538">
        <ele>1276.4000244141</ele>
        <time>2022-08-20T11:56:55.000Z</time>
      </trkpt>
      <trkpt lat="44.06616" lon="6.98541">
        <ele>1275.5999755859</ele>
        <time>2022-08-20T11:56:56.000Z</time>
      </trkpt>
      <trkpt lat="44.06621" lon="6.98542">
        <ele>1275</ele>
        <time>2022-08-20T11:56:57.000Z</time>
      </trkpt>
      <trkpt lat="44.06631" lon="6.98547">
        <ele>1273.8000488281</ele>
        <time>2022-08-20T11:56:59.000Z</time>
      </trkpt>
      <trkpt lat="44.06642" lon="6.98554">
        <ele>1273</ele>
        <time>2022-08-20T11:57:01.000Z</time>
      </trkpt>
      <trkpt lat="44.06647" lon="6.98557">
        <ele>1271.8000488281</ele>
        <time>2022-08-20T11:57:02.000Z</time>
      </trkpt>
      <trkpt lat="44.06652" lon="6.98557">
        <ele>1270.4000244141</ele>
        <time>2022-08-20T11:57:03.000Z</time>
      </trkpt>
      <trkpt lat="44.06657" lon="6.98558">
        <ele>1270</ele>
        <time>2022-08-20T11:57:04.000Z</time>
      </trkpt>
      <trkpt lat="44.06666" lon="6.98561">
        <ele>1268.8000488281</ele>
        <time>2022-08-20T11:57:06.000Z</time>
      </trkpt>
      <trkpt lat="44.0667" lon="6.98563">
        <ele>1268.5999755859</ele>
        <time>2022-08-20T11:57:07.000Z</time>
      </trkpt>
      <trkpt lat="44.06675" lon="6.98564">
        <ele>1268.8000488281</ele>
        <time>2022-08-20T11:57:08.000Z</time>
      </trkpt>
      <trkpt lat="44.06683" lon="6.98568">
        <ele>1267.5999755859</ele>
        <time>2022-08-20T11:57:10.000Z</time>
      </trkpt>
      <trkpt lat="44.06687" lon="6.98569">
        <ele>1266.4000244141</ele>
        <time>2022-08-20T11:57:11.000Z</time>
      </trkpt>
      <trkpt lat="44.06697" lon="6.98568">
        <ele>1265.1999511719</ele>
        <time>2022-08-20T11:57:13.000Z</time>
      </trkpt>
      <trkpt lat="44.06702" lon="6.98568">
        <ele>1264.5999755859</ele>
        <time>2022-08-20T11:57:14.000Z</time>
      </trkpt>
      <trkpt lat="44.06713" lon="6.98568">
        <ele>1263.8000488281</ele>
        <time>2022-08-20T11:57:16.000Z</time>
      </trkpt>
      <trkpt lat="44.06719" lon="6.98569">
        <ele>1262.8000488281</ele>
        <time>2022-08-20T11:57:17.000Z</time>
      </trkpt>
      <trkpt lat="44.06724" lon="6.98569">
        <ele>1262.4000244141</ele>
        <time>2022-08-20T11:57:18.000Z</time>
      </trkpt>
      <trkpt lat="44.06733" lon="6.98567">
        <ele>1261.8000488281</ele>
        <time>2022-08-20T11:57:21.000Z</time>
      </trkpt>
      <trkpt lat="44.0674" lon="6.98563">
        <ele>1262</ele>
        <time>2022-08-20T11:57:25.000Z</time>
      </trkpt>
      <trkpt lat="44.06738" lon="6.98558">
        <ele>1261.5999755859</ele>
        <time>2022-08-20T11:57:28.000Z</time>
      </trkpt>
      <trkpt lat="44.0674" lon="6.98557">
        <ele>1261.4000244141</ele>
        <time>2022-08-20T11:57:29.000Z</time>
      </trkpt>
      <trkpt lat="44.06743" lon="6.98556">
        <ele>1260.5999755859</ele>
        <time>2022-08-20T11:57:31.000Z</time>
      </trkpt>
      <trkpt lat="44.06745" lon="6.98554">
        <ele>1260.1999511719</ele>
        <time>2022-08-20T11:57:33.000Z</time>
      </trkpt>
      <trkpt lat="44.06747" lon="6.98549">
        <ele>1260</ele>
        <time>2022-08-20T11:57:35.000Z</time>
      </trkpt>
      <trkpt lat="44.06749" lon="6.98545">
        <ele>1259.5999755859</ele>
        <time>2022-08-20T11:57:37.000Z</time>
      </trkpt>
      <trkpt lat="44.06747" lon="6.98539">
        <ele>1259.1999511719</ele>
        <time>2022-08-20T11:57:39.000Z</time>
      </trkpt>
      <trkpt lat="44.06746" lon="6.98537">
        <ele>1259.4000244141</ele>
        <time>2022-08-20T11:57:40.000Z</time>
      </trkpt>
      <trkpt lat="44.06748" lon="6.98532">
        <ele>1260.4000244141</ele>
        <time>2022-08-20T11:57:43.000Z</time>
      </trkpt>
      <trkpt lat="44.0675" lon="6.98533">
        <ele>1261</ele>
        <time>2022-08-20T11:57:44.000Z</time>
      </trkpt>
      <trkpt lat="44.06753" lon="6.98537">
        <ele>1261.5999755859</ele>
        <time>2022-08-20T11:57:46.000Z</time>
      </trkpt>
      <trkpt lat="44.06756" lon="6.98538">
        <ele>1261.8000488281</ele>
        <time>2022-08-20T11:57:48.000Z</time>
      </trkpt>
      <trkpt lat="44.06756" lon="6.98541">
        <ele>1262.4000244141</ele>
        <time>2022-08-20T11:57:53.000Z</time>
      </trkpt>
      <trkpt lat="44.06756" lon="6.98542">
        <ele>1262.4000244141</ele>
        <time>2022-08-20T11:58:03.000Z</time>
      </trkpt>
      <trkpt lat="44.06756" lon="6.98543">
        <ele>1261.8000488281</ele>
        <time>2022-08-20T11:58:13.000Z</time>
      </trkpt>
      <trkpt lat="44.06758" lon="6.98544">
        <ele>1261.8000488281</ele>
        <time>2022-08-20T11:58:29.000Z</time>
      </trkpt>
      <trkpt lat="44.06765" lon="6.98548">
        <ele>1262.4000244141</ele>
        <time>2022-08-20T11:58:34.000Z</time>
      </trkpt>
      <trkpt lat="44.06767" lon="6.98549">
        <ele>1262.4000244141</ele>
        <time>2022-08-20T11:58:35.000Z</time>
      </trkpt>
      <trkpt lat="44.06772" lon="6.98554">
        <ele>1262.5999755859</ele>
        <time>2022-08-20T11:58:38.000Z</time>
      </trkpt>
      <trkpt lat="44.06774" lon="6.98556">
        <ele>1262.5999755859</ele>
        <time>2022-08-20T11:58:39.000Z</time>
      </trkpt>
      <trkpt lat="44.06776" lon="6.98558">
        <ele>1262.8000488281</ele>
        <time>2022-08-20T11:58:40.000Z</time>
      </trkpt>
      <trkpt lat="44.06787" lon="6.98568">
        <ele>1263.1999511719</ele>
        <time>2022-08-20T11:58:46.000Z</time>
      </trkpt>
      <trkpt lat="44.06797" lon="6.98578">
        <ele>1263.8000488281</ele>
        <time>2022-08-20T11:58:52.000Z</time>
      </trkpt>
      <trkpt lat="44.06799" lon="6.9858">
        <ele>1263.8000488281</ele>
        <time>2022-08-20T11:58:53.000Z</time>
      </trkpt>
      <trkpt lat="44.06816" lon="6.98594">
        <ele>1264.5999755859</ele>
        <time>2022-08-20T11:59:02.000Z</time>
      </trkpt>
      <trkpt lat="44.0682" lon="6.98596">
        <ele>1264.8000488281</ele>
        <time>2022-08-20T11:59:04.000Z</time>
      </trkpt>
      <trkpt lat="44.0683" lon="6.98599">
        <ele>1265.1999511719</ele>
        <time>2022-08-20T11:59:08.000Z</time>
      </trkpt>
      <trkpt lat="44.06851" lon="6.98603">
        <ele>1265.8000488281</ele>
        <time>2022-08-20T11:59:17.000Z</time>
      </trkpt>
      <trkpt lat="44.06872" lon="6.98604">
        <ele>1266.4000244141</ele>
        <time>2022-08-20T11:59:25.000Z</time>
      </trkpt>
      <trkpt lat="44.06881" lon="6.98606">
        <ele>1266.8000488281</ele>
        <time>2022-08-20T11:59:29.000Z</time>
      </trkpt>
      <trkpt lat="44.06891" lon="6.98609">
        <ele>1267.1999511719</ele>
        <time>2022-08-20T11:59:33.000Z</time>
      </trkpt>
      <trkpt lat="44.06911" lon="6.98614">
        <ele>1267.8000488281</ele>
        <time>2022-08-20T11:59:41.000Z</time>
      </trkpt>
      <trkpt lat="44.06916" lon="6.98614">
        <ele>1268</ele>
        <time>2022-08-20T11:59:43.000Z</time>
      </trkpt>
      <trkpt lat="44.06936" lon="6.98614">
        <ele>1268.8000488281</ele>
        <time>2022-08-20T11:59:51.000Z</time>
      </trkpt>
      <trkpt lat="44.06946" lon="6.98614">
        <ele>1269</ele>
        <time>2022-08-20T11:59:55.000Z</time>
      </trkpt>
      <trkpt lat="44.06954" lon="6.98614">
        <ele>1269.1999511719</ele>
        <time>2022-08-20T11:59:58.000Z</time>
      </trkpt>
      <trkpt lat="44.06975" lon="6.98613">
        <ele>1270</ele>
        <time>2022-08-20T12:00:06.000Z</time>
      </trkpt>
      <trkpt lat="44.07" lon="6.98613">
        <ele>1271</ele>
        <time>2022-08-20T12:00:15.000Z</time>
      </trkpt>
      <trkpt lat="44.07025" lon="6.98617">
        <ele>1271.5999755859</ele>
        <time>2022-08-20T12:00:23.000Z</time>
      </trkpt>
      <trkpt lat="44.07039" lon="6.98624">
        <ele>1272</ele>
        <time>2022-08-20T12:00:28.000Z</time>
      </trkpt>
      <trkpt lat="44.0705" lon="6.98631">
        <ele>1272.5999755859</ele>
        <time>2022-08-20T12:00:32.000Z</time>
      </trkpt>
      <trkpt lat="44.07065" lon="6.98643">
        <ele>1273</ele>
        <time>2022-08-20T12:00:38.000Z</time>
      </trkpt>
      <trkpt lat="44.07076" lon="6.98652">
        <ele>1273.4000244141</ele>
        <time>2022-08-20T12:00:42.000Z</time>
      </trkpt>
      <trkpt lat="44.07094" lon="6.98667">
        <ele>1274</ele>
        <time>2022-08-20T12:00:49.000Z</time>
      </trkpt>
      <trkpt lat="44.07103" lon="6.98672">
        <ele>1274.4000244141</ele>
        <time>2022-08-20T12:00:52.000Z</time>
      </trkpt>
      <trkpt lat="44.07131" lon="6.98683">
        <ele>1275.1999511719</ele>
        <time>2022-08-20T12:01:02.000Z</time>
      </trkpt>
      <trkpt lat="44.07134" lon="6.98684">
        <ele>1275.1999511719</ele>
        <time>2022-08-20T12:01:03.000Z</time>
      </trkpt>
      <trkpt lat="44.07158" lon="6.98693">
        <ele>1276</ele>
        <time>2022-08-20T12:01:12.000Z</time>
      </trkpt>
      <trkpt lat="44.07165" lon="6.98696">
        <ele>1276.1999511719</ele>
        <time>2022-08-20T12:01:15.000Z</time>
      </trkpt>
      <trkpt lat="44.07178" lon="6.98701">
        <ele>1276.5999755859</ele>
        <time>2022-08-20T12:01:20.000Z</time>
      </trkpt>
      <trkpt lat="44.0719" lon="6.98706">
        <ele>1277.1999511719</ele>
        <time>2022-08-20T12:01:25.000Z</time>
      </trkpt>
      <trkpt lat="44.07204" lon="6.98712">
        <ele>1278</ele>
        <time>2022-08-20T12:01:31.000Z</time>
      </trkpt>
      <trkpt lat="44.07208" lon="6.98714">
        <ele>1278.1999511719</ele>
        <time>2022-08-20T12:01:33.000Z</time>
      </trkpt>
      <trkpt lat="44.07222" lon="6.98719">
        <ele>1279</ele>
        <time>2022-08-20T12:01:39.000Z</time>
      </trkpt>
      <trkpt lat="44.07227" lon="6.98721">
        <ele>1279.1999511719</ele>
        <time>2022-08-20T12:01:41.000Z</time>
      </trkpt>
      <trkpt lat="44.07246" lon="6.98728">
        <ele>1279.8000488281</ele>
        <time>2022-08-20T12:01:48.000Z</time>
      </trkpt>
      <trkpt lat="44.07257" lon="6.98731">
        <ele>1280.1999511719</ele>
        <time>2022-08-20T12:01:52.000Z</time>
      </trkpt>
      <trkpt lat="44.0727" lon="6.98737">
        <ele>1280.5999755859</ele>
        <time>2022-08-20T12:01:57.000Z</time>
      </trkpt>
      <trkpt lat="44.0729" lon="6.98748">
        <ele>1281.1999511719</ele>
        <time>2022-08-20T12:02:05.000Z</time>
      </trkpt>
      <trkpt lat="44.07299" lon="6.98754">
        <ele>1281.5999755859</ele>
        <time>2022-08-20T12:02:09.000Z</time>
      </trkpt>
      <trkpt lat="44.07311" lon="6.98762">
        <ele>1282.4000244141</ele>
        <time>2022-08-20T12:02:14.000Z</time>
      </trkpt>
      <trkpt lat="44.07324" lon="6.98772">
        <ele>1283</ele>
        <time>2022-08-20T12:02:19.000Z</time>
      </trkpt>
      <trkpt lat="44.07335" lon="6.98782">
        <ele>1283.4000244141</ele>
        <time>2022-08-20T12:02:23.000Z</time>
      </trkpt>
      <trkpt lat="44.07346" lon="6.98793">
        <ele>1283.8000488281</ele>
        <time>2022-08-20T12:02:27.000Z</time>
      </trkpt>
      <trkpt lat="44.07356" lon="6.98803">
        <ele>1284.5999755859</ele>
        <time>2022-08-20T12:02:31.000Z</time>
      </trkpt>
      <trkpt lat="44.07368" lon="6.98816">
        <ele>1285.5999755859</ele>
        <time>2022-08-20T12:02:36.000Z</time>
      </trkpt>
      <trkpt lat="44.0737" lon="6.98819">
        <ele>1285.8000488281</ele>
        <time>2022-08-20T12:02:37.000Z</time>
      </trkpt>
      <trkpt lat="44.0738" lon="6.9883">
        <ele>1286.5999755859</ele>
        <time>2022-08-20T12:02:41.000Z</time>
      </trkpt>
      <trkpt lat="44.07397" lon="6.9885">
        <ele>1287.8000488281</ele>
        <time>2022-08-20T12:02:48.000Z</time>
      </trkpt>
      <trkpt lat="44.07399" lon="6.98853">
        <ele>1287.8000488281</ele>
        <time>2022-08-20T12:02:49.000Z</time>
      </trkpt>
      <trkpt lat="44.07413" lon="6.98871">
        <ele>1288.8000488281</ele>
        <time>2022-08-20T12:02:55.000Z</time>
      </trkpt>
      <trkpt lat="44.07422" lon="6.98882">
        <ele>1289.5999755859</ele>
        <time>2022-08-20T12:02:59.000Z</time>
      </trkpt>
      <trkpt lat="44.07427" lon="6.98888">
        <ele>1290</ele>
        <time>2022-08-20T12:03:01.000Z</time>
      </trkpt>
      <trkpt lat="44.07443" lon="6.98907">
        <ele>1291</ele>
        <time>2022-08-20T12:03:08.000Z</time>
      </trkpt>
      <trkpt lat="44.07446" lon="6.9891">
        <ele>1291</ele>
        <time>2022-08-20T12:03:09.000Z</time>
      </trkpt>
      <trkpt lat="44.07462" lon="6.98929">
        <ele>1292</ele>
        <time>2022-08-20T12:03:16.000Z</time>
      </trkpt>
      <trkpt lat="44.07464" lon="6.98932">
        <ele>1292.1999511719</ele>
        <time>2022-08-20T12:03:17.000Z</time>
      </trkpt>
      <trkpt lat="44.07475" lon="6.9895">
        <ele>1293.1999511719</ele>
        <time>2022-08-20T12:03:23.000Z</time>
      </trkpt>
      <trkpt lat="44.07478" lon="6.98956">
        <ele>1293.5999755859</ele>
        <time>2022-08-20T12:03:25.000Z</time>
      </trkpt>
      <trkpt lat="44.07486" lon="6.9897">
        <ele>1294.4000244141</ele>
        <time>2022-08-20T12:03:30.000Z</time>
      </trkpt>
      <trkpt lat="44.07496" lon="6.98983">
        <ele>1295.1999511719</ele>
        <time>2022-08-20T12:03:35.000Z</time>
      </trkpt>
      <trkpt lat="44.07501" lon="6.98987">
        <ele>1295.5999755859</ele>
        <time>2022-08-20T12:03:37.000Z</time>
      </trkpt>
      <trkpt lat="44.07515" lon="6.98996">
        <ele>1296</ele>
        <time>2022-08-20T12:03:42.000Z</time>
      </trkpt>
      <trkpt lat="44.07526" lon="6.99003">
        <ele>1296.5999755859</ele>
        <time>2022-08-20T12:03:46.000Z</time>
      </trkpt>
      <trkpt lat="44.07548" lon="6.99016">
        <ele>1297.5999755859</ele>
        <time>2022-08-20T12:03:54.000Z</time>
      </trkpt>
      <trkpt lat="44.07551" lon="6.99018">
        <ele>1297.5999755859</ele>
        <time>2022-08-20T12:03:55.000Z</time>
      </trkpt>
      <trkpt lat="44.07565" lon="6.99027">
        <ele>1298.5999755859</ele>
        <time>2022-08-20T12:04:00.000Z</time>
      </trkpt>
      <trkpt lat="44.0758" lon="6.9904">
        <ele>1299.5999755859</ele>
        <time>2022-08-20T12:04:06.000Z</time>
      </trkpt>
      <trkpt lat="44.07595" lon="6.99056">
        <ele>1300.8000488281</ele>
        <time>2022-08-20T12:04:12.000Z</time>
      </trkpt>
      <trkpt lat="44.07605" lon="6.99066">
        <ele>1301.4000244141</ele>
        <time>2022-08-20T12:04:16.000Z</time>
      </trkpt>
      <trkpt lat="44.07611" lon="6.99071">
        <ele>1301.8000488281</ele>
        <time>2022-08-20T12:04:18.000Z</time>
      </trkpt>
      <trkpt lat="44.07629" lon="6.99084">
        <ele>1302.5999755859</ele>
        <time>2022-08-20T12:04:24.000Z</time>
      </trkpt>
      <trkpt lat="44.07638" lon="6.9909">
        <ele>1303</ele>
        <time>2022-08-20T12:04:27.000Z</time>
      </trkpt>
      <trkpt lat="44.0766" lon="6.99105">
        <ele>1303.8000488281</ele>
        <time>2022-08-20T12:04:34.000Z</time>
      </trkpt>
      <trkpt lat="44.07668" lon="6.99114">
        <ele>1304</ele>
        <time>2022-08-20T12:04:37.000Z</time>
      </trkpt>
      <trkpt lat="44.07678" lon="6.99128">
        <ele>1304.4000244141</ele>
        <time>2022-08-20T12:04:41.000Z</time>
      </trkpt>
      <trkpt lat="44.07696" lon="6.99157">
        <ele>1305.1999511719</ele>
        <time>2022-08-20T12:04:49.000Z</time>
      </trkpt>
      <trkpt lat="44.07701" lon="6.99165">
        <ele>1305.4000244141</ele>
        <time>2022-08-20T12:04:51.000Z</time>
      </trkpt>
      <trkpt lat="44.07716" lon="6.9919">
        <ele>1306.1999511719</ele>
        <time>2022-08-20T12:04:58.000Z</time>
      </trkpt>
      <trkpt lat="44.07723" lon="6.992">
        <ele>1306.5999755859</ele>
        <time>2022-08-20T12:05:01.000Z</time>
      </trkpt>
      <trkpt lat="44.07735" lon="6.99217">
        <ele>1307.1999511719</ele>
        <time>2022-08-20T12:05:06.000Z</time>
      </trkpt>
      <trkpt lat="44.07754" lon="6.99243">
        <ele>1308.1999511719</ele>
        <time>2022-08-20T12:05:14.000Z</time>
      </trkpt>
      <trkpt lat="44.07759" lon="6.99251">
        <ele>1308.1999511719</ele>
        <time>2022-08-20T12:05:16.000Z</time>
      </trkpt>
      <trkpt lat="44.0778" lon="6.9928">
        <ele>1309.1999511719</ele>
        <time>2022-08-20T12:05:25.000Z</time>
      </trkpt>
      <trkpt lat="44.07786" lon="6.99286">
        <ele>1309.4000244141</ele>
        <time>2022-08-20T12:05:27.000Z</time>
      </trkpt>
      <trkpt lat="44.07801" lon="6.99303">
        <ele>1310.1999511719</ele>
        <time>2022-08-20T12:05:33.000Z</time>
      </trkpt>
      <trkpt lat="44.07806" lon="6.99308">
        <ele>1310.4000244141</ele>
        <time>2022-08-20T12:05:35.000Z</time>
      </trkpt>
      <trkpt lat="44.07821" lon="6.99322">
        <ele>1311.4000244141</ele>
        <time>2022-08-20T12:05:41.000Z</time>
      </trkpt>
      <trkpt lat="44.07826" lon="6.99327">
        <ele>1312</ele>
        <time>2022-08-20T12:05:43.000Z</time>
      </trkpt>
      <trkpt lat="44.07834" lon="6.99334">
        <ele>1312.8000488281</ele>
        <time>2022-08-20T12:05:46.000Z</time>
      </trkpt>
      <trkpt lat="44.07845" lon="6.99344">
        <ele>1313.8000488281</ele>
        <time>2022-08-20T12:05:50.000Z</time>
      </trkpt>
      <trkpt lat="44.07848" lon="6.99346">
        <ele>1314</ele>
        <time>2022-08-20T12:05:51.000Z</time>
      </trkpt>
      <trkpt lat="44.0786" lon="6.99358">
        <ele>1315</ele>
        <time>2022-08-20T12:05:56.000Z</time>
      </trkpt>
      <trkpt lat="44.07867" lon="6.99366">
        <ele>1315.5999755859</ele>
        <time>2022-08-20T12:05:59.000Z</time>
      </trkpt>
      <trkpt lat="44.07873" lon="6.9937">
        <ele>1316</ele>
        <time>2022-08-20T12:06:01.000Z</time>
      </trkpt>
      <trkpt lat="44.07883" lon="6.99378">
        <ele>1316.8000488281</ele>
        <time>2022-08-20T12:06:05.000Z</time>
      </trkpt>
      <trkpt lat="44.07889" lon="6.99381">
        <ele>1317.1999511719</ele>
        <time>2022-08-20T12:06:07.000Z</time>
      </trkpt>
      <trkpt lat="44.07906" lon="6.99382">
        <ele>1318</ele>
        <time>2022-08-20T12:06:12.000Z</time>
      </trkpt>
      <trkpt lat="44.07912" lon="6.99382">
        <ele>1318.4000244141</ele>
        <time>2022-08-20T12:06:14.000Z</time>
      </trkpt>
      <trkpt lat="44.07932" lon="6.99384">
        <ele>1319.4000244141</ele>
        <time>2022-08-20T12:06:20.000Z</time>
      </trkpt>
      <trkpt lat="44.07957" lon="6.99388">
        <ele>1320.4000244141</ele>
        <time>2022-08-20T12:06:28.000Z</time>
      </trkpt>
      <trkpt lat="44.07978" lon="6.99394">
        <ele>1321.5999755859</ele>
        <time>2022-08-20T12:06:35.000Z</time>
      </trkpt>
      <trkpt lat="44.07987" lon="6.99395">
        <ele>1322.1999511719</ele>
        <time>2022-08-20T12:06:38.000Z</time>
      </trkpt>
      <trkpt lat="44.07993" lon="6.99397">
        <ele>1322.5999755859</ele>
        <time>2022-08-20T12:06:40.000Z</time>
      </trkpt>
      <trkpt lat="44.08009" lon="6.994">
        <ele>1323.5999755859</ele>
        <time>2022-08-20T12:06:45.000Z</time>
      </trkpt>
      <trkpt lat="44.08018" lon="6.99402">
        <ele>1324.1999511719</ele>
        <time>2022-08-20T12:06:48.000Z</time>
      </trkpt>
      <trkpt lat="44.08031" lon="6.99406">
        <ele>1324.8000488281</ele>
        <time>2022-08-20T12:06:52.000Z</time>
      </trkpt>
      <trkpt lat="44.08051" lon="6.9941">
        <ele>1325.8000488281</ele>
        <time>2022-08-20T12:06:58.000Z</time>
      </trkpt>
      <trkpt lat="44.08054" lon="6.99411">
        <ele>1326</ele>
        <time>2022-08-20T12:06:59.000Z</time>
      </trkpt>
      <trkpt lat="44.0808" lon="6.99416">
        <ele>1327</ele>
        <time>2022-08-20T12:07:07.000Z</time>
      </trkpt>
      <trkpt lat="44.0809" lon="6.99417">
        <ele>1327.4000244141</ele>
        <time>2022-08-20T12:07:10.000Z</time>
      </trkpt>
      <trkpt lat="44.08116" lon="6.99423">
        <ele>1328</ele>
        <time>2022-08-20T12:07:18.000Z</time>
      </trkpt>
      <trkpt lat="44.08122" lon="6.99425">
        <ele>1328.1999511719</ele>
        <time>2022-08-20T12:07:20.000Z</time>
      </trkpt>
      <trkpt lat="44.08153" lon="6.99436">
        <ele>1329</ele>
        <time>2022-08-20T12:07:30.000Z</time>
      </trkpt>
      <trkpt lat="44.08156" lon="6.99437">
        <ele>1329.1999511719</ele>
        <time>2022-08-20T12:07:31.000Z</time>
      </trkpt>
      <trkpt lat="44.08182" lon="6.99444">
        <ele>1330.1999511719</ele>
        <time>2022-08-20T12:07:39.000Z</time>
      </trkpt>
      <trkpt lat="44.0821" lon="6.99453">
        <ele>1331.1999511719</ele>
        <time>2022-08-20T12:07:48.000Z</time>
      </trkpt>
      <trkpt lat="44.08213" lon="6.99454">
        <ele>1331.4000244141</ele>
        <time>2022-08-20T12:07:49.000Z</time>
      </trkpt>
      <trkpt lat="44.08229" lon="6.99459">
        <ele>1332.1999511719</ele>
        <time>2022-08-20T12:07:54.000Z</time>
      </trkpt>
      <trkpt lat="44.08233" lon="6.99459">
        <ele>1332.4000244141</ele>
        <time>2022-08-20T12:07:55.000Z</time>
      </trkpt>
      <trkpt lat="44.08255" lon="6.99464">
        <ele>1333.4000244141</ele>
        <time>2022-08-20T12:08:02.000Z</time>
      </trkpt>
      <trkpt lat="44.08264" lon="6.99466">
        <ele>1333.8000488281</ele>
        <time>2022-08-20T12:08:05.000Z</time>
      </trkpt>
      <trkpt lat="44.0829" lon="6.99471">
        <ele>1334.5999755859</ele>
        <time>2022-08-20T12:08:13.000Z</time>
      </trkpt>
      <trkpt lat="44.08299" lon="6.99474">
        <ele>1334.8000488281</ele>
        <time>2022-08-20T12:08:16.000Z</time>
      </trkpt>
      <trkpt lat="44.08315" lon="6.99478">
        <ele>1335.5999755859</ele>
        <time>2022-08-20T12:08:21.000Z</time>
      </trkpt>
      <trkpt lat="44.08328" lon="6.99481">
        <ele>1336.1999511719</ele>
        <time>2022-08-20T12:08:25.000Z</time>
      </trkpt>
      <trkpt lat="44.08355" lon="6.99481">
        <ele>1336.5999755859</ele>
        <time>2022-08-20T12:08:33.000Z</time>
      </trkpt>
      <trkpt lat="44.08361" lon="6.99481">
        <ele>1337</ele>
        <time>2022-08-20T12:08:35.000Z</time>
      </trkpt>
      <trkpt lat="44.0838" lon="6.9948">
        <ele>1337.8000488281</ele>
        <time>2022-08-20T12:08:41.000Z</time>
      </trkpt>
      <trkpt lat="44.08393" lon="6.99477">
        <ele>1338.4000244141</ele>
        <time>2022-08-20T12:08:45.000Z</time>
      </trkpt>
      <trkpt lat="44.08408" lon="6.99472">
        <ele>1339</ele>
        <time>2022-08-20T12:08:50.000Z</time>
      </trkpt>
      <trkpt lat="44.08425" lon="6.99467">
        <ele>1339.4000244141</ele>
        <time>2022-08-20T12:08:55.000Z</time>
      </trkpt>
      <trkpt lat="44.08444" lon="6.99461">
        <ele>1340</ele>
        <time>2022-08-20T12:09:01.000Z</time>
      </trkpt>
      <trkpt lat="44.0846" lon="6.99458">
        <ele>1340.1999511719</ele>
        <time>2022-08-20T12:09:06.000Z</time>
      </trkpt>
      <trkpt lat="44.08482" lon="6.99456">
        <ele>1341</ele>
        <time>2022-08-20T12:09:13.000Z</time>
      </trkpt>
      <trkpt lat="44.08498" lon="6.99456">
        <ele>1341.8000488281</ele>
        <time>2022-08-20T12:09:18.000Z</time>
      </trkpt>
      <trkpt lat="44.08504" lon="6.99455">
        <ele>1342</ele>
        <time>2022-08-20T12:09:20.000Z</time>
      </trkpt>
      <trkpt lat="44.08534" lon="6.99453">
        <ele>1343</ele>
        <time>2022-08-20T12:09:29.000Z</time>
      </trkpt>
      <trkpt lat="44.08565" lon="6.99447">
        <ele>1344</ele>
        <time>2022-08-20T12:09:38.000Z</time>
      </trkpt>
      <trkpt lat="44.08568" lon="6.99446">
        <ele>1344</ele>
        <time>2022-08-20T12:09:39.000Z</time>
      </trkpt>
      <trkpt lat="44.08603" lon="6.99438">
        <ele>1344.4000244141</ele>
        <time>2022-08-20T12:09:48.000Z</time>
      </trkpt>
      <trkpt lat="44.08642" lon="6.99428">
        <ele>1345.4000244141</ele>
        <time>2022-08-20T12:09:59.000Z</time>
      </trkpt>
      <trkpt lat="44.08647" lon="6.99427">
        <ele>1345.4000244141</ele>
        <time>2022-08-20T12:10:00.000Z</time>
      </trkpt>
      <trkpt lat="44.08676" lon="6.9942">
        <ele>1346</ele>
        <time>2022-08-20T12:10:08.000Z</time>
      </trkpt>
      <trkpt lat="44.08684" lon="6.9942">
        <ele>1346.4000244141</ele>
        <time>2022-08-20T12:10:10.000Z</time>
      </trkpt>
      <trkpt lat="44.08706" lon="6.99422">
        <ele>1347.4000244141</ele>
        <time>2022-08-20T12:10:16.000Z</time>
      </trkpt>
      <trkpt lat="44.08713" lon="6.99423">
        <ele>1348</ele>
        <time>2022-08-20T12:10:18.000Z</time>
      </trkpt>
      <trkpt lat="44.08723" lon="6.99424">
        <ele>1348.5999755859</ele>
        <time>2022-08-20T12:10:21.000Z</time>
      </trkpt>
      <trkpt lat="44.0875" lon="6.99425">
        <ele>1349.5999755859</ele>
        <time>2022-08-20T12:10:29.000Z</time>
      </trkpt>
      <trkpt lat="44.08754" lon="6.99425">
        <ele>1349.8000488281</ele>
        <time>2022-08-20T12:10:30.000Z</time>
      </trkpt>
      <trkpt lat="44.08783" lon="6.99419">
        <ele>1350.5999755859</ele>
        <time>2022-08-20T12:10:38.000Z</time>
      </trkpt>
      <trkpt lat="44.0879" lon="6.99417">
        <ele>1350.8000488281</ele>
        <time>2022-08-20T12:10:40.000Z</time>
      </trkpt>
      <trkpt lat="44.08814" lon="6.99405">
        <ele>1351.8000488281</ele>
        <time>2022-08-20T12:10:47.000Z</time>
      </trkpt>
      <trkpt lat="44.08823" lon="6.99398">
        <ele>1352.4000244141</ele>
        <time>2022-08-20T12:10:50.000Z</time>
      </trkpt>
      <trkpt lat="44.08835" lon="6.99388">
        <ele>1353</ele>
        <time>2022-08-20T12:10:54.000Z</time>
      </trkpt>
      <trkpt lat="44.08849" lon="6.99374">
        <ele>1353.8000488281</ele>
        <time>2022-08-20T12:10:59.000Z</time>
      </trkpt>
      <trkpt lat="44.08852" lon="6.99371">
        <ele>1354</ele>
        <time>2022-08-20T12:11:00.000Z</time>
      </trkpt>
      <trkpt lat="44.08875" lon="6.99348">
        <ele>1355</ele>
        <time>2022-08-20T12:11:08.000Z</time>
      </trkpt>
      <trkpt lat="44.08887" lon="6.99335">
        <ele>1355.1999511719</ele>
        <time>2022-08-20T12:11:12.000Z</time>
      </trkpt>
      <trkpt lat="44.08902" lon="6.99321">
        <ele>1356</ele>
        <time>2022-08-20T12:11:17.000Z</time>
      </trkpt>
      <trkpt lat="44.08919" lon="6.99309">
        <ele>1356.5999755859</ele>
        <time>2022-08-20T12:11:22.000Z</time>
      </trkpt>
      <trkpt lat="44.08937" lon="6.99302">
        <ele>1357</ele>
        <time>2022-08-20T12:11:27.000Z</time>
      </trkpt>
      <trkpt lat="44.08944" lon="6.993">
        <ele>1357.1999511719</ele>
        <time>2022-08-20T12:11:29.000Z</time>
      </trkpt>
      <trkpt lat="44.08975" lon="6.99288">
        <ele>1358.1999511719</ele>
        <time>2022-08-20T12:11:38.000Z</time>
      </trkpt>
      <trkpt lat="44.08984" lon="6.99285">
        <ele>1358.4000244141</ele>
        <time>2022-08-20T12:11:41.000Z</time>
      </trkpt>
      <trkpt lat="44.09003" lon="6.99279">
        <ele>1359.1999511719</ele>
        <time>2022-08-20T12:11:47.000Z</time>
      </trkpt>
      <trkpt lat="44.09012" lon="6.99278">
        <ele>1359.5999755859</ele>
        <time>2022-08-20T12:11:50.000Z</time>
      </trkpt>
      <trkpt lat="44.09025" lon="6.99277">
        <ele>1360.4000244141</ele>
        <time>2022-08-20T12:11:55.000Z</time>
      </trkpt>
      <trkpt lat="44.0904" lon="6.99276">
        <ele>1361.1999511719</ele>
        <time>2022-08-20T12:12:00.000Z</time>
      </trkpt>
      <trkpt lat="44.09043" lon="6.99276">
        <ele>1361.4000244141</ele>
        <time>2022-08-20T12:12:01.000Z</time>
      </trkpt>
      <trkpt lat="44.09068" lon="6.99277">
        <ele>1362.5999755859</ele>
        <time>2022-08-20T12:12:09.000Z</time>
      </trkpt>
      <trkpt lat="44.09074" lon="6.99278">
        <ele>1362.5999755859</ele>
        <time>2022-08-20T12:12:11.000Z</time>
      </trkpt>
      <trkpt lat="44.09099" lon="6.99284">
        <ele>1363.5999755859</ele>
        <time>2022-08-20T12:12:19.000Z</time>
      </trkpt>
      <trkpt lat="44.09128" lon="6.9928">
        <ele>1364.5999755859</ele>
        <time>2022-08-20T12:12:28.000Z</time>
      </trkpt>
      <trkpt lat="44.09131" lon="6.99279">
        <ele>1364.8000488281</ele>
        <time>2022-08-20T12:12:29.000Z</time>
      </trkpt>
      <trkpt lat="44.09145" lon="6.99276">
        <ele>1365.8000488281</ele>
        <time>2022-08-20T12:12:34.000Z</time>
      </trkpt>
      <trkpt lat="44.09154" lon="6.99274">
        <ele>1366.4000244141</ele>
        <time>2022-08-20T12:12:37.000Z</time>
      </trkpt>
      <trkpt lat="44.0916" lon="6.99273">
        <ele>1367</ele>
        <time>2022-08-20T12:12:39.000Z</time>
      </trkpt>
      <trkpt lat="44.09177" lon="6.99267">
        <ele>1368.1999511719</ele>
        <time>2022-08-20T12:12:45.000Z</time>
      </trkpt>
      <trkpt lat="44.09182" lon="6.99264">
        <ele>1368.5999755859</ele>
        <time>2022-08-20T12:12:47.000Z</time>
      </trkpt>
      <trkpt lat="44.09187" lon="6.99261">
        <ele>1369.1999511719</ele>
        <time>2022-08-20T12:12:49.000Z</time>
      </trkpt>
      <trkpt lat="44.09195" lon="6.99249">
        <ele>1370.1999511719</ele>
        <time>2022-08-20T12:12:53.000Z</time>
      </trkpt>
      <trkpt lat="44.09201" lon="6.99234">
        <ele>1371.4000244141</ele>
        <time>2022-08-20T12:12:57.000Z</time>
      </trkpt>
      <trkpt lat="44.09204" lon="6.99219">
        <ele>1372</ele>
        <time>2022-08-20T12:13:01.000Z</time>
      </trkpt>
      <trkpt lat="44.09205" lon="6.99211">
        <ele>1372.4000244141</ele>
        <time>2022-08-20T12:13:03.000Z</time>
      </trkpt>
      <trkpt lat="44.09208" lon="6.99189">
        <ele>1373.5999755859</ele>
        <time>2022-08-20T12:13:09.000Z</time>
      </trkpt>
      <trkpt lat="44.09209" lon="6.99181">
        <ele>1374</ele>
        <time>2022-08-20T12:13:11.000Z</time>
      </trkpt>
      <trkpt lat="44.09212" lon="6.9917">
        <ele>1374.5999755859</ele>
        <time>2022-08-20T12:13:14.000Z</time>
      </trkpt>
      <trkpt lat="44.09217" lon="6.9916">
        <ele>1375.1999511719</ele>
        <time>2022-08-20T12:13:17.000Z</time>
      </trkpt>
      <trkpt lat="44.0923" lon="6.99158">
        <ele>1375.5999755859</ele>
        <time>2022-08-20T12:13:21.000Z</time>
      </trkpt>
      <trkpt lat="44.09235" lon="6.99161">
        <ele>1375.5999755859</ele>
        <time>2022-08-20T12:13:23.000Z</time>
      </trkpt>
      <trkpt lat="44.09247" lon="6.99171">
        <ele>1375</ele>
        <time>2022-08-20T12:13:27.000Z</time>
      </trkpt>
      <trkpt lat="44.09252" lon="6.99187">
        <ele>1374.8000488281</ele>
        <time>2022-08-20T12:13:31.000Z</time>
      </trkpt>
      <trkpt lat="44.09257" lon="6.99221">
        <ele>1375.8000488281</ele>
        <time>2022-08-20T12:13:40.000Z</time>
      </trkpt>
      <trkpt lat="44.0926" lon="6.99243">
        <ele>1376.8000488281</ele>
        <time>2022-08-20T12:13:46.000Z</time>
      </trkpt>
      <trkpt lat="44.09263" lon="6.99261">
        <ele>1377.8000488281</ele>
        <time>2022-08-20T12:13:51.000Z</time>
      </trkpt>
      <trkpt lat="44.09264" lon="6.99265">
        <ele>1378</ele>
        <time>2022-08-20T12:13:52.000Z</time>
      </trkpt>
      <trkpt lat="44.09269" lon="6.9929">
        <ele>1379</ele>
        <time>2022-08-20T12:13:59.000Z</time>
      </trkpt>
      <trkpt lat="44.09271" lon="6.99294">
        <ele>1379.1999511719</ele>
        <time>2022-08-20T12:14:00.000Z</time>
      </trkpt>
      <trkpt lat="44.09275" lon="6.99312">
        <ele>1380</ele>
        <time>2022-08-20T12:14:05.000Z</time>
      </trkpt>
      <trkpt lat="44.09279" lon="6.99321">
        <ele>1380.8000488281</ele>
        <time>2022-08-20T12:14:08.000Z</time>
      </trkpt>
      <trkpt lat="44.09281" lon="6.99322">
        <ele>1381.1999511719</ele>
        <time>2022-08-20T12:14:09.000Z</time>
      </trkpt>
      <trkpt lat="44.09288" lon="6.99318">
        <ele>1381.8000488281</ele>
        <time>2022-08-20T12:14:12.000Z</time>
      </trkpt>
      <trkpt lat="44.09289" lon="6.99302">
        <ele>1382.1999511719</ele>
        <time>2022-08-20T12:14:16.000Z</time>
      </trkpt>
      <trkpt lat="44.09287" lon="6.99291">
        <ele>1382.8000488281</ele>
        <time>2022-08-20T12:14:19.000Z</time>
      </trkpt>
      <trkpt lat="44.09286" lon="6.99287">
        <ele>1383</ele>
        <time>2022-08-20T12:14:20.000Z</time>
      </trkpt>
      <trkpt lat="44.09285" lon="6.99284">
        <ele>1383.1999511719</ele>
        <time>2022-08-20T12:14:21.000Z</time>
      </trkpt>
      <trkpt lat="44.09283" lon="6.99273">
        <ele>1383.5999755859</ele>
        <time>2022-08-20T12:14:24.000Z</time>
      </trkpt>
      <trkpt lat="44.09281" lon="6.99257">
        <ele>1384.4000244141</ele>
        <time>2022-08-20T12:14:28.000Z</time>
      </trkpt>
      <trkpt lat="44.09279" lon="6.99235">
        <ele>1385.5999755859</ele>
        <time>2022-08-20T12:14:34.000Z</time>
      </trkpt>
      <trkpt lat="44.09279" lon="6.99231">
        <ele>1385.8000488281</ele>
        <time>2022-08-20T12:14:35.000Z</time>
      </trkpt>
      <trkpt lat="44.09279" lon="6.99212">
        <ele>1386.5999755859</ele>
        <time>2022-08-20T12:14:40.000Z</time>
      </trkpt>
      <trkpt lat="44.09278" lon="6.99193">
        <ele>1387.8000488281</ele>
        <time>2022-08-20T12:14:45.000Z</time>
      </trkpt>
      <trkpt lat="44.09278" lon="6.99169">
        <ele>1389</ele>
        <time>2022-08-20T12:14:51.000Z</time>
      </trkpt>
      <trkpt lat="44.09279" lon="6.99161">
        <ele>1389.4000244141</ele>
        <time>2022-08-20T12:14:53.000Z</time>
      </trkpt>
      <trkpt lat="44.09281" lon="6.99158">
        <ele>1389.5999755859</ele>
        <time>2022-08-20T12:14:54.000Z</time>
      </trkpt>
      <trkpt lat="44.09285" lon="6.99161">
        <ele>1390</ele>
        <time>2022-08-20T12:14:56.000Z</time>
      </trkpt>
      <trkpt lat="44.09284" lon="6.99175">
        <ele>1391</ele>
        <time>2022-08-20T12:15:00.000Z</time>
      </trkpt>
      <trkpt lat="44.09284" lon="6.99179">
        <ele>1391.1999511719</ele>
        <time>2022-08-20T12:15:01.000Z</time>
      </trkpt>
      <trkpt lat="44.09285" lon="6.99201">
        <ele>1392</ele>
        <time>2022-08-20T12:15:07.000Z</time>
      </trkpt>
      <trkpt lat="44.09285" lon="6.99209">
        <ele>1392.5999755859</ele>
        <time>2022-08-20T12:15:09.000Z</time>
      </trkpt>
      <trkpt lat="44.09286" lon="6.99216">
        <ele>1393.1999511719</ele>
        <time>2022-08-20T12:15:11.000Z</time>
      </trkpt>
      <trkpt lat="44.09288" lon="6.99231">
        <ele>1394.1999511719</ele>
        <time>2022-08-20T12:15:15.000Z</time>
      </trkpt>
      <trkpt lat="44.09289" lon="6.99234">
        <ele>1394.4000244141</ele>
        <time>2022-08-20T12:15:16.000Z</time>
      </trkpt>
      <trkpt lat="44.09294" lon="6.99256">
        <ele>1395.1999511719</ele>
        <time>2022-08-20T12:15:22.000Z</time>
      </trkpt>
      <trkpt lat="44.09295" lon="6.99266">
        <ele>1395.5999755859</ele>
        <time>2022-08-20T12:15:25.000Z</time>
      </trkpt>
      <trkpt lat="44.09296" lon="6.99277">
        <ele>1396.4000244141</ele>
        <time>2022-08-20T12:15:28.000Z</time>
      </trkpt>
      <trkpt lat="44.09297" lon="6.99287">
        <ele>1397.4000244141</ele>
        <time>2022-08-20T12:15:31.000Z</time>
      </trkpt>
      <trkpt lat="44.093" lon="6.99293">
        <ele>1397.8000488281</ele>
        <time>2022-08-20T12:15:33.000Z</time>
      </trkpt>
      <trkpt lat="44.09309" lon="6.99293">
        <ele>1398.4000244141</ele>
        <time>2022-08-20T12:15:37.000Z</time>
      </trkpt>
      <trkpt lat="44.09311" lon="6.99291">
        <ele>1398.4000244141</ele>
        <time>2022-08-20T12:15:38.000Z</time>
      </trkpt>
      <trkpt lat="44.09311" lon="6.9928">
        <ele>1398.8000488281</ele>
        <time>2022-08-20T12:15:41.000Z</time>
      </trkpt>
      <trkpt lat="44.09309" lon="6.99269">
        <ele>1399</ele>
        <time>2022-08-20T12:15:44.000Z</time>
      </trkpt>
      <trkpt lat="44.09306" lon="6.99252">
        <ele>1399.5999755859</ele>
        <time>2022-08-20T12:15:49.000Z</time>
      </trkpt>
      <trkpt lat="44.09301" lon="6.99212">
        <ele>1400.5999755859</ele>
        <time>2022-08-20T12:16:00.000Z</time>
      </trkpt>
      <trkpt lat="44.09305" lon="6.99187">
        <ele>1401.8000488281</ele>
        <time>2022-08-20T12:16:07.000Z</time>
      </trkpt>
      <trkpt lat="44.09306" lon="6.99183">
        <ele>1402.1999511719</ele>
        <time>2022-08-20T12:16:08.000Z</time>
      </trkpt>
      <trkpt lat="44.09311" lon="6.99166">
        <ele>1402.8000488281</ele>
        <time>2022-08-20T12:16:14.000Z</time>
      </trkpt>
      <trkpt lat="44.09314" lon="6.99154">
        <ele>1403.5999755859</ele>
        <time>2022-08-20T12:16:17.000Z</time>
      </trkpt>
      <trkpt lat="44.09314" lon="6.9915">
        <ele>1403.8000488281</ele>
        <time>2022-08-20T12:16:18.000Z</time>
      </trkpt>
      <trkpt lat="44.09315" lon="6.99133">
        <ele>1405</ele>
        <time>2022-08-20T12:16:23.000Z</time>
      </trkpt>
      <trkpt lat="44.09315" lon="6.99125">
        <ele>1405.4000244141</ele>
        <time>2022-08-20T12:16:25.000Z</time>
      </trkpt>
      <trkpt lat="44.09315" lon="6.99111">
        <ele>1406</ele>
        <time>2022-08-20T12:16:29.000Z</time>
      </trkpt>
      <trkpt lat="44.09316" lon="6.99096">
        <ele>1406.5999755859</ele>
        <time>2022-08-20T12:16:33.000Z</time>
      </trkpt>
      <trkpt lat="44.09315" lon="6.99081">
        <ele>1407.1999511719</ele>
        <time>2022-08-20T12:16:37.000Z</time>
      </trkpt>
      <trkpt lat="44.09316" lon="6.99067">
        <ele>1408.4000244141</ele>
        <time>2022-08-20T12:16:41.000Z</time>
      </trkpt>
      <trkpt lat="44.09317" lon="6.9906">
        <ele>1409</ele>
        <time>2022-08-20T12:16:43.000Z</time>
      </trkpt>
      <trkpt lat="44.09318" lon="6.99053">
        <ele>1409.5999755859</ele>
        <time>2022-08-20T12:16:45.000Z</time>
      </trkpt>
      <trkpt lat="44.09323" lon="6.99041">
        <ele>1410.5999755859</ele>
        <time>2022-08-20T12:16:49.000Z</time>
      </trkpt>
      <trkpt lat="44.09325" lon="6.99037">
        <ele>1411</ele>
        <time>2022-08-20T12:16:50.000Z</time>
      </trkpt>
      <trkpt lat="44.09329" lon="6.99029">
        <ele>1411.8000488281</ele>
        <time>2022-08-20T12:16:53.000Z</time>
      </trkpt>
      <trkpt lat="44.09337" lon="6.99014">
        <ele>1413</ele>
        <time>2022-08-20T12:16:58.000Z</time>
      </trkpt>
      <trkpt lat="44.09343" lon="6.99002">
        <ele>1414</ele>
        <time>2022-08-20T12:17:02.000Z</time>
      </trkpt>
      <trkpt lat="44.09344" lon="6.98999">
        <ele>1414.1999511719</ele>
        <time>2022-08-20T12:17:03.000Z</time>
      </trkpt>
      <trkpt lat="44.09349" lon="6.98986">
        <ele>1415</ele>
        <time>2022-08-20T12:17:07.000Z</time>
      </trkpt>
      <trkpt lat="44.09352" lon="6.98966">
        <ele>1416.1999511719</ele>
        <time>2022-08-20T12:17:13.000Z</time>
      </trkpt>
      <trkpt lat="44.09358" lon="6.98948">
        <ele>1417.4000244141</ele>
        <time>2022-08-20T12:17:19.000Z</time>
      </trkpt>
      <trkpt lat="44.09364" lon="6.98927">
        <ele>1418.4000244141</ele>
        <time>2022-08-20T12:17:25.000Z</time>
      </trkpt>
      <trkpt lat="44.09367" lon="6.98914">
        <ele>1419.1999511719</ele>
        <time>2022-08-20T12:17:29.000Z</time>
      </trkpt>
      <trkpt lat="44.09369" lon="6.98907">
        <ele>1419.5999755859</ele>
        <time>2022-08-20T12:17:31.000Z</time>
      </trkpt>
      <trkpt lat="44.09373" lon="6.98891">
        <ele>1420.5999755859</ele>
        <time>2022-08-20T12:17:36.000Z</time>
      </trkpt>
      <trkpt lat="44.09377" lon="6.98879">
        <ele>1421.5999755859</ele>
        <time>2022-08-20T12:17:40.000Z</time>
      </trkpt>
      <trkpt lat="44.09378" lon="6.98876">
        <ele>1421.8000488281</ele>
        <time>2022-08-20T12:17:41.000Z</time>
      </trkpt>
      <trkpt lat="44.09386" lon="6.98858">
        <ele>1422.8000488281</ele>
        <time>2022-08-20T12:17:47.000Z</time>
      </trkpt>
      <trkpt lat="44.09392" lon="6.98846">
        <ele>1423.1999511719</ele>
        <time>2022-08-20T12:17:51.000Z</time>
      </trkpt>
      <trkpt lat="44.09399" lon="6.98835">
        <ele>1423.8000488281</ele>
        <time>2022-08-20T12:17:55.000Z</time>
      </trkpt>
      <trkpt lat="44.0941" lon="6.98821">
        <ele>1424.5999755859</ele>
        <time>2022-08-20T12:18:01.000Z</time>
      </trkpt>
      <trkpt lat="44.09414" lon="6.98816">
        <ele>1425</ele>
        <time>2022-08-20T12:18:03.000Z</time>
      </trkpt>
      <trkpt lat="44.09427" lon="6.98799">
        <ele>1426</ele>
        <time>2022-08-20T12:18:10.000Z</time>
      </trkpt>
      <trkpt lat="44.09429" lon="6.98797">
        <ele>1426</ele>
        <time>2022-08-20T12:18:11.000Z</time>
      </trkpt>
      <trkpt lat="44.09443" lon="6.98781">
        <ele>1427</ele>
        <time>2022-08-20T12:18:18.000Z</time>
      </trkpt>
      <trkpt lat="44.09445" lon="6.98779">
        <ele>1427.1999511719</ele>
        <time>2022-08-20T12:18:19.000Z</time>
      </trkpt>
      <trkpt lat="44.09457" lon="6.98763">
        <ele>1428.1999511719</ele>
        <time>2022-08-20T12:18:25.000Z</time>
      </trkpt>
      <trkpt lat="44.09461" lon="6.98755">
        <ele>1428.8000488281</ele>
        <time>2022-08-20T12:18:28.000Z</time>
      </trkpt>
      <trkpt lat="44.09465" lon="6.98745">
        <ele>1429.1999511719</ele>
        <time>2022-08-20T12:18:31.000Z</time>
      </trkpt>
      <trkpt lat="44.09469" lon="6.98724">
        <ele>1430.4000244141</ele>
        <time>2022-08-20T12:18:37.000Z</time>
      </trkpt>
      <trkpt lat="44.0947" lon="6.98686">
        <ele>1431.4000244141</ele>
        <time>2022-08-20T12:18:47.000Z</time>
      </trkpt>
      <trkpt lat="44.09478" lon="6.98661">
        <ele>1432.4000244141</ele>
        <time>2022-08-20T12:18:54.000Z</time>
      </trkpt>
      <trkpt lat="44.0948" lon="6.98658">
        <ele>1432.5999755859</ele>
        <time>2022-08-20T12:18:55.000Z</time>
      </trkpt>
      <trkpt lat="44.09492" lon="6.98649">
        <ele>1433.4000244141</ele>
        <time>2022-08-20T12:19:00.000Z</time>
      </trkpt>
      <trkpt lat="44.09497" lon="6.98646">
        <ele>1433.8000488281</ele>
        <time>2022-08-20T12:19:02.000Z</time>
      </trkpt>
      <trkpt lat="44.09513" lon="6.98635">
        <ele>1434.8000488281</ele>
        <time>2022-08-20T12:19:09.000Z</time>
      </trkpt>
      <trkpt lat="44.09516" lon="6.98633">
        <ele>1435</ele>
        <time>2022-08-20T12:19:10.000Z</time>
      </trkpt>
      <trkpt lat="44.09531" lon="6.98621">
        <ele>1436</ele>
        <time>2022-08-20T12:19:17.000Z</time>
      </trkpt>
      <trkpt lat="44.09536" lon="6.98618">
        <ele>1436.4000244141</ele>
        <time>2022-08-20T12:19:19.000Z</time>
      </trkpt>
      <trkpt lat="44.09545" lon="6.98611">
        <ele>1437</ele>
        <time>2022-08-20T12:19:23.000Z</time>
      </trkpt>
      <trkpt lat="44.09557" lon="6.98601">
        <ele>1437.5999755859</ele>
        <time>2022-08-20T12:19:28.000Z</time>
      </trkpt>
      <trkpt lat="44.09566" lon="6.98594">
        <ele>1438</ele>
        <time>2022-08-20T12:19:32.000Z</time>
      </trkpt>
      <trkpt lat="44.09577" lon="6.98584">
        <ele>1439</ele>
        <time>2022-08-20T12:19:37.000Z</time>
      </trkpt>
      <trkpt lat="44.0958" lon="6.98582">
        <ele>1439.1999511719</ele>
        <time>2022-08-20T12:19:38.000Z</time>
      </trkpt>
      <trkpt lat="44.09593" lon="6.9857">
        <ele>1440.1999511719</ele>
        <time>2022-08-20T12:19:44.000Z</time>
      </trkpt>
      <trkpt lat="44.09598" lon="6.98567">
        <ele>1440.4000244141</ele>
        <time>2022-08-20T12:19:46.000Z</time>
      </trkpt>
      <trkpt lat="44.09608" lon="6.98573">
        <ele>1441</ele>
        <time>2022-08-20T12:19:50.000Z</time>
      </trkpt>
      <trkpt lat="44.09611" lon="6.98578">
        <ele>1441.1999511719</ele>
        <time>2022-08-20T12:19:52.000Z</time>
      </trkpt>
      <trkpt lat="44.09614" lon="6.98586">
        <ele>1442.4000244141</ele>
        <time>2022-08-20T12:19:55.000Z</time>
      </trkpt>
      <trkpt lat="44.09616" lon="6.98587">
        <ele>1442.8000488281</ele>
        <time>2022-08-20T12:19:56.000Z</time>
      </trkpt>
      <trkpt lat="44.0962" lon="6.98587">
        <ele>1443.5999755859</ele>
        <time>2022-08-20T12:19:58.000Z</time>
      </trkpt>
      <trkpt lat="44.09624" lon="6.98586">
        <ele>1444</ele>
        <time>2022-08-20T12:20:01.000Z</time>
      </trkpt>
      <trkpt lat="44.09625" lon="6.98586">
        <ele>1443.8000488281</ele>
        <time>2022-08-20T12:20:07.000Z</time>
      </trkpt>
      <trkpt lat="44.09625" lon="6.98587">
        <ele>1444</ele>
        <time>2022-08-20T12:20:18.000Z</time>
      </trkpt>
      <trkpt lat="44.09625" lon="6.98587">
        <ele>1444.1999511719</ele>
        <time>2022-08-20T12:20:29.000Z</time>
      </trkpt>
      <trkpt lat="44.09625" lon="6.98587">
        <ele>1443.8000488281</ele>
        <time>2022-08-20T12:20:40.000Z</time>
      </trkpt>
      <trkpt lat="44.09625" lon="6.98587">
        <ele>1444.1999511719</ele>
        <time>2022-08-20T12:20:48.000Z</time>
      </trkpt>
      <trkpt lat="44.09624" lon="6.98588">
        <ele>1444</ele>
        <time>2022-08-20T12:20:57.000Z</time>
      </trkpt>
      <trkpt lat="44.09625" lon="6.98592">
        <ele>1443.5999755859</ele>
        <time>2022-08-20T12:21:02.000Z</time>
      </trkpt>
      <trkpt lat="44.09625" lon="6.98593">
        <ele>1444.1999511719</ele>
        <time>2022-08-20T12:21:08.000Z</time>
      </trkpt>
      <trkpt lat="44.09624" lon="6.98593">
        <ele>1444</ele>
        <time>2022-08-20T12:21:16.000Z</time>
      </trkpt>
      <trkpt lat="44.09624" lon="6.98592">
        <ele>1443.8000488281</ele>
        <time>2022-08-20T12:21:24.000Z</time>
      </trkpt>
      <trkpt lat="44.09624" lon="6.98592">
        <ele>1443.8000488281</ele>
        <time>2022-08-20T12:21:30.000Z</time>
      </trkpt>
      <trkpt lat="44.09624" lon="6.98591">
        <ele>1443.5999755859</ele>
        <time>2022-08-20T12:21:42.000Z</time>
      </trkpt>
      <trkpt lat="44.09623" lon="6.98591">
        <ele>1443.5999755859</ele>
        <time>2022-08-20T12:21:50.000Z</time>
      </trkpt>
      <trkpt lat="44.09623" lon="6.98591">
        <ele>1443.4000244141</ele>
        <time>2022-08-20T12:21:57.000Z</time>
      </trkpt>
      <trkpt lat="44.09623" lon="6.98589">
        <ele>1443.4000244141</ele>
        <time>2022-08-20T12:22:02.000Z</time>
      </trkpt>
      <trkpt lat="44.09623" lon="6.98586">
        <ele>1443.1999511719</ele>
        <time>2022-08-20T12:22:09.000Z</time>
      </trkpt>
      <trkpt lat="44.09623" lon="6.98586">
        <ele>1443</ele>
        <time>2022-08-20T12:22:16.000Z</time>
      </trkpt>
      <trkpt lat="44.09623" lon="6.98586">
        <ele>1443.1999511719</ele>
        <time>2022-08-20T12:22:23.000Z</time>
      </trkpt>
      <trkpt lat="44.09624" lon="6.98586">
        <ele>1443.1999511719</ele>
        <time>2022-08-20T12:22:29.000Z</time>
      </trkpt>
      <trkpt lat="44.09623" lon="6.98585">
        <ele>1443</ele>
        <time>2022-08-20T12:22:38.000Z</time>
      </trkpt>
      <trkpt lat="44.09622" lon="6.98584">
        <ele>1443</ele>
        <time>2022-08-20T12:22:51.000Z</time>
      </trkpt>
      <trkpt lat="44.09622" lon="6.98583">
        <ele>1442.8000488281</ele>
        <time>2022-08-20T12:23:01.000Z</time>
      </trkpt>
      <trkpt lat="44.09623" lon="6.98584">
        <ele>1442.4000244141</ele>
        <time>2022-08-20T12:23:07.000Z</time>
      </trkpt>
      <trkpt lat="44.09622" lon="6.98585">
        <ele>1441.1999511719</ele>
        <time>2022-08-20T12:23:10.000Z</time>
      </trkpt>
      <trkpt lat="44.09622" lon="6.98585">
        <ele>1442.4000244141</ele>
        <time>2022-08-20T12:23:13.000Z</time>
      </trkpt>
      <trkpt lat="44.09622" lon="6.98585">
        <ele>1442.8000488281</ele>
        <time>2022-08-20T12:23:15.000Z</time>
      </trkpt>
      <trkpt lat="44.09622" lon="6.98585">
        <ele>1443</ele>
        <time>2022-08-20T12:23:33.000Z</time>
      </trkpt>
      <trkpt lat="44.09623" lon="6.98586">
        <ele>1443.1999511719</ele>
        <time>2022-08-20T12:23:45.000Z</time>
      </trkpt>
      <trkpt lat="44.09623" lon="6.98586">
        <ele>1443.1999511719</ele>
        <time>2022-08-20T12:23:55.000Z</time>
      </trkpt>
      <trkpt lat="44.09626" lon="6.98587">
        <ele>1443.1999511719</ele>
        <time>2022-08-20T12:24:08.000Z</time>
      </trkpt>
      <trkpt lat="44.09629" lon="6.9859">
        <ele>1443</ele>
        <time>2022-08-20T12:24:14.000Z</time>
      </trkpt>
      <trkpt lat="44.09628" lon="6.98591">
        <ele>1443.1999511719</ele>
        <time>2022-08-20T12:24:20.000Z</time>
      </trkpt>
      <trkpt lat="44.09629" lon="6.98591">
        <ele>1444.4000244141</ele>
        <time>2022-08-20T12:24:26.000Z</time>
      </trkpt>
      <trkpt lat="44.09629" lon="6.98591">
        <ele>1446.1999511719</ele>
        <time>2022-08-20T12:24:28.000Z</time>
      </trkpt>
      <trkpt lat="44.09629" lon="6.98591">
        <ele>1445</ele>
        <time>2022-08-20T12:24:31.000Z</time>
      </trkpt>
      <trkpt lat="44.09629" lon="6.98591">
        <ele>1443.5999755859</ele>
        <time>2022-08-20T12:24:33.000Z</time>
      </trkpt>
      <trkpt lat="44.09629" lon="6.98591">
        <ele>1444.4000244141</ele>
        <time>2022-08-20T12:24:45.000Z</time>
      </trkpt>
      <trkpt lat="44.09629" lon="6.98591">
        <ele>1444.8000488281</ele>
        <time>2022-08-20T12:24:48.000Z</time>
      </trkpt>
      <trkpt lat="44.09629" lon="6.98591">
        <ele>1443.8000488281</ele>
        <time>2022-08-20T12:24:52.000Z</time>
      </trkpt>
      <trkpt lat="44.09629" lon="6.98591">
        <ele>1445.1999511719</ele>
        <time>2022-08-20T12:24:58.000Z</time>
      </trkpt>
      <trkpt lat="44.09629" lon="6.98591">
        <ele>1444.1999511719</ele>
        <time>2022-08-20T12:25:10.000Z</time>
      </trkpt>
      <trkpt lat="44.09629" lon="6.9859">
        <ele>1443.8000488281</ele>
        <time>2022-08-20T12:25:11.000Z</time>
      </trkpt>
      <trkpt lat="44.09629" lon="6.9859">
        <ele>1443.4000244141</ele>
        <time>2022-08-20T12:25:26.000Z</time>
      </trkpt>
      <trkpt lat="44.09629" lon="6.98588">
        <ele>1443</ele>
        <time>2022-08-20T12:25:47.000Z</time>
      </trkpt>
      <trkpt lat="44.09629" lon="6.98589">
        <ele>1443.4000244141</ele>
        <time>2022-08-20T12:26:09.000Z</time>
      </trkpt>
      <trkpt lat="44.0963" lon="6.9859">
        <ele>1443.1999511719</ele>
        <time>2022-08-20T12:26:27.000Z</time>
      </trkpt>
      <trkpt lat="44.09629" lon="6.98587">
        <ele>1443</ele>
        <time>2022-08-20T12:26:47.000Z</time>
      </trkpt>
      <trkpt lat="44.09629" lon="6.98587">
        <ele>1442.8000488281</ele>
        <time>2022-08-20T12:26:50.000Z</time>
      </trkpt>
      <trkpt lat="44.09629" lon="6.98585">
        <ele>1442.8000488281</ele>
        <time>2022-08-20T12:26:54.000Z</time>
      </trkpt>
      <trkpt lat="44.09628" lon="6.98584">
        <ele>1443.1999511719</ele>
        <time>2022-08-20T12:26:58.000Z</time>
      </trkpt>
      <trkpt lat="44.09628" lon="6.98583">
        <ele>1443.1999511719</ele>
        <time>2022-08-20T12:27:00.000Z</time>
      </trkpt>
      <trkpt lat="44.09627" lon="6.98582">
        <ele>1443</ele>
        <time>2022-08-20T12:27:07.000Z</time>
      </trkpt>
      <trkpt lat="44.09627" lon="6.98585">
        <ele>1442.4000244141</ele>
        <time>2022-08-20T12:27:23.000Z</time>
      </trkpt>
      <trkpt lat="44.09627" lon="6.98586">
        <ele>1442.4000244141</ele>
        <time>2022-08-20T12:27:33.000Z</time>
      </trkpt>
      <trkpt lat="44.09627" lon="6.98587">
        <ele>1442.4000244141</ele>
        <time>2022-08-20T12:27:49.000Z</time>
      </trkpt>
      <trkpt lat="44.09627" lon="6.98587">
        <ele>1442.1999511719</ele>
        <time>2022-08-20T12:28:03.000Z</time>
      </trkpt>
      <trkpt lat="44.09627" lon="6.98588">
        <ele>1442.1999511719</ele>
        <time>2022-08-20T12:28:15.000Z</time>
      </trkpt>
      <trkpt lat="44.09626" lon="6.98589">
        <ele>1442</ele>
        <time>2022-08-20T12:28:25.000Z</time>
      </trkpt>
      <trkpt lat="44.09625" lon="6.98591">
        <ele>1442</ele>
        <time>2022-08-20T12:28:30.000Z</time>
      </trkpt>
      <trkpt lat="44.09625" lon="6.9859">
        <ele>1441.8000488281</ele>
        <time>2022-08-20T12:28:32.000Z</time>
      </trkpt>
      <trkpt lat="44.09626" lon="6.98589">
        <ele>1442</ele>
        <time>2022-08-20T12:28:37.000Z</time>
      </trkpt>
      <trkpt lat="44.09626" lon="6.98589">
        <ele>1441.4000244141</ele>
        <time>2022-08-20T12:28:46.000Z</time>
      </trkpt>
      <trkpt lat="44.09626" lon="6.98588">
        <ele>1441.1999511719</ele>
        <time>2022-08-20T12:28:56.000Z</time>
      </trkpt>
      <trkpt lat="44.09626" lon="6.98587">
        <ele>1441.1999511719</ele>
        <time>2022-08-20T12:29:07.000Z</time>
      </trkpt>
      <trkpt lat="44.09626" lon="6.98587">
        <ele>1440.8000488281</ele>
        <time>2022-08-20T12:29:12.000Z</time>
      </trkpt>
      <trkpt lat="44.09625" lon="6.98586">
        <ele>1440.8000488281</ele>
        <time>2022-08-20T12:29:18.000Z</time>
      </trkpt>
      <trkpt lat="44.09625" lon="6.98586">
        <ele>1441.4000244141</ele>
        <time>2022-08-20T12:29:30.000Z</time>
      </trkpt>
      <trkpt lat="44.09625" lon="6.98584">
        <ele>1440.8000488281</ele>
        <time>2022-08-20T12:29:45.000Z</time>
      </trkpt>
      <trkpt lat="44.09625" lon="6.98583">
        <ele>1441</ele>
        <time>2022-08-20T12:29:56.000Z</time>
      </trkpt>
      <trkpt lat="44.09625" lon="6.98582">
        <ele>1441.4000244141</ele>
        <time>2022-08-20T12:30:09.000Z</time>
      </trkpt>
      <trkpt lat="44.09625" lon="6.98583">
        <ele>1441.8000488281</ele>
        <time>2022-08-20T12:30:15.000Z</time>
      </trkpt>
      <trkpt lat="44.09625" lon="6.98583">
        <ele>1442</ele>
        <time>2022-08-20T12:30:16.000Z</time>
      </trkpt>
      <trkpt lat="44.09625" lon="6.98584">
        <ele>1441.8000488281</ele>
        <time>2022-08-20T12:30:25.000Z</time>
      </trkpt>
      <trkpt lat="44.09627" lon="6.98584">
        <ele>1441.5999755859</ele>
        <time>2022-08-20T12:30:32.000Z</time>
      </trkpt>
      <trkpt lat="44.09629" lon="6.98585">
        <ele>1441.5999755859</ele>
        <time>2022-08-20T12:30:41.000Z</time>
      </trkpt>
      <trkpt lat="44.0963" lon="6.98587">
        <ele>1441.5999755859</ele>
        <time>2022-08-20T12:30:49.000Z</time>
      </trkpt>
      <trkpt lat="44.09631" lon="6.98586">
        <ele>1441.5999755859</ele>
        <time>2022-08-20T12:30:57.000Z</time>
      </trkpt>
      <trkpt lat="44.09632" lon="6.98587">
        <ele>1441.5999755859</ele>
        <time>2022-08-20T12:31:07.000Z</time>
      </trkpt>
      <trkpt lat="44.09631" lon="6.98587">
        <ele>1441.8000488281</ele>
        <time>2022-08-20T12:31:16.000Z</time>
      </trkpt>
      <trkpt lat="44.09632" lon="6.98588">
        <ele>1442.1999511719</ele>
        <time>2022-08-20T12:31:29.000Z</time>
      </trkpt>
      <trkpt lat="44.09632" lon="6.98588">
        <ele>1442</ele>
        <time>2022-08-20T12:31:47.000Z</time>
      </trkpt>
      <trkpt lat="44.09632" lon="6.98589">
        <ele>1442.1999511719</ele>
        <time>2022-08-20T12:32:07.000Z</time>
      </trkpt>
      <trkpt lat="44.09632" lon="6.98589">
        <ele>1442.1999511719</ele>
        <time>2022-08-20T12:32:31.000Z</time>
      </trkpt>
      <trkpt lat="44.09632" lon="6.9859">
        <ele>1442</ele>
        <time>2022-08-20T12:32:56.000Z</time>
      </trkpt>
      <trkpt lat="44.09631" lon="6.9859">
        <ele>1442.1999511719</ele>
        <time>2022-08-20T12:33:07.000Z</time>
      </trkpt>
      <trkpt lat="44.09631" lon="6.98591">
        <ele>1442</ele>
        <time>2022-08-20T12:33:23.000Z</time>
      </trkpt>
      <trkpt lat="44.09631" lon="6.98591">
        <ele>1441.8000488281</ele>
        <time>2022-08-20T12:33:43.000Z</time>
      </trkpt>
      <trkpt lat="44.09631" lon="6.9859">
        <ele>1442</ele>
        <time>2022-08-20T12:33:57.000Z</time>
      </trkpt>
      <trkpt lat="44.0963" lon="6.98592">
        <ele>1441.5999755859</ele>
        <time>2022-08-20T12:34:03.000Z</time>
      </trkpt>
      <trkpt lat="44.0963" lon="6.98591">
        <ele>1441.8000488281</ele>
        <time>2022-08-20T12:34:14.000Z</time>
      </trkpt>
      <trkpt lat="44.09629" lon="6.9859">
        <ele>1441.8000488281</ele>
        <time>2022-08-20T12:34:26.000Z</time>
      </trkpt>
      <trkpt lat="44.09629" lon="6.98589">
        <ele>1441.5999755859</ele>
        <time>2022-08-20T12:34:45.000Z</time>
      </trkpt>
      <trkpt lat="44.09628" lon="6.98588">
        <ele>1441.4000244141</ele>
        <time>2022-08-20T12:35:09.000Z</time>
      </trkpt>
      <trkpt lat="44.09628" lon="6.98588">
        <ele>1441.5999755859</ele>
        <time>2022-08-20T12:35:38.000Z</time>
      </trkpt>
      <trkpt lat="44.09628" lon="6.98588">
        <ele>1441.5999755859</ele>
        <time>2022-08-20T12:36:03.000Z</time>
      </trkpt>
      <trkpt lat="44.09627" lon="6.98587">
        <ele>1441.4000244141</ele>
        <time>2022-08-20T12:36:30.000Z</time>
      </trkpt>
      <trkpt lat="44.09627" lon="6.98587">
        <ele>1441.5999755859</ele>
        <time>2022-08-20T12:36:51.000Z</time>
      </trkpt>
      <trkpt lat="44.09628" lon="6.98588">
        <ele>1441.5999755859</ele>
        <time>2022-08-20T12:37:13.000Z</time>
      </trkpt>
      <trkpt lat="44.09628" lon="6.98588">
        <ele>1441.5999755859</ele>
        <time>2022-08-20T12:37:28.000Z</time>
      </trkpt>
      <trkpt lat="44.09628" lon="6.98588">
        <ele>1441.1999511719</ele>
        <time>2022-08-20T12:37:42.000Z</time>
      </trkpt>
      <trkpt lat="44.09628" lon="6.98588">
        <ele>1441.1999511719</ele>
        <time>2022-08-20T12:38:01.000Z</time>
      </trkpt>
      <trkpt lat="44.09629" lon="6.98589">
        <ele>1441.4000244141</ele>
        <time>2022-08-20T12:38:31.000Z</time>
      </trkpt>
      <trkpt lat="44.09629" lon="6.98588">
        <ele>1441.1999511719</ele>
        <time>2022-08-20T12:38:57.000Z</time>
      </trkpt>
      <trkpt lat="44.09628" lon="6.98588">
        <ele>1441.1999511719</ele>
        <time>2022-08-20T12:39:19.000Z</time>
      </trkpt>
      <trkpt lat="44.09629" lon="6.98589">
        <ele>1441.4000244141</ele>
        <time>2022-08-20T12:39:42.000Z</time>
      </trkpt>
      <trkpt lat="44.0963" lon="6.98589">
        <ele>1441.1999511719</ele>
        <time>2022-08-20T12:39:59.000Z</time>
      </trkpt>
      <trkpt lat="44.09629" lon="6.98588">
        <ele>1441.1999511719</ele>
        <time>2022-08-20T12:40:20.000Z</time>
      </trkpt>
      <trkpt lat="44.09629" lon="6.98588">
        <ele>1440.8000488281</ele>
        <time>2022-08-20T12:40:29.000Z</time>
      </trkpt>
      <trkpt lat="44.09629" lon="6.98587">
        <ele>1440.8000488281</ele>
        <time>2022-08-20T12:40:33.000Z</time>
      </trkpt>
      <trkpt lat="44.09629" lon="6.98588">
        <ele>1440.5999755859</ele>
        <time>2022-08-20T12:40:48.000Z</time>
      </trkpt>
      <trkpt lat="44.09629" lon="6.98589">
        <ele>1441.5999755859</ele>
        <time>2022-08-20T12:40:55.000Z</time>
      </trkpt>
      <trkpt lat="44.09628" lon="6.98588">
        <ele>1440.1999511719</ele>
        <time>2022-08-20T12:41:00.000Z</time>
      </trkpt>
      <trkpt lat="44.09627" lon="6.98588">
        <ele>1441.8000488281</ele>
        <time>2022-08-20T12:41:05.000Z</time>
      </trkpt>
      <trkpt lat="44.09626" lon="6.98587">
        <ele>1441.8000488281</ele>
        <time>2022-08-20T12:41:06.000Z</time>
      </trkpt>
      <trkpt lat="44.09626" lon="6.98587">
        <ele>1441.5999755859</ele>
        <time>2022-08-20T12:41:12.000Z</time>
      </trkpt>
      <trkpt lat="44.09624" lon="6.98588">
        <ele>1441.1999511719</ele>
        <time>2022-08-20T12:41:19.000Z</time>
      </trkpt>
      <trkpt lat="44.09624" lon="6.98588">
        <ele>1440.8000488281</ele>
        <time>2022-08-20T12:41:24.000Z</time>
      </trkpt>
      <trkpt lat="44.09623" lon="6.98588">
        <ele>1440.8000488281</ele>
        <time>2022-08-20T12:41:25.000Z</time>
      </trkpt>
      <trkpt lat="44.09623" lon="6.98588">
        <ele>1441.1999511719</ele>
        <time>2022-08-20T12:41:31.000Z</time>
      </trkpt>
      <trkpt lat="44.09625" lon="6.98588">
        <ele>1441</ele>
        <time>2022-08-20T12:41:39.000Z</time>
      </trkpt>
      <trkpt lat="44.09625" lon="6.98586">
        <ele>1440.8000488281</ele>
        <time>2022-08-20T12:41:53.000Z</time>
      </trkpt>
      <trkpt lat="44.09623" lon="6.98587">
        <ele>1441.1999511719</ele>
        <time>2022-08-20T12:41:58.000Z</time>
      </trkpt>
      <trkpt lat="44.09623" lon="6.98587">
        <ele>1441.1999511719</ele>
        <time>2022-08-20T12:42:05.000Z</time>
      </trkpt>
      <trkpt lat="44.09622" lon="6.98586">
        <ele>1440.5999755859</ele>
        <time>2022-08-20T12:42:13.000Z</time>
      </trkpt>
      <trkpt lat="44.09622" lon="6.98586">
        <ele>1440.5999755859</ele>
        <time>2022-08-20T12:42:27.000Z</time>
      </trkpt>
      <trkpt lat="44.09622" lon="6.98584">
        <ele>1440.8000488281</ele>
        <time>2022-08-20T12:42:37.000Z</time>
      </trkpt>
      <trkpt lat="44.09624" lon="6.9858">
        <ele>1441</ele>
        <time>2022-08-20T12:42:42.000Z</time>
      </trkpt>
      <trkpt lat="44.09624" lon="6.98578">
        <ele>1441</ele>
        <time>2022-08-20T12:42:43.000Z</time>
      </trkpt>
      <trkpt lat="44.09622" lon="6.98567">
        <ele>1441</ele>
        <time>2022-08-20T12:42:46.000Z</time>
      </trkpt>
      <trkpt lat="44.09621" lon="6.98563">
        <ele>1440.8000488281</ele>
        <time>2022-08-20T12:42:47.000Z</time>
      </trkpt>
      <trkpt lat="44.09616" lon="6.98531">
        <ele>1439.8000488281</ele>
        <time>2022-08-20T12:42:52.000Z</time>
      </trkpt>
      <trkpt lat="44.09614" lon="6.98524">
        <ele>1439.5999755859</ele>
        <time>2022-08-20T12:42:53.000Z</time>
      </trkpt>
      <trkpt lat="44.0961" lon="6.98497">
        <ele>1438.4000244141</ele>
        <time>2022-08-20T12:42:56.000Z</time>
      </trkpt>
      <trkpt lat="44.09609" lon="6.98487">
        <ele>1438</ele>
        <time>2022-08-20T12:42:57.000Z</time>
      </trkpt>
      <trkpt lat="44.09608" lon="6.98468">
        <ele>1437</ele>
        <time>2022-08-20T12:42:59.000Z</time>
      </trkpt>
      <trkpt lat="44.09607" lon="6.98445">
        <ele>1435.8000488281</ele>
        <time>2022-08-20T12:43:01.000Z</time>
      </trkpt>
      <trkpt lat="44.09606" lon="6.98424">
        <ele>1434.5999755859</ele>
        <time>2022-08-20T12:43:03.000Z</time>
      </trkpt>
      <trkpt lat="44.09603" lon="6.9837">
        <ele>1433.5999755859</ele>
        <time>2022-08-20T12:43:09.000Z</time>
      </trkpt>
      <trkpt lat="44.09598" lon="6.98345">
        <ele>1433.8000488281</ele>
        <time>2022-08-20T12:43:12.000Z</time>
      </trkpt>
      <trkpt lat="44.09594" lon="6.98331">
        <ele>1433.5999755859</ele>
        <time>2022-08-20T12:43:14.000Z</time>
      </trkpt>
      <trkpt lat="44.09582" lon="6.98299">
        <ele>1434.8000488281</ele>
        <time>2022-08-20T12:43:20.000Z</time>
      </trkpt>
      <trkpt lat="44.09575" lon="6.98281">
        <ele>1435.8000488281</ele>
        <time>2022-08-20T12:43:24.000Z</time>
      </trkpt>
      <trkpt lat="44.09572" lon="6.98265">
        <ele>1436.1999511719</ele>
        <time>2022-08-20T12:43:27.000Z</time>
      </trkpt>
      <trkpt lat="44.09567" lon="6.98222">
        <ele>1436.5999755859</ele>
        <time>2022-08-20T12:43:35.000Z</time>
      </trkpt>
      <trkpt lat="44.09567" lon="6.98216">
        <ele>1436.8000488281</ele>
        <time>2022-08-20T12:43:36.000Z</time>
      </trkpt>
      <trkpt lat="44.09562" lon="6.98189">
        <ele>1437.8000488281</ele>
        <time>2022-08-20T12:43:42.000Z</time>
      </trkpt>
      <trkpt lat="44.09561" lon="6.98186">
        <ele>1438</ele>
        <time>2022-08-20T12:43:43.000Z</time>
      </trkpt>
      <trkpt lat="44.09557" lon="6.98172">
        <ele>1439</ele>
        <time>2022-08-20T12:43:47.000Z</time>
      </trkpt>
      <trkpt lat="44.09555" lon="6.9816">
        <ele>1440</ele>
        <time>2022-08-20T12:43:50.000Z</time>
      </trkpt>
      <trkpt lat="44.09554" lon="6.98156">
        <ele>1440.1999511719</ele>
        <time>2022-08-20T12:43:51.000Z</time>
      </trkpt>
      <trkpt lat="44.09554" lon="6.98144">
        <ele>1441.4000244141</ele>
        <time>2022-08-20T12:43:54.000Z</time>
      </trkpt>
      <trkpt lat="44.09555" lon="6.98132">
        <ele>1442.4000244141</ele>
        <time>2022-08-20T12:43:57.000Z</time>
      </trkpt>
      <trkpt lat="44.09555" lon="6.98128">
        <ele>1442.5999755859</ele>
        <time>2022-08-20T12:43:58.000Z</time>
      </trkpt>
      <trkpt lat="44.09557" lon="6.98116">
        <ele>1443.4000244141</ele>
        <time>2022-08-20T12:44:01.000Z</time>
      </trkpt>
      <trkpt lat="44.09559" lon="6.98095">
        <ele>1444</ele>
        <time>2022-08-20T12:44:06.000Z</time>
      </trkpt>
      <trkpt lat="44.09559" lon="6.98083">
        <ele>1444.5999755859</ele>
        <time>2022-08-20T12:44:09.000Z</time>
      </trkpt>
      <trkpt lat="44.09558" lon="6.98071">
        <ele>1445.4000244141</ele>
        <time>2022-08-20T12:44:12.000Z</time>
      </trkpt>
      <trkpt lat="44.09558" lon="6.98066">
        <ele>1445.8000488281</ele>
        <time>2022-08-20T12:44:13.000Z</time>
      </trkpt>
      <trkpt lat="44.09554" lon="6.98041">
        <ele>1446.8000488281</ele>
        <time>2022-08-20T12:44:19.000Z</time>
      </trkpt>
      <trkpt lat="44.09553" lon="6.98036">
        <ele>1446.8000488281</ele>
        <time>2022-08-20T12:44:20.000Z</time>
      </trkpt>
      <trkpt lat="44.09543" lon="6.98003">
        <ele>1446.1999511719</ele>
        <time>2022-08-20T12:44:27.000Z</time>
      </trkpt>
      <trkpt lat="44.09539" lon="6.97993">
        <ele>1445.8000488281</ele>
        <time>2022-08-20T12:44:29.000Z</time>
      </trkpt>
      <trkpt lat="44.09531" lon="6.97969">
        <ele>1446.1999511719</ele>
        <time>2022-08-20T12:44:34.000Z</time>
      </trkpt>
      <trkpt lat="44.09529" lon="6.9795">
        <ele>1446.8000488281</ele>
        <time>2022-08-20T12:44:38.000Z</time>
      </trkpt>
      <trkpt lat="44.09527" lon="6.9794">
        <ele>1447.4000244141</ele>
        <time>2022-08-20T12:44:40.000Z</time>
      </trkpt>
      <trkpt lat="44.09524" lon="6.97927">
        <ele>1448</ele>
        <time>2022-08-20T12:44:43.000Z</time>
      </trkpt>
      <trkpt lat="44.0952" lon="6.9791">
        <ele>1449.1999511719</ele>
        <time>2022-08-20T12:44:47.000Z</time>
      </trkpt>
      <trkpt lat="44.09514" lon="6.97889">
        <ele>1450.1999511719</ele>
        <time>2022-08-20T12:44:52.000Z</time>
      </trkpt>
      <trkpt lat="44.09512" lon="6.97882">
        <ele>1450.8000488281</ele>
        <time>2022-08-20T12:44:54.000Z</time>
      </trkpt>
      <trkpt lat="44.09511" lon="6.97875">
        <ele>1451.5999755859</ele>
        <time>2022-08-20T12:44:56.000Z</time>
      </trkpt>
      <trkpt lat="44.09507" lon="6.97866">
        <ele>1452.8000488281</ele>
        <time>2022-08-20T12:44:59.000Z</time>
      </trkpt>
      <trkpt lat="44.09504" lon="6.97859">
        <ele>1453.4000244141</ele>
        <time>2022-08-20T12:45:01.000Z</time>
      </trkpt>
      <trkpt lat="44.09503" lon="6.97856">
        <ele>1453.8000488281</ele>
        <time>2022-08-20T12:45:02.000Z</time>
      </trkpt>
      <trkpt lat="44.09495" lon="6.97837">
        <ele>1454.8000488281</ele>
        <time>2022-08-20T12:45:08.000Z</time>
      </trkpt>
      <trkpt lat="44.09494" lon="6.97834">
        <ele>1455.1999511719</ele>
        <time>2022-08-20T12:45:09.000Z</time>
      </trkpt>
      <trkpt lat="44.0949" lon="6.97823">
        <ele>1456</ele>
        <time>2022-08-20T12:45:12.000Z</time>
      </trkpt>
      <trkpt lat="44.09486" lon="6.97814">
        <ele>1457</ele>
        <time>2022-08-20T12:45:15.000Z</time>
      </trkpt>
      <trkpt lat="44.09481" lon="6.97801">
        <ele>1458</ele>
        <time>2022-08-20T12:45:19.000Z</time>
      </trkpt>
      <trkpt lat="44.0948" lon="6.97798">
        <ele>1458</ele>
        <time>2022-08-20T12:45:20.000Z</time>
      </trkpt>
      <trkpt lat="44.09469" lon="6.97774">
        <ele>1458.4000244141</ele>
        <time>2022-08-20T12:45:27.000Z</time>
      </trkpt>
      <trkpt lat="44.09458" lon="6.97747">
        <ele>1458.5999755859</ele>
        <time>2022-08-20T12:45:34.000Z</time>
      </trkpt>
      <trkpt lat="44.09444" lon="6.97716">
        <ele>1459</ele>
        <time>2022-08-20T12:45:42.000Z</time>
      </trkpt>
      <trkpt lat="44.09441" lon="6.97709">
        <ele>1459</ele>
        <time>2022-08-20T12:45:44.000Z</time>
      </trkpt>
      <trkpt lat="44.09432" lon="6.97691">
        <ele>1459.5999755859</ele>
        <time>2022-08-20T12:45:49.000Z</time>
      </trkpt>
      <trkpt lat="44.09427" lon="6.97676">
        <ele>1460.1999511719</ele>
        <time>2022-08-20T12:45:53.000Z</time>
      </trkpt>
      <trkpt lat="44.09421" lon="6.97661">
        <ele>1461</ele>
        <time>2022-08-20T12:45:57.000Z</time>
      </trkpt>
      <trkpt lat="44.0942" lon="6.97657">
        <ele>1461.1999511719</ele>
        <time>2022-08-20T12:45:58.000Z</time>
      </trkpt>
      <trkpt lat="44.09414" lon="6.97641">
        <ele>1462.5999755859</ele>
        <time>2022-08-20T12:46:02.000Z</time>
      </trkpt>
      <trkpt lat="44.09413" lon="6.97637">
        <ele>1463</ele>
        <time>2022-08-20T12:46:03.000Z</time>
      </trkpt>
      <trkpt lat="44.09409" lon="6.9763">
        <ele>1463.5999755859</ele>
        <time>2022-08-20T12:46:05.000Z</time>
      </trkpt>
      <trkpt lat="44.09405" lon="6.97618">
        <ele>1465</ele>
        <time>2022-08-20T12:46:08.000Z</time>
      </trkpt>
      <trkpt lat="44.094" lon="6.97609">
        <ele>1466</ele>
        <time>2022-08-20T12:46:11.000Z</time>
      </trkpt>
      <trkpt lat="44.09398" lon="6.97607">
        <ele>1466.4000244141</ele>
        <time>2022-08-20T12:46:12.000Z</time>
      </trkpt>
      <trkpt lat="44.09396" lon="6.97601">
        <ele>1467.4000244141</ele>
        <time>2022-08-20T12:46:14.000Z</time>
      </trkpt>
      <trkpt lat="44.09392" lon="6.97593">
        <ele>1468.5999755859</ele>
        <time>2022-08-20T12:46:17.000Z</time>
      </trkpt>
      <trkpt lat="44.0939" lon="6.97586">
        <ele>1469.1999511719</ele>
        <time>2022-08-20T12:46:19.000Z</time>
      </trkpt>
      <trkpt lat="44.0939" lon="6.97582">
        <ele>1469.8000488281</ele>
        <time>2022-08-20T12:46:20.000Z</time>
      </trkpt>
      <trkpt lat="44.09388" lon="6.97573">
        <ele>1471</ele>
        <time>2022-08-20T12:46:23.000Z</time>
      </trkpt>
      <trkpt lat="44.09386" lon="6.97563">
        <ele>1472.4000244141</ele>
        <time>2022-08-20T12:46:26.000Z</time>
      </trkpt>
      <trkpt lat="44.09384" lon="6.97557">
        <ele>1473.1999511719</ele>
        <time>2022-08-20T12:46:28.000Z</time>
      </trkpt>
      <trkpt lat="44.09384" lon="6.97554">
        <ele>1473.4000244141</ele>
        <time>2022-08-20T12:46:29.000Z</time>
      </trkpt>
      <trkpt lat="44.09382" lon="6.97548">
        <ele>1474.5999755859</ele>
        <time>2022-08-20T12:46:31.000Z</time>
      </trkpt>
      <trkpt lat="44.0938" lon="6.97542">
        <ele>1475.5999755859</ele>
        <time>2022-08-20T12:46:33.000Z</time>
      </trkpt>
      <trkpt lat="44.09378" lon="6.97537">
        <ele>1476.5999755859</ele>
        <time>2022-08-20T12:46:35.000Z</time>
      </trkpt>
      <trkpt lat="44.09377" lon="6.97534">
        <ele>1477.1999511719</ele>
        <time>2022-08-20T12:46:36.000Z</time>
      </trkpt>
      <trkpt lat="44.09376" lon="6.97531">
        <ele>1477.8000488281</ele>
        <time>2022-08-20T12:46:37.000Z</time>
      </trkpt>
      <trkpt lat="44.09374" lon="6.97526">
        <ele>1479.1999511719</ele>
        <time>2022-08-20T12:46:39.000Z</time>
      </trkpt>
      <trkpt lat="44.0937" lon="6.97518">
        <ele>1480.4000244141</ele>
        <time>2022-08-20T12:46:42.000Z</time>
      </trkpt>
      <trkpt lat="44.09357" lon="6.97504">
        <ele>1481.5999755859</ele>
        <time>2022-08-20T12:46:49.000Z</time>
      </trkpt>
      <trkpt lat="44.0935" lon="6.975">
        <ele>1482.5999755859</ele>
        <time>2022-08-20T12:46:52.000Z</time>
      </trkpt>
      <trkpt lat="44.09343" lon="6.97498">
        <ele>1484</ele>
        <time>2022-08-20T12:46:55.000Z</time>
      </trkpt>
      <trkpt lat="44.0934" lon="6.97497">
        <ele>1484.5999755859</ele>
        <time>2022-08-20T12:46:56.000Z</time>
      </trkpt>
      <trkpt lat="44.09336" lon="6.97495">
        <ele>1485.4000244141</ele>
        <time>2022-08-20T12:46:58.000Z</time>
      </trkpt>
      <trkpt lat="44.09331" lon="6.97493">
        <ele>1486</ele>
        <time>2022-08-20T12:47:00.000Z</time>
      </trkpt>
      <trkpt lat="44.09329" lon="6.97493">
        <ele>1486.5999755859</ele>
        <time>2022-08-20T12:47:01.000Z</time>
      </trkpt>
      <trkpt lat="44.09326" lon="6.97492">
        <ele>1487</ele>
        <time>2022-08-20T12:47:02.000Z</time>
      </trkpt>
      <trkpt lat="44.09322" lon="6.97489">
        <ele>1487.4000244141</ele>
        <time>2022-08-20T12:47:04.000Z</time>
      </trkpt>
      <trkpt lat="44.0932" lon="6.97488">
        <ele>1488</ele>
        <time>2022-08-20T12:47:05.000Z</time>
      </trkpt>
      <trkpt lat="44.09314" lon="6.97483">
        <ele>1489.1999511719</ele>
        <time>2022-08-20T12:47:08.000Z</time>
      </trkpt>
      <trkpt lat="44.09305" lon="6.97475">
        <ele>1490.4000244141</ele>
        <time>2022-08-20T12:47:12.000Z</time>
      </trkpt>
      <trkpt lat="44.09303" lon="6.97473">
        <ele>1490.8000488281</ele>
        <time>2022-08-20T12:47:13.000Z</time>
      </trkpt>
      <trkpt lat="44.09298" lon="6.97466">
        <ele>1491.8000488281</ele>
        <time>2022-08-20T12:47:16.000Z</time>
      </trkpt>
      <trkpt lat="44.09293" lon="6.97456">
        <ele>1492.8000488281</ele>
        <time>2022-08-20T12:47:20.000Z</time>
      </trkpt>
      <trkpt lat="44.09292" lon="6.97453">
        <ele>1492.8000488281</ele>
        <time>2022-08-20T12:47:21.000Z</time>
      </trkpt>
      <trkpt lat="44.09281" lon="6.97433">
        <ele>1493.5999755859</ele>
        <time>2022-08-20T12:47:28.000Z</time>
      </trkpt>
      <trkpt lat="44.09277" lon="6.97423">
        <ele>1493.8000488281</ele>
        <time>2022-08-20T12:47:31.000Z</time>
      </trkpt>
      <trkpt lat="44.09269" lon="6.97408">
        <ele>1494.5999755859</ele>
        <time>2022-08-20T12:47:36.000Z</time>
      </trkpt>
      <trkpt lat="44.09266" lon="6.97402">
        <ele>1494.8000488281</ele>
        <time>2022-08-20T12:47:38.000Z</time>
      </trkpt>
      <trkpt lat="44.09258" lon="6.9739">
        <ele>1496</ele>
        <time>2022-08-20T12:47:43.000Z</time>
      </trkpt>
      <trkpt lat="44.09244" lon="6.97372">
        <ele>1497.1999511719</ele>
        <time>2022-08-20T12:47:49.000Z</time>
      </trkpt>
      <trkpt lat="44.09238" lon="6.97365">
        <ele>1498.4000244141</ele>
        <time>2022-08-20T12:47:52.000Z</time>
      </trkpt>
      <trkpt lat="44.09233" lon="6.97357">
        <ele>1499.8000488281</ele>
        <time>2022-08-20T12:47:55.000Z</time>
      </trkpt>
      <trkpt lat="44.09229" lon="6.97352">
        <ele>1501</ele>
        <time>2022-08-20T12:47:57.000Z</time>
      </trkpt>
      <trkpt lat="44.09225" lon="6.97344">
        <ele>1502.4000244141</ele>
        <time>2022-08-20T12:48:00.000Z</time>
      </trkpt>
      <trkpt lat="44.09223" lon="6.97342">
        <ele>1502.5999755859</ele>
        <time>2022-08-20T12:48:01.000Z</time>
      </trkpt>
      <trkpt lat="44.09221" lon="6.97336">
        <ele>1503.5999755859</ele>
        <time>2022-08-20T12:48:03.000Z</time>
      </trkpt>
      <trkpt lat="44.09218" lon="6.97327">
        <ele>1505</ele>
        <time>2022-08-20T12:48:06.000Z</time>
      </trkpt>
      <trkpt lat="44.09216" lon="6.97322">
        <ele>1505.8000488281</ele>
        <time>2022-08-20T12:48:08.000Z</time>
      </trkpt>
      <trkpt lat="44.09215" lon="6.9732">
        <ele>1506.1999511719</ele>
        <time>2022-08-20T12:48:09.000Z</time>
      </trkpt>
      <trkpt lat="44.09213" lon="6.97315">
        <ele>1507.4000244141</ele>
        <time>2022-08-20T12:48:11.000Z</time>
      </trkpt>
      <trkpt lat="44.09211" lon="6.9731">
        <ele>1508.5999755859</ele>
        <time>2022-08-20T12:48:13.000Z</time>
      </trkpt>
      <trkpt lat="44.09209" lon="6.97308">
        <ele>1508.5999755859</ele>
        <time>2022-08-20T12:48:14.000Z</time>
      </trkpt>
      <trkpt lat="44.09203" lon="6.97299">
        <ele>1510</ele>
        <time>2022-08-20T12:48:18.000Z</time>
      </trkpt>
      <trkpt lat="44.09198" lon="6.97294">
        <ele>1511.4000244141</ele>
        <time>2022-08-20T12:48:21.000Z</time>
      </trkpt>
      <trkpt lat="44.09196" lon="6.97293">
        <ele>1511.8000488281</ele>
        <time>2022-08-20T12:48:22.000Z</time>
      </trkpt>
      <trkpt lat="44.0919" lon="6.97289">
        <ele>1512.5999755859</ele>
        <time>2022-08-20T12:48:25.000Z</time>
      </trkpt>
      <trkpt lat="44.09183" lon="6.97284">
        <ele>1513.4000244141</ele>
        <time>2022-08-20T12:48:28.000Z</time>
      </trkpt>
      <trkpt lat="44.0918" lon="6.97281">
        <ele>1514</ele>
        <time>2022-08-20T12:48:30.000Z</time>
      </trkpt>
      <trkpt lat="44.09176" lon="6.97275">
        <ele>1515.1999511719</ele>
        <time>2022-08-20T12:48:33.000Z</time>
      </trkpt>
      <trkpt lat="44.09173" lon="6.97272">
        <ele>1516.5999755859</ele>
        <time>2022-08-20T12:48:35.000Z</time>
      </trkpt>
      <trkpt lat="44.0917" lon="6.97268">
        <ele>1517.5999755859</ele>
        <time>2022-08-20T12:48:37.000Z</time>
      </trkpt>
      <trkpt lat="44.09168" lon="6.9726">
        <ele>1518.8000488281</ele>
        <time>2022-08-20T12:48:40.000Z</time>
      </trkpt>
      <trkpt lat="44.09165" lon="6.97256">
        <ele>1519.8000488281</ele>
        <time>2022-08-20T12:48:42.000Z</time>
      </trkpt>
      <trkpt lat="44.09162" lon="6.97252">
        <ele>1521</ele>
        <time>2022-08-20T12:48:44.000Z</time>
      </trkpt>
      <trkpt lat="44.0916" lon="6.97247">
        <ele>1521.8000488281</ele>
        <time>2022-08-20T12:48:46.000Z</time>
      </trkpt>
      <trkpt lat="44.0916" lon="6.97244">
        <ele>1522.4000244141</ele>
        <time>2022-08-20T12:48:47.000Z</time>
      </trkpt>
      <trkpt lat="44.09159" lon="6.97239">
        <ele>1523.4000244141</ele>
        <time>2022-08-20T12:48:49.000Z</time>
      </trkpt>
      <trkpt lat="44.09157" lon="6.97233">
        <ele>1524.4000244141</ele>
        <time>2022-08-20T12:48:51.000Z</time>
      </trkpt>
      <trkpt lat="44.09155" lon="6.97229">
        <ele>1525.5999755859</ele>
        <time>2022-08-20T12:48:53.000Z</time>
      </trkpt>
      <trkpt lat="44.09152" lon="6.97225">
        <ele>1526.8000488281</ele>
        <time>2022-08-20T12:48:55.000Z</time>
      </trkpt>
      <trkpt lat="44.09149" lon="6.97221">
        <ele>1528</ele>
        <time>2022-08-20T12:48:57.000Z</time>
      </trkpt>
      <trkpt lat="44.09145" lon="6.97214">
        <ele>1529.5999755859</ele>
        <time>2022-08-20T12:49:00.000Z</time>
      </trkpt>
      <trkpt lat="44.09141" lon="6.97208">
        <ele>1530.8000488281</ele>
        <time>2022-08-20T12:49:03.000Z</time>
      </trkpt>
      <trkpt lat="44.09138" lon="6.97201">
        <ele>1532</ele>
        <time>2022-08-20T12:49:06.000Z</time>
      </trkpt>
      <trkpt lat="44.09135" lon="6.97194">
        <ele>1533</ele>
        <time>2022-08-20T12:49:09.000Z</time>
      </trkpt>
      <trkpt lat="44.09132" lon="6.97188">
        <ele>1534.4000244141</ele>
        <time>2022-08-20T12:49:12.000Z</time>
      </trkpt>
      <trkpt lat="44.0913" lon="6.97184">
        <ele>1535.4000244141</ele>
        <time>2022-08-20T12:49:14.000Z</time>
      </trkpt>
      <trkpt lat="44.09128" lon="6.97182">
        <ele>1536</ele>
        <time>2022-08-20T12:49:15.000Z</time>
      </trkpt>
      <trkpt lat="44.09126" lon="6.97178">
        <ele>1536.8000488281</ele>
        <time>2022-08-20T12:49:17.000Z</time>
      </trkpt>
      <trkpt lat="44.09124" lon="6.97174">
        <ele>1537.8000488281</ele>
        <time>2022-08-20T12:49:19.000Z</time>
      </trkpt>
      <trkpt lat="44.09121" lon="6.97168">
        <ele>1539.1999511719</ele>
        <time>2022-08-20T12:49:22.000Z</time>
      </trkpt>
      <trkpt lat="44.09121" lon="6.97166">
        <ele>1539.5999755859</ele>
        <time>2022-08-20T12:49:23.000Z</time>
      </trkpt>
      <trkpt lat="44.0912" lon="6.97159">
        <ele>1540.4000244141</ele>
        <time>2022-08-20T12:49:26.000Z</time>
      </trkpt>
      <trkpt lat="44.09118" lon="6.97154">
        <ele>1541.5999755859</ele>
        <time>2022-08-20T12:49:29.000Z</time>
      </trkpt>
      <trkpt lat="44.09116" lon="6.97149">
        <ele>1542.8000488281</ele>
        <time>2022-08-20T12:49:32.000Z</time>
      </trkpt>
      <trkpt lat="44.09115" lon="6.97146">
        <ele>1543.1999511719</ele>
        <time>2022-08-20T12:49:34.000Z</time>
      </trkpt>
      <trkpt lat="44.09114" lon="6.97141">
        <ele>1543.5999755859</ele>
        <time>2022-08-20T12:49:37.000Z</time>
      </trkpt>
      <trkpt lat="44.09111" lon="6.97136">
        <ele>1543.8000488281</ele>
        <time>2022-08-20T12:49:41.000Z</time>
      </trkpt>
      <trkpt lat="44.09109" lon="6.97133">
        <ele>1544</ele>
        <time>2022-08-20T12:49:43.000Z</time>
      </trkpt>
      <trkpt lat="44.09104" lon="6.97119">
        <ele>1544.8000488281</ele>
        <time>2022-08-20T12:49:51.000Z</time>
      </trkpt>
      <trkpt lat="44.09102" lon="6.97115">
        <ele>1544.8000488281</ele>
        <time>2022-08-20T12:49:53.000Z</time>
      </trkpt>
      <trkpt lat="44.09099" lon="6.97106">
        <ele>1545.1999511719</ele>
        <time>2022-08-20T12:49:58.000Z</time>
      </trkpt>
      <trkpt lat="44.09095" lon="6.97092">
        <ele>1546</ele>
        <time>2022-08-20T12:50:05.000Z</time>
      </trkpt>
      <trkpt lat="44.09092" lon="6.97084">
        <ele>1546.1999511719</ele>
        <time>2022-08-20T12:50:09.000Z</time>
      </trkpt>
      <trkpt lat="44.09088" lon="6.97079">
        <ele>1546.8000488281</ele>
        <time>2022-08-20T12:50:15.000Z</time>
      </trkpt>
      <trkpt lat="44.09088" lon="6.97079">
        <ele>1547</ele>
        <time>2022-08-20T12:50:18.000Z</time>
      </trkpt>
      <trkpt lat="44.09089" lon="6.97079">
        <ele>1547</ele>
        <time>2022-08-20T12:50:27.000Z</time>
      </trkpt>
      <trkpt lat="44.09089" lon="6.97078">
        <ele>1547.1999511719</ele>
        <time>2022-08-20T12:50:49.000Z</time>
      </trkpt>
      <trkpt lat="44.09088" lon="6.97079">
        <ele>1547.4000244141</ele>
        <time>2022-08-20T12:51:14.000Z</time>
      </trkpt>
      <trkpt lat="44.09087" lon="6.9708">
        <ele>1548</ele>
        <time>2022-08-20T12:51:41.000Z</time>
      </trkpt>
      <trkpt lat="44.09087" lon="6.9708">
        <ele>1547.8000488281</ele>
        <time>2022-08-20T12:51:46.000Z</time>
      </trkpt>
      <trkpt lat="44.09085" lon="6.97078">
        <ele>1547.5999755859</ele>
        <time>2022-08-20T12:52:12.000Z</time>
      </trkpt>
      <trkpt lat="44.09085" lon="6.97076">
        <ele>1547.8000488281</ele>
        <time>2022-08-20T12:52:17.000Z</time>
      </trkpt>
      <trkpt lat="44.09084" lon="6.97074">
        <ele>1547.5999755859</ele>
        <time>2022-08-20T12:52:19.000Z</time>
      </trkpt>
      <trkpt lat="44.09079" lon="6.97071">
        <ele>1547.5999755859</ele>
        <time>2022-08-20T12:52:22.000Z</time>
      </trkpt>
      <trkpt lat="44.09072" lon="6.9706">
        <ele>1547.8000488281</ele>
        <time>2022-08-20T12:52:26.000Z</time>
      </trkpt>
      <trkpt lat="44.0906" lon="6.97032">
        <ele>1546.8000488281</ele>
        <time>2022-08-20T12:52:31.000Z</time>
      </trkpt>
      <trkpt lat="44.0905" lon="6.97008">
        <ele>1545</ele>
        <time>2022-08-20T12:52:34.000Z</time>
      </trkpt>
      <trkpt lat="44.09042" lon="6.96989">
        <ele>1543.1999511719</ele>
        <time>2022-08-20T12:52:36.000Z</time>
      </trkpt>
      <trkpt lat="44.09034" lon="6.96968">
        <ele>1541.5999755859</ele>
        <time>2022-08-20T12:52:38.000Z</time>
      </trkpt>
      <trkpt lat="44.09021" lon="6.96936">
        <ele>1540</ele>
        <time>2022-08-20T12:52:41.000Z</time>
      </trkpt>
      <trkpt lat="44.09016" lon="6.96924">
        <ele>1539.4000244141</ele>
        <time>2022-08-20T12:52:42.000Z</time>
      </trkpt>
      <trkpt lat="44.09011" lon="6.96913">
        <ele>1538.5999755859</ele>
        <time>2022-08-20T12:52:43.000Z</time>
      </trkpt>
      <trkpt lat="44.09002" lon="6.96891">
        <ele>1537</ele>
        <time>2022-08-20T12:52:45.000Z</time>
      </trkpt>
      <trkpt lat="44.08992" lon="6.96871">
        <ele>1535.8000488281</ele>
        <time>2022-08-20T12:52:47.000Z</time>
      </trkpt>
      <trkpt lat="44.08982" lon="6.96852">
        <ele>1535.1999511719</ele>
        <time>2022-08-20T12:52:49.000Z</time>
      </trkpt>
      <trkpt lat="44.08967" lon="6.96831">
        <ele>1535</ele>
        <time>2022-08-20T12:52:52.000Z</time>
      </trkpt>
      <trkpt lat="44.0896" lon="6.96828">
        <ele>1535</ele>
        <time>2022-08-20T12:52:53.000Z</time>
      </trkpt>
      <trkpt lat="44.08948" lon="6.96835">
        <ele>1534.8000488281</ele>
        <time>2022-08-20T12:52:55.000Z</time>
      </trkpt>
      <trkpt lat="44.08943" lon="6.96841">
        <ele>1534.8000488281</ele>
        <time>2022-08-20T12:52:56.000Z</time>
      </trkpt>
      <trkpt lat="44.08937" lon="6.96847">
        <ele>1534.5999755859</ele>
        <time>2022-08-20T12:52:57.000Z</time>
      </trkpt>
      <trkpt lat="44.08928" lon="6.96858">
        <ele>1534.4000244141</ele>
        <time>2022-08-20T12:52:59.000Z</time>
      </trkpt>
      <trkpt lat="44.08915" lon="6.96864">
        <ele>1534.1999511719</ele>
        <time>2022-08-20T12:53:01.000Z</time>
      </trkpt>
      <trkpt lat="44.08893" lon="6.96867">
        <ele>1534</ele>
        <time>2022-08-20T12:53:05.000Z</time>
      </trkpt>
      <trkpt lat="44.08888" lon="6.96867">
        <ele>1533.8000488281</ele>
        <time>2022-08-20T12:53:06.000Z</time>
      </trkpt>
      <trkpt lat="44.08884" lon="6.96869">
        <ele>1534</ele>
        <time>2022-08-20T12:53:07.000Z</time>
      </trkpt>
      <trkpt lat="44.08866" lon="6.96872">
        <ele>1534.8000488281</ele>
        <time>2022-08-20T12:53:11.000Z</time>
      </trkpt>
      <trkpt lat="44.08847" lon="6.96872">
        <ele>1535</ele>
        <time>2022-08-20T12:53:15.000Z</time>
      </trkpt>
      <trkpt lat="44.08835" lon="6.96869">
        <ele>1535.1999511719</ele>
        <time>2022-08-20T12:53:18.000Z</time>
      </trkpt>
      <trkpt lat="44.08811" lon="6.96869">
        <ele>1535.8000488281</ele>
        <time>2022-08-20T12:53:25.000Z</time>
      </trkpt>
      <trkpt lat="44.08808" lon="6.9687">
        <ele>1536</ele>
        <time>2022-08-20T12:53:26.000Z</time>
      </trkpt>
      <trkpt lat="44.08788" lon="6.96873">
        <ele>1536.8000488281</ele>
        <time>2022-08-20T12:53:32.000Z</time>
      </trkpt>
      <trkpt lat="44.08785" lon="6.96874">
        <ele>1537</ele>
        <time>2022-08-20T12:53:33.000Z</time>
      </trkpt>
      <trkpt lat="44.08776" lon="6.96876">
        <ele>1537.8000488281</ele>
        <time>2022-08-20T12:53:36.000Z</time>
      </trkpt>
      <trkpt lat="44.08764" lon="6.96882">
        <ele>1538.5999755859</ele>
        <time>2022-08-20T12:53:40.000Z</time>
      </trkpt>
      <trkpt lat="44.08761" lon="6.96883">
        <ele>1539</ele>
        <time>2022-08-20T12:53:41.000Z</time>
      </trkpt>
      <trkpt lat="44.08743" lon="6.96885">
        <ele>1540</ele>
        <time>2022-08-20T12:53:47.000Z</time>
      </trkpt>
      <trkpt lat="44.0874" lon="6.96884">
        <ele>1540.1999511719</ele>
        <time>2022-08-20T12:53:48.000Z</time>
      </trkpt>
      <trkpt lat="44.08725" lon="6.96882">
        <ele>1540.8000488281</ele>
        <time>2022-08-20T12:53:54.000Z</time>
      </trkpt>
      <trkpt lat="44.08723" lon="6.96882">
        <ele>1541.1999511719</ele>
        <time>2022-08-20T12:53:55.000Z</time>
      </trkpt>
      <trkpt lat="44.08713" lon="6.96879">
        <ele>1542</ele>
        <time>2022-08-20T12:54:00.000Z</time>
      </trkpt>
      <trkpt lat="44.08713" lon="6.96879">
        <ele>1542.1999511719</ele>
        <time>2022-08-20T12:54:02.000Z</time>
      </trkpt>
      <trkpt lat="44.08713" lon="6.96879">
        <ele>1542.4000244141</ele>
        <time>2022-08-20T12:54:06.000Z</time>
      </trkpt>
      <trkpt lat="44.08713" lon="6.96879">
        <ele>1542.4000244141</ele>
        <time>2022-08-20T12:54:17.000Z</time>
      </trkpt>
      <trkpt lat="44.08713" lon="6.96879">
        <ele>1542.4000244141</ele>
        <time>2022-08-20T12:54:23.000Z</time>
      </trkpt>
      <trkpt lat="44.08709" lon="6.96877">
        <ele>1542.5999755859</ele>
        <time>2022-08-20T12:54:31.000Z</time>
      </trkpt>
      <trkpt lat="44.08698" lon="6.96868">
        <ele>1542.5999755859</ele>
        <time>2022-08-20T12:54:34.000Z</time>
      </trkpt>
      <trkpt lat="44.08691" lon="6.96848">
        <ele>1541.5999755859</ele>
        <time>2022-08-20T12:54:37.000Z</time>
      </trkpt>
      <trkpt lat="44.0869" lon="6.96841">
        <ele>1541</ele>
        <time>2022-08-20T12:54:38.000Z</time>
      </trkpt>
      <trkpt lat="44.08689" lon="6.96827">
        <ele>1540.1999511719</ele>
        <time>2022-08-20T12:54:40.000Z</time>
      </trkpt>
      <trkpt lat="44.08688" lon="6.96813">
        <ele>1539.8000488281</ele>
        <time>2022-08-20T12:54:42.000Z</time>
      </trkpt>
      <trkpt lat="44.08688" lon="6.96806">
        <ele>1539.5999755859</ele>
        <time>2022-08-20T12:54:43.000Z</time>
      </trkpt>
      <trkpt lat="44.08682" lon="6.9677">
        <ele>1538.5999755859</ele>
        <time>2022-08-20T12:54:48.000Z</time>
      </trkpt>
      <trkpt lat="44.08679" lon="6.96757">
        <ele>1538.5999755859</ele>
        <time>2022-08-20T12:54:50.000Z</time>
      </trkpt>
      <trkpt lat="44.08668" lon="6.96711">
        <ele>1538.8000488281</ele>
        <time>2022-08-20T12:54:57.000Z</time>
      </trkpt>
      <trkpt lat="44.08654" lon="6.96652">
        <ele>1539.5999755859</ele>
        <time>2022-08-20T12:55:07.000Z</time>
      </trkpt>
      <trkpt lat="44.08647" lon="6.96613">
        <ele>1537.8000488281</ele>
        <time>2022-08-20T12:55:12.000Z</time>
      </trkpt>
      <trkpt lat="44.08645" lon="6.96604">
        <ele>1537.1999511719</ele>
        <time>2022-08-20T12:55:13.000Z</time>
      </trkpt>
      <trkpt lat="44.08644" lon="6.96585">
        <ele>1536</ele>
        <time>2022-08-20T12:55:15.000Z</time>
      </trkpt>
      <trkpt lat="44.08643" lon="6.96575">
        <ele>1535.4000244141</ele>
        <time>2022-08-20T12:55:16.000Z</time>
      </trkpt>
      <trkpt lat="44.08642" lon="6.96567">
        <ele>1535</ele>
        <time>2022-08-20T12:55:17.000Z</time>
      </trkpt>
      <trkpt lat="44.08642" lon="6.96558">
        <ele>1534.1999511719</ele>
        <time>2022-08-20T12:55:18.000Z</time>
      </trkpt>
      <trkpt lat="44.08641" lon="6.96541">
        <ele>1533.4000244141</ele>
        <time>2022-08-20T12:55:20.000Z</time>
      </trkpt>
      <trkpt lat="44.0864" lon="6.96533">
        <ele>1533.1999511719</ele>
        <time>2022-08-20T12:55:21.000Z</time>
      </trkpt>
      <trkpt lat="44.0864" lon="6.96525">
        <ele>1533.1999511719</ele>
        <time>2022-08-20T12:55:22.000Z</time>
      </trkpt>
      <trkpt lat="44.08638" lon="6.96477">
        <ele>1533</ele>
        <time>2022-08-20T12:55:28.000Z</time>
      </trkpt>
      <trkpt lat="44.0864" lon="6.96464">
        <ele>1532.4000244141</ele>
        <time>2022-08-20T12:55:30.000Z</time>
      </trkpt>
      <trkpt lat="44.0864" lon="6.96458">
        <ele>1532</ele>
        <time>2022-08-20T12:55:31.000Z</time>
      </trkpt>
      <trkpt lat="44.0864" lon="6.96452">
        <ele>1531.4000244141</ele>
        <time>2022-08-20T12:55:32.000Z</time>
      </trkpt>
      <trkpt lat="44.08637" lon="6.9644">
        <ele>1531.4000244141</ele>
        <time>2022-08-20T12:55:34.000Z</time>
      </trkpt>
      <trkpt lat="44.08635" lon="6.96434">
        <ele>1531.4000244141</ele>
        <time>2022-08-20T12:55:35.000Z</time>
      </trkpt>
      <trkpt lat="44.08634" lon="6.96426">
        <ele>1531.4000244141</ele>
        <time>2022-08-20T12:55:36.000Z</time>
      </trkpt>
      <trkpt lat="44.08627" lon="6.96379">
        <ele>1532.1999511719</ele>
        <time>2022-08-20T12:55:43.000Z</time>
      </trkpt>
      <trkpt lat="44.08626" lon="6.96361">
        <ele>1532.4000244141</ele>
        <time>2022-08-20T12:55:47.000Z</time>
      </trkpt>
      <trkpt lat="44.08624" lon="6.96353">
        <ele>1533</ele>
        <time>2022-08-20T12:55:49.000Z</time>
      </trkpt>
      <trkpt lat="44.08619" lon="6.96344">
        <ele>1533.4000244141</ele>
        <time>2022-08-20T12:55:51.000Z</time>
      </trkpt>
      <trkpt lat="44.08603" lon="6.96311">
        <ele>1532.5999755859</ele>
        <time>2022-08-20T12:55:57.000Z</time>
      </trkpt>
      <trkpt lat="44.08602" lon="6.96305">
        <ele>1532.1999511719</ele>
        <time>2022-08-20T12:55:58.000Z</time>
      </trkpt>
      <trkpt lat="44.08596" lon="6.9629">
        <ele>1532</ele>
        <time>2022-08-20T12:56:01.000Z</time>
      </trkpt>
      <trkpt lat="44.08594" lon="6.96279">
        <ele>1532.1999511719</ele>
        <time>2022-08-20T12:56:03.000Z</time>
      </trkpt>
      <trkpt lat="44.08589" lon="6.96239">
        <ele>1531.5999755859</ele>
        <time>2022-08-20T12:56:10.000Z</time>
      </trkpt>
      <trkpt lat="44.08589" lon="6.96233">
        <ele>1531.4000244141</ele>
        <time>2022-08-20T12:56:11.000Z</time>
      </trkpt>
      <trkpt lat="44.08588" lon="6.96215">
        <ele>1531</ele>
        <time>2022-08-20T12:56:14.000Z</time>
      </trkpt>
      <trkpt lat="44.08588" lon="6.9621">
        <ele>1530.8000488281</ele>
        <time>2022-08-20T12:56:15.000Z</time>
      </trkpt>
      <trkpt lat="44.08591" lon="6.96187">
        <ele>1531.8000488281</ele>
        <time>2022-08-20T12:56:21.000Z</time>
      </trkpt>
      <trkpt lat="44.08591" lon="6.96183">
        <ele>1532.1999511719</ele>
        <time>2022-08-20T12:56:22.000Z</time>
      </trkpt>
      <trkpt lat="44.08593" lon="6.96162">
        <ele>1532.8000488281</ele>
        <time>2022-08-20T12:56:26.000Z</time>
      </trkpt>
      <trkpt lat="44.08585" lon="6.96109">
        <ele>1532.4000244141</ele>
        <time>2022-08-20T12:56:34.000Z</time>
      </trkpt>
      <trkpt lat="44.08572" lon="6.96056">
        <ele>1531.8000488281</ele>
        <time>2022-08-20T12:56:41.000Z</time>
      </trkpt>
      <trkpt lat="44.08563" lon="6.96018">
        <ele>1530.8000488281</ele>
        <time>2022-08-20T12:56:45.000Z</time>
      </trkpt>
      <trkpt lat="44.0856" lon="6.95999">
        <ele>1530.4000244141</ele>
        <time>2022-08-20T12:56:47.000Z</time>
      </trkpt>
      <trkpt lat="44.08556" lon="6.95978">
        <ele>1529.8000488281</ele>
        <time>2022-08-20T12:56:49.000Z</time>
      </trkpt>
      <trkpt lat="44.08549" lon="6.95934">
        <ele>1528.1999511719</ele>
        <time>2022-08-20T12:56:53.000Z</time>
      </trkpt>
      <trkpt lat="44.08547" lon="6.95911">
        <ele>1527.1999511719</ele>
        <time>2022-08-20T12:56:55.000Z</time>
      </trkpt>
      <trkpt lat="44.08544" lon="6.95888">
        <ele>1525.5999755859</ele>
        <time>2022-08-20T12:56:57.000Z</time>
      </trkpt>
      <trkpt lat="44.08542" lon="6.95866">
        <ele>1524.5999755859</ele>
        <time>2022-08-20T12:56:59.000Z</time>
      </trkpt>
      <trkpt lat="44.08541" lon="6.9584">
        <ele>1523.4000244141</ele>
        <time>2022-08-20T12:57:01.000Z</time>
      </trkpt>
      <trkpt lat="44.08539" lon="6.95815">
        <ele>1522.8000488281</ele>
        <time>2022-08-20T12:57:03.000Z</time>
      </trkpt>
      <trkpt lat="44.08538" lon="6.95803">
        <ele>1522.4000244141</ele>
        <time>2022-08-20T12:57:04.000Z</time>
      </trkpt>
      <trkpt lat="44.08533" lon="6.95765">
        <ele>1520.8000488281</ele>
        <time>2022-08-20T12:57:07.000Z</time>
      </trkpt>
      <trkpt lat="44.08529" lon="6.95741">
        <ele>1519.5999755859</ele>
        <time>2022-08-20T12:57:09.000Z</time>
      </trkpt>
      <trkpt lat="44.08524" lon="6.95717">
        <ele>1518.4000244141</ele>
        <time>2022-08-20T12:57:11.000Z</time>
      </trkpt>
      <trkpt lat="44.08521" lon="6.95706">
        <ele>1518</ele>
        <time>2022-08-20T12:57:12.000Z</time>
      </trkpt>
      <trkpt lat="44.08518" lon="6.95697">
        <ele>1517.8000488281</ele>
        <time>2022-08-20T12:57:13.000Z</time>
      </trkpt>
      <trkpt lat="44.08515" lon="6.95689">
        <ele>1517.1999511719</ele>
        <time>2022-08-20T12:57:14.000Z</time>
      </trkpt>
      <trkpt lat="44.08512" lon="6.95672">
        <ele>1516.1999511719</ele>
        <time>2022-08-20T12:57:16.000Z</time>
      </trkpt>
      <trkpt lat="44.08512" lon="6.95664">
        <ele>1516</ele>
        <time>2022-08-20T12:57:17.000Z</time>
      </trkpt>
      <trkpt lat="44.08516" lon="6.95642">
        <ele>1516.4000244141</ele>
        <time>2022-08-20T12:57:20.000Z</time>
      </trkpt>
      <trkpt lat="44.08518" lon="6.95636">
        <ele>1516.5999755859</ele>
        <time>2022-08-20T12:57:21.000Z</time>
      </trkpt>
      <trkpt lat="44.08521" lon="6.95623">
        <ele>1516.8000488281</ele>
        <time>2022-08-20T12:57:24.000Z</time>
      </trkpt>
      <trkpt lat="44.08522" lon="6.95612">
        <ele>1516.8000488281</ele>
        <time>2022-08-20T12:57:28.000Z</time>
      </trkpt>
      <trkpt lat="44.08523" lon="6.95605">
        <ele>1517.4000244141</ele>
        <time>2022-08-20T12:57:32.000Z</time>
      </trkpt>
      <trkpt lat="44.08522" lon="6.95603">
        <ele>1517.4000244141</ele>
        <time>2022-08-20T12:57:33.000Z</time>
      </trkpt>
      <trkpt lat="44.08515" lon="6.95594">
        <ele>1518.5999755859</ele>
        <time>2022-08-20T12:57:38.000Z</time>
      </trkpt>
      <trkpt lat="44.08506" lon="6.95584">
        <ele>1519.8000488281</ele>
        <time>2022-08-20T12:57:42.000Z</time>
      </trkpt>
      <trkpt lat="44.08502" lon="6.9558">
        <ele>1520.5999755859</ele>
        <time>2022-08-20T12:57:44.000Z</time>
      </trkpt>
      <trkpt lat="44.08497" lon="6.95576">
        <ele>1521.1999511719</ele>
        <time>2022-08-20T12:57:46.000Z</time>
      </trkpt>
      <trkpt lat="44.08492" lon="6.95574">
        <ele>1521.8000488281</ele>
        <time>2022-08-20T12:57:48.000Z</time>
      </trkpt>
      <trkpt lat="44.0849" lon="6.95574">
        <ele>1522.1999511719</ele>
        <time>2022-08-20T12:57:49.000Z</time>
      </trkpt>
      <trkpt lat="44.08486" lon="6.95575">
        <ele>1523.4000244141</ele>
        <time>2022-08-20T12:57:51.000Z</time>
      </trkpt>
      <trkpt lat="44.08481" lon="6.95575">
        <ele>1524.4000244141</ele>
        <time>2022-08-20T12:57:53.000Z</time>
      </trkpt>
      <trkpt lat="44.0848" lon="6.95574">
        <ele>1524.8000488281</ele>
        <time>2022-08-20T12:57:54.000Z</time>
      </trkpt>
      <trkpt lat="44.08478" lon="6.95568">
        <ele>1525.8000488281</ele>
        <time>2022-08-20T12:57:56.000Z</time>
      </trkpt>
      <trkpt lat="44.08477" lon="6.95566">
        <ele>1526.1999511719</ele>
        <time>2022-08-20T12:57:57.000Z</time>
      </trkpt>
      <trkpt lat="44.08475" lon="6.95563">
        <ele>1527</ele>
        <time>2022-08-20T12:57:59.000Z</time>
      </trkpt>
      <trkpt lat="44.0847" lon="6.95558">
        <ele>1528</ele>
        <time>2022-08-20T12:58:02.000Z</time>
      </trkpt>
      <trkpt lat="44.08468" lon="6.95555">
        <ele>1529.1999511719</ele>
        <time>2022-08-20T12:58:04.000Z</time>
      </trkpt>
      <trkpt lat="44.08465" lon="6.9555">
        <ele>1529.8000488281</ele>
        <time>2022-08-20T12:58:06.000Z</time>
      </trkpt>
      <trkpt lat="44.08464" lon="6.95548">
        <ele>1530.1999511719</ele>
        <time>2022-08-20T12:58:07.000Z</time>
      </trkpt>
      <trkpt lat="44.08461" lon="6.95541">
        <ele>1531.8000488281</ele>
        <time>2022-08-20T12:58:10.000Z</time>
      </trkpt>
      <trkpt lat="44.08459" lon="6.95537">
        <ele>1533</ele>
        <time>2022-08-20T12:58:12.000Z</time>
      </trkpt>
      <trkpt lat="44.08457" lon="6.95536">
        <ele>1533.5999755859</ele>
        <time>2022-08-20T12:58:13.000Z</time>
      </trkpt>
      <trkpt lat="44.08454" lon="6.95532">
        <ele>1534.1999511719</ele>
        <time>2022-08-20T12:58:15.000Z</time>
      </trkpt>
      <trkpt lat="44.08447" lon="6.95523">
        <ele>1535.1999511719</ele>
        <time>2022-08-20T12:58:20.000Z</time>
      </trkpt>
      <trkpt lat="44.08446" lon="6.95521">
        <ele>1535.5999755859</ele>
        <time>2022-08-20T12:58:21.000Z</time>
      </trkpt>
      <trkpt lat="44.08441" lon="6.95516">
        <ele>1536.4000244141</ele>
        <time>2022-08-20T12:58:24.000Z</time>
      </trkpt>
      <trkpt lat="44.08437" lon="6.95511">
        <ele>1537.5999755859</ele>
        <time>2022-08-20T12:58:27.000Z</time>
      </trkpt>
      <trkpt lat="44.08435" lon="6.95509">
        <ele>1537.8000488281</ele>
        <time>2022-08-20T12:58:28.000Z</time>
      </trkpt>
      <trkpt lat="44.0843" lon="6.95503">
        <ele>1538.5999755859</ele>
        <time>2022-08-20T12:58:31.000Z</time>
      </trkpt>
      <trkpt lat="44.08424" lon="6.95494">
        <ele>1539.5999755859</ele>
        <time>2022-08-20T12:58:35.000Z</time>
      </trkpt>
      <trkpt lat="44.08423" lon="6.95491">
        <ele>1539.5999755859</ele>
        <time>2022-08-20T12:58:36.000Z</time>
      </trkpt>
      <trkpt lat="44.0841" lon="6.95467">
        <ele>1539</ele>
        <time>2022-08-20T12:58:44.000Z</time>
      </trkpt>
      <trkpt lat="44.08393" lon="6.95441">
        <ele>1539.1999511719</ele>
        <time>2022-08-20T12:58:53.000Z</time>
      </trkpt>
      <trkpt lat="44.08386" lon="6.95419">
        <ele>1540</ele>
        <time>2022-08-20T12:58:59.000Z</time>
      </trkpt>
      <trkpt lat="44.08388" lon="6.95395">
        <ele>1540.5999755859</ele>
        <time>2022-08-20T12:59:05.000Z</time>
      </trkpt>
      <trkpt lat="44.08388" lon="6.95391">
        <ele>1541</ele>
        <time>2022-08-20T12:59:06.000Z</time>
      </trkpt>
      <trkpt lat="44.08386" lon="6.95368">
        <ele>1542</ele>
        <time>2022-08-20T12:59:12.000Z</time>
      </trkpt>
      <trkpt lat="44.08385" lon="6.95365">
        <ele>1542.1999511719</ele>
        <time>2022-08-20T12:59:13.000Z</time>
      </trkpt>
      <trkpt lat="44.08379" lon="6.95348">
        <ele>1543.1999511719</ele>
        <time>2022-08-20T12:59:18.000Z</time>
      </trkpt>
      <trkpt lat="44.08374" lon="6.9534">
        <ele>1544</ele>
        <time>2022-08-20T12:59:21.000Z</time>
      </trkpt>
      <trkpt lat="44.0837" lon="6.95334">
        <ele>1544.1999511719</ele>
        <time>2022-08-20T12:59:23.000Z</time>
      </trkpt>
      <trkpt lat="44.08361" lon="6.95327">
        <ele>1545.1999511719</ele>
        <time>2022-08-20T12:59:27.000Z</time>
      </trkpt>
      <trkpt lat="44.08358" lon="6.95326">
        <ele>1545.4000244141</ele>
        <time>2022-08-20T12:59:28.000Z</time>
      </trkpt>
      <trkpt lat="44.08345" lon="6.95319">
        <ele>1546.8000488281</ele>
        <time>2022-08-20T12:59:33.000Z</time>
      </trkpt>
      <trkpt lat="44.08343" lon="6.95317">
        <ele>1547.1999511719</ele>
        <time>2022-08-20T12:59:34.000Z</time>
      </trkpt>
      <trkpt lat="44.08337" lon="6.95314">
        <ele>1548.1999511719</ele>
        <time>2022-08-20T12:59:37.000Z</time>
      </trkpt>
      <trkpt lat="44.08334" lon="6.95313">
        <ele>1548.5999755859</ele>
        <time>2022-08-20T12:59:38.000Z</time>
      </trkpt>
      <trkpt lat="44.08329" lon="6.9531">
        <ele>1549.4000244141</ele>
        <time>2022-08-20T12:59:40.000Z</time>
      </trkpt>
      <trkpt lat="44.08322" lon="6.95309">
        <ele>1550.5999755859</ele>
        <time>2022-08-20T12:59:43.000Z</time>
      </trkpt>
      <trkpt lat="44.0832" lon="6.95309">
        <ele>1550.8000488281</ele>
        <time>2022-08-20T12:59:44.000Z</time>
      </trkpt>
      <trkpt lat="44.08314" lon="6.95311">
        <ele>1551.8000488281</ele>
        <time>2022-08-20T12:59:47.000Z</time>
      </trkpt>
      <trkpt lat="44.08309" lon="6.95313">
        <ele>1552.5999755859</ele>
        <time>2022-08-20T12:59:49.000Z</time>
      </trkpt>
      <trkpt lat="44.08307" lon="6.95314">
        <ele>1553.1999511719</ele>
        <time>2022-08-20T12:59:50.000Z</time>
      </trkpt>
      <trkpt lat="44.08301" lon="6.95318">
        <ele>1554.4000244141</ele>
        <time>2022-08-20T12:59:53.000Z</time>
      </trkpt>
      <trkpt lat="44.08296" lon="6.9532">
        <ele>1555.4000244141</ele>
        <time>2022-08-20T12:59:55.000Z</time>
      </trkpt>
      <trkpt lat="44.08294" lon="6.95321">
        <ele>1555.8000488281</ele>
        <time>2022-08-20T12:59:56.000Z</time>
      </trkpt>
      <trkpt lat="44.0829" lon="6.95324">
        <ele>1556.8000488281</ele>
        <time>2022-08-20T12:59:58.000Z</time>
      </trkpt>
      <trkpt lat="44.08285" lon="6.95328">
        <ele>1557.8000488281</ele>
        <time>2022-08-20T13:00:01.000Z</time>
      </trkpt>
      <trkpt lat="44.08282" lon="6.95331">
        <ele>1558.8000488281</ele>
        <time>2022-08-20T13:00:03.000Z</time>
      </trkpt>
      <trkpt lat="44.0828" lon="6.95333">
        <ele>1559.1999511719</ele>
        <time>2022-08-20T13:00:04.000Z</time>
      </trkpt>
      <trkpt lat="44.08275" lon="6.95339">
        <ele>1560.1999511719</ele>
        <time>2022-08-20T13:00:07.000Z</time>
      </trkpt>
      <trkpt lat="44.08272" lon="6.95343">
        <ele>1560.8000488281</ele>
        <time>2022-08-20T13:00:09.000Z</time>
      </trkpt>
      <trkpt lat="44.0827" lon="6.95344">
        <ele>1561.1999511719</ele>
        <time>2022-08-20T13:00:10.000Z</time>
      </trkpt>
      <trkpt lat="44.08265" lon="6.95348">
        <ele>1562.4000244141</ele>
        <time>2022-08-20T13:00:13.000Z</time>
      </trkpt>
      <trkpt lat="44.08261" lon="6.95348">
        <ele>1563.4000244141</ele>
        <time>2022-08-20T13:00:15.000Z</time>
      </trkpt>
      <trkpt lat="44.0826" lon="6.95346">
        <ele>1563.5999755859</ele>
        <time>2022-08-20T13:00:16.000Z</time>
      </trkpt>
      <trkpt lat="44.0826" lon="6.95343">
        <ele>1564.1999511719</ele>
        <time>2022-08-20T13:00:17.000Z</time>
      </trkpt>
      <trkpt lat="44.08259" lon="6.95337">
        <ele>1564.8000488281</ele>
        <time>2022-08-20T13:00:19.000Z</time>
      </trkpt>
      <trkpt lat="44.08258" lon="6.95332">
        <ele>1565.4000244141</ele>
        <time>2022-08-20T13:00:21.000Z</time>
      </trkpt>
      <trkpt lat="44.08258" lon="6.9533">
        <ele>1565.8000488281</ele>
        <time>2022-08-20T13:00:22.000Z</time>
      </trkpt>
      <trkpt lat="44.08257" lon="6.95327">
        <ele>1566.1999511719</ele>
        <time>2022-08-20T13:00:23.000Z</time>
      </trkpt>
      <trkpt lat="44.08254" lon="6.95317">
        <ele>1567.5999755859</ele>
        <time>2022-08-20T13:00:27.000Z</time>
      </trkpt>
      <trkpt lat="44.08253" lon="6.95313">
        <ele>1568.1999511719</ele>
        <time>2022-08-20T13:00:29.000Z</time>
      </trkpt>
      <trkpt lat="44.08252" lon="6.9531">
        <ele>1568.8000488281</ele>
        <time>2022-08-20T13:00:30.000Z</time>
      </trkpt>
      <trkpt lat="44.08248" lon="6.95304">
        <ele>1570</ele>
        <time>2022-08-20T13:00:33.000Z</time>
      </trkpt>
      <trkpt lat="44.08245" lon="6.953">
        <ele>1570.8000488281</ele>
        <time>2022-08-20T13:00:35.000Z</time>
      </trkpt>
      <trkpt lat="44.08244" lon="6.95298">
        <ele>1571</ele>
        <time>2022-08-20T13:00:36.000Z</time>
      </trkpt>
      <trkpt lat="44.0824" lon="6.9529">
        <ele>1572</ele>
        <time>2022-08-20T13:00:40.000Z</time>
      </trkpt>
      <trkpt lat="44.08238" lon="6.95286">
        <ele>1572.4000244141</ele>
        <time>2022-08-20T13:00:42.000Z</time>
      </trkpt>
      <trkpt lat="44.08235" lon="6.9528">
        <ele>1573.4000244141</ele>
        <time>2022-08-20T13:00:45.000Z</time>
      </trkpt>
      <trkpt lat="44.08232" lon="6.95273">
        <ele>1574.4000244141</ele>
        <time>2022-08-20T13:00:48.000Z</time>
      </trkpt>
      <trkpt lat="44.08227" lon="6.95261">
        <ele>1575.8000488281</ele>
        <time>2022-08-20T13:00:53.000Z</time>
      </trkpt>
      <trkpt lat="44.08229" lon="6.9525">
        <ele>1577</ele>
        <time>2022-08-20T13:00:57.000Z</time>
      </trkpt>
      <trkpt lat="44.0823" lon="6.95247">
        <ele>1577.1999511719</ele>
        <time>2022-08-20T13:00:58.000Z</time>
      </trkpt>
      <trkpt lat="44.08232" lon="6.95239">
        <ele>1578.4000244141</ele>
        <time>2022-08-20T13:01:01.000Z</time>
      </trkpt>
      <trkpt lat="44.08234" lon="6.95231">
        <ele>1579.5999755859</ele>
        <time>2022-08-20T13:01:04.000Z</time>
      </trkpt>
      <trkpt lat="44.08236" lon="6.95226">
        <ele>1580.4000244141</ele>
        <time>2022-08-20T13:01:06.000Z</time>
      </trkpt>
      <trkpt lat="44.08237" lon="6.95224">
        <ele>1580.5999755859</ele>
        <time>2022-08-20T13:01:07.000Z</time>
      </trkpt>
      <trkpt lat="44.0824" lon="6.95215">
        <ele>1582</ele>
        <time>2022-08-20T13:01:11.000Z</time>
      </trkpt>
      <trkpt lat="44.08241" lon="6.95212">
        <ele>1582.4000244141</ele>
        <time>2022-08-20T13:01:12.000Z</time>
      </trkpt>
      <trkpt lat="44.08243" lon="6.95205">
        <ele>1583.1999511719</ele>
        <time>2022-08-20T13:01:15.000Z</time>
      </trkpt>
      <trkpt lat="44.08246" lon="6.95197">
        <ele>1584</ele>
        <time>2022-08-20T13:01:18.000Z</time>
      </trkpt>
      <trkpt lat="44.08247" lon="6.95195">
        <ele>1584.4000244141</ele>
        <time>2022-08-20T13:01:19.000Z</time>
      </trkpt>
      <trkpt lat="44.08251" lon="6.95188">
        <ele>1585.8000488281</ele>
        <time>2022-08-20T13:01:22.000Z</time>
      </trkpt>
      <trkpt lat="44.08253" lon="6.95184">
        <ele>1586.5999755859</ele>
        <time>2022-08-20T13:01:24.000Z</time>
      </trkpt>
      <trkpt lat="44.08254" lon="6.95182">
        <ele>1587</ele>
        <time>2022-08-20T13:01:25.000Z</time>
      </trkpt>
      <trkpt lat="44.08257" lon="6.95175">
        <ele>1588</ele>
        <time>2022-08-20T13:01:28.000Z</time>
      </trkpt>
      <trkpt lat="44.08263" lon="6.95167">
        <ele>1589.4000244141</ele>
        <time>2022-08-20T13:01:32.000Z</time>
      </trkpt>
      <trkpt lat="44.08269" lon="6.95161">
        <ele>1590.5999755859</ele>
        <time>2022-08-20T13:01:36.000Z</time>
      </trkpt>
      <trkpt lat="44.08274" lon="6.95157">
        <ele>1591.5999755859</ele>
        <time>2022-08-20T13:01:39.000Z</time>
      </trkpt>
      <trkpt lat="44.08278" lon="6.9515">
        <ele>1592.5999755859</ele>
        <time>2022-08-20T13:01:42.000Z</time>
      </trkpt>
      <trkpt lat="44.08282" lon="6.95144">
        <ele>1594</ele>
        <time>2022-08-20T13:01:45.000Z</time>
      </trkpt>
      <trkpt lat="44.08287" lon="6.95139">
        <ele>1595.4000244141</ele>
        <time>2022-08-20T13:01:48.000Z</time>
      </trkpt>
      <trkpt lat="44.0829" lon="6.95133">
        <ele>1596.5999755859</ele>
        <time>2022-08-20T13:01:51.000Z</time>
      </trkpt>
      <trkpt lat="44.08292" lon="6.95126">
        <ele>1597.5999755859</ele>
        <time>2022-08-20T13:01:54.000Z</time>
      </trkpt>
      <trkpt lat="44.08294" lon="6.95118">
        <ele>1598.8000488281</ele>
        <time>2022-08-20T13:01:57.000Z</time>
      </trkpt>
      <trkpt lat="44.08294" lon="6.95115">
        <ele>1599.1999511719</ele>
        <time>2022-08-20T13:01:58.000Z</time>
      </trkpt>
      <trkpt lat="44.08293" lon="6.9511">
        <ele>1600</ele>
        <time>2022-08-20T13:02:00.000Z</time>
      </trkpt>
      <trkpt lat="44.08292" lon="6.95101">
        <ele>1601.4000244141</ele>
        <time>2022-08-20T13:02:03.000Z</time>
      </trkpt>
      <trkpt lat="44.0829" lon="6.95094">
        <ele>1602.8000488281</ele>
        <time>2022-08-20T13:02:06.000Z</time>
      </trkpt>
      <trkpt lat="44.0829" lon="6.95091">
        <ele>1603</ele>
        <time>2022-08-20T13:02:07.000Z</time>
      </trkpt>
      <trkpt lat="44.08287" lon="6.95084">
        <ele>1603.8000488281</ele>
        <time>2022-08-20T13:02:10.000Z</time>
      </trkpt>
      <trkpt lat="44.08285" lon="6.95076">
        <ele>1604.8000488281</ele>
        <time>2022-08-20T13:02:13.000Z</time>
      </trkpt>
      <trkpt lat="44.08285" lon="6.95074">
        <ele>1605.1999511719</ele>
        <time>2022-08-20T13:02:14.000Z</time>
      </trkpt>
      <trkpt lat="44.08282" lon="6.95067">
        <ele>1606.1999511719</ele>
        <time>2022-08-20T13:02:17.000Z</time>
      </trkpt>
      <trkpt lat="44.08279" lon="6.95063">
        <ele>1606.5999755859</ele>
        <time>2022-08-20T13:02:19.000Z</time>
      </trkpt>
      <trkpt lat="44.08276" lon="6.95057">
        <ele>1607.4000244141</ele>
        <time>2022-08-20T13:02:22.000Z</time>
      </trkpt>
      <trkpt lat="44.08271" lon="6.95051">
        <ele>1608.5999755859</ele>
        <time>2022-08-20T13:02:25.000Z</time>
      </trkpt>
      <trkpt lat="44.08266" lon="6.95043">
        <ele>1609.5999755859</ele>
        <time>2022-08-20T13:02:29.000Z</time>
      </trkpt>
      <trkpt lat="44.08265" lon="6.9504">
        <ele>1610.1999511719</ele>
        <time>2022-08-20T13:02:30.000Z</time>
      </trkpt>
      <trkpt lat="44.08264" lon="6.95038">
        <ele>1610.5999755859</ele>
        <time>2022-08-20T13:02:31.000Z</time>
      </trkpt>
      <trkpt lat="44.08264" lon="6.95035">
        <ele>1611</ele>
        <time>2022-08-20T13:02:32.000Z</time>
      </trkpt>
      <trkpt lat="44.08265" lon="6.95031">
        <ele>1612</ele>
        <time>2022-08-20T13:02:34.000Z</time>
      </trkpt>
      <trkpt lat="44.08265" lon="6.95028">
        <ele>1613</ele>
        <time>2022-08-20T13:02:36.000Z</time>
      </trkpt>
      <trkpt lat="44.08266" lon="6.95022">
        <ele>1614.4000244141</ele>
        <time>2022-08-20T13:02:39.000Z</time>
      </trkpt>
      <trkpt lat="44.08267" lon="6.9502">
        <ele>1614.8000488281</ele>
        <time>2022-08-20T13:02:40.000Z</time>
      </trkpt>
      <trkpt lat="44.0827" lon="6.95017">
        <ele>1615.4000244141</ele>
        <time>2022-08-20T13:02:42.000Z</time>
      </trkpt>
      <trkpt lat="44.08275" lon="6.95015">
        <ele>1616.4000244141</ele>
        <time>2022-08-20T13:02:45.000Z</time>
      </trkpt>
      <trkpt lat="44.08279" lon="6.95014">
        <ele>1617</ele>
        <time>2022-08-20T13:02:47.000Z</time>
      </trkpt>
      <trkpt lat="44.0828" lon="6.95012">
        <ele>1617.1999511719</ele>
        <time>2022-08-20T13:02:48.000Z</time>
      </trkpt>
      <trkpt lat="44.08284" lon="6.9501">
        <ele>1617.4000244141</ele>
        <time>2022-08-20T13:02:50.000Z</time>
      </trkpt>
      <trkpt lat="44.08289" lon="6.95004">
        <ele>1618</ele>
        <time>2022-08-20T13:02:53.000Z</time>
      </trkpt>
      <trkpt lat="44.0829" lon="6.95002">
        <ele>1618.4000244141</ele>
        <time>2022-08-20T13:02:54.000Z</time>
      </trkpt>
      <trkpt lat="44.08291" lon="6.95001">
        <ele>1618.8000488281</ele>
        <time>2022-08-20T13:02:55.000Z</time>
      </trkpt>
      <trkpt lat="44.08294" lon="6.94999">
        <ele>1620</ele>
        <time>2022-08-20T13:02:57.000Z</time>
      </trkpt>
      <trkpt lat="44.08296" lon="6.94998">
        <ele>1620.5999755859</ele>
        <time>2022-08-20T13:02:58.000Z</time>
      </trkpt>
      <trkpt lat="44.08298" lon="6.94995">
        <ele>1621.1999511719</ele>
        <time>2022-08-20T13:03:00.000Z</time>
      </trkpt>
      <trkpt lat="44.08307" lon="6.94987">
        <ele>1622.1999511719</ele>
        <time>2022-08-20T13:03:06.000Z</time>
      </trkpt>
      <trkpt lat="44.08311" lon="6.94977">
        <ele>1623.5999755859</ele>
        <time>2022-08-20T13:03:11.000Z</time>
      </trkpt>
      <trkpt lat="44.08313" lon="6.94972">
        <ele>1624.1999511719</ele>
        <time>2022-08-20T13:03:13.000Z</time>
      </trkpt>
      <trkpt lat="44.08315" lon="6.94968">
        <ele>1624.5999755859</ele>
        <time>2022-08-20T13:03:15.000Z</time>
      </trkpt>
      <trkpt lat="44.08323" lon="6.94961">
        <ele>1625.1999511719</ele>
        <time>2022-08-20T13:03:19.000Z</time>
      </trkpt>
      <trkpt lat="44.08326" lon="6.94958">
        <ele>1625.5999755859</ele>
        <time>2022-08-20T13:03:21.000Z</time>
      </trkpt>
      <trkpt lat="44.08331" lon="6.94954">
        <ele>1626.8000488281</ele>
        <time>2022-08-20T13:03:24.000Z</time>
      </trkpt>
      <trkpt lat="44.08333" lon="6.9495">
        <ele>1628</ele>
        <time>2022-08-20T13:03:26.000Z</time>
      </trkpt>
      <trkpt lat="44.08335" lon="6.94946">
        <ele>1629</ele>
        <time>2022-08-20T13:03:28.000Z</time>
      </trkpt>
      <trkpt lat="44.08338" lon="6.9494">
        <ele>1630.1999511719</ele>
        <time>2022-08-20T13:03:31.000Z</time>
      </trkpt>
      <trkpt lat="44.08341" lon="6.94932">
        <ele>1631.1999511719</ele>
        <time>2022-08-20T13:03:34.000Z</time>
      </trkpt>
      <trkpt lat="44.08346" lon="6.94925">
        <ele>1632.4000244141</ele>
        <time>2022-08-20T13:03:38.000Z</time>
      </trkpt>
      <trkpt lat="44.0835" lon="6.94915">
        <ele>1633.5999755859</ele>
        <time>2022-08-20T13:03:42.000Z</time>
      </trkpt>
      <trkpt lat="44.08352" lon="6.94907">
        <ele>1634.5999755859</ele>
        <time>2022-08-20T13:03:45.000Z</time>
      </trkpt>
      <trkpt lat="44.08353" lon="6.94903">
        <ele>1635.4000244141</ele>
        <time>2022-08-20T13:03:47.000Z</time>
      </trkpt>
      <trkpt lat="44.08352" lon="6.94902">
        <ele>1635.8000488281</ele>
        <time>2022-08-20T13:03:48.000Z</time>
      </trkpt>
      <trkpt lat="44.08352" lon="6.94902">
        <ele>1637</ele>
        <time>2022-08-20T13:03:51.000Z</time>
      </trkpt>
      <trkpt lat="44.08352" lon="6.94899">
        <ele>1637.1999511719</ele>
        <time>2022-08-20T13:03:57.000Z</time>
      </trkpt>
      <trkpt lat="44.08352" lon="6.94897">
        <ele>1638</ele>
        <time>2022-08-20T13:04:00.000Z</time>
      </trkpt>
      <trkpt lat="44.08351" lon="6.94894">
        <ele>1638.5999755859</ele>
        <time>2022-08-20T13:04:05.000Z</time>
      </trkpt>
      <trkpt lat="44.08351" lon="6.94892">
        <ele>1639.1999511719</ele>
        <time>2022-08-20T13:04:08.000Z</time>
      </trkpt>
      <trkpt lat="44.08351" lon="6.94891">
        <ele>1639.8000488281</ele>
        <time>2022-08-20T13:04:12.000Z</time>
      </trkpt>
      <trkpt lat="44.08351" lon="6.9489">
        <ele>1640.1999511719</ele>
        <time>2022-08-20T13:04:14.000Z</time>
      </trkpt>
      <trkpt lat="44.0835" lon="6.94889">
        <ele>1640.1999511719</ele>
        <time>2022-08-20T13:04:17.000Z</time>
      </trkpt>
      <trkpt lat="44.08351" lon="6.94886">
        <ele>1640.4000244141</ele>
        <time>2022-08-20T13:04:25.000Z</time>
      </trkpt>
      <trkpt lat="44.08352" lon="6.94882">
        <ele>1640.4000244141</ele>
        <time>2022-08-20T13:04:27.000Z</time>
      </trkpt>
      <trkpt lat="44.08355" lon="6.94877">
        <ele>1641</ele>
        <time>2022-08-20T13:04:30.000Z</time>
      </trkpt>
      <trkpt lat="44.08357" lon="6.94876">
        <ele>1641.1999511719</ele>
        <time>2022-08-20T13:04:31.000Z</time>
      </trkpt>
      <trkpt lat="44.0836" lon="6.94874">
        <ele>1641.5999755859</ele>
        <time>2022-08-20T13:04:33.000Z</time>
      </trkpt>
      <trkpt lat="44.08363" lon="6.94871">
        <ele>1642.5999755859</ele>
        <time>2022-08-20T13:04:35.000Z</time>
      </trkpt>
      <trkpt lat="44.08365" lon="6.94869">
        <ele>1643.8000488281</ele>
        <time>2022-08-20T13:04:37.000Z</time>
      </trkpt>
      <trkpt lat="44.08367" lon="6.94867">
        <ele>1644.4000244141</ele>
        <time>2022-08-20T13:04:38.000Z</time>
      </trkpt>
      <trkpt lat="44.08368" lon="6.94866">
        <ele>1645</ele>
        <time>2022-08-20T13:04:39.000Z</time>
      </trkpt>
      <trkpt lat="44.08373" lon="6.94864">
        <ele>1646.1999511719</ele>
        <time>2022-08-20T13:04:42.000Z</time>
      </trkpt>
      <trkpt lat="44.08376" lon="6.94861">
        <ele>1647</ele>
        <time>2022-08-20T13:04:44.000Z</time>
      </trkpt>
      <trkpt lat="44.08377" lon="6.9486">
        <ele>1647.1999511719</ele>
        <time>2022-08-20T13:04:45.000Z</time>
      </trkpt>
      <trkpt lat="44.08379" lon="6.94854">
        <ele>1648.1999511719</ele>
        <time>2022-08-20T13:04:48.000Z</time>
      </trkpt>
      <trkpt lat="44.0838" lon="6.94852">
        <ele>1648.5999755859</ele>
        <time>2022-08-20T13:04:49.000Z</time>
      </trkpt>
      <trkpt lat="44.08381" lon="6.9485">
        <ele>1649</ele>
        <time>2022-08-20T13:04:50.000Z</time>
      </trkpt>
      <trkpt lat="44.08383" lon="6.94849">
        <ele>1649.1999511719</ele>
        <time>2022-08-20T13:04:51.000Z</time>
      </trkpt>
      <trkpt lat="44.08385" lon="6.94846">
        <ele>1650.4000244141</ele>
        <time>2022-08-20T13:04:53.000Z</time>
      </trkpt>
      <trkpt lat="44.08389" lon="6.9484">
        <ele>1651.5999755859</ele>
        <time>2022-08-20T13:04:56.000Z</time>
      </trkpt>
      <trkpt lat="44.0839" lon="6.94835">
        <ele>1652</ele>
        <time>2022-08-20T13:04:58.000Z</time>
      </trkpt>
      <trkpt lat="44.08392" lon="6.94824">
        <ele>1652.8000488281</ele>
        <time>2022-08-20T13:05:03.000Z</time>
      </trkpt>
      <trkpt lat="44.08395" lon="6.94819">
        <ele>1653.1999511719</ele>
        <time>2022-08-20T13:05:05.000Z</time>
      </trkpt>
      <trkpt lat="44.08401" lon="6.94807">
        <ele>1653.5999755859</ele>
        <time>2022-08-20T13:05:08.000Z</time>
      </trkpt>
      <trkpt lat="44.08405" lon="6.94803">
        <ele>1653.5999755859</ele>
        <time>2022-08-20T13:05:09.000Z</time>
      </trkpt>
      <trkpt lat="44.08416" lon="6.94788">
        <ele>1651.5999755859</ele>
        <time>2022-08-20T13:05:13.000Z</time>
      </trkpt>
      <trkpt lat="44.08418" lon="6.94786">
        <ele>1651.1999511719</ele>
        <time>2022-08-20T13:05:14.000Z</time>
      </trkpt>
      <trkpt lat="44.08431" lon="6.94762">
        <ele>1652.4000244141</ele>
        <time>2022-08-20T13:05:22.000Z</time>
      </trkpt>
      <trkpt lat="44.08434" lon="6.94757">
        <ele>1652.8000488281</ele>
        <time>2022-08-20T13:05:24.000Z</time>
      </trkpt>
      <trkpt lat="44.08439" lon="6.94745">
        <ele>1653.8000488281</ele>
        <time>2022-08-20T13:05:28.000Z</time>
      </trkpt>
      <trkpt lat="44.0844" lon="6.94734">
        <ele>1655</ele>
        <time>2022-08-20T13:05:31.000Z</time>
      </trkpt>
      <trkpt lat="44.08442" lon="6.94727">
        <ele>1656</ele>
        <time>2022-08-20T13:05:33.000Z</time>
      </trkpt>
      <trkpt lat="44.08442" lon="6.94725">
        <ele>1656.4000244141</ele>
        <time>2022-08-20T13:05:34.000Z</time>
      </trkpt>
      <trkpt lat="44.08443" lon="6.9472">
        <ele>1657.4000244141</ele>
        <time>2022-08-20T13:05:36.000Z</time>
      </trkpt>
      <trkpt lat="44.08447" lon="6.94714">
        <ele>1658.5999755859</ele>
        <time>2022-08-20T13:05:39.000Z</time>
      </trkpt>
      <trkpt lat="44.0845" lon="6.94707">
        <ele>1659.8000488281</ele>
        <time>2022-08-20T13:05:42.000Z</time>
      </trkpt>
      <trkpt lat="44.0845" lon="6.94699">
        <ele>1661</ele>
        <time>2022-08-20T13:05:45.000Z</time>
      </trkpt>
      <trkpt lat="44.0845" lon="6.94696">
        <ele>1661.5999755859</ele>
        <time>2022-08-20T13:05:46.000Z</time>
      </trkpt>
      <trkpt lat="44.0845" lon="6.94693">
        <ele>1662.1999511719</ele>
        <time>2022-08-20T13:05:47.000Z</time>
      </trkpt>
      <trkpt lat="44.08448" lon="6.94685">
        <ele>1663.4000244141</ele>
        <time>2022-08-20T13:05:50.000Z</time>
      </trkpt>
      <trkpt lat="44.08447" lon="6.94673">
        <ele>1664.4000244141</ele>
        <time>2022-08-20T13:05:54.000Z</time>
      </trkpt>
      <trkpt lat="44.08446" lon="6.9467">
        <ele>1664.5999755859</ele>
        <time>2022-08-20T13:05:55.000Z</time>
      </trkpt>
      <trkpt lat="44.08447" lon="6.9466">
        <ele>1665.1999511719</ele>
        <time>2022-08-20T13:05:59.000Z</time>
      </trkpt>
      <trkpt lat="44.08446" lon="6.94657">
        <ele>1665.5999755859</ele>
        <time>2022-08-20T13:06:00.000Z</time>
      </trkpt>
      <trkpt lat="44.08449" lon="6.94635">
        <ele>1666.4000244141</ele>
        <time>2022-08-20T13:06:06.000Z</time>
      </trkpt>
      <trkpt lat="44.08457" lon="6.94629">
        <ele>1666.5999755859</ele>
        <time>2022-08-20T13:06:10.000Z</time>
      </trkpt>
      <trkpt lat="44.08465" lon="6.94623">
        <ele>1667.8000488281</ele>
        <time>2022-08-20T13:06:14.000Z</time>
      </trkpt>
      <trkpt lat="44.08466" lon="6.94619">
        <ele>1668</ele>
        <time>2022-08-20T13:06:15.000Z</time>
      </trkpt>
      <trkpt lat="44.08476" lon="6.94601">
        <ele>1668.1999511719</ele>
        <time>2022-08-20T13:06:20.000Z</time>
      </trkpt>
      <trkpt lat="44.08484" lon="6.94582">
        <ele>1667.5999755859</ele>
        <time>2022-08-20T13:06:25.000Z</time>
      </trkpt>
      <trkpt lat="44.08486" lon="6.9457">
        <ele>1667.4000244141</ele>
        <time>2022-08-20T13:06:27.000Z</time>
      </trkpt>
      <trkpt lat="44.08486" lon="6.94555">
        <ele>1666.8000488281</ele>
        <time>2022-08-20T13:06:29.000Z</time>
      </trkpt>
      <trkpt lat="44.08486" lon="6.94546">
        <ele>1666.1999511719</ele>
        <time>2022-08-20T13:06:30.000Z</time>
      </trkpt>
      <trkpt lat="44.08486" lon="6.94534">
        <ele>1665</ele>
        <time>2022-08-20T13:06:32.000Z</time>
      </trkpt>
      <trkpt lat="44.08488" lon="6.94526">
        <ele>1664.4000244141</ele>
        <time>2022-08-20T13:06:34.000Z</time>
      </trkpt>
      <trkpt lat="44.08496" lon="6.94502">
        <ele>1665.5999755859</ele>
        <time>2022-08-20T13:06:39.000Z</time>
      </trkpt>
      <trkpt lat="44.08498" lon="6.94497">
        <ele>1665.8000488281</ele>
        <time>2022-08-20T13:06:40.000Z</time>
      </trkpt>
      <trkpt lat="44.08506" lon="6.94477">
        <ele>1665.1999511719</ele>
        <time>2022-08-20T13:06:45.000Z</time>
      </trkpt>
      <trkpt lat="44.08509" lon="6.94459">
        <ele>1666</ele>
        <time>2022-08-20T13:06:50.000Z</time>
      </trkpt>
      <trkpt lat="44.08511" lon="6.9445">
        <ele>1666.1999511719</ele>
        <time>2022-08-20T13:06:52.000Z</time>
      </trkpt>
      <trkpt lat="44.08514" lon="6.94414">
        <ele>1665</ele>
        <time>2022-08-20T13:06:59.000Z</time>
      </trkpt>
      <trkpt lat="44.08519" lon="6.94389">
        <ele>1666.1999511719</ele>
        <time>2022-08-20T13:07:05.000Z</time>
      </trkpt>
      <trkpt lat="44.08524" lon="6.94375">
        <ele>1667.4000244141</ele>
        <time>2022-08-20T13:07:09.000Z</time>
      </trkpt>
      <trkpt lat="44.08527" lon="6.94362">
        <ele>1668</ele>
        <time>2022-08-20T13:07:12.000Z</time>
      </trkpt>
      <trkpt lat="44.0853" lon="6.9435">
        <ele>1668.4000244141</ele>
        <time>2022-08-20T13:07:14.000Z</time>
      </trkpt>
      <trkpt lat="44.08535" lon="6.9433">
        <ele>1668</ele>
        <time>2022-08-20T13:07:17.000Z</time>
      </trkpt>
      <trkpt lat="44.08537" lon="6.94315">
        <ele>1667.1999511719</ele>
        <time>2022-08-20T13:07:19.000Z</time>
      </trkpt>
      <trkpt lat="44.0854" lon="6.94288">
        <ele>1666.5999755859</ele>
        <time>2022-08-20T13:07:23.000Z</time>
      </trkpt>
      <trkpt lat="44.08541" lon="6.94282">
        <ele>1666.8000488281</ele>
        <time>2022-08-20T13:07:24.000Z</time>
      </trkpt>
      <trkpt lat="44.0854" lon="6.94254">
        <ele>1667.4000244141</ele>
        <time>2022-08-20T13:07:28.000Z</time>
      </trkpt>
      <trkpt lat="44.08538" lon="6.94235">
        <ele>1667.1999511719</ele>
        <time>2022-08-20T13:07:32.000Z</time>
      </trkpt>
      <trkpt lat="44.08538" lon="6.94215">
        <ele>1667.1999511719</ele>
        <time>2022-08-20T13:07:36.000Z</time>
      </trkpt>
      <trkpt lat="44.08537" lon="6.942">
        <ele>1666.5999755859</ele>
        <time>2022-08-20T13:07:39.000Z</time>
      </trkpt>
      <trkpt lat="44.08534" lon="6.94195">
        <ele>1666.1999511719</ele>
        <time>2022-08-20T13:07:40.000Z</time>
      </trkpt>
      <trkpt lat="44.0853" lon="6.9419">
        <ele>1665.8000488281</ele>
        <time>2022-08-20T13:07:41.000Z</time>
      </trkpt>
      <trkpt lat="44.08522" lon="6.94173">
        <ele>1664.5999755859</ele>
        <time>2022-08-20T13:07:44.000Z</time>
      </trkpt>
      <trkpt lat="44.0852" lon="6.94167">
        <ele>1664.1999511719</ele>
        <time>2022-08-20T13:07:45.000Z</time>
      </trkpt>
      <trkpt lat="44.08517" lon="6.9416">
        <ele>1663.4000244141</ele>
        <time>2022-08-20T13:07:47.000Z</time>
      </trkpt>
      <trkpt lat="44.08516" lon="6.94158">
        <ele>1663</ele>
        <time>2022-08-20T13:07:49.000Z</time>
      </trkpt>
      <trkpt lat="44.08516" lon="6.94158">
        <ele>1663.5999755859</ele>
        <time>2022-08-20T13:08:00.000Z</time>
      </trkpt>
      <trkpt lat="44.08516" lon="6.94158">
        <ele>1663.4000244141</ele>
        <time>2022-08-20T13:08:27.000Z</time>
      </trkpt>
      <trkpt lat="44.08515" lon="6.94157">
        <ele>1663.5999755859</ele>
        <time>2022-08-20T13:08:58.000Z</time>
      </trkpt>
      <trkpt lat="44.08508" lon="6.94143">
        <ele>1663.4000244141</ele>
        <time>2022-08-20T13:09:03.000Z</time>
      </trkpt>
      <trkpt lat="44.08495" lon="6.94134">
        <ele>1664.1999511719</ele>
        <time>2022-08-20T13:09:08.000Z</time>
      </trkpt>
      <trkpt lat="44.08492" lon="6.94133">
        <ele>1664.4000244141</ele>
        <time>2022-08-20T13:09:09.000Z</time>
      </trkpt>
      <trkpt lat="44.0847" lon="6.94126">
        <ele>1665.4000244141</ele>
        <time>2022-08-20T13:09:15.000Z</time>
      </trkpt>
      <trkpt lat="44.08446" lon="6.94118">
        <ele>1664.8000488281</ele>
        <time>2022-08-20T13:09:22.000Z</time>
      </trkpt>
      <trkpt lat="44.0842" lon="6.94104">
        <ele>1665.4000244141</ele>
        <time>2022-08-20T13:09:30.000Z</time>
      </trkpt>
      <trkpt lat="44.08401" lon="6.94096">
        <ele>1665.1999511719</ele>
        <time>2022-08-20T13:09:36.000Z</time>
      </trkpt>
      <trkpt lat="44.08391" lon="6.94092">
        <ele>1665.5999755859</ele>
        <time>2022-08-20T13:09:39.000Z</time>
      </trkpt>
      <trkpt lat="44.08377" lon="6.94089">
        <ele>1665.4000244141</ele>
        <time>2022-08-20T13:09:43.000Z</time>
      </trkpt>
      <trkpt lat="44.08358" lon="6.94088">
        <ele>1666.4000244141</ele>
        <time>2022-08-20T13:09:48.000Z</time>
      </trkpt>
      <trkpt lat="44.08354" lon="6.94087">
        <ele>1666.5999755859</ele>
        <time>2022-08-20T13:09:49.000Z</time>
      </trkpt>
      <trkpt lat="44.08349" lon="6.94085">
        <ele>1666.8000488281</ele>
        <time>2022-08-20T13:09:50.000Z</time>
      </trkpt>
      <trkpt lat="44.08339" lon="6.94075">
        <ele>1666.5999755859</ele>
        <time>2022-08-20T13:09:53.000Z</time>
      </trkpt>
      <trkpt lat="44.08336" lon="6.94071">
        <ele>1666.5999755859</ele>
        <time>2022-08-20T13:09:54.000Z</time>
      </trkpt>
      <trkpt lat="44.08322" lon="6.94045">
        <ele>1666.4000244141</ele>
        <time>2022-08-20T13:10:00.000Z</time>
      </trkpt>
      <trkpt lat="44.08304" lon="6.94015">
        <ele>1667.1999511719</ele>
        <time>2022-08-20T13:10:07.000Z</time>
      </trkpt>
      <trkpt lat="44.08287" lon="6.94008">
        <ele>1666.5999755859</ele>
        <time>2022-08-20T13:10:11.000Z</time>
      </trkpt>
      <trkpt lat="44.08276" lon="6.94016">
        <ele>1666.1999511719</ele>
        <time>2022-08-20T13:10:14.000Z</time>
      </trkpt>
      <trkpt lat="44.08272" lon="6.94027">
        <ele>1666.4000244141</ele>
        <time>2022-08-20T13:10:16.000Z</time>
      </trkpt>
      <trkpt lat="44.08269" lon="6.94031">
        <ele>1666.4000244141</ele>
        <time>2022-08-20T13:10:17.000Z</time>
      </trkpt>
      <trkpt lat="44.08266" lon="6.94035">
        <ele>1666.4000244141</ele>
        <time>2022-08-20T13:10:18.000Z</time>
      </trkpt>
      <trkpt lat="44.08256" lon="6.9405">
        <ele>1668</ele>
        <time>2022-08-20T13:10:23.000Z</time>
      </trkpt>
      <trkpt lat="44.08252" lon="6.94056">
        <ele>1669</ele>
        <time>2022-08-20T13:10:25.000Z</time>
      </trkpt>
      <trkpt lat="44.08245" lon="6.94063">
        <ele>1670.1999511719</ele>
        <time>2022-08-20T13:10:28.000Z</time>
      </trkpt>
      <trkpt lat="44.08243" lon="6.94064">
        <ele>1670.4000244141</ele>
        <time>2022-08-20T13:10:29.000Z</time>
      </trkpt>
      <trkpt lat="44.08238" lon="6.94066">
        <ele>1671.4000244141</ele>
        <time>2022-08-20T13:10:31.000Z</time>
      </trkpt>
      <trkpt lat="44.08231" lon="6.9407">
        <ele>1672.5999755859</ele>
        <time>2022-08-20T13:10:34.000Z</time>
      </trkpt>
      <trkpt lat="44.08221" lon="6.94075">
        <ele>1673.5999755859</ele>
        <time>2022-08-20T13:10:38.000Z</time>
      </trkpt>
      <trkpt lat="44.08219" lon="6.94077">
        <ele>1674</ele>
        <time>2022-08-20T13:10:39.000Z</time>
      </trkpt>
      <trkpt lat="44.08213" lon="6.94078">
        <ele>1674.8000488281</ele>
        <time>2022-08-20T13:10:41.000Z</time>
      </trkpt>
      <trkpt lat="44.08203" lon="6.94079">
        <ele>1675.8000488281</ele>
        <time>2022-08-20T13:10:45.000Z</time>
      </trkpt>
      <trkpt lat="44.082" lon="6.94079">
        <ele>1676</ele>
        <time>2022-08-20T13:10:46.000Z</time>
      </trkpt>
      <trkpt lat="44.08187" lon="6.94076">
        <ele>1677.1999511719</ele>
        <time>2022-08-20T13:10:51.000Z</time>
      </trkpt>
      <trkpt lat="44.08184" lon="6.94075">
        <ele>1677.4000244141</ele>
        <time>2022-08-20T13:10:52.000Z</time>
      </trkpt>
      <trkpt lat="44.08163" lon="6.94069">
        <ele>1676.8000488281</ele>
        <time>2022-08-20T13:10:58.000Z</time>
      </trkpt>
      <trkpt lat="44.0814" lon="6.94066">
        <ele>1677.1999511719</ele>
        <time>2022-08-20T13:11:05.000Z</time>
      </trkpt>
      <trkpt lat="44.08122" lon="6.94068">
        <ele>1677.8000488281</ele>
        <time>2022-08-20T13:11:11.000Z</time>
      </trkpt>
      <trkpt lat="44.08116" lon="6.94071">
        <ele>1678.5999755859</ele>
        <time>2022-08-20T13:11:13.000Z</time>
      </trkpt>
      <trkpt lat="44.08105" lon="6.94075">
        <ele>1679</ele>
        <time>2022-08-20T13:11:17.000Z</time>
      </trkpt>
      <trkpt lat="44.08098" lon="6.94076">
        <ele>1679.8000488281</ele>
        <time>2022-08-20T13:11:20.000Z</time>
      </trkpt>
      <trkpt lat="44.08094" lon="6.94078">
        <ele>1680.4000244141</ele>
        <time>2022-08-20T13:11:22.000Z</time>
      </trkpt>
      <trkpt lat="44.08092" lon="6.9408">
        <ele>1681</ele>
        <time>2022-08-20T13:11:23.000Z</time>
      </trkpt>
      <trkpt lat="44.08089" lon="6.94081">
        <ele>1682</ele>
        <time>2022-08-20T13:11:25.000Z</time>
      </trkpt>
      <trkpt lat="44.08085" lon="6.94084">
        <ele>1683.1999511719</ele>
        <time>2022-08-20T13:11:27.000Z</time>
      </trkpt>
      <trkpt lat="44.08077" lon="6.94088">
        <ele>1684.4000244141</ele>
        <time>2022-08-20T13:11:31.000Z</time>
      </trkpt>
      <trkpt lat="44.08072" lon="6.9409">
        <ele>1684.8000488281</ele>
        <time>2022-08-20T13:11:33.000Z</time>
      </trkpt>
      <trkpt lat="44.08068" lon="6.94092">
        <ele>1685.4000244141</ele>
        <time>2022-08-20T13:11:35.000Z</time>
      </trkpt>
      <trkpt lat="44.08062" lon="6.94093">
        <ele>1686.5999755859</ele>
        <time>2022-08-20T13:11:38.000Z</time>
      </trkpt>
      <trkpt lat="44.08057" lon="6.94092">
        <ele>1687</ele>
        <time>2022-08-20T13:11:40.000Z</time>
      </trkpt>
      <trkpt lat="44.08053" lon="6.9409">
        <ele>1687.8000488281</ele>
        <time>2022-08-20T13:11:42.000Z</time>
      </trkpt>
      <trkpt lat="44.0805" lon="6.94088">
        <ele>1689</ele>
        <time>2022-08-20T13:11:44.000Z</time>
      </trkpt>
      <trkpt lat="44.08046" lon="6.94086">
        <ele>1690.1999511719</ele>
        <time>2022-08-20T13:11:46.000Z</time>
      </trkpt>
      <trkpt lat="44.08045" lon="6.94085">
        <ele>1690.8000488281</ele>
        <time>2022-08-20T13:11:47.000Z</time>
      </trkpt>
      <trkpt lat="44.08041" lon="6.94084">
        <ele>1691.4000244141</ele>
        <time>2022-08-20T13:11:49.000Z</time>
      </trkpt>
      <trkpt lat="44.08036" lon="6.94082">
        <ele>1692.4000244141</ele>
        <time>2022-08-20T13:11:52.000Z</time>
      </trkpt>
      <trkpt lat="44.08034" lon="6.94082">
        <ele>1692.5999755859</ele>
        <time>2022-08-20T13:11:53.000Z</time>
      </trkpt>
      <trkpt lat="44.08029" lon="6.94081">
        <ele>1693.5999755859</ele>
        <time>2022-08-20T13:11:56.000Z</time>
      </trkpt>
      <trkpt lat="44.08023" lon="6.94078">
        <ele>1694.4000244141</ele>
        <time>2022-08-20T13:11:59.000Z</time>
      </trkpt>
      <trkpt lat="44.08021" lon="6.94078">
        <ele>1694.8000488281</ele>
        <time>2022-08-20T13:12:00.000Z</time>
      </trkpt>
      <trkpt lat="44.08016" lon="6.94074">
        <ele>1695.8000488281</ele>
        <time>2022-08-20T13:12:03.000Z</time>
      </trkpt>
      <trkpt lat="44.08011" lon="6.9407">
        <ele>1696.8000488281</ele>
        <time>2022-08-20T13:12:06.000Z</time>
      </trkpt>
      <trkpt lat="44.0801" lon="6.94069">
        <ele>1697</ele>
        <time>2022-08-20T13:12:07.000Z</time>
      </trkpt>
      <trkpt lat="44.08004" lon="6.94056">
        <ele>1698.1999511719</ele>
        <time>2022-08-20T13:12:12.000Z</time>
      </trkpt>
      <trkpt lat="44.07997" lon="6.94036">
        <ele>1699.4000244141</ele>
        <time>2022-08-20T13:12:20.000Z</time>
      </trkpt>
      <trkpt lat="44.07987" lon="6.94011">
        <ele>1700</ele>
        <time>2022-08-20T13:12:28.000Z</time>
      </trkpt>
      <trkpt lat="44.07986" lon="6.94006">
        <ele>1700.4000244141</ele>
        <time>2022-08-20T13:12:30.000Z</time>
      </trkpt>
      <trkpt lat="44.07984" lon="6.93998">
        <ele>1701.5999755859</ele>
        <time>2022-08-20T13:12:33.000Z</time>
      </trkpt>
      <trkpt lat="44.07981" lon="6.93992">
        <ele>1702.8000488281</ele>
        <time>2022-08-20T13:12:36.000Z</time>
      </trkpt>
      <trkpt lat="44.0798" lon="6.9399">
        <ele>1703.1999511719</ele>
        <time>2022-08-20T13:12:37.000Z</time>
      </trkpt>
      <trkpt lat="44.07977" lon="6.93989">
        <ele>1704</ele>
        <time>2022-08-20T13:12:39.000Z</time>
      </trkpt>
      <trkpt lat="44.07973" lon="6.93989">
        <ele>1704.8000488281</ele>
        <time>2022-08-20T13:12:41.000Z</time>
      </trkpt>
      <trkpt lat="44.07971" lon="6.9399">
        <ele>1705.1999511719</ele>
        <time>2022-08-20T13:12:42.000Z</time>
      </trkpt>
      <trkpt lat="44.07967" lon="6.93992">
        <ele>1706.4000244141</ele>
        <time>2022-08-20T13:12:45.000Z</time>
      </trkpt>
      <trkpt lat="44.07965" lon="6.93992">
        <ele>1706.8000488281</ele>
        <time>2022-08-20T13:12:46.000Z</time>
      </trkpt>
      <trkpt lat="44.07964" lon="6.93992">
        <ele>1707</ele>
        <time>2022-08-20T13:12:47.000Z</time>
      </trkpt>
      <trkpt lat="44.07961" lon="6.93991">
        <ele>1707.8000488281</ele>
        <time>2022-08-20T13:12:49.000Z</time>
      </trkpt>
      <trkpt lat="44.07955" lon="6.93994">
        <ele>1709</ele>
        <time>2022-08-20T13:12:53.000Z</time>
      </trkpt>
      <trkpt lat="44.07951" lon="6.93994">
        <ele>1710.1999511719</ele>
        <time>2022-08-20T13:12:56.000Z</time>
      </trkpt>
      <trkpt lat="44.07948" lon="6.93994">
        <ele>1711.1999511719</ele>
        <time>2022-08-20T13:12:58.000Z</time>
      </trkpt>
      <trkpt lat="44.07946" lon="6.93994">
        <ele>1711.5999755859</ele>
        <time>2022-08-20T13:12:59.000Z</time>
      </trkpt>
      <trkpt lat="44.07943" lon="6.93995">
        <ele>1712.4000244141</ele>
        <time>2022-08-20T13:13:01.000Z</time>
      </trkpt>
      <trkpt lat="44.07937" lon="6.93997">
        <ele>1713.5999755859</ele>
        <time>2022-08-20T13:13:05.000Z</time>
      </trkpt>
      <trkpt lat="44.07935" lon="6.93997">
        <ele>1713.8000488281</ele>
        <time>2022-08-20T13:13:06.000Z</time>
      </trkpt>
      <trkpt lat="44.07931" lon="6.93998">
        <ele>1714.5999755859</ele>
        <time>2022-08-20T13:13:09.000Z</time>
      </trkpt>
      <trkpt lat="44.07927" lon="6.93998">
        <ele>1715.8000488281</ele>
        <time>2022-08-20T13:13:12.000Z</time>
      </trkpt>
      <trkpt lat="44.07923" lon="6.93998">
        <ele>1717</ele>
        <time>2022-08-20T13:13:15.000Z</time>
      </trkpt>
      <trkpt lat="44.07922" lon="6.93999">
        <ele>1717.5999755859</ele>
        <time>2022-08-20T13:13:16.000Z</time>
      </trkpt>
      <trkpt lat="44.07919" lon="6.94">
        <ele>1718.1999511719</ele>
        <time>2022-08-20T13:13:18.000Z</time>
      </trkpt>
      <trkpt lat="44.07917" lon="6.94">
        <ele>1718.5999755859</ele>
        <time>2022-08-20T13:13:19.000Z</time>
      </trkpt>
      <trkpt lat="44.07915" lon="6.94">
        <ele>1719.1999511719</ele>
        <time>2022-08-20T13:13:21.000Z</time>
      </trkpt>
      <trkpt lat="44.07912" lon="6.94001">
        <ele>1719.8000488281</ele>
        <time>2022-08-20T13:13:23.000Z</time>
      </trkpt>
      <trkpt lat="44.0791" lon="6.94001">
        <ele>1720.1999511719</ele>
        <time>2022-08-20T13:13:25.000Z</time>
      </trkpt>
      <trkpt lat="44.07904" lon="6.94002">
        <ele>1721.4000244141</ele>
        <time>2022-08-20T13:13:29.000Z</time>
      </trkpt>
      <trkpt lat="44.07899" lon="6.94004">
        <ele>1722.8000488281</ele>
        <time>2022-08-20T13:13:32.000Z</time>
      </trkpt>
      <trkpt lat="44.07896" lon="6.94007">
        <ele>1724</ele>
        <time>2022-08-20T13:13:35.000Z</time>
      </trkpt>
      <trkpt lat="44.07892" lon="6.9401">
        <ele>1725</ele>
        <time>2022-08-20T13:13:38.000Z</time>
      </trkpt>
      <trkpt lat="44.07886" lon="6.94014">
        <ele>1726.1999511719</ele>
        <time>2022-08-20T13:13:43.000Z</time>
      </trkpt>
      <trkpt lat="44.07882" lon="6.94018">
        <ele>1727</ele>
        <time>2022-08-20T13:13:46.000Z</time>
      </trkpt>
      <trkpt lat="44.07881" lon="6.94019">
        <ele>1727.4000244141</ele>
        <time>2022-08-20T13:13:47.000Z</time>
      </trkpt>
      <trkpt lat="44.07877" lon="6.94022">
        <ele>1728.5999755859</ele>
        <time>2022-08-20T13:13:50.000Z</time>
      </trkpt>
      <trkpt lat="44.07874" lon="6.94024">
        <ele>1729.1999511719</ele>
        <time>2022-08-20T13:13:52.000Z</time>
      </trkpt>
      <trkpt lat="44.07871" lon="6.94026">
        <ele>1729.5999755859</ele>
        <time>2022-08-20T13:13:54.000Z</time>
      </trkpt>
      <trkpt lat="44.07866" lon="6.9403">
        <ele>1730.8000488281</ele>
        <time>2022-08-20T13:13:58.000Z</time>
      </trkpt>
      <trkpt lat="44.0786" lon="6.94035">
        <ele>1731.5999755859</ele>
        <time>2022-08-20T13:14:02.000Z</time>
      </trkpt>
      <trkpt lat="44.07858" lon="6.94037">
        <ele>1732</ele>
        <time>2022-08-20T13:14:04.000Z</time>
      </trkpt>
      <trkpt lat="44.07853" lon="6.9404">
        <ele>1733.4000244141</ele>
        <time>2022-08-20T13:14:07.000Z</time>
      </trkpt>
      <trkpt lat="44.07851" lon="6.94042">
        <ele>1734.1999511719</ele>
        <time>2022-08-20T13:14:09.000Z</time>
      </trkpt>
      <trkpt lat="44.07849" lon="6.94042">
        <ele>1734.5999755859</ele>
        <time>2022-08-20T13:14:10.000Z</time>
      </trkpt>
      <trkpt lat="44.07845" lon="6.94045">
        <ele>1735.5999755859</ele>
        <time>2022-08-20T13:14:13.000Z</time>
      </trkpt>
      <trkpt lat="44.07841" lon="6.94048">
        <ele>1736.8000488281</ele>
        <time>2022-08-20T13:14:16.000Z</time>
      </trkpt>
      <trkpt lat="44.07839" lon="6.94048">
        <ele>1737.1999511719</ele>
        <time>2022-08-20T13:14:17.000Z</time>
      </trkpt>
      <trkpt lat="44.07837" lon="6.9405">
        <ele>1737.8000488281</ele>
        <time>2022-08-20T13:14:19.000Z</time>
      </trkpt>
      <trkpt lat="44.07834" lon="6.94052">
        <ele>1738.4000244141</ele>
        <time>2022-08-20T13:14:21.000Z</time>
      </trkpt>
      <trkpt lat="44.07832" lon="6.94051">
        <ele>1738.8000488281</ele>
        <time>2022-08-20T13:14:22.000Z</time>
      </trkpt>
      <trkpt lat="44.07831" lon="6.94052">
        <ele>1739.4000244141</ele>
        <time>2022-08-20T13:14:23.000Z</time>
      </trkpt>
      <trkpt lat="44.07828" lon="6.94053">
        <ele>1740.1999511719</ele>
        <time>2022-08-20T13:14:25.000Z</time>
      </trkpt>
      <trkpt lat="44.07824" lon="6.94053">
        <ele>1741.1999511719</ele>
        <time>2022-08-20T13:14:28.000Z</time>
      </trkpt>
      <trkpt lat="44.07821" lon="6.94053">
        <ele>1741.8000488281</ele>
        <time>2022-08-20T13:14:30.000Z</time>
      </trkpt>
      <trkpt lat="44.07818" lon="6.94053">
        <ele>1742.5999755859</ele>
        <time>2022-08-20T13:14:32.000Z</time>
      </trkpt>
      <trkpt lat="44.07816" lon="6.94052">
        <ele>1743</ele>
        <time>2022-08-20T13:14:33.000Z</time>
      </trkpt>
      <trkpt lat="44.07814" lon="6.94049">
        <ele>1743.5999755859</ele>
        <time>2022-08-20T13:14:35.000Z</time>
      </trkpt>
      <trkpt lat="44.07813" lon="6.94048">
        <ele>1744.1999511719</ele>
        <time>2022-08-20T13:14:36.000Z</time>
      </trkpt>
      <trkpt lat="44.0781" lon="6.94048">
        <ele>1744.8000488281</ele>
        <time>2022-08-20T13:14:38.000Z</time>
      </trkpt>
      <trkpt lat="44.07805" lon="6.94047">
        <ele>1746.1999511719</ele>
        <time>2022-08-20T13:14:41.000Z</time>
      </trkpt>
      <trkpt lat="44.07803" lon="6.94044">
        <ele>1747.1999511719</ele>
        <time>2022-08-20T13:14:43.000Z</time>
      </trkpt>
      <trkpt lat="44.07802" lon="6.94042">
        <ele>1747.8000488281</ele>
        <time>2022-08-20T13:14:44.000Z</time>
      </trkpt>
      <trkpt lat="44.07801" lon="6.94041">
        <ele>1748.1999511719</ele>
        <time>2022-08-20T13:14:45.000Z</time>
      </trkpt>
      <trkpt lat="44.078" lon="6.94041">
        <ele>1748.5999755859</ele>
        <time>2022-08-20T13:14:46.000Z</time>
      </trkpt>
      <trkpt lat="44.07799" lon="6.9404">
        <ele>1749</ele>
        <time>2022-08-20T13:14:47.000Z</time>
      </trkpt>
      <trkpt lat="44.07797" lon="6.94039">
        <ele>1749.1999511719</ele>
        <time>2022-08-20T13:14:48.000Z</time>
      </trkpt>
      <trkpt lat="44.07794" lon="6.94036">
        <ele>1750.4000244141</ele>
        <time>2022-08-20T13:14:51.000Z</time>
      </trkpt>
      <trkpt lat="44.0779" lon="6.94034">
        <ele>1751.4000244141</ele>
        <time>2022-08-20T13:14:54.000Z</time>
      </trkpt>
      <trkpt lat="44.07788" lon="6.94033">
        <ele>1751.5999755859</ele>
        <time>2022-08-20T13:14:55.000Z</time>
      </trkpt>
      <trkpt lat="44.07783" lon="6.9403">
        <ele>1752.8000488281</ele>
        <time>2022-08-20T13:14:59.000Z</time>
      </trkpt>
      <trkpt lat="44.07779" lon="6.94027">
        <ele>1753.5999755859</ele>
        <time>2022-08-20T13:15:02.000Z</time>
      </trkpt>
      <trkpt lat="44.07778" lon="6.94027">
        <ele>1753.8000488281</ele>
        <time>2022-08-20T13:15:03.000Z</time>
      </trkpt>
      <trkpt lat="44.07771" lon="6.94023">
        <ele>1755</ele>
        <time>2022-08-20T13:15:08.000Z</time>
      </trkpt>
      <trkpt lat="44.07769" lon="6.94021">
        <ele>1755.4000244141</ele>
        <time>2022-08-20T13:15:10.000Z</time>
      </trkpt>
      <trkpt lat="44.07764" lon="6.94019">
        <ele>1756.1999511719</ele>
        <time>2022-08-20T13:15:13.000Z</time>
      </trkpt>
      <trkpt lat="44.07759" lon="6.94016">
        <ele>1757.4000244141</ele>
        <time>2022-08-20T13:15:17.000Z</time>
      </trkpt>
      <trkpt lat="44.07757" lon="6.94015">
        <ele>1757.5999755859</ele>
        <time>2022-08-20T13:15:18.000Z</time>
      </trkpt>
      <trkpt lat="44.07752" lon="6.94011">
        <ele>1758.4000244141</ele>
        <time>2022-08-20T13:15:21.000Z</time>
      </trkpt>
      <trkpt lat="44.07744" lon="6.94002">
        <ele>1759.4000244141</ele>
        <time>2022-08-20T13:15:27.000Z</time>
      </trkpt>
      <trkpt lat="44.07742" lon="6.93999">
        <ele>1759.5999755859</ele>
        <time>2022-08-20T13:15:29.000Z</time>
      </trkpt>
      <trkpt lat="44.07734" lon="6.93988">
        <ele>1760.4000244141</ele>
        <time>2022-08-20T13:15:35.000Z</time>
      </trkpt>
      <trkpt lat="44.07723" lon="6.9397">
        <ele>1760.5999755859</ele>
        <time>2022-08-20T13:15:43.000Z</time>
      </trkpt>
      <trkpt lat="44.07717" lon="6.93961">
        <ele>1761.8000488281</ele>
        <time>2022-08-20T13:15:48.000Z</time>
      </trkpt>
      <trkpt lat="44.07715" lon="6.93958">
        <ele>1762.5999755859</ele>
        <time>2022-08-20T13:15:50.000Z</time>
      </trkpt>
      <trkpt lat="44.07714" lon="6.93956">
        <ele>1763</ele>
        <time>2022-08-20T13:15:51.000Z</time>
      </trkpt>
      <trkpt lat="44.0771" lon="6.93951">
        <ele>1764.1999511719</ele>
        <time>2022-08-20T13:15:54.000Z</time>
      </trkpt>
      <trkpt lat="44.07708" lon="6.93946">
        <ele>1765</ele>
        <time>2022-08-20T13:15:56.000Z</time>
      </trkpt>
      <trkpt lat="44.07707" lon="6.93945">
        <ele>1765.4000244141</ele>
        <time>2022-08-20T13:15:57.000Z</time>
      </trkpt>
      <trkpt lat="44.07706" lon="6.93944">
        <ele>1765.8000488281</ele>
        <time>2022-08-20T13:15:58.000Z</time>
      </trkpt>
      <trkpt lat="44.07703" lon="6.93945">
        <ele>1766.1999511719</ele>
        <time>2022-08-20T13:16:00.000Z</time>
      </trkpt>
      <trkpt lat="44.07703" lon="6.93946">
        <ele>1766.5999755859</ele>
        <time>2022-08-20T13:16:01.000Z</time>
      </trkpt>
      <trkpt lat="44.07703" lon="6.93948">
        <ele>1767</ele>
        <time>2022-08-20T13:16:02.000Z</time>
      </trkpt>
      <trkpt lat="44.07702" lon="6.93953">
        <ele>1767.4000244141</ele>
        <time>2022-08-20T13:16:04.000Z</time>
      </trkpt>
      <trkpt lat="44.07701" lon="6.93955">
        <ele>1767.4000244141</ele>
        <time>2022-08-20T13:16:09.000Z</time>
      </trkpt>
      <trkpt lat="44.07701" lon="6.93956">
        <ele>1767</ele>
        <time>2022-08-20T13:16:18.000Z</time>
      </trkpt>
      <trkpt lat="44.077" lon="6.93957">
        <ele>1767.1999511719</ele>
        <time>2022-08-20T13:16:24.000Z</time>
      </trkpt>
      <trkpt lat="44.07699" lon="6.93958">
        <ele>1767</ele>
        <time>2022-08-20T13:16:32.000Z</time>
      </trkpt>
      <trkpt lat="44.07698" lon="6.93957">
        <ele>1766.8000488281</ele>
        <time>2022-08-20T13:16:37.000Z</time>
      </trkpt>
      <trkpt lat="44.07698" lon="6.93959">
        <ele>1766.1999511719</ele>
        <time>2022-08-20T13:16:51.000Z</time>
      </trkpt>
      <trkpt lat="44.07697" lon="6.93959">
        <ele>1766.4000244141</ele>
        <time>2022-08-20T13:16:59.000Z</time>
      </trkpt>
      <trkpt lat="44.07697" lon="6.9396">
        <ele>1766.4000244141</ele>
        <time>2022-08-20T13:17:07.000Z</time>
      </trkpt>
      <trkpt lat="44.07696" lon="6.93961">
        <ele>1766.4000244141</ele>
        <time>2022-08-20T13:17:16.000Z</time>
      </trkpt>
      <trkpt lat="44.07697" lon="6.93962">
        <ele>1767</ele>
        <time>2022-08-20T13:17:21.000Z</time>
      </trkpt>
      <trkpt lat="44.07697" lon="6.93962">
        <ele>1766.5999755859</ele>
        <time>2022-08-20T13:17:37.000Z</time>
      </trkpt>
      <trkpt lat="44.07696" lon="6.93962">
        <ele>1766.8000488281</ele>
        <time>2022-08-20T13:17:49.000Z</time>
      </trkpt>
      <trkpt lat="44.07697" lon="6.93961">
        <ele>1766.8000488281</ele>
        <time>2022-08-20T13:18:00.000Z</time>
      </trkpt>
      <trkpt lat="44.07697" lon="6.9396">
        <ele>1767</ele>
        <time>2022-08-20T13:18:11.000Z</time>
      </trkpt>
      <trkpt lat="44.07694" lon="6.93963">
        <ele>1767</ele>
        <time>2022-08-20T13:18:17.000Z</time>
      </trkpt>
      <trkpt lat="44.0769" lon="6.93962">
        <ele>1766.8000488281</ele>
        <time>2022-08-20T13:18:26.000Z</time>
      </trkpt>
      <trkpt lat="44.0769" lon="6.93962">
        <ele>1767</ele>
        <time>2022-08-20T13:18:38.000Z</time>
      </trkpt>
      <trkpt lat="44.0769" lon="6.93961">
        <ele>1766.8000488281</ele>
        <time>2022-08-20T13:18:46.000Z</time>
      </trkpt>
      <trkpt lat="44.07692" lon="6.9396">
        <ele>1767.5999755859</ele>
        <time>2022-08-20T13:18:51.000Z</time>
      </trkpt>
      <trkpt lat="44.07694" lon="6.9396">
        <ele>1767.8000488281</ele>
        <time>2022-08-20T13:18:59.000Z</time>
      </trkpt>
      <trkpt lat="44.07695" lon="6.93959">
        <ele>1767.5999755859</ele>
        <time>2022-08-20T13:19:13.000Z</time>
      </trkpt>
      <trkpt lat="44.07693" lon="6.9396">
        <ele>1767.5999755859</ele>
        <time>2022-08-20T13:19:24.000Z</time>
      </trkpt>
      <trkpt lat="44.07694" lon="6.93959">
        <ele>1766.8000488281</ele>
        <time>2022-08-20T13:19:28.000Z</time>
      </trkpt>
      <trkpt lat="44.07694" lon="6.9396">
        <ele>1766.5999755859</ele>
        <time>2022-08-20T13:19:30.000Z</time>
      </trkpt>
      <trkpt lat="44.07693" lon="6.93962">
        <ele>1766.1999511719</ele>
        <time>2022-08-20T13:19:38.000Z</time>
      </trkpt>
      <trkpt lat="44.07692" lon="6.93963">
        <ele>1766.5999755859</ele>
        <time>2022-08-20T13:19:47.000Z</time>
      </trkpt>
      <trkpt lat="44.07691" lon="6.93962">
        <ele>1766.8000488281</ele>
        <time>2022-08-20T13:19:57.000Z</time>
      </trkpt>
      <trkpt lat="44.07691" lon="6.93961">
        <ele>1766.5999755859</ele>
        <time>2022-08-20T13:20:06.000Z</time>
      </trkpt>
      <trkpt lat="44.07693" lon="6.9396">
        <ele>1766.1999511719</ele>
        <time>2022-08-20T13:20:15.000Z</time>
      </trkpt>
      <trkpt lat="44.07693" lon="6.9396">
        <ele>1766.1999511719</ele>
        <time>2022-08-20T13:20:22.000Z</time>
      </trkpt>
      <trkpt lat="44.07691" lon="6.93961">
        <ele>1766.4000244141</ele>
        <time>2022-08-20T13:20:33.000Z</time>
      </trkpt>
      <trkpt lat="44.07692" lon="6.93958">
        <ele>1766.4000244141</ele>
        <time>2022-08-20T13:20:44.000Z</time>
      </trkpt>
      <trkpt lat="44.07693" lon="6.93958">
        <ele>1766.1999511719</ele>
        <time>2022-08-20T13:20:51.000Z</time>
      </trkpt>
      <trkpt lat="44.07692" lon="6.93961">
        <ele>1767.4000244141</ele>
        <time>2022-08-20T13:20:59.000Z</time>
      </trkpt>
      <trkpt lat="44.07693" lon="6.93961">
        <ele>1767.1999511719</ele>
        <time>2022-08-20T13:21:03.000Z</time>
      </trkpt>
      <trkpt lat="44.07694" lon="6.93961">
        <ele>1767.1999511719</ele>
        <time>2022-08-20T13:21:11.000Z</time>
      </trkpt>
      <trkpt lat="44.07696" lon="6.93962">
        <ele>1767.4000244141</ele>
        <time>2022-08-20T13:21:17.000Z</time>
      </trkpt>
      <trkpt lat="44.07696" lon="6.93963">
        <ele>1767.5999755859</ele>
        <time>2022-08-20T13:21:19.000Z</time>
      </trkpt>
      <trkpt lat="44.07696" lon="6.93963">
        <ele>1767.4000244141</ele>
        <time>2022-08-20T13:21:25.000Z</time>
      </trkpt>
      <trkpt lat="44.07698" lon="6.93966">
        <ele>1767</ele>
        <time>2022-08-20T13:21:35.000Z</time>
      </trkpt>
      <trkpt lat="44.07699" lon="6.93967">
        <ele>1767.5999755859</ele>
        <time>2022-08-20T13:21:44.000Z</time>
      </trkpt>
      <trkpt lat="44.07701" lon="6.93966">
        <ele>1767.4000244141</ele>
        <time>2022-08-20T13:21:49.000Z</time>
      </trkpt>
      <trkpt lat="44.07701" lon="6.93967">
        <ele>1767.1999511719</ele>
        <time>2022-08-20T13:21:54.000Z</time>
      </trkpt>
      <trkpt lat="44.07702" lon="6.93967">
        <ele>1767.1999511719</ele>
        <time>2022-08-20T13:22:03.000Z</time>
      </trkpt>
      <trkpt lat="44.07701" lon="6.93967">
        <ele>1767.1999511719</ele>
        <time>2022-08-20T13:22:10.000Z</time>
      </trkpt>
      <trkpt lat="44.07703" lon="6.93966">
        <ele>1767</ele>
        <time>2022-08-20T13:22:19.000Z</time>
      </trkpt>
      <trkpt lat="44.07703" lon="6.93966">
        <ele>1767</ele>
        <time>2022-08-20T13:22:27.000Z</time>
      </trkpt>
      <trkpt lat="44.07701" lon="6.93966">
        <ele>1767.4000244141</ele>
        <time>2022-08-20T13:22:34.000Z</time>
      </trkpt>
      <trkpt lat="44.077" lon="6.93967">
        <ele>1767.1999511719</ele>
        <time>2022-08-20T13:22:44.000Z</time>
      </trkpt>
      <trkpt lat="44.07699" lon="6.93966">
        <ele>1767.5999755859</ele>
        <time>2022-08-20T13:22:51.000Z</time>
      </trkpt>
      <trkpt lat="44.07698" lon="6.93975">
        <ele>1767.5999755859</ele>
        <time>2022-08-20T13:22:56.000Z</time>
      </trkpt>
      <trkpt lat="44.07693" lon="6.93991">
        <ele>1767.5999755859</ele>
        <time>2022-08-20T13:23:01.000Z</time>
      </trkpt>
      <trkpt lat="44.07688" lon="6.94012">
        <ele>1767.4000244141</ele>
        <time>2022-08-20T13:23:07.000Z</time>
      </trkpt>
      <trkpt lat="44.07684" lon="6.94035">
        <ele>1767.1999511719</ele>
        <time>2022-08-20T13:23:13.000Z</time>
      </trkpt>
      <trkpt lat="44.07678" lon="6.94055">
        <ele>1767.1999511719</ele>
        <time>2022-08-20T13:23:18.000Z</time>
      </trkpt>
      <trkpt lat="44.07675" lon="6.94071">
        <ele>1767.4000244141</ele>
        <time>2022-08-20T13:23:23.000Z</time>
      </trkpt>
      <trkpt lat="44.07674" lon="6.94082">
        <ele>1768</ele>
        <time>2022-08-20T13:23:26.000Z</time>
      </trkpt>
      <trkpt lat="44.07672" lon="6.94104">
        <ele>1768</ele>
        <time>2022-08-20T13:23:31.000Z</time>
      </trkpt>
      <trkpt lat="44.07669" lon="6.94123">
        <ele>1768</ele>
        <time>2022-08-20T13:23:36.000Z</time>
      </trkpt>
      <trkpt lat="44.07667" lon="6.94139">
        <ele>1768.1999511719</ele>
        <time>2022-08-20T13:23:40.000Z</time>
      </trkpt>
      <trkpt lat="44.07664" lon="6.9415">
        <ele>1768.8000488281</ele>
        <time>2022-08-20T13:23:43.000Z</time>
      </trkpt>
      <trkpt lat="44.07664" lon="6.94157">
        <ele>1769.4000244141</ele>
        <time>2022-08-20T13:23:45.000Z</time>
      </trkpt>
      <trkpt lat="44.07663" lon="6.94164">
        <ele>1770</ele>
        <time>2022-08-20T13:23:47.000Z</time>
      </trkpt>
      <trkpt lat="44.07664" lon="6.94175">
        <ele>1770.5999755859</ele>
        <time>2022-08-20T13:23:50.000Z</time>
      </trkpt>
      <trkpt lat="44.07664" lon="6.94179">
        <ele>1771</ele>
        <time>2022-08-20T13:23:51.000Z</time>
      </trkpt>
      <trkpt lat="44.07662" lon="6.94193">
        <ele>1771.8000488281</ele>
        <time>2022-08-20T13:23:55.000Z</time>
      </trkpt>
      <trkpt lat="44.07661" lon="6.94196">
        <ele>1772</ele>
        <time>2022-08-20T13:23:56.000Z</time>
      </trkpt>
      <trkpt lat="44.07658" lon="6.94213">
        <ele>1772.5999755859</ele>
        <time>2022-08-20T13:24:01.000Z</time>
      </trkpt>
      <trkpt lat="44.07657" lon="6.94217">
        <ele>1773</ele>
        <time>2022-08-20T13:24:03.000Z</time>
      </trkpt>
      <trkpt lat="44.07658" lon="6.94222">
        <ele>1773.4000244141</ele>
        <time>2022-08-20T13:24:05.000Z</time>
      </trkpt>
      <trkpt lat="44.0766" lon="6.94232">
        <ele>1773.1999511719</ele>
        <time>2022-08-20T13:24:11.000Z</time>
      </trkpt>
      <trkpt lat="44.07661" lon="6.94237">
        <ele>1772.5999755859</ele>
        <time>2022-08-20T13:24:13.000Z</time>
      </trkpt>
      <trkpt lat="44.07662" lon="6.94243">
        <ele>1772.4000244141</ele>
        <time>2022-08-20T13:24:14.000Z</time>
      </trkpt>
      <trkpt lat="44.07666" lon="6.94265">
        <ele>1771.8000488281</ele>
        <time>2022-08-20T13:24:17.000Z</time>
      </trkpt>
      <trkpt lat="44.07667" lon="6.94274">
        <ele>1771</ele>
        <time>2022-08-20T13:24:18.000Z</time>
      </trkpt>
      <trkpt lat="44.07668" lon="6.94281">
        <ele>1770.1999511719</ele>
        <time>2022-08-20T13:24:19.000Z</time>
      </trkpt>
      <trkpt lat="44.07668" lon="6.94288">
        <ele>1769.1999511719</ele>
        <time>2022-08-20T13:24:20.000Z</time>
      </trkpt>
      <trkpt lat="44.07668" lon="6.94296">
        <ele>1768</ele>
        <time>2022-08-20T13:24:21.000Z</time>
      </trkpt>
      <trkpt lat="44.07668" lon="6.94305">
        <ele>1766.8000488281</ele>
        <time>2022-08-20T13:24:22.000Z</time>
      </trkpt>
      <trkpt lat="44.07669" lon="6.94313">
        <ele>1765.4000244141</ele>
        <time>2022-08-20T13:24:23.000Z</time>
      </trkpt>
      <trkpt lat="44.07669" lon="6.94329">
        <ele>1763.5999755859</ele>
        <time>2022-08-20T13:24:25.000Z</time>
      </trkpt>
      <trkpt lat="44.07666" lon="6.94335">
        <ele>1762.4000244141</ele>
        <time>2022-08-20T13:24:26.000Z</time>
      </trkpt>
      <trkpt lat="44.07663" lon="6.94341">
        <ele>1761</ele>
        <time>2022-08-20T13:24:27.000Z</time>
      </trkpt>
      <trkpt lat="44.07657" lon="6.94354">
        <ele>1759</ele>
        <time>2022-08-20T13:24:29.000Z</time>
      </trkpt>
      <trkpt lat="44.07653" lon="6.94365">
        <ele>1758</ele>
        <time>2022-08-20T13:24:30.000Z</time>
      </trkpt>
      <trkpt lat="44.07648" lon="6.94385">
        <ele>1756.4000244141</ele>
        <time>2022-08-20T13:24:32.000Z</time>
      </trkpt>
      <trkpt lat="44.07643" lon="6.94401">
        <ele>1754.4000244141</ele>
        <time>2022-08-20T13:24:34.000Z</time>
      </trkpt>
      <trkpt lat="44.0764" lon="6.94416">
        <ele>1752.5999755859</ele>
        <time>2022-08-20T13:24:36.000Z</time>
      </trkpt>
      <trkpt lat="44.07636" lon="6.94425">
        <ele>1750.8000488281</ele>
        <time>2022-08-20T13:24:38.000Z</time>
      </trkpt>
      <trkpt lat="44.07632" lon="6.94432">
        <ele>1751.8000488281</ele>
        <time>2022-08-20T13:24:41.000Z</time>
      </trkpt>
      <trkpt lat="44.0763" lon="6.94434">
        <ele>1752</ele>
        <time>2022-08-20T13:24:42.000Z</time>
      </trkpt>
      <trkpt lat="44.07626" lon="6.94447">
        <ele>1753.1999511719</ele>
        <time>2022-08-20T13:24:46.000Z</time>
      </trkpt>
      <trkpt lat="44.07626" lon="6.9445">
        <ele>1753.4000244141</ele>
        <time>2022-08-20T13:24:47.000Z</time>
      </trkpt>
      <trkpt lat="44.07626" lon="6.94454">
        <ele>1753.5999755859</ele>
        <time>2022-08-20T13:24:48.000Z</time>
      </trkpt>
      <trkpt lat="44.07624" lon="6.9447">
        <ele>1754.1999511719</ele>
        <time>2022-08-20T13:24:53.000Z</time>
      </trkpt>
      <trkpt lat="44.07624" lon="6.94497">
        <ele>1754.1999511719</ele>
        <time>2022-08-20T13:24:59.000Z</time>
      </trkpt>
      <trkpt lat="44.07621" lon="6.94518">
        <ele>1753.5999755859</ele>
        <time>2022-08-20T13:25:02.000Z</time>
      </trkpt>
      <trkpt lat="44.07619" lon="6.94525">
        <ele>1753.1999511719</ele>
        <time>2022-08-20T13:25:03.000Z</time>
      </trkpt>
      <trkpt lat="44.0761" lon="6.94543">
        <ele>1752</ele>
        <time>2022-08-20T13:25:06.000Z</time>
      </trkpt>
      <trkpt lat="44.07607" lon="6.94546">
        <ele>1751.4000244141</ele>
        <time>2022-08-20T13:25:07.000Z</time>
      </trkpt>
      <trkpt lat="44.07605" lon="6.94549">
        <ele>1751.1999511719</ele>
        <time>2022-08-20T13:25:08.000Z</time>
      </trkpt>
      <trkpt lat="44.07604" lon="6.9455">
        <ele>1751.1999511719</ele>
        <time>2022-08-20T13:25:10.000Z</time>
      </trkpt>
      <trkpt lat="44.07596" lon="6.94555">
        <ele>1751.5999755859</ele>
        <time>2022-08-20T13:25:15.000Z</time>
      </trkpt>
      <trkpt lat="44.07579" lon="6.94573">
        <ele>1751.1999511719</ele>
        <time>2022-08-20T13:25:20.000Z</time>
      </trkpt>
      <trkpt lat="44.07575" lon="6.94577">
        <ele>1750.5999755859</ele>
        <time>2022-08-20T13:25:21.000Z</time>
      </trkpt>
      <trkpt lat="44.07561" lon="6.946">
        <ele>1750.4000244141</ele>
        <time>2022-08-20T13:25:26.000Z</time>
      </trkpt>
      <trkpt lat="44.07541" lon="6.94625">
        <ele>1751.4000244141</ele>
        <time>2022-08-20T13:25:33.000Z</time>
      </trkpt>
      <trkpt lat="44.07527" lon="6.94628">
        <ele>1751.4000244141</ele>
        <time>2022-08-20T13:25:37.000Z</time>
      </trkpt>
      <trkpt lat="44.07521" lon="6.9463">
        <ele>1752</ele>
        <time>2022-08-20T13:25:39.000Z</time>
      </trkpt>
      <trkpt lat="44.07512" lon="6.94636">
        <ele>1753.1999511719</ele>
        <time>2022-08-20T13:25:42.000Z</time>
      </trkpt>
      <trkpt lat="44.07487" lon="6.94656">
        <ele>1754</ele>
        <time>2022-08-20T13:25:51.000Z</time>
      </trkpt>
      <trkpt lat="44.07482" lon="6.9466">
        <ele>1754.4000244141</ele>
        <time>2022-08-20T13:25:53.000Z</time>
      </trkpt>
      <trkpt lat="44.07476" lon="6.94663">
        <ele>1755</ele>
        <time>2022-08-20T13:25:57.000Z</time>
      </trkpt>
      <trkpt lat="44.07474" lon="6.94663">
        <ele>1755.4000244141</ele>
        <time>2022-08-20T13:26:02.000Z</time>
      </trkpt>
      <trkpt lat="44.07474" lon="6.94663">
        <ele>1755.8000488281</ele>
        <time>2022-08-20T13:26:17.000Z</time>
      </trkpt>
      <trkpt lat="44.07474" lon="6.94663">
        <ele>1755.8000488281</ele>
        <time>2022-08-20T13:26:29.000Z</time>
      </trkpt>
      <trkpt lat="44.07473" lon="6.94662">
        <ele>1756.1999511719</ele>
        <time>2022-08-20T13:26:53.000Z</time>
      </trkpt>
      <trkpt lat="44.07471" lon="6.94662">
        <ele>1756.1999511719</ele>
        <time>2022-08-20T13:27:02.000Z</time>
      </trkpt>
      <trkpt lat="44.07463" lon="6.94666">
        <ele>1756</ele>
        <time>2022-08-20T13:27:06.000Z</time>
      </trkpt>
      <trkpt lat="44.0746" lon="6.94667">
        <ele>1756</ele>
        <time>2022-08-20T13:27:07.000Z</time>
      </trkpt>
      <trkpt lat="44.07449" lon="6.94678">
        <ele>1756</ele>
        <time>2022-08-20T13:27:11.000Z</time>
      </trkpt>
      <trkpt lat="44.07429" lon="6.94697">
        <ele>1755.1999511719</ele>
        <time>2022-08-20T13:27:16.000Z</time>
      </trkpt>
      <trkpt lat="44.07419" lon="6.94705">
        <ele>1754.4000244141</ele>
        <time>2022-08-20T13:27:18.000Z</time>
      </trkpt>
      <trkpt lat="44.07415" lon="6.94708">
        <ele>1753.8000488281</ele>
        <time>2022-08-20T13:27:19.000Z</time>
      </trkpt>
      <trkpt lat="44.07405" lon="6.94713">
        <ele>1753</ele>
        <time>2022-08-20T13:27:21.000Z</time>
      </trkpt>
      <trkpt lat="44.07375" lon="6.94725">
        <ele>1752</ele>
        <time>2022-08-20T13:27:27.000Z</time>
      </trkpt>
      <trkpt lat="44.07366" lon="6.94725">
        <ele>1750.5999755859</ele>
        <time>2022-08-20T13:27:29.000Z</time>
      </trkpt>
      <trkpt lat="44.07356" lon="6.94722">
        <ele>1749.4000244141</ele>
        <time>2022-08-20T13:27:31.000Z</time>
      </trkpt>
      <trkpt lat="44.07351" lon="6.9472">
        <ele>1749</ele>
        <time>2022-08-20T13:27:32.000Z</time>
      </trkpt>
      <trkpt lat="44.07329" lon="6.94707">
        <ele>1748.1999511719</ele>
        <time>2022-08-20T13:27:37.000Z</time>
      </trkpt>
      <trkpt lat="44.07315" lon="6.94699">
        <ele>1747.1999511719</ele>
        <time>2022-08-20T13:27:40.000Z</time>
      </trkpt>
      <trkpt lat="44.0731" lon="6.94697">
        <ele>1747</ele>
        <time>2022-08-20T13:27:41.000Z</time>
      </trkpt>
      <trkpt lat="44.07297" lon="6.94687">
        <ele>1746.1999511719</ele>
        <time>2022-08-20T13:27:44.000Z</time>
      </trkpt>
      <trkpt lat="44.07289" lon="6.94681">
        <ele>1745.5999755859</ele>
        <time>2022-08-20T13:27:46.000Z</time>
      </trkpt>
      <trkpt lat="44.07283" lon="6.94675">
        <ele>1745.4000244141</ele>
        <time>2022-08-20T13:27:48.000Z</time>
      </trkpt>
      <trkpt lat="44.07254" lon="6.94654">
        <ele>1746</ele>
        <time>2022-08-20T13:27:57.000Z</time>
      </trkpt>
      <trkpt lat="44.07246" lon="6.9465">
        <ele>1746</ele>
        <time>2022-08-20T13:27:59.000Z</time>
      </trkpt>
      <trkpt lat="44.07226" lon="6.94643">
        <ele>1744.8000488281</ele>
        <time>2022-08-20T13:28:03.000Z</time>
      </trkpt>
      <trkpt lat="44.07216" lon="6.94639">
        <ele>1743.4000244141</ele>
        <time>2022-08-20T13:28:05.000Z</time>
      </trkpt>
      <trkpt lat="44.07203" lon="6.94636">
        <ele>1742.1999511719</ele>
        <time>2022-08-20T13:28:07.000Z</time>
      </trkpt>
      <trkpt lat="44.0719" lon="6.94633">
        <ele>1741.1999511719</ele>
        <time>2022-08-20T13:28:09.000Z</time>
      </trkpt>
      <trkpt lat="44.07183" lon="6.94628">
        <ele>1740.4000244141</ele>
        <time>2022-08-20T13:28:10.000Z</time>
      </trkpt>
      <trkpt lat="44.0717" lon="6.9462">
        <ele>1738.8000488281</ele>
        <time>2022-08-20T13:28:12.000Z</time>
      </trkpt>
      <trkpt lat="44.07158" lon="6.94616">
        <ele>1737.5999755859</ele>
        <time>2022-08-20T13:28:14.000Z</time>
      </trkpt>
      <trkpt lat="44.07151" lon="6.94615">
        <ele>1737.5999755859</ele>
        <time>2022-08-20T13:28:15.000Z</time>
      </trkpt>
      <trkpt lat="44.07139" lon="6.94612">
        <ele>1737.4000244141</ele>
        <time>2022-08-20T13:28:17.000Z</time>
      </trkpt>
      <trkpt lat="44.07133" lon="6.9461">
        <ele>1737.1999511719</ele>
        <time>2022-08-20T13:28:18.000Z</time>
      </trkpt>
      <trkpt lat="44.07122" lon="6.94607">
        <ele>1737.1999511719</ele>
        <time>2022-08-20T13:28:21.000Z</time>
      </trkpt>
      <trkpt lat="44.07119" lon="6.9461">
        <ele>1736.5999755859</ele>
        <time>2022-08-20T13:28:23.000Z</time>
      </trkpt>
      <trkpt lat="44.07119" lon="6.94612">
        <ele>1736.4000244141</ele>
        <time>2022-08-20T13:28:24.000Z</time>
      </trkpt>
      <trkpt lat="44.07127" lon="6.9462">
        <ele>1736</ele>
        <time>2022-08-20T13:28:28.000Z</time>
      </trkpt>
      <trkpt lat="44.07133" lon="6.94625">
        <ele>1735.1999511719</ele>
        <time>2022-08-20T13:28:30.000Z</time>
      </trkpt>
      <trkpt lat="44.07146" lon="6.94636">
        <ele>1734</ele>
        <time>2022-08-20T13:28:33.000Z</time>
      </trkpt>
      <trkpt lat="44.07151" lon="6.94638">
        <ele>1733.5999755859</ele>
        <time>2022-08-20T13:28:34.000Z</time>
      </trkpt>
      <trkpt lat="44.0716" lon="6.94646">
        <ele>1732.1999511719</ele>
        <time>2022-08-20T13:28:36.000Z</time>
      </trkpt>
      <trkpt lat="44.07165" lon="6.94651">
        <ele>1731.5999755859</ele>
        <time>2022-08-20T13:28:37.000Z</time>
      </trkpt>
      <trkpt lat="44.0717" lon="6.94657">
        <ele>1730.5999755859</ele>
        <time>2022-08-20T13:28:38.000Z</time>
      </trkpt>
      <trkpt lat="44.07174" lon="6.94662">
        <ele>1729.1999511719</ele>
        <time>2022-08-20T13:28:39.000Z</time>
      </trkpt>
      <trkpt lat="44.07179" lon="6.94669">
        <ele>1728.1999511719</ele>
        <time>2022-08-20T13:28:40.000Z</time>
      </trkpt>
      <trkpt lat="44.07185" lon="6.94675">
        <ele>1726.8000488281</ele>
        <time>2022-08-20T13:28:41.000Z</time>
      </trkpt>
      <trkpt lat="44.07191" lon="6.94683">
        <ele>1725.1999511719</ele>
        <time>2022-08-20T13:28:42.000Z</time>
      </trkpt>
      <trkpt lat="44.07197" lon="6.94692">
        <ele>1723.5999755859</ele>
        <time>2022-08-20T13:28:43.000Z</time>
      </trkpt>
      <trkpt lat="44.07203" lon="6.94701">
        <ele>1722</ele>
        <time>2022-08-20T13:28:44.000Z</time>
      </trkpt>
      <trkpt lat="44.07209" lon="6.94711">
        <ele>1720</ele>
        <time>2022-08-20T13:28:45.000Z</time>
      </trkpt>
      <trkpt lat="44.07214" lon="6.9472">
        <ele>1718</ele>
        <time>2022-08-20T13:28:46.000Z</time>
      </trkpt>
      <trkpt lat="44.0722" lon="6.94729">
        <ele>1716.4000244141</ele>
        <time>2022-08-20T13:28:47.000Z</time>
      </trkpt>
      <trkpt lat="44.07227" lon="6.94739">
        <ele>1714.8000488281</ele>
        <time>2022-08-20T13:28:48.000Z</time>
      </trkpt>
      <trkpt lat="44.07231" lon="6.94749">
        <ele>1713</ele>
        <time>2022-08-20T13:28:49.000Z</time>
      </trkpt>
      <trkpt lat="44.07237" lon="6.9476">
        <ele>1711.5999755859</ele>
        <time>2022-08-20T13:28:50.000Z</time>
      </trkpt>
      <trkpt lat="44.07242" lon="6.9477">
        <ele>1710.1999511719</ele>
        <time>2022-08-20T13:28:51.000Z</time>
      </trkpt>
      <trkpt lat="44.07247" lon="6.9478">
        <ele>1709</ele>
        <time>2022-08-20T13:28:52.000Z</time>
      </trkpt>
      <trkpt lat="44.07251" lon="6.9479">
        <ele>1708</ele>
        <time>2022-08-20T13:28:53.000Z</time>
      </trkpt>
      <trkpt lat="44.07256" lon="6.94799">
        <ele>1706.8000488281</ele>
        <time>2022-08-20T13:28:54.000Z</time>
      </trkpt>
      <trkpt lat="44.07267" lon="6.94819">
        <ele>1705.1999511719</ele>
        <time>2022-08-20T13:28:56.000Z</time>
      </trkpt>
      <trkpt lat="44.07272" lon="6.94829">
        <ele>1704</ele>
        <time>2022-08-20T13:28:57.000Z</time>
      </trkpt>
      <trkpt lat="44.07277" lon="6.94838">
        <ele>1702.1999511719</ele>
        <time>2022-08-20T13:28:58.000Z</time>
      </trkpt>
      <trkpt lat="44.07281" lon="6.94847">
        <ele>1701.1999511719</ele>
        <time>2022-08-20T13:28:59.000Z</time>
      </trkpt>
      <trkpt lat="44.07286" lon="6.94858">
        <ele>1699.8000488281</ele>
        <time>2022-08-20T13:29:00.000Z</time>
      </trkpt>
      <trkpt lat="44.07291" lon="6.94868">
        <ele>1698.1999511719</ele>
        <time>2022-08-20T13:29:01.000Z</time>
      </trkpt>
      <trkpt lat="44.07295" lon="6.94876">
        <ele>1696.8000488281</ele>
        <time>2022-08-20T13:29:02.000Z</time>
      </trkpt>
      <trkpt lat="44.07305" lon="6.94894">
        <ele>1695.1999511719</ele>
        <time>2022-08-20T13:29:04.000Z</time>
      </trkpt>
      <trkpt lat="44.07316" lon="6.9491">
        <ele>1693.5999755859</ele>
        <time>2022-08-20T13:29:06.000Z</time>
      </trkpt>
      <trkpt lat="44.07323" lon="6.94916">
        <ele>1692.8000488281</ele>
        <time>2022-08-20T13:29:07.000Z</time>
      </trkpt>
      <trkpt lat="44.07328" lon="6.94923">
        <ele>1691.8000488281</ele>
        <time>2022-08-20T13:29:08.000Z</time>
      </trkpt>
      <trkpt lat="44.07339" lon="6.94936">
        <ele>1689.4000244141</ele>
        <time>2022-08-20T13:29:10.000Z</time>
      </trkpt>
      <trkpt lat="44.07344" lon="6.94942">
        <ele>1689.1999511719</ele>
        <time>2022-08-20T13:29:11.000Z</time>
      </trkpt>
      <trkpt lat="44.07347" lon="6.94949">
        <ele>1688.8000488281</ele>
        <time>2022-08-20T13:29:12.000Z</time>
      </trkpt>
      <trkpt lat="44.07349" lon="6.94955">
        <ele>1688.1999511719</ele>
        <time>2022-08-20T13:29:13.000Z</time>
      </trkpt>
      <trkpt lat="44.07349" lon="6.94961">
        <ele>1687.4000244141</ele>
        <time>2022-08-20T13:29:14.000Z</time>
      </trkpt>
      <trkpt lat="44.07348" lon="6.94967">
        <ele>1687</ele>
        <time>2022-08-20T13:29:15.000Z</time>
      </trkpt>
      <trkpt lat="44.07343" lon="6.9498">
        <ele>1685.5999755859</ele>
        <time>2022-08-20T13:29:17.000Z</time>
      </trkpt>
      <trkpt lat="44.0734" lon="6.94984">
        <ele>1684.4000244141</ele>
        <time>2022-08-20T13:29:18.000Z</time>
      </trkpt>
      <trkpt lat="44.07338" lon="6.94986">
        <ele>1683.1999511719</ele>
        <time>2022-08-20T13:29:19.000Z</time>
      </trkpt>
      <trkpt lat="44.07337" lon="6.94988">
        <ele>1682.5999755859</ele>
        <time>2022-08-20T13:29:20.000Z</time>
      </trkpt>
      <trkpt lat="44.07337" lon="6.94988">
        <ele>1682</ele>
        <time>2022-08-20T13:29:21.000Z</time>
      </trkpt>
      <trkpt lat="44.07337" lon="6.94987">
        <ele>1682</ele>
        <time>2022-08-20T13:29:24.000Z</time>
      </trkpt>
      <trkpt lat="44.07337" lon="6.94987">
        <ele>1682.1999511719</ele>
        <time>2022-08-20T13:29:57.000Z</time>
      </trkpt>
      <trkpt lat="44.07334" lon="6.94988">
        <ele>1682.5999755859</ele>
        <time>2022-08-20T13:30:15.000Z</time>
      </trkpt>
      <trkpt lat="44.07333" lon="6.94989">
        <ele>1682.5999755859</ele>
        <time>2022-08-20T13:30:16.000Z</time>
      </trkpt>
      <trkpt lat="44.07321" lon="6.94998">
        <ele>1682</ele>
        <time>2022-08-20T13:30:19.000Z</time>
      </trkpt>
      <trkpt lat="44.07312" lon="6.9501">
        <ele>1680.5999755859</ele>
        <time>2022-08-20T13:30:22.000Z</time>
      </trkpt>
      <trkpt lat="44.07312" lon="6.95014">
        <ele>1680.4000244141</ele>
        <time>2022-08-20T13:30:23.000Z</time>
      </trkpt>
      <trkpt lat="44.07311" lon="6.9502">
        <ele>1680.1999511719</ele>
        <time>2022-08-20T13:30:24.000Z</time>
      </trkpt>
      <trkpt lat="44.07308" lon="6.95031">
        <ele>1679.5999755859</ele>
        <time>2022-08-20T13:30:26.000Z</time>
      </trkpt>
      <trkpt lat="44.07305" lon="6.95035">
        <ele>1679.4000244141</ele>
        <time>2022-08-20T13:30:27.000Z</time>
      </trkpt>
      <trkpt lat="44.07303" lon="6.9504">
        <ele>1679</ele>
        <time>2022-08-20T13:30:28.000Z</time>
      </trkpt>
      <trkpt lat="44.07302" lon="6.95043">
        <ele>1678.1999511719</ele>
        <time>2022-08-20T13:30:29.000Z</time>
      </trkpt>
      <trkpt lat="44.07295" lon="6.95057">
        <ele>1677.5999755859</ele>
        <time>2022-08-20T13:30:33.000Z</time>
      </trkpt>
      <trkpt lat="44.07279" lon="6.95076">
        <ele>1678</ele>
        <time>2022-08-20T13:30:39.000Z</time>
      </trkpt>
      <trkpt lat="44.07267" lon="6.95082">
        <ele>1677.1999511719</ele>
        <time>2022-08-20T13:30:42.000Z</time>
      </trkpt>
      <trkpt lat="44.07262" lon="6.95083">
        <ele>1676.8000488281</ele>
        <time>2022-08-20T13:30:43.000Z</time>
      </trkpt>
      <trkpt lat="44.07257" lon="6.95082">
        <ele>1676.1999511719</ele>
        <time>2022-08-20T13:30:44.000Z</time>
      </trkpt>
      <trkpt lat="44.07251" lon="6.95081">
        <ele>1675.4000244141</ele>
        <time>2022-08-20T13:30:45.000Z</time>
      </trkpt>
      <trkpt lat="44.07241" lon="6.95075">
        <ele>1673.5999755859</ele>
        <time>2022-08-20T13:30:47.000Z</time>
      </trkpt>
      <trkpt lat="44.07235" lon="6.95071">
        <ele>1673</ele>
        <time>2022-08-20T13:30:48.000Z</time>
      </trkpt>
      <trkpt lat="44.0723" lon="6.95067">
        <ele>1672.1999511719</ele>
        <time>2022-08-20T13:30:49.000Z</time>
      </trkpt>
      <trkpt lat="44.0722" lon="6.95063">
        <ele>1671.1999511719</ele>
        <time>2022-08-20T13:30:51.000Z</time>
      </trkpt>
      <trkpt lat="44.07216" lon="6.9506">
        <ele>1670.5999755859</ele>
        <time>2022-08-20T13:30:52.000Z</time>
      </trkpt>
      <trkpt lat="44.07204" lon="6.9505">
        <ele>1670.4000244141</ele>
        <time>2022-08-20T13:30:55.000Z</time>
      </trkpt>
      <trkpt lat="44.07196" lon="6.95046">
        <ele>1670.8000488281</ele>
        <time>2022-08-20T13:30:57.000Z</time>
      </trkpt>
      <trkpt lat="44.07176" lon="6.95034">
        <ele>1670</ele>
        <time>2022-08-20T13:31:01.000Z</time>
      </trkpt>
      <trkpt lat="44.07171" lon="6.9503">
        <ele>1669.4000244141</ele>
        <time>2022-08-20T13:31:02.000Z</time>
      </trkpt>
      <trkpt lat="44.07165" lon="6.95026">
        <ele>1668.8000488281</ele>
        <time>2022-08-20T13:31:03.000Z</time>
      </trkpt>
      <trkpt lat="44.07153" lon="6.9502">
        <ele>1667.4000244141</ele>
        <time>2022-08-20T13:31:05.000Z</time>
      </trkpt>
      <trkpt lat="44.07138" lon="6.95021">
        <ele>1666</ele>
        <time>2022-08-20T13:31:07.000Z</time>
      </trkpt>
      <trkpt lat="44.0713" lon="6.95022">
        <ele>1664.5999755859</ele>
        <time>2022-08-20T13:31:08.000Z</time>
      </trkpt>
      <trkpt lat="44.07122" lon="6.95022">
        <ele>1662.8000488281</ele>
        <time>2022-08-20T13:31:09.000Z</time>
      </trkpt>
      <trkpt lat="44.07115" lon="6.95022">
        <ele>1662</ele>
        <time>2022-08-20T13:31:10.000Z</time>
      </trkpt>
      <trkpt lat="44.0711" lon="6.95019">
        <ele>1660.4000244141</ele>
        <time>2022-08-20T13:31:11.000Z</time>
      </trkpt>
      <trkpt lat="44.07104" lon="6.95012">
        <ele>1658.5999755859</ele>
        <time>2022-08-20T13:31:12.000Z</time>
      </trkpt>
      <trkpt lat="44.071" lon="6.95005">
        <ele>1657.4000244141</ele>
        <time>2022-08-20T13:31:13.000Z</time>
      </trkpt>
      <trkpt lat="44.07095" lon="6.95002">
        <ele>1656.4000244141</ele>
        <time>2022-08-20T13:31:14.000Z</time>
      </trkpt>
      <trkpt lat="44.07089" lon="6.95001">
        <ele>1654.5999755859</ele>
        <time>2022-08-20T13:31:15.000Z</time>
      </trkpt>
      <trkpt lat="44.07083" lon="6.95001">
        <ele>1653.4000244141</ele>
        <time>2022-08-20T13:31:16.000Z</time>
      </trkpt>
      <trkpt lat="44.07078" lon="6.95002">
        <ele>1653.1999511719</ele>
        <time>2022-08-20T13:31:17.000Z</time>
      </trkpt>
      <trkpt lat="44.07073" lon="6.95001">
        <ele>1652.4000244141</ele>
        <time>2022-08-20T13:31:18.000Z</time>
      </trkpt>
      <trkpt lat="44.07069" lon="6.95001">
        <ele>1651.8000488281</ele>
        <time>2022-08-20T13:31:19.000Z</time>
      </trkpt>
      <trkpt lat="44.07064" lon="6.95002">
        <ele>1651.4000244141</ele>
        <time>2022-08-20T13:31:20.000Z</time>
      </trkpt>
      <trkpt lat="44.07055" lon="6.95002">
        <ele>1650.4000244141</ele>
        <time>2022-08-20T13:31:22.000Z</time>
      </trkpt>
      <trkpt lat="44.07052" lon="6.95002">
        <ele>1650</ele>
        <time>2022-08-20T13:31:23.000Z</time>
      </trkpt>
      <trkpt lat="44.07025" lon="6.95002">
        <ele>1649.8000488281</ele>
        <time>2022-08-20T13:31:31.000Z</time>
      </trkpt>
      <trkpt lat="44.07018" lon="6.94998">
        <ele>1649.1999511719</ele>
        <time>2022-08-20T13:31:36.000Z</time>
      </trkpt>
      <trkpt lat="44.07016" lon="6.94997">
        <ele>1648</ele>
        <time>2022-08-20T13:31:39.000Z</time>
      </trkpt>
      <trkpt lat="44.07015" lon="6.94997">
        <ele>1647.8000488281</ele>
        <time>2022-08-20T13:31:40.000Z</time>
      </trkpt>
      <trkpt lat="44.07015" lon="6.94999">
        <ele>1647.4000244141</ele>
        <time>2022-08-20T13:31:41.000Z</time>
      </trkpt>
      <trkpt lat="44.07013" lon="6.95002">
        <ele>1647.8000488281</ele>
        <time>2022-08-20T13:31:45.000Z</time>
      </trkpt>
      <trkpt lat="44.07012" lon="6.95005">
        <ele>1648.1999511719</ele>
        <time>2022-08-20T13:31:48.000Z</time>
      </trkpt>
      <trkpt lat="44.07011" lon="6.95005">
        <ele>1648.4000244141</ele>
        <time>2022-08-20T13:31:50.000Z</time>
      </trkpt>
      <trkpt lat="44.0701" lon="6.95019">
        <ele>1648.4000244141</ele>
        <time>2022-08-20T13:31:55.000Z</time>
      </trkpt>
      <trkpt lat="44.07006" lon="6.95029">
        <ele>1648.4000244141</ele>
        <time>2022-08-20T13:31:57.000Z</time>
      </trkpt>
      <trkpt lat="44.07004" lon="6.95034">
        <ele>1648</ele>
        <time>2022-08-20T13:31:58.000Z</time>
      </trkpt>
      <trkpt lat="44.06998" lon="6.95047">
        <ele>1646.8000488281</ele>
        <time>2022-08-20T13:32:01.000Z</time>
      </trkpt>
      <trkpt lat="44.06997" lon="6.95053">
        <ele>1646.4000244141</ele>
        <time>2022-08-20T13:32:03.000Z</time>
      </trkpt>
      <trkpt lat="44.06997" lon="6.95058">
        <ele>1646.4000244141</ele>
        <time>2022-08-20T13:32:05.000Z</time>
      </trkpt>
      <trkpt lat="44.06999" lon="6.95063">
        <ele>1647</ele>
        <time>2022-08-20T13:32:07.000Z</time>
      </trkpt>
      <trkpt lat="44.07001" lon="6.95068">
        <ele>1648</ele>
        <time>2022-08-20T13:32:09.000Z</time>
      </trkpt>
      <trkpt lat="44.07003" lon="6.95072">
        <ele>1649.1999511719</ele>
        <time>2022-08-20T13:32:11.000Z</time>
      </trkpt>
      <trkpt lat="44.07005" lon="6.95074">
        <ele>1649.8000488281</ele>
        <time>2022-08-20T13:32:12.000Z</time>
      </trkpt>
      <trkpt lat="44.07007" lon="6.95076">
        <ele>1650.4000244141</ele>
        <time>2022-08-20T13:32:13.000Z</time>
      </trkpt>
      <trkpt lat="44.07011" lon="6.95084">
        <ele>1651.5999755859</ele>
        <time>2022-08-20T13:32:16.000Z</time>
      </trkpt>
      <trkpt lat="44.07013" lon="6.95086">
        <ele>1652</ele>
        <time>2022-08-20T13:32:17.000Z</time>
      </trkpt>
      <trkpt lat="44.07017" lon="6.95093">
        <ele>1652.8000488281</ele>
        <time>2022-08-20T13:32:20.000Z</time>
      </trkpt>
      <trkpt lat="44.07023" lon="6.95101">
        <ele>1654</ele>
        <time>2022-08-20T13:32:24.000Z</time>
      </trkpt>
      <trkpt lat="44.07025" lon="6.95102">
        <ele>1654.4000244141</ele>
        <time>2022-08-20T13:32:25.000Z</time>
      </trkpt>
      <trkpt lat="44.07029" lon="6.95109">
        <ele>1655</ele>
        <time>2022-08-20T13:32:28.000Z</time>
      </trkpt>
      <trkpt lat="44.07031" lon="6.95114">
        <ele>1655.5999755859</ele>
        <time>2022-08-20T13:32:30.000Z</time>
      </trkpt>
      <trkpt lat="44.07038" lon="6.95122">
        <ele>1656.1999511719</ele>
        <time>2022-08-20T13:32:33.000Z</time>
      </trkpt>
      <trkpt lat="44.07039" lon="6.95125">
        <ele>1656.1999511719</ele>
        <time>2022-08-20T13:32:34.000Z</time>
      </trkpt>
      <trkpt lat="44.07049" lon="6.95149">
        <ele>1655.8000488281</ele>
        <time>2022-08-20T13:32:41.000Z</time>
      </trkpt>
      <trkpt lat="44.07052" lon="6.95166">
        <ele>1656.8000488281</ele>
        <time>2022-08-20T13:32:46.000Z</time>
      </trkpt>
      <trkpt lat="44.07053" lon="6.95173">
        <ele>1657.4000244141</ele>
        <time>2022-08-20T13:32:48.000Z</time>
      </trkpt>
      <trkpt lat="44.07056" lon="6.95181">
        <ele>1658.4000244141</ele>
        <time>2022-08-20T13:32:52.000Z</time>
      </trkpt>
      <trkpt lat="44.07057" lon="6.95183">
        <ele>1658.5999755859</ele>
        <time>2022-08-20T13:32:53.000Z</time>
      </trkpt>
      <trkpt lat="44.07063" lon="6.952">
        <ele>1659.5999755859</ele>
        <time>2022-08-20T13:32:58.000Z</time>
      </trkpt>
      <trkpt lat="44.07064" lon="6.95206">
        <ele>1659.8000488281</ele>
        <time>2022-08-20T13:33:00.000Z</time>
      </trkpt>
      <trkpt lat="44.07066" lon="6.95211">
        <ele>1660.1999511719</ele>
        <time>2022-08-20T13:33:02.000Z</time>
      </trkpt>
      <trkpt lat="44.07067" lon="6.95229">
        <ele>1660.5999755859</ele>
        <time>2022-08-20T13:33:06.000Z</time>
      </trkpt>
      <trkpt lat="44.07068" lon="6.95232">
        <ele>1661</ele>
        <time>2022-08-20T13:33:07.000Z</time>
      </trkpt>
      <trkpt lat="44.07069" lon="6.95242">
        <ele>1662.5999755859</ele>
        <time>2022-08-20T13:33:10.000Z</time>
      </trkpt>
      <trkpt lat="44.0707" lon="6.95249">
        <ele>1663.5999755859</ele>
        <time>2022-08-20T13:33:12.000Z</time>
      </trkpt>
      <trkpt lat="44.07072" lon="6.95258">
        <ele>1664.8000488281</ele>
        <time>2022-08-20T13:33:15.000Z</time>
      </trkpt>
      <trkpt lat="44.07074" lon="6.95273">
        <ele>1665.8000488281</ele>
        <time>2022-08-20T13:33:20.000Z</time>
      </trkpt>
      <trkpt lat="44.07077" lon="6.95287">
        <ele>1666.5999755859</ele>
        <time>2022-08-20T13:33:24.000Z</time>
      </trkpt>
      <trkpt lat="44.07074" lon="6.95304">
        <ele>1666.8000488281</ele>
        <time>2022-08-20T13:33:29.000Z</time>
      </trkpt>
      <trkpt lat="44.07067" lon="6.95316">
        <ele>1667.5999755859</ele>
        <time>2022-08-20T13:33:33.000Z</time>
      </trkpt>
      <trkpt lat="44.07061" lon="6.95321">
        <ele>1668</ele>
        <time>2022-08-20T13:33:36.000Z</time>
      </trkpt>
      <trkpt lat="44.07056" lon="6.95325">
        <ele>1668.1999511719</ele>
        <time>2022-08-20T13:33:38.000Z</time>
      </trkpt>
      <trkpt lat="44.07038" lon="6.9534">
        <ele>1668.4000244141</ele>
        <time>2022-08-20T13:33:44.000Z</time>
      </trkpt>
      <trkpt lat="44.07018" lon="6.9536">
        <ele>1668.5999755859</ele>
        <time>2022-08-20T13:33:50.000Z</time>
      </trkpt>
      <trkpt lat="44.07012" lon="6.95366">
        <ele>1669</ele>
        <time>2022-08-20T13:33:52.000Z</time>
      </trkpt>
      <trkpt lat="44.07004" lon="6.95372">
        <ele>1669.1999511719</ele>
        <time>2022-08-20T13:33:55.000Z</time>
      </trkpt>
      <trkpt lat="44.06997" lon="6.95381">
        <ele>1670.1999511719</ele>
        <time>2022-08-20T13:33:58.000Z</time>
      </trkpt>
      <trkpt lat="44.06995" lon="6.95385">
        <ele>1670.4000244141</ele>
        <time>2022-08-20T13:33:59.000Z</time>
      </trkpt>
      <trkpt lat="44.06985" lon="6.95395">
        <ele>1671.1999511719</ele>
        <time>2022-08-20T13:34:03.000Z</time>
      </trkpt>
      <trkpt lat="44.06983" lon="6.95397">
        <ele>1671.4000244141</ele>
        <time>2022-08-20T13:34:04.000Z</time>
      </trkpt>
      <trkpt lat="44.06979" lon="6.95404">
        <ele>1672.4000244141</ele>
        <time>2022-08-20T13:34:07.000Z</time>
      </trkpt>
      <trkpt lat="44.06977" lon="6.95411">
        <ele>1673.1999511719</ele>
        <time>2022-08-20T13:34:09.000Z</time>
      </trkpt>
      <trkpt lat="44.06975" lon="6.95414">
        <ele>1673.5999755859</ele>
        <time>2022-08-20T13:34:10.000Z</time>
      </trkpt>
      <trkpt lat="44.06968" lon="6.95426">
        <ele>1674.5999755859</ele>
        <time>2022-08-20T13:34:14.000Z</time>
      </trkpt>
      <trkpt lat="44.06965" lon="6.95436">
        <ele>1675.8000488281</ele>
        <time>2022-08-20T13:34:17.000Z</time>
      </trkpt>
      <trkpt lat="44.06963" lon="6.95442">
        <ele>1676.4000244141</ele>
        <time>2022-08-20T13:34:19.000Z</time>
      </trkpt>
      <trkpt lat="44.0696" lon="6.95453">
        <ele>1676.8000488281</ele>
        <time>2022-08-20T13:34:22.000Z</time>
      </trkpt>
      <trkpt lat="44.06958" lon="6.9546">
        <ele>1677.1999511719</ele>
        <time>2022-08-20T13:34:24.000Z</time>
      </trkpt>
      <trkpt lat="44.06951" lon="6.95482">
        <ele>1676.5999755859</ele>
        <time>2022-08-20T13:34:29.000Z</time>
      </trkpt>
      <trkpt lat="44.06947" lon="6.95498">
        <ele>1675.8000488281</ele>
        <time>2022-08-20T13:34:32.000Z</time>
      </trkpt>
      <trkpt lat="44.06947" lon="6.95503">
        <ele>1675.5999755859</ele>
        <time>2022-08-20T13:34:33.000Z</time>
      </trkpt>
      <trkpt lat="44.06947" lon="6.95514">
        <ele>1674.8000488281</ele>
        <time>2022-08-20T13:34:35.000Z</time>
      </trkpt>
      <trkpt lat="44.06945" lon="6.95528">
        <ele>1674.1999511719</ele>
        <time>2022-08-20T13:34:37.000Z</time>
      </trkpt>
      <trkpt lat="44.06942" lon="6.95542">
        <ele>1673.4000244141</ele>
        <time>2022-08-20T13:34:39.000Z</time>
      </trkpt>
      <trkpt lat="44.06939" lon="6.95562">
        <ele>1672.5999755859</ele>
        <time>2022-08-20T13:34:42.000Z</time>
      </trkpt>
      <trkpt lat="44.06937" lon="6.9557">
        <ele>1672.4000244141</ele>
        <time>2022-08-20T13:34:43.000Z</time>
      </trkpt>
      <trkpt lat="44.06934" lon="6.95584">
        <ele>1671.5999755859</ele>
        <time>2022-08-20T13:34:45.000Z</time>
      </trkpt>
      <trkpt lat="44.06933" lon="6.9559">
        <ele>1671.4000244141</ele>
        <time>2022-08-20T13:34:46.000Z</time>
      </trkpt>
      <trkpt lat="44.06933" lon="6.95596">
        <ele>1671.4000244141</ele>
        <time>2022-08-20T13:34:47.000Z</time>
      </trkpt>
      <trkpt lat="44.06931" lon="6.9562">
        <ele>1671.8000488281</ele>
        <time>2022-08-20T13:34:51.000Z</time>
      </trkpt>
      <trkpt lat="44.06925" lon="6.9564">
        <ele>1672</ele>
        <time>2022-08-20T13:34:55.000Z</time>
      </trkpt>
      <trkpt lat="44.06922" lon="6.95643">
        <ele>1672</ele>
        <time>2022-08-20T13:34:56.000Z</time>
      </trkpt>
      <trkpt lat="44.06913" lon="6.95653">
        <ele>1672.4000244141</ele>
        <time>2022-08-20T13:34:59.000Z</time>
      </trkpt>
      <trkpt lat="44.06911" lon="6.95657">
        <ele>1672.5999755859</ele>
        <time>2022-08-20T13:35:00.000Z</time>
      </trkpt>
      <trkpt lat="44.06908" lon="6.95661">
        <ele>1672.5999755859</ele>
        <time>2022-08-20T13:35:01.000Z</time>
      </trkpt>
      <trkpt lat="44.06899" lon="6.95678">
        <ele>1673</ele>
        <time>2022-08-20T13:35:05.000Z</time>
      </trkpt>
      <trkpt lat="44.06889" lon="6.95692">
        <ele>1672.4000244141</ele>
        <time>2022-08-20T13:35:07.000Z</time>
      </trkpt>
      <trkpt lat="44.06883" lon="6.95695">
        <ele>1671.5999755859</ele>
        <time>2022-08-20T13:35:08.000Z</time>
      </trkpt>
      <trkpt lat="44.0688" lon="6.95697">
        <ele>1671</ele>
        <time>2022-08-20T13:35:09.000Z</time>
      </trkpt>
      <trkpt lat="44.06872" lon="6.95705">
        <ele>1669.5999755859</ele>
        <time>2022-08-20T13:35:11.000Z</time>
      </trkpt>
      <trkpt lat="44.06867" lon="6.95707">
        <ele>1669.5999755859</ele>
        <time>2022-08-20T13:35:12.000Z</time>
      </trkpt>
      <trkpt lat="44.06854" lon="6.95719">
        <ele>1669.4000244141</ele>
        <time>2022-08-20T13:35:15.000Z</time>
      </trkpt>
      <trkpt lat="44.06849" lon="6.95722">
        <ele>1669.4000244141</ele>
        <time>2022-08-20T13:35:16.000Z</time>
      </trkpt>
      <trkpt lat="44.06838" lon="6.9573">
        <ele>1668.5999755859</ele>
        <time>2022-08-20T13:35:18.000Z</time>
      </trkpt>
      <trkpt lat="44.06832" lon="6.95736">
        <ele>1668.4000244141</ele>
        <time>2022-08-20T13:35:19.000Z</time>
      </trkpt>
      <trkpt lat="44.0682" lon="6.95749">
        <ele>1666.4000244141</ele>
        <time>2022-08-20T13:35:21.000Z</time>
      </trkpt>
      <trkpt lat="44.06815" lon="6.95755">
        <ele>1665.1999511719</ele>
        <time>2022-08-20T13:35:22.000Z</time>
      </trkpt>
      <trkpt lat="44.06804" lon="6.95765">
        <ele>1663.8000488281</ele>
        <time>2022-08-20T13:35:24.000Z</time>
      </trkpt>
      <trkpt lat="44.06799" lon="6.95769">
        <ele>1662.5999755859</ele>
        <time>2022-08-20T13:35:25.000Z</time>
      </trkpt>
      <trkpt lat="44.06793" lon="6.95771">
        <ele>1662.4000244141</ele>
        <time>2022-08-20T13:35:26.000Z</time>
      </trkpt>
      <trkpt lat="44.06776" lon="6.95777">
        <ele>1662</ele>
        <time>2022-08-20T13:35:30.000Z</time>
      </trkpt>
      <trkpt lat="44.0677" lon="6.95781">
        <ele>1663</ele>
        <time>2022-08-20T13:35:34.000Z</time>
      </trkpt>
      <trkpt lat="44.06769" lon="6.95783">
        <ele>1663.8000488281</ele>
        <time>2022-08-20T13:35:36.000Z</time>
      </trkpt>
      <trkpt lat="44.06769" lon="6.95785">
        <ele>1663.8000488281</ele>
        <time>2022-08-20T13:35:42.000Z</time>
      </trkpt>
      <trkpt lat="44.06767" lon="6.95788">
        <ele>1663.5999755859</ele>
        <time>2022-08-20T13:35:47.000Z</time>
      </trkpt>
      <trkpt lat="44.06765" lon="6.95788">
        <ele>1663.8000488281</ele>
        <time>2022-08-20T13:35:49.000Z</time>
      </trkpt>
      <trkpt lat="44.06752" lon="6.95795">
        <ele>1664.8000488281</ele>
        <time>2022-08-20T13:35:54.000Z</time>
      </trkpt>
      <trkpt lat="44.06748" lon="6.95796">
        <ele>1665</ele>
        <time>2022-08-20T13:35:55.000Z</time>
      </trkpt>
      <trkpt lat="44.06738" lon="6.95798">
        <ele>1665.1999511719</ele>
        <time>2022-08-20T13:35:58.000Z</time>
      </trkpt>
      <trkpt lat="44.06723" lon="6.958">
        <ele>1665.5999755859</ele>
        <time>2022-08-20T13:36:02.000Z</time>
      </trkpt>
      <trkpt lat="44.06718" lon="6.95802">
        <ele>1666</ele>
        <time>2022-08-20T13:36:04.000Z</time>
      </trkpt>
      <trkpt lat="44.0671" lon="6.95804">
        <ele>1666.4000244141</ele>
        <time>2022-08-20T13:36:06.000Z</time>
      </trkpt>
      <trkpt lat="44.06705" lon="6.95806">
        <ele>1666.8000488281</ele>
        <time>2022-08-20T13:36:07.000Z</time>
      </trkpt>
      <trkpt lat="44.06692" lon="6.95817">
        <ele>1666.4000244141</ele>
        <time>2022-08-20T13:36:10.000Z</time>
      </trkpt>
      <trkpt lat="44.06669" lon="6.95843">
        <ele>1665.5999755859</ele>
        <time>2022-08-20T13:36:15.000Z</time>
      </trkpt>
      <trkpt lat="44.06649" lon="6.95865">
        <ele>1665</ele>
        <time>2022-08-20T13:36:20.000Z</time>
      </trkpt>
      <trkpt lat="44.06645" lon="6.95868">
        <ele>1664.8000488281</ele>
        <time>2022-08-20T13:36:21.000Z</time>
      </trkpt>
      <trkpt lat="44.0663" lon="6.95882">
        <ele>1664.5999755859</ele>
        <time>2022-08-20T13:36:25.000Z</time>
      </trkpt>
      <trkpt lat="44.06622" lon="6.95891">
        <ele>1664.5999755859</ele>
        <time>2022-08-20T13:36:27.000Z</time>
      </trkpt>
      <trkpt lat="44.06601" lon="6.95914">
        <ele>1663.8000488281</ele>
        <time>2022-08-20T13:36:32.000Z</time>
      </trkpt>
      <trkpt lat="44.06592" lon="6.95922">
        <ele>1663.5999755859</ele>
        <time>2022-08-20T13:36:34.000Z</time>
      </trkpt>
      <trkpt lat="44.06575" lon="6.95938">
        <ele>1663.4000244141</ele>
        <time>2022-08-20T13:36:38.000Z</time>
      </trkpt>
      <trkpt lat="44.0657" lon="6.95948">
        <ele>1663.4000244141</ele>
        <time>2022-08-20T13:36:40.000Z</time>
      </trkpt>
      <trkpt lat="44.06555" lon="6.9597">
        <ele>1663</ele>
        <time>2022-08-20T13:36:44.000Z</time>
      </trkpt>
      <trkpt lat="44.06548" lon="6.95973">
        <ele>1662.8000488281</ele>
        <time>2022-08-20T13:36:45.000Z</time>
      </trkpt>
      <trkpt lat="44.06543" lon="6.95976">
        <ele>1662.5999755859</ele>
        <time>2022-08-20T13:36:46.000Z</time>
      </trkpt>
      <trkpt lat="44.06538" lon="6.95981">
        <ele>1662</ele>
        <time>2022-08-20T13:36:47.000Z</time>
      </trkpt>
      <trkpt lat="44.0653" lon="6.95988">
        <ele>1661.1999511719</ele>
        <time>2022-08-20T13:36:49.000Z</time>
      </trkpt>
      <trkpt lat="44.06526" lon="6.9599">
        <ele>1659.8000488281</ele>
        <time>2022-08-20T13:36:52.000Z</time>
      </trkpt>
      <trkpt lat="44.06526" lon="6.9599">
        <ele>1659.4000244141</ele>
        <time>2022-08-20T13:36:58.000Z</time>
      </trkpt>
      <trkpt lat="44.06525" lon="6.95991">
        <ele>1659.4000244141</ele>
        <time>2022-08-20T13:37:04.000Z</time>
      </trkpt>
      <trkpt lat="44.06523" lon="6.95992">
        <ele>1659.5999755859</ele>
        <time>2022-08-20T13:37:23.000Z</time>
      </trkpt>
      <trkpt lat="44.06524" lon="6.95993">
        <ele>1659.4000244141</ele>
        <time>2022-08-20T13:37:33.000Z</time>
      </trkpt>
      <trkpt lat="44.06526" lon="6.95994">
        <ele>1659.4000244141</ele>
        <time>2022-08-20T13:37:42.000Z</time>
      </trkpt>
      <trkpt lat="44.06528" lon="6.95994">
        <ele>1659.4000244141</ele>
        <time>2022-08-20T13:37:52.000Z</time>
      </trkpt>
      <trkpt lat="44.06529" lon="6.95993">
        <ele>1659.4000244141</ele>
        <time>2022-08-20T13:37:53.000Z</time>
      </trkpt>
      <trkpt lat="44.06529" lon="6.95992">
        <ele>1659.1999511719</ele>
        <time>2022-08-20T13:37:56.000Z</time>
      </trkpt>
      <trkpt lat="44.06529" lon="6.95993">
        <ele>1658.8000488281</ele>
        <time>2022-08-20T13:37:58.000Z</time>
      </trkpt>
      <trkpt lat="44.0653" lon="6.95993">
        <ele>1658.4000244141</ele>
        <time>2022-08-20T13:38:02.000Z</time>
      </trkpt>
      <trkpt lat="44.0653" lon="6.95991">
        <ele>1658.4000244141</ele>
        <time>2022-08-20T13:38:11.000Z</time>
      </trkpt>
      <trkpt lat="44.06531" lon="6.95988">
        <ele>1659</ele>
        <time>2022-08-20T13:38:22.000Z</time>
      </trkpt>
      <trkpt lat="44.06532" lon="6.95987">
        <ele>1659.4000244141</ele>
        <time>2022-08-20T13:38:34.000Z</time>
      </trkpt>
      <trkpt lat="44.06533" lon="6.95988">
        <ele>1659.1999511719</ele>
        <time>2022-08-20T13:38:52.000Z</time>
      </trkpt>
      <trkpt lat="44.06534" lon="6.9599">
        <ele>1659</ele>
        <time>2022-08-20T13:39:06.000Z</time>
      </trkpt>
      <trkpt lat="44.06534" lon="6.9599">
        <ele>1659</ele>
        <time>2022-08-20T13:39:17.000Z</time>
      </trkpt>
      <trkpt lat="44.06535" lon="6.95992">
        <ele>1659</ele>
        <time>2022-08-20T13:39:37.000Z</time>
      </trkpt>
      <trkpt lat="44.06535" lon="6.95993">
        <ele>1658.8000488281</ele>
        <time>2022-08-20T13:39:45.000Z</time>
      </trkpt>
      <trkpt lat="44.06535" lon="6.95995">
        <ele>1658.8000488281</ele>
        <time>2022-08-20T13:39:52.000Z</time>
      </trkpt>
      <trkpt lat="44.06536" lon="6.96004">
        <ele>1658.5999755859</ele>
        <time>2022-08-20T13:40:00.000Z</time>
      </trkpt>
      <trkpt lat="44.06533" lon="6.96014">
        <ele>1657.5999755859</ele>
        <time>2022-08-20T13:40:03.000Z</time>
      </trkpt>
      <trkpt lat="44.06533" lon="6.96016">
        <ele>1656.8000488281</ele>
        <time>2022-08-20T13:40:04.000Z</time>
      </trkpt>
      <trkpt lat="44.06533" lon="6.96018">
        <ele>1656.1999511719</ele>
        <time>2022-08-20T13:40:05.000Z</time>
      </trkpt>
      <trkpt lat="44.0653" lon="6.96024">
        <ele>1654.8000488281</ele>
        <time>2022-08-20T13:40:07.000Z</time>
      </trkpt>
      <trkpt lat="44.06528" lon="6.96026">
        <ele>1654</ele>
        <time>2022-08-20T13:40:08.000Z</time>
      </trkpt>
      <trkpt lat="44.06526" lon="6.96028">
        <ele>1653.5999755859</ele>
        <time>2022-08-20T13:40:09.000Z</time>
      </trkpt>
      <trkpt lat="44.06523" lon="6.96029">
        <ele>1652.4000244141</ele>
        <time>2022-08-20T13:40:11.000Z</time>
      </trkpt>
      <trkpt lat="44.06523" lon="6.96029">
        <ele>1652</ele>
        <time>2022-08-20T13:40:13.000Z</time>
      </trkpt>
      <trkpt lat="44.06519" lon="6.9603">
        <ele>1652.5999755859</ele>
        <time>2022-08-20T13:40:20.000Z</time>
      </trkpt>
      <trkpt lat="44.06516" lon="6.96028">
        <ele>1653.4000244141</ele>
        <time>2022-08-20T13:40:26.000Z</time>
      </trkpt>
      <trkpt lat="44.06514" lon="6.96028">
        <ele>1653.4000244141</ele>
        <time>2022-08-20T13:40:27.000Z</time>
      </trkpt>
      <trkpt lat="44.06512" lon="6.96029">
        <ele>1653.4000244141</ele>
        <time>2022-08-20T13:40:29.000Z</time>
      </trkpt>
      <trkpt lat="44.06509" lon="6.96037">
        <ele>1653.4000244141</ele>
        <time>2022-08-20T13:40:31.000Z</time>
      </trkpt>
      <trkpt lat="44.06506" lon="6.96048">
        <ele>1652.8000488281</ele>
        <time>2022-08-20T13:40:33.000Z</time>
      </trkpt>
      <trkpt lat="44.06504" lon="6.96051">
        <ele>1652.1999511719</ele>
        <time>2022-08-20T13:40:34.000Z</time>
      </trkpt>
      <trkpt lat="44.06503" lon="6.96052">
        <ele>1651.5999755859</ele>
        <time>2022-08-20T13:40:35.000Z</time>
      </trkpt>
      <trkpt lat="44.065" lon="6.96053">
        <ele>1651.1999511719</ele>
        <time>2022-08-20T13:40:36.000Z</time>
      </trkpt>
      <trkpt lat="44.06496" lon="6.9606">
        <ele>1650</ele>
        <time>2022-08-20T13:40:39.000Z</time>
      </trkpt>
      <trkpt lat="44.06493" lon="6.96061">
        <ele>1649</ele>
        <time>2022-08-20T13:40:41.000Z</time>
      </trkpt>
      <trkpt lat="44.06491" lon="6.96065">
        <ele>1648.1999511719</ele>
        <time>2022-08-20T13:40:43.000Z</time>
      </trkpt>
      <trkpt lat="44.06491" lon="6.96065">
        <ele>1647.8000488281</ele>
        <time>2022-08-20T13:40:44.000Z</time>
      </trkpt>
      <trkpt lat="44.06492" lon="6.96067">
        <ele>1647.4000244141</ele>
        <time>2022-08-20T13:40:45.000Z</time>
      </trkpt>
      <trkpt lat="44.06494" lon="6.96069">
        <ele>1646.8000488281</ele>
        <time>2022-08-20T13:40:47.000Z</time>
      </trkpt>
      <trkpt lat="44.0649" lon="6.96082">
        <ele>1645.8000488281</ele>
        <time>2022-08-20T13:40:51.000Z</time>
      </trkpt>
      <trkpt lat="44.06491" lon="6.96083">
        <ele>1645.4000244141</ele>
        <time>2022-08-20T13:40:52.000Z</time>
      </trkpt>
      <trkpt lat="44.06492" lon="6.9609">
        <ele>1644.1999511719</ele>
        <time>2022-08-20T13:40:54.000Z</time>
      </trkpt>
      <trkpt lat="44.06488" lon="6.96094">
        <ele>1642.5999755859</ele>
        <time>2022-08-20T13:40:56.000Z</time>
      </trkpt>
      <trkpt lat="44.06485" lon="6.96097">
        <ele>1642</ele>
        <time>2022-08-20T13:40:57.000Z</time>
      </trkpt>
      <trkpt lat="44.06483" lon="6.961">
        <ele>1641.4000244141</ele>
        <time>2022-08-20T13:40:58.000Z</time>
      </trkpt>
      <trkpt lat="44.06482" lon="6.96107">
        <ele>1640.8000488281</ele>
        <time>2022-08-20T13:41:00.000Z</time>
      </trkpt>
      <trkpt lat="44.06481" lon="6.96109">
        <ele>1640.1999511719</ele>
        <time>2022-08-20T13:41:01.000Z</time>
      </trkpt>
      <trkpt lat="44.06482" lon="6.96111">
        <ele>1639.5999755859</ele>
        <time>2022-08-20T13:41:03.000Z</time>
      </trkpt>
      <trkpt lat="44.06483" lon="6.96111">
        <ele>1639.5999755859</ele>
        <time>2022-08-20T13:41:04.000Z</time>
      </trkpt>
      <trkpt lat="44.0649" lon="6.96117">
        <ele>1638.8000488281</ele>
        <time>2022-08-20T13:41:06.000Z</time>
      </trkpt>
      <trkpt lat="44.06485" lon="6.9612">
        <ele>1637.1999511719</ele>
        <time>2022-08-20T13:41:08.000Z</time>
      </trkpt>
      <trkpt lat="44.06483" lon="6.9612">
        <ele>1636</ele>
        <time>2022-08-20T13:41:09.000Z</time>
      </trkpt>
      <trkpt lat="44.06481" lon="6.9612">
        <ele>1635</ele>
        <time>2022-08-20T13:41:10.000Z</time>
      </trkpt>
      <trkpt lat="44.06479" lon="6.96121">
        <ele>1634</ele>
        <time>2022-08-20T13:41:12.000Z</time>
      </trkpt>
      <trkpt lat="44.06478" lon="6.96122">
        <ele>1634.4000244141</ele>
        <time>2022-08-20T13:41:13.000Z</time>
      </trkpt>
      <trkpt lat="44.06478" lon="6.96122">
        <ele>1635</ele>
        <time>2022-08-20T13:41:15.000Z</time>
      </trkpt>
      <trkpt lat="44.06476" lon="6.96128">
        <ele>1635.4000244141</ele>
        <time>2022-08-20T13:41:18.000Z</time>
      </trkpt>
      <trkpt lat="44.06473" lon="6.96137">
        <ele>1635</ele>
        <time>2022-08-20T13:41:21.000Z</time>
      </trkpt>
      <trkpt lat="44.06473" lon="6.96139">
        <ele>1634.4000244141</ele>
        <time>2022-08-20T13:41:22.000Z</time>
      </trkpt>
      <trkpt lat="44.06471" lon="6.96142">
        <ele>1633.5999755859</ele>
        <time>2022-08-20T13:41:23.000Z</time>
      </trkpt>
      <trkpt lat="44.06468" lon="6.96143">
        <ele>1632.5999755859</ele>
        <time>2022-08-20T13:41:25.000Z</time>
      </trkpt>
      <trkpt lat="44.06469" lon="6.96143">
        <ele>1632.4000244141</ele>
        <time>2022-08-20T13:41:26.000Z</time>
      </trkpt>
      <trkpt lat="44.06466" lon="6.96144">
        <ele>1633.5999755859</ele>
        <time>2022-08-20T13:41:32.000Z</time>
      </trkpt>
      <trkpt lat="44.06466" lon="6.96144">
        <ele>1633.8000488281</ele>
        <time>2022-08-20T13:41:33.000Z</time>
      </trkpt>
      <trkpt lat="44.06465" lon="6.96144">
        <ele>1634.4000244141</ele>
        <time>2022-08-20T13:41:39.000Z</time>
      </trkpt>
      <trkpt lat="44.06463" lon="6.96145">
        <ele>1634.1999511719</ele>
        <time>2022-08-20T13:41:40.000Z</time>
      </trkpt>
      <trkpt lat="44.06459" lon="6.96143">
        <ele>1634</ele>
        <time>2022-08-20T13:41:43.000Z</time>
      </trkpt>
      <trkpt lat="44.06456" lon="6.96153">
        <ele>1633.4000244141</ele>
        <time>2022-08-20T13:41:46.000Z</time>
      </trkpt>
      <trkpt lat="44.06452" lon="6.96165">
        <ele>1632.8000488281</ele>
        <time>2022-08-20T13:41:48.000Z</time>
      </trkpt>
      <trkpt lat="44.0645" lon="6.9617">
        <ele>1632.1999511719</ele>
        <time>2022-08-20T13:41:49.000Z</time>
      </trkpt>
      <trkpt lat="44.06447" lon="6.96173">
        <ele>1632</ele>
        <time>2022-08-20T13:41:50.000Z</time>
      </trkpt>
      <trkpt lat="44.06443" lon="6.96181">
        <ele>1631</ele>
        <time>2022-08-20T13:41:52.000Z</time>
      </trkpt>
      <trkpt lat="44.06441" lon="6.96187">
        <ele>1630.4000244141</ele>
        <time>2022-08-20T13:41:54.000Z</time>
      </trkpt>
      <trkpt lat="44.06441" lon="6.9619">
        <ele>1629.5999755859</ele>
        <time>2022-08-20T13:41:55.000Z</time>
      </trkpt>
      <trkpt lat="44.0644" lon="6.96197">
        <ele>1628.8000488281</ele>
        <time>2022-08-20T13:41:58.000Z</time>
      </trkpt>
      <trkpt lat="44.06441" lon="6.96197">
        <ele>1628.5999755859</ele>
        <time>2022-08-20T13:41:59.000Z</time>
      </trkpt>
      <trkpt lat="44.0644" lon="6.962">
        <ele>1628</ele>
        <time>2022-08-20T13:42:01.000Z</time>
      </trkpt>
      <trkpt lat="44.06442" lon="6.96207">
        <ele>1627</ele>
        <time>2022-08-20T13:42:03.000Z</time>
      </trkpt>
      <trkpt lat="44.06443" lon="6.96207">
        <ele>1625.4000244141</ele>
        <time>2022-08-20T13:42:05.000Z</time>
      </trkpt>
      <trkpt lat="44.06443" lon="6.9621">
        <ele>1624.8000488281</ele>
        <time>2022-08-20T13:42:06.000Z</time>
      </trkpt>
      <trkpt lat="44.06441" lon="6.96212">
        <ele>1624.4000244141</ele>
        <time>2022-08-20T13:42:07.000Z</time>
      </trkpt>
      <trkpt lat="44.06442" lon="6.96213">
        <ele>1624.1999511719</ele>
        <time>2022-08-20T13:42:08.000Z</time>
      </trkpt>
      <trkpt lat="44.06446" lon="6.96218">
        <ele>1623.8000488281</ele>
        <time>2022-08-20T13:42:10.000Z</time>
      </trkpt>
      <trkpt lat="44.06447" lon="6.96222">
        <ele>1622.8000488281</ele>
        <time>2022-08-20T13:42:12.000Z</time>
      </trkpt>
      <trkpt lat="44.06447" lon="6.96221">
        <ele>1622.4000244141</ele>
        <time>2022-08-20T13:42:13.000Z</time>
      </trkpt>
      <trkpt lat="44.06449" lon="6.96224">
        <ele>1622.1999511719</ele>
        <time>2022-08-20T13:42:14.000Z</time>
      </trkpt>
      <trkpt lat="44.06452" lon="6.9623">
        <ele>1621.4000244141</ele>
        <time>2022-08-20T13:42:16.000Z</time>
      </trkpt>
      <trkpt lat="44.06453" lon="6.96237">
        <ele>1620</ele>
        <time>2022-08-20T13:42:18.000Z</time>
      </trkpt>
      <trkpt lat="44.06455" lon="6.96243">
        <ele>1618</ele>
        <time>2022-08-20T13:42:20.000Z</time>
      </trkpt>
      <trkpt lat="44.06454" lon="6.96247">
        <ele>1617</ele>
        <time>2022-08-20T13:42:21.000Z</time>
      </trkpt>
      <trkpt lat="44.06455" lon="6.96249">
        <ele>1615.8000488281</ele>
        <time>2022-08-20T13:42:22.000Z</time>
      </trkpt>
      <trkpt lat="44.06455" lon="6.9625">
        <ele>1614.8000488281</ele>
        <time>2022-08-20T13:42:23.000Z</time>
      </trkpt>
      <trkpt lat="44.06459" lon="6.96255">
        <ele>1613.1999511719</ele>
        <time>2022-08-20T13:42:25.000Z</time>
      </trkpt>
      <trkpt lat="44.06462" lon="6.96257">
        <ele>1612</ele>
        <time>2022-08-20T13:42:27.000Z</time>
      </trkpt>
      <trkpt lat="44.06463" lon="6.96259">
        <ele>1611.4000244141</ele>
        <time>2022-08-20T13:42:28.000Z</time>
      </trkpt>
      <trkpt lat="44.06466" lon="6.96258">
        <ele>1609.4000244141</ele>
        <time>2022-08-20T13:42:30.000Z</time>
      </trkpt>
      <trkpt lat="44.06471" lon="6.96254">
        <ele>1608.8000488281</ele>
        <time>2022-08-20T13:42:31.000Z</time>
      </trkpt>
      <trkpt lat="44.06473" lon="6.96251">
        <ele>1608</ele>
        <time>2022-08-20T13:42:32.000Z</time>
      </trkpt>
      <trkpt lat="44.06473" lon="6.96247">
        <ele>1607.4000244141</ele>
        <time>2022-08-20T13:42:33.000Z</time>
      </trkpt>
      <trkpt lat="44.06474" lon="6.96244">
        <ele>1606.5999755859</ele>
        <time>2022-08-20T13:42:34.000Z</time>
      </trkpt>
      <trkpt lat="44.06483" lon="6.96238">
        <ele>1605.5999755859</ele>
        <time>2022-08-20T13:42:37.000Z</time>
      </trkpt>
      <trkpt lat="44.06484" lon="6.96238">
        <ele>1605.4000244141</ele>
        <time>2022-08-20T13:42:38.000Z</time>
      </trkpt>
      <trkpt lat="44.06488" lon="6.96236">
        <ele>1604.5999755859</ele>
        <time>2022-08-20T13:42:41.000Z</time>
      </trkpt>
      <trkpt lat="44.06489" lon="6.96235">
        <ele>1604</ele>
        <time>2022-08-20T13:42:42.000Z</time>
      </trkpt>
      <trkpt lat="44.06489" lon="6.96233">
        <ele>1603.4000244141</ele>
        <time>2022-08-20T13:42:43.000Z</time>
      </trkpt>
      <trkpt lat="44.06492" lon="6.9623">
        <ele>1603</ele>
        <time>2022-08-20T13:42:45.000Z</time>
      </trkpt>
      <trkpt lat="44.06498" lon="6.96228">
        <ele>1602.8000488281</ele>
        <time>2022-08-20T13:42:48.000Z</time>
      </trkpt>
      <trkpt lat="44.06501" lon="6.96232">
        <ele>1602.4000244141</ele>
        <time>2022-08-20T13:42:50.000Z</time>
      </trkpt>
      <trkpt lat="44.06505" lon="6.96235">
        <ele>1601.8000488281</ele>
        <time>2022-08-20T13:42:52.000Z</time>
      </trkpt>
      <trkpt lat="44.0651" lon="6.96233">
        <ele>1600.1999511719</ele>
        <time>2022-08-20T13:42:54.000Z</time>
      </trkpt>
      <trkpt lat="44.06513" lon="6.9623">
        <ele>1599.1999511719</ele>
        <time>2022-08-20T13:42:55.000Z</time>
      </trkpt>
      <trkpt lat="44.06516" lon="6.96228">
        <ele>1598.1999511719</ele>
        <time>2022-08-20T13:42:56.000Z</time>
      </trkpt>
      <trkpt lat="44.0652" lon="6.96228">
        <ele>1597.1999511719</ele>
        <time>2022-08-20T13:42:57.000Z</time>
      </trkpt>
      <trkpt lat="44.06524" lon="6.96229">
        <ele>1596.1999511719</ele>
        <time>2022-08-20T13:42:58.000Z</time>
      </trkpt>
      <trkpt lat="44.06524" lon="6.96229">
        <ele>1595.4000244141</ele>
        <time>2022-08-20T13:42:59.000Z</time>
      </trkpt>
      <trkpt lat="44.06525" lon="6.96229">
        <ele>1594.1999511719</ele>
        <time>2022-08-20T13:43:01.000Z</time>
      </trkpt>
      <trkpt lat="44.06526" lon="6.96229">
        <ele>1593.4000244141</ele>
        <time>2022-08-20T13:43:06.000Z</time>
      </trkpt>
      <trkpt lat="44.06532" lon="6.96234">
        <ele>1593.5999755859</ele>
        <time>2022-08-20T13:43:18.000Z</time>
      </trkpt>
      <trkpt lat="44.06529" lon="6.96243">
        <ele>1593.5999755859</ele>
        <time>2022-08-20T13:43:21.000Z</time>
      </trkpt>
      <trkpt lat="44.06529" lon="6.96244">
        <ele>1593.4000244141</ele>
        <time>2022-08-20T13:43:22.000Z</time>
      </trkpt>
      <trkpt lat="44.06528" lon="6.96249">
        <ele>1593</ele>
        <time>2022-08-20T13:43:25.000Z</time>
      </trkpt>
      <trkpt lat="44.06525" lon="6.96254">
        <ele>1592.8000488281</ele>
        <time>2022-08-20T13:43:27.000Z</time>
      </trkpt>
      <trkpt lat="44.06525" lon="6.96257">
        <ele>1592.8000488281</ele>
        <time>2022-08-20T13:43:28.000Z</time>
      </trkpt>
      <trkpt lat="44.06526" lon="6.96259">
        <ele>1591.8000488281</ele>
        <time>2022-08-20T13:43:31.000Z</time>
      </trkpt>
      <trkpt lat="44.06531" lon="6.96258">
        <ele>1590.4000244141</ele>
        <time>2022-08-20T13:43:34.000Z</time>
      </trkpt>
      <trkpt lat="44.06534" lon="6.96257">
        <ele>1590</ele>
        <time>2022-08-20T13:43:35.000Z</time>
      </trkpt>
      <trkpt lat="44.06538" lon="6.96252">
        <ele>1588.8000488281</ele>
        <time>2022-08-20T13:43:37.000Z</time>
      </trkpt>
      <trkpt lat="44.06542" lon="6.96248">
        <ele>1587.1999511719</ele>
        <time>2022-08-20T13:43:39.000Z</time>
      </trkpt>
      <trkpt lat="44.06542" lon="6.96248">
        <ele>1586.1999511719</ele>
        <time>2022-08-20T13:43:41.000Z</time>
      </trkpt>
      <trkpt lat="44.06544" lon="6.96247">
        <ele>1585.8000488281</ele>
        <time>2022-08-20T13:43:43.000Z</time>
      </trkpt>
      <trkpt lat="44.06546" lon="6.96246">
        <ele>1585.1999511719</ele>
        <time>2022-08-20T13:43:46.000Z</time>
      </trkpt>
      <trkpt lat="44.06549" lon="6.96248">
        <ele>1584.4000244141</ele>
        <time>2022-08-20T13:43:49.000Z</time>
      </trkpt>
      <trkpt lat="44.06549" lon="6.9625">
        <ele>1584.1999511719</ele>
        <time>2022-08-20T13:43:50.000Z</time>
      </trkpt>
      <trkpt lat="44.06546" lon="6.96252">
        <ele>1583</ele>
        <time>2022-08-20T13:43:53.000Z</time>
      </trkpt>
      <trkpt lat="44.06546" lon="6.96251">
        <ele>1582.8000488281</ele>
        <time>2022-08-20T13:43:54.000Z</time>
      </trkpt>
      <trkpt lat="44.06543" lon="6.96256">
        <ele>1582.4000244141</ele>
        <time>2022-08-20T13:43:59.000Z</time>
      </trkpt>
      <trkpt lat="44.06543" lon="6.96258">
        <ele>1582.4000244141</ele>
        <time>2022-08-20T13:44:00.000Z</time>
      </trkpt>
      <trkpt lat="44.06542" lon="6.96262">
        <ele>1582</ele>
        <time>2022-08-20T13:44:03.000Z</time>
      </trkpt>
      <trkpt lat="44.06541" lon="6.96265">
        <ele>1581.8000488281</ele>
        <time>2022-08-20T13:44:04.000Z</time>
      </trkpt>
      <trkpt lat="44.06539" lon="6.96268">
        <ele>1581.4000244141</ele>
        <time>2022-08-20T13:44:05.000Z</time>
      </trkpt>
      <trkpt lat="44.06539" lon="6.96276">
        <ele>1580.4000244141</ele>
        <time>2022-08-20T13:44:07.000Z</time>
      </trkpt>
      <trkpt lat="44.06539" lon="6.96279">
        <ele>1579.5999755859</ele>
        <time>2022-08-20T13:44:08.000Z</time>
      </trkpt>
      <trkpt lat="44.06537" lon="6.96283">
        <ele>1579</ele>
        <time>2022-08-20T13:44:09.000Z</time>
      </trkpt>
      <trkpt lat="44.06536" lon="6.96287">
        <ele>1577.5999755859</ele>
        <time>2022-08-20T13:44:11.000Z</time>
      </trkpt>
      <trkpt lat="44.06537" lon="6.96287">
        <ele>1576.4000244141</ele>
        <time>2022-08-20T13:44:13.000Z</time>
      </trkpt>
      <trkpt lat="44.06537" lon="6.96288">
        <ele>1576</ele>
        <time>2022-08-20T13:44:15.000Z</time>
      </trkpt>
      <trkpt lat="44.06539" lon="6.9629">
        <ele>1576.4000244141</ele>
        <time>2022-08-20T13:44:21.000Z</time>
      </trkpt>
      <trkpt lat="44.06539" lon="6.96293">
        <ele>1575.8000488281</ele>
        <time>2022-08-20T13:44:26.000Z</time>
      </trkpt>
      <trkpt lat="44.06539" lon="6.96296">
        <ele>1576</ele>
        <time>2022-08-20T13:44:27.000Z</time>
      </trkpt>
      <trkpt lat="44.06539" lon="6.96305">
        <ele>1576</ele>
        <time>2022-08-20T13:44:30.000Z</time>
      </trkpt>
      <trkpt lat="44.06541" lon="6.96308">
        <ele>1575.1999511719</ele>
        <time>2022-08-20T13:44:32.000Z</time>
      </trkpt>
      <trkpt lat="44.06547" lon="6.96306">
        <ele>1574.1999511719</ele>
        <time>2022-08-20T13:44:34.000Z</time>
      </trkpt>
      <trkpt lat="44.06549" lon="6.96308">
        <ele>1573.5999755859</ele>
        <time>2022-08-20T13:44:35.000Z</time>
      </trkpt>
      <trkpt lat="44.06552" lon="6.96317">
        <ele>1572.5999755859</ele>
        <time>2022-08-20T13:44:37.000Z</time>
      </trkpt>
      <trkpt lat="44.06551" lon="6.96319">
        <ele>1572</ele>
        <time>2022-08-20T13:44:38.000Z</time>
      </trkpt>
      <trkpt lat="44.0655" lon="6.96323">
        <ele>1571</ele>
        <time>2022-08-20T13:44:39.000Z</time>
      </trkpt>
      <trkpt lat="44.0655" lon="6.96326">
        <ele>1570</ele>
        <time>2022-08-20T13:44:40.000Z</time>
      </trkpt>
      <trkpt lat="44.06552" lon="6.96328">
        <ele>1569.1999511719</ele>
        <time>2022-08-20T13:44:41.000Z</time>
      </trkpt>
      <trkpt lat="44.06554" lon="6.96331">
        <ele>1567.5999755859</ele>
        <time>2022-08-20T13:44:43.000Z</time>
      </trkpt>
      <trkpt lat="44.06555" lon="6.96331">
        <ele>1567.1999511719</ele>
        <time>2022-08-20T13:44:44.000Z</time>
      </trkpt>
      <trkpt lat="44.06556" lon="6.96331">
        <ele>1566.5999755859</ele>
        <time>2022-08-20T13:44:45.000Z</time>
      </trkpt>
      <trkpt lat="44.06556" lon="6.96331">
        <ele>1565.1999511719</ele>
        <time>2022-08-20T13:44:48.000Z</time>
      </trkpt>
      <trkpt lat="44.06557" lon="6.9633">
        <ele>1564.4000244141</ele>
        <time>2022-08-20T13:45:01.000Z</time>
      </trkpt>
      <trkpt lat="44.06559" lon="6.96328">
        <ele>1564.4000244141</ele>
        <time>2022-08-20T13:45:03.000Z</time>
      </trkpt>
      <trkpt lat="44.06564" lon="6.96325">
        <ele>1564.5999755859</ele>
        <time>2022-08-20T13:45:05.000Z</time>
      </trkpt>
      <trkpt lat="44.06573" lon="6.96319">
        <ele>1564</ele>
        <time>2022-08-20T13:45:08.000Z</time>
      </trkpt>
      <trkpt lat="44.06576" lon="6.96317">
        <ele>1563.4000244141</ele>
        <time>2022-08-20T13:45:09.000Z</time>
      </trkpt>
      <trkpt lat="44.06579" lon="6.96316">
        <ele>1562.5999755859</ele>
        <time>2022-08-20T13:45:10.000Z</time>
      </trkpt>
      <trkpt lat="44.06582" lon="6.96312">
        <ele>1562.1999511719</ele>
        <time>2022-08-20T13:45:11.000Z</time>
      </trkpt>
      <trkpt lat="44.06588" lon="6.96309">
        <ele>1561.4000244141</ele>
        <time>2022-08-20T13:45:12.000Z</time>
      </trkpt>
      <trkpt lat="44.06597" lon="6.96304">
        <ele>1560</ele>
        <time>2022-08-20T13:45:14.000Z</time>
      </trkpt>
      <trkpt lat="44.06604" lon="6.96299">
        <ele>1559.1999511719</ele>
        <time>2022-08-20T13:45:15.000Z</time>
      </trkpt>
      <trkpt lat="44.06608" lon="6.96297">
        <ele>1558.8000488281</ele>
        <time>2022-08-20T13:45:16.000Z</time>
      </trkpt>
      <trkpt lat="44.06615" lon="6.96295">
        <ele>1557.5999755859</ele>
        <time>2022-08-20T13:45:18.000Z</time>
      </trkpt>
      <trkpt lat="44.06619" lon="6.96293">
        <ele>1557.1999511719</ele>
        <time>2022-08-20T13:45:19.000Z</time>
      </trkpt>
      <trkpt lat="44.06626" lon="6.9629">
        <ele>1556</ele>
        <time>2022-08-20T13:45:21.000Z</time>
      </trkpt>
      <trkpt lat="44.06633" lon="6.96287">
        <ele>1554.8000488281</ele>
        <time>2022-08-20T13:45:23.000Z</time>
      </trkpt>
      <trkpt lat="44.06638" lon="6.96281">
        <ele>1553.4000244141</ele>
        <time>2022-08-20T13:45:25.000Z</time>
      </trkpt>
      <trkpt lat="44.06644" lon="6.96277">
        <ele>1552.8000488281</ele>
        <time>2022-08-20T13:45:27.000Z</time>
      </trkpt>
      <trkpt lat="44.06647" lon="6.96279">
        <ele>1552.1999511719</ele>
        <time>2022-08-20T13:45:28.000Z</time>
      </trkpt>
      <trkpt lat="44.06657" lon="6.96277">
        <ele>1552.4000244141</ele>
        <time>2022-08-20T13:45:30.000Z</time>
      </trkpt>
      <trkpt lat="44.06669" lon="6.96271">
        <ele>1551</ele>
        <time>2022-08-20T13:45:32.000Z</time>
      </trkpt>
      <trkpt lat="44.06677" lon="6.96262">
        <ele>1549.4000244141</ele>
        <time>2022-08-20T13:45:34.000Z</time>
      </trkpt>
      <trkpt lat="44.0668" lon="6.96258">
        <ele>1548.4000244141</ele>
        <time>2022-08-20T13:45:35.000Z</time>
      </trkpt>
      <trkpt lat="44.06683" lon="6.96253">
        <ele>1547.8000488281</ele>
        <time>2022-08-20T13:45:36.000Z</time>
      </trkpt>
      <trkpt lat="44.06688" lon="6.96249">
        <ele>1547.4000244141</ele>
        <time>2022-08-20T13:45:37.000Z</time>
      </trkpt>
      <trkpt lat="44.06693" lon="6.96249">
        <ele>1547.1999511719</ele>
        <time>2022-08-20T13:45:38.000Z</time>
      </trkpt>
      <trkpt lat="44.06701" lon="6.96243">
        <ele>1546.4000244141</ele>
        <time>2022-08-20T13:45:40.000Z</time>
      </trkpt>
      <trkpt lat="44.06703" lon="6.96236">
        <ele>1545.8000488281</ele>
        <time>2022-08-20T13:45:41.000Z</time>
      </trkpt>
      <trkpt lat="44.06708" lon="6.96234">
        <ele>1545.1999511719</ele>
        <time>2022-08-20T13:45:42.000Z</time>
      </trkpt>
      <trkpt lat="44.06714" lon="6.96229">
        <ele>1543</ele>
        <time>2022-08-20T13:45:44.000Z</time>
      </trkpt>
      <trkpt lat="44.06721" lon="6.96223">
        <ele>1541.8000488281</ele>
        <time>2022-08-20T13:45:46.000Z</time>
      </trkpt>
      <trkpt lat="44.0673" lon="6.96218">
        <ele>1540.4000244141</ele>
        <time>2022-08-20T13:45:48.000Z</time>
      </trkpt>
      <trkpt lat="44.06739" lon="6.96217">
        <ele>1539</ele>
        <time>2022-08-20T13:45:50.000Z</time>
      </trkpt>
      <trkpt lat="44.06743" lon="6.96214">
        <ele>1538.1999511719</ele>
        <time>2022-08-20T13:45:51.000Z</time>
      </trkpt>
      <trkpt lat="44.06749" lon="6.96213">
        <ele>1537.5999755859</ele>
        <time>2022-08-20T13:45:52.000Z</time>
      </trkpt>
      <trkpt lat="44.06753" lon="6.96213">
        <ele>1536.8000488281</ele>
        <time>2022-08-20T13:45:53.000Z</time>
      </trkpt>
      <trkpt lat="44.06756" lon="6.96212">
        <ele>1536.4000244141</ele>
        <time>2022-08-20T13:45:54.000Z</time>
      </trkpt>
      <trkpt lat="44.06761" lon="6.96214">
        <ele>1535.1999511719</ele>
        <time>2022-08-20T13:45:56.000Z</time>
      </trkpt>
      <trkpt lat="44.06762" lon="6.96217">
        <ele>1534</ele>
        <time>2022-08-20T13:45:58.000Z</time>
      </trkpt>
      <trkpt lat="44.06762" lon="6.96219">
        <ele>1533</ele>
        <time>2022-08-20T13:45:59.000Z</time>
      </trkpt>
      <trkpt lat="44.06762" lon="6.96218">
        <ele>1532</ele>
        <time>2022-08-20T13:46:00.000Z</time>
      </trkpt>
      <trkpt lat="44.06762" lon="6.9622">
        <ele>1530.8000488281</ele>
        <time>2022-08-20T13:46:02.000Z</time>
      </trkpt>
      <trkpt lat="44.06762" lon="6.96221">
        <ele>1530.4000244141</ele>
        <time>2022-08-20T13:46:04.000Z</time>
      </trkpt>
      <trkpt lat="44.06764" lon="6.96226">
        <ele>1530.8000488281</ele>
        <time>2022-08-20T13:46:16.000Z</time>
      </trkpt>
      <trkpt lat="44.06769" lon="6.96231">
        <ele>1531</ele>
        <time>2022-08-20T13:46:36.000Z</time>
      </trkpt>
      <trkpt lat="44.06769" lon="6.9623">
        <ele>1531</ele>
        <time>2022-08-20T13:46:49.000Z</time>
      </trkpt>
      <trkpt lat="44.06768" lon="6.9623">
        <ele>1531.1999511719</ele>
        <time>2022-08-20T13:47:09.000Z</time>
      </trkpt>
      <trkpt lat="44.06768" lon="6.9623">
        <ele>1531.1999511719</ele>
        <time>2022-08-20T13:47:18.000Z</time>
      </trkpt>
      <trkpt lat="44.06765" lon="6.9623">
        <ele>1531.1999511719</ele>
        <time>2022-08-20T13:47:24.000Z</time>
      </trkpt>
      <trkpt lat="44.06766" lon="6.9623">
        <ele>1531.1999511719</ele>
        <time>2022-08-20T13:47:38.000Z</time>
      </trkpt>
      <trkpt lat="44.06768" lon="6.9623">
        <ele>1531</ele>
        <time>2022-08-20T13:47:46.000Z</time>
      </trkpt>
      <trkpt lat="44.06765" lon="6.96242">
        <ele>1530.8000488281</ele>
        <time>2022-08-20T13:47:49.000Z</time>
      </trkpt>
      <trkpt lat="44.0677" lon="6.96244">
        <ele>1529.1999511719</ele>
        <time>2022-08-20T13:47:52.000Z</time>
      </trkpt>
      <trkpt lat="44.0677" lon="6.9625">
        <ele>1527.5999755859</ele>
        <time>2022-08-20T13:47:55.000Z</time>
      </trkpt>
      <trkpt lat="44.0677" lon="6.96255">
        <ele>1526.1999511719</ele>
        <time>2022-08-20T13:47:57.000Z</time>
      </trkpt>
      <trkpt lat="44.06771" lon="6.96259">
        <ele>1525</ele>
        <time>2022-08-20T13:47:59.000Z</time>
      </trkpt>
      <trkpt lat="44.06771" lon="6.96262">
        <ele>1523.8000488281</ele>
        <time>2022-08-20T13:48:01.000Z</time>
      </trkpt>
      <trkpt lat="44.0677" lon="6.96265">
        <ele>1522.1999511719</ele>
        <time>2022-08-20T13:48:03.000Z</time>
      </trkpt>
      <trkpt lat="44.0677" lon="6.96268">
        <ele>1521.5999755859</ele>
        <time>2022-08-20T13:48:04.000Z</time>
      </trkpt>
      <trkpt lat="44.0677" lon="6.96271">
        <ele>1521.1999511719</ele>
        <time>2022-08-20T13:48:05.000Z</time>
      </trkpt>
      <trkpt lat="44.06768" lon="6.96275">
        <ele>1519.4000244141</ele>
        <time>2022-08-20T13:48:07.000Z</time>
      </trkpt>
      <trkpt lat="44.06767" lon="6.96278">
        <ele>1517.8000488281</ele>
        <time>2022-08-20T13:48:09.000Z</time>
      </trkpt>
      <trkpt lat="44.0677" lon="6.96285">
        <ele>1516.4000244141</ele>
        <time>2022-08-20T13:48:11.000Z</time>
      </trkpt>
      <trkpt lat="44.06769" lon="6.96287">
        <ele>1515.8000488281</ele>
        <time>2022-08-20T13:48:12.000Z</time>
      </trkpt>
      <trkpt lat="44.06766" lon="6.96291">
        <ele>1514.8000488281</ele>
        <time>2022-08-20T13:48:13.000Z</time>
      </trkpt>
      <trkpt lat="44.06763" lon="6.96298">
        <ele>1513</ele>
        <time>2022-08-20T13:48:15.000Z</time>
      </trkpt>
      <trkpt lat="44.06763" lon="6.96302">
        <ele>1512.4000244141</ele>
        <time>2022-08-20T13:48:16.000Z</time>
      </trkpt>
      <trkpt lat="44.06765" lon="6.96303">
        <ele>1511.4000244141</ele>
        <time>2022-08-20T13:48:17.000Z</time>
      </trkpt>
      <trkpt lat="44.06771" lon="6.96309">
        <ele>1510</ele>
        <time>2022-08-20T13:48:19.000Z</time>
      </trkpt>
      <trkpt lat="44.06777" lon="6.96313">
        <ele>1508.4000244141</ele>
        <time>2022-08-20T13:48:21.000Z</time>
      </trkpt>
      <trkpt lat="44.06781" lon="6.96311">
        <ele>1508</ele>
        <time>2022-08-20T13:48:22.000Z</time>
      </trkpt>
      <trkpt lat="44.06786" lon="6.96314">
        <ele>1507</ele>
        <time>2022-08-20T13:48:24.000Z</time>
      </trkpt>
      <trkpt lat="44.06788" lon="6.96315">
        <ele>1505.8000488281</ele>
        <time>2022-08-20T13:48:26.000Z</time>
      </trkpt>
      <trkpt lat="44.06789" lon="6.9632">
        <ele>1505</ele>
        <time>2022-08-20T13:48:28.000Z</time>
      </trkpt>
      <trkpt lat="44.06791" lon="6.96321">
        <ele>1504.5999755859</ele>
        <time>2022-08-20T13:48:29.000Z</time>
      </trkpt>
      <trkpt lat="44.06794" lon="6.96324">
        <ele>1503.4000244141</ele>
        <time>2022-08-20T13:48:30.000Z</time>
      </trkpt>
      <trkpt lat="44.06798" lon="6.96328">
        <ele>1502.4000244141</ele>
        <time>2022-08-20T13:48:32.000Z</time>
      </trkpt>
      <trkpt lat="44.06804" lon="6.96333">
        <ele>1500.4000244141</ele>
        <time>2022-08-20T13:48:34.000Z</time>
      </trkpt>
      <trkpt lat="44.06807" lon="6.96335">
        <ele>1499.8000488281</ele>
        <time>2022-08-20T13:48:35.000Z</time>
      </trkpt>
      <trkpt lat="44.06811" lon="6.96339">
        <ele>1499</ele>
        <time>2022-08-20T13:48:36.000Z</time>
      </trkpt>
      <trkpt lat="44.06815" lon="6.9634">
        <ele>1497.5999755859</ele>
        <time>2022-08-20T13:48:37.000Z</time>
      </trkpt>
      <trkpt lat="44.0682" lon="6.9634">
        <ele>1496.5999755859</ele>
        <time>2022-08-20T13:48:38.000Z</time>
      </trkpt>
      <trkpt lat="44.06826" lon="6.96342">
        <ele>1495.5999755859</ele>
        <time>2022-08-20T13:48:39.000Z</time>
      </trkpt>
      <trkpt lat="44.0683" lon="6.96344">
        <ele>1494.8000488281</ele>
        <time>2022-08-20T13:48:40.000Z</time>
      </trkpt>
      <trkpt lat="44.06839" lon="6.96354">
        <ele>1492.8000488281</ele>
        <time>2022-08-20T13:48:42.000Z</time>
      </trkpt>
      <trkpt lat="44.06845" lon="6.96362">
        <ele>1491</ele>
        <time>2022-08-20T13:48:44.000Z</time>
      </trkpt>
      <trkpt lat="44.06846" lon="6.96366">
        <ele>1489.1999511719</ele>
        <time>2022-08-20T13:48:45.000Z</time>
      </trkpt>
      <trkpt lat="44.06848" lon="6.96369">
        <ele>1487.4000244141</ele>
        <time>2022-08-20T13:48:46.000Z</time>
      </trkpt>
      <trkpt lat="44.0685" lon="6.96373">
        <ele>1486</ele>
        <time>2022-08-20T13:48:47.000Z</time>
      </trkpt>
      <trkpt lat="44.0685" lon="6.96377">
        <ele>1484.5999755859</ele>
        <time>2022-08-20T13:48:48.000Z</time>
      </trkpt>
      <trkpt lat="44.06851" lon="6.96379">
        <ele>1483</ele>
        <time>2022-08-20T13:48:49.000Z</time>
      </trkpt>
      <trkpt lat="44.06852" lon="6.9638">
        <ele>1482</ele>
        <time>2022-08-20T13:48:50.000Z</time>
      </trkpt>
      <trkpt lat="44.06853" lon="6.9638">
        <ele>1481</ele>
        <time>2022-08-20T13:48:51.000Z</time>
      </trkpt>
      <trkpt lat="44.06856" lon="6.9638">
        <ele>1479.5999755859</ele>
        <time>2022-08-20T13:48:52.000Z</time>
      </trkpt>
      <trkpt lat="44.06857" lon="6.96383">
        <ele>1479.1999511719</ele>
        <time>2022-08-20T13:48:53.000Z</time>
      </trkpt>
      <trkpt lat="44.06859" lon="6.96385">
        <ele>1478.1999511719</ele>
        <time>2022-08-20T13:48:54.000Z</time>
      </trkpt>
      <trkpt lat="44.06859" lon="6.96386">
        <ele>1477.1999511719</ele>
        <time>2022-08-20T13:48:55.000Z</time>
      </trkpt>
      <trkpt lat="44.0686" lon="6.96386">
        <ele>1476</ele>
        <time>2022-08-20T13:48:57.000Z</time>
      </trkpt>
      <trkpt lat="44.0686" lon="6.96392">
        <ele>1475.4000244141</ele>
        <time>2022-08-20T13:49:05.000Z</time>
      </trkpt>
      <trkpt lat="44.06859" lon="6.96399">
        <ele>1474.8000488281</ele>
        <time>2022-08-20T13:49:08.000Z</time>
      </trkpt>
      <trkpt lat="44.06861" lon="6.96404">
        <ele>1473.5999755859</ele>
        <time>2022-08-20T13:49:10.000Z</time>
      </trkpt>
      <trkpt lat="44.06862" lon="6.96409">
        <ele>1472</ele>
        <time>2022-08-20T13:49:12.000Z</time>
      </trkpt>
      <trkpt lat="44.06864" lon="6.96413">
        <ele>1471</ele>
        <time>2022-08-20T13:49:13.000Z</time>
      </trkpt>
      <trkpt lat="44.06863" lon="6.96416">
        <ele>1470</ele>
        <time>2022-08-20T13:49:14.000Z</time>
      </trkpt>
      <trkpt lat="44.06861" lon="6.96417">
        <ele>1469.1999511719</ele>
        <time>2022-08-20T13:49:15.000Z</time>
      </trkpt>
      <trkpt lat="44.0686" lon="6.96418">
        <ele>1468.4000244141</ele>
        <time>2022-08-20T13:49:16.000Z</time>
      </trkpt>
      <trkpt lat="44.0686" lon="6.96423">
        <ele>1467.4000244141</ele>
        <time>2022-08-20T13:49:17.000Z</time>
      </trkpt>
      <trkpt lat="44.06862" lon="6.96431">
        <ele>1466</ele>
        <time>2022-08-20T13:49:19.000Z</time>
      </trkpt>
      <trkpt lat="44.06863" lon="6.96434">
        <ele>1465</ele>
        <time>2022-08-20T13:49:20.000Z</time>
      </trkpt>
      <trkpt lat="44.06861" lon="6.96436">
        <ele>1464</ele>
        <time>2022-08-20T13:49:21.000Z</time>
      </trkpt>
      <trkpt lat="44.06861" lon="6.96436">
        <ele>1463</ele>
        <time>2022-08-20T13:49:22.000Z</time>
      </trkpt>
      <trkpt lat="44.06861" lon="6.96437">
        <ele>1462.4000244141</ele>
        <time>2022-08-20T13:49:23.000Z</time>
      </trkpt>
      <trkpt lat="44.06862" lon="6.96439">
        <ele>1461.5999755859</ele>
        <time>2022-08-20T13:49:24.000Z</time>
      </trkpt>
      <trkpt lat="44.06865" lon="6.96444">
        <ele>1460.4000244141</ele>
        <time>2022-08-20T13:49:26.000Z</time>
      </trkpt>
      <trkpt lat="44.06866" lon="6.96446">
        <ele>1459.5999755859</ele>
        <time>2022-08-20T13:49:27.000Z</time>
      </trkpt>
      <trkpt lat="44.06867" lon="6.96447">
        <ele>1459</ele>
        <time>2022-08-20T13:49:28.000Z</time>
      </trkpt>
      <trkpt lat="44.06868" lon="6.96454">
        <ele>1458</ele>
        <time>2022-08-20T13:49:30.000Z</time>
      </trkpt>
      <trkpt lat="44.06867" lon="6.96454">
        <ele>1457.4000244141</ele>
        <time>2022-08-20T13:49:31.000Z</time>
      </trkpt>
      <trkpt lat="44.06866" lon="6.96454">
        <ele>1456.8000488281</ele>
        <time>2022-08-20T13:49:32.000Z</time>
      </trkpt>
      <trkpt lat="44.06866" lon="6.96454">
        <ele>1455.5999755859</ele>
        <time>2022-08-20T13:49:34.000Z</time>
      </trkpt>
      <trkpt lat="44.06866" lon="6.96455">
        <ele>1454.8000488281</ele>
        <time>2022-08-20T13:49:35.000Z</time>
      </trkpt>
      <trkpt lat="44.06866" lon="6.96457">
        <ele>1454.1999511719</ele>
        <time>2022-08-20T13:49:36.000Z</time>
      </trkpt>
      <trkpt lat="44.06866" lon="6.96462">
        <ele>1453.1999511719</ele>
        <time>2022-08-20T13:49:38.000Z</time>
      </trkpt>
      <trkpt lat="44.06866" lon="6.96463">
        <ele>1452.8000488281</ele>
        <time>2022-08-20T13:49:39.000Z</time>
      </trkpt>
      <trkpt lat="44.06865" lon="6.96464">
        <ele>1452</ele>
        <time>2022-08-20T13:49:40.000Z</time>
      </trkpt>
      <trkpt lat="44.06865" lon="6.96464">
        <ele>1451.8000488281</ele>
        <time>2022-08-20T13:49:41.000Z</time>
      </trkpt>
      <trkpt lat="44.06862" lon="6.96464">
        <ele>1450.4000244141</ele>
        <time>2022-08-20T13:49:43.000Z</time>
      </trkpt>
      <trkpt lat="44.06861" lon="6.96465">
        <ele>1449.1999511719</ele>
        <time>2022-08-20T13:49:45.000Z</time>
      </trkpt>
      <trkpt lat="44.06858" lon="6.96463">
        <ele>1448.1999511719</ele>
        <time>2022-08-20T13:49:47.000Z</time>
      </trkpt>
      <trkpt lat="44.06856" lon="6.96461">
        <ele>1447</ele>
        <time>2022-08-20T13:49:49.000Z</time>
      </trkpt>
      <trkpt lat="44.06855" lon="6.9646">
        <ele>1446.5999755859</ele>
        <time>2022-08-20T13:49:50.000Z</time>
      </trkpt>
      <trkpt lat="44.06854" lon="6.96459">
        <ele>1446.5999755859</ele>
        <time>2022-08-20T13:49:54.000Z</time>
      </trkpt>
      <trkpt lat="44.06852" lon="6.96461">
        <ele>1447</ele>
        <time>2022-08-20T13:50:00.000Z</time>
      </trkpt>
      <trkpt lat="44.06852" lon="6.96465">
        <ele>1445.8000488281</ele>
        <time>2022-08-20T13:50:05.000Z</time>
      </trkpt>
      <trkpt lat="44.0685" lon="6.96467">
        <ele>1445.5999755859</ele>
        <time>2022-08-20T13:50:07.000Z</time>
      </trkpt>
      <trkpt lat="44.0685" lon="6.96469">
        <ele>1444.4000244141</ele>
        <time>2022-08-20T13:50:10.000Z</time>
      </trkpt>
      <trkpt lat="44.06849" lon="6.96469">
        <ele>1443.5999755859</ele>
        <time>2022-08-20T13:50:12.000Z</time>
      </trkpt>
      <trkpt lat="44.06849" lon="6.9647">
        <ele>1443.1999511719</ele>
        <time>2022-08-20T13:50:13.000Z</time>
      </trkpt>
      <trkpt lat="44.06846" lon="6.96472">
        <ele>1443.1999511719</ele>
        <time>2022-08-20T13:50:16.000Z</time>
      </trkpt>
      <trkpt lat="44.06842" lon="6.96475">
        <ele>1443</ele>
        <time>2022-08-20T13:50:18.000Z</time>
      </trkpt>
      <trkpt lat="44.06842" lon="6.96476">
        <ele>1442.8000488281</ele>
        <time>2022-08-20T13:50:19.000Z</time>
      </trkpt>
      <trkpt lat="44.06843" lon="6.9648">
        <ele>1442</ele>
        <time>2022-08-20T13:50:21.000Z</time>
      </trkpt>
      <trkpt lat="44.06841" lon="6.96482">
        <ele>1441.5999755859</ele>
        <time>2022-08-20T13:50:22.000Z</time>
      </trkpt>
      <trkpt lat="44.06838" lon="6.96483">
        <ele>1440.4000244141</ele>
        <time>2022-08-20T13:50:24.000Z</time>
      </trkpt>
      <trkpt lat="44.06836" lon="6.96479">
        <ele>1439.1999511719</ele>
        <time>2022-08-20T13:50:26.000Z</time>
      </trkpt>
      <trkpt lat="44.06834" lon="6.9648">
        <ele>1438.1999511719</ele>
        <time>2022-08-20T13:50:30.000Z</time>
      </trkpt>
      <trkpt lat="44.0683" lon="6.96482">
        <ele>1437.8000488281</ele>
        <time>2022-08-20T13:50:38.000Z</time>
      </trkpt>
      <trkpt lat="44.06831" lon="6.96483">
        <ele>1437.4000244141</ele>
        <time>2022-08-20T13:50:42.000Z</time>
      </trkpt>
      <trkpt lat="44.06831" lon="6.96487">
        <ele>1437.4000244141</ele>
        <time>2022-08-20T13:50:44.000Z</time>
      </trkpt>
      <trkpt lat="44.06832" lon="6.96492">
        <ele>1437.1999511719</ele>
        <time>2022-08-20T13:50:46.000Z</time>
      </trkpt>
      <trkpt lat="44.06831" lon="6.96495">
        <ele>1436.8000488281</ele>
        <time>2022-08-20T13:50:47.000Z</time>
      </trkpt>
      <trkpt lat="44.06831" lon="6.965">
        <ele>1435.8000488281</ele>
        <time>2022-08-20T13:50:49.000Z</time>
      </trkpt>
      <trkpt lat="44.06835" lon="6.96505">
        <ele>1434.5999755859</ele>
        <time>2022-08-20T13:50:51.000Z</time>
      </trkpt>
      <trkpt lat="44.06837" lon="6.96507">
        <ele>1433.5999755859</ele>
        <time>2022-08-20T13:50:53.000Z</time>
      </trkpt>
      <trkpt lat="44.06836" lon="6.96507">
        <ele>1433.4000244141</ele>
        <time>2022-08-20T13:50:54.000Z</time>
      </trkpt>
      <trkpt lat="44.06835" lon="6.96511">
        <ele>1433.1999511719</ele>
        <time>2022-08-20T13:50:55.000Z</time>
      </trkpt>
      <trkpt lat="44.06835" lon="6.96515">
        <ele>1433.1999511719</ele>
        <time>2022-08-20T13:50:56.000Z</time>
      </trkpt>
      <trkpt lat="44.06832" lon="6.96516">
        <ele>1432.4000244141</ele>
        <time>2022-08-20T13:50:58.000Z</time>
      </trkpt>
      <trkpt lat="44.06828" lon="6.96514">
        <ele>1431.5999755859</ele>
        <time>2022-08-20T13:50:59.000Z</time>
      </trkpt>
      <trkpt lat="44.06826" lon="6.96515">
        <ele>1430.8000488281</ele>
        <time>2022-08-20T13:51:00.000Z</time>
      </trkpt>
      <trkpt lat="44.06821" lon="6.9652">
        <ele>1429</ele>
        <time>2022-08-20T13:51:02.000Z</time>
      </trkpt>
      <trkpt lat="44.06818" lon="6.96521">
        <ele>1428.1999511719</ele>
        <time>2022-08-20T13:51:03.000Z</time>
      </trkpt>
      <trkpt lat="44.06814" lon="6.96521">
        <ele>1427.4000244141</ele>
        <time>2022-08-20T13:51:04.000Z</time>
      </trkpt>
      <trkpt lat="44.06809" lon="6.96519">
        <ele>1426.1999511719</ele>
        <time>2022-08-20T13:51:06.000Z</time>
      </trkpt>
      <trkpt lat="44.06806" lon="6.96519">
        <ele>1426.1999511719</ele>
        <time>2022-08-20T13:51:07.000Z</time>
      </trkpt>
      <trkpt lat="44.06805" lon="6.96519">
        <ele>1425.8000488281</ele>
        <time>2022-08-20T13:51:08.000Z</time>
      </trkpt>
      <trkpt lat="44.06806" lon="6.96519">
        <ele>1425.5999755859</ele>
        <time>2022-08-20T13:51:11.000Z</time>
      </trkpt>
      <trkpt lat="44.06807" lon="6.96516">
        <ele>1426.1999511719</ele>
        <time>2022-08-20T13:51:19.000Z</time>
      </trkpt>
      <trkpt lat="44.06809" lon="6.96513">
        <ele>1426.1999511719</ele>
        <time>2022-08-20T13:51:33.000Z</time>
      </trkpt>
      <trkpt lat="44.06804" lon="6.96511">
        <ele>1426.4000244141</ele>
        <time>2022-08-20T13:51:38.000Z</time>
      </trkpt>
      <trkpt lat="44.06795" lon="6.9651">
        <ele>1426.1999511719</ele>
        <time>2022-08-20T13:51:41.000Z</time>
      </trkpt>
      <trkpt lat="44.06793" lon="6.96511">
        <ele>1426</ele>
        <time>2022-08-20T13:51:42.000Z</time>
      </trkpt>
      <trkpt lat="44.06787" lon="6.96518">
        <ele>1425.4000244141</ele>
        <time>2022-08-20T13:51:45.000Z</time>
      </trkpt>
      <trkpt lat="44.06785" lon="6.9652">
        <ele>1425.1999511719</ele>
        <time>2022-08-20T13:51:46.000Z</time>
      </trkpt>
      <trkpt lat="44.06782" lon="6.96524">
        <ele>1425.5999755859</ele>
        <time>2022-08-20T13:51:48.000Z</time>
      </trkpt>
      <trkpt lat="44.06777" lon="6.96532">
        <ele>1425.8000488281</ele>
        <time>2022-08-20T13:51:50.000Z</time>
      </trkpt>
      <trkpt lat="44.06771" lon="6.96551">
        <ele>1425.1999511719</ele>
        <time>2022-08-20T13:51:54.000Z</time>
      </trkpt>
      <trkpt lat="44.06765" lon="6.96567">
        <ele>1427.1999511719</ele>
        <time>2022-08-20T13:51:59.000Z</time>
      </trkpt>
      <trkpt lat="44.06763" lon="6.96571">
        <ele>1428.4000244141</ele>
        <time>2022-08-20T13:52:01.000Z</time>
      </trkpt>
      <trkpt lat="44.06758" lon="6.96574">
        <ele>1429.5999755859</ele>
        <time>2022-08-20T13:52:04.000Z</time>
      </trkpt>
      <trkpt lat="44.06754" lon="6.96576">
        <ele>1429.8000488281</ele>
        <time>2022-08-20T13:52:05.000Z</time>
      </trkpt>
      <trkpt lat="44.06751" lon="6.96581">
        <ele>1430.1999511719</ele>
        <time>2022-08-20T13:52:07.000Z</time>
      </trkpt>
      <trkpt lat="44.06748" lon="6.96587">
        <ele>1430.1999511719</ele>
        <time>2022-08-20T13:52:09.000Z</time>
      </trkpt>
      <trkpt lat="44.06745" lon="6.96594">
        <ele>1430.5999755859</ele>
        <time>2022-08-20T13:52:12.000Z</time>
      </trkpt>
      <trkpt lat="44.06744" lon="6.96597">
        <ele>1430.8000488281</ele>
        <time>2022-08-20T13:52:13.000Z</time>
      </trkpt>
      <trkpt lat="44.06743" lon="6.966">
        <ele>1431</ele>
        <time>2022-08-20T13:52:14.000Z</time>
      </trkpt>
      <trkpt lat="44.06738" lon="6.96608">
        <ele>1431.8000488281</ele>
        <time>2022-08-20T13:52:17.000Z</time>
      </trkpt>
      <trkpt lat="44.06736" lon="6.96611">
        <ele>1432</ele>
        <time>2022-08-20T13:52:18.000Z</time>
      </trkpt>
      <trkpt lat="44.06732" lon="6.96624">
        <ele>1433.1999511719</ele>
        <time>2022-08-20T13:52:22.000Z</time>
      </trkpt>
      <trkpt lat="44.06731" lon="6.96626">
        <ele>1433.5999755859</ele>
        <time>2022-08-20T13:52:23.000Z</time>
      </trkpt>
      <trkpt lat="44.06729" lon="6.96629">
        <ele>1434.5999755859</ele>
        <time>2022-08-20T13:52:25.000Z</time>
      </trkpt>
      <trkpt lat="44.06724" lon="6.96634">
        <ele>1435.5999755859</ele>
        <time>2022-08-20T13:52:28.000Z</time>
      </trkpt>
      <trkpt lat="44.06717" lon="6.9664">
        <ele>1436.5999755859</ele>
        <time>2022-08-20T13:52:32.000Z</time>
      </trkpt>
      <trkpt lat="44.06716" lon="6.96642">
        <ele>1436.8000488281</ele>
        <time>2022-08-20T13:52:33.000Z</time>
      </trkpt>
      <trkpt lat="44.06717" lon="6.96645">
        <ele>1437.1999511719</ele>
        <time>2022-08-20T13:52:34.000Z</time>
      </trkpt>
      <trkpt lat="44.06717" lon="6.96648">
        <ele>1437.5999755859</ele>
        <time>2022-08-20T13:52:35.000Z</time>
      </trkpt>
      <trkpt lat="44.06716" lon="6.96654">
        <ele>1438.5999755859</ele>
        <time>2022-08-20T13:52:37.000Z</time>
      </trkpt>
      <trkpt lat="44.06717" lon="6.96658">
        <ele>1439</ele>
        <time>2022-08-20T13:52:38.000Z</time>
      </trkpt>
      <trkpt lat="44.06716" lon="6.96664">
        <ele>1440.4000244141</ele>
        <time>2022-08-20T13:52:41.000Z</time>
      </trkpt>
      <trkpt lat="44.06715" lon="6.96667">
        <ele>1441.5999755859</ele>
        <time>2022-08-20T13:52:43.000Z</time>
      </trkpt>
      <trkpt lat="44.06715" lon="6.96671">
        <ele>1442.5999755859</ele>
        <time>2022-08-20T13:52:45.000Z</time>
      </trkpt>
      <trkpt lat="44.06714" lon="6.96674">
        <ele>1443.5999755859</ele>
        <time>2022-08-20T13:52:47.000Z</time>
      </trkpt>
      <trkpt lat="44.06713" lon="6.96681">
        <ele>1445</ele>
        <time>2022-08-20T13:52:50.000Z</time>
      </trkpt>
      <trkpt lat="44.06712" lon="6.96686">
        <ele>1445.8000488281</ele>
        <time>2022-08-20T13:52:52.000Z</time>
      </trkpt>
      <trkpt lat="44.06712" lon="6.96688">
        <ele>1446.4000244141</ele>
        <time>2022-08-20T13:52:53.000Z</time>
      </trkpt>
      <trkpt lat="44.06709" lon="6.96694">
        <ele>1447.5999755859</ele>
        <time>2022-08-20T13:52:56.000Z</time>
      </trkpt>
      <trkpt lat="44.06708" lon="6.96699">
        <ele>1448.4000244141</ele>
        <time>2022-08-20T13:52:58.000Z</time>
      </trkpt>
      <trkpt lat="44.06709" lon="6.967">
        <ele>1448.5999755859</ele>
        <time>2022-08-20T13:52:59.000Z</time>
      </trkpt>
      <trkpt lat="44.06709" lon="6.96706">
        <ele>1449.8000488281</ele>
        <time>2022-08-20T13:53:02.000Z</time>
      </trkpt>
      <trkpt lat="44.06707" lon="6.96712">
        <ele>1451.1999511719</ele>
        <time>2022-08-20T13:53:05.000Z</time>
      </trkpt>
      <trkpt lat="44.06705" lon="6.96714">
        <ele>1451.5999755859</ele>
        <time>2022-08-20T13:53:06.000Z</time>
      </trkpt>
      <trkpt lat="44.06704" lon="6.96718">
        <ele>1452.1999511719</ele>
        <time>2022-08-20T13:53:08.000Z</time>
      </trkpt>
      <trkpt lat="44.06703" lon="6.96721">
        <ele>1452.5999755859</ele>
        <time>2022-08-20T13:53:10.000Z</time>
      </trkpt>
      <trkpt lat="44.06701" lon="6.96724">
        <ele>1452.8000488281</ele>
        <time>2022-08-20T13:53:11.000Z</time>
      </trkpt>
      <trkpt lat="44.06697" lon="6.96728">
        <ele>1453.4000244141</ele>
        <time>2022-08-20T13:53:14.000Z</time>
      </trkpt>
      <trkpt lat="44.06697" lon="6.96729">
        <ele>1453.8000488281</ele>
        <time>2022-08-20T13:53:15.000Z</time>
      </trkpt>
      <trkpt lat="44.06695" lon="6.96731">
        <ele>1454</ele>
        <time>2022-08-20T13:53:16.000Z</time>
      </trkpt>
      <trkpt lat="44.06692" lon="6.96733">
        <ele>1454.4000244141</ele>
        <time>2022-08-20T13:53:17.000Z</time>
      </trkpt>
      <trkpt lat="44.06687" lon="6.96738">
        <ele>1455.4000244141</ele>
        <time>2022-08-20T13:53:20.000Z</time>
      </trkpt>
      <trkpt lat="44.06685" lon="6.96739">
        <ele>1455.5999755859</ele>
        <time>2022-08-20T13:53:21.000Z</time>
      </trkpt>
      <trkpt lat="44.06683" lon="6.96743">
        <ele>1456.8000488281</ele>
        <time>2022-08-20T13:53:24.000Z</time>
      </trkpt>
      <trkpt lat="44.06681" lon="6.96745">
        <ele>1457</ele>
        <time>2022-08-20T13:53:25.000Z</time>
      </trkpt>
      <trkpt lat="44.06679" lon="6.96749">
        <ele>1457.8000488281</ele>
        <time>2022-08-20T13:53:27.000Z</time>
      </trkpt>
      <trkpt lat="44.06675" lon="6.96756">
        <ele>1459</ele>
        <time>2022-08-20T13:53:30.000Z</time>
      </trkpt>
      <trkpt lat="44.06674" lon="6.96758">
        <ele>1459.5999755859</ele>
        <time>2022-08-20T13:53:31.000Z</time>
      </trkpt>
      <trkpt lat="44.06673" lon="6.96761">
        <ele>1460</ele>
        <time>2022-08-20T13:53:32.000Z</time>
      </trkpt>
      <trkpt lat="44.06672" lon="6.96765">
        <ele>1461</ele>
        <time>2022-08-20T13:53:34.000Z</time>
      </trkpt>
      <trkpt lat="44.0667" lon="6.96771">
        <ele>1462.4000244141</ele>
        <time>2022-08-20T13:53:37.000Z</time>
      </trkpt>
      <trkpt lat="44.06668" lon="6.96775">
        <ele>1463.5999755859</ele>
        <time>2022-08-20T13:53:40.000Z</time>
      </trkpt>
      <trkpt lat="44.06668" lon="6.96775">
        <ele>1464.1999511719</ele>
        <time>2022-08-20T13:53:42.000Z</time>
      </trkpt>
      <trkpt lat="44.06666" lon="6.96779">
        <ele>1464.5999755859</ele>
        <time>2022-08-20T13:53:49.000Z</time>
      </trkpt>
      <trkpt lat="44.06666" lon="6.9678">
        <ele>1464.5999755859</ele>
        <time>2022-08-20T13:53:51.000Z</time>
      </trkpt>
      <trkpt lat="44.06665" lon="6.96783">
        <ele>1464.8000488281</ele>
        <time>2022-08-20T13:53:55.000Z</time>
      </trkpt>
      <trkpt lat="44.06663" lon="6.96788">
        <ele>1465.5999755859</ele>
        <time>2022-08-20T13:54:02.000Z</time>
      </trkpt>
      <trkpt lat="44.06662" lon="6.96789">
        <ele>1465.8000488281</ele>
        <time>2022-08-20T13:54:03.000Z</time>
      </trkpt>
      <trkpt lat="44.06659" lon="6.96792">
        <ele>1466.1999511719</ele>
        <time>2022-08-20T13:54:08.000Z</time>
      </trkpt>
      <trkpt lat="44.06658" lon="6.96799">
        <ele>1466.8000488281</ele>
        <time>2022-08-20T13:54:14.000Z</time>
      </trkpt>
      <trkpt lat="44.06658" lon="6.968">
        <ele>1466.8000488281</ele>
        <time>2022-08-20T13:54:15.000Z</time>
      </trkpt>
      <trkpt lat="44.06657" lon="6.96803">
        <ele>1467.5999755859</ele>
        <time>2022-08-20T13:54:21.000Z</time>
      </trkpt>
      <trkpt lat="44.06656" lon="6.96806">
        <ele>1467.8000488281</ele>
        <time>2022-08-20T13:54:22.000Z</time>
      </trkpt>
      <trkpt lat="44.06656" lon="6.96808">
        <ele>1468.4000244141</ele>
        <time>2022-08-20T13:54:26.000Z</time>
      </trkpt>
      <trkpt lat="44.06654" lon="6.96813">
        <ele>1468.4000244141</ele>
        <time>2022-08-20T13:54:34.000Z</time>
      </trkpt>
      <trkpt lat="44.0665" lon="6.96824">
        <ele>1468.5999755859</ele>
        <time>2022-08-20T13:54:38.000Z</time>
      </trkpt>
      <trkpt lat="44.06648" lon="6.96828">
        <ele>1469.1999511719</ele>
        <time>2022-08-20T13:54:40.000Z</time>
      </trkpt>
      <trkpt lat="44.06647" lon="6.96831">
        <ele>1469.5999755859</ele>
        <time>2022-08-20T13:54:41.000Z</time>
      </trkpt>
      <trkpt lat="44.06645" lon="6.96832">
        <ele>1470.4000244141</ele>
        <time>2022-08-20T13:54:43.000Z</time>
      </trkpt>
      <trkpt lat="44.06644" lon="6.96833">
        <ele>1470.5999755859</ele>
        <time>2022-08-20T13:54:44.000Z</time>
      </trkpt>
      <trkpt lat="44.06639" lon="6.9684">
        <ele>1471.1999511719</ele>
        <time>2022-08-20T13:54:47.000Z</time>
      </trkpt>
      <trkpt lat="44.06638" lon="6.96841">
        <ele>1471.4000244141</ele>
        <time>2022-08-20T13:54:48.000Z</time>
      </trkpt>
      <trkpt lat="44.06632" lon="6.96851">
        <ele>1471.5999755859</ele>
        <time>2022-08-20T13:54:53.000Z</time>
      </trkpt>
      <trkpt lat="44.06628" lon="6.9686">
        <ele>1472</ele>
        <time>2022-08-20T13:54:57.000Z</time>
      </trkpt>
      <trkpt lat="44.06627" lon="6.96862">
        <ele>1472</ele>
        <time>2022-08-20T13:54:58.000Z</time>
      </trkpt>
      <trkpt lat="44.06623" lon="6.96866">
        <ele>1472.1999511719</ele>
        <time>2022-08-20T13:55:00.000Z</time>
      </trkpt>
      <trkpt lat="44.0662" lon="6.96868">
        <ele>1472.4000244141</ele>
        <time>2022-08-20T13:55:01.000Z</time>
      </trkpt>
      <trkpt lat="44.06618" lon="6.9687">
        <ele>1472.5999755859</ele>
        <time>2022-08-20T13:55:02.000Z</time>
      </trkpt>
      <trkpt lat="44.06613" lon="6.96873">
        <ele>1473</ele>
        <time>2022-08-20T13:55:04.000Z</time>
      </trkpt>
      <trkpt lat="44.0661" lon="6.96875">
        <ele>1473.8000488281</ele>
        <time>2022-08-20T13:55:06.000Z</time>
      </trkpt>
      <trkpt lat="44.06606" lon="6.96877">
        <ele>1474.4000244141</ele>
        <time>2022-08-20T13:55:08.000Z</time>
      </trkpt>
      <trkpt lat="44.06604" lon="6.96878">
        <ele>1475</ele>
        <time>2022-08-20T13:55:09.000Z</time>
      </trkpt>
      <trkpt lat="44.06599" lon="6.9688">
        <ele>1476</ele>
        <time>2022-08-20T13:55:12.000Z</time>
      </trkpt>
      <trkpt lat="44.06597" lon="6.9688">
        <ele>1476.4000244141</ele>
        <time>2022-08-20T13:55:13.000Z</time>
      </trkpt>
      <trkpt lat="44.0659" lon="6.96883">
        <ele>1477.4000244141</ele>
        <time>2022-08-20T13:55:16.000Z</time>
      </trkpt>
      <trkpt lat="44.06585" lon="6.96887">
        <ele>1478.1999511719</ele>
        <time>2022-08-20T13:55:19.000Z</time>
      </trkpt>
      <trkpt lat="44.06582" lon="6.96887">
        <ele>1478.5999755859</ele>
        <time>2022-08-20T13:55:20.000Z</time>
      </trkpt>
      <trkpt lat="44.06579" lon="6.96888">
        <ele>1479.5999755859</ele>
        <time>2022-08-20T13:55:22.000Z</time>
      </trkpt>
      <trkpt lat="44.06578" lon="6.96888">
        <ele>1480.1999511719</ele>
        <time>2022-08-20T13:55:23.000Z</time>
      </trkpt>
      <trkpt lat="44.06574" lon="6.96889">
        <ele>1481.4000244141</ele>
        <time>2022-08-20T13:55:25.000Z</time>
      </trkpt>
      <trkpt lat="44.06572" lon="6.96889">
        <ele>1481.8000488281</ele>
        <time>2022-08-20T13:55:26.000Z</time>
      </trkpt>
      <trkpt lat="44.0657" lon="6.9689">
        <ele>1482.5999755859</ele>
        <time>2022-08-20T13:55:28.000Z</time>
      </trkpt>
      <trkpt lat="44.06564" lon="6.96891">
        <ele>1483.8000488281</ele>
        <time>2022-08-20T13:55:32.000Z</time>
      </trkpt>
      <trkpt lat="44.06563" lon="6.96891">
        <ele>1484</ele>
        <time>2022-08-20T13:55:33.000Z</time>
      </trkpt>
      <trkpt lat="44.06558" lon="6.96891">
        <ele>1484.8000488281</ele>
        <time>2022-08-20T13:55:36.000Z</time>
      </trkpt>
      <trkpt lat="44.06553" lon="6.96892">
        <ele>1486</ele>
        <time>2022-08-20T13:55:39.000Z</time>
      </trkpt>
      <trkpt lat="44.06544" lon="6.96889">
        <ele>1486.5999755859</ele>
        <time>2022-08-20T13:55:43.000Z</time>
      </trkpt>
      <trkpt lat="44.06544" lon="6.96888">
        <ele>1486.5999755859</ele>
        <time>2022-08-20T13:55:44.000Z</time>
      </trkpt>
      <trkpt lat="44.06538" lon="6.96887">
        <ele>1486.5999755859</ele>
        <time>2022-08-20T13:55:47.000Z</time>
      </trkpt>
      <trkpt lat="44.06532" lon="6.96887">
        <ele>1486.8000488281</ele>
        <time>2022-08-20T13:55:51.000Z</time>
      </trkpt>
      <trkpt lat="44.0653" lon="6.96888">
        <ele>1487</ele>
        <time>2022-08-20T13:55:52.000Z</time>
      </trkpt>
      <trkpt lat="44.06525" lon="6.96889">
        <ele>1487.5999755859</ele>
        <time>2022-08-20T13:55:56.000Z</time>
      </trkpt>
      <trkpt lat="44.06525" lon="6.96889">
        <ele>1488.1999511719</ele>
        <time>2022-08-20T13:55:58.000Z</time>
      </trkpt>
      <trkpt lat="44.06524" lon="6.96889">
        <ele>1488.8000488281</ele>
        <time>2022-08-20T13:56:01.000Z</time>
      </trkpt>
      <trkpt lat="44.06519" lon="6.9689">
        <ele>1488.8000488281</ele>
        <time>2022-08-20T13:56:13.000Z</time>
      </trkpt>
      <trkpt lat="44.06518" lon="6.96891">
        <ele>1489.1999511719</ele>
        <time>2022-08-20T13:56:16.000Z</time>
      </trkpt>
      <trkpt lat="44.06516" lon="6.96892">
        <ele>1490</ele>
        <time>2022-08-20T13:56:21.000Z</time>
      </trkpt>
      <trkpt lat="44.06515" lon="6.96891">
        <ele>1490.4000244141</ele>
        <time>2022-08-20T13:56:27.000Z</time>
      </trkpt>
      <trkpt lat="44.06514" lon="6.96891">
        <ele>1490.4000244141</ele>
        <time>2022-08-20T13:56:29.000Z</time>
      </trkpt>
      <trkpt lat="44.06509" lon="6.96893">
        <ele>1491.4000244141</ele>
        <time>2022-08-20T13:56:37.000Z</time>
      </trkpt>
      <trkpt lat="44.06506" lon="6.96894">
        <ele>1492</ele>
        <time>2022-08-20T13:56:43.000Z</time>
      </trkpt>
      <trkpt lat="44.06504" lon="6.96894">
        <ele>1492.1999511719</ele>
        <time>2022-08-20T13:56:53.000Z</time>
      </trkpt>
      <trkpt lat="44.06498" lon="6.96893">
        <ele>1492.5999755859</ele>
        <time>2022-08-20T13:56:57.000Z</time>
      </trkpt>
      <trkpt lat="44.06496" lon="6.96894">
        <ele>1493</ele>
        <time>2022-08-20T13:56:58.000Z</time>
      </trkpt>
      <trkpt lat="44.06495" lon="6.96894">
        <ele>1493.5999755859</ele>
        <time>2022-08-20T13:56:59.000Z</time>
      </trkpt>
      <trkpt lat="44.06491" lon="6.96895">
        <ele>1494.8000488281</ele>
        <time>2022-08-20T13:57:01.000Z</time>
      </trkpt>
      <trkpt lat="44.06491" lon="6.96895">
        <ele>1495.4000244141</ele>
        <time>2022-08-20T13:57:02.000Z</time>
      </trkpt>
      <trkpt lat="44.06489" lon="6.96896">
        <ele>1495.8000488281</ele>
        <time>2022-08-20T13:57:03.000Z</time>
      </trkpt>
      <trkpt lat="44.06486" lon="6.96905">
        <ele>1497.1999511719</ele>
        <time>2022-08-20T13:57:06.000Z</time>
      </trkpt>
      <trkpt lat="44.06485" lon="6.9691">
        <ele>1498.4000244141</ele>
        <time>2022-08-20T13:57:08.000Z</time>
      </trkpt>
      <trkpt lat="44.06485" lon="6.96915">
        <ele>1499.5999755859</ele>
        <time>2022-08-20T13:57:10.000Z</time>
      </trkpt>
      <trkpt lat="44.06485" lon="6.96918">
        <ele>1500</ele>
        <time>2022-08-20T13:57:11.000Z</time>
      </trkpt>
      <trkpt lat="44.06484" lon="6.96924">
        <ele>1501</ele>
        <time>2022-08-20T13:57:13.000Z</time>
      </trkpt>
      <trkpt lat="44.06482" lon="6.96925">
        <ele>1501.5999755859</ele>
        <time>2022-08-20T13:57:14.000Z</time>
      </trkpt>
      <trkpt lat="44.06482" lon="6.96925">
        <ele>1502.1999511719</ele>
        <time>2022-08-20T13:57:16.000Z</time>
      </trkpt>
      <trkpt lat="44.06479" lon="6.96926">
        <ele>1502.5999755859</ele>
        <time>2022-08-20T13:57:30.000Z</time>
      </trkpt>
      <trkpt lat="44.06478" lon="6.96925">
        <ele>1502.4000244141</ele>
        <time>2022-08-20T13:57:36.000Z</time>
      </trkpt>
      <trkpt lat="44.06477" lon="6.96925">
        <ele>1501.5999755859</ele>
        <time>2022-08-20T13:57:43.000Z</time>
      </trkpt>
      <trkpt lat="44.06477" lon="6.96925">
        <ele>1502</ele>
        <time>2022-08-20T13:57:49.000Z</time>
      </trkpt>
      <trkpt lat="44.06476" lon="6.96926">
        <ele>1502.1999511719</ele>
        <time>2022-08-20T13:58:03.000Z</time>
      </trkpt>
      <trkpt lat="44.06475" lon="6.96927">
        <ele>1502</ele>
        <time>2022-08-20T13:58:14.000Z</time>
      </trkpt>
      <trkpt lat="44.06473" lon="6.9693">
        <ele>1502</ele>
        <time>2022-08-20T13:58:30.000Z</time>
      </trkpt>
      <trkpt lat="44.06473" lon="6.9693">
        <ele>1502.1999511719</ele>
        <time>2022-08-20T13:58:46.000Z</time>
      </trkpt>
      <trkpt lat="44.06474" lon="6.9693">
        <ele>1502.1999511719</ele>
        <time>2022-08-20T13:58:58.000Z</time>
      </trkpt>
      <trkpt lat="44.06475" lon="6.96929">
        <ele>1502.1999511719</ele>
        <time>2022-08-20T13:59:10.000Z</time>
      </trkpt>
      <trkpt lat="44.06475" lon="6.9693">
        <ele>1502.1999511719</ele>
        <time>2022-08-20T13:59:23.000Z</time>
      </trkpt>
      <trkpt lat="44.06475" lon="6.96931">
        <ele>1502.1999511719</ele>
        <time>2022-08-20T13:59:34.000Z</time>
      </trkpt>
      <trkpt lat="44.06474" lon="6.96932">
        <ele>1501.8000488281</ele>
        <time>2022-08-20T13:59:40.000Z</time>
      </trkpt>
      <trkpt lat="44.06473" lon="6.96935">
        <ele>1502.1999511719</ele>
        <time>2022-08-20T13:59:45.000Z</time>
      </trkpt>
      <trkpt lat="44.06473" lon="6.96945">
        <ele>1502.1999511719</ele>
        <time>2022-08-20T13:59:48.000Z</time>
      </trkpt>
      <trkpt lat="44.06474" lon="6.96947">
        <ele>1502</ele>
        <time>2022-08-20T13:59:49.000Z</time>
      </trkpt>
      <trkpt lat="44.06473" lon="6.96952">
        <ele>1501</ele>
        <time>2022-08-20T13:59:51.000Z</time>
      </trkpt>
      <trkpt lat="44.06469" lon="6.96952">
        <ele>1499.8000488281</ele>
        <time>2022-08-20T13:59:53.000Z</time>
      </trkpt>
      <trkpt lat="44.06466" lon="6.96949">
        <ele>1498.8000488281</ele>
        <time>2022-08-20T13:59:55.000Z</time>
      </trkpt>
      <trkpt lat="44.06463" lon="6.96954">
        <ele>1498</ele>
        <time>2022-08-20T13:59:57.000Z</time>
      </trkpt>
      <trkpt lat="44.06463" lon="6.96957">
        <ele>1497.4000244141</ele>
        <time>2022-08-20T13:59:58.000Z</time>
      </trkpt>
      <trkpt lat="44.06465" lon="6.96967">
        <ele>1496.1999511719</ele>
        <time>2022-08-20T14:00:00.000Z</time>
      </trkpt>
      <trkpt lat="44.06466" lon="6.96973">
        <ele>1495.4000244141</ele>
        <time>2022-08-20T14:00:01.000Z</time>
      </trkpt>
      <trkpt lat="44.06467" lon="6.96979">
        <ele>1494.4000244141</ele>
        <time>2022-08-20T14:00:02.000Z</time>
      </trkpt>
      <trkpt lat="44.06469" lon="6.9699">
        <ele>1492.8000488281</ele>
        <time>2022-08-20T14:00:04.000Z</time>
      </trkpt>
      <trkpt lat="44.06469" lon="6.96994">
        <ele>1492</ele>
        <time>2022-08-20T14:00:05.000Z</time>
      </trkpt>
      <trkpt lat="44.06467" lon="6.96998">
        <ele>1490.8000488281</ele>
        <time>2022-08-20T14:00:06.000Z</time>
      </trkpt>
      <trkpt lat="44.06467" lon="6.97002">
        <ele>1489.5999755859</ele>
        <time>2022-08-20T14:00:07.000Z</time>
      </trkpt>
      <trkpt lat="44.06467" lon="6.97007">
        <ele>1488.1999511719</ele>
        <time>2022-08-20T14:00:08.000Z</time>
      </trkpt>
      <trkpt lat="44.06468" lon="6.97019">
        <ele>1486.1999511719</ele>
        <time>2022-08-20T14:00:10.000Z</time>
      </trkpt>
      <trkpt lat="44.06466" lon="6.97031">
        <ele>1484.4000244141</ele>
        <time>2022-08-20T14:00:12.000Z</time>
      </trkpt>
      <trkpt lat="44.06463" lon="6.97039">
        <ele>1482.4000244141</ele>
        <time>2022-08-20T14:00:14.000Z</time>
      </trkpt>
      <trkpt lat="44.06463" lon="6.97043">
        <ele>1480.4000244141</ele>
        <time>2022-08-20T14:00:16.000Z</time>
      </trkpt>
      <trkpt lat="44.06463" lon="6.97047">
        <ele>1479.4000244141</ele>
        <time>2022-08-20T14:00:18.000Z</time>
      </trkpt>
      <trkpt lat="44.06462" lon="6.97047">
        <ele>1479</ele>
        <time>2022-08-20T14:00:20.000Z</time>
      </trkpt>
      <trkpt lat="44.06465" lon="6.97049">
        <ele>1478.4000244141</ele>
        <time>2022-08-20T14:00:46.000Z</time>
      </trkpt>
      <trkpt lat="44.06465" lon="6.97049">
        <ele>1478.4000244141</ele>
        <time>2022-08-20T14:00:47.000Z</time>
      </trkpt>
      <trkpt lat="44.06466" lon="6.97051">
        <ele>1478.1999511719</ele>
        <time>2022-08-20T14:01:12.000Z</time>
      </trkpt>
      <trkpt lat="44.06467" lon="6.97053">
        <ele>1478.4000244141</ele>
        <time>2022-08-20T14:01:33.000Z</time>
      </trkpt>
      <trkpt lat="44.06467" lon="6.97053">
        <ele>1478.4000244141</ele>
        <time>2022-08-20T14:01:43.000Z</time>
      </trkpt>
      <trkpt lat="44.0647" lon="6.97051">
        <ele>1477.8000488281</ele>
        <time>2022-08-20T14:02:09.000Z</time>
      </trkpt>
      <trkpt lat="44.06471" lon="6.97051">
        <ele>1478.4000244141</ele>
        <time>2022-08-20T14:02:26.000Z</time>
      </trkpt>
      <trkpt lat="44.0647" lon="6.97051">
        <ele>1478.1999511719</ele>
        <time>2022-08-20T14:02:52.000Z</time>
      </trkpt>
      <trkpt lat="44.0647" lon="6.97051">
        <ele>1478</ele>
        <time>2022-08-20T14:03:05.000Z</time>
      </trkpt>
      <trkpt lat="44.0647" lon="6.97053">
        <ele>1478</ele>
        <time>2022-08-20T14:03:12.000Z</time>
      </trkpt>
      <trkpt lat="44.06468" lon="6.97058">
        <ele>1477.8000488281</ele>
        <time>2022-08-20T14:03:19.000Z</time>
      </trkpt>
      <trkpt lat="44.06468" lon="6.9706">
        <ele>1477.1999511719</ele>
        <time>2022-08-20T14:03:22.000Z</time>
      </trkpt>
      <trkpt lat="44.06467" lon="6.97061">
        <ele>1476.1999511719</ele>
        <time>2022-08-20T14:03:26.000Z</time>
      </trkpt>
      <trkpt lat="44.06467" lon="6.97061">
        <ele>1476.1999511719</ele>
        <time>2022-08-20T14:03:27.000Z</time>
      </trkpt>
      <trkpt lat="44.06466" lon="6.9707">
        <ele>1475.8000488281</ele>
        <time>2022-08-20T14:03:31.000Z</time>
      </trkpt>
      <trkpt lat="44.06467" lon="6.97075">
        <ele>1475</ele>
        <time>2022-08-20T14:03:33.000Z</time>
      </trkpt>
      <trkpt lat="44.06469" lon="6.97081">
        <ele>1474</ele>
        <time>2022-08-20T14:03:36.000Z</time>
      </trkpt>
      <trkpt lat="44.06468" lon="6.97087">
        <ele>1473.8000488281</ele>
        <time>2022-08-20T14:03:39.000Z</time>
      </trkpt>
      <trkpt lat="44.06459" lon="6.97107">
        <ele>1473.5999755859</ele>
        <time>2022-08-20T14:03:43.000Z</time>
      </trkpt>
      <trkpt lat="44.06454" lon="6.97117">
        <ele>1472.8000488281</ele>
        <time>2022-08-20T14:03:45.000Z</time>
      </trkpt>
      <trkpt lat="44.06449" lon="6.97125">
        <ele>1471</ele>
        <time>2022-08-20T14:03:47.000Z</time>
      </trkpt>
      <trkpt lat="44.06446" lon="6.97128">
        <ele>1470.5999755859</ele>
        <time>2022-08-20T14:03:48.000Z</time>
      </trkpt>
      <trkpt lat="44.06443" lon="6.9713">
        <ele>1469.5999755859</ele>
        <time>2022-08-20T14:03:49.000Z</time>
      </trkpt>
      <trkpt lat="44.06439" lon="6.97129">
        <ele>1469.1999511719</ele>
        <time>2022-08-20T14:03:50.000Z</time>
      </trkpt>
      <trkpt lat="44.06437" lon="6.9713">
        <ele>1468.4000244141</ele>
        <time>2022-08-20T14:03:51.000Z</time>
      </trkpt>
      <trkpt lat="44.06434" lon="6.9713">
        <ele>1467.5999755859</ele>
        <time>2022-08-20T14:03:52.000Z</time>
      </trkpt>
      <trkpt lat="44.06432" lon="6.97132">
        <ele>1467</ele>
        <time>2022-08-20T14:03:53.000Z</time>
      </trkpt>
      <trkpt lat="44.06428" lon="6.97135">
        <ele>1465.4000244141</ele>
        <time>2022-08-20T14:03:55.000Z</time>
      </trkpt>
      <trkpt lat="44.06427" lon="6.97136">
        <ele>1464.4000244141</ele>
        <time>2022-08-20T14:03:56.000Z</time>
      </trkpt>
      <trkpt lat="44.06425" lon="6.97138">
        <ele>1463.4000244141</ele>
        <time>2022-08-20T14:03:57.000Z</time>
      </trkpt>
      <trkpt lat="44.06422" lon="6.97141">
        <ele>1461.8000488281</ele>
        <time>2022-08-20T14:03:59.000Z</time>
      </trkpt>
      <trkpt lat="44.06421" lon="6.97141">
        <ele>1461</ele>
        <time>2022-08-20T14:04:00.000Z</time>
      </trkpt>
      <trkpt lat="44.06422" lon="6.97141">
        <ele>1460</ele>
        <time>2022-08-20T14:04:01.000Z</time>
      </trkpt>
      <trkpt lat="44.06421" lon="6.97141">
        <ele>1458.8000488281</ele>
        <time>2022-08-20T14:04:03.000Z</time>
      </trkpt>
      <trkpt lat="44.0642" lon="6.97141">
        <ele>1458.4000244141</ele>
        <time>2022-08-20T14:04:09.000Z</time>
      </trkpt>
      <trkpt lat="44.06418" lon="6.97139">
        <ele>1458.4000244141</ele>
        <time>2022-08-20T14:04:16.000Z</time>
      </trkpt>
      <trkpt lat="44.06418" lon="6.97132">
        <ele>1458</ele>
        <time>2022-08-20T14:04:21.000Z</time>
      </trkpt>
      <trkpt lat="44.06416" lon="6.97132">
        <ele>1457.8000488281</ele>
        <time>2022-08-20T14:04:22.000Z</time>
      </trkpt>
      <trkpt lat="44.06413" lon="6.97139">
        <ele>1456.4000244141</ele>
        <time>2022-08-20T14:04:25.000Z</time>
      </trkpt>
      <trkpt lat="44.06411" lon="6.97145">
        <ele>1455.1999511719</ele>
        <time>2022-08-20T14:04:28.000Z</time>
      </trkpt>
      <trkpt lat="44.06411" lon="6.97146">
        <ele>1455.1999511719</ele>
        <time>2022-08-20T14:04:29.000Z</time>
      </trkpt>
      <trkpt lat="44.06411" lon="6.97146">
        <ele>1454</ele>
        <time>2022-08-20T14:04:32.000Z</time>
      </trkpt>
      <trkpt lat="44.06411" lon="6.97146">
        <ele>1453.5999755859</ele>
        <time>2022-08-20T14:04:36.000Z</time>
      </trkpt>
      <trkpt lat="44.06411" lon="6.97146">
        <ele>1453.5999755859</ele>
        <time>2022-08-20T14:04:51.000Z</time>
      </trkpt>
      <trkpt lat="44.0641" lon="6.97147">
        <ele>1453.5999755859</ele>
        <time>2022-08-20T14:05:09.000Z</time>
      </trkpt>
      <trkpt lat="44.0641" lon="6.97149">
        <ele>1453.4000244141</ele>
        <time>2022-08-20T14:05:23.000Z</time>
      </trkpt>
      <trkpt lat="44.06411" lon="6.97149">
        <ele>1453.5999755859</ele>
        <time>2022-08-20T14:05:44.000Z</time>
      </trkpt>
      <trkpt lat="44.0641" lon="6.97149">
        <ele>1453.8000488281</ele>
        <time>2022-08-20T14:06:09.000Z</time>
      </trkpt>
      <trkpt lat="44.0641" lon="6.9715">
        <ele>1453.8000488281</ele>
        <time>2022-08-20T14:06:36.000Z</time>
      </trkpt>
      <trkpt lat="44.0641" lon="6.97151">
        <ele>1453.8000488281</ele>
        <time>2022-08-20T14:06:58.000Z</time>
      </trkpt>
      <trkpt lat="44.0641" lon="6.97151">
        <ele>1453.8000488281</ele>
        <time>2022-08-20T14:07:19.000Z</time>
      </trkpt>
      <trkpt lat="44.0641" lon="6.97151">
        <ele>1454</ele>
        <time>2022-08-20T14:07:33.000Z</time>
      </trkpt>
      <trkpt lat="44.0641" lon="6.97151">
        <ele>1453.5999755859</ele>
        <time>2022-08-20T14:07:51.000Z</time>
      </trkpt>
      <trkpt lat="44.06411" lon="6.9715">
        <ele>1453.5999755859</ele>
        <time>2022-08-20T14:08:12.000Z</time>
      </trkpt>
      <trkpt lat="44.06411" lon="6.97151">
        <ele>1453.5999755859</ele>
        <time>2022-08-20T14:08:36.000Z</time>
      </trkpt>
      <trkpt lat="44.06411" lon="6.97151">
        <ele>1453.5999755859</ele>
        <time>2022-08-20T14:08:55.000Z</time>
      </trkpt>
      <trkpt lat="44.06412" lon="6.97151">
        <ele>1453.5999755859</ele>
        <time>2022-08-20T14:09:17.000Z</time>
      </trkpt>
      <trkpt lat="44.06415" lon="6.97149">
        <ele>1453.1999511719</ele>
        <time>2022-08-20T14:09:41.000Z</time>
      </trkpt>
      <trkpt lat="44.06415" lon="6.97149">
        <ele>1453</ele>
        <time>2022-08-20T14:09:46.000Z</time>
      </trkpt>
      <trkpt lat="44.06415" lon="6.97149">
        <ele>1453</ele>
        <time>2022-08-20T14:10:10.000Z</time>
      </trkpt>
      <trkpt lat="44.06415" lon="6.97149">
        <ele>1453</ele>
        <time>2022-08-20T14:10:40.000Z</time>
      </trkpt>
      <trkpt lat="44.06415" lon="6.9715">
        <ele>1453</ele>
        <time>2022-08-20T14:11:11.000Z</time>
      </trkpt>
      <trkpt lat="44.06415" lon="6.9715">
        <ele>1453</ele>
        <time>2022-08-20T14:11:39.000Z</time>
      </trkpt>
      <trkpt lat="44.06415" lon="6.9715">
        <ele>1453</ele>
        <time>2022-08-20T14:12:05.000Z</time>
      </trkpt>
      <trkpt lat="44.06415" lon="6.9715">
        <ele>1453</ele>
        <time>2022-08-20T14:12:26.000Z</time>
      </trkpt>
      <trkpt lat="44.06414" lon="6.97151">
        <ele>1452.8000488281</ele>
        <time>2022-08-20T14:12:30.000Z</time>
      </trkpt>
      <trkpt lat="44.06411" lon="6.97156">
        <ele>1452.8000488281</ele>
        <time>2022-08-20T14:12:32.000Z</time>
      </trkpt>
      <trkpt lat="44.06403" lon="6.97171">
        <ele>1451.8000488281</ele>
        <time>2022-08-20T14:12:37.000Z</time>
      </trkpt>
      <trkpt lat="44.06401" lon="6.97177">
        <ele>1450.1999511719</ele>
        <time>2022-08-20T14:12:39.000Z</time>
      </trkpt>
      <trkpt lat="44.06399" lon="6.97182">
        <ele>1448.8000488281</ele>
        <time>2022-08-20T14:12:41.000Z</time>
      </trkpt>
      <trkpt lat="44.06398" lon="6.97184">
        <ele>1448</ele>
        <time>2022-08-20T14:12:42.000Z</time>
      </trkpt>
      <trkpt lat="44.06397" lon="6.97186">
        <ele>1447.4000244141</ele>
        <time>2022-08-20T14:12:43.000Z</time>
      </trkpt>
      <trkpt lat="44.06393" lon="6.97193">
        <ele>1446.1999511719</ele>
        <time>2022-08-20T14:12:45.000Z</time>
      </trkpt>
      <trkpt lat="44.06391" lon="6.972">
        <ele>1444.4000244141</ele>
        <time>2022-08-20T14:12:47.000Z</time>
      </trkpt>
      <trkpt lat="44.06389" lon="6.97204">
        <ele>1443</ele>
        <time>2022-08-20T14:12:48.000Z</time>
      </trkpt>
      <trkpt lat="44.06382" lon="6.9721">
        <ele>1441.1999511719</ele>
        <time>2022-08-20T14:12:50.000Z</time>
      </trkpt>
      <trkpt lat="44.06379" lon="6.97214">
        <ele>1440.1999511719</ele>
        <time>2022-08-20T14:12:51.000Z</time>
      </trkpt>
      <trkpt lat="44.06375" lon="6.97219">
        <ele>1439</ele>
        <time>2022-08-20T14:12:53.000Z</time>
      </trkpt>
      <trkpt lat="44.06373" lon="6.97222">
        <ele>1437.8000488281</ele>
        <time>2022-08-20T14:12:54.000Z</time>
      </trkpt>
      <trkpt lat="44.06371" lon="6.97225">
        <ele>1436.8000488281</ele>
        <time>2022-08-20T14:12:55.000Z</time>
      </trkpt>
      <trkpt lat="44.06368" lon="6.97229">
        <ele>1435.1999511719</ele>
        <time>2022-08-20T14:12:57.000Z</time>
      </trkpt>
      <trkpt lat="44.06367" lon="6.97229">
        <ele>1434.1999511719</ele>
        <time>2022-08-20T14:12:58.000Z</time>
      </trkpt>
      <trkpt lat="44.06366" lon="6.97229">
        <ele>1433.8000488281</ele>
        <time>2022-08-20T14:12:59.000Z</time>
      </trkpt>
      <trkpt lat="44.06366" lon="6.97227">
        <ele>1433</ele>
        <time>2022-08-20T14:13:00.000Z</time>
      </trkpt>
      <trkpt lat="44.06366" lon="6.97226">
        <ele>1432.4000244141</ele>
        <time>2022-08-20T14:13:01.000Z</time>
      </trkpt>
      <trkpt lat="44.06366" lon="6.97224">
        <ele>1432</ele>
        <time>2022-08-20T14:13:02.000Z</time>
      </trkpt>
      <trkpt lat="44.06365" lon="6.97223">
        <ele>1431.1999511719</ele>
        <time>2022-08-20T14:13:05.000Z</time>
      </trkpt>
      <trkpt lat="44.06363" lon="6.97224">
        <ele>1430.5999755859</ele>
        <time>2022-08-20T14:13:06.000Z</time>
      </trkpt>
      <trkpt lat="44.06359" lon="6.97226">
        <ele>1429.8000488281</ele>
        <time>2022-08-20T14:13:08.000Z</time>
      </trkpt>
      <trkpt lat="44.06357" lon="6.97227">
        <ele>1429.4000244141</ele>
        <time>2022-08-20T14:13:09.000Z</time>
      </trkpt>
      <trkpt lat="44.06354" lon="6.97229">
        <ele>1428.8000488281</ele>
        <time>2022-08-20T14:13:10.000Z</time>
      </trkpt>
      <trkpt lat="44.06349" lon="6.97229">
        <ele>1427.1999511719</ele>
        <time>2022-08-20T14:13:12.000Z</time>
      </trkpt>
      <trkpt lat="44.06347" lon="6.9723">
        <ele>1426.1999511719</ele>
        <time>2022-08-20T14:13:13.000Z</time>
      </trkpt>
      <trkpt lat="44.06345" lon="6.97232">
        <ele>1425</ele>
        <time>2022-08-20T14:13:14.000Z</time>
      </trkpt>
      <trkpt lat="44.0634" lon="6.97237">
        <ele>1423.1999511719</ele>
        <time>2022-08-20T14:13:16.000Z</time>
      </trkpt>
      <trkpt lat="44.06336" lon="6.97243">
        <ele>1421.8000488281</ele>
        <time>2022-08-20T14:13:18.000Z</time>
      </trkpt>
      <trkpt lat="44.06333" lon="6.97245">
        <ele>1421.1999511719</ele>
        <time>2022-08-20T14:13:19.000Z</time>
      </trkpt>
      <trkpt lat="44.0633" lon="6.97248">
        <ele>1420.4000244141</ele>
        <time>2022-08-20T14:13:20.000Z</time>
      </trkpt>
      <trkpt lat="44.06326" lon="6.97253">
        <ele>1418.4000244141</ele>
        <time>2022-08-20T14:13:22.000Z</time>
      </trkpt>
      <trkpt lat="44.06325" lon="6.97254">
        <ele>1417.8000488281</ele>
        <time>2022-08-20T14:13:23.000Z</time>
      </trkpt>
      <trkpt lat="44.06324" lon="6.97256">
        <ele>1416.8000488281</ele>
        <time>2022-08-20T14:13:24.000Z</time>
      </trkpt>
      <trkpt lat="44.06322" lon="6.97263">
        <ele>1415.5999755859</ele>
        <time>2022-08-20T14:13:26.000Z</time>
      </trkpt>
      <trkpt lat="44.06321" lon="6.97275">
        <ele>1415</ele>
        <time>2022-08-20T14:13:28.000Z</time>
      </trkpt>
      <trkpt lat="44.0632" lon="6.9729">
        <ele>1414.4000244141</ele>
        <time>2022-08-20T14:13:30.000Z</time>
      </trkpt>
      <trkpt lat="44.06318" lon="6.97305">
        <ele>1413.4000244141</ele>
        <time>2022-08-20T14:13:32.000Z</time>
      </trkpt>
      <trkpt lat="44.06318" lon="6.97312">
        <ele>1412.8000488281</ele>
        <time>2022-08-20T14:13:33.000Z</time>
      </trkpt>
      <trkpt lat="44.06319" lon="6.97317">
        <ele>1412.1999511719</ele>
        <time>2022-08-20T14:13:34.000Z</time>
      </trkpt>
      <trkpt lat="44.06324" lon="6.97332">
        <ele>1411.1999511719</ele>
        <time>2022-08-20T14:13:37.000Z</time>
      </trkpt>
      <trkpt lat="44.06327" lon="6.97347">
        <ele>1411</ele>
        <time>2022-08-20T14:13:40.000Z</time>
      </trkpt>
      <trkpt lat="44.06327" lon="6.97352">
        <ele>1410.8000488281</ele>
        <time>2022-08-20T14:13:41.000Z</time>
      </trkpt>
      <trkpt lat="44.06328" lon="6.97366">
        <ele>1410.1999511719</ele>
        <time>2022-08-20T14:13:44.000Z</time>
      </trkpt>
      <trkpt lat="44.06328" lon="6.97372">
        <ele>1409.4000244141</ele>
        <time>2022-08-20T14:13:45.000Z</time>
      </trkpt>
      <trkpt lat="44.06329" lon="6.97381">
        <ele>1408.4000244141</ele>
        <time>2022-08-20T14:13:47.000Z</time>
      </trkpt>
      <trkpt lat="44.0633" lon="6.97386">
        <ele>1407.8000488281</ele>
        <time>2022-08-20T14:13:48.000Z</time>
      </trkpt>
      <trkpt lat="44.06331" lon="6.97389">
        <ele>1407.1999511719</ele>
        <time>2022-08-20T14:13:49.000Z</time>
      </trkpt>
      <trkpt lat="44.06333" lon="6.97408">
        <ele>1407.8000488281</ele>
        <time>2022-08-20T14:13:54.000Z</time>
      </trkpt>
      <trkpt lat="44.06331" lon="6.97412">
        <ele>1408</ele>
        <time>2022-08-20T14:13:55.000Z</time>
      </trkpt>
      <trkpt lat="44.06327" lon="6.97424">
        <ele>1408.4000244141</ele>
        <time>2022-08-20T14:13:59.000Z</time>
      </trkpt>
      <trkpt lat="44.06326" lon="6.97425">
        <ele>1408.5999755859</ele>
        <time>2022-08-20T14:14:00.000Z</time>
      </trkpt>
      <trkpt lat="44.06325" lon="6.97427">
        <ele>1408.8000488281</ele>
        <time>2022-08-20T14:14:01.000Z</time>
      </trkpt>
      <trkpt lat="44.06324" lon="6.97431">
        <ele>1409.8000488281</ele>
        <time>2022-08-20T14:14:03.000Z</time>
      </trkpt>
      <trkpt lat="44.06324" lon="6.97433">
        <ele>1410.1999511719</ele>
        <time>2022-08-20T14:14:04.000Z</time>
      </trkpt>
      <trkpt lat="44.06324" lon="6.97435">
        <ele>1411</ele>
        <time>2022-08-20T14:14:06.000Z</time>
      </trkpt>
      <trkpt lat="44.06324" lon="6.97435">
        <ele>1412.1999511719</ele>
        <time>2022-08-20T14:14:08.000Z</time>
      </trkpt>
      <trkpt lat="44.06324" lon="6.97435">
        <ele>1412.5999755859</ele>
        <time>2022-08-20T14:14:09.000Z</time>
      </trkpt>
      <trkpt lat="44.06324" lon="6.97435">
        <ele>1413.1999511719</ele>
        <time>2022-08-20T14:14:16.000Z</time>
      </trkpt>
      <trkpt lat="44.06324" lon="6.97435">
        <ele>1413.4000244141</ele>
        <time>2022-08-20T14:14:17.000Z</time>
      </trkpt>
      <trkpt lat="44.06323" lon="6.97437">
        <ele>1414</ele>
        <time>2022-08-20T14:14:26.000Z</time>
      </trkpt>
      <trkpt lat="44.06323" lon="6.97438">
        <ele>1414.1999511719</ele>
        <time>2022-08-20T14:14:28.000Z</time>
      </trkpt>
      <trkpt lat="44.06322" lon="6.97441">
        <ele>1415.1999511719</ele>
        <time>2022-08-20T14:14:34.000Z</time>
      </trkpt>
      <trkpt lat="44.06322" lon="6.97441">
        <ele>1415.4000244141</ele>
        <time>2022-08-20T14:14:35.000Z</time>
      </trkpt>
      <trkpt lat="44.0632" lon="6.97444">
        <ele>1416.5999755859</ele>
        <time>2022-08-20T14:14:41.000Z</time>
      </trkpt>
      <trkpt lat="44.06319" lon="6.97445">
        <ele>1416.8000488281</ele>
        <time>2022-08-20T14:14:42.000Z</time>
      </trkpt>
      <trkpt lat="44.06318" lon="6.97448">
        <ele>1417.5999755859</ele>
        <time>2022-08-20T14:14:47.000Z</time>
      </trkpt>
      <trkpt lat="44.06318" lon="6.97448">
        <ele>1417.8000488281</ele>
        <time>2022-08-20T14:14:48.000Z</time>
      </trkpt>
      <trkpt lat="44.06318" lon="6.97449">
        <ele>1418.1999511719</ele>
        <time>2022-08-20T14:14:55.000Z</time>
      </trkpt>
      <trkpt lat="44.06318" lon="6.9745">
        <ele>1418.1999511719</ele>
        <time>2022-08-20T14:15:01.000Z</time>
      </trkpt>
      <trkpt lat="44.06315" lon="6.97453">
        <ele>1418.4000244141</ele>
        <time>2022-08-20T14:15:04.000Z</time>
      </trkpt>
      <trkpt lat="44.06314" lon="6.97455">
        <ele>1418.5999755859</ele>
        <time>2022-08-20T14:15:05.000Z</time>
      </trkpt>
      <trkpt lat="44.06313" lon="6.97457">
        <ele>1418.8000488281</ele>
        <time>2022-08-20T14:15:06.000Z</time>
      </trkpt>
      <trkpt lat="44.0631" lon="6.97463">
        <ele>1419.8000488281</ele>
        <time>2022-08-20T14:15:09.000Z</time>
      </trkpt>
      <trkpt lat="44.06308" lon="6.97468">
        <ele>1421</ele>
        <time>2022-08-20T14:15:11.000Z</time>
      </trkpt>
      <trkpt lat="44.06306" lon="6.97474">
        <ele>1422.4000244141</ele>
        <time>2022-08-20T14:15:14.000Z</time>
      </trkpt>
      <trkpt lat="44.06304" lon="6.9748">
        <ele>1423.4000244141</ele>
        <time>2022-08-20T14:15:17.000Z</time>
      </trkpt>
      <trkpt lat="44.06302" lon="6.97482">
        <ele>1423.8000488281</ele>
        <time>2022-08-20T14:15:18.000Z</time>
      </trkpt>
      <trkpt lat="44.06299" lon="6.97487">
        <ele>1424.5999755859</ele>
        <time>2022-08-20T14:15:21.000Z</time>
      </trkpt>
      <trkpt lat="44.06297" lon="6.97491">
        <ele>1425.1999511719</ele>
        <time>2022-08-20T14:15:23.000Z</time>
      </trkpt>
      <trkpt lat="44.06296" lon="6.97493">
        <ele>1425.5999755859</ele>
        <time>2022-08-20T14:15:24.000Z</time>
      </trkpt>
      <trkpt lat="44.06294" lon="6.97497">
        <ele>1426.8000488281</ele>
        <time>2022-08-20T14:15:26.000Z</time>
      </trkpt>
      <trkpt lat="44.06292" lon="6.97501">
        <ele>1428</ele>
        <time>2022-08-20T14:15:28.000Z</time>
      </trkpt>
      <trkpt lat="44.0629" lon="6.97506">
        <ele>1428.5999755859</ele>
        <time>2022-08-20T14:15:30.000Z</time>
      </trkpt>
      <trkpt lat="44.06289" lon="6.9751">
        <ele>1429.1999511719</ele>
        <time>2022-08-20T14:15:32.000Z</time>
      </trkpt>
      <trkpt lat="44.06286" lon="6.97517">
        <ele>1430.1999511719</ele>
        <time>2022-08-20T14:15:35.000Z</time>
      </trkpt>
      <trkpt lat="44.06282" lon="6.97524">
        <ele>1431</ele>
        <time>2022-08-20T14:15:38.000Z</time>
      </trkpt>
      <trkpt lat="44.0628" lon="6.97527">
        <ele>1431</ele>
        <time>2022-08-20T14:15:40.000Z</time>
      </trkpt>
      <trkpt lat="44.06277" lon="6.97531">
        <ele>1430.8000488281</ele>
        <time>2022-08-20T14:15:42.000Z</time>
      </trkpt>
      <trkpt lat="44.06276" lon="6.97534">
        <ele>1430.8000488281</ele>
        <time>2022-08-20T14:15:43.000Z</time>
      </trkpt>
      <trkpt lat="44.06274" lon="6.97541">
        <ele>1430.1999511719</ele>
        <time>2022-08-20T14:15:46.000Z</time>
      </trkpt>
      <trkpt lat="44.06271" lon="6.97545">
        <ele>1430.8000488281</ele>
        <time>2022-08-20T14:15:50.000Z</time>
      </trkpt>
      <trkpt lat="44.06269" lon="6.97547">
        <ele>1431.4000244141</ele>
        <time>2022-08-20T14:15:51.000Z</time>
      </trkpt>
      <trkpt lat="44.06267" lon="6.97551">
        <ele>1432.4000244141</ele>
        <time>2022-08-20T14:15:53.000Z</time>
      </trkpt>
      <trkpt lat="44.06262" lon="6.97558">
        <ele>1433.5999755859</ele>
        <time>2022-08-20T14:15:56.000Z</time>
      </trkpt>
      <trkpt lat="44.06259" lon="6.97563">
        <ele>1434.5999755859</ele>
        <time>2022-08-20T14:15:59.000Z</time>
      </trkpt>
      <trkpt lat="44.06253" lon="6.97566">
        <ele>1435.1999511719</ele>
        <time>2022-08-20T14:16:01.000Z</time>
      </trkpt>
      <trkpt lat="44.0625" lon="6.9757">
        <ele>1435.4000244141</ele>
        <time>2022-08-20T14:16:02.000Z</time>
      </trkpt>
      <trkpt lat="44.06243" lon="6.97578">
        <ele>1434.1999511719</ele>
        <time>2022-08-20T14:16:05.000Z</time>
      </trkpt>
      <trkpt lat="44.06239" lon="6.97582">
        <ele>1433.5999755859</ele>
        <time>2022-08-20T14:16:07.000Z</time>
      </trkpt>
      <trkpt lat="44.06233" lon="6.97588">
        <ele>1434.4000244141</ele>
        <time>2022-08-20T14:16:10.000Z</time>
      </trkpt>
      <trkpt lat="44.06226" lon="6.97594">
        <ele>1434.5999755859</ele>
        <time>2022-08-20T14:16:12.000Z</time>
      </trkpt>
      <trkpt lat="44.06223" lon="6.97598">
        <ele>1434.5999755859</ele>
        <time>2022-08-20T14:16:13.000Z</time>
      </trkpt>
      <trkpt lat="44.0622" lon="6.97601">
        <ele>1434.1999511719</ele>
        <time>2022-08-20T14:16:14.000Z</time>
      </trkpt>
      <trkpt lat="44.06215" lon="6.97606">
        <ele>1433.1999511719</ele>
        <time>2022-08-20T14:16:16.000Z</time>
      </trkpt>
      <trkpt lat="44.06214" lon="6.97607">
        <ele>1432.8000488281</ele>
        <time>2022-08-20T14:16:17.000Z</time>
      </trkpt>
      <trkpt lat="44.06212" lon="6.97608">
        <ele>1432.8000488281</ele>
        <time>2022-08-20T14:16:18.000Z</time>
      </trkpt>
      <trkpt lat="44.06204" lon="6.97614">
        <ele>1434.1999511719</ele>
        <time>2022-08-20T14:16:23.000Z</time>
      </trkpt>
      <trkpt lat="44.06196" lon="6.97622">
        <ele>1435.1999511719</ele>
        <time>2022-08-20T14:16:28.000Z</time>
      </trkpt>
      <trkpt lat="44.06194" lon="6.97622">
        <ele>1435.1999511719</ele>
        <time>2022-08-20T14:16:29.000Z</time>
      </trkpt>
      <trkpt lat="44.06191" lon="6.97623">
        <ele>1435.4000244141</ele>
        <time>2022-08-20T14:16:30.000Z</time>
      </trkpt>
      <trkpt lat="44.06187" lon="6.97624">
        <ele>1435.4000244141</ele>
        <time>2022-08-20T14:16:31.000Z</time>
      </trkpt>
      <trkpt lat="44.06182" lon="6.97626">
        <ele>1435.1999511719</ele>
        <time>2022-08-20T14:16:32.000Z</time>
      </trkpt>
      <trkpt lat="44.06176" lon="6.9763">
        <ele>1434.5999755859</ele>
        <time>2022-08-20T14:16:35.000Z</time>
      </trkpt>
      <trkpt lat="44.06169" lon="6.97641">
        <ele>1435.1999511719</ele>
        <time>2022-08-20T14:16:40.000Z</time>
      </trkpt>
      <trkpt lat="44.06165" lon="6.97648">
        <ele>1436.4000244141</ele>
        <time>2022-08-20T14:16:44.000Z</time>
      </trkpt>
      <trkpt lat="44.06163" lon="6.9765">
        <ele>1436.5999755859</ele>
        <time>2022-08-20T14:16:45.000Z</time>
      </trkpt>
      <trkpt lat="44.06155" lon="6.97659">
        <ele>1437.4000244141</ele>
        <time>2022-08-20T14:16:50.000Z</time>
      </trkpt>
      <trkpt lat="44.06153" lon="6.97661">
        <ele>1437.5999755859</ele>
        <time>2022-08-20T14:16:51.000Z</time>
      </trkpt>
      <trkpt lat="44.06147" lon="6.97665">
        <ele>1438.8000488281</ele>
        <time>2022-08-20T14:16:55.000Z</time>
      </trkpt>
      <trkpt lat="44.06145" lon="6.97666">
        <ele>1439.1999511719</ele>
        <time>2022-08-20T14:16:56.000Z</time>
      </trkpt>
      <trkpt lat="44.06142" lon="6.97667">
        <ele>1440.1999511719</ele>
        <time>2022-08-20T14:16:58.000Z</time>
      </trkpt>
      <trkpt lat="44.06136" lon="6.97667">
        <ele>1441.5999755859</ele>
        <time>2022-08-20T14:17:01.000Z</time>
      </trkpt>
      <trkpt lat="44.06133" lon="6.97668">
        <ele>1442.5999755859</ele>
        <time>2022-08-20T14:17:03.000Z</time>
      </trkpt>
      <trkpt lat="44.06129" lon="6.97674">
        <ele>1443.5999755859</ele>
        <time>2022-08-20T14:17:06.000Z</time>
      </trkpt>
      <trkpt lat="44.06124" lon="6.97681">
        <ele>1443.8000488281</ele>
        <time>2022-08-20T14:17:08.000Z</time>
      </trkpt>
      <trkpt lat="44.06118" lon="6.97688">
        <ele>1443.1999511719</ele>
        <time>2022-08-20T14:17:10.000Z</time>
      </trkpt>
      <trkpt lat="44.06113" lon="6.97692">
        <ele>1442.4000244141</ele>
        <time>2022-08-20T14:17:13.000Z</time>
      </trkpt>
      <trkpt lat="44.06103" lon="6.97696">
        <ele>1442.8000488281</ele>
        <time>2022-08-20T14:17:17.000Z</time>
      </trkpt>
      <trkpt lat="44.06091" lon="6.97699">
        <ele>1442.4000244141</ele>
        <time>2022-08-20T14:17:22.000Z</time>
      </trkpt>
      <trkpt lat="44.06082" lon="6.977">
        <ele>1442</ele>
        <time>2022-08-20T14:17:26.000Z</time>
      </trkpt>
      <trkpt lat="44.0608" lon="6.97701">
        <ele>1442.1999511719</ele>
        <time>2022-08-20T14:17:27.000Z</time>
      </trkpt>
      <trkpt lat="44.06071" lon="6.97709">
        <ele>1442.5999755859</ele>
        <time>2022-08-20T14:17:31.000Z</time>
      </trkpt>
      <trkpt lat="44.06059" lon="6.97718">
        <ele>1442.8000488281</ele>
        <time>2022-08-20T14:17:36.000Z</time>
      </trkpt>
      <trkpt lat="44.06055" lon="6.97721">
        <ele>1442.8000488281</ele>
        <time>2022-08-20T14:17:38.000Z</time>
      </trkpt>
      <trkpt lat="44.0605" lon="6.97726">
        <ele>1443</ele>
        <time>2022-08-20T14:17:41.000Z</time>
      </trkpt>
      <trkpt lat="44.06045" lon="6.97729">
        <ele>1443.5999755859</ele>
        <time>2022-08-20T14:17:44.000Z</time>
      </trkpt>
      <trkpt lat="44.06044" lon="6.9773">
        <ele>1444</ele>
        <time>2022-08-20T14:17:45.000Z</time>
      </trkpt>
      <trkpt lat="44.06043" lon="6.97732">
        <ele>1444.1999511719</ele>
        <time>2022-08-20T14:17:50.000Z</time>
      </trkpt>
      <trkpt lat="44.06039" lon="6.97738">
        <ele>1444.8000488281</ele>
        <time>2022-08-20T14:17:56.000Z</time>
      </trkpt>
      <trkpt lat="44.06038" lon="6.97738">
        <ele>1445</ele>
        <time>2022-08-20T14:17:57.000Z</time>
      </trkpt>
      <trkpt lat="44.06035" lon="6.97738">
        <ele>1445.5999755859</ele>
        <time>2022-08-20T14:18:02.000Z</time>
      </trkpt>
      <trkpt lat="44.06033" lon="6.97739">
        <ele>1445.5999755859</ele>
        <time>2022-08-20T14:18:03.000Z</time>
      </trkpt>
      <trkpt lat="44.0603" lon="6.9774">
        <ele>1445</ele>
        <time>2022-08-20T14:18:08.000Z</time>
      </trkpt>
      <trkpt lat="44.06028" lon="6.97741">
        <ele>1444.8000488281</ele>
        <time>2022-08-20T14:18:10.000Z</time>
      </trkpt>
      <trkpt lat="44.06024" lon="6.97743">
        <ele>1445</ele>
        <time>2022-08-20T14:18:12.000Z</time>
      </trkpt>
      <trkpt lat="44.06012" lon="6.97747">
        <ele>1445.4000244141</ele>
        <time>2022-08-20T14:18:17.000Z</time>
      </trkpt>
      <trkpt lat="44.06004" lon="6.97749">
        <ele>1446</ele>
        <time>2022-08-20T14:18:21.000Z</time>
      </trkpt>
      <trkpt lat="44.06001" lon="6.97752">
        <ele>1446.4000244141</ele>
        <time>2022-08-20T14:18:23.000Z</time>
      </trkpt>
      <trkpt lat="44.05995" lon="6.97753">
        <ele>1447</ele>
        <time>2022-08-20T14:18:26.000Z</time>
      </trkpt>
      <trkpt lat="44.0599" lon="6.97756">
        <ele>1448.1999511719</ele>
        <time>2022-08-20T14:18:29.000Z</time>
      </trkpt>
      <trkpt lat="44.05985" lon="6.97763">
        <ele>1449.4000244141</ele>
        <time>2022-08-20T14:18:33.000Z</time>
      </trkpt>
      <trkpt lat="44.05981" lon="6.9777">
        <ele>1450.4000244141</ele>
        <time>2022-08-20T14:18:37.000Z</time>
      </trkpt>
      <trkpt lat="44.05978" lon="6.97774">
        <ele>1451</ele>
        <time>2022-08-20T14:18:39.000Z</time>
      </trkpt>
      <trkpt lat="44.05973" lon="6.97779">
        <ele>1451.5999755859</ele>
        <time>2022-08-20T14:18:42.000Z</time>
      </trkpt>
      <trkpt lat="44.05971" lon="6.97781">
        <ele>1451.5999755859</ele>
        <time>2022-08-20T14:18:44.000Z</time>
      </trkpt>
      <trkpt lat="44.05968" lon="6.97784">
        <ele>1452</ele>
        <time>2022-08-20T14:18:49.000Z</time>
      </trkpt>
      <trkpt lat="44.05966" lon="6.97786">
        <ele>1452.1999511719</ele>
        <time>2022-08-20T14:18:58.000Z</time>
      </trkpt>
      <trkpt lat="44.05964" lon="6.97787">
        <ele>1452.1999511719</ele>
        <time>2022-08-20T14:19:08.000Z</time>
      </trkpt>
      <trkpt lat="44.05962" lon="6.9779">
        <ele>1452</ele>
        <time>2022-08-20T14:19:20.000Z</time>
      </trkpt>
      <trkpt lat="44.05959" lon="6.97793">
        <ele>1451.8000488281</ele>
        <time>2022-08-20T14:19:35.000Z</time>
      </trkpt>
      <trkpt lat="44.05957" lon="6.97794">
        <ele>1452.1999511719</ele>
        <time>2022-08-20T14:19:50.000Z</time>
      </trkpt>
      <trkpt lat="44.05956" lon="6.97794">
        <ele>1452.1999511719</ele>
        <time>2022-08-20T14:20:07.000Z</time>
      </trkpt>
      <trkpt lat="44.05956" lon="6.97794">
        <ele>1452</ele>
        <time>2022-08-20T14:20:24.000Z</time>
      </trkpt>
      <trkpt lat="44.05956" lon="6.97794">
        <ele>1452.1999511719</ele>
        <time>2022-08-20T14:20:34.000Z</time>
      </trkpt>
      <trkpt lat="44.05956" lon="6.97794">
        <ele>1452.4000244141</ele>
        <time>2022-08-20T14:20:48.000Z</time>
      </trkpt>
      <trkpt lat="44.05957" lon="6.97797">
        <ele>1452</ele>
        <time>2022-08-20T14:21:02.000Z</time>
      </trkpt>
      <trkpt lat="44.05957" lon="6.97796">
        <ele>1452</ele>
        <time>2022-08-20T14:21:18.000Z</time>
      </trkpt>
      <trkpt lat="44.05957" lon="6.97797">
        <ele>1451.8000488281</ele>
        <time>2022-08-20T14:21:33.000Z</time>
      </trkpt>
      <trkpt lat="44.05957" lon="6.97798">
        <ele>1452</ele>
        <time>2022-08-20T14:21:49.000Z</time>
      </trkpt>
      <trkpt lat="44.05956" lon="6.978">
        <ele>1452</ele>
        <time>2022-08-20T14:21:55.000Z</time>
      </trkpt>
      <trkpt lat="44.05956" lon="6.978">
        <ele>1452</ele>
        <time>2022-08-20T14:22:12.000Z</time>
      </trkpt>
      <trkpt lat="44.05956" lon="6.97799">
        <ele>1452</ele>
        <time>2022-08-20T14:22:30.000Z</time>
      </trkpt>
      <trkpt lat="44.05956" lon="6.97799">
        <ele>1452</ele>
        <time>2022-08-20T14:22:43.000Z</time>
      </trkpt>
      <trkpt lat="44.05955" lon="6.97798">
        <ele>1451.8000488281</ele>
        <time>2022-08-20T14:23:01.000Z</time>
      </trkpt>
      <trkpt lat="44.05954" lon="6.97797">
        <ele>1451.8000488281</ele>
        <time>2022-08-20T14:23:25.000Z</time>
      </trkpt>
      <trkpt lat="44.05953" lon="6.97796">
        <ele>1451.8000488281</ele>
        <time>2022-08-20T14:23:49.000Z</time>
      </trkpt>
      <trkpt lat="44.05953" lon="6.97796">
        <ele>1451.8000488281</ele>
        <time>2022-08-20T14:24:05.000Z</time>
      </trkpt>
      <trkpt lat="44.05953" lon="6.97796">
        <ele>1451.5999755859</ele>
        <time>2022-08-20T14:24:14.000Z</time>
      </trkpt>
      <trkpt lat="44.05951" lon="6.97797">
        <ele>1452</ele>
        <time>2022-08-20T14:24:26.000Z</time>
      </trkpt>
      <trkpt lat="44.05951" lon="6.97798">
        <ele>1451.8000488281</ele>
        <time>2022-08-20T14:24:27.000Z</time>
      </trkpt>
      <trkpt lat="44.05946" lon="6.97808">
        <ele>1452.4000244141</ele>
        <time>2022-08-20T14:24:34.000Z</time>
      </trkpt>
      <trkpt lat="44.05946" lon="6.9781">
        <ele>1452.5999755859</ele>
        <time>2022-08-20T14:24:35.000Z</time>
      </trkpt>
      <trkpt lat="44.05945" lon="6.97812">
        <ele>1452.8000488281</ele>
        <time>2022-08-20T14:24:36.000Z</time>
      </trkpt>
      <trkpt lat="44.05944" lon="6.97817">
        <ele>1453.4000244141</ele>
        <time>2022-08-20T14:24:38.000Z</time>
      </trkpt>
      <trkpt lat="44.05944" lon="6.9782">
        <ele>1453.4000244141</ele>
        <time>2022-08-20T14:24:39.000Z</time>
      </trkpt>
      <trkpt lat="44.05949" lon="6.97826">
        <ele>1453</ele>
        <time>2022-08-20T14:24:41.000Z</time>
      </trkpt>
      <trkpt lat="44.05961" lon="6.97827">
        <ele>1451</ele>
        <time>2022-08-20T14:24:44.000Z</time>
      </trkpt>
      <trkpt lat="44.05964" lon="6.97827">
        <ele>1450.1999511719</ele>
        <time>2022-08-20T14:24:45.000Z</time>
      </trkpt>
      <trkpt lat="44.05966" lon="6.97827">
        <ele>1449.5999755859</ele>
        <time>2022-08-20T14:24:46.000Z</time>
      </trkpt>
      <trkpt lat="44.05968" lon="6.97828">
        <ele>1449</ele>
        <time>2022-08-20T14:24:47.000Z</time>
      </trkpt>
      <trkpt lat="44.0598" lon="6.97838">
        <ele>1449.1999511719</ele>
        <time>2022-08-20T14:24:51.000Z</time>
      </trkpt>
      <trkpt lat="44.05989" lon="6.97852">
        <ele>1448.5999755859</ele>
        <time>2022-08-20T14:24:54.000Z</time>
      </trkpt>
      <trkpt lat="44.05994" lon="6.97857">
        <ele>1448</ele>
        <time>2022-08-20T14:24:55.000Z</time>
      </trkpt>
      <trkpt lat="44.06003" lon="6.97864">
        <ele>1446.8000488281</ele>
        <time>2022-08-20T14:24:57.000Z</time>
      </trkpt>
      <trkpt lat="44.06014" lon="6.97871">
        <ele>1445.5999755859</ele>
        <time>2022-08-20T14:24:59.000Z</time>
      </trkpt>
      <trkpt lat="44.06023" lon="6.97875">
        <ele>1444.8000488281</ele>
        <time>2022-08-20T14:25:01.000Z</time>
      </trkpt>
      <trkpt lat="44.06028" lon="6.97875">
        <ele>1444</ele>
        <time>2022-08-20T14:25:02.000Z</time>
      </trkpt>
      <trkpt lat="44.06032" lon="6.97873">
        <ele>1443.4000244141</ele>
        <time>2022-08-20T14:25:03.000Z</time>
      </trkpt>
      <trkpt lat="44.06036" lon="6.97872">
        <ele>1442.8000488281</ele>
        <time>2022-08-20T14:25:04.000Z</time>
      </trkpt>
      <trkpt lat="44.0605" lon="6.97872">
        <ele>1442.4000244141</ele>
        <time>2022-08-20T14:25:08.000Z</time>
      </trkpt>
      <trkpt lat="44.06059" lon="6.97873">
        <ele>1443</ele>
        <time>2022-08-20T14:25:11.000Z</time>
      </trkpt>
      <trkpt lat="44.06063" lon="6.97877">
        <ele>1443</ele>
        <time>2022-08-20T14:25:12.000Z</time>
      </trkpt>
      <trkpt lat="44.06068" lon="6.97879">
        <ele>1442.8000488281</ele>
        <time>2022-08-20T14:25:13.000Z</time>
      </trkpt>
      <trkpt lat="44.06078" lon="6.97884">
        <ele>1442.5999755859</ele>
        <time>2022-08-20T14:25:15.000Z</time>
      </trkpt>
      <trkpt lat="44.06085" lon="6.97886">
        <ele>1441.8000488281</ele>
        <time>2022-08-20T14:25:17.000Z</time>
      </trkpt>
      <trkpt lat="44.06087" lon="6.97889">
        <ele>1441.1999511719</ele>
        <time>2022-08-20T14:25:18.000Z</time>
      </trkpt>
      <trkpt lat="44.06091" lon="6.97891">
        <ele>1440.8000488281</ele>
        <time>2022-08-20T14:25:19.000Z</time>
      </trkpt>
      <trkpt lat="44.06095" lon="6.97893">
        <ele>1440.4000244141</ele>
        <time>2022-08-20T14:25:20.000Z</time>
      </trkpt>
      <trkpt lat="44.061" lon="6.97892">
        <ele>1439.8000488281</ele>
        <time>2022-08-20T14:25:22.000Z</time>
      </trkpt>
      <trkpt lat="44.06102" lon="6.97893">
        <ele>1439.4000244141</ele>
        <time>2022-08-20T14:25:23.000Z</time>
      </trkpt>
      <trkpt lat="44.06109" lon="6.97895">
        <ele>1438.4000244141</ele>
        <time>2022-08-20T14:25:26.000Z</time>
      </trkpt>
      <trkpt lat="44.06119" lon="6.97893">
        <ele>1437</ele>
        <time>2022-08-20T14:25:29.000Z</time>
      </trkpt>
      <trkpt lat="44.06125" lon="6.97892">
        <ele>1436.4000244141</ele>
        <time>2022-08-20T14:25:30.000Z</time>
      </trkpt>
      <trkpt lat="44.0613" lon="6.9789">
        <ele>1435.8000488281</ele>
        <time>2022-08-20T14:25:31.000Z</time>
      </trkpt>
      <trkpt lat="44.06136" lon="6.9789">
        <ele>1435.5999755859</ele>
        <time>2022-08-20T14:25:32.000Z</time>
      </trkpt>
      <trkpt lat="44.06146" lon="6.97891">
        <ele>1434.8000488281</ele>
        <time>2022-08-20T14:25:34.000Z</time>
      </trkpt>
      <trkpt lat="44.06151" lon="6.97891">
        <ele>1434.5999755859</ele>
        <time>2022-08-20T14:25:35.000Z</time>
      </trkpt>
      <trkpt lat="44.06167" lon="6.97898">
        <ele>1433.5999755859</ele>
        <time>2022-08-20T14:25:38.000Z</time>
      </trkpt>
      <trkpt lat="44.06179" lon="6.97906">
        <ele>1432.1999511719</ele>
        <time>2022-08-20T14:25:40.000Z</time>
      </trkpt>
      <trkpt lat="44.06184" lon="6.97909">
        <ele>1430.8000488281</ele>
        <time>2022-08-20T14:25:41.000Z</time>
      </trkpt>
      <trkpt lat="44.06189" lon="6.97912">
        <ele>1430</ele>
        <time>2022-08-20T14:25:42.000Z</time>
      </trkpt>
      <trkpt lat="44.06194" lon="6.97915">
        <ele>1429.4000244141</ele>
        <time>2022-08-20T14:25:43.000Z</time>
      </trkpt>
      <trkpt lat="44.06205" lon="6.9792">
        <ele>1428</ele>
        <time>2022-08-20T14:25:45.000Z</time>
      </trkpt>
      <trkpt lat="44.0621" lon="6.97923">
        <ele>1427.8000488281</ele>
        <time>2022-08-20T14:25:46.000Z</time>
      </trkpt>
      <trkpt lat="44.06215" lon="6.97925">
        <ele>1427.5999755859</ele>
        <time>2022-08-20T14:25:47.000Z</time>
      </trkpt>
      <trkpt lat="44.0623" lon="6.97931">
        <ele>1428.4000244141</ele>
        <time>2022-08-20T14:25:51.000Z</time>
      </trkpt>
      <trkpt lat="44.06238" lon="6.97939">
        <ele>1429.1999511719</ele>
        <time>2022-08-20T14:25:54.000Z</time>
      </trkpt>
      <trkpt lat="44.06243" lon="6.97942">
        <ele>1429.1999511719</ele>
        <time>2022-08-20T14:25:55.000Z</time>
      </trkpt>
      <trkpt lat="44.0625" lon="6.97955">
        <ele>1429</ele>
        <time>2022-08-20T14:25:58.000Z</time>
      </trkpt>
      <trkpt lat="44.06261" lon="6.97976">
        <ele>1429.1999511719</ele>
        <time>2022-08-20T14:26:03.000Z</time>
      </trkpt>
      <trkpt lat="44.06274" lon="6.97981">
        <ele>1429.8000488281</ele>
        <time>2022-08-20T14:26:07.000Z</time>
      </trkpt>
      <trkpt lat="44.06292" lon="6.97986">
        <ele>1429.8000488281</ele>
        <time>2022-08-20T14:26:12.000Z</time>
      </trkpt>
      <trkpt lat="44.06307" lon="6.97991">
        <ele>1429.4000244141</ele>
        <time>2022-08-20T14:26:16.000Z</time>
      </trkpt>
      <trkpt lat="44.06323" lon="6.97998">
        <ele>1428.8000488281</ele>
        <time>2022-08-20T14:26:21.000Z</time>
      </trkpt>
      <trkpt lat="44.06326" lon="6.98001">
        <ele>1428.8000488281</ele>
        <time>2022-08-20T14:26:22.000Z</time>
      </trkpt>
      <trkpt lat="44.06332" lon="6.98008">
        <ele>1428.8000488281</ele>
        <time>2022-08-20T14:26:24.000Z</time>
      </trkpt>
      <trkpt lat="44.0634" lon="6.98018">
        <ele>1428.8000488281</ele>
        <time>2022-08-20T14:26:27.000Z</time>
      </trkpt>
      <trkpt lat="44.06341" lon="6.98022">
        <ele>1429</ele>
        <time>2022-08-20T14:26:28.000Z</time>
      </trkpt>
      <trkpt lat="44.06352" lon="6.98039">
        <ele>1429.5999755859</ele>
        <time>2022-08-20T14:26:33.000Z</time>
      </trkpt>
      <trkpt lat="44.06354" lon="6.98047">
        <ele>1430.4000244141</ele>
        <time>2022-08-20T14:26:35.000Z</time>
      </trkpt>
      <trkpt lat="44.06359" lon="6.98057">
        <ele>1431</ele>
        <time>2022-08-20T14:26:38.000Z</time>
      </trkpt>
      <trkpt lat="44.06362" lon="6.98063">
        <ele>1431.4000244141</ele>
        <time>2022-08-20T14:26:41.000Z</time>
      </trkpt>
      <trkpt lat="44.06363" lon="6.98063">
        <ele>1431.8000488281</ele>
        <time>2022-08-20T14:26:43.000Z</time>
      </trkpt>
      <trkpt lat="44.06365" lon="6.98064">
        <ele>1432.4000244141</ele>
        <time>2022-08-20T14:26:50.000Z</time>
      </trkpt>
      <trkpt lat="44.06367" lon="6.98064">
        <ele>1432.5999755859</ele>
        <time>2022-08-20T14:27:03.000Z</time>
      </trkpt>
      <trkpt lat="44.0637" lon="6.98065">
        <ele>1433</ele>
        <time>2022-08-20T14:27:33.000Z</time>
      </trkpt>
      <trkpt lat="44.0637" lon="6.98065">
        <ele>1433.4000244141</ele>
        <time>2022-08-20T14:27:47.000Z</time>
      </trkpt>
      <trkpt lat="44.0637" lon="6.98066">
        <ele>1433.4000244141</ele>
        <time>2022-08-20T14:27:50.000Z</time>
      </trkpt>
      <trkpt lat="44.06371" lon="6.98066">
        <ele>1433.5999755859</ele>
        <time>2022-08-20T14:28:17.000Z</time>
      </trkpt>
      <trkpt lat="44.06373" lon="6.98067">
        <ele>1433.5999755859</ele>
        <time>2022-08-20T14:28:24.000Z</time>
      </trkpt>
      <trkpt lat="44.06374" lon="6.98068">
        <ele>1433.5999755859</ele>
        <time>2022-08-20T14:28:25.000Z</time>
      </trkpt>
      <trkpt lat="44.06383" lon="6.98068">
        <ele>1433</ele>
        <time>2022-08-20T14:28:30.000Z</time>
      </trkpt>
      <trkpt lat="44.06391" lon="6.98064">
        <ele>1433</ele>
        <time>2022-08-20T14:28:33.000Z</time>
      </trkpt>
      <trkpt lat="44.06401" lon="6.98058">
        <ele>1432.8000488281</ele>
        <time>2022-08-20T14:28:36.000Z</time>
      </trkpt>
      <trkpt lat="44.06405" lon="6.98056">
        <ele>1432.5999755859</ele>
        <time>2022-08-20T14:28:37.000Z</time>
      </trkpt>
      <trkpt lat="44.06409" lon="6.98054">
        <ele>1432.4000244141</ele>
        <time>2022-08-20T14:28:38.000Z</time>
      </trkpt>
      <trkpt lat="44.06416" lon="6.98049">
        <ele>1432</ele>
        <time>2022-08-20T14:28:40.000Z</time>
      </trkpt>
      <trkpt lat="44.06432" lon="6.98045">
        <ele>1431.5999755859</ele>
        <time>2022-08-20T14:28:44.000Z</time>
      </trkpt>
      <trkpt lat="44.06437" lon="6.98044">
        <ele>1431.1999511719</ele>
        <time>2022-08-20T14:28:45.000Z</time>
      </trkpt>
      <trkpt lat="44.06448" lon="6.98046">
        <ele>1430.1999511719</ele>
        <time>2022-08-20T14:28:48.000Z</time>
      </trkpt>
      <trkpt lat="44.06453" lon="6.98048">
        <ele>1429</ele>
        <time>2022-08-20T14:28:50.000Z</time>
      </trkpt>
      <trkpt lat="44.0646" lon="6.98048">
        <ele>1427.4000244141</ele>
        <time>2022-08-20T14:28:52.000Z</time>
      </trkpt>
      <trkpt lat="44.06464" lon="6.98049">
        <ele>1426.4000244141</ele>
        <time>2022-08-20T14:28:53.000Z</time>
      </trkpt>
      <trkpt lat="44.06468" lon="6.98052">
        <ele>1425.1999511719</ele>
        <time>2022-08-20T14:28:54.000Z</time>
      </trkpt>
      <trkpt lat="44.06478" lon="6.9806">
        <ele>1424.5999755859</ele>
        <time>2022-08-20T14:28:57.000Z</time>
      </trkpt>
      <trkpt lat="44.0649" lon="6.98065">
        <ele>1424</ele>
        <time>2022-08-20T14:29:00.000Z</time>
      </trkpt>
      <trkpt lat="44.06493" lon="6.98068">
        <ele>1423.8000488281</ele>
        <time>2022-08-20T14:29:01.000Z</time>
      </trkpt>
      <trkpt lat="44.06498" lon="6.98076">
        <ele>1423.1999511719</ele>
        <time>2022-08-20T14:29:03.000Z</time>
      </trkpt>
      <trkpt lat="44.06501" lon="6.9808">
        <ele>1422.8000488281</ele>
        <time>2022-08-20T14:29:04.000Z</time>
      </trkpt>
      <trkpt lat="44.06506" lon="6.98087">
        <ele>1422.5999755859</ele>
        <time>2022-08-20T14:29:06.000Z</time>
      </trkpt>
      <trkpt lat="44.06519" lon="6.98099">
        <ele>1422</ele>
        <time>2022-08-20T14:29:10.000Z</time>
      </trkpt>
      <trkpt lat="44.06521" lon="6.98103">
        <ele>1421.5999755859</ele>
        <time>2022-08-20T14:29:11.000Z</time>
      </trkpt>
      <trkpt lat="44.0653" lon="6.98111">
        <ele>1421.1999511719</ele>
        <time>2022-08-20T14:29:13.000Z</time>
      </trkpt>
      <trkpt lat="44.06534" lon="6.98113">
        <ele>1420.4000244141</ele>
        <time>2022-08-20T14:29:14.000Z</time>
      </trkpt>
      <trkpt lat="44.06549" lon="6.9812">
        <ele>1419.1999511719</ele>
        <time>2022-08-20T14:29:18.000Z</time>
      </trkpt>
      <trkpt lat="44.06558" lon="6.98121">
        <ele>1418.4000244141</ele>
        <time>2022-08-20T14:29:20.000Z</time>
      </trkpt>
      <trkpt lat="44.06561" lon="6.98121">
        <ele>1418</ele>
        <time>2022-08-20T14:29:21.000Z</time>
      </trkpt>
      <trkpt lat="44.0657" lon="6.98126">
        <ele>1417.4000244141</ele>
        <time>2022-08-20T14:29:23.000Z</time>
      </trkpt>
      <trkpt lat="44.06572" lon="6.9813">
        <ele>1417</ele>
        <time>2022-08-20T14:29:24.000Z</time>
      </trkpt>
      <trkpt lat="44.06585" lon="6.98148">
        <ele>1415.5999755859</ele>
        <time>2022-08-20T14:29:27.000Z</time>
      </trkpt>
      <trkpt lat="44.06591" lon="6.98162">
        <ele>1414.1999511719</ele>
        <time>2022-08-20T14:29:29.000Z</time>
      </trkpt>
      <trkpt lat="44.06594" lon="6.98168">
        <ele>1413.1999511719</ele>
        <time>2022-08-20T14:29:30.000Z</time>
      </trkpt>
      <trkpt lat="44.06596" lon="6.98175">
        <ele>1413.1999511719</ele>
        <time>2022-08-20T14:29:31.000Z</time>
      </trkpt>
      <trkpt lat="44.06596" lon="6.98192">
        <ele>1412.4000244141</ele>
        <time>2022-08-20T14:29:34.000Z</time>
      </trkpt>
      <trkpt lat="44.06595" lon="6.98198">
        <ele>1411.8000488281</ele>
        <time>2022-08-20T14:29:35.000Z</time>
      </trkpt>
      <trkpt lat="44.06597" lon="6.98209">
        <ele>1410.8000488281</ele>
        <time>2022-08-20T14:29:37.000Z</time>
      </trkpt>
      <trkpt lat="44.066" lon="6.98212">
        <ele>1411.1999511719</ele>
        <time>2022-08-20T14:29:38.000Z</time>
      </trkpt>
      <trkpt lat="44.06606" lon="6.98214">
        <ele>1409.1999511719</ele>
        <time>2022-08-20T14:29:40.000Z</time>
      </trkpt>
      <trkpt lat="44.06611" lon="6.98216">
        <ele>1408.5999755859</ele>
        <time>2022-08-20T14:29:41.000Z</time>
      </trkpt>
      <trkpt lat="44.06615" lon="6.98217">
        <ele>1408</ele>
        <time>2022-08-20T14:29:42.000Z</time>
      </trkpt>
      <trkpt lat="44.06619" lon="6.98219">
        <ele>1407.4000244141</ele>
        <time>2022-08-20T14:29:43.000Z</time>
      </trkpt>
      <trkpt lat="44.06623" lon="6.98222">
        <ele>1406.4000244141</ele>
        <time>2022-08-20T14:29:44.000Z</time>
      </trkpt>
      <trkpt lat="44.06626" lon="6.98226">
        <ele>1405.1999511719</ele>
        <time>2022-08-20T14:29:45.000Z</time>
      </trkpt>
      <trkpt lat="44.06628" lon="6.98232">
        <ele>1404</ele>
        <time>2022-08-20T14:29:46.000Z</time>
      </trkpt>
      <trkpt lat="44.06629" lon="6.98237">
        <ele>1402.8000488281</ele>
        <time>2022-08-20T14:29:47.000Z</time>
      </trkpt>
      <trkpt lat="44.06629" lon="6.9824">
        <ele>1401</ele>
        <time>2022-08-20T14:29:48.000Z</time>
      </trkpt>
      <trkpt lat="44.06628" lon="6.98242">
        <ele>1400.4000244141</ele>
        <time>2022-08-20T14:29:49.000Z</time>
      </trkpt>
      <trkpt lat="44.06626" lon="6.98244">
        <ele>1399.4000244141</ele>
        <time>2022-08-20T14:29:50.000Z</time>
      </trkpt>
      <trkpt lat="44.06626" lon="6.98246">
        <ele>1398.1999511719</ele>
        <time>2022-08-20T14:29:51.000Z</time>
      </trkpt>
      <trkpt lat="44.06626" lon="6.9825">
        <ele>1397</ele>
        <time>2022-08-20T14:29:52.000Z</time>
      </trkpt>
      <trkpt lat="44.06627" lon="6.98255">
        <ele>1396.1999511719</ele>
        <time>2022-08-20T14:29:53.000Z</time>
      </trkpt>
      <trkpt lat="44.06628" lon="6.98259">
        <ele>1395</ele>
        <time>2022-08-20T14:29:54.000Z</time>
      </trkpt>
      <trkpt lat="44.0663" lon="6.98263">
        <ele>1394.1999511719</ele>
        <time>2022-08-20T14:29:55.000Z</time>
      </trkpt>
      <trkpt lat="44.06631" lon="6.98268">
        <ele>1393</ele>
        <time>2022-08-20T14:29:56.000Z</time>
      </trkpt>
      <trkpt lat="44.06631" lon="6.98272">
        <ele>1391.4000244141</ele>
        <time>2022-08-20T14:29:57.000Z</time>
      </trkpt>
      <trkpt lat="44.06631" lon="6.98277">
        <ele>1390</ele>
        <time>2022-08-20T14:29:58.000Z</time>
      </trkpt>
      <trkpt lat="44.06631" lon="6.9828">
        <ele>1389</ele>
        <time>2022-08-20T14:29:59.000Z</time>
      </trkpt>
      <trkpt lat="44.0663" lon="6.98283">
        <ele>1388.1999511719</ele>
        <time>2022-08-20T14:30:00.000Z</time>
      </trkpt>
      <trkpt lat="44.06629" lon="6.98284">
        <ele>1387</ele>
        <time>2022-08-20T14:30:01.000Z</time>
      </trkpt>
      <trkpt lat="44.06628" lon="6.98283">
        <ele>1386.5999755859</ele>
        <time>2022-08-20T14:30:02.000Z</time>
      </trkpt>
      <trkpt lat="44.06626" lon="6.98281">
        <ele>1385.8000488281</ele>
        <time>2022-08-20T14:30:03.000Z</time>
      </trkpt>
      <trkpt lat="44.06623" lon="6.98276">
        <ele>1384</ele>
        <time>2022-08-20T14:30:05.000Z</time>
      </trkpt>
      <trkpt lat="44.06622" lon="6.98276">
        <ele>1383</ele>
        <time>2022-08-20T14:30:06.000Z</time>
      </trkpt>
      <trkpt lat="44.0662" lon="6.98274">
        <ele>1381.8000488281</ele>
        <time>2022-08-20T14:30:08.000Z</time>
      </trkpt>
      <trkpt lat="44.0662" lon="6.98273">
        <ele>1380.5999755859</ele>
        <time>2022-08-20T14:30:10.000Z</time>
      </trkpt>
      <trkpt lat="44.06619" lon="6.98273">
        <ele>1380</ele>
        <time>2022-08-20T14:30:11.000Z</time>
      </trkpt>
      <trkpt lat="44.06618" lon="6.98273">
        <ele>1379.5999755859</ele>
        <time>2022-08-20T14:30:12.000Z</time>
      </trkpt>
      <trkpt lat="44.06618" lon="6.98275">
        <ele>1378</ele>
        <time>2022-08-20T14:30:14.000Z</time>
      </trkpt>
      <trkpt lat="44.06619" lon="6.98278">
        <ele>1376.4000244141</ele>
        <time>2022-08-20T14:30:16.000Z</time>
      </trkpt>
      <trkpt lat="44.06618" lon="6.98282">
        <ele>1375</ele>
        <time>2022-08-20T14:30:18.000Z</time>
      </trkpt>
      <trkpt lat="44.06618" lon="6.98289">
        <ele>1373.5999755859</ele>
        <time>2022-08-20T14:30:20.000Z</time>
      </trkpt>
      <trkpt lat="44.06618" lon="6.98292">
        <ele>1371.8000488281</ele>
        <time>2022-08-20T14:30:22.000Z</time>
      </trkpt>
      <trkpt lat="44.06619" lon="6.98295">
        <ele>1370.1999511719</ele>
        <time>2022-08-20T14:30:23.000Z</time>
      </trkpt>
      <trkpt lat="44.06619" lon="6.98297">
        <ele>1369.4000244141</ele>
        <time>2022-08-20T14:30:24.000Z</time>
      </trkpt>
      <trkpt lat="44.06619" lon="6.98299">
        <ele>1368.1999511719</ele>
        <time>2022-08-20T14:30:25.000Z</time>
      </trkpt>
      <trkpt lat="44.0662" lon="6.98306">
        <ele>1367</ele>
        <time>2022-08-20T14:30:27.000Z</time>
      </trkpt>
      <trkpt lat="44.06621" lon="6.98311">
        <ele>1365</ele>
        <time>2022-08-20T14:30:29.000Z</time>
      </trkpt>
      <trkpt lat="44.06621" lon="6.98312">
        <ele>1363.1999511719</ele>
        <time>2022-08-20T14:30:31.000Z</time>
      </trkpt>
      <trkpt lat="44.06621" lon="6.98312">
        <ele>1362</ele>
        <time>2022-08-20T14:30:32.000Z</time>
      </trkpt>
      <trkpt lat="44.06622" lon="6.98312">
        <ele>1361.4000244141</ele>
        <time>2022-08-20T14:30:33.000Z</time>
      </trkpt>
      <trkpt lat="44.06622" lon="6.98313">
        <ele>1361</ele>
        <time>2022-08-20T14:30:34.000Z</time>
      </trkpt>
      <trkpt lat="44.06622" lon="6.98313">
        <ele>1359.8000488281</ele>
        <time>2022-08-20T14:30:38.000Z</time>
      </trkpt>
      <trkpt lat="44.06623" lon="6.98313">
        <ele>1358.5999755859</ele>
        <time>2022-08-20T14:30:42.000Z</time>
      </trkpt>
      <trkpt lat="44.06623" lon="6.98313">
        <ele>1357.5999755859</ele>
        <time>2022-08-20T14:30:46.000Z</time>
      </trkpt>
      <trkpt lat="44.06623" lon="6.98313">
        <ele>1357</ele>
        <time>2022-08-20T14:30:48.000Z</time>
      </trkpt>
      <trkpt lat="44.06623" lon="6.98313">
        <ele>1356.4000244141</ele>
        <time>2022-08-20T14:30:51.000Z</time>
      </trkpt>
      <trkpt lat="44.06623" lon="6.98314">
        <ele>1355.4000244141</ele>
        <time>2022-08-20T14:30:55.000Z</time>
      </trkpt>
      <trkpt lat="44.06622" lon="6.98315">
        <ele>1354.4000244141</ele>
        <time>2022-08-20T14:30:58.000Z</time>
      </trkpt>
      <trkpt lat="44.06622" lon="6.98316">
        <ele>1353.1999511719</ele>
        <time>2022-08-20T14:31:02.000Z</time>
      </trkpt>
      <trkpt lat="44.06623" lon="6.98316">
        <ele>1352.1999511719</ele>
        <time>2022-08-20T14:31:06.000Z</time>
      </trkpt>
      <trkpt lat="44.06624" lon="6.98315">
        <ele>1351</ele>
        <time>2022-08-20T14:31:10.000Z</time>
      </trkpt>
      <trkpt lat="44.06624" lon="6.98316">
        <ele>1350</ele>
        <time>2022-08-20T14:31:14.000Z</time>
      </trkpt>
      <trkpt lat="44.06624" lon="6.98317">
        <ele>1349.8000488281</ele>
        <time>2022-08-20T14:31:15.000Z</time>
      </trkpt>
      <trkpt lat="44.06625" lon="6.98321">
        <ele>1349</ele>
        <time>2022-08-20T14:31:17.000Z</time>
      </trkpt>
      <trkpt lat="44.06626" lon="6.98322">
        <ele>1348.8000488281</ele>
        <time>2022-08-20T14:31:18.000Z</time>
      </trkpt>
      <trkpt lat="44.06625" lon="6.98324">
        <ele>1348.4000244141</ele>
        <time>2022-08-20T14:31:19.000Z</time>
      </trkpt>
      <trkpt lat="44.06622" lon="6.98325">
        <ele>1347.1999511719</ele>
        <time>2022-08-20T14:31:21.000Z</time>
      </trkpt>
      <trkpt lat="44.06618" lon="6.98324">
        <ele>1345.8000488281</ele>
        <time>2022-08-20T14:31:23.000Z</time>
      </trkpt>
      <trkpt lat="44.06616" lon="6.98324">
        <ele>1345.1999511719</ele>
        <time>2022-08-20T14:31:24.000Z</time>
      </trkpt>
      <trkpt lat="44.06616" lon="6.98325">
        <ele>1344.4000244141</ele>
        <time>2022-08-20T14:31:25.000Z</time>
      </trkpt>
      <trkpt lat="44.06618" lon="6.9833">
        <ele>1342.8000488281</ele>
        <time>2022-08-20T14:31:27.000Z</time>
      </trkpt>
      <trkpt lat="44.06619" lon="6.98333">
        <ele>1342</ele>
        <time>2022-08-20T14:31:28.000Z</time>
      </trkpt>
      <trkpt lat="44.0662" lon="6.98335">
        <ele>1341</ele>
        <time>2022-08-20T14:31:29.000Z</time>
      </trkpt>
      <trkpt lat="44.06622" lon="6.98338">
        <ele>1339.4000244141</ele>
        <time>2022-08-20T14:31:31.000Z</time>
      </trkpt>
      <trkpt lat="44.06624" lon="6.9834">
        <ele>1338.5999755859</ele>
        <time>2022-08-20T14:31:32.000Z</time>
      </trkpt>
      <trkpt lat="44.06626" lon="6.98341">
        <ele>1337.8000488281</ele>
        <time>2022-08-20T14:31:33.000Z</time>
      </trkpt>
      <trkpt lat="44.06627" lon="6.98343">
        <ele>1336.8000488281</ele>
        <time>2022-08-20T14:31:34.000Z</time>
      </trkpt>
      <trkpt lat="44.06626" lon="6.98345">
        <ele>1336</ele>
        <time>2022-08-20T14:31:35.000Z</time>
      </trkpt>
      <trkpt lat="44.06625" lon="6.98345">
        <ele>1335.8000488281</ele>
        <time>2022-08-20T14:31:36.000Z</time>
      </trkpt>
      <trkpt lat="44.06622" lon="6.98348">
        <ele>1335</ele>
        <time>2022-08-20T14:31:38.000Z</time>
      </trkpt>
      <trkpt lat="44.06615" lon="6.98353">
        <ele>1334.1999511719</ele>
        <time>2022-08-20T14:31:40.000Z</time>
      </trkpt>
      <trkpt lat="44.06612" lon="6.98353">
        <ele>1333.8000488281</ele>
        <time>2022-08-20T14:31:41.000Z</time>
      </trkpt>
      <trkpt lat="44.06608" lon="6.98348">
        <ele>1332.5999755859</ele>
        <time>2022-08-20T14:31:43.000Z</time>
      </trkpt>
      <trkpt lat="44.06605" lon="6.98343">
        <ele>1331.4000244141</ele>
        <time>2022-08-20T14:31:45.000Z</time>
      </trkpt>
      <trkpt lat="44.06605" lon="6.98344">
        <ele>1330.5999755859</ele>
        <time>2022-08-20T14:31:46.000Z</time>
      </trkpt>
      <trkpt lat="44.06605" lon="6.98345">
        <ele>1330.1999511719</ele>
        <time>2022-08-20T14:31:47.000Z</time>
      </trkpt>
      <trkpt lat="44.06607" lon="6.98352">
        <ele>1329.1999511719</ele>
        <time>2022-08-20T14:31:49.000Z</time>
      </trkpt>
      <trkpt lat="44.06609" lon="6.98356">
        <ele>1328.5999755859</ele>
        <time>2022-08-20T14:31:50.000Z</time>
      </trkpt>
      <trkpt lat="44.06611" lon="6.98364">
        <ele>1327.1999511719</ele>
        <time>2022-08-20T14:31:52.000Z</time>
      </trkpt>
      <trkpt lat="44.06612" lon="6.98366">
        <ele>1326.5999755859</ele>
        <time>2022-08-20T14:31:53.000Z</time>
      </trkpt>
      <trkpt lat="44.06616" lon="6.98367">
        <ele>1325.5999755859</ele>
        <time>2022-08-20T14:31:54.000Z</time>
      </trkpt>
      <trkpt lat="44.06624" lon="6.98366">
        <ele>1323.8000488281</ele>
        <time>2022-08-20T14:31:56.000Z</time>
      </trkpt>
      <trkpt lat="44.06634" lon="6.98364">
        <ele>1322.5999755859</ele>
        <time>2022-08-20T14:31:58.000Z</time>
      </trkpt>
      <trkpt lat="44.06638" lon="6.98367">
        <ele>1322</ele>
        <time>2022-08-20T14:31:59.000Z</time>
      </trkpt>
      <trkpt lat="44.06641" lon="6.98369">
        <ele>1321.4000244141</ele>
        <time>2022-08-20T14:32:00.000Z</time>
      </trkpt>
      <trkpt lat="44.06644" lon="6.9837">
        <ele>1321.1999511719</ele>
        <time>2022-08-20T14:32:01.000Z</time>
      </trkpt>
      <trkpt lat="44.06643" lon="6.9837">
        <ele>1320.4000244141</ele>
        <time>2022-08-20T14:32:02.000Z</time>
      </trkpt>
      <trkpt lat="44.06647" lon="6.98371">
        <ele>1319.8000488281</ele>
        <time>2022-08-20T14:32:03.000Z</time>
      </trkpt>
      <trkpt lat="44.06654" lon="6.98368">
        <ele>1318.1999511719</ele>
        <time>2022-08-20T14:32:05.000Z</time>
      </trkpt>
      <trkpt lat="44.06662" lon="6.98369">
        <ele>1316.8000488281</ele>
        <time>2022-08-20T14:32:07.000Z</time>
      </trkpt>
      <trkpt lat="44.06665" lon="6.98372">
        <ele>1316</ele>
        <time>2022-08-20T14:32:08.000Z</time>
      </trkpt>
      <trkpt lat="44.06666" lon="6.98376">
        <ele>1315.1999511719</ele>
        <time>2022-08-20T14:32:09.000Z</time>
      </trkpt>
      <trkpt lat="44.06668" lon="6.98382">
        <ele>1314.4000244141</ele>
        <time>2022-08-20T14:32:11.000Z</time>
      </trkpt>
      <trkpt lat="44.06669" lon="6.98388">
        <ele>1314.1999511719</ele>
        <time>2022-08-20T14:32:12.000Z</time>
      </trkpt>
      <trkpt lat="44.06668" lon="6.98395">
        <ele>1314.1999511719</ele>
        <time>2022-08-20T14:32:13.000Z</time>
      </trkpt>
      <trkpt lat="44.06666" lon="6.98402">
        <ele>1314</ele>
        <time>2022-08-20T14:32:14.000Z</time>
      </trkpt>
      <trkpt lat="44.06665" lon="6.98418">
        <ele>1312.4000244141</ele>
        <time>2022-08-20T14:32:16.000Z</time>
      </trkpt>
      <trkpt lat="44.06665" lon="6.98424">
        <ele>1311.1999511719</ele>
        <time>2022-08-20T14:32:17.000Z</time>
      </trkpt>
      <trkpt lat="44.06665" lon="6.9843">
        <ele>1310</ele>
        <time>2022-08-20T14:32:18.000Z</time>
      </trkpt>
      <trkpt lat="44.06666" lon="6.98444">
        <ele>1308.5999755859</ele>
        <time>2022-08-20T14:32:20.000Z</time>
      </trkpt>
      <trkpt lat="44.06667" lon="6.9845">
        <ele>1308.1999511719</ele>
        <time>2022-08-20T14:32:21.000Z</time>
      </trkpt>
      <trkpt lat="44.06672" lon="6.9846">
        <ele>1306.8000488281</ele>
        <time>2022-08-20T14:32:23.000Z</time>
      </trkpt>
      <trkpt lat="44.06676" lon="6.98469">
        <ele>1305.4000244141</ele>
        <time>2022-08-20T14:32:25.000Z</time>
      </trkpt>
      <trkpt lat="44.06686" lon="6.98478">
        <ele>1304.1999511719</ele>
        <time>2022-08-20T14:32:27.000Z</time>
      </trkpt>
      <trkpt lat="44.06701" lon="6.98484">
        <ele>1302.8000488281</ele>
        <time>2022-08-20T14:32:30.000Z</time>
      </trkpt>
      <trkpt lat="44.06706" lon="6.98487">
        <ele>1302</ele>
        <time>2022-08-20T14:32:31.000Z</time>
      </trkpt>
      <trkpt lat="44.06711" lon="6.9849">
        <ele>1300.8000488281</ele>
        <time>2022-08-20T14:32:32.000Z</time>
      </trkpt>
      <trkpt lat="44.06719" lon="6.98492">
        <ele>1299.1999511719</ele>
        <time>2022-08-20T14:32:34.000Z</time>
      </trkpt>
      <trkpt lat="44.06729" lon="6.9849">
        <ele>1297.4000244141</ele>
        <time>2022-08-20T14:32:36.000Z</time>
      </trkpt>
      <trkpt lat="44.06737" lon="6.98495">
        <ele>1296.4000244141</ele>
        <time>2022-08-20T14:32:38.000Z</time>
      </trkpt>
      <trkpt lat="44.06741" lon="6.98499">
        <ele>1295.8000488281</ele>
        <time>2022-08-20T14:32:39.000Z</time>
      </trkpt>
      <trkpt lat="44.06746" lon="6.98507">
        <ele>1295</ele>
        <time>2022-08-20T14:32:41.000Z</time>
      </trkpt>
      <trkpt lat="44.06751" lon="6.98511">
        <ele>1294.5999755859</ele>
        <time>2022-08-20T14:32:42.000Z</time>
      </trkpt>
      <trkpt lat="44.06755" lon="6.98515">
        <ele>1294.1999511719</ele>
        <time>2022-08-20T14:32:43.000Z</time>
      </trkpt>
      <trkpt lat="44.06764" lon="6.98522">
        <ele>1292.8000488281</ele>
        <time>2022-08-20T14:32:45.000Z</time>
      </trkpt>
      <trkpt lat="44.06774" lon="6.98528">
        <ele>1291</ele>
        <time>2022-08-20T14:32:47.000Z</time>
      </trkpt>
      <trkpt lat="44.0678" lon="6.98536">
        <ele>1289</ele>
        <time>2022-08-20T14:32:49.000Z</time>
      </trkpt>
      <trkpt lat="44.06788" lon="6.98548">
        <ele>1287.4000244141</ele>
        <time>2022-08-20T14:32:51.000Z</time>
      </trkpt>
      <trkpt lat="44.06791" lon="6.98554">
        <ele>1286.4000244141</ele>
        <time>2022-08-20T14:32:52.000Z</time>
      </trkpt>
      <trkpt lat="44.06794" lon="6.98561">
        <ele>1285.5999755859</ele>
        <time>2022-08-20T14:32:53.000Z</time>
      </trkpt>
      <trkpt lat="44.06799" lon="6.98574">
        <ele>1283.5999755859</ele>
        <time>2022-08-20T14:32:55.000Z</time>
      </trkpt>
      <trkpt lat="44.06803" lon="6.98578">
        <ele>1282.4000244141</ele>
        <time>2022-08-20T14:32:56.000Z</time>
      </trkpt>
      <trkpt lat="44.06809" lon="6.98586">
        <ele>1280.8000488281</ele>
        <time>2022-08-20T14:32:58.000Z</time>
      </trkpt>
      <trkpt lat="44.06817" lon="6.98587">
        <ele>1279.1999511719</ele>
        <time>2022-08-20T14:33:00.000Z</time>
      </trkpt>
      <trkpt lat="44.06828" lon="6.98589">
        <ele>1277.8000488281</ele>
        <time>2022-08-20T14:33:03.000Z</time>
      </trkpt>
      <trkpt lat="44.06833" lon="6.9859">
        <ele>1278</ele>
        <time>2022-08-20T14:33:04.000Z</time>
      </trkpt>
      <trkpt lat="44.06851" lon="6.98596">
        <ele>1276.5999755859</ele>
        <time>2022-08-20T14:33:09.000Z</time>
      </trkpt>
      <trkpt lat="44.06858" lon="6.98603">
        <ele>1275.4000244141</ele>
        <time>2022-08-20T14:33:11.000Z</time>
      </trkpt>
      <trkpt lat="44.06864" lon="6.98608">
        <ele>1274</ele>
        <time>2022-08-20T14:33:13.000Z</time>
      </trkpt>
      <trkpt lat="44.06874" lon="6.98614">
        <ele>1274</ele>
        <time>2022-08-20T14:33:18.000Z</time>
      </trkpt>
      <trkpt lat="44.06875" lon="6.98614">
        <ele>1274.4000244141</ele>
        <time>2022-08-20T14:33:22.000Z</time>
      </trkpt>
      <trkpt lat="44.06876" lon="6.98613">
        <ele>1273.8000488281</ele>
        <time>2022-08-20T14:33:27.000Z</time>
      </trkpt>
      <trkpt lat="44.06878" lon="6.98611">
        <ele>1274</ele>
        <time>2022-08-20T14:33:32.000Z</time>
      </trkpt>
      <trkpt lat="44.06879" lon="6.98609">
        <ele>1274.5999755859</ele>
        <time>2022-08-20T14:33:39.000Z</time>
      </trkpt>
      <trkpt lat="44.06878" lon="6.98607">
        <ele>1274.8000488281</ele>
        <time>2022-08-20T14:33:46.000Z</time>
      </trkpt>
      <trkpt lat="44.06879" lon="6.98606">
        <ele>1275</ele>
        <time>2022-08-20T14:33:54.000Z</time>
      </trkpt>
      <trkpt lat="44.06881" lon="6.98604">
        <ele>1275.1999511719</ele>
        <time>2022-08-20T14:34:06.000Z</time>
      </trkpt>
      <trkpt lat="44.06883" lon="6.98604">
        <ele>1275.1999511719</ele>
        <time>2022-08-20T14:34:10.000Z</time>
      </trkpt>
      <trkpt lat="44.06886" lon="6.98604">
        <ele>1275</ele>
        <time>2022-08-20T14:34:12.000Z</time>
      </trkpt>
      <trkpt lat="44.06888" lon="6.98605">
        <ele>1275</ele>
        <time>2022-08-20T14:34:13.000Z</time>
      </trkpt>
      <trkpt lat="44.06894" lon="6.98607">
        <ele>1275.1999511719</ele>
        <time>2022-08-20T14:34:16.000Z</time>
      </trkpt>
      <trkpt lat="44.06898" lon="6.98608">
        <ele>1275.1999511719</ele>
        <time>2022-08-20T14:34:18.000Z</time>
      </trkpt>
      <trkpt lat="44.06909" lon="6.9861">
        <ele>1275.5999755859</ele>
        <time>2022-08-20T14:34:22.000Z</time>
      </trkpt>
      <trkpt lat="44.06924" lon="6.9861">
        <ele>1276</ele>
        <time>2022-08-20T14:34:27.000Z</time>
      </trkpt>
      <trkpt lat="44.06933" lon="6.9861">
        <ele>1276.1999511719</ele>
        <time>2022-08-20T14:34:30.000Z</time>
      </trkpt>
      <trkpt lat="44.06952" lon="6.98609">
        <ele>1277.1999511719</ele>
        <time>2022-08-20T14:34:36.000Z</time>
      </trkpt>
      <trkpt lat="44.06961" lon="6.98609">
        <ele>1277.4000244141</ele>
        <time>2022-08-20T14:34:39.000Z</time>
      </trkpt>
      <trkpt lat="44.06979" lon="6.98608">
        <ele>1278.1999511719</ele>
        <time>2022-08-20T14:34:45.000Z</time>
      </trkpt>
      <trkpt lat="44.06982" lon="6.98609">
        <ele>1278.4000244141</ele>
        <time>2022-08-20T14:34:46.000Z</time>
      </trkpt>
      <trkpt lat="44.07001" lon="6.9861">
        <ele>1278.8000488281</ele>
        <time>2022-08-20T14:34:52.000Z</time>
      </trkpt>
      <trkpt lat="44.07016" lon="6.98614">
        <ele>1279.1999511719</ele>
        <time>2022-08-20T14:34:57.000Z</time>
      </trkpt>
      <trkpt lat="44.07022" lon="6.98616">
        <ele>1279.5999755859</ele>
        <time>2022-08-20T14:34:59.000Z</time>
      </trkpt>
      <trkpt lat="44.07047" lon="6.98632">
        <ele>1280.4000244141</ele>
        <time>2022-08-20T14:35:08.000Z</time>
      </trkpt>
      <trkpt lat="44.0705" lon="6.98634">
        <ele>1280.5999755859</ele>
        <time>2022-08-20T14:35:09.000Z</time>
      </trkpt>
      <trkpt lat="44.07069" lon="6.98649">
        <ele>1281.1999511719</ele>
        <time>2022-08-20T14:35:16.000Z</time>
      </trkpt>
      <trkpt lat="44.0708" lon="6.98657">
        <ele>1281.5999755859</ele>
        <time>2022-08-20T14:35:20.000Z</time>
      </trkpt>
      <trkpt lat="44.07091" lon="6.98664">
        <ele>1282</ele>
        <time>2022-08-20T14:35:24.000Z</time>
      </trkpt>
      <trkpt lat="44.07109" lon="6.98673">
        <ele>1282.5999755859</ele>
        <time>2022-08-20T14:35:30.000Z</time>
      </trkpt>
      <trkpt lat="44.07112" lon="6.98674">
        <ele>1282.5999755859</ele>
        <time>2022-08-20T14:35:31.000Z</time>
      </trkpt>
      <trkpt lat="44.07135" lon="6.98684">
        <ele>1283.5999755859</ele>
        <time>2022-08-20T14:35:39.000Z</time>
      </trkpt>
      <trkpt lat="44.07138" lon="6.98686">
        <ele>1283.5999755859</ele>
        <time>2022-08-20T14:35:40.000Z</time>
      </trkpt>
      <trkpt lat="44.07159" lon="6.98694">
        <ele>1284.4000244141</ele>
        <time>2022-08-20T14:35:47.000Z</time>
      </trkpt>
      <trkpt lat="44.07162" lon="6.98695">
        <ele>1284.5999755859</ele>
        <time>2022-08-20T14:35:48.000Z</time>
      </trkpt>
      <trkpt lat="44.07181" lon="6.98704">
        <ele>1285.5999755859</ele>
        <time>2022-08-20T14:35:55.000Z</time>
      </trkpt>
      <trkpt lat="44.07199" lon="6.98711">
        <ele>1286.5999755859</ele>
        <time>2022-08-20T14:36:01.000Z</time>
      </trkpt>
      <trkpt lat="44.07202" lon="6.98712">
        <ele>1286.8000488281</ele>
        <time>2022-08-20T14:36:02.000Z</time>
      </trkpt>
      <trkpt lat="44.07216" lon="6.98718">
        <ele>1287.4000244141</ele>
        <time>2022-08-20T14:36:07.000Z</time>
      </trkpt>
      <trkpt lat="44.07222" lon="6.9872">
        <ele>1287.8000488281</ele>
        <time>2022-08-20T14:36:09.000Z</time>
      </trkpt>
      <trkpt lat="44.0724" lon="6.98725">
        <ele>1288.4000244141</ele>
        <time>2022-08-20T14:36:15.000Z</time>
      </trkpt>
      <trkpt lat="44.07252" lon="6.98729">
        <ele>1288.8000488281</ele>
        <time>2022-08-20T14:36:19.000Z</time>
      </trkpt>
      <trkpt lat="44.07263" lon="6.98732">
        <ele>1289.1999511719</ele>
        <time>2022-08-20T14:36:23.000Z</time>
      </trkpt>
      <trkpt lat="44.07276" lon="6.98738">
        <ele>1289.8000488281</ele>
        <time>2022-08-20T14:36:28.000Z</time>
      </trkpt>
      <trkpt lat="44.07284" lon="6.98742">
        <ele>1290.1999511719</ele>
        <time>2022-08-20T14:36:31.000Z</time>
      </trkpt>
      <trkpt lat="44.07297" lon="6.9875">
        <ele>1291</ele>
        <time>2022-08-20T14:36:36.000Z</time>
      </trkpt>
      <trkpt lat="44.07302" lon="6.98754">
        <ele>1291.4000244141</ele>
        <time>2022-08-20T14:36:38.000Z</time>
      </trkpt>
      <trkpt lat="44.07315" lon="6.98763">
        <ele>1292</ele>
        <time>2022-08-20T14:36:43.000Z</time>
      </trkpt>
      <trkpt lat="44.0732" lon="6.98767">
        <ele>1292.1999511719</ele>
        <time>2022-08-20T14:36:45.000Z</time>
      </trkpt>
      <trkpt lat="44.07339" lon="6.98782">
        <ele>1293</ele>
        <time>2022-08-20T14:36:52.000Z</time>
      </trkpt>
      <trkpt lat="44.07346" lon="6.98789">
        <ele>1293.5999755859</ele>
        <time>2022-08-20T14:36:55.000Z</time>
      </trkpt>
      <trkpt lat="44.07355" lon="6.98797">
        <ele>1294.1999511719</ele>
        <time>2022-08-20T14:36:59.000Z</time>
      </trkpt>
      <trkpt lat="44.07365" lon="6.98807">
        <ele>1294.8000488281</ele>
        <time>2022-08-20T14:37:03.000Z</time>
      </trkpt>
      <trkpt lat="44.07369" lon="6.98812">
        <ele>1295.1999511719</ele>
        <time>2022-08-20T14:37:05.000Z</time>
      </trkpt>
      <trkpt lat="44.07381" lon="6.98825">
        <ele>1296.1999511719</ele>
        <time>2022-08-20T14:37:10.000Z</time>
      </trkpt>
      <trkpt lat="44.07383" lon="6.98827">
        <ele>1296.1999511719</ele>
        <time>2022-08-20T14:37:11.000Z</time>
      </trkpt>
      <trkpt lat="44.07394" lon="6.98841">
        <ele>1297</ele>
        <time>2022-08-20T14:37:16.000Z</time>
      </trkpt>
      <trkpt lat="44.07399" lon="6.98847">
        <ele>1297.4000244141</ele>
        <time>2022-08-20T14:37:18.000Z</time>
      </trkpt>
      <trkpt lat="44.07408" lon="6.98857">
        <ele>1297.8000488281</ele>
        <time>2022-08-20T14:37:22.000Z</time>
      </trkpt>
      <trkpt lat="44.07416" lon="6.98868">
        <ele>1298.5999755859</ele>
        <time>2022-08-20T14:37:26.000Z</time>
      </trkpt>
      <trkpt lat="44.07429" lon="6.98884">
        <ele>1299.4000244141</ele>
        <time>2022-08-20T14:37:32.000Z</time>
      </trkpt>
      <trkpt lat="44.07431" lon="6.98886">
        <ele>1299.5999755859</ele>
        <time>2022-08-20T14:37:33.000Z</time>
      </trkpt>
      <trkpt lat="44.07444" lon="6.98901">
        <ele>1300.5999755859</ele>
        <time>2022-08-20T14:37:39.000Z</time>
      </trkpt>
      <trkpt lat="44.07452" lon="6.9891">
        <ele>1301.1999511719</ele>
        <time>2022-08-20T14:37:43.000Z</time>
      </trkpt>
      <trkpt lat="44.07463" lon="6.98922">
        <ele>1301.8000488281</ele>
        <time>2022-08-20T14:37:48.000Z</time>
      </trkpt>
      <trkpt lat="44.07472" lon="6.98935">
        <ele>1302.5999755859</ele>
        <time>2022-08-20T14:37:53.000Z</time>
      </trkpt>
      <trkpt lat="44.07474" lon="6.98938">
        <ele>1302.8000488281</ele>
        <time>2022-08-20T14:37:54.000Z</time>
      </trkpt>
      <trkpt lat="44.07488" lon="6.98962">
        <ele>1303.8000488281</ele>
        <time>2022-08-20T14:38:02.000Z</time>
      </trkpt>
      <trkpt lat="44.0749" lon="6.98964">
        <ele>1304</ele>
        <time>2022-08-20T14:38:03.000Z</time>
      </trkpt>
      <trkpt lat="44.07504" lon="6.98982">
        <ele>1305</ele>
        <time>2022-08-20T14:38:10.000Z</time>
      </trkpt>
      <trkpt lat="44.07507" lon="6.98984">
        <ele>1305.1999511719</ele>
        <time>2022-08-20T14:38:11.000Z</time>
      </trkpt>
      <trkpt lat="44.07528" lon="6.98996">
        <ele>1305.8000488281</ele>
        <time>2022-08-20T14:38:19.000Z</time>
      </trkpt>
      <trkpt lat="44.07535" lon="6.99">
        <ele>1306.1999511719</ele>
        <time>2022-08-20T14:38:22.000Z</time>
      </trkpt>
      <trkpt lat="44.07549" lon="6.99008">
        <ele>1307</ele>
        <time>2022-08-20T14:38:28.000Z</time>
      </trkpt>
      <trkpt lat="44.07553" lon="6.99011">
        <ele>1307.1999511719</ele>
        <time>2022-08-20T14:38:30.000Z</time>
      </trkpt>
      <trkpt lat="44.07568" lon="6.9902">
        <ele>1308.1999511719</ele>
        <time>2022-08-20T14:38:37.000Z</time>
      </trkpt>
      <trkpt lat="44.0757" lon="6.99022">
        <ele>1308.4000244141</ele>
        <time>2022-08-20T14:38:38.000Z</time>
      </trkpt>
      <trkpt lat="44.07585" lon="6.99035">
        <ele>1309.4000244141</ele>
        <time>2022-08-20T14:38:45.000Z</time>
      </trkpt>
      <trkpt lat="44.07603" lon="6.99055">
        <ele>1310.5999755859</ele>
        <time>2022-08-20T14:38:54.000Z</time>
      </trkpt>
      <trkpt lat="44.07609" lon="6.99062">
        <ele>1311</ele>
        <time>2022-08-20T14:38:57.000Z</time>
      </trkpt>
      <trkpt lat="44.07621" lon="6.99072">
        <ele>1311.5999755859</ele>
        <time>2022-08-20T14:39:02.000Z</time>
      </trkpt>
      <trkpt lat="44.07631" lon="6.99079">
        <ele>1312.1999511719</ele>
        <time>2022-08-20T14:39:06.000Z</time>
      </trkpt>
      <trkpt lat="44.07643" lon="6.99088">
        <ele>1312.8000488281</ele>
        <time>2022-08-20T14:39:11.000Z</time>
      </trkpt>
      <trkpt lat="44.07653" lon="6.99095">
        <ele>1313</ele>
        <time>2022-08-20T14:39:15.000Z</time>
      </trkpt>
      <trkpt lat="44.07671" lon="6.9911">
        <ele>1313.8000488281</ele>
        <time>2022-08-20T14:39:22.000Z</time>
      </trkpt>
      <trkpt lat="44.07675" lon="6.99115">
        <ele>1314</ele>
        <time>2022-08-20T14:39:24.000Z</time>
      </trkpt>
      <trkpt lat="44.07687" lon="6.99134">
        <ele>1314.4000244141</ele>
        <time>2022-08-20T14:39:30.000Z</time>
      </trkpt>
      <trkpt lat="44.07697" lon="6.9915">
        <ele>1314.8000488281</ele>
        <time>2022-08-20T14:39:35.000Z</time>
      </trkpt>
      <trkpt lat="44.07707" lon="6.99167">
        <ele>1315.4000244141</ele>
        <time>2022-08-20T14:39:40.000Z</time>
      </trkpt>
      <trkpt lat="44.07716" lon="6.99182">
        <ele>1316</ele>
        <time>2022-08-20T14:39:45.000Z</time>
      </trkpt>
      <trkpt lat="44.07722" lon="6.99192">
        <ele>1316.4000244141</ele>
        <time>2022-08-20T14:39:48.000Z</time>
      </trkpt>
      <trkpt lat="44.07734" lon="6.99209">
        <ele>1317</ele>
        <time>2022-08-20T14:39:54.000Z</time>
      </trkpt>
      <trkpt lat="44.07745" lon="6.99223">
        <ele>1317.5999755859</ele>
        <time>2022-08-20T14:39:59.000Z</time>
      </trkpt>
      <trkpt lat="44.07756" lon="6.99239">
        <ele>1318</ele>
        <time>2022-08-20T14:40:04.000Z</time>
      </trkpt>
      <trkpt lat="44.07762" lon="6.99249">
        <ele>1318.1999511719</ele>
        <time>2022-08-20T14:40:07.000Z</time>
      </trkpt>
      <trkpt lat="44.07781" lon="6.99276">
        <ele>1319</ele>
        <time>2022-08-20T14:40:16.000Z</time>
      </trkpt>
      <trkpt lat="44.07805" lon="6.99302">
        <ele>1320</ele>
        <time>2022-08-20T14:40:26.000Z</time>
      </trkpt>
      <trkpt lat="44.07808" lon="6.99304">
        <ele>1320.1999511719</ele>
        <time>2022-08-20T14:40:27.000Z</time>
      </trkpt>
      <trkpt lat="44.07824" lon="6.99319">
        <ele>1321.4000244141</ele>
        <time>2022-08-20T14:40:34.000Z</time>
      </trkpt>
      <trkpt lat="44.07841" lon="6.99335">
        <ele>1322.5999755859</ele>
        <time>2022-08-20T14:40:41.000Z</time>
      </trkpt>
      <trkpt lat="44.07854" lon="6.99346">
        <ele>1323.5999755859</ele>
        <time>2022-08-20T14:40:46.000Z</time>
      </trkpt>
      <trkpt lat="44.07856" lon="6.99348">
        <ele>1323.8000488281</ele>
        <time>2022-08-20T14:40:47.000Z</time>
      </trkpt>
      <trkpt lat="44.07867" lon="6.99358">
        <ele>1324.5999755859</ele>
        <time>2022-08-20T14:40:51.000Z</time>
      </trkpt>
      <trkpt lat="44.07874" lon="6.99363">
        <ele>1325.1999511719</ele>
        <time>2022-08-20T14:40:54.000Z</time>
      </trkpt>
      <trkpt lat="44.07879" lon="6.99368">
        <ele>1325.5999755859</ele>
        <time>2022-08-20T14:40:56.000Z</time>
      </trkpt>
      <trkpt lat="44.07892" lon="6.99377">
        <ele>1326.4000244141</ele>
        <time>2022-08-20T14:41:01.000Z</time>
      </trkpt>
      <trkpt lat="44.07898" lon="6.99378">
        <ele>1326.8000488281</ele>
        <time>2022-08-20T14:41:03.000Z</time>
      </trkpt>
      <trkpt lat="44.07907" lon="6.99379">
        <ele>1327.4000244141</ele>
        <time>2022-08-20T14:41:06.000Z</time>
      </trkpt>
      <trkpt lat="44.07917" lon="6.99379">
        <ele>1327.8000488281</ele>
        <time>2022-08-20T14:41:09.000Z</time>
      </trkpt>
      <trkpt lat="44.07932" lon="6.9938">
        <ele>1329</ele>
        <time>2022-08-20T14:41:14.000Z</time>
      </trkpt>
      <trkpt lat="44.07947" lon="6.99381">
        <ele>1330</ele>
        <time>2022-08-20T14:41:19.000Z</time>
      </trkpt>
      <trkpt lat="44.07954" lon="6.99382">
        <ele>1330.4000244141</ele>
        <time>2022-08-20T14:41:21.000Z</time>
      </trkpt>
      <trkpt lat="44.0797" lon="6.99385">
        <ele>1331.1999511719</ele>
        <time>2022-08-20T14:41:26.000Z</time>
      </trkpt>
      <trkpt lat="44.07988" lon="6.9939">
        <ele>1332.1999511719</ele>
        <time>2022-08-20T14:41:32.000Z</time>
      </trkpt>
      <trkpt lat="44.08008" lon="6.99395">
        <ele>1333.1999511719</ele>
        <time>2022-08-20T14:41:39.000Z</time>
      </trkpt>
      <trkpt lat="44.08011" lon="6.99396">
        <ele>1333.4000244141</ele>
        <time>2022-08-20T14:41:40.000Z</time>
      </trkpt>
      <trkpt lat="44.08029" lon="6.99399">
        <ele>1334.4000244141</ele>
        <time>2022-08-20T14:41:46.000Z</time>
      </trkpt>
      <trkpt lat="44.0804" lon="6.99402">
        <ele>1334.8000488281</ele>
        <time>2022-08-20T14:41:50.000Z</time>
      </trkpt>
      <trkpt lat="44.08056" lon="6.99405">
        <ele>1335.4000244141</ele>
        <time>2022-08-20T14:41:55.000Z</time>
      </trkpt>
      <trkpt lat="44.08071" lon="6.99406">
        <ele>1335.8000488281</ele>
        <time>2022-08-20T14:42:00.000Z</time>
      </trkpt>
      <trkpt lat="44.0809" lon="6.99408">
        <ele>1336.4000244141</ele>
        <time>2022-08-20T14:42:06.000Z</time>
      </trkpt>
      <trkpt lat="44.08102" lon="6.99409">
        <ele>1336.5999755859</ele>
        <time>2022-08-20T14:42:10.000Z</time>
      </trkpt>
      <trkpt lat="44.08128" lon="6.99414">
        <ele>1337.4000244141</ele>
        <time>2022-08-20T14:42:19.000Z</time>
      </trkpt>
      <trkpt lat="44.08131" lon="6.99415">
        <ele>1337.4000244141</ele>
        <time>2022-08-20T14:42:20.000Z</time>
      </trkpt>
      <trkpt lat="44.08156" lon="6.99423">
        <ele>1338.1999511719</ele>
        <time>2022-08-20T14:42:29.000Z</time>
      </trkpt>
      <trkpt lat="44.08162" lon="6.99425">
        <ele>1338.4000244141</ele>
        <time>2022-08-20T14:42:31.000Z</time>
      </trkpt>
      <trkpt lat="44.08187" lon="6.99432">
        <ele>1339.4000244141</ele>
        <time>2022-08-20T14:42:40.000Z</time>
      </trkpt>
      <trkpt lat="44.08214" lon="6.9944">
        <ele>1340.5999755859</ele>
        <time>2022-08-20T14:42:50.000Z</time>
      </trkpt>
      <trkpt lat="44.08232" lon="6.99444">
        <ele>1341.4000244141</ele>
        <time>2022-08-20T14:42:57.000Z</time>
      </trkpt>
      <trkpt lat="44.08235" lon="6.99445">
        <ele>1341.5999755859</ele>
        <time>2022-08-20T14:42:58.000Z</time>
      </trkpt>
      <trkpt lat="44.08262" lon="6.99451">
        <ele>1342.5999755859</ele>
        <time>2022-08-20T14:43:08.000Z</time>
      </trkpt>
      <trkpt lat="44.08289" lon="6.99458">
        <ele>1343.5999755859</ele>
        <time>2022-08-20T14:43:18.000Z</time>
      </trkpt>
      <trkpt lat="44.08292" lon="6.99459">
        <ele>1343.8000488281</ele>
        <time>2022-08-20T14:43:19.000Z</time>
      </trkpt>
      <trkpt lat="44.0831" lon="6.99464">
        <ele>1344.5999755859</ele>
        <time>2022-08-20T14:43:26.000Z</time>
      </trkpt>
      <trkpt lat="44.08315" lon="6.99466">
        <ele>1344.8000488281</ele>
        <time>2022-08-20T14:43:28.000Z</time>
      </trkpt>
      <trkpt lat="44.08326" lon="6.99469">
        <ele>1345.1999511719</ele>
        <time>2022-08-20T14:43:32.000Z</time>
      </trkpt>
      <trkpt lat="44.08353" lon="6.99472">
        <ele>1345.8000488281</ele>
        <time>2022-08-20T14:43:41.000Z</time>
      </trkpt>
      <trkpt lat="44.08357" lon="6.99473">
        <ele>1346</ele>
        <time>2022-08-20T14:43:42.000Z</time>
      </trkpt>
      <trkpt lat="44.08378" lon="6.99472">
        <ele>1346.8000488281</ele>
        <time>2022-08-20T14:43:49.000Z</time>
      </trkpt>
      <trkpt lat="44.08381" lon="6.99472">
        <ele>1347</ele>
        <time>2022-08-20T14:43:50.000Z</time>
      </trkpt>
      <trkpt lat="44.08405" lon="6.99466">
        <ele>1347.8000488281</ele>
        <time>2022-08-20T14:43:58.000Z</time>
      </trkpt>
      <trkpt lat="44.08411" lon="6.99464">
        <ele>1348</ele>
        <time>2022-08-20T14:44:00.000Z</time>
      </trkpt>
      <trkpt lat="44.08438" lon="6.99456">
        <ele>1348.8000488281</ele>
        <time>2022-08-20T14:44:09.000Z</time>
      </trkpt>
      <trkpt lat="44.08448" lon="6.99453">
        <ele>1349</ele>
        <time>2022-08-20T14:44:12.000Z</time>
      </trkpt>
      <trkpt lat="44.08463" lon="6.9945">
        <ele>1349.4000244141</ele>
        <time>2022-08-20T14:44:17.000Z</time>
      </trkpt>
      <trkpt lat="44.08483" lon="6.99448">
        <ele>1350.1999511719</ele>
        <time>2022-08-20T14:44:24.000Z</time>
      </trkpt>
      <trkpt lat="44.08489" lon="6.99448">
        <ele>1350.4000244141</ele>
        <time>2022-08-20T14:44:26.000Z</time>
      </trkpt>
      <trkpt lat="44.0851" lon="6.99447">
        <ele>1351.1999511719</ele>
        <time>2022-08-20T14:44:33.000Z</time>
      </trkpt>
      <trkpt lat="44.08516" lon="6.99447">
        <ele>1351.4000244141</ele>
        <time>2022-08-20T14:44:35.000Z</time>
      </trkpt>
      <trkpt lat="44.0854" lon="6.99446">
        <ele>1352.1999511719</ele>
        <time>2022-08-20T14:44:43.000Z</time>
      </trkpt>
      <trkpt lat="44.08546" lon="6.99446">
        <ele>1352.4000244141</ele>
        <time>2022-08-20T14:44:45.000Z</time>
      </trkpt>
      <trkpt lat="44.08577" lon="6.99438">
        <ele>1352.8000488281</ele>
        <time>2022-08-20T14:44:55.000Z</time>
      </trkpt>
      <trkpt lat="44.08607" lon="6.99433">
        <ele>1353.1999511719</ele>
        <time>2022-08-20T14:45:05.000Z</time>
      </trkpt>
      <trkpt lat="44.08613" lon="6.99431">
        <ele>1353.5999755859</ele>
        <time>2022-08-20T14:45:07.000Z</time>
      </trkpt>
      <trkpt lat="44.08639" lon="6.99426">
        <ele>1354.4000244141</ele>
        <time>2022-08-20T14:45:16.000Z</time>
      </trkpt>
      <trkpt lat="44.08671" lon="6.99419">
        <ele>1355.4000244141</ele>
        <time>2022-08-20T14:45:27.000Z</time>
      </trkpt>
      <trkpt lat="44.08674" lon="6.99419">
        <ele>1355.4000244141</ele>
        <time>2022-08-20T14:45:28.000Z</time>
      </trkpt>
      <trkpt lat="44.08696" lon="6.99418">
        <ele>1356.1999511719</ele>
        <time>2022-08-20T14:45:36.000Z</time>
      </trkpt>
      <trkpt lat="44.08702" lon="6.99419">
        <ele>1356.4000244141</ele>
        <time>2022-08-20T14:45:38.000Z</time>
      </trkpt>
      <trkpt lat="44.08732" lon="6.99423">
        <ele>1357.4000244141</ele>
        <time>2022-08-20T14:45:48.000Z</time>
      </trkpt>
      <trkpt lat="44.08735" lon="6.99423">
        <ele>1357.5999755859</ele>
        <time>2022-08-20T14:45:49.000Z</time>
      </trkpt>
      <trkpt lat="44.08765" lon="6.99422">
        <ele>1358.4000244141</ele>
        <time>2022-08-20T14:45:59.000Z</time>
      </trkpt>
      <trkpt lat="44.08775" lon="6.9942">
        <ele>1358.5999755859</ele>
        <time>2022-08-20T14:46:02.000Z</time>
      </trkpt>
      <trkpt lat="44.0879" lon="6.99415">
        <ele>1359.1999511719</ele>
        <time>2022-08-20T14:46:07.000Z</time>
      </trkpt>
      <trkpt lat="44.08807" lon="6.99408">
        <ele>1359.5999755859</ele>
        <time>2022-08-20T14:46:13.000Z</time>
      </trkpt>
      <trkpt lat="44.08821" lon="6.994">
        <ele>1360.1999511719</ele>
        <time>2022-08-20T14:46:18.000Z</time>
      </trkpt>
      <trkpt lat="44.08831" lon="6.99392">
        <ele>1360.5999755859</ele>
        <time>2022-08-20T14:46:22.000Z</time>
      </trkpt>
      <trkpt lat="44.08846" lon="6.99379">
        <ele>1361.4000244141</ele>
        <time>2022-08-20T14:46:28.000Z</time>
      </trkpt>
      <trkpt lat="44.0885" lon="6.99374">
        <ele>1361.8000488281</ele>
        <time>2022-08-20T14:46:30.000Z</time>
      </trkpt>
      <trkpt lat="44.08869" lon="6.99354">
        <ele>1362.8000488281</ele>
        <time>2022-08-20T14:46:38.000Z</time>
      </trkpt>
      <trkpt lat="44.0889" lon="6.99332">
        <ele>1363.8000488281</ele>
        <time>2022-08-20T14:46:47.000Z</time>
      </trkpt>
      <trkpt lat="44.08897" lon="6.99325">
        <ele>1364.1999511719</ele>
        <time>2022-08-20T14:46:50.000Z</time>
      </trkpt>
      <trkpt lat="44.08913" lon="6.99312">
        <ele>1364.8000488281</ele>
        <time>2022-08-20T14:46:56.000Z</time>
      </trkpt>
      <trkpt lat="44.08921" lon="6.99308">
        <ele>1365.1999511719</ele>
        <time>2022-08-20T14:46:59.000Z</time>
      </trkpt>
      <trkpt lat="44.08948" lon="6.99297">
        <ele>1365.5999755859</ele>
        <time>2022-08-20T14:47:08.000Z</time>
      </trkpt>
      <trkpt lat="44.08957" lon="6.99294">
        <ele>1365.8000488281</ele>
        <time>2022-08-20T14:47:11.000Z</time>
      </trkpt>
      <trkpt lat="44.08978" lon="6.99287">
        <ele>1366.4000244141</ele>
        <time>2022-08-20T14:47:18.000Z</time>
      </trkpt>
      <trkpt lat="44.09" lon="6.9928">
        <ele>1367</ele>
        <time>2022-08-20T14:47:26.000Z</time>
      </trkpt>
      <trkpt lat="44.09006" lon="6.99279">
        <ele>1367.1999511719</ele>
        <time>2022-08-20T14:47:28.000Z</time>
      </trkpt>
      <trkpt lat="44.09026" lon="6.99277">
        <ele>1367.8000488281</ele>
        <time>2022-08-20T14:47:35.000Z</time>
      </trkpt>
      <trkpt lat="44.09029" lon="6.99277">
        <ele>1368</ele>
        <time>2022-08-20T14:47:36.000Z</time>
      </trkpt>
      <trkpt lat="44.09046" lon="6.99276">
        <ele>1369</ele>
        <time>2022-08-20T14:47:42.000Z</time>
      </trkpt>
      <trkpt lat="44.09073" lon="6.99277">
        <ele>1370</ele>
        <time>2022-08-20T14:47:51.000Z</time>
      </trkpt>
      <trkpt lat="44.09081" lon="6.99279">
        <ele>1370.1999511719</ele>
        <time>2022-08-20T14:47:54.000Z</time>
      </trkpt>
      <trkpt lat="44.0909" lon="6.99281">
        <ele>1370.4000244141</ele>
        <time>2022-08-20T14:47:57.000Z</time>
      </trkpt>
      <trkpt lat="44.09114" lon="6.99282">
        <ele>1371.1999511719</ele>
        <time>2022-08-20T14:48:05.000Z</time>
      </trkpt>
      <trkpt lat="44.09135" lon="6.99277">
        <ele>1372.1999511719</ele>
        <time>2022-08-20T14:48:12.000Z</time>
      </trkpt>
      <trkpt lat="44.0914" lon="6.99276">
        <ele>1372.5999755859</ele>
        <time>2022-08-20T14:48:14.000Z</time>
      </trkpt>
      <trkpt lat="44.09152" lon="6.99273">
        <ele>1373.4000244141</ele>
        <time>2022-08-20T14:48:18.000Z</time>
      </trkpt>
      <trkpt lat="44.09167" lon="6.99269">
        <ele>1374.1999511719</ele>
        <time>2022-08-20T14:48:23.000Z</time>
      </trkpt>
      <trkpt lat="44.09169" lon="6.99269">
        <ele>1374.4000244141</ele>
        <time>2022-08-20T14:48:24.000Z</time>
      </trkpt>
      <trkpt lat="44.09181" lon="6.99263">
        <ele>1375.4000244141</ele>
        <time>2022-08-20T14:48:28.000Z</time>
      </trkpt>
      <trkpt lat="44.09187" lon="6.99259">
        <ele>1376</ele>
        <time>2022-08-20T14:48:30.000Z</time>
      </trkpt>
      <trkpt lat="44.09193" lon="6.99251">
        <ele>1376.5999755859</ele>
        <time>2022-08-20T14:48:33.000Z</time>
      </trkpt>
      <trkpt lat="44.09197" lon="6.99244">
        <ele>1377</ele>
        <time>2022-08-20T14:48:35.000Z</time>
      </trkpt>
      <trkpt lat="44.09201" lon="6.99232">
        <ele>1377.8000488281</ele>
        <time>2022-08-20T14:48:38.000Z</time>
      </trkpt>
      <trkpt lat="44.09205" lon="6.99212">
        <ele>1379</ele>
        <time>2022-08-20T14:48:43.000Z</time>
      </trkpt>
      <trkpt lat="44.09207" lon="6.99191">
        <ele>1380</ele>
        <time>2022-08-20T14:48:48.000Z</time>
      </trkpt>
      <trkpt lat="44.09209" lon="6.99174">
        <ele>1380.8000488281</ele>
        <time>2022-08-20T14:48:52.000Z</time>
      </trkpt>
      <trkpt lat="44.0921" lon="6.9917">
        <ele>1381</ele>
        <time>2022-08-20T14:48:53.000Z</time>
      </trkpt>
      <trkpt lat="44.09218" lon="6.99158">
        <ele>1381.5999755859</ele>
        <time>2022-08-20T14:48:57.000Z</time>
      </trkpt>
      <trkpt lat="44.09231" lon="6.99159">
        <ele>1382</ele>
        <time>2022-08-20T14:49:01.000Z</time>
      </trkpt>
      <trkpt lat="44.09235" lon="6.99161">
        <ele>1382</ele>
        <time>2022-08-20T14:49:02.000Z</time>
      </trkpt>
      <trkpt lat="44.09249" lon="6.99178">
        <ele>1381.5999755859</ele>
        <time>2022-08-20T14:49:08.000Z</time>
      </trkpt>
      <trkpt lat="44.09256" lon="6.99216">
        <ele>1382.8000488281</ele>
        <time>2022-08-20T14:49:17.000Z</time>
      </trkpt>
      <trkpt lat="44.09258" lon="6.99229">
        <ele>1383.1999511719</ele>
        <time>2022-08-20T14:49:20.000Z</time>
      </trkpt>
      <trkpt lat="44.09261" lon="6.9925">
        <ele>1384.1999511719</ele>
        <time>2022-08-20T14:49:25.000Z</time>
      </trkpt>
      <trkpt lat="44.09261" lon="6.99254">
        <ele>1384.4000244141</ele>
        <time>2022-08-20T14:49:26.000Z</time>
      </trkpt>
      <trkpt lat="44.09267" lon="6.99282">
        <ele>1385.1999511719</ele>
        <time>2022-08-20T14:49:33.000Z</time>
      </trkpt>
      <trkpt lat="44.09269" lon="6.99289">
        <ele>1385.4000244141</ele>
        <time>2022-08-20T14:49:35.000Z</time>
      </trkpt>
      <trkpt lat="44.09274" lon="6.99308">
        <ele>1386.4000244141</ele>
        <time>2022-08-20T14:49:40.000Z</time>
      </trkpt>
      <trkpt lat="44.09278" lon="6.99319">
        <ele>1387</ele>
        <time>2022-08-20T14:49:43.000Z</time>
      </trkpt>
      <trkpt lat="44.0928" lon="6.99321">
        <ele>1387.1999511719</ele>
        <time>2022-08-20T14:49:44.000Z</time>
      </trkpt>
      <trkpt lat="44.09283" lon="6.99322">
        <ele>1387.4000244141</ele>
        <time>2022-08-20T14:49:45.000Z</time>
      </trkpt>
      <trkpt lat="44.09286" lon="6.99321">
        <ele>1387.5999755859</ele>
        <time>2022-08-20T14:49:46.000Z</time>
      </trkpt>
      <trkpt lat="44.09291" lon="6.99313">
        <ele>1388.4000244141</ele>
        <time>2022-08-20T14:49:49.000Z</time>
      </trkpt>
      <trkpt lat="44.09291" lon="6.99308">
        <ele>1388.5999755859</ele>
        <time>2022-08-20T14:49:50.000Z</time>
      </trkpt>
      <trkpt lat="44.09289" lon="6.99299">
        <ele>1389</ele>
        <time>2022-08-20T14:49:52.000Z</time>
      </trkpt>
      <trkpt lat="44.09288" lon="6.99295">
        <ele>1389.1999511719</ele>
        <time>2022-08-20T14:49:53.000Z</time>
      </trkpt>
      <trkpt lat="44.09285" lon="6.99278">
        <ele>1389.8000488281</ele>
        <time>2022-08-20T14:49:57.000Z</time>
      </trkpt>
      <trkpt lat="44.09281" lon="6.99259">
        <ele>1390.8000488281</ele>
        <time>2022-08-20T14:50:02.000Z</time>
      </trkpt>
      <trkpt lat="44.09279" lon="6.9924">
        <ele>1391.8000488281</ele>
        <time>2022-08-20T14:50:07.000Z</time>
      </trkpt>
      <trkpt lat="44.09278" lon="6.99227">
        <ele>1392.5999755859</ele>
        <time>2022-08-20T14:50:10.000Z</time>
      </trkpt>
      <trkpt lat="44.09278" lon="6.9922">
        <ele>1393</ele>
        <time>2022-08-20T14:50:12.000Z</time>
      </trkpt>
      <trkpt lat="44.09278" lon="6.992">
        <ele>1394.1999511719</ele>
        <time>2022-08-20T14:50:17.000Z</time>
      </trkpt>
      <trkpt lat="44.09278" lon="6.99188">
        <ele>1395</ele>
        <time>2022-08-20T14:50:20.000Z</time>
      </trkpt>
      <trkpt lat="44.09278" lon="6.99185">
        <ele>1395.1999511719</ele>
        <time>2022-08-20T14:50:21.000Z</time>
      </trkpt>
      <trkpt lat="44.09278" lon="6.99165">
        <ele>1396.1999511719</ele>
        <time>2022-08-20T14:50:26.000Z</time>
      </trkpt>
      <trkpt lat="44.09279" lon="6.99158">
        <ele>1396.5999755859</ele>
        <time>2022-08-20T14:50:28.000Z</time>
      </trkpt>
      <trkpt lat="44.09285" lon="6.99158">
        <ele>1396.8000488281</ele>
        <time>2022-08-20T14:50:30.000Z</time>
      </trkpt>
      <trkpt lat="44.09284" lon="6.9917">
        <ele>1397.5999755859</ele>
        <time>2022-08-20T14:50:33.000Z</time>
      </trkpt>
      <trkpt lat="44.09284" lon="6.99177">
        <ele>1398.1999511719</ele>
        <time>2022-08-20T14:50:35.000Z</time>
      </trkpt>
      <trkpt lat="44.09284" lon="6.99181">
        <ele>1398.5999755859</ele>
        <time>2022-08-20T14:50:36.000Z</time>
      </trkpt>
      <trkpt lat="44.09285" lon="6.99197">
        <ele>1399.4000244141</ele>
        <time>2022-08-20T14:50:40.000Z</time>
      </trkpt>
      <trkpt lat="44.09285" lon="6.99204">
        <ele>1399.5999755859</ele>
        <time>2022-08-20T14:50:42.000Z</time>
      </trkpt>
      <trkpt lat="44.09289" lon="6.99231">
        <ele>1400.5999755859</ele>
        <time>2022-08-20T14:50:49.000Z</time>
      </trkpt>
      <trkpt lat="44.09292" lon="6.99242">
        <ele>1401.1999511719</ele>
        <time>2022-08-20T14:50:52.000Z</time>
      </trkpt>
      <trkpt lat="44.09295" lon="6.99257">
        <ele>1401.8000488281</ele>
        <time>2022-08-20T14:50:56.000Z</time>
      </trkpt>
      <trkpt lat="44.09297" lon="6.99282">
        <ele>1402.8000488281</ele>
        <time>2022-08-20T14:51:03.000Z</time>
      </trkpt>
      <trkpt lat="44.09303" lon="6.99295">
        <ele>1403.8000488281</ele>
        <time>2022-08-20T14:51:08.000Z</time>
      </trkpt>
      <trkpt lat="44.09308" lon="6.99296">
        <ele>1404.4000244141</ele>
        <time>2022-08-20T14:51:10.000Z</time>
      </trkpt>
      <trkpt lat="44.09312" lon="6.99291">
        <ele>1404.5999755859</ele>
        <time>2022-08-20T14:51:12.000Z</time>
      </trkpt>
      <trkpt lat="44.09312" lon="6.99275">
        <ele>1405</ele>
        <time>2022-08-20T14:51:16.000Z</time>
      </trkpt>
      <trkpt lat="44.0931" lon="6.99268">
        <ele>1405</ele>
        <time>2022-08-20T14:51:18.000Z</time>
      </trkpt>
      <trkpt lat="44.09306" lon="6.99245">
        <ele>1406.1999511719</ele>
        <time>2022-08-20T14:51:24.000Z</time>
      </trkpt>
      <trkpt lat="44.09304" lon="6.99229">
        <ele>1407.1999511719</ele>
        <time>2022-08-20T14:51:28.000Z</time>
      </trkpt>
      <trkpt lat="44.09303" lon="6.99204">
        <ele>1408.4000244141</ele>
        <time>2022-08-20T14:51:34.000Z</time>
      </trkpt>
      <trkpt lat="44.09306" lon="6.99185">
        <ele>1409.5999755859</ele>
        <time>2022-08-20T14:51:39.000Z</time>
      </trkpt>
      <trkpt lat="44.09309" lon="6.99173">
        <ele>1410.1999511719</ele>
        <time>2022-08-20T14:51:42.000Z</time>
      </trkpt>
      <trkpt lat="44.09312" lon="6.99162">
        <ele>1410.8000488281</ele>
        <time>2022-08-20T14:51:45.000Z</time>
      </trkpt>
      <trkpt lat="44.09316" lon="6.99147">
        <ele>1411.8000488281</ele>
        <time>2022-08-20T14:51:49.000Z</time>
      </trkpt>
      <trkpt lat="44.09317" lon="6.99138">
        <ele>1412.1999511719</ele>
        <time>2022-08-20T14:51:51.000Z</time>
      </trkpt>
      <trkpt lat="44.09317" lon="6.99127">
        <ele>1412.8000488281</ele>
        <time>2022-08-20T14:51:54.000Z</time>
      </trkpt>
      <trkpt lat="44.09317" lon="6.99107">
        <ele>1413.8000488281</ele>
        <time>2022-08-20T14:51:59.000Z</time>
      </trkpt>
      <trkpt lat="44.09317" lon="6.99103">
        <ele>1414</ele>
        <time>2022-08-20T14:52:00.000Z</time>
      </trkpt>
      <trkpt lat="44.09317" lon="6.99079">
        <ele>1415.1999511719</ele>
        <time>2022-08-20T14:52:06.000Z</time>
      </trkpt>
      <trkpt lat="44.09317" lon="6.99068">
        <ele>1416</ele>
        <time>2022-08-20T14:52:09.000Z</time>
      </trkpt>
      <trkpt lat="44.09318" lon="6.9906">
        <ele>1416.4000244141</ele>
        <time>2022-08-20T14:52:11.000Z</time>
      </trkpt>
      <trkpt lat="44.09323" lon="6.99042">
        <ele>1417.5999755859</ele>
        <time>2022-08-20T14:52:16.000Z</time>
      </trkpt>
      <trkpt lat="44.09331" lon="6.99026">
        <ele>1418.8000488281</ele>
        <time>2022-08-20T14:52:21.000Z</time>
      </trkpt>
      <trkpt lat="44.09337" lon="6.99014">
        <ele>1420</ele>
        <time>2022-08-20T14:52:25.000Z</time>
      </trkpt>
      <trkpt lat="44.0934" lon="6.99009">
        <ele>1420.4000244141</ele>
        <time>2022-08-20T14:52:27.000Z</time>
      </trkpt>
      <trkpt lat="44.09344" lon="6.98999">
        <ele>1421.1999511719</ele>
        <time>2022-08-20T14:52:30.000Z</time>
      </trkpt>
      <trkpt lat="44.09351" lon="6.9898">
        <ele>1422.1999511719</ele>
        <time>2022-08-20T14:52:36.000Z</time>
      </trkpt>
      <trkpt lat="44.09354" lon="6.98963">
        <ele>1423.4000244141</ele>
        <time>2022-08-20T14:52:41.000Z</time>
      </trkpt>
      <trkpt lat="44.09358" lon="6.98948">
        <ele>1424.1999511719</ele>
        <time>2022-08-20T14:52:45.000Z</time>
      </trkpt>
      <trkpt lat="44.09359" lon="6.98944">
        <ele>1424.4000244141</ele>
        <time>2022-08-20T14:52:46.000Z</time>
      </trkpt>
      <trkpt lat="44.09363" lon="6.98927">
        <ele>1425.5999755859</ele>
        <time>2022-08-20T14:52:51.000Z</time>
      </trkpt>
      <trkpt lat="44.09367" lon="6.98912">
        <ele>1426.1999511719</ele>
        <time>2022-08-20T14:52:55.000Z</time>
      </trkpt>
      <trkpt lat="44.0937" lon="6.98904">
        <ele>1426.8000488281</ele>
        <time>2022-08-20T14:52:57.000Z</time>
      </trkpt>
      <trkpt lat="44.09375" lon="6.98887">
        <ele>1428</ele>
        <time>2022-08-20T14:53:01.000Z</time>
      </trkpt>
      <trkpt lat="44.09378" lon="6.98879">
        <ele>1428.5999755859</ele>
        <time>2022-08-20T14:53:03.000Z</time>
      </trkpt>
      <trkpt lat="44.09381" lon="6.98872">
        <ele>1429</ele>
        <time>2022-08-20T14:53:05.000Z</time>
      </trkpt>
      <trkpt lat="44.0939" lon="6.98852">
        <ele>1430</ele>
        <time>2022-08-20T14:53:10.000Z</time>
      </trkpt>
      <trkpt lat="44.09394" lon="6.98844">
        <ele>1430.4000244141</ele>
        <time>2022-08-20T14:53:12.000Z</time>
      </trkpt>
      <trkpt lat="44.09403" lon="6.9883">
        <ele>1431.1999511719</ele>
        <time>2022-08-20T14:53:16.000Z</time>
      </trkpt>
      <trkpt lat="44.09414" lon="6.98818">
        <ele>1432.1999511719</ele>
        <time>2022-08-20T14:53:20.000Z</time>
      </trkpt>
      <trkpt lat="44.09416" lon="6.98815">
        <ele>1432.4000244141</ele>
        <time>2022-08-20T14:53:21.000Z</time>
      </trkpt>
      <trkpt lat="44.09432" lon="6.98795">
        <ele>1433.5999755859</ele>
        <time>2022-08-20T14:53:27.000Z</time>
      </trkpt>
      <trkpt lat="44.09441" lon="6.98786">
        <ele>1434</ele>
        <time>2022-08-20T14:53:30.000Z</time>
      </trkpt>
      <trkpt lat="44.09448" lon="6.98779">
        <ele>1434.5999755859</ele>
        <time>2022-08-20T14:53:33.000Z</time>
      </trkpt>
      <trkpt lat="44.09454" lon="6.98771">
        <ele>1435.1999511719</ele>
        <time>2022-08-20T14:53:36.000Z</time>
      </trkpt>
      <trkpt lat="44.0946" lon="6.98763">
        <ele>1435.8000488281</ele>
        <time>2022-08-20T14:53:39.000Z</time>
      </trkpt>
      <trkpt lat="44.09466" lon="6.98748">
        <ele>1436.5999755859</ele>
        <time>2022-08-20T14:53:43.000Z</time>
      </trkpt>
      <trkpt lat="44.09467" lon="6.98744">
        <ele>1436.8000488281</ele>
        <time>2022-08-20T14:53:44.000Z</time>
      </trkpt>
      <trkpt lat="44.0947" lon="6.9872">
        <ele>1437.8000488281</ele>
        <time>2022-08-20T14:53:49.000Z</time>
      </trkpt>
      <trkpt lat="44.0947" lon="6.98715">
        <ele>1438</ele>
        <time>2022-08-20T14:53:50.000Z</time>
      </trkpt>
      <trkpt lat="44.09472" lon="6.98685">
        <ele>1439</ele>
        <time>2022-08-20T14:53:56.000Z</time>
      </trkpt>
      <trkpt lat="44.09473" lon="6.98679">
        <ele>1439.1999511719</ele>
        <time>2022-08-20T14:53:57.000Z</time>
      </trkpt>
      <trkpt lat="44.09482" lon="6.98657">
        <ele>1440</ele>
        <time>2022-08-20T14:54:02.000Z</time>
      </trkpt>
      <trkpt lat="44.09488" lon="6.98653">
        <ele>1440</ele>
        <time>2022-08-20T14:54:04.000Z</time>
      </trkpt>
      <trkpt lat="44.095" lon="6.98645">
        <ele>1441</ele>
        <time>2022-08-20T14:54:08.000Z</time>
      </trkpt>
      <trkpt lat="44.09503" lon="6.98643">
        <ele>1441.1999511719</ele>
        <time>2022-08-20T14:54:09.000Z</time>
      </trkpt>
      <trkpt lat="44.09513" lon="6.98636">
        <ele>1442.4000244141</ele>
        <time>2022-08-20T14:54:14.000Z</time>
      </trkpt>
      <trkpt lat="44.09515" lon="6.98635">
        <ele>1442.4000244141</ele>
        <time>2022-08-20T14:54:15.000Z</time>
      </trkpt>
      <trkpt lat="44.09522" lon="6.9863">
        <ele>1443</ele>
        <time>2022-08-20T14:54:22.000Z</time>
      </trkpt>
      <trkpt lat="44.09522" lon="6.9863">
        <ele>1443.4000244141</ele>
        <time>2022-08-20T14:54:27.000Z</time>
      </trkpt>
      <trkpt lat="44.09523" lon="6.98631">
        <ele>1443.1999511719</ele>
        <time>2022-08-20T14:54:36.000Z</time>
      </trkpt>
      <trkpt lat="44.09523" lon="6.98635">
        <ele>1443.4000244141</ele>
        <time>2022-08-20T14:54:41.000Z</time>
      </trkpt>
      <trkpt lat="44.09523" lon="6.98636">
        <ele>1444.1999511719</ele>
        <time>2022-08-20T14:54:50.000Z</time>
      </trkpt>
      <trkpt lat="44.09522" lon="6.98638">
        <ele>1444.1999511719</ele>
        <time>2022-08-20T14:54:57.000Z</time>
      </trkpt>
      <trkpt lat="44.09522" lon="6.98639">
        <ele>1443.5999755859</ele>
        <time>2022-08-20T14:55:04.000Z</time>
      </trkpt>
      <trkpt lat="44.09519" lon="6.98644">
        <ele>1444.4000244141</ele>
        <time>2022-08-20T14:55:10.000Z</time>
      </trkpt>
      <trkpt lat="44.09519" lon="6.98644">
        <ele>1444.8000488281</ele>
        <time>2022-08-20T14:55:13.000Z</time>
      </trkpt>
      <trkpt lat="44.09519" lon="6.98645">
        <ele>1444.8000488281</ele>
        <time>2022-08-20T14:55:18.000Z</time>
      </trkpt>
      <trkpt lat="44.0952" lon="6.98646">
        <ele>1444.8000488281</ele>
        <time>2022-08-20T14:55:25.000Z</time>
      </trkpt>
      <trkpt lat="44.0952" lon="6.98646">
        <ele>1444.4000244141</ele>
        <time>2022-08-20T14:55:31.000Z</time>
      </trkpt>
      <trkpt lat="44.09519" lon="6.98646">
        <ele>1444</ele>
        <time>2022-08-20T14:55:44.000Z</time>
      </trkpt>
      <trkpt lat="44.09519" lon="6.98647">
        <ele>1444.5999755859</ele>
        <time>2022-08-20T14:55:51.000Z</time>
      </trkpt>
      <trkpt lat="44.09519" lon="6.98648">
        <ele>1444.1999511719</ele>
        <time>2022-08-20T14:55:59.000Z</time>
      </trkpt>
      <trkpt lat="44.09518" lon="6.98647">
        <ele>1444.8000488281</ele>
        <time>2022-08-20T14:56:06.000Z</time>
      </trkpt>
      <trkpt lat="44.09518" lon="6.98647">
        <ele>1444.5999755859</ele>
        <time>2022-08-20T14:56:08.000Z</time>
      </trkpt>
      <trkpt lat="44.09518" lon="6.98648">
        <ele>1443.8000488281</ele>
        <time>2022-08-20T14:56:16.000Z</time>
      </trkpt>
      <trkpt lat="44.09518" lon="6.98648">
        <ele>1444.5999755859</ele>
        <time>2022-08-20T14:56:34.000Z</time>
      </trkpt>
      <trkpt lat="44.09518" lon="6.98647">
        <ele>1443.5999755859</ele>
        <time>2022-08-20T14:56:43.000Z</time>
      </trkpt>
      <trkpt lat="44.09518" lon="6.98647">
        <ele>1444.1999511719</ele>
        <time>2022-08-20T14:56:55.000Z</time>
      </trkpt>
      <trkpt lat="44.09518" lon="6.98647">
        <ele>1444.4000244141</ele>
        <time>2022-08-20T14:57:12.000Z</time>
      </trkpt>
      <trkpt lat="44.09518" lon="6.98647">
        <ele>1443.5999755859</ele>
        <time>2022-08-20T14:57:25.000Z</time>
      </trkpt>
      <trkpt lat="44.09518" lon="6.98647">
        <ele>1443.5999755859</ele>
        <time>2022-08-20T14:57:37.000Z</time>
      </trkpt>
      <trkpt lat="44.09518" lon="6.98647">
        <ele>1444</ele>
        <time>2022-08-20T14:57:47.000Z</time>
      </trkpt>
      <trkpt lat="44.09518" lon="6.98647">
        <ele>1444</ele>
        <time>2022-08-20T14:57:52.000Z</time>
      </trkpt>
      <trkpt lat="44.09519" lon="6.98647">
        <ele>1444.5999755859</ele>
        <time>2022-08-20T14:58:01.000Z</time>
      </trkpt>
      <trkpt lat="44.09518" lon="6.98647">
        <ele>1444.4000244141</ele>
        <time>2022-08-20T14:58:06.000Z</time>
      </trkpt>
      <trkpt lat="44.09518" lon="6.98646">
        <ele>1444.4000244141</ele>
        <time>2022-08-20T14:58:15.000Z</time>
      </trkpt>
      <trkpt lat="44.09521" lon="6.98638">
        <ele>1444.1999511719</ele>
        <time>2022-08-20T14:58:20.000Z</time>
      </trkpt>
      <trkpt lat="44.09526" lon="6.98627">
        <ele>1444</ele>
        <time>2022-08-20T14:58:22.000Z</time>
      </trkpt>
      <trkpt lat="44.09529" lon="6.98625">
        <ele>1443.4000244141</ele>
        <time>2022-08-20T14:58:23.000Z</time>
      </trkpt>
      <trkpt lat="44.09532" lon="6.98622">
        <ele>1443.1999511719</ele>
        <time>2022-08-20T14:58:24.000Z</time>
      </trkpt>
      <trkpt lat="44.09543" lon="6.98614">
        <ele>1442.8000488281</ele>
        <time>2022-08-20T14:58:28.000Z</time>
      </trkpt>
      <trkpt lat="44.09565" lon="6.98596">
        <ele>1444.1999511719</ele>
        <time>2022-08-20T14:58:37.000Z</time>
      </trkpt>
      <trkpt lat="44.0958" lon="6.98584">
        <ele>1445.1999511719</ele>
        <time>2022-08-20T14:58:43.000Z</time>
      </trkpt>
      <trkpt lat="44.09593" lon="6.98573">
        <ele>1446</ele>
        <time>2022-08-20T14:58:48.000Z</time>
      </trkpt>
      <trkpt lat="44.09599" lon="6.9857">
        <ele>1446.4000244141</ele>
        <time>2022-08-20T14:58:50.000Z</time>
      </trkpt>
      <trkpt lat="44.09606" lon="6.98572">
        <ele>1446.5999755859</ele>
        <time>2022-08-20T14:58:52.000Z</time>
      </trkpt>
      <trkpt lat="44.09615" lon="6.98581">
        <ele>1447.4000244141</ele>
        <time>2022-08-20T14:58:56.000Z</time>
      </trkpt>
      <trkpt lat="44.09617" lon="6.98584">
        <ele>1447.5999755859</ele>
        <time>2022-08-20T14:58:57.000Z</time>
      </trkpt>
      <trkpt lat="44.09621" lon="6.98587">
        <ele>1448.5999755859</ele>
        <time>2022-08-20T14:58:59.000Z</time>
      </trkpt>
      <trkpt lat="44.09625" lon="6.98587">
        <ele>1449</ele>
        <time>2022-08-20T14:59:01.000Z</time>
      </trkpt>
      <trkpt lat="44.09626" lon="6.98588">
        <ele>1449.5999755859</ele>
        <time>2022-08-20T14:59:04.000Z</time>
      </trkpt>
      <trkpt lat="44.09626" lon="6.98588">
        <ele>1449.5999755859</ele>
        <time>2022-08-20T14:59:05.000Z</time>
      </trkpt>
      <trkpt lat="44.09626" lon="6.98586">
        <ele>1449.5999755859</ele>
        <time>2022-08-20T14:59:16.000Z</time>
      </trkpt>
      <trkpt lat="44.09622" lon="6.98584">
        <ele>1449.4000244141</ele>
        <time>2022-08-20T14:59:20.000Z</time>
      </trkpt>
      <trkpt lat="44.09614" lon="6.98594">
        <ele>1449.1999511719</ele>
        <time>2022-08-20T14:59:24.000Z</time>
      </trkpt>
      <trkpt lat="44.09611" lon="6.98597">
        <ele>1449.4000244141</ele>
        <time>2022-08-20T14:59:25.000Z</time>
      </trkpt>
      <trkpt lat="44.09599" lon="6.9861">
        <ele>1449.8000488281</ele>
        <time>2022-08-20T14:59:31.000Z</time>
      </trkpt>
      <trkpt lat="44.09589" lon="6.98624">
        <ele>1450.5999755859</ele>
        <time>2022-08-20T14:59:37.000Z</time>
      </trkpt>
      <trkpt lat="44.09589" lon="6.98627">
        <ele>1450.5999755859</ele>
        <time>2022-08-20T14:59:38.000Z</time>
      </trkpt>
      <trkpt lat="44.09597" lon="6.98633">
        <ele>1450.8000488281</ele>
        <time>2022-08-20T14:59:42.000Z</time>
      </trkpt>
      <trkpt lat="44.09599" lon="6.98634">
        <ele>1450.5999755859</ele>
        <time>2022-08-20T14:59:43.000Z</time>
      </trkpt>
      <trkpt lat="44.09601" lon="6.98635">
        <ele>1450.8000488281</ele>
        <time>2022-08-20T14:59:44.000Z</time>
      </trkpt>
      <trkpt lat="44.09603" lon="6.98642">
        <ele>1450.8000488281</ele>
        <time>2022-08-20T14:59:47.000Z</time>
      </trkpt>
      <trkpt lat="44.09603" lon="6.98644">
        <ele>1451</ele>
        <time>2022-08-20T14:59:48.000Z</time>
      </trkpt>
      <trkpt lat="44.09603" lon="6.98645">
        <ele>1451</ele>
        <time>2022-08-20T14:59:51.000Z</time>
      </trkpt>
      <trkpt lat="44.09602" lon="6.98644">
        <ele>1451</ele>
        <time>2022-08-20T14:59:58.000Z</time>
      </trkpt>
      <trkpt lat="44.09601" lon="6.98644">
        <ele>1450.5999755859</ele>
        <time>2022-08-20T15:00:13.000Z</time>
      </trkpt>
      <trkpt lat="44.09599" lon="6.98641">
        <ele>1450.8000488281</ele>
        <time>2022-08-20T15:00:21.000Z</time>
      </trkpt>
      <trkpt lat="44.09599" lon="6.98637">
        <ele>1450.8000488281</ele>
        <time>2022-08-20T15:00:26.000Z</time>
      </trkpt>
      <trkpt lat="44.09599" lon="6.98635">
        <ele>1450.8000488281</ele>
        <time>2022-08-20T15:00:27.000Z</time>
      </trkpt>
      <trkpt lat="44.09598" lon="6.98625">
        <ele>1450.5999755859</ele>
        <time>2022-08-20T15:00:30.000Z</time>
      </trkpt>
      <trkpt lat="44.09599" lon="6.98611">
        <ele>1450.4000244141</ele>
        <time>2022-08-20T15:00:33.000Z</time>
      </trkpt>
      <trkpt lat="44.09601" lon="6.98607">
        <ele>1450.4000244141</ele>
        <time>2022-08-20T15:00:34.000Z</time>
      </trkpt>
      <trkpt lat="44.09612" lon="6.98594">
        <ele>1450</ele>
        <time>2022-08-20T15:00:37.000Z</time>
      </trkpt>
      <trkpt lat="44.09616" lon="6.98591">
        <ele>1449.8000488281</ele>
        <time>2022-08-20T15:00:38.000Z</time>
      </trkpt>
      <trkpt lat="44.09619" lon="6.98589">
        <ele>1449.8000488281</ele>
        <time>2022-08-20T15:00:39.000Z</time>
      </trkpt>
      <trkpt lat="44.09623" lon="6.98587">
        <ele>1449.5999755859</ele>
        <time>2022-08-20T15:00:41.000Z</time>
      </trkpt>
      <trkpt lat="44.09622" lon="6.98587">
        <ele>1449.4000244141</ele>
        <time>2022-08-20T15:00:42.000Z</time>
      </trkpt>
      <trkpt lat="44.09623" lon="6.98588">
        <ele>1449.8000488281</ele>
        <time>2022-08-20T15:01:08.000Z</time>
      </trkpt>
      <trkpt lat="44.09622" lon="6.98584">
        <ele>1449.8000488281</ele>
        <time>2022-08-20T15:01:12.000Z</time>
      </trkpt>
      <trkpt lat="44.0962" lon="6.98583">
        <ele>1449.8000488281</ele>
        <time>2022-08-20T15:01:13.000Z</time>
      </trkpt>
      <trkpt lat="44.09613" lon="6.9859">
        <ele>1449.4000244141</ele>
        <time>2022-08-20T15:01:16.000Z</time>
      </trkpt>
      <trkpt lat="44.09611" lon="6.98593">
        <ele>1449.4000244141</ele>
        <time>2022-08-20T15:01:17.000Z</time>
      </trkpt>
      <trkpt lat="44.09599" lon="6.98609">
        <ele>1449.1999511719</ele>
        <time>2022-08-20T15:01:22.000Z</time>
      </trkpt>
      <trkpt lat="44.09598" lon="6.98612">
        <ele>1449.4000244141</ele>
        <time>2022-08-20T15:01:23.000Z</time>
      </trkpt>
      <trkpt lat="44.09599" lon="6.9862">
        <ele>1449.5999755859</ele>
        <time>2022-08-20T15:01:25.000Z</time>
      </trkpt>
      <trkpt lat="44.09601" lon="6.98639">
        <ele>1450.5999755859</ele>
        <time>2022-08-20T15:01:30.000Z</time>
      </trkpt>
      <trkpt lat="44.09601" lon="6.98642">
        <ele>1450.5999755859</ele>
        <time>2022-08-20T15:01:31.000Z</time>
      </trkpt>
      <trkpt lat="44.096" lon="6.98644">
        <ele>1451.1999511719</ele>
        <time>2022-08-20T15:01:35.000Z</time>
      </trkpt>
      <trkpt lat="44.096" lon="6.98647">
        <ele>1451.1999511719</ele>
        <time>2022-08-20T15:01:41.000Z</time>
      </trkpt>
      <trkpt lat="44.096" lon="6.98647">
        <ele>1451</ele>
        <time>2022-08-20T15:01:48.000Z</time>
      </trkpt>
      <trkpt lat="44.096" lon="6.98648">
        <ele>1451.1999511719</ele>
        <time>2022-08-20T15:01:56.000Z</time>
      </trkpt>
      <trkpt lat="44.09598" lon="6.98645">
        <ele>1451</ele>
        <time>2022-08-20T15:02:03.000Z</time>
      </trkpt>
      <trkpt lat="44.09598" lon="6.98643">
        <ele>1451</ele>
        <time>2022-08-20T15:02:09.000Z</time>
      </trkpt>
      <trkpt lat="44.09597" lon="6.98641">
        <ele>1451</ele>
        <time>2022-08-20T15:02:18.000Z</time>
      </trkpt>
      <trkpt lat="44.09596" lon="6.98639">
        <ele>1451.5999755859</ele>
        <time>2022-08-20T15:02:27.000Z</time>
      </trkpt>
      <trkpt lat="44.09596" lon="6.98639">
        <ele>1451.5999755859</ele>
        <time>2022-08-20T15:02:28.000Z</time>
      </trkpt>
      <trkpt lat="44.09596" lon="6.98636">
        <ele>1451.4000244141</ele>
        <time>2022-08-20T15:02:36.000Z</time>
      </trkpt>
      <trkpt lat="44.09594" lon="6.98634">
        <ele>1451.1999511719</ele>
        <time>2022-08-20T15:02:44.000Z</time>
      </trkpt>
      <trkpt lat="44.09593" lon="6.98629">
        <ele>1450.8000488281</ele>
        <time>2022-08-20T15:02:53.000Z</time>
      </trkpt>
      <trkpt lat="44.09591" lon="6.98625">
        <ele>1451.1999511719</ele>
        <time>2022-08-20T15:03:04.000Z</time>
      </trkpt>
      <trkpt lat="44.0959" lon="6.98621">
        <ele>1451.4000244141</ele>
        <time>2022-08-20T15:03:17.000Z</time>
      </trkpt>
      <trkpt lat="44.09589" lon="6.98619">
        <ele>1451.1999511719</ele>
        <time>2022-08-20T15:03:28.000Z</time>
      </trkpt>
      <trkpt lat="44.09589" lon="6.98618">
        <ele>1450.8000488281</ele>
        <time>2022-08-20T15:03:34.000Z</time>
      </trkpt>
      <trkpt lat="44.0959" lon="6.98622">
        <ele>1451</ele>
        <time>2022-08-20T15:03:49.000Z</time>
      </trkpt>
      <trkpt lat="44.09592" lon="6.98626">
        <ele>1451</ele>
        <time>2022-08-20T15:04:12.000Z</time>
      </trkpt>
      <trkpt lat="44.09594" lon="6.98628">
        <ele>1451</ele>
        <time>2022-08-20T15:04:27.000Z</time>
      </trkpt>
      <trkpt lat="44.09594" lon="6.98628">
        <ele>1451</ele>
        <time>2022-08-20T15:04:35.000Z</time>
      </trkpt>
      <trkpt lat="44.09595" lon="6.98632">
        <ele>1450.8000488281</ele>
        <time>2022-08-20T15:04:56.000Z</time>
      </trkpt>
      <trkpt lat="44.09596" lon="6.98633">
        <ele>1450.8000488281</ele>
        <time>2022-08-20T15:05:14.000Z</time>
      </trkpt>
      <trkpt lat="44.09596" lon="6.98632">
        <ele>1450.8000488281</ele>
        <time>2022-08-20T15:05:31.000Z</time>
      </trkpt>
      <trkpt lat="44.09597" lon="6.98635">
        <ele>1450.8000488281</ele>
        <time>2022-08-20T15:05:53.000Z</time>
      </trkpt>
      <trkpt lat="44.09597" lon="6.98636">
        <ele>1450.8000488281</ele>
        <time>2022-08-20T15:06:10.000Z</time>
      </trkpt>
    </trkseg>
  </trk>
</gpx>